<?xml version="1.0" encoding="UTF-8" standalone="no" ?>
<gpx xmlns="http://www.topografix.com/GPX/1/1" xmlns:xsi="http://www.w3.org/2001/XMLSchema-instance" xsi:schemaLocation="http://www.topografix.com/GPX/1/1 http://www.topografix.com/GPX/1/1/gpx.xsd" version="1.1" creator="VisuGPX - https://www.visugpx.com">
  <metadata>
    <name>St Montan 35km</name>
    <desc><![CDATA[D  900m
ludique, accessible à tous]]></desc>
  </metadata>
  <trk>
    <name><![CDATA[St Montan 35km_1]]></name>
    <trkseg>
      <trkpt lat="44.43949" lon="4.62403">
        <ele>89</ele>
        <time>29-03-2015T07:35:09Z</time>
      </trkpt>
      <trkpt lat="44.43955" lon="4.62397">
        <ele>89</ele>
        <time>29-03-2015T07:35:11Z</time>
      </trkpt>
      <trkpt lat="44.43963" lon="4.62398">
        <ele>89</ele>
        <time>29-03-2015T07:35:13Z</time>
      </trkpt>
      <trkpt lat="44.43968" lon="4.62399">
        <ele>89</ele>
        <time>29-03-2015T07:35:15Z</time>
      </trkpt>
      <trkpt lat="44.43975" lon="4.62393">
        <ele>89</ele>
        <time>29-03-2015T07:35:17Z</time>
      </trkpt>
      <trkpt lat="44.4398" lon="4.62387">
        <ele>89</ele>
        <time>29-03-2015T07:35:18Z</time>
      </trkpt>
      <trkpt lat="44.43983" lon="4.6238">
        <ele>89</ele>
        <time>29-03-2015T07:35:19Z</time>
      </trkpt>
      <trkpt lat="44.43988" lon="4.62378">
        <ele>89</ele>
        <time>29-03-2015T07:35:20Z</time>
      </trkpt>
      <trkpt lat="44.43992" lon="4.62372">
        <ele>89</ele>
        <time>29-03-2015T07:35:22Z</time>
      </trkpt>
      <trkpt lat="44.43997" lon="4.62368">
        <ele>89</ele>
        <time>29-03-2015T07:35:24Z</time>
      </trkpt>
      <trkpt lat="44.44003" lon="4.62367">
        <ele>89</ele>
        <time>29-03-2015T07:35:26Z</time>
      </trkpt>
      <trkpt lat="44.44008" lon="4.62369">
        <ele>89</ele>
        <time>29-03-2015T07:35:27Z</time>
      </trkpt>
      <trkpt lat="44.44012" lon="4.62371">
        <ele>91</ele>
        <time>29-03-2015T07:35:29Z</time>
      </trkpt>
      <trkpt lat="44.44017" lon="4.62375">
        <ele>91</ele>
        <time>29-03-2015T07:35:31Z</time>
      </trkpt>
      <trkpt lat="44.44024" lon="4.62376">
        <ele>91</ele>
        <time>29-03-2015T07:35:33Z</time>
      </trkpt>
      <trkpt lat="44.4403" lon="4.62374">
        <ele>94</ele>
        <time>29-03-2015T07:35:36Z</time>
      </trkpt>
      <trkpt lat="44.44036" lon="4.62376">
        <ele>95</ele>
        <time>29-03-2015T07:35:39Z</time>
      </trkpt>
      <trkpt lat="44.44041" lon="4.62379">
        <ele>95</ele>
        <time>29-03-2015T07:35:41Z</time>
      </trkpt>
      <trkpt lat="44.44043" lon="4.62385">
        <ele>95</ele>
        <time>29-03-2015T07:35:44Z</time>
      </trkpt>
      <trkpt lat="44.44044" lon="4.62392">
        <ele>95</ele>
        <time>29-03-2015T07:35:46Z</time>
      </trkpt>
      <trkpt lat="44.44047" lon="4.624">
        <ele>95</ele>
        <time>29-03-2015T07:35:48Z</time>
      </trkpt>
      <trkpt lat="44.4405" lon="4.62408">
        <ele>95</ele>
        <time>29-03-2015T07:35:50Z</time>
      </trkpt>
      <trkpt lat="44.44057" lon="4.6241">
        <ele>95</ele>
        <time>29-03-2015T07:35:52Z</time>
      </trkpt>
      <trkpt lat="44.44061" lon="4.62407">
        <ele>95</ele>
        <time>29-03-2015T07:35:53Z</time>
      </trkpt>
      <trkpt lat="44.44067" lon="4.62401">
        <ele>95</ele>
        <time>29-03-2015T07:35:55Z</time>
      </trkpt>
      <trkpt lat="44.44074" lon="4.62396">
        <ele>95</ele>
        <time>29-03-2015T07:35:57Z</time>
      </trkpt>
      <trkpt lat="44.44082" lon="4.62395">
        <ele>95</ele>
        <time>29-03-2015T07:35:59Z</time>
      </trkpt>
      <trkpt lat="44.44083" lon="4.62404">
        <ele>95</ele>
        <time>29-03-2015T07:36:04Z</time>
      </trkpt>
      <trkpt lat="44.44081" lon="4.62412">
        <ele>95</ele>
        <time>29-03-2015T07:36:06Z</time>
      </trkpt>
      <trkpt lat="44.44078" lon="4.62422">
        <ele>95</ele>
        <time>29-03-2015T07:36:08Z</time>
      </trkpt>
      <trkpt lat="44.44077" lon="4.62434">
        <ele>95</ele>
        <time>29-03-2015T07:36:10Z</time>
      </trkpt>
      <trkpt lat="44.44072" lon="4.62441">
        <ele>95</ele>
        <time>29-03-2015T07:36:12Z</time>
      </trkpt>
      <trkpt lat="44.44066" lon="4.62449">
        <ele>96</ele>
        <time>29-03-2015T07:36:14Z</time>
      </trkpt>
      <trkpt lat="44.44063" lon="4.62455">
        <ele>96</ele>
        <time>29-03-2015T07:36:17Z</time>
      </trkpt>
      <trkpt lat="44.4406" lon="4.62459">
        <ele>97</ele>
        <time>29-03-2015T07:36:19Z</time>
      </trkpt>
      <trkpt lat="44.44053" lon="4.62462">
        <ele>97</ele>
        <time>29-03-2015T07:36:22Z</time>
      </trkpt>
      <trkpt lat="44.44051" lon="4.62468">
        <ele>97</ele>
        <time>29-03-2015T07:36:23Z</time>
      </trkpt>
      <trkpt lat="44.44047" lon="4.62472">
        <ele>97</ele>
        <time>29-03-2015T07:36:26Z</time>
      </trkpt>
      <trkpt lat="44.4404" lon="4.62471">
        <ele>97</ele>
        <time>29-03-2015T07:36:28Z</time>
      </trkpt>
      <trkpt lat="44.44036" lon="4.62475">
        <ele>99</ele>
        <time>29-03-2015T07:36:30Z</time>
      </trkpt>
      <trkpt lat="44.4403" lon="4.62477">
        <ele>99</ele>
        <time>29-03-2015T07:36:32Z</time>
      </trkpt>
      <trkpt lat="44.44025" lon="4.62483">
        <ele>101</ele>
        <time>29-03-2015T07:36:34Z</time>
      </trkpt>
      <trkpt lat="44.4402" lon="4.62486">
        <ele>101</ele>
        <time>29-03-2015T07:36:36Z</time>
      </trkpt>
      <trkpt lat="44.44017" lon="4.62494">
        <ele>103</ele>
        <time>29-03-2015T07:36:39Z</time>
      </trkpt>
      <trkpt lat="44.44017" lon="4.62502">
        <ele>103</ele>
        <time>29-03-2015T07:36:41Z</time>
      </trkpt>
      <trkpt lat="44.44012" lon="4.62508">
        <ele>103</ele>
        <time>29-03-2015T07:36:43Z</time>
      </trkpt>
      <trkpt lat="44.44006" lon="4.62515">
        <ele>103</ele>
        <time>29-03-2015T07:36:45Z</time>
      </trkpt>
      <trkpt lat="44.44002" lon="4.62522">
        <ele>103</ele>
        <time>29-03-2015T07:36:47Z</time>
      </trkpt>
      <trkpt lat="44.43996" lon="4.62528">
        <ele>104</ele>
        <time>29-03-2015T07:36:49Z</time>
      </trkpt>
      <trkpt lat="44.43993" lon="4.62536">
        <ele>104</ele>
        <time>29-03-2015T07:36:51Z</time>
      </trkpt>
      <trkpt lat="44.43989" lon="4.62543">
        <ele>104</ele>
        <time>29-03-2015T07:36:53Z</time>
      </trkpt>
      <trkpt lat="44.43985" lon="4.6255">
        <ele>104</ele>
        <time>29-03-2015T07:36:55Z</time>
      </trkpt>
      <trkpt lat="44.43983" lon="4.62557">
        <ele>104</ele>
        <time>29-03-2015T07:36:57Z</time>
      </trkpt>
      <trkpt lat="44.43979" lon="4.62563">
        <ele>106</ele>
        <time>29-03-2015T07:36:59Z</time>
      </trkpt>
      <trkpt lat="44.43977" lon="4.62569">
        <ele>106</ele>
        <time>29-03-2015T07:37:01Z</time>
      </trkpt>
      <trkpt lat="44.43974" lon="4.62575">
        <ele>106</ele>
        <time>29-03-2015T07:37:03Z</time>
      </trkpt>
      <trkpt lat="44.43973" lon="4.62581">
        <ele>106</ele>
        <time>29-03-2015T07:37:05Z</time>
      </trkpt>
      <trkpt lat="44.43972" lon="4.62588">
        <ele>106</ele>
        <time>29-03-2015T07:37:07Z</time>
      </trkpt>
      <trkpt lat="44.43969" lon="4.62595">
        <ele>106</ele>
        <time>29-03-2015T07:37:09Z</time>
      </trkpt>
      <trkpt lat="44.43966" lon="4.62601">
        <ele>106</ele>
        <time>29-03-2015T07:37:11Z</time>
      </trkpt>
      <trkpt lat="44.43962" lon="4.62607">
        <ele>106</ele>
        <time>29-03-2015T07:37:13Z</time>
      </trkpt>
      <trkpt lat="44.43958" lon="4.62614">
        <ele>107</ele>
        <time>29-03-2015T07:37:15Z</time>
      </trkpt>
      <trkpt lat="44.43954" lon="4.62621">
        <ele>107</ele>
        <time>29-03-2015T07:37:17Z</time>
      </trkpt>
      <trkpt lat="44.43952" lon="4.62627">
        <ele>109</ele>
        <time>29-03-2015T07:37:19Z</time>
      </trkpt>
      <trkpt lat="44.43947" lon="4.62633">
        <ele>109</ele>
        <time>29-03-2015T07:37:21Z</time>
      </trkpt>
      <trkpt lat="44.43944" lon="4.6264">
        <ele>109</ele>
        <time>29-03-2015T07:37:23Z</time>
      </trkpt>
      <trkpt lat="44.43941" lon="4.62646">
        <ele>110</ele>
        <time>29-03-2015T07:37:25Z</time>
      </trkpt>
      <trkpt lat="44.43939" lon="4.62653">
        <ele>110</ele>
        <time>29-03-2015T07:37:27Z</time>
      </trkpt>
      <trkpt lat="44.43937" lon="4.62661">
        <ele>111</ele>
        <time>29-03-2015T07:37:29Z</time>
      </trkpt>
      <trkpt lat="44.43936" lon="4.62669">
        <ele>111</ele>
        <time>29-03-2015T07:37:31Z</time>
      </trkpt>
      <trkpt lat="44.43934" lon="4.62675">
        <ele>111</ele>
        <time>29-03-2015T07:37:33Z</time>
      </trkpt>
      <trkpt lat="44.43932" lon="4.62682">
        <ele>114</ele>
        <time>29-03-2015T07:37:35Z</time>
      </trkpt>
      <trkpt lat="44.43931" lon="4.6269">
        <ele>114</ele>
        <time>29-03-2015T07:37:37Z</time>
      </trkpt>
      <trkpt lat="44.43932" lon="4.62699">
        <ele>116</ele>
        <time>29-03-2015T07:37:39Z</time>
      </trkpt>
      <trkpt lat="44.43933" lon="4.62709">
        <ele>116</ele>
        <time>29-03-2015T07:37:41Z</time>
      </trkpt>
      <trkpt lat="44.43935" lon="4.62717">
        <ele>116</ele>
        <time>29-03-2015T07:37:43Z</time>
      </trkpt>
      <trkpt lat="44.43938" lon="4.62725">
        <ele>116</ele>
        <time>29-03-2015T07:37:45Z</time>
      </trkpt>
      <trkpt lat="44.4394" lon="4.62734">
        <ele>116</ele>
        <time>29-03-2015T07:37:47Z</time>
      </trkpt>
      <trkpt lat="44.43943" lon="4.62742">
        <ele>116</ele>
        <time>29-03-2015T07:37:49Z</time>
      </trkpt>
      <trkpt lat="44.43945" lon="4.62752">
        <ele>116</ele>
        <time>29-03-2015T07:37:51Z</time>
      </trkpt>
      <trkpt lat="44.43946" lon="4.62762">
        <ele>116</ele>
        <time>29-03-2015T07:37:53Z</time>
      </trkpt>
      <trkpt lat="44.43946" lon="4.62772">
        <ele>118</ele>
        <time>29-03-2015T07:37:55Z</time>
      </trkpt>
      <trkpt lat="44.43946" lon="4.62781">
        <ele>118</ele>
        <time>29-03-2015T07:37:57Z</time>
      </trkpt>
      <trkpt lat="44.43946" lon="4.62789">
        <ele>118</ele>
        <time>29-03-2015T07:37:59Z</time>
      </trkpt>
      <trkpt lat="44.43946" lon="4.62798">
        <ele>118</ele>
        <time>29-03-2015T07:38:01Z</time>
      </trkpt>
      <trkpt lat="44.43944" lon="4.62805">
        <ele>118</ele>
        <time>29-03-2015T07:38:03Z</time>
      </trkpt>
      <trkpt lat="44.43938" lon="4.62805">
        <ele>118</ele>
        <time>29-03-2015T07:38:05Z</time>
      </trkpt>
      <trkpt lat="44.4393" lon="4.62801">
        <ele>118</ele>
        <time>29-03-2015T07:38:07Z</time>
      </trkpt>
      <trkpt lat="44.43924" lon="4.628">
        <ele>118</ele>
        <time>29-03-2015T07:38:08Z</time>
      </trkpt>
      <trkpt lat="44.43916" lon="4.62798">
        <ele>118</ele>
        <time>29-03-2015T07:38:10Z</time>
      </trkpt>
      <trkpt lat="44.43911" lon="4.62797">
        <ele>118</ele>
        <time>29-03-2015T07:38:11Z</time>
      </trkpt>
      <trkpt lat="44.43903" lon="4.62793">
        <ele>118</ele>
        <time>29-03-2015T07:38:13Z</time>
      </trkpt>
      <trkpt lat="44.43898" lon="4.62792">
        <ele>118</ele>
        <time>29-03-2015T07:38:15Z</time>
      </trkpt>
      <trkpt lat="44.43894" lon="4.62797">
        <ele>118</ele>
        <time>29-03-2015T07:38:18Z</time>
      </trkpt>
      <trkpt lat="44.43891" lon="4.62804">
        <ele>117</ele>
        <time>29-03-2015T07:38:20Z</time>
      </trkpt>
      <trkpt lat="44.43889" lon="4.62812">
        <ele>117</ele>
        <time>29-03-2015T07:38:22Z</time>
      </trkpt>
      <trkpt lat="44.43886" lon="4.6282">
        <ele>117</ele>
        <time>29-03-2015T07:38:24Z</time>
      </trkpt>
      <trkpt lat="44.4388" lon="4.62822">
        <ele>117</ele>
        <time>29-03-2015T07:38:26Z</time>
      </trkpt>
      <trkpt lat="44.43875" lon="4.62822">
        <ele>117</ele>
        <time>29-03-2015T07:38:28Z</time>
      </trkpt>
      <trkpt lat="44.43868" lon="4.62822">
        <ele>118</ele>
        <time>29-03-2015T07:38:30Z</time>
      </trkpt>
      <trkpt lat="44.43862" lon="4.62821">
        <ele>118</ele>
        <time>29-03-2015T07:38:32Z</time>
      </trkpt>
      <trkpt lat="44.43855" lon="4.6282">
        <ele>118</ele>
        <time>29-03-2015T07:38:34Z</time>
      </trkpt>
      <trkpt lat="44.43848" lon="4.6282">
        <ele>118</ele>
        <time>29-03-2015T07:38:36Z</time>
      </trkpt>
      <trkpt lat="44.43843" lon="4.62819">
        <ele>118</ele>
        <time>29-03-2015T07:38:37Z</time>
      </trkpt>
      <trkpt lat="44.43837" lon="4.62816">
        <ele>118</ele>
        <time>29-03-2015T07:38:39Z</time>
      </trkpt>
      <trkpt lat="44.43829" lon="4.62816">
        <ele>118</ele>
        <time>29-03-2015T07:38:41Z</time>
      </trkpt>
      <trkpt lat="44.43823" lon="4.62821">
        <ele>118</ele>
        <time>29-03-2015T07:38:43Z</time>
      </trkpt>
      <trkpt lat="44.4382" lon="4.62828">
        <ele>118</ele>
        <time>29-03-2015T07:38:45Z</time>
      </trkpt>
      <trkpt lat="44.43817" lon="4.62836">
        <ele>118</ele>
        <time>29-03-2015T07:38:47Z</time>
      </trkpt>
      <trkpt lat="44.43814" lon="4.62843">
        <ele>118</ele>
        <time>29-03-2015T07:38:49Z</time>
      </trkpt>
      <trkpt lat="44.43812" lon="4.62849">
        <ele>118</ele>
        <time>29-03-2015T07:38:52Z</time>
      </trkpt>
      <trkpt lat="44.43812" lon="4.62859">
        <ele>118</ele>
        <time>29-03-2015T07:38:55Z</time>
      </trkpt>
      <trkpt lat="44.43815" lon="4.62866">
        <ele>118</ele>
        <time>29-03-2015T07:38:57Z</time>
      </trkpt>
      <trkpt lat="44.43818" lon="4.62874">
        <ele>118</ele>
        <time>29-03-2015T07:38:59Z</time>
      </trkpt>
      <trkpt lat="44.43821" lon="4.62882">
        <ele>118</ele>
        <time>29-03-2015T07:39:01Z</time>
      </trkpt>
      <trkpt lat="44.43823" lon="4.62893">
        <ele>118</ele>
        <time>29-03-2015T07:39:03Z</time>
      </trkpt>
      <trkpt lat="44.43821" lon="4.62904">
        <ele>117</ele>
        <time>29-03-2015T07:39:05Z</time>
      </trkpt>
      <trkpt lat="44.43814" lon="4.62912">
        <ele>117</ele>
        <time>29-03-2015T07:39:07Z</time>
      </trkpt>
      <trkpt lat="44.43811" lon="4.62922">
        <ele>116</ele>
        <time>29-03-2015T07:39:09Z</time>
      </trkpt>
      <trkpt lat="44.43809" lon="4.62928">
        <ele>116</ele>
        <time>29-03-2015T07:39:10Z</time>
      </trkpt>
      <trkpt lat="44.43805" lon="4.62936">
        <ele>116</ele>
        <time>29-03-2015T07:39:12Z</time>
      </trkpt>
      <trkpt lat="44.43799" lon="4.62937">
        <ele>117</ele>
        <time>29-03-2015T07:39:14Z</time>
      </trkpt>
      <trkpt lat="44.43793" lon="4.62936">
        <ele>117</ele>
        <time>29-03-2015T07:39:16Z</time>
      </trkpt>
      <trkpt lat="44.43787" lon="4.62933">
        <ele>117</ele>
        <time>29-03-2015T07:39:18Z</time>
      </trkpt>
      <trkpt lat="44.43782" lon="4.62931">
        <ele>120</ele>
        <time>29-03-2015T07:39:20Z</time>
      </trkpt>
      <trkpt lat="44.43775" lon="4.6293">
        <ele>120</ele>
        <time>29-03-2015T07:39:22Z</time>
      </trkpt>
      <trkpt lat="44.43768" lon="4.62928">
        <ele>122</ele>
        <time>29-03-2015T07:39:24Z</time>
      </trkpt>
      <trkpt lat="44.43762" lon="4.62928">
        <ele>122</ele>
        <time>29-03-2015T07:39:27Z</time>
      </trkpt>
      <trkpt lat="44.43755" lon="4.6293">
        <ele>125</ele>
        <time>29-03-2015T07:39:29Z</time>
      </trkpt>
      <trkpt lat="44.4375" lon="4.62929">
        <ele>125</ele>
        <time>29-03-2015T07:39:31Z</time>
      </trkpt>
      <trkpt lat="44.43745" lon="4.62927">
        <ele>125</ele>
        <time>29-03-2015T07:39:33Z</time>
      </trkpt>
      <trkpt lat="44.43739" lon="4.62928">
        <ele>127</ele>
        <time>29-03-2015T07:39:35Z</time>
      </trkpt>
      <trkpt lat="44.43731" lon="4.62929">
        <ele>127</ele>
        <time>29-03-2015T07:39:37Z</time>
      </trkpt>
      <trkpt lat="44.43725" lon="4.62928">
        <ele>129</ele>
        <time>29-03-2015T07:39:39Z</time>
      </trkpt>
      <trkpt lat="44.43718" lon="4.62928">
        <ele>129</ele>
        <time>29-03-2015T07:39:42Z</time>
      </trkpt>
      <trkpt lat="44.43711" lon="4.62927">
        <ele>130</ele>
        <time>29-03-2015T07:39:45Z</time>
      </trkpt>
      <trkpt lat="44.43705" lon="4.62927">
        <ele>130</ele>
        <time>29-03-2015T07:39:47Z</time>
      </trkpt>
      <trkpt lat="44.43697" lon="4.62925">
        <ele>130</ele>
        <time>29-03-2015T07:39:51Z</time>
      </trkpt>
      <trkpt lat="44.43689" lon="4.62922">
        <ele>130</ele>
        <time>29-03-2015T07:39:53Z</time>
      </trkpt>
      <trkpt lat="44.43683" lon="4.6292">
        <ele>131</ele>
        <time>29-03-2015T07:39:55Z</time>
      </trkpt>
      <trkpt lat="44.43679" lon="4.62915">
        <ele>131</ele>
        <time>29-03-2015T07:39:57Z</time>
      </trkpt>
      <trkpt lat="44.43676" lon="4.62907">
        <ele>132</ele>
        <time>29-03-2015T07:39:59Z</time>
      </trkpt>
      <trkpt lat="44.43672" lon="4.629">
        <ele>132</ele>
        <time>29-03-2015T07:40:01Z</time>
      </trkpt>
      <trkpt lat="44.43669" lon="4.62893">
        <ele>132</ele>
        <time>29-03-2015T07:40:03Z</time>
      </trkpt>
      <trkpt lat="44.43667" lon="4.62884">
        <ele>133</ele>
        <time>29-03-2015T07:40:05Z</time>
      </trkpt>
      <trkpt lat="44.43663" lon="4.62876">
        <ele>133</ele>
        <time>29-03-2015T07:40:07Z</time>
      </trkpt>
      <trkpt lat="44.43659" lon="4.62867">
        <ele>133</ele>
        <time>29-03-2015T07:40:09Z</time>
      </trkpt>
      <trkpt lat="44.4366" lon="4.62861">
        <ele>133</ele>
        <time>29-03-2015T07:40:11Z</time>
      </trkpt>
      <trkpt lat="44.43653" lon="4.62858">
        <ele>133</ele>
        <time>29-03-2015T07:40:13Z</time>
      </trkpt>
      <trkpt lat="44.43646" lon="4.62854">
        <ele>133</ele>
        <time>29-03-2015T07:40:15Z</time>
      </trkpt>
      <trkpt lat="44.43641" lon="4.62853">
        <ele>133</ele>
        <time>29-03-2015T07:40:17Z</time>
      </trkpt>
      <trkpt lat="44.43635" lon="4.62853">
        <ele>134</ele>
        <time>29-03-2015T07:40:19Z</time>
      </trkpt>
      <trkpt lat="44.43628" lon="4.62854">
        <ele>134</ele>
        <time>29-03-2015T07:40:21Z</time>
      </trkpt>
      <trkpt lat="44.43621" lon="4.62856">
        <ele>134</ele>
        <time>29-03-2015T07:40:23Z</time>
      </trkpt>
      <trkpt lat="44.43613" lon="4.62857">
        <ele>134</ele>
        <time>29-03-2015T07:40:25Z</time>
      </trkpt>
      <trkpt lat="44.43608" lon="4.62857">
        <ele>134</ele>
        <time>29-03-2015T07:40:27Z</time>
      </trkpt>
      <trkpt lat="44.43602" lon="4.62856">
        <ele>134</ele>
        <time>29-03-2015T07:40:29Z</time>
      </trkpt>
      <trkpt lat="44.43596" lon="4.62855">
        <ele>134</ele>
        <time>29-03-2015T07:40:31Z</time>
      </trkpt>
      <trkpt lat="44.43588" lon="4.62853">
        <ele>134</ele>
        <time>29-03-2015T07:40:33Z</time>
      </trkpt>
      <trkpt lat="44.43583" lon="4.62852">
        <ele>136</ele>
        <time>29-03-2015T07:40:34Z</time>
      </trkpt>
      <trkpt lat="44.43578" lon="4.62851">
        <ele>136</ele>
        <time>29-03-2015T07:40:36Z</time>
      </trkpt>
      <trkpt lat="44.43572" lon="4.62849">
        <ele>136</ele>
        <time>29-03-2015T07:40:38Z</time>
      </trkpt>
      <trkpt lat="44.43567" lon="4.62846">
        <ele>136</ele>
        <time>29-03-2015T07:40:40Z</time>
      </trkpt>
      <trkpt lat="44.43561" lon="4.62845">
        <ele>136</ele>
        <time>29-03-2015T07:40:42Z</time>
      </trkpt>
      <trkpt lat="44.43557" lon="4.62841">
        <ele>136</ele>
        <time>29-03-2015T07:40:44Z</time>
      </trkpt>
      <trkpt lat="44.43553" lon="4.62835">
        <ele>136</ele>
        <time>29-03-2015T07:40:46Z</time>
      </trkpt>
      <trkpt lat="44.43553" lon="4.62827">
        <ele>136</ele>
        <time>29-03-2015T07:40:48Z</time>
      </trkpt>
      <trkpt lat="44.43549" lon="4.6282">
        <ele>137</ele>
        <time>29-03-2015T07:40:50Z</time>
      </trkpt>
      <trkpt lat="44.43544" lon="4.62817">
        <ele>137</ele>
        <time>29-03-2015T07:40:52Z</time>
      </trkpt>
      <trkpt lat="44.43538" lon="4.62817">
        <ele>137</ele>
        <time>29-03-2015T07:40:54Z</time>
      </trkpt>
      <trkpt lat="44.43532" lon="4.62817">
        <ele>137</ele>
        <time>29-03-2015T07:40:55Z</time>
      </trkpt>
      <trkpt lat="44.43524" lon="4.62817">
        <ele>137</ele>
        <time>29-03-2015T07:40:57Z</time>
      </trkpt>
      <trkpt lat="44.43519" lon="4.62815">
        <ele>137</ele>
        <time>29-03-2015T07:40:58Z</time>
      </trkpt>
      <trkpt lat="44.43513" lon="4.62808">
        <ele>137</ele>
        <time>29-03-2015T07:41:00Z</time>
      </trkpt>
      <trkpt lat="44.43512" lon="4.62799">
        <ele>137</ele>
        <time>29-03-2015T07:41:02Z</time>
      </trkpt>
      <trkpt lat="44.43512" lon="4.62788">
        <ele>138</ele>
        <time>29-03-2015T07:41:04Z</time>
      </trkpt>
      <trkpt lat="44.43514" lon="4.62777">
        <ele>138</ele>
        <time>29-03-2015T07:41:06Z</time>
      </trkpt>
      <trkpt lat="44.43514" lon="4.62767">
        <ele>138</ele>
        <time>29-03-2015T07:41:08Z</time>
      </trkpt>
      <trkpt lat="44.43511" lon="4.62757">
        <ele>139</ele>
        <time>29-03-2015T07:41:11Z</time>
      </trkpt>
      <trkpt lat="44.43506" lon="4.62754">
        <ele>139</ele>
        <time>29-03-2015T07:41:12Z</time>
      </trkpt>
      <trkpt lat="44.43499" lon="4.62755">
        <ele>139</ele>
        <time>29-03-2015T07:41:14Z</time>
      </trkpt>
      <trkpt lat="44.43491" lon="4.62753">
        <ele>139</ele>
        <time>29-03-2015T07:41:16Z</time>
      </trkpt>
      <trkpt lat="44.43485" lon="4.62752">
        <ele>139</ele>
        <time>29-03-2015T07:41:17Z</time>
      </trkpt>
      <trkpt lat="44.43477" lon="4.62753">
        <ele>139</ele>
        <time>29-03-2015T07:41:19Z</time>
      </trkpt>
      <trkpt lat="44.4347" lon="4.62755">
        <ele>139</ele>
        <time>29-03-2015T07:41:21Z</time>
      </trkpt>
      <trkpt lat="44.43461" lon="4.62756">
        <ele>139</ele>
        <time>29-03-2015T07:41:23Z</time>
      </trkpt>
      <trkpt lat="44.43455" lon="4.62759">
        <ele>139</ele>
        <time>29-03-2015T07:41:25Z</time>
      </trkpt>
      <trkpt lat="44.43446" lon="4.62759">
        <ele>139</ele>
        <time>29-03-2015T07:41:27Z</time>
      </trkpt>
      <trkpt lat="44.43438" lon="4.62758">
        <ele>139</ele>
        <time>29-03-2015T07:41:29Z</time>
      </trkpt>
      <trkpt lat="44.43429" lon="4.62757">
        <ele>139</ele>
        <time>29-03-2015T07:41:31Z</time>
      </trkpt>
      <trkpt lat="44.43421" lon="4.62757">
        <ele>139</ele>
        <time>29-03-2015T07:41:33Z</time>
      </trkpt>
      <trkpt lat="44.43413" lon="4.62756">
        <ele>141</ele>
        <time>29-03-2015T07:41:35Z</time>
      </trkpt>
      <trkpt lat="44.43405" lon="4.62756">
        <ele>141</ele>
        <time>29-03-2015T07:41:37Z</time>
      </trkpt>
      <trkpt lat="44.43397" lon="4.62757">
        <ele>142</ele>
        <time>29-03-2015T07:41:39Z</time>
      </trkpt>
      <trkpt lat="44.43393" lon="4.62758">
        <ele>142</ele>
        <time>29-03-2015T07:41:40Z</time>
      </trkpt>
      <trkpt lat="44.43384" lon="4.62761">
        <ele>142</ele>
        <time>29-03-2015T07:41:42Z</time>
      </trkpt>
      <trkpt lat="44.43377" lon="4.62764">
        <ele>143</ele>
        <time>29-03-2015T07:41:44Z</time>
      </trkpt>
      <trkpt lat="44.43369" lon="4.62768">
        <ele>143</ele>
        <time>29-03-2015T07:41:46Z</time>
      </trkpt>
      <trkpt lat="44.43359" lon="4.6277">
        <ele>143</ele>
        <time>29-03-2015T07:41:48Z</time>
      </trkpt>
      <trkpt lat="44.43352" lon="4.62773">
        <ele>144</ele>
        <time>29-03-2015T07:41:50Z</time>
      </trkpt>
      <trkpt lat="44.43343" lon="4.62776">
        <ele>144</ele>
        <time>29-03-2015T07:41:52Z</time>
      </trkpt>
      <trkpt lat="44.43336" lon="4.62779">
        <ele>144</ele>
        <time>29-03-2015T07:41:54Z</time>
      </trkpt>
      <trkpt lat="44.43329" lon="4.62781">
        <ele>144</ele>
        <time>29-03-2015T07:41:56Z</time>
      </trkpt>
      <trkpt lat="44.43323" lon="4.62785">
        <ele>144</ele>
        <time>29-03-2015T07:41:58Z</time>
      </trkpt>
      <trkpt lat="44.43315" lon="4.6279">
        <ele>145</ele>
        <time>29-03-2015T07:42:00Z</time>
      </trkpt>
      <trkpt lat="44.43311" lon="4.62793">
        <ele>145</ele>
        <time>29-03-2015T07:42:01Z</time>
      </trkpt>
      <trkpt lat="44.43304" lon="4.628">
        <ele>145</ele>
        <time>29-03-2015T07:42:03Z</time>
      </trkpt>
      <trkpt lat="44.43297" lon="4.62808">
        <ele>146</ele>
        <time>29-03-2015T07:42:05Z</time>
      </trkpt>
      <trkpt lat="44.43291" lon="4.62813">
        <ele>146</ele>
        <time>29-03-2015T07:42:07Z</time>
      </trkpt>
      <trkpt lat="44.43284" lon="4.62817">
        <ele>146</ele>
        <time>29-03-2015T07:42:09Z</time>
      </trkpt>
      <trkpt lat="44.43279" lon="4.62818">
        <ele>146</ele>
        <time>29-03-2015T07:42:10Z</time>
      </trkpt>
      <trkpt lat="44.43273" lon="4.62818">
        <ele>146</ele>
        <time>29-03-2015T07:42:11Z</time>
      </trkpt>
      <trkpt lat="44.43263" lon="4.6282">
        <ele>146</ele>
        <time>29-03-2015T07:42:13Z</time>
      </trkpt>
      <trkpt lat="44.43258" lon="4.6282">
        <ele>146</ele>
        <time>29-03-2015T07:42:14Z</time>
      </trkpt>
      <trkpt lat="44.43254" lon="4.6282">
        <ele>146</ele>
        <time>29-03-2015T07:42:15Z</time>
      </trkpt>
      <trkpt lat="44.43246" lon="4.62823">
        <ele>146</ele>
        <time>29-03-2015T07:42:17Z</time>
      </trkpt>
      <trkpt lat="44.43241" lon="4.62825">
        <ele>146</ele>
        <time>29-03-2015T07:42:18Z</time>
      </trkpt>
      <trkpt lat="44.43233" lon="4.62828">
        <ele>146</ele>
        <time>29-03-2015T07:42:20Z</time>
      </trkpt>
      <trkpt lat="44.43227" lon="4.62829">
        <ele>146</ele>
        <time>29-03-2015T07:42:21Z</time>
      </trkpt>
      <trkpt lat="44.43222" lon="4.62833">
        <ele>146</ele>
        <time>29-03-2015T07:42:22Z</time>
      </trkpt>
      <trkpt lat="44.43217" lon="4.62836">
        <ele>146</ele>
        <time>29-03-2015T07:42:23Z</time>
      </trkpt>
      <trkpt lat="44.43212" lon="4.62841">
        <ele>146</ele>
        <time>29-03-2015T07:42:24Z</time>
      </trkpt>
      <trkpt lat="44.43208" lon="4.62846">
        <ele>146</ele>
        <time>29-03-2015T07:42:25Z</time>
      </trkpt>
      <trkpt lat="44.43201" lon="4.62853">
        <ele>146</ele>
        <time>29-03-2015T07:42:26Z</time>
      </trkpt>
      <trkpt lat="44.43196" lon="4.6286">
        <ele>146</ele>
        <time>29-03-2015T07:42:27Z</time>
      </trkpt>
      <trkpt lat="44.43189" lon="4.62866">
        <ele>146</ele>
        <time>29-03-2015T07:42:28Z</time>
      </trkpt>
      <trkpt lat="44.43185" lon="4.62871">
        <ele>144</ele>
        <time>29-03-2015T07:42:29Z</time>
      </trkpt>
      <trkpt lat="44.43177" lon="4.62876">
        <ele>144</ele>
        <time>29-03-2015T07:42:30Z</time>
      </trkpt>
      <trkpt lat="44.43169" lon="4.62881">
        <ele>144</ele>
        <time>29-03-2015T07:42:31Z</time>
      </trkpt>
      <trkpt lat="44.43162" lon="4.62885">
        <ele>144</ele>
        <time>29-03-2015T07:42:32Z</time>
      </trkpt>
      <trkpt lat="44.43157" lon="4.62887">
        <ele>144</ele>
        <time>29-03-2015T07:42:33Z</time>
      </trkpt>
      <trkpt lat="44.4315" lon="4.62889">
        <ele>140</ele>
        <time>29-03-2015T07:42:34Z</time>
      </trkpt>
      <trkpt lat="44.43144" lon="4.62891">
        <ele>140</ele>
        <time>29-03-2015T07:42:35Z</time>
      </trkpt>
      <trkpt lat="44.43137" lon="4.62894">
        <ele>140</ele>
        <time>29-03-2015T07:42:36Z</time>
      </trkpt>
      <trkpt lat="44.43129" lon="4.62896">
        <ele>140</ele>
        <time>29-03-2015T07:42:37Z</time>
      </trkpt>
      <trkpt lat="44.43122" lon="4.62898">
        <ele>140</ele>
        <time>29-03-2015T07:42:38Z</time>
      </trkpt>
      <trkpt lat="44.43113" lon="4.62901">
        <ele>134</ele>
        <time>29-03-2015T07:42:39Z</time>
      </trkpt>
      <trkpt lat="44.43108" lon="4.62903">
        <ele>134</ele>
        <time>29-03-2015T07:42:40Z</time>
      </trkpt>
      <trkpt lat="44.43099" lon="4.62904">
        <ele>134</ele>
        <time>29-03-2015T07:42:42Z</time>
      </trkpt>
      <trkpt lat="44.43095" lon="4.62912">
        <ele>131</ele>
        <time>29-03-2015T07:42:44Z</time>
      </trkpt>
      <trkpt lat="44.43092" lon="4.62919">
        <ele>131</ele>
        <time>29-03-2015T07:42:46Z</time>
      </trkpt>
      <trkpt lat="44.43088" lon="4.62924">
        <ele>131</ele>
        <time>29-03-2015T07:42:48Z</time>
      </trkpt>
      <trkpt lat="44.43085" lon="4.62932">
        <ele>127</ele>
        <time>29-03-2015T07:42:50Z</time>
      </trkpt>
      <trkpt lat="44.43081" lon="4.62939">
        <ele>127</ele>
        <time>29-03-2015T07:42:52Z</time>
      </trkpt>
      <trkpt lat="44.43077" lon="4.6295">
        <ele>124</ele>
        <time>29-03-2015T07:42:54Z</time>
      </trkpt>
      <trkpt lat="44.43076" lon="4.62958">
        <ele>124</ele>
        <time>29-03-2015T07:42:56Z</time>
      </trkpt>
      <trkpt lat="44.43071" lon="4.62962">
        <ele>124</ele>
        <time>29-03-2015T07:42:58Z</time>
      </trkpt>
      <trkpt lat="44.43064" lon="4.62967">
        <ele>119</ele>
        <time>29-03-2015T07:43:00Z</time>
      </trkpt>
      <trkpt lat="44.43056" lon="4.62967">
        <ele>119</ele>
        <time>29-03-2015T07:43:02Z</time>
      </trkpt>
      <trkpt lat="44.43045" lon="4.62983">
        <ele>119</ele>
        <time>29-03-2015T07:43:06Z</time>
      </trkpt>
      <trkpt lat="44.43041" lon="4.62987">
        <ele>119</ele>
        <time>29-03-2015T07:43:08Z</time>
      </trkpt>
      <trkpt lat="44.43034" lon="4.62986">
        <ele>121</ele>
        <time>29-03-2015T07:43:10Z</time>
      </trkpt>
      <trkpt lat="44.43026" lon="4.62984">
        <ele>121</ele>
        <time>29-03-2015T07:43:12Z</time>
      </trkpt>
      <trkpt lat="44.4302" lon="4.6298">
        <ele>123</ele>
        <time>29-03-2015T07:43:14Z</time>
      </trkpt>
      <trkpt lat="44.43013" lon="4.62978">
        <ele>123</ele>
        <time>29-03-2015T07:43:16Z</time>
      </trkpt>
      <trkpt lat="44.43007" lon="4.62975">
        <ele>123</ele>
        <time>29-03-2015T07:43:18Z</time>
      </trkpt>
      <trkpt lat="44.43002" lon="4.62973">
        <ele>123</ele>
        <time>29-03-2015T07:43:20Z</time>
      </trkpt>
      <trkpt lat="44.43002" lon="4.62971">
        <ele>123</ele>
        <time>29-03-2015T07:43:25Z</time>
      </trkpt>
      <trkpt lat="44.43001" lon="4.62971">
        <ele>123</ele>
        <time>29-03-2015T07:43:30Z</time>
      </trkpt>
      <trkpt lat="44.43002" lon="4.62971">
        <ele>123</ele>
        <time>29-03-2015T07:43:35Z</time>
      </trkpt>
      <trkpt lat="44.43002" lon="4.62971">
        <ele>123</ele>
        <time>29-03-2015T07:43:40Z</time>
      </trkpt>
      <trkpt lat="44.43002" lon="4.62971">
        <ele>123</ele>
        <time>29-03-2015T07:43:45Z</time>
      </trkpt>
      <trkpt lat="44.43002" lon="4.62971">
        <ele>123</ele>
        <time>29-03-2015T07:43:50Z</time>
      </trkpt>
      <trkpt lat="44.42999" lon="4.62967">
        <ele>123</ele>
        <time>29-03-2015T07:43:55Z</time>
      </trkpt>
      <trkpt lat="44.42996" lon="4.62968">
        <ele>123</ele>
        <time>29-03-2015T07:44:00Z</time>
      </trkpt>
      <trkpt lat="44.42992" lon="4.62972">
        <ele>121</ele>
        <time>29-03-2015T07:44:05Z</time>
      </trkpt>
      <trkpt lat="44.42993" lon="4.62974">
        <ele>121</ele>
        <time>29-03-2015T07:44:10Z</time>
      </trkpt>
      <trkpt lat="44.42994" lon="4.62977">
        <ele>120</ele>
        <time>29-03-2015T07:44:15Z</time>
      </trkpt>
      <trkpt lat="44.42991" lon="4.62984">
        <ele>120</ele>
        <time>29-03-2015T07:44:18Z</time>
      </trkpt>
      <trkpt lat="44.42988" lon="4.62989">
        <ele>119</ele>
        <time>29-03-2015T07:44:20Z</time>
      </trkpt>
      <trkpt lat="44.42986" lon="4.62996">
        <ele>119</ele>
        <time>29-03-2015T07:44:22Z</time>
      </trkpt>
      <trkpt lat="44.42985" lon="4.63005">
        <ele>117</ele>
        <time>29-03-2015T07:44:24Z</time>
      </trkpt>
      <trkpt lat="44.42982" lon="4.63013">
        <ele>117</ele>
        <time>29-03-2015T07:44:26Z</time>
      </trkpt>
      <trkpt lat="44.4298" lon="4.63021">
        <ele>117</ele>
        <time>29-03-2015T07:44:28Z</time>
      </trkpt>
      <trkpt lat="44.42973" lon="4.6302">
        <ele>113</ele>
        <time>29-03-2015T07:44:33Z</time>
      </trkpt>
      <trkpt lat="44.42968" lon="4.63013">
        <ele>109</ele>
        <time>29-03-2015T07:44:35Z</time>
      </trkpt>
      <trkpt lat="44.42965" lon="4.63007">
        <ele>109</ele>
        <time>29-03-2015T07:44:36Z</time>
      </trkpt>
      <trkpt lat="44.42958" lon="4.62997">
        <ele>109</ele>
        <time>29-03-2015T07:44:38Z</time>
      </trkpt>
      <trkpt lat="44.42955" lon="4.62991">
        <ele>104</ele>
        <time>29-03-2015T07:44:39Z</time>
      </trkpt>
      <trkpt lat="44.42949" lon="4.62981">
        <ele>104</ele>
        <time>29-03-2015T07:44:41Z</time>
      </trkpt>
      <trkpt lat="44.42943" lon="4.62974">
        <ele>104</ele>
        <time>29-03-2015T07:44:43Z</time>
      </trkpt>
      <trkpt lat="44.42938" lon="4.62974">
        <ele>102</ele>
        <time>29-03-2015T07:44:44Z</time>
      </trkpt>
      <trkpt lat="44.42933" lon="4.62973">
        <ele>102</ele>
        <time>29-03-2015T07:44:45Z</time>
      </trkpt>
      <trkpt lat="44.42926" lon="4.62968">
        <ele>102</ele>
        <time>29-03-2015T07:44:47Z</time>
      </trkpt>
      <trkpt lat="44.42919" lon="4.62962">
        <ele>102</ele>
        <time>29-03-2015T07:44:48Z</time>
      </trkpt>
      <trkpt lat="44.42915" lon="4.62959">
        <ele>98</ele>
        <time>29-03-2015T07:44:49Z</time>
      </trkpt>
      <trkpt lat="44.4291" lon="4.62961">
        <ele>98</ele>
        <time>29-03-2015T07:44:52Z</time>
      </trkpt>
      <trkpt lat="44.42908" lon="4.62967">
        <ele>98</ele>
        <time>29-03-2015T07:44:53Z</time>
      </trkpt>
      <trkpt lat="44.42902" lon="4.62975">
        <ele>97</ele>
        <time>29-03-2015T07:44:55Z</time>
      </trkpt>
      <trkpt lat="44.42897" lon="4.62983">
        <ele>97</ele>
        <time>29-03-2015T07:44:57Z</time>
      </trkpt>
      <trkpt lat="44.42892" lon="4.62992">
        <ele>91</ele>
        <time>29-03-2015T07:44:59Z</time>
      </trkpt>
      <trkpt lat="44.42886" lon="4.62998">
        <ele>91</ele>
        <time>29-03-2015T07:45:01Z</time>
      </trkpt>
      <trkpt lat="44.42883" lon="4.63009">
        <ele>91</ele>
        <time>29-03-2015T07:45:03Z</time>
      </trkpt>
      <trkpt lat="44.42881" lon="4.6302">
        <ele>90</ele>
        <time>29-03-2015T07:45:05Z</time>
      </trkpt>
      <trkpt lat="44.42879" lon="4.63034">
        <ele>90</ele>
        <time>29-03-2015T07:45:07Z</time>
      </trkpt>
      <trkpt lat="44.42875" lon="4.63045">
        <ele>91</ele>
        <time>29-03-2015T07:45:09Z</time>
      </trkpt>
      <trkpt lat="44.42869" lon="4.63054">
        <ele>91</ele>
        <time>29-03-2015T07:45:11Z</time>
      </trkpt>
      <trkpt lat="44.42868" lon="4.63061">
        <ele>91</ele>
        <time>29-03-2015T07:45:12Z</time>
      </trkpt>
      <trkpt lat="44.42864" lon="4.63067">
        <ele>91</ele>
        <time>29-03-2015T07:45:13Z</time>
      </trkpt>
      <trkpt lat="44.4286" lon="4.63078">
        <ele>91</ele>
        <time>29-03-2015T07:45:15Z</time>
      </trkpt>
      <trkpt lat="44.42855" lon="4.63083">
        <ele>91</ele>
        <time>29-03-2015T07:45:16Z</time>
      </trkpt>
      <trkpt lat="44.42849" lon="4.63084">
        <ele>91</ele>
        <time>29-03-2015T07:45:17Z</time>
      </trkpt>
      <trkpt lat="44.42846" lon="4.63089">
        <ele>91</ele>
        <time>29-03-2015T07:45:20Z</time>
      </trkpt>
      <trkpt lat="44.42843" lon="4.63095">
        <ele>91</ele>
        <time>29-03-2015T07:45:22Z</time>
      </trkpt>
      <trkpt lat="44.4284" lon="4.63101">
        <ele>89</ele>
        <time>29-03-2015T07:45:24Z</time>
      </trkpt>
      <trkpt lat="44.42837" lon="4.63107">
        <ele>89</ele>
        <time>29-03-2015T07:45:26Z</time>
      </trkpt>
      <trkpt lat="44.42835" lon="4.63115">
        <ele>89</ele>
        <time>29-03-2015T07:45:28Z</time>
      </trkpt>
      <trkpt lat="44.42835" lon="4.63122">
        <ele>89</ele>
        <time>29-03-2015T07:45:29Z</time>
      </trkpt>
      <trkpt lat="44.42834" lon="4.63129">
        <ele>89</ele>
        <time>29-03-2015T07:45:30Z</time>
      </trkpt>
      <trkpt lat="44.42831" lon="4.63138">
        <ele>89</ele>
        <time>29-03-2015T07:45:32Z</time>
      </trkpt>
      <trkpt lat="44.42828" lon="4.63143">
        <ele>89</ele>
        <time>29-03-2015T07:45:33Z</time>
      </trkpt>
      <trkpt lat="44.42825" lon="4.63149">
        <ele>89</ele>
        <time>29-03-2015T07:45:34Z</time>
      </trkpt>
      <trkpt lat="44.42822" lon="4.63155">
        <ele>89</ele>
        <time>29-03-2015T07:45:35Z</time>
      </trkpt>
      <trkpt lat="44.42822" lon="4.63166">
        <ele>89</ele>
        <time>29-03-2015T07:45:37Z</time>
      </trkpt>
      <trkpt lat="44.42821" lon="4.63174">
        <ele>89</ele>
        <time>29-03-2015T07:45:38Z</time>
      </trkpt>
      <trkpt lat="44.42821" lon="4.63182">
        <ele>89</ele>
        <time>29-03-2015T07:45:39Z</time>
      </trkpt>
      <trkpt lat="44.42822" lon="4.63189">
        <ele>89</ele>
        <time>29-03-2015T07:45:40Z</time>
      </trkpt>
      <trkpt lat="44.4282" lon="4.63195">
        <ele>89</ele>
        <time>29-03-2015T07:45:41Z</time>
      </trkpt>
      <trkpt lat="44.42818" lon="4.63202">
        <ele>89</ele>
        <time>29-03-2015T07:45:42Z</time>
      </trkpt>
      <trkpt lat="44.42814" lon="4.63212">
        <ele>89</ele>
        <time>29-03-2015T07:45:44Z</time>
      </trkpt>
      <trkpt lat="44.42813" lon="4.63218">
        <ele>89</ele>
        <time>29-03-2015T07:45:45Z</time>
      </trkpt>
      <trkpt lat="44.42809" lon="4.63223">
        <ele>89</ele>
        <time>29-03-2015T07:45:46Z</time>
      </trkpt>
      <trkpt lat="44.42806" lon="4.63229">
        <ele>89</ele>
        <time>29-03-2015T07:45:47Z</time>
      </trkpt>
      <trkpt lat="44.42804" lon="4.6324">
        <ele>89</ele>
        <time>29-03-2015T07:45:49Z</time>
      </trkpt>
      <trkpt lat="44.42807" lon="4.6325">
        <ele>89</ele>
        <time>29-03-2015T07:45:51Z</time>
      </trkpt>
      <trkpt lat="44.42811" lon="4.63256">
        <ele>89</ele>
        <time>29-03-2015T07:45:53Z</time>
      </trkpt>
      <trkpt lat="44.42819" lon="4.63257">
        <ele>89</ele>
        <time>29-03-2015T07:45:55Z</time>
      </trkpt>
      <trkpt lat="44.42826" lon="4.63258">
        <ele>89</ele>
        <time>29-03-2015T07:45:57Z</time>
      </trkpt>
      <trkpt lat="44.42831" lon="4.6326">
        <ele>89</ele>
        <time>29-03-2015T07:45:59Z</time>
      </trkpt>
      <trkpt lat="44.42837" lon="4.63263">
        <ele>89</ele>
        <time>29-03-2015T07:46:01Z</time>
      </trkpt>
      <trkpt lat="44.42841" lon="4.63267">
        <ele>89</ele>
        <time>29-03-2015T07:46:03Z</time>
      </trkpt>
      <trkpt lat="44.42846" lon="4.63272">
        <ele>92</ele>
        <time>29-03-2015T07:46:05Z</time>
      </trkpt>
      <trkpt lat="44.4285" lon="4.63274">
        <ele>92</ele>
        <time>29-03-2015T07:46:06Z</time>
      </trkpt>
      <trkpt lat="44.42857" lon="4.63278">
        <ele>92</ele>
        <time>29-03-2015T07:46:08Z</time>
      </trkpt>
      <trkpt lat="44.42863" lon="4.6328">
        <ele>93</ele>
        <time>29-03-2015T07:46:10Z</time>
      </trkpt>
      <trkpt lat="44.42869" lon="4.63284">
        <ele>93</ele>
        <time>29-03-2015T07:46:13Z</time>
      </trkpt>
      <trkpt lat="44.42874" lon="4.63287">
        <ele>94</ele>
        <time>29-03-2015T07:46:15Z</time>
      </trkpt>
      <trkpt lat="44.42881" lon="4.6329">
        <ele>94</ele>
        <time>29-03-2015T07:46:17Z</time>
      </trkpt>
      <trkpt lat="44.42885" lon="4.63298">
        <ele>96</ele>
        <time>29-03-2015T07:46:20Z</time>
      </trkpt>
      <trkpt lat="44.42887" lon="4.63305">
        <ele>96</ele>
        <time>29-03-2015T07:46:22Z</time>
      </trkpt>
      <trkpt lat="44.42891" lon="4.63309">
        <ele>96</ele>
        <time>29-03-2015T07:46:24Z</time>
      </trkpt>
      <trkpt lat="44.42893" lon="4.63316">
        <ele>96</ele>
        <time>29-03-2015T07:46:27Z</time>
      </trkpt>
      <trkpt lat="44.42894" lon="4.63323">
        <ele>98</ele>
        <time>29-03-2015T07:46:29Z</time>
      </trkpt>
      <trkpt lat="44.42895" lon="4.63331">
        <ele>98</ele>
        <time>29-03-2015T07:46:31Z</time>
      </trkpt>
      <trkpt lat="44.42897" lon="4.63339">
        <ele>98</ele>
        <time>29-03-2015T07:46:33Z</time>
      </trkpt>
      <trkpt lat="44.429" lon="4.63344">
        <ele>98</ele>
        <time>29-03-2015T07:46:35Z</time>
      </trkpt>
      <trkpt lat="44.42905" lon="4.63351">
        <ele>98</ele>
        <time>29-03-2015T07:46:38Z</time>
      </trkpt>
      <trkpt lat="44.4291" lon="4.63352">
        <ele>101</ele>
        <time>29-03-2015T07:46:40Z</time>
      </trkpt>
      <trkpt lat="44.42915" lon="4.63348">
        <ele>101</ele>
        <time>29-03-2015T07:46:43Z</time>
      </trkpt>
      <trkpt lat="44.4292" lon="4.63345">
        <ele>102</ele>
        <time>29-03-2015T07:46:45Z</time>
      </trkpt>
      <trkpt lat="44.42926" lon="4.63343">
        <ele>102</ele>
        <time>29-03-2015T07:46:48Z</time>
      </trkpt>
      <trkpt lat="44.4293" lon="4.63344">
        <ele>104</ele>
        <time>29-03-2015T07:46:50Z</time>
      </trkpt>
      <trkpt lat="44.42936" lon="4.63345">
        <ele>104</ele>
        <time>29-03-2015T07:46:53Z</time>
      </trkpt>
      <trkpt lat="44.4294" lon="4.63349">
        <ele>104</ele>
        <time>29-03-2015T07:46:56Z</time>
      </trkpt>
      <trkpt lat="44.42945" lon="4.63352">
        <ele>105</ele>
        <time>29-03-2015T07:46:59Z</time>
      </trkpt>
      <trkpt lat="44.42951" lon="4.63356">
        <ele>105</ele>
        <time>29-03-2015T07:47:03Z</time>
      </trkpt>
      <trkpt lat="44.42956" lon="4.63358">
        <ele>107</ele>
        <time>29-03-2015T07:47:05Z</time>
      </trkpt>
      <trkpt lat="44.42961" lon="4.63362">
        <ele>107</ele>
        <time>29-03-2015T07:47:08Z</time>
      </trkpt>
      <trkpt lat="44.42966" lon="4.63366">
        <ele>108</ele>
        <time>29-03-2015T07:47:10Z</time>
      </trkpt>
      <trkpt lat="44.42969" lon="4.6337">
        <ele>108</ele>
        <time>29-03-2015T07:47:13Z</time>
      </trkpt>
      <trkpt lat="44.42975" lon="4.63372">
        <ele>109</ele>
        <time>29-03-2015T07:47:17Z</time>
      </trkpt>
      <trkpt lat="44.42981" lon="4.63373">
        <ele>112</ele>
        <time>29-03-2015T07:47:20Z</time>
      </trkpt>
      <trkpt lat="44.42987" lon="4.63375">
        <ele>112</ele>
        <time>29-03-2015T07:47:23Z</time>
      </trkpt>
      <trkpt lat="44.42993" lon="4.63378">
        <ele>112</ele>
        <time>29-03-2015T07:47:27Z</time>
      </trkpt>
      <trkpt lat="44.42998" lon="4.63379">
        <ele>114</ele>
        <time>29-03-2015T07:47:30Z</time>
      </trkpt>
      <trkpt lat="44.43003" lon="4.6338">
        <ele>114</ele>
        <time>29-03-2015T07:47:33Z</time>
      </trkpt>
      <trkpt lat="44.43004" lon="4.6338">
        <ele>116</ele>
        <time>29-03-2015T07:47:38Z</time>
      </trkpt>
      <trkpt lat="44.43006" lon="4.63381">
        <ele>116</ele>
        <time>29-03-2015T07:47:43Z</time>
      </trkpt>
      <trkpt lat="44.43012" lon="4.63382">
        <ele>116</ele>
        <time>29-03-2015T07:47:46Z</time>
      </trkpt>
      <trkpt lat="44.43018" lon="4.63387">
        <ele>118</ele>
        <time>29-03-2015T07:47:50Z</time>
      </trkpt>
      <trkpt lat="44.43023" lon="4.63393">
        <ele>118</ele>
        <time>29-03-2015T07:47:54Z</time>
      </trkpt>
      <trkpt lat="44.43028" lon="4.63399">
        <ele>118</ele>
        <time>29-03-2015T07:47:58Z</time>
      </trkpt>
      <trkpt lat="44.43032" lon="4.63399">
        <ele>120</ele>
        <time>29-03-2015T07:48:03Z</time>
      </trkpt>
      <trkpt lat="44.43038" lon="4.63399">
        <ele>122</ele>
        <time>29-03-2015T07:48:06Z</time>
      </trkpt>
      <trkpt lat="44.43043" lon="4.63398">
        <ele>123</ele>
        <time>29-03-2015T07:48:09Z</time>
      </trkpt>
      <trkpt lat="44.43048" lon="4.63396">
        <ele>123</ele>
        <time>29-03-2015T07:48:12Z</time>
      </trkpt>
      <trkpt lat="44.43049" lon="4.63388">
        <ele>124</ele>
        <time>29-03-2015T07:48:17Z</time>
      </trkpt>
      <trkpt lat="44.43052" lon="4.63382">
        <ele>124</ele>
        <time>29-03-2015T07:48:21Z</time>
      </trkpt>
      <trkpt lat="44.43058" lon="4.63376">
        <ele>124</ele>
        <time>29-03-2015T07:48:24Z</time>
      </trkpt>
      <trkpt lat="44.43063" lon="4.63373">
        <ele>124</ele>
        <time>29-03-2015T07:48:27Z</time>
      </trkpt>
      <trkpt lat="44.43068" lon="4.63373">
        <ele>125</ele>
        <time>29-03-2015T07:48:30Z</time>
      </trkpt>
      <trkpt lat="44.43073" lon="4.63375">
        <ele>125</ele>
        <time>29-03-2015T07:48:33Z</time>
      </trkpt>
      <trkpt lat="44.43079" lon="4.63376">
        <ele>128</ele>
        <time>29-03-2015T07:48:37Z</time>
      </trkpt>
      <trkpt lat="44.43087" lon="4.63375">
        <ele>130</ele>
        <time>29-03-2015T07:48:41Z</time>
      </trkpt>
      <trkpt lat="44.43091" lon="4.6337">
        <ele>130</ele>
        <time>29-03-2015T07:48:45Z</time>
      </trkpt>
      <trkpt lat="44.43095" lon="4.63365">
        <ele>132</ele>
        <time>29-03-2015T07:48:49Z</time>
      </trkpt>
      <trkpt lat="44.43098" lon="4.63369">
        <ele>132</ele>
        <time>29-03-2015T07:48:54Z</time>
      </trkpt>
      <trkpt lat="44.43103" lon="4.63375">
        <ele>132</ele>
        <time>29-03-2015T07:48:57Z</time>
      </trkpt>
      <trkpt lat="44.43106" lon="4.63382">
        <ele>134</ele>
        <time>29-03-2015T07:48:59Z</time>
      </trkpt>
      <trkpt lat="44.43109" lon="4.63388">
        <ele>134</ele>
        <time>29-03-2015T07:49:01Z</time>
      </trkpt>
      <trkpt lat="44.43113" lon="4.63393">
        <ele>134</ele>
        <time>29-03-2015T07:49:03Z</time>
      </trkpt>
      <trkpt lat="44.43116" lon="4.63399">
        <ele>134</ele>
        <time>29-03-2015T07:49:06Z</time>
      </trkpt>
      <trkpt lat="44.43119" lon="4.63404">
        <ele>134</ele>
        <time>29-03-2015T07:49:08Z</time>
      </trkpt>
      <trkpt lat="44.43123" lon="4.63409">
        <ele>136</ele>
        <time>29-03-2015T07:49:10Z</time>
      </trkpt>
      <trkpt lat="44.43128" lon="4.63414">
        <ele>136</ele>
        <time>29-03-2015T07:49:12Z</time>
      </trkpt>
      <trkpt lat="44.43131" lon="4.63419">
        <ele>136</ele>
        <time>29-03-2015T07:49:14Z</time>
      </trkpt>
      <trkpt lat="44.43136" lon="4.63427">
        <ele>136</ele>
        <time>29-03-2015T07:49:17Z</time>
      </trkpt>
      <trkpt lat="44.43143" lon="4.63433">
        <ele>138</ele>
        <time>29-03-2015T07:49:22Z</time>
      </trkpt>
      <trkpt lat="44.43148" lon="4.63436">
        <ele>138</ele>
        <time>29-03-2015T07:49:24Z</time>
      </trkpt>
      <trkpt lat="44.43154" lon="4.63441">
        <ele>138</ele>
        <time>29-03-2015T07:49:26Z</time>
      </trkpt>
      <trkpt lat="44.43158" lon="4.63447">
        <ele>138</ele>
        <time>29-03-2015T07:49:28Z</time>
      </trkpt>
      <trkpt lat="44.43164" lon="4.63453">
        <ele>139</ele>
        <time>29-03-2015T07:49:30Z</time>
      </trkpt>
      <trkpt lat="44.43168" lon="4.6346">
        <ele>139</ele>
        <time>29-03-2015T07:49:32Z</time>
      </trkpt>
      <trkpt lat="44.43174" lon="4.6346">
        <ele>139</ele>
        <time>29-03-2015T07:49:33Z</time>
      </trkpt>
      <trkpt lat="44.43179" lon="4.63464">
        <ele>139</ele>
        <time>29-03-2015T07:49:35Z</time>
      </trkpt>
      <trkpt lat="44.43184" lon="4.63467">
        <ele>139</ele>
        <time>29-03-2015T07:49:37Z</time>
      </trkpt>
      <trkpt lat="44.43187" lon="4.63476">
        <ele>139</ele>
        <time>29-03-2015T07:49:40Z</time>
      </trkpt>
      <trkpt lat="44.43181" lon="4.63479">
        <ele>139</ele>
        <time>29-03-2015T07:49:45Z</time>
      </trkpt>
      <trkpt lat="44.43176" lon="4.63474">
        <ele>139</ele>
        <time>29-03-2015T07:49:47Z</time>
      </trkpt>
      <trkpt lat="44.43171" lon="4.6347">
        <ele>139</ele>
        <time>29-03-2015T07:49:48Z</time>
      </trkpt>
      <trkpt lat="44.43163" lon="4.63465">
        <ele>138</ele>
        <time>29-03-2015T07:49:50Z</time>
      </trkpt>
      <trkpt lat="44.43153" lon="4.6346">
        <ele>138</ele>
        <time>29-03-2015T07:49:52Z</time>
      </trkpt>
      <trkpt lat="44.43147" lon="4.6346">
        <ele>137</ele>
        <time>29-03-2015T07:49:54Z</time>
      </trkpt>
      <trkpt lat="44.43137" lon="4.6346">
        <ele>137</ele>
        <time>29-03-2015T07:49:56Z</time>
      </trkpt>
      <trkpt lat="44.43132" lon="4.63463">
        <ele>137</ele>
        <time>29-03-2015T07:49:57Z</time>
      </trkpt>
      <trkpt lat="44.43126" lon="4.63462">
        <ele>137</ele>
        <time>29-03-2015T07:49:59Z</time>
      </trkpt>
      <trkpt lat="44.4312" lon="4.63461">
        <ele>137</ele>
        <time>29-03-2015T07:50:00Z</time>
      </trkpt>
      <trkpt lat="44.43112" lon="4.63459">
        <ele>137</ele>
        <time>29-03-2015T07:50:02Z</time>
      </trkpt>
      <trkpt lat="44.43106" lon="4.63458">
        <ele>137</ele>
        <time>29-03-2015T07:50:03Z</time>
      </trkpt>
      <trkpt lat="44.43097" lon="4.63456">
        <ele>138</ele>
        <time>29-03-2015T07:50:04Z</time>
      </trkpt>
      <trkpt lat="44.43091" lon="4.63454">
        <ele>138</ele>
        <time>29-03-2015T07:50:05Z</time>
      </trkpt>
      <trkpt lat="44.43082" lon="4.63451">
        <ele>138</ele>
        <time>29-03-2015T07:50:07Z</time>
      </trkpt>
      <trkpt lat="44.43074" lon="4.63452">
        <ele>137</ele>
        <time>29-03-2015T07:50:09Z</time>
      </trkpt>
      <trkpt lat="44.43066" lon="4.63452">
        <ele>137</ele>
        <time>29-03-2015T07:50:11Z</time>
      </trkpt>
      <trkpt lat="44.43057" lon="4.63449">
        <ele>137</ele>
        <time>29-03-2015T07:50:13Z</time>
      </trkpt>
      <trkpt lat="44.43049" lon="4.63446">
        <ele>137</ele>
        <time>29-03-2015T07:50:15Z</time>
      </trkpt>
      <trkpt lat="44.43043" lon="4.63446">
        <ele>137</ele>
        <time>29-03-2015T07:50:19Z</time>
      </trkpt>
      <trkpt lat="44.43037" lon="4.63447">
        <ele>137</ele>
        <time>29-03-2015T07:50:21Z</time>
      </trkpt>
      <trkpt lat="44.43031" lon="4.63445">
        <ele>137</ele>
        <time>29-03-2015T07:50:24Z</time>
      </trkpt>
      <trkpt lat="44.43025" lon="4.63444">
        <ele>137</ele>
        <time>29-03-2015T07:50:28Z</time>
      </trkpt>
      <trkpt lat="44.4302" lon="4.63444">
        <ele>137</ele>
        <time>29-03-2015T07:50:30Z</time>
      </trkpt>
      <trkpt lat="44.43015" lon="4.63446">
        <ele>137</ele>
        <time>29-03-2015T07:50:33Z</time>
      </trkpt>
      <trkpt lat="44.43008" lon="4.63445">
        <ele>137</ele>
        <time>29-03-2015T07:50:35Z</time>
      </trkpt>
      <trkpt lat="44.42999" lon="4.63445">
        <ele>137</ele>
        <time>29-03-2015T07:50:37Z</time>
      </trkpt>
      <trkpt lat="44.42992" lon="4.63447">
        <ele>137</ele>
        <time>29-03-2015T07:50:40Z</time>
      </trkpt>
      <trkpt lat="44.42982" lon="4.63447">
        <ele>137</ele>
        <time>29-03-2015T07:50:42Z</time>
      </trkpt>
      <trkpt lat="44.42977" lon="4.63449">
        <ele>136</ele>
        <time>29-03-2015T07:50:44Z</time>
      </trkpt>
      <trkpt lat="44.42971" lon="4.63452">
        <ele>136</ele>
        <time>29-03-2015T07:50:47Z</time>
      </trkpt>
      <trkpt lat="44.4297" lon="4.63458">
        <ele>136</ele>
        <time>29-03-2015T07:50:48Z</time>
      </trkpt>
      <trkpt lat="44.42969" lon="4.63465">
        <ele>135</ele>
        <time>29-03-2015T07:50:49Z</time>
      </trkpt>
      <trkpt lat="44.42966" lon="4.63469">
        <ele>135</ele>
        <time>29-03-2015T07:50:50Z</time>
      </trkpt>
      <trkpt lat="44.42965" lon="4.63476">
        <ele>135</ele>
        <time>29-03-2015T07:50:51Z</time>
      </trkpt>
      <trkpt lat="44.42962" lon="4.63487">
        <ele>135</ele>
        <time>29-03-2015T07:50:53Z</time>
      </trkpt>
      <trkpt lat="44.42959" lon="4.63495">
        <ele>135</ele>
        <time>29-03-2015T07:50:55Z</time>
      </trkpt>
      <trkpt lat="44.42956" lon="4.63504">
        <ele>135</ele>
        <time>29-03-2015T07:50:58Z</time>
      </trkpt>
      <trkpt lat="44.42952" lon="4.63507">
        <ele>133</ele>
        <time>29-03-2015T07:51:00Z</time>
      </trkpt>
      <trkpt lat="44.42947" lon="4.6351">
        <ele>133</ele>
        <time>29-03-2015T07:51:02Z</time>
      </trkpt>
      <trkpt lat="44.42943" lon="4.63518">
        <ele>132</ele>
        <time>29-03-2015T07:51:05Z</time>
      </trkpt>
      <trkpt lat="44.4294" lon="4.63526">
        <ele>132</ele>
        <time>29-03-2015T07:51:07Z</time>
      </trkpt>
      <trkpt lat="44.42935" lon="4.63533">
        <ele>126</ele>
        <time>29-03-2015T07:51:09Z</time>
      </trkpt>
      <trkpt lat="44.4293" lon="4.63542">
        <ele>126</ele>
        <time>29-03-2015T07:51:11Z</time>
      </trkpt>
      <trkpt lat="44.42925" lon="4.63548">
        <ele>126</ele>
        <time>29-03-2015T07:51:13Z</time>
      </trkpt>
      <trkpt lat="44.42925" lon="4.63557">
        <ele>125</ele>
        <time>29-03-2015T07:51:15Z</time>
      </trkpt>
      <trkpt lat="44.42926" lon="4.63568">
        <ele>125</ele>
        <time>29-03-2015T07:51:17Z</time>
      </trkpt>
      <trkpt lat="44.42928" lon="4.63576">
        <ele>124</ele>
        <time>29-03-2015T07:51:19Z</time>
      </trkpt>
      <trkpt lat="44.42932" lon="4.63584">
        <ele>124</ele>
        <time>29-03-2015T07:51:21Z</time>
      </trkpt>
      <trkpt lat="44.42934" lon="4.63596">
        <ele>124</ele>
        <time>29-03-2015T07:51:23Z</time>
      </trkpt>
      <trkpt lat="44.42933" lon="4.63606">
        <ele>122</ele>
        <time>29-03-2015T07:51:25Z</time>
      </trkpt>
      <trkpt lat="44.42936" lon="4.63612">
        <ele>122</ele>
        <time>29-03-2015T07:51:26Z</time>
      </trkpt>
      <trkpt lat="44.42936" lon="4.6362">
        <ele>122</ele>
        <time>29-03-2015T07:51:27Z</time>
      </trkpt>
      <trkpt lat="44.42936" lon="4.63628">
        <ele>122</ele>
        <time>29-03-2015T07:51:28Z</time>
      </trkpt>
      <trkpt lat="44.42936" lon="4.63637">
        <ele>114</ele>
        <time>29-03-2015T07:51:29Z</time>
      </trkpt>
      <trkpt lat="44.42936" lon="4.63647">
        <ele>114</ele>
        <time>29-03-2015T07:51:30Z</time>
      </trkpt>
      <trkpt lat="44.42939" lon="4.63655">
        <ele>114</ele>
        <time>29-03-2015T07:51:31Z</time>
      </trkpt>
      <trkpt lat="44.42939" lon="4.63663">
        <ele>114</ele>
        <time>29-03-2015T07:51:32Z</time>
      </trkpt>
      <trkpt lat="44.4294" lon="4.6367">
        <ele>114</ele>
        <time>29-03-2015T07:51:33Z</time>
      </trkpt>
      <trkpt lat="44.42942" lon="4.63681">
        <ele>108</ele>
        <time>29-03-2015T07:51:35Z</time>
      </trkpt>
      <trkpt lat="44.42943" lon="4.63688">
        <ele>108</ele>
        <time>29-03-2015T07:51:36Z</time>
      </trkpt>
      <trkpt lat="44.42943" lon="4.637">
        <ele>108</ele>
        <time>29-03-2015T07:51:38Z</time>
      </trkpt>
      <trkpt lat="44.42941" lon="4.63707">
        <ele>105</ele>
        <time>29-03-2015T07:51:39Z</time>
      </trkpt>
      <trkpt lat="44.42942" lon="4.6372">
        <ele>105</ele>
        <time>29-03-2015T07:51:41Z</time>
      </trkpt>
      <trkpt lat="44.42943" lon="4.63728">
        <ele>105</ele>
        <time>29-03-2015T07:51:42Z</time>
      </trkpt>
      <trkpt lat="44.42946" lon="4.63735">
        <ele>105</ele>
        <time>29-03-2015T07:51:43Z</time>
      </trkpt>
      <trkpt lat="44.42947" lon="4.63744">
        <ele>104</ele>
        <time>29-03-2015T07:51:45Z</time>
      </trkpt>
      <trkpt lat="44.42951" lon="4.63753">
        <ele>104</ele>
        <time>29-03-2015T07:51:47Z</time>
      </trkpt>
      <trkpt lat="44.42956" lon="4.63761">
        <ele>100</ele>
        <time>29-03-2015T07:51:49Z</time>
      </trkpt>
      <trkpt lat="44.42959" lon="4.63766">
        <ele>100</ele>
        <time>29-03-2015T07:51:50Z</time>
      </trkpt>
      <trkpt lat="44.4296" lon="4.63773">
        <ele>100</ele>
        <time>29-03-2015T07:51:51Z</time>
      </trkpt>
      <trkpt lat="44.42964" lon="4.63783">
        <ele>100</ele>
        <time>29-03-2015T07:51:53Z</time>
      </trkpt>
      <trkpt lat="44.4296" lon="4.63788">
        <ele>100</ele>
        <time>29-03-2015T07:51:56Z</time>
      </trkpt>
      <trkpt lat="44.42953" lon="4.63793">
        <ele>100</ele>
        <time>29-03-2015T07:51:58Z</time>
      </trkpt>
      <trkpt lat="44.42948" lon="4.63799">
        <ele>94</ele>
        <time>29-03-2015T07:52:00Z</time>
      </trkpt>
      <trkpt lat="44.42942" lon="4.63804">
        <ele>94</ele>
        <time>29-03-2015T07:52:03Z</time>
      </trkpt>
      <trkpt lat="44.42943" lon="4.63811">
        <ele>90</ele>
        <time>29-03-2015T07:52:07Z</time>
      </trkpt>
      <trkpt lat="44.42948" lon="4.63816">
        <ele>91</ele>
        <time>29-03-2015T07:52:09Z</time>
      </trkpt>
      <trkpt lat="44.42953" lon="4.63821">
        <ele>91</ele>
        <time>29-03-2015T07:52:10Z</time>
      </trkpt>
      <trkpt lat="44.42957" lon="4.63833">
        <ele>91</ele>
        <time>29-03-2015T07:52:12Z</time>
      </trkpt>
      <trkpt lat="44.42958" lon="4.6384">
        <ele>91</ele>
        <time>29-03-2015T07:52:13Z</time>
      </trkpt>
      <trkpt lat="44.42959" lon="4.63848">
        <ele>91</ele>
        <time>29-03-2015T07:52:14Z</time>
      </trkpt>
      <trkpt lat="44.42963" lon="4.63858">
        <ele>91</ele>
        <time>29-03-2015T07:52:15Z</time>
      </trkpt>
      <trkpt lat="44.42967" lon="4.63867">
        <ele>91</ele>
        <time>29-03-2015T07:52:16Z</time>
      </trkpt>
      <trkpt lat="44.42971" lon="4.63877">
        <ele>91</ele>
        <time>29-03-2015T07:52:17Z</time>
      </trkpt>
      <trkpt lat="44.42976" lon="4.63889">
        <ele>91</ele>
        <time>29-03-2015T07:52:18Z</time>
      </trkpt>
      <trkpt lat="44.42979" lon="4.63898">
        <ele>89</ele>
        <time>29-03-2015T07:52:19Z</time>
      </trkpt>
      <trkpt lat="44.42984" lon="4.63907">
        <ele>89</ele>
        <time>29-03-2015T07:52:20Z</time>
      </trkpt>
      <trkpt lat="44.42986" lon="4.63914">
        <ele>89</ele>
        <time>29-03-2015T07:52:21Z</time>
      </trkpt>
      <trkpt lat="44.42988" lon="4.63924">
        <ele>89</ele>
        <time>29-03-2015T07:52:23Z</time>
      </trkpt>
      <trkpt lat="44.42985" lon="4.63929">
        <ele>87</ele>
        <time>29-03-2015T07:52:25Z</time>
      </trkpt>
      <trkpt lat="44.42971" lon="4.63938">
        <ele>87</ele>
        <time>29-03-2015T07:52:28Z</time>
      </trkpt>
      <trkpt lat="44.42966" lon="4.6394">
        <ele>84</ele>
        <time>29-03-2015T07:52:29Z</time>
      </trkpt>
      <trkpt lat="44.42961" lon="4.63938">
        <ele>84</ele>
        <time>29-03-2015T07:52:30Z</time>
      </trkpt>
      <trkpt lat="44.42957" lon="4.63936">
        <ele>84</ele>
        <time>29-03-2015T07:52:31Z</time>
      </trkpt>
      <trkpt lat="44.4295" lon="4.63934">
        <ele>84</ele>
        <time>29-03-2015T07:52:32Z</time>
      </trkpt>
      <trkpt lat="44.42944" lon="4.6393">
        <ele>84</ele>
        <time>29-03-2015T07:52:33Z</time>
      </trkpt>
      <trkpt lat="44.42939" lon="4.63926">
        <ele>81</ele>
        <time>29-03-2015T07:52:34Z</time>
      </trkpt>
      <trkpt lat="44.42931" lon="4.63918">
        <ele>81</ele>
        <time>29-03-2015T07:52:35Z</time>
      </trkpt>
      <trkpt lat="44.42926" lon="4.63911">
        <ele>81</ele>
        <time>29-03-2015T07:52:36Z</time>
      </trkpt>
      <trkpt lat="44.42923" lon="4.63903">
        <ele>81</ele>
        <time>29-03-2015T07:52:37Z</time>
      </trkpt>
      <trkpt lat="44.42918" lon="4.63897">
        <ele>81</ele>
        <time>29-03-2015T07:52:38Z</time>
      </trkpt>
      <trkpt lat="44.42915" lon="4.63892">
        <ele>81</ele>
        <time>29-03-2015T07:52:39Z</time>
      </trkpt>
      <trkpt lat="44.4291" lon="4.63883">
        <ele>81</ele>
        <time>29-03-2015T07:52:40Z</time>
      </trkpt>
      <trkpt lat="44.42907" lon="4.63876">
        <ele>81</ele>
        <time>29-03-2015T07:52:41Z</time>
      </trkpt>
      <trkpt lat="44.42905" lon="4.63867">
        <ele>81</ele>
        <time>29-03-2015T07:52:42Z</time>
      </trkpt>
      <trkpt lat="44.42903" lon="4.6386">
        <ele>81</ele>
        <time>29-03-2015T07:52:43Z</time>
      </trkpt>
      <trkpt lat="44.42901" lon="4.63853">
        <ele>81</ele>
        <time>29-03-2015T07:52:44Z</time>
      </trkpt>
      <trkpt lat="44.42901" lon="4.63846">
        <ele>81</ele>
        <time>29-03-2015T07:52:45Z</time>
      </trkpt>
      <trkpt lat="44.429" lon="4.63839">
        <ele>81</ele>
        <time>29-03-2015T07:52:46Z</time>
      </trkpt>
      <trkpt lat="44.429" lon="4.63829">
        <ele>81</ele>
        <time>29-03-2015T07:52:48Z</time>
      </trkpt>
      <trkpt lat="44.42894" lon="4.6382">
        <ele>83</ele>
        <time>29-03-2015T07:52:50Z</time>
      </trkpt>
      <trkpt lat="44.42889" lon="4.63819">
        <ele>83</ele>
        <time>29-03-2015T07:52:51Z</time>
      </trkpt>
      <trkpt lat="44.42881" lon="4.6382">
        <ele>83</ele>
        <time>29-03-2015T07:52:53Z</time>
      </trkpt>
      <trkpt lat="44.42875" lon="4.6382">
        <ele>83</ele>
        <time>29-03-2015T07:52:54Z</time>
      </trkpt>
      <trkpt lat="44.4287" lon="4.63819">
        <ele>83</ele>
        <time>29-03-2015T07:52:55Z</time>
      </trkpt>
      <trkpt lat="44.42866" lon="4.63816">
        <ele>83</ele>
        <time>29-03-2015T07:52:56Z</time>
      </trkpt>
      <trkpt lat="44.4286" lon="4.63814">
        <ele>83</ele>
        <time>29-03-2015T07:52:57Z</time>
      </trkpt>
      <trkpt lat="44.42853" lon="4.63812">
        <ele>83</ele>
        <time>29-03-2015T07:52:58Z</time>
      </trkpt>
      <trkpt lat="44.42847" lon="4.63812">
        <ele>78</ele>
        <time>29-03-2015T07:52:59Z</time>
      </trkpt>
      <trkpt lat="44.42842" lon="4.63813">
        <ele>78</ele>
        <time>29-03-2015T07:53:00Z</time>
      </trkpt>
      <trkpt lat="44.42832" lon="4.63813">
        <ele>78</ele>
        <time>29-03-2015T07:53:02Z</time>
      </trkpt>
      <trkpt lat="44.42827" lon="4.63806">
        <ele>73</ele>
        <time>29-03-2015T07:53:04Z</time>
      </trkpt>
      <trkpt lat="44.42826" lon="4.638">
        <ele>73</ele>
        <time>29-03-2015T07:53:05Z</time>
      </trkpt>
      <trkpt lat="44.42822" lon="4.63789">
        <ele>73</ele>
        <time>29-03-2015T07:53:07Z</time>
      </trkpt>
      <trkpt lat="44.42817" lon="4.63777">
        <ele>73</ele>
        <time>29-03-2015T07:53:09Z</time>
      </trkpt>
      <trkpt lat="44.42813" lon="4.63769">
        <ele>73</ele>
        <time>29-03-2015T07:53:10Z</time>
      </trkpt>
      <trkpt lat="44.4281" lon="4.63761">
        <ele>73</ele>
        <time>29-03-2015T07:53:11Z</time>
      </trkpt>
      <trkpt lat="44.42809" lon="4.63753">
        <ele>73</ele>
        <time>29-03-2015T07:53:12Z</time>
      </trkpt>
      <trkpt lat="44.42807" lon="4.63745">
        <ele>73</ele>
        <time>29-03-2015T07:53:13Z</time>
      </trkpt>
      <trkpt lat="44.42806" lon="4.63737">
        <ele>73</ele>
        <time>29-03-2015T07:53:14Z</time>
      </trkpt>
      <trkpt lat="44.42803" lon="4.63731">
        <ele>73</ele>
        <time>29-03-2015T07:53:15Z</time>
      </trkpt>
      <trkpt lat="44.428" lon="4.63723">
        <ele>73</ele>
        <time>29-03-2015T07:53:16Z</time>
      </trkpt>
      <trkpt lat="44.42798" lon="4.63717">
        <ele>73</ele>
        <time>29-03-2015T07:53:17Z</time>
      </trkpt>
      <trkpt lat="44.42797" lon="4.63709">
        <ele>73</ele>
        <time>29-03-2015T07:53:18Z</time>
      </trkpt>
      <trkpt lat="44.42794" lon="4.63703">
        <ele>74</ele>
        <time>29-03-2015T07:53:19Z</time>
      </trkpt>
      <trkpt lat="44.42789" lon="4.6369">
        <ele>74</ele>
        <time>29-03-2015T07:53:21Z</time>
      </trkpt>
      <trkpt lat="44.42789" lon="4.63682">
        <ele>74</ele>
        <time>29-03-2015T07:53:22Z</time>
      </trkpt>
      <trkpt lat="44.42784" lon="4.63676">
        <ele>74</ele>
        <time>29-03-2015T07:53:23Z</time>
      </trkpt>
      <trkpt lat="44.42781" lon="4.6367">
        <ele>74</ele>
        <time>29-03-2015T07:53:24Z</time>
      </trkpt>
      <trkpt lat="44.42777" lon="4.63658">
        <ele>74</ele>
        <time>29-03-2015T07:53:26Z</time>
      </trkpt>
      <trkpt lat="44.42774" lon="4.63653">
        <ele>74</ele>
        <time>29-03-2015T07:53:27Z</time>
      </trkpt>
      <trkpt lat="44.42767" lon="4.63641">
        <ele>74</ele>
        <time>29-03-2015T07:53:29Z</time>
      </trkpt>
      <trkpt lat="44.42763" lon="4.63635">
        <ele>74</ele>
        <time>29-03-2015T07:53:30Z</time>
      </trkpt>
      <trkpt lat="44.42757" lon="4.63628">
        <ele>74</ele>
        <time>29-03-2015T07:53:31Z</time>
      </trkpt>
      <trkpt lat="44.42752" lon="4.63621">
        <ele>74</ele>
        <time>29-03-2015T07:53:32Z</time>
      </trkpt>
      <trkpt lat="44.42751" lon="4.63613">
        <ele>74</ele>
        <time>29-03-2015T07:53:33Z</time>
      </trkpt>
      <trkpt lat="44.42748" lon="4.63607">
        <ele>74</ele>
        <time>29-03-2015T07:53:34Z</time>
      </trkpt>
      <trkpt lat="44.42743" lon="4.63601">
        <ele>74</ele>
        <time>29-03-2015T07:53:35Z</time>
      </trkpt>
      <trkpt lat="44.42738" lon="4.6359">
        <ele>74</ele>
        <time>29-03-2015T07:53:37Z</time>
      </trkpt>
      <trkpt lat="44.42735" lon="4.63584">
        <ele>74</ele>
        <time>29-03-2015T07:53:38Z</time>
      </trkpt>
      <trkpt lat="44.42733" lon="4.63578">
        <ele>73</ele>
        <time>29-03-2015T07:53:39Z</time>
      </trkpt>
      <trkpt lat="44.42731" lon="4.63569">
        <ele>73</ele>
        <time>29-03-2015T07:53:40Z</time>
      </trkpt>
      <trkpt lat="44.42729" lon="4.63562">
        <ele>73</ele>
        <time>29-03-2015T07:53:41Z</time>
      </trkpt>
      <trkpt lat="44.42727" lon="4.63555">
        <ele>73</ele>
        <time>29-03-2015T07:53:42Z</time>
      </trkpt>
      <trkpt lat="44.42721" lon="4.63546">
        <ele>73</ele>
        <time>29-03-2015T07:53:43Z</time>
      </trkpt>
      <trkpt lat="44.42718" lon="4.63538">
        <ele>73</ele>
        <time>29-03-2015T07:53:44Z</time>
      </trkpt>
      <trkpt lat="44.42718" lon="4.63529">
        <ele>73</ele>
        <time>29-03-2015T07:53:45Z</time>
      </trkpt>
      <trkpt lat="44.42712" lon="4.63519">
        <ele>73</ele>
        <time>29-03-2015T07:53:46Z</time>
      </trkpt>
      <trkpt lat="44.42712" lon="4.63506">
        <ele>73</ele>
        <time>29-03-2015T07:53:47Z</time>
      </trkpt>
      <trkpt lat="44.42713" lon="4.63498">
        <ele>73</ele>
        <time>29-03-2015T07:53:48Z</time>
      </trkpt>
      <trkpt lat="44.4271" lon="4.63492">
        <ele>71</ele>
        <time>29-03-2015T07:53:49Z</time>
      </trkpt>
      <trkpt lat="44.42707" lon="4.63482">
        <ele>71</ele>
        <time>29-03-2015T07:53:51Z</time>
      </trkpt>
      <trkpt lat="44.42702" lon="4.63479">
        <ele>71</ele>
        <time>29-03-2015T07:53:52Z</time>
      </trkpt>
      <trkpt lat="44.42697" lon="4.63476">
        <ele>71</ele>
        <time>29-03-2015T07:53:53Z</time>
      </trkpt>
      <trkpt lat="44.42693" lon="4.63474">
        <ele>69</ele>
        <time>29-03-2015T07:53:54Z</time>
      </trkpt>
      <trkpt lat="44.42685" lon="4.63471">
        <ele>69</ele>
        <time>29-03-2015T07:53:55Z</time>
      </trkpt>
      <trkpt lat="44.42676" lon="4.63468">
        <ele>69</ele>
        <time>29-03-2015T07:53:56Z</time>
      </trkpt>
      <trkpt lat="44.42669" lon="4.63465">
        <ele>69</ele>
        <time>29-03-2015T07:53:57Z</time>
      </trkpt>
      <trkpt lat="44.42658" lon="4.63463">
        <ele>69</ele>
        <time>29-03-2015T07:53:58Z</time>
      </trkpt>
      <trkpt lat="44.42652" lon="4.6346">
        <ele>66</ele>
        <time>29-03-2015T07:53:59Z</time>
      </trkpt>
      <trkpt lat="44.42644" lon="4.63457">
        <ele>66</ele>
        <time>29-03-2015T07:54:00Z</time>
      </trkpt>
      <trkpt lat="44.42636" lon="4.63455">
        <ele>66</ele>
        <time>29-03-2015T07:54:01Z</time>
      </trkpt>
      <trkpt lat="44.42628" lon="4.63457">
        <ele>66</ele>
        <time>29-03-2015T07:54:02Z</time>
      </trkpt>
      <trkpt lat="44.42618" lon="4.63461">
        <ele>66</ele>
        <time>29-03-2015T07:54:03Z</time>
      </trkpt>
      <trkpt lat="44.42617" lon="4.63468">
        <ele>61</ele>
        <time>29-03-2015T07:54:04Z</time>
      </trkpt>
      <trkpt lat="44.42615" lon="4.63475">
        <ele>61</ele>
        <time>29-03-2015T07:54:05Z</time>
      </trkpt>
      <trkpt lat="44.42611" lon="4.63483">
        <ele>61</ele>
        <time>29-03-2015T07:54:06Z</time>
      </trkpt>
      <trkpt lat="44.42609" lon="4.63492">
        <ele>61</ele>
        <time>29-03-2015T07:54:07Z</time>
      </trkpt>
      <trkpt lat="44.42607" lon="4.63499">
        <ele>61</ele>
        <time>29-03-2015T07:54:08Z</time>
      </trkpt>
      <trkpt lat="44.42606" lon="4.63507">
        <ele>62</ele>
        <time>29-03-2015T07:54:09Z</time>
      </trkpt>
      <trkpt lat="44.42606" lon="4.63515">
        <ele>62</ele>
        <time>29-03-2015T07:54:10Z</time>
      </trkpt>
      <trkpt lat="44.42605" lon="4.63524">
        <ele>62</ele>
        <time>29-03-2015T07:54:11Z</time>
      </trkpt>
      <trkpt lat="44.42605" lon="4.63533">
        <ele>62</ele>
        <time>29-03-2015T07:54:12Z</time>
      </trkpt>
      <trkpt lat="44.42604" lon="4.6354">
        <ele>62</ele>
        <time>29-03-2015T07:54:13Z</time>
      </trkpt>
      <trkpt lat="44.42603" lon="4.63549">
        <ele>62</ele>
        <time>29-03-2015T07:54:14Z</time>
      </trkpt>
      <trkpt lat="44.42603" lon="4.63556">
        <ele>62</ele>
        <time>29-03-2015T07:54:15Z</time>
      </trkpt>
      <trkpt lat="44.42603" lon="4.63563">
        <ele>62</ele>
        <time>29-03-2015T07:54:16Z</time>
      </trkpt>
      <trkpt lat="44.42605" lon="4.63572">
        <ele>62</ele>
        <time>29-03-2015T07:54:17Z</time>
      </trkpt>
      <trkpt lat="44.42606" lon="4.63581">
        <ele>62</ele>
        <time>29-03-2015T07:54:18Z</time>
      </trkpt>
      <trkpt lat="44.42608" lon="4.63589">
        <ele>62</ele>
        <time>29-03-2015T07:54:19Z</time>
      </trkpt>
      <trkpt lat="44.42609" lon="4.63597">
        <ele>62</ele>
        <time>29-03-2015T07:54:20Z</time>
      </trkpt>
      <trkpt lat="44.42609" lon="4.63604">
        <ele>62</ele>
        <time>29-03-2015T07:54:21Z</time>
      </trkpt>
      <trkpt lat="44.4261" lon="4.63611">
        <ele>62</ele>
        <time>29-03-2015T07:54:22Z</time>
      </trkpt>
      <trkpt lat="44.42608" lon="4.63623">
        <ele>61</ele>
        <time>29-03-2015T07:54:24Z</time>
      </trkpt>
      <trkpt lat="44.4261" lon="4.63635">
        <ele>61</ele>
        <time>29-03-2015T07:54:26Z</time>
      </trkpt>
      <trkpt lat="44.42609" lon="4.63646">
        <ele>61</ele>
        <time>29-03-2015T07:54:28Z</time>
      </trkpt>
      <trkpt lat="44.42612" lon="4.63653">
        <ele>58</ele>
        <time>29-03-2015T07:54:31Z</time>
      </trkpt>
      <trkpt lat="44.42617" lon="4.63659">
        <ele>58</ele>
        <time>29-03-2015T07:54:33Z</time>
      </trkpt>
      <trkpt lat="44.42621" lon="4.63662">
        <ele>58</ele>
        <time>29-03-2015T07:54:34Z</time>
      </trkpt>
      <trkpt lat="44.42625" lon="4.63671">
        <ele>58</ele>
        <time>29-03-2015T07:54:36Z</time>
      </trkpt>
      <trkpt lat="44.4263" lon="4.63681">
        <ele>58</ele>
        <time>29-03-2015T07:54:38Z</time>
      </trkpt>
      <trkpt lat="44.42635" lon="4.63692">
        <ele>60</ele>
        <time>29-03-2015T07:54:40Z</time>
      </trkpt>
      <trkpt lat="44.42636" lon="4.63702">
        <ele>60</ele>
        <time>29-03-2015T07:54:42Z</time>
      </trkpt>
      <trkpt lat="44.42634" lon="4.63709">
        <ele>60</ele>
        <time>29-03-2015T07:54:45Z</time>
      </trkpt>
      <trkpt lat="44.42622" lon="4.6371">
        <ele>60</ele>
        <time>29-03-2015T07:54:48Z</time>
      </trkpt>
      <trkpt lat="44.42616" lon="4.63712">
        <ele>61</ele>
        <time>29-03-2015T07:54:49Z</time>
      </trkpt>
      <trkpt lat="44.42611" lon="4.63716">
        <ele>61</ele>
        <time>29-03-2015T07:54:51Z</time>
      </trkpt>
      <trkpt lat="44.42606" lon="4.63716">
        <ele>61</ele>
        <time>29-03-2015T07:54:52Z</time>
      </trkpt>
      <trkpt lat="44.426" lon="4.63718">
        <ele>61</ele>
        <time>29-03-2015T07:54:54Z</time>
      </trkpt>
      <trkpt lat="44.42596" lon="4.6371">
        <ele>61</ele>
        <time>29-03-2015T07:54:58Z</time>
      </trkpt>
      <trkpt lat="44.42598" lon="4.63702">
        <ele>64</ele>
        <time>29-03-2015T07:55:01Z</time>
      </trkpt>
      <trkpt lat="44.42598" lon="4.63696">
        <ele>64</ele>
        <time>29-03-2015T07:55:03Z</time>
      </trkpt>
      <trkpt lat="44.42601" lon="4.63688">
        <ele>66</ele>
        <time>29-03-2015T07:55:07Z</time>
      </trkpt>
      <trkpt lat="44.42603" lon="4.6368">
        <ele>67</ele>
        <time>29-03-2015T07:55:10Z</time>
      </trkpt>
      <trkpt lat="44.42605" lon="4.63672">
        <ele>67</ele>
        <time>29-03-2015T07:55:12Z</time>
      </trkpt>
      <trkpt lat="44.42601" lon="4.63666">
        <ele>68</ele>
        <time>29-03-2015T07:55:15Z</time>
      </trkpt>
      <trkpt lat="44.42596" lon="4.63663">
        <ele>68</ele>
        <time>29-03-2015T07:55:17Z</time>
      </trkpt>
      <trkpt lat="44.4259" lon="4.63662">
        <ele>69</ele>
        <time>29-03-2015T07:55:19Z</time>
      </trkpt>
      <trkpt lat="44.42584" lon="4.6366">
        <ele>69</ele>
        <time>29-03-2015T07:55:21Z</time>
      </trkpt>
      <trkpt lat="44.42578" lon="4.63662">
        <ele>69</ele>
        <time>29-03-2015T07:55:23Z</time>
      </trkpt>
      <trkpt lat="44.42574" lon="4.63661">
        <ele>70</ele>
        <time>29-03-2015T07:55:26Z</time>
      </trkpt>
      <trkpt lat="44.42568" lon="4.63663">
        <ele>70</ele>
        <time>29-03-2015T07:55:31Z</time>
      </trkpt>
      <trkpt lat="44.42561" lon="4.63659">
        <ele>73</ele>
        <time>29-03-2015T07:55:34Z</time>
      </trkpt>
      <trkpt lat="44.42556" lon="4.63658">
        <ele>73</ele>
        <time>29-03-2015T07:55:36Z</time>
      </trkpt>
      <trkpt lat="44.4255" lon="4.63652">
        <ele>73</ele>
        <time>29-03-2015T07:55:38Z</time>
      </trkpt>
      <trkpt lat="44.42542" lon="4.63647">
        <ele>75</ele>
        <time>29-03-2015T07:55:42Z</time>
      </trkpt>
      <trkpt lat="44.4254" lon="4.63643">
        <ele>75</ele>
        <time>29-03-2015T07:55:47Z</time>
      </trkpt>
      <trkpt lat="44.42532" lon="4.63641">
        <ele>76</ele>
        <time>29-03-2015T07:55:51Z</time>
      </trkpt>
      <trkpt lat="44.42526" lon="4.63637">
        <ele>77</ele>
        <time>29-03-2015T07:55:54Z</time>
      </trkpt>
      <trkpt lat="44.42521" lon="4.63634">
        <ele>77</ele>
        <time>29-03-2015T07:55:58Z</time>
      </trkpt>
      <trkpt lat="44.42516" lon="4.63628">
        <ele>78</ele>
        <time>29-03-2015T07:56:01Z</time>
      </trkpt>
      <trkpt lat="44.42511" lon="4.63625">
        <ele>78</ele>
        <time>29-03-2015T07:56:02Z</time>
      </trkpt>
      <trkpt lat="44.42503" lon="4.63619">
        <ele>80</ele>
        <time>29-03-2015T07:56:05Z</time>
      </trkpt>
      <trkpt lat="44.42499" lon="4.63615">
        <ele>80</ele>
        <time>29-03-2015T07:56:07Z</time>
      </trkpt>
      <trkpt lat="44.42494" lon="4.6361">
        <ele>83</ele>
        <time>29-03-2015T07:56:09Z</time>
      </trkpt>
      <trkpt lat="44.42488" lon="4.63603">
        <ele>83</ele>
        <time>29-03-2015T07:56:12Z</time>
      </trkpt>
      <trkpt lat="44.42482" lon="4.63598">
        <ele>84</ele>
        <time>29-03-2015T07:56:15Z</time>
      </trkpt>
      <trkpt lat="44.42478" lon="4.63595">
        <ele>84</ele>
        <time>29-03-2015T07:56:17Z</time>
      </trkpt>
      <trkpt lat="44.42476" lon="4.63588">
        <ele>84</ele>
        <time>29-03-2015T07:56:20Z</time>
      </trkpt>
      <trkpt lat="44.42472" lon="4.63581">
        <ele>84</ele>
        <time>29-03-2015T07:56:22Z</time>
      </trkpt>
      <trkpt lat="44.42466" lon="4.63576">
        <ele>84</ele>
        <time>29-03-2015T07:56:25Z</time>
      </trkpt>
      <trkpt lat="44.42461" lon="4.63574">
        <ele>84</ele>
        <time>29-03-2015T07:56:26Z</time>
      </trkpt>
      <trkpt lat="44.42453" lon="4.63568">
        <ele>85</ele>
        <time>29-03-2015T07:56:30Z</time>
      </trkpt>
      <trkpt lat="44.42447" lon="4.63568">
        <ele>85</ele>
        <time>29-03-2015T07:56:32Z</time>
      </trkpt>
      <trkpt lat="44.42441" lon="4.63566">
        <ele>84</ele>
        <time>29-03-2015T07:56:34Z</time>
      </trkpt>
      <trkpt lat="44.42433" lon="4.63564">
        <ele>84</ele>
        <time>29-03-2015T07:56:36Z</time>
      </trkpt>
      <trkpt lat="44.42428" lon="4.63565">
        <ele>84</ele>
        <time>29-03-2015T07:56:37Z</time>
      </trkpt>
      <trkpt lat="44.42423" lon="4.63564">
        <ele>84</ele>
        <time>29-03-2015T07:56:38Z</time>
      </trkpt>
      <trkpt lat="44.42419" lon="4.63565">
        <ele>83</ele>
        <time>29-03-2015T07:56:39Z</time>
      </trkpt>
      <trkpt lat="44.42411" lon="4.63565">
        <ele>83</ele>
        <time>29-03-2015T07:56:41Z</time>
      </trkpt>
      <trkpt lat="44.42405" lon="4.63564">
        <ele>83</ele>
        <time>29-03-2015T07:56:42Z</time>
      </trkpt>
      <trkpt lat="44.42396" lon="4.63565">
        <ele>83</ele>
        <time>29-03-2015T07:56:44Z</time>
      </trkpt>
      <trkpt lat="44.42386" lon="4.63564">
        <ele>83</ele>
        <time>29-03-2015T07:56:46Z</time>
      </trkpt>
      <trkpt lat="44.4238" lon="4.63564">
        <ele>83</ele>
        <time>29-03-2015T07:56:47Z</time>
      </trkpt>
      <trkpt lat="44.42374" lon="4.63564">
        <ele>83</ele>
        <time>29-03-2015T07:56:49Z</time>
      </trkpt>
      <trkpt lat="44.4237" lon="4.63567">
        <ele>83</ele>
        <time>29-03-2015T07:56:52Z</time>
      </trkpt>
      <trkpt lat="44.42363" lon="4.63565">
        <ele>84</ele>
        <time>29-03-2015T07:56:54Z</time>
      </trkpt>
      <trkpt lat="44.42358" lon="4.63564">
        <ele>84</ele>
        <time>29-03-2015T07:56:55Z</time>
      </trkpt>
      <trkpt lat="44.42353" lon="4.63564">
        <ele>84</ele>
        <time>29-03-2015T07:56:56Z</time>
      </trkpt>
      <trkpt lat="44.42346" lon="4.63565">
        <ele>84</ele>
        <time>29-03-2015T07:56:58Z</time>
      </trkpt>
      <trkpt lat="44.42341" lon="4.63567">
        <ele>85</ele>
        <time>29-03-2015T07:56:59Z</time>
      </trkpt>
      <trkpt lat="44.42336" lon="4.6357">
        <ele>85</ele>
        <time>29-03-2015T07:57:00Z</time>
      </trkpt>
      <trkpt lat="44.42333" lon="4.63576">
        <ele>85</ele>
        <time>29-03-2015T07:57:01Z</time>
      </trkpt>
      <trkpt lat="44.42332" lon="4.63583">
        <ele>85</ele>
        <time>29-03-2015T07:57:02Z</time>
      </trkpt>
      <trkpt lat="44.4233" lon="4.63595">
        <ele>85</ele>
        <time>29-03-2015T07:57:04Z</time>
      </trkpt>
      <trkpt lat="44.42327" lon="4.63601">
        <ele>85</ele>
        <time>29-03-2015T07:57:05Z</time>
      </trkpt>
      <trkpt lat="44.42326" lon="4.63609">
        <ele>85</ele>
        <time>29-03-2015T07:57:06Z</time>
      </trkpt>
      <trkpt lat="44.42326" lon="4.63616">
        <ele>85</ele>
        <time>29-03-2015T07:57:07Z</time>
      </trkpt>
      <trkpt lat="44.42325" lon="4.63623">
        <ele>85</ele>
        <time>29-03-2015T07:57:08Z</time>
      </trkpt>
      <trkpt lat="44.42322" lon="4.63635">
        <ele>86</ele>
        <time>29-03-2015T07:57:10Z</time>
      </trkpt>
      <trkpt lat="44.4232" lon="4.63647">
        <ele>86</ele>
        <time>29-03-2015T07:57:12Z</time>
      </trkpt>
      <trkpt lat="44.4232" lon="4.63653">
        <ele>86</ele>
        <time>29-03-2015T07:57:13Z</time>
      </trkpt>
      <trkpt lat="44.42319" lon="4.6366">
        <ele>86</ele>
        <time>29-03-2015T07:57:14Z</time>
      </trkpt>
      <trkpt lat="44.42316" lon="4.63666">
        <ele>86</ele>
        <time>29-03-2015T07:57:15Z</time>
      </trkpt>
      <trkpt lat="44.42315" lon="4.63673">
        <ele>86</ele>
        <time>29-03-2015T07:57:16Z</time>
      </trkpt>
      <trkpt lat="44.42314" lon="4.63683">
        <ele>86</ele>
        <time>29-03-2015T07:57:18Z</time>
      </trkpt>
      <trkpt lat="44.42314" lon="4.63694">
        <ele>86</ele>
        <time>29-03-2015T07:57:20Z</time>
      </trkpt>
      <trkpt lat="44.42312" lon="4.63704">
        <ele>86</ele>
        <time>29-03-2015T07:57:22Z</time>
      </trkpt>
      <trkpt lat="44.42311" lon="4.63712">
        <ele>86</ele>
        <time>29-03-2015T07:57:24Z</time>
      </trkpt>
      <trkpt lat="44.42303" lon="4.63716">
        <ele>86</ele>
        <time>29-03-2015T07:57:26Z</time>
      </trkpt>
      <trkpt lat="44.42297" lon="4.63719">
        <ele>86</ele>
        <time>29-03-2015T07:57:28Z</time>
      </trkpt>
      <trkpt lat="44.42289" lon="4.63717">
        <ele>87</ele>
        <time>29-03-2015T07:57:30Z</time>
      </trkpt>
      <trkpt lat="44.42283" lon="4.63717">
        <ele>87</ele>
        <time>29-03-2015T07:57:32Z</time>
      </trkpt>
      <trkpt lat="44.42277" lon="4.63715">
        <ele>87</ele>
        <time>29-03-2015T07:57:33Z</time>
      </trkpt>
      <trkpt lat="44.42271" lon="4.63716">
        <ele>88</ele>
        <time>29-03-2015T07:57:35Z</time>
      </trkpt>
      <trkpt lat="44.42266" lon="4.63718">
        <ele>88</ele>
        <time>29-03-2015T07:57:36Z</time>
      </trkpt>
      <trkpt lat="44.42262" lon="4.63718">
        <ele>88</ele>
        <time>29-03-2015T07:57:37Z</time>
      </trkpt>
      <trkpt lat="44.42256" lon="4.63719">
        <ele>90</ele>
        <time>29-03-2015T07:57:39Z</time>
      </trkpt>
      <trkpt lat="44.42248" lon="4.63717">
        <ele>90</ele>
        <time>29-03-2015T07:57:41Z</time>
      </trkpt>
      <trkpt lat="44.42243" lon="4.63718">
        <ele>90</ele>
        <time>29-03-2015T07:57:42Z</time>
      </trkpt>
      <trkpt lat="44.42238" lon="4.63716">
        <ele>90</ele>
        <time>29-03-2015T07:57:43Z</time>
      </trkpt>
      <trkpt lat="44.42228" lon="4.63716">
        <ele>90</ele>
        <time>29-03-2015T07:57:45Z</time>
      </trkpt>
      <trkpt lat="44.42222" lon="4.63712">
        <ele>90</ele>
        <time>29-03-2015T07:57:46Z</time>
      </trkpt>
      <trkpt lat="44.42218" lon="4.6371">
        <ele>90</ele>
        <time>29-03-2015T07:57:48Z</time>
      </trkpt>
      <trkpt lat="44.42212" lon="4.63705">
        <ele>91</ele>
        <time>29-03-2015T07:57:51Z</time>
      </trkpt>
      <trkpt lat="44.42208" lon="4.63703">
        <ele>91</ele>
        <time>29-03-2015T07:57:52Z</time>
      </trkpt>
      <trkpt lat="44.422" lon="4.63701">
        <ele>91</ele>
        <time>29-03-2015T07:57:55Z</time>
      </trkpt>
      <trkpt lat="44.42195" lon="4.63702">
        <ele>91</ele>
        <time>29-03-2015T07:57:57Z</time>
      </trkpt>
      <trkpt lat="44.4219" lon="4.63699">
        <ele>93</ele>
        <time>29-03-2015T07:58:02Z</time>
      </trkpt>
      <trkpt lat="44.42186" lon="4.63696">
        <ele>93</ele>
        <time>29-03-2015T07:58:03Z</time>
      </trkpt>
      <trkpt lat="44.42178" lon="4.63698">
        <ele>93</ele>
        <time>29-03-2015T07:58:07Z</time>
      </trkpt>
      <trkpt lat="44.42172" lon="4.63699">
        <ele>95</ele>
        <time>29-03-2015T07:58:09Z</time>
      </trkpt>
      <trkpt lat="44.4217" lon="4.63701">
        <ele>95</ele>
        <time>29-03-2015T07:58:14Z</time>
      </trkpt>
      <trkpt lat="44.42164" lon="4.63699">
        <ele>95</ele>
        <time>29-03-2015T07:58:18Z</time>
      </trkpt>
      <trkpt lat="44.42159" lon="4.63696">
        <ele>96</ele>
        <time>29-03-2015T07:58:20Z</time>
      </trkpt>
      <trkpt lat="44.42153" lon="4.63699">
        <ele>97</ele>
        <time>29-03-2015T07:58:25Z</time>
      </trkpt>
      <trkpt lat="44.42149" lon="4.63703">
        <ele>97</ele>
        <time>29-03-2015T07:58:28Z</time>
      </trkpt>
      <trkpt lat="44.42145" lon="4.63703">
        <ele>98</ele>
        <time>29-03-2015T07:58:31Z</time>
      </trkpt>
      <trkpt lat="44.4214" lon="4.63706">
        <ele>100</ele>
        <time>29-03-2015T07:58:36Z</time>
      </trkpt>
      <trkpt lat="44.42133" lon="4.63706">
        <ele>100</ele>
        <time>29-03-2015T07:58:38Z</time>
      </trkpt>
      <trkpt lat="44.42128" lon="4.63706">
        <ele>101</ele>
        <time>29-03-2015T07:58:42Z</time>
      </trkpt>
      <trkpt lat="44.4212" lon="4.63707">
        <ele>101</ele>
        <time>29-03-2015T07:58:45Z</time>
      </trkpt>
      <trkpt lat="44.42115" lon="4.63706">
        <ele>101</ele>
        <time>29-03-2015T07:58:48Z</time>
      </trkpt>
      <trkpt lat="44.42113" lon="4.63708">
        <ele>102</ele>
        <time>29-03-2015T07:58:53Z</time>
      </trkpt>
      <trkpt lat="44.4211" lon="4.6371">
        <ele>102</ele>
        <time>29-03-2015T07:58:58Z</time>
      </trkpt>
      <trkpt lat="44.42104" lon="4.63713">
        <ele>102</ele>
        <time>29-03-2015T07:59:03Z</time>
      </trkpt>
      <trkpt lat="44.42099" lon="4.63714">
        <ele>105</ele>
        <time>29-03-2015T07:59:08Z</time>
      </trkpt>
      <trkpt lat="44.42094" lon="4.63717">
        <ele>106</ele>
        <time>29-03-2015T07:59:11Z</time>
      </trkpt>
      <trkpt lat="44.42088" lon="4.63716">
        <ele>106</ele>
        <time>29-03-2015T07:59:14Z</time>
      </trkpt>
      <trkpt lat="44.42084" lon="4.63719">
        <ele>106</ele>
        <time>29-03-2015T07:59:18Z</time>
      </trkpt>
      <trkpt lat="44.42082" lon="4.63723">
        <ele>108</ele>
        <time>29-03-2015T07:59:23Z</time>
      </trkpt>
      <trkpt lat="44.42079" lon="4.63728">
        <ele>108</ele>
        <time>29-03-2015T07:59:27Z</time>
      </trkpt>
      <trkpt lat="44.42073" lon="4.63728">
        <ele>109</ele>
        <time>29-03-2015T07:59:29Z</time>
      </trkpt>
      <trkpt lat="44.42069" lon="4.63732">
        <ele>111</ele>
        <time>29-03-2015T07:59:34Z</time>
      </trkpt>
      <trkpt lat="44.42063" lon="4.63731">
        <ele>111</ele>
        <time>29-03-2015T07:59:37Z</time>
      </trkpt>
      <trkpt lat="44.42058" lon="4.63734">
        <ele>111</ele>
        <time>29-03-2015T07:59:41Z</time>
      </trkpt>
      <trkpt lat="44.42052" lon="4.63734">
        <ele>112</ele>
        <time>29-03-2015T07:59:44Z</time>
      </trkpt>
      <trkpt lat="44.42047" lon="4.63734">
        <ele>113</ele>
        <time>29-03-2015T07:59:49Z</time>
      </trkpt>
      <trkpt lat="44.42042" lon="4.63736">
        <ele>113</ele>
        <time>29-03-2015T07:59:52Z</time>
      </trkpt>
      <trkpt lat="44.42037" lon="4.63737">
        <ele>113</ele>
        <time>29-03-2015T07:59:54Z</time>
      </trkpt>
      <trkpt lat="44.42032" lon="4.63737">
        <ele>113</ele>
        <time>29-03-2015T07:59:58Z</time>
      </trkpt>
      <trkpt lat="44.42027" lon="4.63739">
        <ele>114</ele>
        <time>29-03-2015T08:00:02Z</time>
      </trkpt>
      <trkpt lat="44.42022" lon="4.63741">
        <ele>115</ele>
        <time>29-03-2015T08:00:07Z</time>
      </trkpt>
      <trkpt lat="44.42017" lon="4.63741">
        <ele>116</ele>
        <time>29-03-2015T08:00:11Z</time>
      </trkpt>
      <trkpt lat="44.42011" lon="4.63739">
        <ele>117</ele>
        <time>29-03-2015T08:00:14Z</time>
      </trkpt>
      <trkpt lat="44.42006" lon="4.63738">
        <ele>117</ele>
        <time>29-03-2015T08:00:17Z</time>
      </trkpt>
      <trkpt lat="44.42002" lon="4.63737">
        <ele>117</ele>
        <time>29-03-2015T08:00:19Z</time>
      </trkpt>
      <trkpt lat="44.41996" lon="4.63737">
        <ele>117</ele>
        <time>29-03-2015T08:00:22Z</time>
      </trkpt>
      <trkpt lat="44.41992" lon="4.63735">
        <ele>118</ele>
        <time>29-03-2015T08:00:24Z</time>
      </trkpt>
      <trkpt lat="44.41981" lon="4.63731">
        <ele>118</ele>
        <time>29-03-2015T08:00:30Z</time>
      </trkpt>
      <trkpt lat="44.41974" lon="4.63728">
        <ele>118</ele>
        <time>29-03-2015T08:00:32Z</time>
      </trkpt>
      <trkpt lat="44.41969" lon="4.63728">
        <ele>118</ele>
        <time>29-03-2015T08:00:34Z</time>
      </trkpt>
      <trkpt lat="44.41964" lon="4.63728">
        <ele>118</ele>
        <time>29-03-2015T08:00:37Z</time>
      </trkpt>
      <trkpt lat="44.41959" lon="4.63726">
        <ele>118</ele>
        <time>29-03-2015T08:00:40Z</time>
      </trkpt>
      <trkpt lat="44.41953" lon="4.63724">
        <ele>118</ele>
        <time>29-03-2015T08:00:43Z</time>
      </trkpt>
      <trkpt lat="44.41947" lon="4.63724">
        <ele>119</ele>
        <time>29-03-2015T08:00:46Z</time>
      </trkpt>
      <trkpt lat="44.41942" lon="4.63722">
        <ele>119</ele>
        <time>29-03-2015T08:00:49Z</time>
      </trkpt>
      <trkpt lat="44.41936" lon="4.63725">
        <ele>119</ele>
        <time>29-03-2015T08:00:53Z</time>
      </trkpt>
      <trkpt lat="44.41929" lon="4.63725">
        <ele>121</ele>
        <time>29-03-2015T08:00:55Z</time>
      </trkpt>
      <trkpt lat="44.41923" lon="4.63727">
        <ele>121</ele>
        <time>29-03-2015T08:00:57Z</time>
      </trkpt>
      <trkpt lat="44.41918" lon="4.63725">
        <ele>122</ele>
        <time>29-03-2015T08:01:00Z</time>
      </trkpt>
      <trkpt lat="44.41911" lon="4.63725">
        <ele>122</ele>
        <time>29-03-2015T08:01:03Z</time>
      </trkpt>
      <trkpt lat="44.41907" lon="4.63725">
        <ele>122</ele>
        <time>29-03-2015T08:01:08Z</time>
      </trkpt>
      <trkpt lat="44.41904" lon="4.63721">
        <ele>123</ele>
        <time>29-03-2015T08:01:12Z</time>
      </trkpt>
      <trkpt lat="44.41898" lon="4.63722">
        <ele>123</ele>
        <time>29-03-2015T08:01:15Z</time>
      </trkpt>
      <trkpt lat="44.41893" lon="4.63721">
        <ele>124</ele>
        <time>29-03-2015T08:01:19Z</time>
      </trkpt>
      <trkpt lat="44.41889" lon="4.63724">
        <ele>124</ele>
        <time>29-03-2015T08:01:22Z</time>
      </trkpt>
      <trkpt lat="44.41883" lon="4.63726">
        <ele>125</ele>
        <time>29-03-2015T08:01:26Z</time>
      </trkpt>
      <trkpt lat="44.41878" lon="4.63725">
        <ele>125</ele>
        <time>29-03-2015T08:01:28Z</time>
      </trkpt>
      <trkpt lat="44.41874" lon="4.63725">
        <ele>127</ele>
        <time>29-03-2015T08:01:33Z</time>
      </trkpt>
      <trkpt lat="44.4187" lon="4.63729">
        <ele>127</ele>
        <time>29-03-2015T08:01:37Z</time>
      </trkpt>
      <trkpt lat="44.41865" lon="4.63729">
        <ele>129</ele>
        <time>29-03-2015T08:01:41Z</time>
      </trkpt>
      <trkpt lat="44.4186" lon="4.63728">
        <ele>129</ele>
        <time>29-03-2015T08:01:45Z</time>
      </trkpt>
      <trkpt lat="44.41853" lon="4.63729">
        <ele>129</ele>
        <time>29-03-2015T08:01:48Z</time>
      </trkpt>
      <trkpt lat="44.41849" lon="4.63731">
        <ele>130</ele>
        <time>29-03-2015T08:01:51Z</time>
      </trkpt>
      <trkpt lat="44.41843" lon="4.63732">
        <ele>130</ele>
        <time>29-03-2015T08:01:53Z</time>
      </trkpt>
      <trkpt lat="44.41838" lon="4.63736">
        <ele>130</ele>
        <time>29-03-2015T08:01:56Z</time>
      </trkpt>
      <trkpt lat="44.41834" lon="4.63742">
        <ele>130</ele>
        <time>29-03-2015T08:01:59Z</time>
      </trkpt>
      <trkpt lat="44.4183" lon="4.63748">
        <ele>130</ele>
        <time>29-03-2015T08:02:01Z</time>
      </trkpt>
      <trkpt lat="44.41823" lon="4.63751">
        <ele>131</ele>
        <time>29-03-2015T08:02:04Z</time>
      </trkpt>
      <trkpt lat="44.41823" lon="4.63759">
        <ele>131</ele>
        <time>29-03-2015T08:02:07Z</time>
      </trkpt>
      <trkpt lat="44.41819" lon="4.63764">
        <ele>131</ele>
        <time>29-03-2015T08:02:09Z</time>
      </trkpt>
      <trkpt lat="44.41812" lon="4.63771">
        <ele>131</ele>
        <time>29-03-2015T08:02:11Z</time>
      </trkpt>
      <trkpt lat="44.41809" lon="4.63775">
        <ele>131</ele>
        <time>29-03-2015T08:02:12Z</time>
      </trkpt>
      <trkpt lat="44.41803" lon="4.63781">
        <ele>131</ele>
        <time>29-03-2015T08:02:14Z</time>
      </trkpt>
      <trkpt lat="44.41799" lon="4.63785">
        <ele>131</ele>
        <time>29-03-2015T08:02:15Z</time>
      </trkpt>
      <trkpt lat="44.41793" lon="4.63787">
        <ele>131</ele>
        <time>29-03-2015T08:02:16Z</time>
      </trkpt>
      <trkpt lat="44.4179" lon="4.63794">
        <ele>131</ele>
        <time>29-03-2015T08:02:18Z</time>
      </trkpt>
      <trkpt lat="44.41787" lon="4.63799">
        <ele>131</ele>
        <time>29-03-2015T08:02:19Z</time>
      </trkpt>
      <trkpt lat="44.4178" lon="4.63803">
        <ele>131</ele>
        <time>29-03-2015T08:02:21Z</time>
      </trkpt>
      <trkpt lat="44.41775" lon="4.63808">
        <ele>131</ele>
        <time>29-03-2015T08:02:23Z</time>
      </trkpt>
      <trkpt lat="44.41775" lon="4.63815">
        <ele>133</ele>
        <time>29-03-2015T08:02:26Z</time>
      </trkpt>
      <trkpt lat="44.41771" lon="4.63822">
        <ele>133</ele>
        <time>29-03-2015T08:02:28Z</time>
      </trkpt>
      <trkpt lat="44.4177" lon="4.63828">
        <ele>133</ele>
        <time>29-03-2015T08:02:30Z</time>
      </trkpt>
      <trkpt lat="44.41769" lon="4.63834">
        <ele>133</ele>
        <time>29-03-2015T08:02:32Z</time>
      </trkpt>
      <trkpt lat="44.41765" lon="4.63843">
        <ele>133</ele>
        <time>29-03-2015T08:02:35Z</time>
      </trkpt>
      <trkpt lat="44.41764" lon="4.6385">
        <ele>133</ele>
        <time>29-03-2015T08:02:37Z</time>
      </trkpt>
      <trkpt lat="44.41761" lon="4.63857">
        <ele>135</ele>
        <time>29-03-2015T08:02:39Z</time>
      </trkpt>
      <trkpt lat="44.41757" lon="4.63868">
        <ele>135</ele>
        <time>29-03-2015T08:02:41Z</time>
      </trkpt>
      <trkpt lat="44.41756" lon="4.63879">
        <ele>135</ele>
        <time>29-03-2015T08:02:43Z</time>
      </trkpt>
      <trkpt lat="44.41755" lon="4.63885">
        <ele>135</ele>
        <time>29-03-2015T08:02:45Z</time>
      </trkpt>
      <trkpt lat="44.41751" lon="4.63893">
        <ele>135</ele>
        <time>29-03-2015T08:02:47Z</time>
      </trkpt>
      <trkpt lat="44.41747" lon="4.63902">
        <ele>135</ele>
        <time>29-03-2015T08:02:49Z</time>
      </trkpt>
      <trkpt lat="44.41751" lon="4.63907">
        <ele>135</ele>
        <time>29-03-2015T08:02:50Z</time>
      </trkpt>
      <trkpt lat="44.41746" lon="4.63916">
        <ele>135</ele>
        <time>29-03-2015T08:02:52Z</time>
      </trkpt>
      <trkpt lat="44.41745" lon="4.63927">
        <ele>135</ele>
        <time>29-03-2015T08:02:54Z</time>
      </trkpt>
      <trkpt lat="44.4174" lon="4.63937">
        <ele>135</ele>
        <time>29-03-2015T08:02:56Z</time>
      </trkpt>
      <trkpt lat="44.41734" lon="4.63946">
        <ele>135</ele>
        <time>29-03-2015T08:02:58Z</time>
      </trkpt>
      <trkpt lat="44.41731" lon="4.63952">
        <ele>135</ele>
        <time>29-03-2015T08:02:59Z</time>
      </trkpt>
      <trkpt lat="44.41727" lon="4.63958">
        <ele>135</ele>
        <time>29-03-2015T08:03:00Z</time>
      </trkpt>
      <trkpt lat="44.41722" lon="4.63964">
        <ele>135</ele>
        <time>29-03-2015T08:03:01Z</time>
      </trkpt>
      <trkpt lat="44.41721" lon="4.63975">
        <ele>135</ele>
        <time>29-03-2015T08:03:03Z</time>
      </trkpt>
      <trkpt lat="44.41718" lon="4.63983">
        <ele>135</ele>
        <time>29-03-2015T08:03:05Z</time>
      </trkpt>
      <trkpt lat="44.41713" lon="4.63985">
        <ele>135</ele>
        <time>29-03-2015T08:03:06Z</time>
      </trkpt>
      <trkpt lat="44.41706" lon="4.63987">
        <ele>135</ele>
        <time>29-03-2015T08:03:08Z</time>
      </trkpt>
      <trkpt lat="44.41699" lon="4.6399">
        <ele>135</ele>
        <time>29-03-2015T08:03:10Z</time>
      </trkpt>
      <trkpt lat="44.41693" lon="4.63993">
        <ele>135</ele>
        <time>29-03-2015T08:03:13Z</time>
      </trkpt>
      <trkpt lat="44.41685" lon="4.63998">
        <ele>135</ele>
        <time>29-03-2015T08:03:15Z</time>
      </trkpt>
      <trkpt lat="44.4168" lon="4.64006">
        <ele>135</ele>
        <time>29-03-2015T08:03:17Z</time>
      </trkpt>
      <trkpt lat="44.41682" lon="4.64014">
        <ele>135</ele>
        <time>29-03-2015T08:03:18Z</time>
      </trkpt>
      <trkpt lat="44.41679" lon="4.64018">
        <ele>135</ele>
        <time>29-03-2015T08:03:19Z</time>
      </trkpt>
      <trkpt lat="44.41679" lon="4.64029">
        <ele>135</ele>
        <time>29-03-2015T08:03:21Z</time>
      </trkpt>
      <trkpt lat="44.41678" lon="4.64037">
        <ele>135</ele>
        <time>29-03-2015T08:03:23Z</time>
      </trkpt>
      <trkpt lat="44.41676" lon="4.64048">
        <ele>135</ele>
        <time>29-03-2015T08:03:25Z</time>
      </trkpt>
      <trkpt lat="44.41668" lon="4.64058">
        <ele>135</ele>
        <time>29-03-2015T08:03:27Z</time>
      </trkpt>
      <trkpt lat="44.41664" lon="4.64061">
        <ele>135</ele>
        <time>29-03-2015T08:03:28Z</time>
      </trkpt>
      <trkpt lat="44.4166" lon="4.64066">
        <ele>133</ele>
        <time>29-03-2015T08:03:29Z</time>
      </trkpt>
      <trkpt lat="44.41657" lon="4.6407">
        <ele>133</ele>
        <time>29-03-2015T08:03:30Z</time>
      </trkpt>
      <trkpt lat="44.41653" lon="4.64075">
        <ele>133</ele>
        <time>29-03-2015T08:03:31Z</time>
      </trkpt>
      <trkpt lat="44.41648" lon="4.64079">
        <ele>133</ele>
        <time>29-03-2015T08:03:32Z</time>
      </trkpt>
      <trkpt lat="44.41642" lon="4.64083">
        <ele>133</ele>
        <time>29-03-2015T08:03:33Z</time>
      </trkpt>
      <trkpt lat="44.41637" lon="4.64088">
        <ele>132</ele>
        <time>29-03-2015T08:03:34Z</time>
      </trkpt>
      <trkpt lat="44.41631" lon="4.6409">
        <ele>132</ele>
        <time>29-03-2015T08:03:35Z</time>
      </trkpt>
      <trkpt lat="44.41625" lon="4.64093">
        <ele>132</ele>
        <time>29-03-2015T08:03:36Z</time>
      </trkpt>
      <trkpt lat="44.41618" lon="4.64099">
        <ele>132</ele>
        <time>29-03-2015T08:03:38Z</time>
      </trkpt>
      <trkpt lat="44.41612" lon="4.64102">
        <ele>132</ele>
        <time>29-03-2015T08:03:39Z</time>
      </trkpt>
      <trkpt lat="44.41603" lon="4.64109">
        <ele>132</ele>
        <time>29-03-2015T08:03:41Z</time>
      </trkpt>
      <trkpt lat="44.41598" lon="4.64114">
        <ele>132</ele>
        <time>29-03-2015T08:03:42Z</time>
      </trkpt>
      <trkpt lat="44.41593" lon="4.64115">
        <ele>132</ele>
        <time>29-03-2015T08:03:43Z</time>
      </trkpt>
      <trkpt lat="44.41588" lon="4.64119">
        <ele>132</ele>
        <time>29-03-2015T08:03:44Z</time>
      </trkpt>
      <trkpt lat="44.41583" lon="4.64122">
        <ele>132</ele>
        <time>29-03-2015T08:03:45Z</time>
      </trkpt>
      <trkpt lat="44.41576" lon="4.64126">
        <ele>132</ele>
        <time>29-03-2015T08:03:47Z</time>
      </trkpt>
      <trkpt lat="44.41567" lon="4.6413">
        <ele>132</ele>
        <time>29-03-2015T08:03:49Z</time>
      </trkpt>
      <trkpt lat="44.41558" lon="4.64135">
        <ele>132</ele>
        <time>29-03-2015T08:03:51Z</time>
      </trkpt>
      <trkpt lat="44.41554" lon="4.6414">
        <ele>132</ele>
        <time>29-03-2015T08:03:52Z</time>
      </trkpt>
      <trkpt lat="44.4155" lon="4.64144">
        <ele>132</ele>
        <time>29-03-2015T08:03:53Z</time>
      </trkpt>
      <trkpt lat="44.41544" lon="4.64148">
        <ele>132</ele>
        <time>29-03-2015T08:03:54Z</time>
      </trkpt>
      <trkpt lat="44.41539" lon="4.64153">
        <ele>132</ele>
        <time>29-03-2015T08:03:55Z</time>
      </trkpt>
      <trkpt lat="44.41529" lon="4.6416">
        <ele>132</ele>
        <time>29-03-2015T08:03:57Z</time>
      </trkpt>
      <trkpt lat="44.41525" lon="4.64166">
        <ele>132</ele>
        <time>29-03-2015T08:03:58Z</time>
      </trkpt>
      <trkpt lat="44.41516" lon="4.64175">
        <ele>133</ele>
        <time>29-03-2015T08:04:00Z</time>
      </trkpt>
      <trkpt lat="44.41511" lon="4.64179">
        <ele>133</ele>
        <time>29-03-2015T08:04:01Z</time>
      </trkpt>
      <trkpt lat="44.41503" lon="4.64186">
        <ele>133</ele>
        <time>29-03-2015T08:04:02Z</time>
      </trkpt>
      <trkpt lat="44.41497" lon="4.64192">
        <ele>133</ele>
        <time>29-03-2015T08:04:03Z</time>
      </trkpt>
      <trkpt lat="44.4149" lon="4.64196">
        <ele>129</ele>
        <time>29-03-2015T08:04:04Z</time>
      </trkpt>
      <trkpt lat="44.41485" lon="4.64202">
        <ele>129</ele>
        <time>29-03-2015T08:04:05Z</time>
      </trkpt>
      <trkpt lat="44.41481" lon="4.64206">
        <ele>129</ele>
        <time>29-03-2015T08:04:06Z</time>
      </trkpt>
      <trkpt lat="44.41484" lon="4.64218">
        <ele>129</ele>
        <time>29-03-2015T08:04:08Z</time>
      </trkpt>
      <trkpt lat="44.41487" lon="4.64225">
        <ele>128</ele>
        <time>29-03-2015T08:04:09Z</time>
      </trkpt>
      <trkpt lat="44.41494" lon="4.64232">
        <ele>128</ele>
        <time>29-03-2015T08:04:11Z</time>
      </trkpt>
      <trkpt lat="44.415" lon="4.6424">
        <ele>128</ele>
        <time>29-03-2015T08:04:13Z</time>
      </trkpt>
      <trkpt lat="44.41507" lon="4.64244">
        <ele>128</ele>
        <time>29-03-2015T08:04:15Z</time>
      </trkpt>
      <trkpt lat="44.41507" lon="4.64253">
        <ele>128</ele>
        <time>29-03-2015T08:04:17Z</time>
      </trkpt>
      <trkpt lat="44.41502" lon="4.64259">
        <ele>129</ele>
        <time>29-03-2015T08:04:19Z</time>
      </trkpt>
      <trkpt lat="44.41494" lon="4.64266">
        <ele>129</ele>
        <time>29-03-2015T08:04:21Z</time>
      </trkpt>
      <trkpt lat="44.41489" lon="4.64268">
        <ele>129</ele>
        <time>29-03-2015T08:04:22Z</time>
      </trkpt>
      <trkpt lat="44.41483" lon="4.6427">
        <ele>129</ele>
        <time>29-03-2015T08:04:23Z</time>
      </trkpt>
      <trkpt lat="44.41477" lon="4.64273">
        <ele>130</ele>
        <time>29-03-2015T08:04:24Z</time>
      </trkpt>
      <trkpt lat="44.41473" lon="4.64277">
        <ele>130</ele>
        <time>29-03-2015T08:04:25Z</time>
      </trkpt>
      <trkpt lat="44.41467" lon="4.6428">
        <ele>130</ele>
        <time>29-03-2015T08:04:26Z</time>
      </trkpt>
      <trkpt lat="44.4146" lon="4.64288">
        <ele>130</ele>
        <time>29-03-2015T08:04:28Z</time>
      </trkpt>
      <trkpt lat="44.41456" lon="4.64292">
        <ele>131</ele>
        <time>29-03-2015T08:04:29Z</time>
      </trkpt>
      <trkpt lat="44.4145" lon="4.64298">
        <ele>131</ele>
        <time>29-03-2015T08:04:31Z</time>
      </trkpt>
      <trkpt lat="44.41444" lon="4.64305">
        <ele>131</ele>
        <time>29-03-2015T08:04:33Z</time>
      </trkpt>
      <trkpt lat="44.41442" lon="4.64311">
        <ele>132</ele>
        <time>29-03-2015T08:04:35Z</time>
      </trkpt>
      <trkpt lat="44.41434" lon="4.64314">
        <ele>132</ele>
        <time>29-03-2015T08:04:37Z</time>
      </trkpt>
      <trkpt lat="44.41425" lon="4.64317">
        <ele>133</ele>
        <time>29-03-2015T08:04:39Z</time>
      </trkpt>
      <trkpt lat="44.41416" lon="4.64321">
        <ele>133</ele>
        <time>29-03-2015T08:04:41Z</time>
      </trkpt>
      <trkpt lat="44.41407" lon="4.64325">
        <ele>133</ele>
        <time>29-03-2015T08:04:43Z</time>
      </trkpt>
      <trkpt lat="44.41402" lon="4.64329">
        <ele>133</ele>
        <time>29-03-2015T08:04:44Z</time>
      </trkpt>
      <trkpt lat="44.41397" lon="4.64332">
        <ele>133</ele>
        <time>29-03-2015T08:04:45Z</time>
      </trkpt>
      <trkpt lat="44.41392" lon="4.64336">
        <ele>133</ele>
        <time>29-03-2015T08:04:46Z</time>
      </trkpt>
      <trkpt lat="44.41388" lon="4.64341">
        <ele>133</ele>
        <time>29-03-2015T08:04:47Z</time>
      </trkpt>
      <trkpt lat="44.41383" lon="4.64343">
        <ele>133</ele>
        <time>29-03-2015T08:04:48Z</time>
      </trkpt>
      <trkpt lat="44.41379" lon="4.64348">
        <ele>133</ele>
        <time>29-03-2015T08:04:49Z</time>
      </trkpt>
      <trkpt lat="44.41374" lon="4.64351">
        <ele>133</ele>
        <time>29-03-2015T08:04:50Z</time>
      </trkpt>
      <trkpt lat="44.4137" lon="4.64356">
        <ele>133</ele>
        <time>29-03-2015T08:04:51Z</time>
      </trkpt>
      <trkpt lat="44.41366" lon="4.64361">
        <ele>133</ele>
        <time>29-03-2015T08:04:52Z</time>
      </trkpt>
      <trkpt lat="44.4136" lon="4.64366">
        <ele>133</ele>
        <time>29-03-2015T08:04:53Z</time>
      </trkpt>
      <trkpt lat="44.41356" lon="4.64371">
        <ele>133</ele>
        <time>29-03-2015T08:04:54Z</time>
      </trkpt>
      <trkpt lat="44.41354" lon="4.64376">
        <ele>133</ele>
        <time>29-03-2015T08:04:55Z</time>
      </trkpt>
      <trkpt lat="44.41348" lon="4.64378">
        <ele>133</ele>
        <time>29-03-2015T08:04:56Z</time>
      </trkpt>
      <trkpt lat="44.41342" lon="4.64381">
        <ele>133</ele>
        <time>29-03-2015T08:04:57Z</time>
      </trkpt>
      <trkpt lat="44.41336" lon="4.64381">
        <ele>133</ele>
        <time>29-03-2015T08:04:58Z</time>
      </trkpt>
      <trkpt lat="44.41329" lon="4.64379">
        <ele>132</ele>
        <time>29-03-2015T08:05:00Z</time>
      </trkpt>
      <trkpt lat="44.41322" lon="4.64378">
        <ele>132</ele>
        <time>29-03-2015T08:05:02Z</time>
      </trkpt>
      <trkpt lat="44.41317" lon="4.64375">
        <ele>132</ele>
        <time>29-03-2015T08:05:04Z</time>
      </trkpt>
      <trkpt lat="44.4131" lon="4.64372">
        <ele>132</ele>
        <time>29-03-2015T08:05:06Z</time>
      </trkpt>
      <trkpt lat="44.41304" lon="4.64369">
        <ele>132</ele>
        <time>29-03-2015T08:05:08Z</time>
      </trkpt>
      <trkpt lat="44.41296" lon="4.64368">
        <ele>133</ele>
        <time>29-03-2015T08:05:09Z</time>
      </trkpt>
      <trkpt lat="44.4129" lon="4.64368">
        <ele>133</ele>
        <time>29-03-2015T08:05:11Z</time>
      </trkpt>
      <trkpt lat="44.41283" lon="4.64368">
        <ele>133</ele>
        <time>29-03-2015T08:05:13Z</time>
      </trkpt>
      <trkpt lat="44.41279" lon="4.6437">
        <ele>133</ele>
        <time>29-03-2015T08:05:15Z</time>
      </trkpt>
      <trkpt lat="44.41272" lon="4.64368">
        <ele>133</ele>
        <time>29-03-2015T08:05:17Z</time>
      </trkpt>
      <trkpt lat="44.41266" lon="4.64366">
        <ele>135</ele>
        <time>29-03-2015T08:05:20Z</time>
      </trkpt>
      <trkpt lat="44.41262" lon="4.64362">
        <ele>135</ele>
        <time>29-03-2015T08:05:24Z</time>
      </trkpt>
      <trkpt lat="44.41253" lon="4.64363">
        <ele>135</ele>
        <time>29-03-2015T08:05:26Z</time>
      </trkpt>
      <trkpt lat="44.41247" lon="4.64362">
        <ele>136</ele>
        <time>29-03-2015T08:05:29Z</time>
      </trkpt>
      <trkpt lat="44.41244" lon="4.64367">
        <ele>136</ele>
        <time>29-03-2015T08:05:31Z</time>
      </trkpt>
      <trkpt lat="44.41237" lon="4.64368">
        <ele>136</ele>
        <time>29-03-2015T08:05:33Z</time>
      </trkpt>
      <trkpt lat="44.41229" lon="4.64371">
        <ele>138</ele>
        <time>29-03-2015T08:05:35Z</time>
      </trkpt>
      <trkpt lat="44.41222" lon="4.64374">
        <ele>138</ele>
        <time>29-03-2015T08:05:37Z</time>
      </trkpt>
      <trkpt lat="44.41215" lon="4.64375">
        <ele>138</ele>
        <time>29-03-2015T08:05:39Z</time>
      </trkpt>
      <trkpt lat="44.41209" lon="4.64378">
        <ele>138</ele>
        <time>29-03-2015T08:05:42Z</time>
      </trkpt>
      <trkpt lat="44.41203" lon="4.64384">
        <ele>139</ele>
        <time>29-03-2015T08:05:44Z</time>
      </trkpt>
      <trkpt lat="44.41197" lon="4.64385">
        <ele>139</ele>
        <time>29-03-2015T08:05:46Z</time>
      </trkpt>
      <trkpt lat="44.41189" lon="4.64386">
        <ele>139</ele>
        <time>29-03-2015T08:05:48Z</time>
      </trkpt>
      <trkpt lat="44.41184" lon="4.64389">
        <ele>139</ele>
        <time>29-03-2015T08:05:50Z</time>
      </trkpt>
      <trkpt lat="44.41176" lon="4.6439">
        <ele>139</ele>
        <time>29-03-2015T08:05:53Z</time>
      </trkpt>
      <trkpt lat="44.41171" lon="4.64392">
        <ele>140</ele>
        <time>29-03-2015T08:05:55Z</time>
      </trkpt>
      <trkpt lat="44.41166" lon="4.64393">
        <ele>140</ele>
        <time>29-03-2015T08:05:57Z</time>
      </trkpt>
      <trkpt lat="44.41159" lon="4.644">
        <ele>140</ele>
        <time>29-03-2015T08:05:59Z</time>
      </trkpt>
      <trkpt lat="44.41154" lon="4.64407">
        <ele>140</ele>
        <time>29-03-2015T08:06:01Z</time>
      </trkpt>
      <trkpt lat="44.41148" lon="4.64413">
        <ele>140</ele>
        <time>29-03-2015T08:06:03Z</time>
      </trkpt>
      <trkpt lat="44.41143" lon="4.64421">
        <ele>140</ele>
        <time>29-03-2015T08:06:05Z</time>
      </trkpt>
      <trkpt lat="44.41138" lon="4.64426">
        <ele>140</ele>
        <time>29-03-2015T08:06:07Z</time>
      </trkpt>
      <trkpt lat="44.4113" lon="4.64429">
        <ele>140</ele>
        <time>29-03-2015T08:06:09Z</time>
      </trkpt>
      <trkpt lat="44.41124" lon="4.6443">
        <ele>140</ele>
        <time>29-03-2015T08:06:11Z</time>
      </trkpt>
      <trkpt lat="44.41116" lon="4.64433">
        <ele>140</ele>
        <time>29-03-2015T08:06:14Z</time>
      </trkpt>
      <trkpt lat="44.4111" lon="4.64431">
        <ele>140</ele>
        <time>29-03-2015T08:06:16Z</time>
      </trkpt>
      <trkpt lat="44.41105" lon="4.6443">
        <ele>140</ele>
        <time>29-03-2015T08:06:17Z</time>
      </trkpt>
      <trkpt lat="44.41099" lon="4.64431">
        <ele>140</ele>
        <time>29-03-2015T08:06:19Z</time>
      </trkpt>
      <trkpt lat="44.41093" lon="4.64434">
        <ele>140</ele>
        <time>29-03-2015T08:06:22Z</time>
      </trkpt>
      <trkpt lat="44.41087" lon="4.64437">
        <ele>141</ele>
        <time>29-03-2015T08:06:24Z</time>
      </trkpt>
      <trkpt lat="44.41081" lon="4.64438">
        <ele>141</ele>
        <time>29-03-2015T08:06:25Z</time>
      </trkpt>
      <trkpt lat="44.41076" lon="4.64441">
        <ele>141</ele>
        <time>29-03-2015T08:06:26Z</time>
      </trkpt>
      <trkpt lat="44.41067" lon="4.64444">
        <ele>141</ele>
        <time>29-03-2015T08:06:28Z</time>
      </trkpt>
      <trkpt lat="44.41059" lon="4.64447">
        <ele>141</ele>
        <time>29-03-2015T08:06:30Z</time>
      </trkpt>
      <trkpt lat="44.41053" lon="4.64453">
        <ele>141</ele>
        <time>29-03-2015T08:06:32Z</time>
      </trkpt>
      <trkpt lat="44.41048" lon="4.64453">
        <ele>141</ele>
        <time>29-03-2015T08:06:33Z</time>
      </trkpt>
      <trkpt lat="44.41043" lon="4.64451">
        <ele>141</ele>
        <time>29-03-2015T08:06:38Z</time>
      </trkpt>
      <trkpt lat="44.41045" lon="4.64443">
        <ele>142</ele>
        <time>29-03-2015T08:06:40Z</time>
      </trkpt>
      <trkpt lat="44.41047" lon="4.64433">
        <ele>142</ele>
        <time>29-03-2015T08:06:42Z</time>
      </trkpt>
      <trkpt lat="44.4105" lon="4.64426">
        <ele>142</ele>
        <time>29-03-2015T08:06:44Z</time>
      </trkpt>
      <trkpt lat="44.41053" lon="4.64418">
        <ele>142</ele>
        <time>29-03-2015T08:06:46Z</time>
      </trkpt>
      <trkpt lat="44.41055" lon="4.6441">
        <ele>142</ele>
        <time>29-03-2015T08:06:48Z</time>
      </trkpt>
      <trkpt lat="44.4106" lon="4.64402">
        <ele>144</ele>
        <time>29-03-2015T08:06:50Z</time>
      </trkpt>
      <trkpt lat="44.41064" lon="4.64397">
        <ele>144</ele>
        <time>29-03-2015T08:06:52Z</time>
      </trkpt>
      <trkpt lat="44.41063" lon="4.64388">
        <ele>144</ele>
        <time>29-03-2015T08:06:55Z</time>
      </trkpt>
      <trkpt lat="44.41066" lon="4.64383">
        <ele>144</ele>
        <time>29-03-2015T08:06:57Z</time>
      </trkpt>
      <trkpt lat="44.41069" lon="4.64375">
        <ele>147</ele>
        <time>29-03-2015T08:07:00Z</time>
      </trkpt>
      <trkpt lat="44.4107" lon="4.64368">
        <ele>147</ele>
        <time>29-03-2015T08:07:03Z</time>
      </trkpt>
      <trkpt lat="44.41074" lon="4.64363">
        <ele>148</ele>
        <time>29-03-2015T08:07:05Z</time>
      </trkpt>
      <trkpt lat="44.41077" lon="4.64359">
        <ele>148</ele>
        <time>29-03-2015T08:07:07Z</time>
      </trkpt>
      <trkpt lat="44.4108" lon="4.64352">
        <ele>149</ele>
        <time>29-03-2015T08:07:10Z</time>
      </trkpt>
      <trkpt lat="44.41083" lon="4.64347">
        <ele>149</ele>
        <time>29-03-2015T08:07:12Z</time>
      </trkpt>
      <trkpt lat="44.41087" lon="4.64344">
        <ele>150</ele>
        <time>29-03-2015T08:07:14Z</time>
      </trkpt>
      <trkpt lat="44.41091" lon="4.64336">
        <ele>150</ele>
        <time>29-03-2015T08:07:17Z</time>
      </trkpt>
      <trkpt lat="44.41096" lon="4.64332">
        <ele>150</ele>
        <time>29-03-2015T08:07:19Z</time>
      </trkpt>
      <trkpt lat="44.41103" lon="4.64328">
        <ele>150</ele>
        <time>29-03-2015T08:07:22Z</time>
      </trkpt>
      <trkpt lat="44.41106" lon="4.64323">
        <ele>151</ele>
        <time>29-03-2015T08:07:24Z</time>
      </trkpt>
      <trkpt lat="44.41111" lon="4.64319">
        <ele>151</ele>
        <time>29-03-2015T08:07:26Z</time>
      </trkpt>
      <trkpt lat="44.41113" lon="4.64313">
        <ele>151</ele>
        <time>29-03-2015T08:07:28Z</time>
      </trkpt>
      <trkpt lat="44.41114" lon="4.64307">
        <ele>151</ele>
        <time>29-03-2015T08:07:30Z</time>
      </trkpt>
      <trkpt lat="44.41117" lon="4.643">
        <ele>151</ele>
        <time>29-03-2015T08:07:33Z</time>
      </trkpt>
      <trkpt lat="44.41115" lon="4.64292">
        <ele>152</ele>
        <time>29-03-2015T08:07:36Z</time>
      </trkpt>
      <trkpt lat="44.41117" lon="4.64285">
        <ele>154</ele>
        <time>29-03-2015T08:07:40Z</time>
      </trkpt>
      <trkpt lat="44.41112" lon="4.64281">
        <ele>154</ele>
        <time>29-03-2015T08:07:41Z</time>
      </trkpt>
      <trkpt lat="44.41108" lon="4.64276">
        <ele>154</ele>
        <time>29-03-2015T08:07:43Z</time>
      </trkpt>
      <trkpt lat="44.4111" lon="4.64268">
        <ele>154</ele>
        <time>29-03-2015T08:07:47Z</time>
      </trkpt>
      <trkpt lat="44.41109" lon="4.6426">
        <ele>156</ele>
        <time>29-03-2015T08:07:50Z</time>
      </trkpt>
      <trkpt lat="44.41106" lon="4.64253">
        <ele>156</ele>
        <time>29-03-2015T08:07:53Z</time>
      </trkpt>
      <trkpt lat="44.41104" lon="4.64245">
        <ele>157</ele>
        <time>29-03-2015T08:07:56Z</time>
      </trkpt>
      <trkpt lat="44.41101" lon="4.64238">
        <ele>157</ele>
        <time>29-03-2015T08:07:59Z</time>
      </trkpt>
      <trkpt lat="44.41107" lon="4.64233">
        <ele>157</ele>
        <time>29-03-2015T08:08:02Z</time>
      </trkpt>
      <trkpt lat="44.41111" lon="4.64228">
        <ele>159</ele>
        <time>29-03-2015T08:08:06Z</time>
      </trkpt>
      <trkpt lat="44.41115" lon="4.64226">
        <ele>161</ele>
        <time>29-03-2015T08:08:11Z</time>
      </trkpt>
      <trkpt lat="44.41119" lon="4.64223">
        <ele>161</ele>
        <time>29-03-2015T08:08:14Z</time>
      </trkpt>
      <trkpt lat="44.4112" lon="4.64216">
        <ele>161</ele>
        <time>29-03-2015T08:08:16Z</time>
      </trkpt>
      <trkpt lat="44.41124" lon="4.64208">
        <ele>161</ele>
        <time>29-03-2015T08:08:18Z</time>
      </trkpt>
      <trkpt lat="44.41131" lon="4.64203">
        <ele>162</ele>
        <time>29-03-2015T08:08:20Z</time>
      </trkpt>
      <trkpt lat="44.41136" lon="4.64198">
        <ele>162</ele>
        <time>29-03-2015T08:08:22Z</time>
      </trkpt>
      <trkpt lat="44.41139" lon="4.64193">
        <ele>162</ele>
        <time>29-03-2015T08:08:24Z</time>
      </trkpt>
      <trkpt lat="44.41144" lon="4.64188">
        <ele>162</ele>
        <time>29-03-2015T08:08:26Z</time>
      </trkpt>
      <trkpt lat="44.41149" lon="4.64184">
        <ele>162</ele>
        <time>29-03-2015T08:08:28Z</time>
      </trkpt>
      <trkpt lat="44.41153" lon="4.64182">
        <ele>163</ele>
        <time>29-03-2015T08:08:30Z</time>
      </trkpt>
      <trkpt lat="44.41155" lon="4.64176">
        <ele>163</ele>
        <time>29-03-2015T08:08:33Z</time>
      </trkpt>
      <trkpt lat="44.4116" lon="4.64172">
        <ele>164</ele>
        <time>29-03-2015T08:08:36Z</time>
      </trkpt>
      <trkpt lat="44.4116" lon="4.64165">
        <ele>165</ele>
        <time>29-03-2015T08:08:39Z</time>
      </trkpt>
      <trkpt lat="44.41162" lon="4.64158">
        <ele>165</ele>
        <time>29-03-2015T08:08:42Z</time>
      </trkpt>
      <trkpt lat="44.41165" lon="4.64153">
        <ele>166</ele>
        <time>29-03-2015T08:08:45Z</time>
      </trkpt>
      <trkpt lat="44.41168" lon="4.64148">
        <ele>168</ele>
        <time>29-03-2015T08:08:50Z</time>
      </trkpt>
      <trkpt lat="44.41169" lon="4.6414">
        <ele>169</ele>
        <time>29-03-2015T08:08:54Z</time>
      </trkpt>
      <trkpt lat="44.41171" lon="4.64134">
        <ele>169</ele>
        <time>29-03-2015T08:08:57Z</time>
      </trkpt>
      <trkpt lat="44.41175" lon="4.6413">
        <ele>170</ele>
        <time>29-03-2015T08:08:59Z</time>
      </trkpt>
      <trkpt lat="44.41177" lon="4.64124">
        <ele>170</ele>
        <time>29-03-2015T08:09:02Z</time>
      </trkpt>
      <trkpt lat="44.4118" lon="4.64118">
        <ele>172</ele>
        <time>29-03-2015T08:09:05Z</time>
      </trkpt>
      <trkpt lat="44.41184" lon="4.64114">
        <ele>172</ele>
        <time>29-03-2015T08:09:08Z</time>
      </trkpt>
      <trkpt lat="44.41195" lon="4.6411">
        <ele>173</ele>
        <time>29-03-2015T08:09:12Z</time>
      </trkpt>
      <trkpt lat="44.41202" lon="4.64108">
        <ele>173</ele>
        <time>29-03-2015T08:09:14Z</time>
      </trkpt>
      <trkpt lat="44.41209" lon="4.64103">
        <ele>173</ele>
        <time>29-03-2015T08:09:16Z</time>
      </trkpt>
      <trkpt lat="44.41215" lon="4.64098">
        <ele>173</ele>
        <time>29-03-2015T08:09:18Z</time>
      </trkpt>
      <trkpt lat="44.41219" lon="4.64095">
        <ele>172</ele>
        <time>29-03-2015T08:09:19Z</time>
      </trkpt>
      <trkpt lat="44.41223" lon="4.6409">
        <ele>172</ele>
        <time>29-03-2015T08:09:21Z</time>
      </trkpt>
      <trkpt lat="44.41229" lon="4.64087">
        <ele>172</ele>
        <time>29-03-2015T08:09:23Z</time>
      </trkpt>
      <trkpt lat="44.41234" lon="4.64081">
        <ele>172</ele>
        <time>29-03-2015T08:09:26Z</time>
      </trkpt>
      <trkpt lat="44.41239" lon="4.64077">
        <ele>172</ele>
        <time>29-03-2015T08:09:28Z</time>
      </trkpt>
      <trkpt lat="44.41243" lon="4.64071">
        <ele>173</ele>
        <time>29-03-2015T08:09:31Z</time>
      </trkpt>
      <trkpt lat="44.41247" lon="4.64067">
        <ele>173</ele>
        <time>29-03-2015T08:09:33Z</time>
      </trkpt>
      <trkpt lat="44.41251" lon="4.64061">
        <ele>174</ele>
        <time>29-03-2015T08:09:36Z</time>
      </trkpt>
      <trkpt lat="44.41255" lon="4.64055">
        <ele>174</ele>
        <time>29-03-2015T08:09:39Z</time>
      </trkpt>
      <trkpt lat="44.41257" lon="4.64049">
        <ele>174</ele>
        <time>29-03-2015T08:09:42Z</time>
      </trkpt>
      <trkpt lat="44.4126" lon="4.64043">
        <ele>175</ele>
        <time>29-03-2015T08:09:45Z</time>
      </trkpt>
      <trkpt lat="44.41261" lon="4.64036">
        <ele>175</ele>
        <time>29-03-2015T08:09:48Z</time>
      </trkpt>
      <trkpt lat="44.41265" lon="4.64031">
        <ele>176</ele>
        <time>29-03-2015T08:09:51Z</time>
      </trkpt>
      <trkpt lat="44.41266" lon="4.64024">
        <ele>176</ele>
        <time>29-03-2015T08:09:54Z</time>
      </trkpt>
      <trkpt lat="44.41265" lon="4.64018">
        <ele>176</ele>
        <time>29-03-2015T08:09:57Z</time>
      </trkpt>
      <trkpt lat="44.41265" lon="4.6401">
        <ele>179</ele>
        <time>29-03-2015T08:10:00Z</time>
      </trkpt>
      <trkpt lat="44.41268" lon="4.64004">
        <ele>179</ele>
        <time>29-03-2015T08:10:03Z</time>
      </trkpt>
      <trkpt lat="44.4127" lon="4.63997">
        <ele>180</ele>
        <time>29-03-2015T08:10:08Z</time>
      </trkpt>
      <trkpt lat="44.41273" lon="4.63992">
        <ele>181</ele>
        <time>29-03-2015T08:10:11Z</time>
      </trkpt>
      <trkpt lat="44.41274" lon="4.63984">
        <ele>181</ele>
        <time>29-03-2015T08:10:14Z</time>
      </trkpt>
      <trkpt lat="44.41277" lon="4.63977">
        <ele>181</ele>
        <time>29-03-2015T08:10:18Z</time>
      </trkpt>
      <trkpt lat="44.41281" lon="4.63972">
        <ele>183</ele>
        <time>29-03-2015T08:10:21Z</time>
      </trkpt>
      <trkpt lat="44.41284" lon="4.63967">
        <ele>183</ele>
        <time>29-03-2015T08:10:25Z</time>
      </trkpt>
      <trkpt lat="44.41286" lon="4.6396">
        <ele>184</ele>
        <time>29-03-2015T08:10:29Z</time>
      </trkpt>
      <trkpt lat="44.41289" lon="4.63954">
        <ele>184</ele>
        <time>29-03-2015T08:10:32Z</time>
      </trkpt>
      <trkpt lat="44.41294" lon="4.63946">
        <ele>185</ele>
        <time>29-03-2015T08:10:36Z</time>
      </trkpt>
      <trkpt lat="44.41298" lon="4.63944">
        <ele>185</ele>
        <time>29-03-2015T08:10:38Z</time>
      </trkpt>
      <trkpt lat="44.41302" lon="4.63941">
        <ele>186</ele>
        <time>29-03-2015T08:10:41Z</time>
      </trkpt>
      <trkpt lat="44.41309" lon="4.63935">
        <ele>186</ele>
        <time>29-03-2015T08:10:45Z</time>
      </trkpt>
      <trkpt lat="44.41313" lon="4.63929">
        <ele>186</ele>
        <time>29-03-2015T08:10:48Z</time>
      </trkpt>
      <trkpt lat="44.41318" lon="4.63925">
        <ele>187</ele>
        <time>29-03-2015T08:10:50Z</time>
      </trkpt>
      <trkpt lat="44.41323" lon="4.63922">
        <ele>187</ele>
        <time>29-03-2015T08:10:53Z</time>
      </trkpt>
      <trkpt lat="44.41329" lon="4.63917">
        <ele>187</ele>
        <time>29-03-2015T08:10:55Z</time>
      </trkpt>
      <trkpt lat="44.41334" lon="4.63915">
        <ele>187</ele>
        <time>29-03-2015T08:10:56Z</time>
      </trkpt>
      <trkpt lat="44.41339" lon="4.63913">
        <ele>187</ele>
        <time>29-03-2015T08:10:57Z</time>
      </trkpt>
      <trkpt lat="44.41348" lon="4.63912">
        <ele>187</ele>
        <time>29-03-2015T08:10:59Z</time>
      </trkpt>
      <trkpt lat="44.41354" lon="4.6391">
        <ele>187</ele>
        <time>29-03-2015T08:11:00Z</time>
      </trkpt>
      <trkpt lat="44.41358" lon="4.63906">
        <ele>187</ele>
        <time>29-03-2015T08:11:01Z</time>
      </trkpt>
      <trkpt lat="44.41362" lon="4.63899">
        <ele>187</ele>
        <time>29-03-2015T08:11:02Z</time>
      </trkpt>
      <trkpt lat="44.41366" lon="4.63895">
        <ele>187</ele>
        <time>29-03-2015T08:11:03Z</time>
      </trkpt>
      <trkpt lat="44.41371" lon="4.63885">
        <ele>190</ele>
        <time>29-03-2015T08:11:05Z</time>
      </trkpt>
      <trkpt lat="44.41372" lon="4.63878">
        <ele>190</ele>
        <time>29-03-2015T08:11:07Z</time>
      </trkpt>
      <trkpt lat="44.41375" lon="4.6387">
        <ele>194</ele>
        <time>29-03-2015T08:11:09Z</time>
      </trkpt>
      <trkpt lat="44.41378" lon="4.63862">
        <ele>194</ele>
        <time>29-03-2015T08:11:11Z</time>
      </trkpt>
      <trkpt lat="44.41382" lon="4.63858">
        <ele>194</ele>
        <time>29-03-2015T08:11:12Z</time>
      </trkpt>
      <trkpt lat="44.41385" lon="4.63848">
        <ele>195</ele>
        <time>29-03-2015T08:11:15Z</time>
      </trkpt>
      <trkpt lat="44.41388" lon="4.63843">
        <ele>195</ele>
        <time>29-03-2015T08:11:17Z</time>
      </trkpt>
      <trkpt lat="44.41393" lon="4.63838">
        <ele>196</ele>
        <time>29-03-2015T08:11:19Z</time>
      </trkpt>
      <trkpt lat="44.41394" lon="4.63832">
        <ele>196</ele>
        <time>29-03-2015T08:11:21Z</time>
      </trkpt>
      <trkpt lat="44.41397" lon="4.63825">
        <ele>197</ele>
        <time>29-03-2015T08:11:24Z</time>
      </trkpt>
      <trkpt lat="44.41401" lon="4.6382">
        <ele>197</ele>
        <time>29-03-2015T08:11:27Z</time>
      </trkpt>
      <trkpt lat="44.41405" lon="4.63814">
        <ele>198</ele>
        <time>29-03-2015T08:11:30Z</time>
      </trkpt>
      <trkpt lat="44.4141" lon="4.6381">
        <ele>198</ele>
        <time>29-03-2015T08:11:33Z</time>
      </trkpt>
      <trkpt lat="44.41413" lon="4.63806">
        <ele>198</ele>
        <time>29-03-2015T08:11:35Z</time>
      </trkpt>
      <trkpt lat="44.41409" lon="4.63798">
        <ele>198</ele>
        <time>29-03-2015T08:11:38Z</time>
      </trkpt>
      <trkpt lat="44.41404" lon="4.63793">
        <ele>198</ele>
        <time>29-03-2015T08:11:40Z</time>
      </trkpt>
      <trkpt lat="44.41398" lon="4.63785">
        <ele>198</ele>
        <time>29-03-2015T08:11:42Z</time>
      </trkpt>
      <trkpt lat="44.41398" lon="4.63778">
        <ele>198</ele>
        <time>29-03-2015T08:11:44Z</time>
      </trkpt>
      <trkpt lat="44.41399" lon="4.6377">
        <ele>198</ele>
        <time>29-03-2015T08:11:46Z</time>
      </trkpt>
      <trkpt lat="44.41396" lon="4.63762">
        <ele>198</ele>
        <time>29-03-2015T08:11:48Z</time>
      </trkpt>
      <trkpt lat="44.414" lon="4.63755">
        <ele>199</ele>
        <time>29-03-2015T08:11:51Z</time>
      </trkpt>
      <trkpt lat="44.41405" lon="4.63751">
        <ele>199</ele>
        <time>29-03-2015T08:11:53Z</time>
      </trkpt>
      <trkpt lat="44.4141" lon="4.63748">
        <ele>198</ele>
        <time>29-03-2015T08:11:55Z</time>
      </trkpt>
      <trkpt lat="44.41416" lon="4.63749">
        <ele>198</ele>
        <time>29-03-2015T08:11:56Z</time>
      </trkpt>
      <trkpt lat="44.41424" lon="4.63748">
        <ele>198</ele>
        <time>29-03-2015T08:11:58Z</time>
      </trkpt>
      <trkpt lat="44.41429" lon="4.63745">
        <ele>196</ele>
        <time>29-03-2015T08:11:59Z</time>
      </trkpt>
      <trkpt lat="44.41438" lon="4.63742">
        <ele>196</ele>
        <time>29-03-2015T08:12:01Z</time>
      </trkpt>
      <trkpt lat="44.41444" lon="4.63742">
        <ele>196</ele>
        <time>29-03-2015T08:12:02Z</time>
      </trkpt>
      <trkpt lat="44.41452" lon="4.63741">
        <ele>192</ele>
        <time>29-03-2015T08:12:04Z</time>
      </trkpt>
      <trkpt lat="44.41458" lon="4.63739">
        <ele>192</ele>
        <time>29-03-2015T08:12:05Z</time>
      </trkpt>
      <trkpt lat="44.41463" lon="4.63737">
        <ele>192</ele>
        <time>29-03-2015T08:12:06Z</time>
      </trkpt>
      <trkpt lat="44.41472" lon="4.63733">
        <ele>192</ele>
        <time>29-03-2015T08:12:08Z</time>
      </trkpt>
      <trkpt lat="44.41476" lon="4.6373">
        <ele>188</ele>
        <time>29-03-2015T08:12:09Z</time>
      </trkpt>
      <trkpt lat="44.41486" lon="4.63725">
        <ele>188</ele>
        <time>29-03-2015T08:12:11Z</time>
      </trkpt>
      <trkpt lat="44.41492" lon="4.63725">
        <ele>188</ele>
        <time>29-03-2015T08:12:12Z</time>
      </trkpt>
      <trkpt lat="44.41504" lon="4.63716">
        <ele>185</ele>
        <time>29-03-2015T08:12:14Z</time>
      </trkpt>
      <trkpt lat="44.41507" lon="4.63708">
        <ele>185</ele>
        <time>29-03-2015T08:12:16Z</time>
      </trkpt>
      <trkpt lat="44.41515" lon="4.63704">
        <ele>185</ele>
        <time>29-03-2015T08:12:17Z</time>
      </trkpt>
      <trkpt lat="44.41523" lon="4.63696">
        <ele>177</ele>
        <time>29-03-2015T08:12:19Z</time>
      </trkpt>
      <trkpt lat="44.41526" lon="4.63691">
        <ele>177</ele>
        <time>29-03-2015T08:12:21Z</time>
      </trkpt>
      <trkpt lat="44.41533" lon="4.63684">
        <ele>177</ele>
        <time>29-03-2015T08:12:23Z</time>
      </trkpt>
      <trkpt lat="44.4154" lon="4.63678">
        <ele>176</ele>
        <time>29-03-2015T08:12:25Z</time>
      </trkpt>
      <trkpt lat="44.41545" lon="4.63677">
        <ele>176</ele>
        <time>29-03-2015T08:12:26Z</time>
      </trkpt>
      <trkpt lat="44.4155" lon="4.63674">
        <ele>176</ele>
        <time>29-03-2015T08:12:27Z</time>
      </trkpt>
      <trkpt lat="44.41554" lon="4.6367">
        <ele>176</ele>
        <time>29-03-2015T08:12:28Z</time>
      </trkpt>
      <trkpt lat="44.41563" lon="4.63664">
        <ele>173</ele>
        <time>29-03-2015T08:12:30Z</time>
      </trkpt>
      <trkpt lat="44.41569" lon="4.63659">
        <ele>173</ele>
        <time>29-03-2015T08:12:32Z</time>
      </trkpt>
      <trkpt lat="44.41573" lon="4.63652">
        <ele>174</ele>
        <time>29-03-2015T08:12:34Z</time>
      </trkpt>
      <trkpt lat="44.41577" lon="4.63647">
        <ele>174</ele>
        <time>29-03-2015T08:12:36Z</time>
      </trkpt>
      <trkpt lat="44.41584" lon="4.63643">
        <ele>173</ele>
        <time>29-03-2015T08:12:39Z</time>
      </trkpt>
      <trkpt lat="44.41589" lon="4.63636">
        <ele>173</ele>
        <time>29-03-2015T08:12:41Z</time>
      </trkpt>
      <trkpt lat="44.41593" lon="4.63631">
        <ele>173</ele>
        <time>29-03-2015T08:12:43Z</time>
      </trkpt>
      <trkpt lat="44.41598" lon="4.63626">
        <ele>173</ele>
        <time>29-03-2015T08:12:45Z</time>
      </trkpt>
      <trkpt lat="44.41602" lon="4.63622">
        <ele>173</ele>
        <time>29-03-2015T08:12:47Z</time>
      </trkpt>
      <trkpt lat="44.41606" lon="4.63618">
        <ele>173</ele>
        <time>29-03-2015T08:12:49Z</time>
      </trkpt>
      <trkpt lat="44.41611" lon="4.63618">
        <ele>173</ele>
        <time>29-03-2015T08:12:54Z</time>
      </trkpt>
      <trkpt lat="44.41618" lon="4.63615">
        <ele>173</ele>
        <time>29-03-2015T08:12:57Z</time>
      </trkpt>
      <trkpt lat="44.41623" lon="4.6361">
        <ele>173</ele>
        <time>29-03-2015T08:12:59Z</time>
      </trkpt>
      <trkpt lat="44.41629" lon="4.63606">
        <ele>173</ele>
        <time>29-03-2015T08:13:02Z</time>
      </trkpt>
      <trkpt lat="44.41635" lon="4.63604">
        <ele>172</ele>
        <time>29-03-2015T08:13:04Z</time>
      </trkpt>
      <trkpt lat="44.41642" lon="4.63603">
        <ele>172</ele>
        <time>29-03-2015T08:13:05Z</time>
      </trkpt>
      <trkpt lat="44.41646" lon="4.63599">
        <ele>172</ele>
        <time>29-03-2015T08:13:07Z</time>
      </trkpt>
      <trkpt lat="44.41651" lon="4.63595">
        <ele>171</ele>
        <time>29-03-2015T08:13:09Z</time>
      </trkpt>
      <trkpt lat="44.41657" lon="4.63592">
        <ele>171</ele>
        <time>29-03-2015T08:13:11Z</time>
      </trkpt>
      <trkpt lat="44.41662" lon="4.6359">
        <ele>171</ele>
        <time>29-03-2015T08:13:13Z</time>
      </trkpt>
      <trkpt lat="44.41667" lon="4.63588">
        <ele>169</ele>
        <time>29-03-2015T08:13:15Z</time>
      </trkpt>
      <trkpt lat="44.41674" lon="4.63588">
        <ele>169</ele>
        <time>29-03-2015T08:13:16Z</time>
      </trkpt>
      <trkpt lat="44.4168" lon="4.63586">
        <ele>169</ele>
        <time>29-03-2015T08:13:18Z</time>
      </trkpt>
      <trkpt lat="44.41685" lon="4.63587">
        <ele>166</ele>
        <time>29-03-2015T08:13:21Z</time>
      </trkpt>
      <trkpt lat="44.41693" lon="4.63589">
        <ele>164</ele>
        <time>29-03-2015T08:13:24Z</time>
      </trkpt>
      <trkpt lat="44.41698" lon="4.63586">
        <ele>164</ele>
        <time>29-03-2015T08:13:28Z</time>
      </trkpt>
      <trkpt lat="44.41697" lon="4.63586">
        <ele>163</ele>
        <time>29-03-2015T08:13:33Z</time>
      </trkpt>
      <trkpt lat="44.41699" lon="4.63579">
        <ele>163</ele>
        <time>29-03-2015T08:13:37Z</time>
      </trkpt>
      <trkpt lat="44.41709" lon="4.63578">
        <ele>160</ele>
        <time>29-03-2015T08:13:39Z</time>
      </trkpt>
      <trkpt lat="44.41714" lon="4.63578">
        <ele>160</ele>
        <time>29-03-2015T08:13:40Z</time>
      </trkpt>
      <trkpt lat="44.41723" lon="4.63577">
        <ele>160</ele>
        <time>29-03-2015T08:13:43Z</time>
      </trkpt>
      <trkpt lat="44.41728" lon="4.63577">
        <ele>159</ele>
        <time>29-03-2015T08:13:45Z</time>
      </trkpt>
      <trkpt lat="44.41733" lon="4.63577">
        <ele>159</ele>
        <time>29-03-2015T08:13:46Z</time>
      </trkpt>
      <trkpt lat="44.41743" lon="4.63573">
        <ele>156</ele>
        <time>29-03-2015T08:13:51Z</time>
      </trkpt>
      <trkpt lat="44.41746" lon="4.63565">
        <ele>156</ele>
        <time>29-03-2015T08:13:53Z</time>
      </trkpt>
      <trkpt lat="44.41753" lon="4.63563">
        <ele>155</ele>
        <time>29-03-2015T08:13:58Z</time>
      </trkpt>
      <trkpt lat="44.41759" lon="4.63563">
        <ele>152</ele>
        <time>29-03-2015T08:13:59Z</time>
      </trkpt>
      <trkpt lat="44.41765" lon="4.63562">
        <ele>152</ele>
        <time>29-03-2015T08:14:01Z</time>
      </trkpt>
      <trkpt lat="44.41772" lon="4.63557">
        <ele>149</ele>
        <time>29-03-2015T08:14:04Z</time>
      </trkpt>
      <trkpt lat="44.41778" lon="4.63553">
        <ele>149</ele>
        <time>29-03-2015T08:14:07Z</time>
      </trkpt>
      <trkpt lat="44.41784" lon="4.63552">
        <ele>148</ele>
        <time>29-03-2015T08:14:09Z</time>
      </trkpt>
      <trkpt lat="44.41793" lon="4.63553">
        <ele>148</ele>
        <time>29-03-2015T08:14:12Z</time>
      </trkpt>
      <trkpt lat="44.41797" lon="4.63551">
        <ele>147</ele>
        <time>29-03-2015T08:14:14Z</time>
      </trkpt>
      <trkpt lat="44.41805" lon="4.63549">
        <ele>147</ele>
        <time>29-03-2015T08:14:16Z</time>
      </trkpt>
      <trkpt lat="44.41812" lon="4.63548">
        <ele>143</ele>
        <time>29-03-2015T08:14:19Z</time>
      </trkpt>
      <trkpt lat="44.4182" lon="4.63552">
        <ele>143</ele>
        <time>29-03-2015T08:14:21Z</time>
      </trkpt>
      <trkpt lat="44.41826" lon="4.63549">
        <ele>142</ele>
        <time>29-03-2015T08:14:24Z</time>
      </trkpt>
      <trkpt lat="44.41831" lon="4.63549">
        <ele>142</ele>
        <time>29-03-2015T08:14:26Z</time>
      </trkpt>
      <trkpt lat="44.41841" lon="4.63547">
        <ele>139</ele>
        <time>29-03-2015T08:14:29Z</time>
      </trkpt>
      <trkpt lat="44.41846" lon="4.63547">
        <ele>139</ele>
        <time>29-03-2015T08:14:31Z</time>
      </trkpt>
      <trkpt lat="44.41851" lon="4.63547">
        <ele>139</ele>
        <time>29-03-2015T08:14:32Z</time>
      </trkpt>
      <trkpt lat="44.41856" lon="4.63548">
        <ele>139</ele>
        <time>29-03-2015T08:14:33Z</time>
      </trkpt>
      <trkpt lat="44.41864" lon="4.63549">
        <ele>134</ele>
        <time>29-03-2015T08:14:34Z</time>
      </trkpt>
      <trkpt lat="44.41869" lon="4.6355">
        <ele>134</ele>
        <time>29-03-2015T08:14:35Z</time>
      </trkpt>
      <trkpt lat="44.41877" lon="4.6355">
        <ele>134</ele>
        <time>29-03-2015T08:14:36Z</time>
      </trkpt>
      <trkpt lat="44.41887" lon="4.63546">
        <ele>134</ele>
        <time>29-03-2015T08:14:38Z</time>
      </trkpt>
      <trkpt lat="44.41895" lon="4.63544">
        <ele>129</ele>
        <time>29-03-2015T08:14:39Z</time>
      </trkpt>
      <trkpt lat="44.41901" lon="4.63541">
        <ele>129</ele>
        <time>29-03-2015T08:14:41Z</time>
      </trkpt>
      <trkpt lat="44.41906" lon="4.63543">
        <ele>129</ele>
        <time>29-03-2015T08:14:42Z</time>
      </trkpt>
      <trkpt lat="44.41914" lon="4.63543">
        <ele>129</ele>
        <time>29-03-2015T08:14:43Z</time>
      </trkpt>
      <trkpt lat="44.41922" lon="4.63543">
        <ele>125</ele>
        <time>29-03-2015T08:14:44Z</time>
      </trkpt>
      <trkpt lat="44.41929" lon="4.63545">
        <ele>125</ele>
        <time>29-03-2015T08:14:46Z</time>
      </trkpt>
      <trkpt lat="44.41934" lon="4.63545">
        <ele>125</ele>
        <time>29-03-2015T08:14:48Z</time>
      </trkpt>
      <trkpt lat="44.41943" lon="4.63545">
        <ele>121</ele>
        <time>29-03-2015T08:14:51Z</time>
      </trkpt>
      <trkpt lat="44.41938" lon="4.63536">
        <ele>120</ele>
        <time>29-03-2015T08:14:54Z</time>
      </trkpt>
      <trkpt lat="44.41941" lon="4.63531">
        <ele>120</ele>
        <time>29-03-2015T08:14:56Z</time>
      </trkpt>
      <trkpt lat="44.41935" lon="4.63528">
        <ele>120</ele>
        <time>29-03-2015T08:14:57Z</time>
      </trkpt>
      <trkpt lat="44.41924" lon="4.63519">
        <ele>120</ele>
        <time>29-03-2015T08:14:59Z</time>
      </trkpt>
      <trkpt lat="44.41914" lon="4.63512">
        <ele>120</ele>
        <time>29-03-2015T08:15:01Z</time>
      </trkpt>
      <trkpt lat="44.41907" lon="4.63506">
        <ele>120</ele>
        <time>29-03-2015T08:15:03Z</time>
      </trkpt>
      <trkpt lat="44.41899" lon="4.63502">
        <ele>118</ele>
        <time>29-03-2015T08:15:04Z</time>
      </trkpt>
      <trkpt lat="44.41896" lon="4.63498">
        <ele>118</ele>
        <time>29-03-2015T08:15:05Z</time>
      </trkpt>
      <trkpt lat="44.41887" lon="4.63494">
        <ele>118</ele>
        <time>29-03-2015T08:15:06Z</time>
      </trkpt>
      <trkpt lat="44.41875" lon="4.63487">
        <ele>118</ele>
        <time>29-03-2015T08:15:08Z</time>
      </trkpt>
      <trkpt lat="44.41868" lon="4.63483">
        <ele>116</ele>
        <time>29-03-2015T08:15:09Z</time>
      </trkpt>
      <trkpt lat="44.41863" lon="4.63478">
        <ele>116</ele>
        <time>29-03-2015T08:15:10Z</time>
      </trkpt>
      <trkpt lat="44.41856" lon="4.63474">
        <ele>116</ele>
        <time>29-03-2015T08:15:11Z</time>
      </trkpt>
      <trkpt lat="44.41846" lon="4.63474">
        <ele>116</ele>
        <time>29-03-2015T08:15:13Z</time>
      </trkpt>
      <trkpt lat="44.41836" lon="4.63473">
        <ele>116</ele>
        <time>29-03-2015T08:15:15Z</time>
      </trkpt>
      <trkpt lat="44.41832" lon="4.63473">
        <ele>116</ele>
        <time>29-03-2015T08:15:17Z</time>
      </trkpt>
      <trkpt lat="44.41826" lon="4.63474">
        <ele>116</ele>
        <time>29-03-2015T08:15:18Z</time>
      </trkpt>
      <trkpt lat="44.41817" lon="4.63475">
        <ele>117</ele>
        <time>29-03-2015T08:15:20Z</time>
      </trkpt>
      <trkpt lat="44.4181" lon="4.63475">
        <ele>117</ele>
        <time>29-03-2015T08:15:22Z</time>
      </trkpt>
      <trkpt lat="44.41803" lon="4.63477">
        <ele>118</ele>
        <time>29-03-2015T08:15:25Z</time>
      </trkpt>
      <trkpt lat="44.41797" lon="4.63476">
        <ele>118</ele>
        <time>29-03-2015T08:15:27Z</time>
      </trkpt>
      <trkpt lat="44.41793" lon="4.63478">
        <ele>118</ele>
        <time>29-03-2015T08:15:29Z</time>
      </trkpt>
      <trkpt lat="44.41788" lon="4.63477">
        <ele>118</ele>
        <time>29-03-2015T08:15:31Z</time>
      </trkpt>
      <trkpt lat="44.41783" lon="4.6348">
        <ele>118</ele>
        <time>29-03-2015T08:15:33Z</time>
      </trkpt>
      <trkpt lat="44.41778" lon="4.63482">
        <ele>121</ele>
        <time>29-03-2015T08:15:34Z</time>
      </trkpt>
      <trkpt lat="44.41772" lon="4.63483">
        <ele>121</ele>
        <time>29-03-2015T08:15:36Z</time>
      </trkpt>
      <trkpt lat="44.41771" lon="4.63485">
        <ele>123</ele>
        <time>29-03-2015T08:15:41Z</time>
      </trkpt>
      <trkpt lat="44.4177" lon="4.63485">
        <ele>123</ele>
        <time>29-03-2015T08:15:46Z</time>
      </trkpt>
      <trkpt lat="44.41768" lon="4.63486">
        <ele>123</ele>
        <time>29-03-2015T08:15:51Z</time>
      </trkpt>
      <trkpt lat="44.41763" lon="4.63487">
        <ele>123</ele>
        <time>29-03-2015T08:15:55Z</time>
      </trkpt>
      <trkpt lat="44.41757" lon="4.63487">
        <ele>123</ele>
        <time>29-03-2015T08:15:56Z</time>
      </trkpt>
      <trkpt lat="44.4175" lon="4.63487">
        <ele>123</ele>
        <time>29-03-2015T08:15:58Z</time>
      </trkpt>
      <trkpt lat="44.41745" lon="4.63489">
        <ele>125</ele>
        <time>29-03-2015T08:16:00Z</time>
      </trkpt>
      <trkpt lat="44.4174" lon="4.63487">
        <ele>126</ele>
        <time>29-03-2015T08:16:05Z</time>
      </trkpt>
      <trkpt lat="44.41735" lon="4.6349">
        <ele>126</ele>
        <time>29-03-2015T08:16:07Z</time>
      </trkpt>
      <trkpt lat="44.41728" lon="4.63492">
        <ele>127</ele>
        <time>29-03-2015T08:16:09Z</time>
      </trkpt>
      <trkpt lat="44.41722" lon="4.63493">
        <ele>127</ele>
        <time>29-03-2015T08:16:11Z</time>
      </trkpt>
      <trkpt lat="44.41716" lon="4.63493">
        <ele>127</ele>
        <time>29-03-2015T08:16:13Z</time>
      </trkpt>
      <trkpt lat="44.4171" lon="4.63491">
        <ele>127</ele>
        <time>29-03-2015T08:16:15Z</time>
      </trkpt>
      <trkpt lat="44.41705" lon="4.63491">
        <ele>127</ele>
        <time>29-03-2015T08:16:17Z</time>
      </trkpt>
      <trkpt lat="44.41699" lon="4.63492">
        <ele>129</ele>
        <time>29-03-2015T08:16:21Z</time>
      </trkpt>
      <trkpt lat="44.41693" lon="4.63493">
        <ele>129</ele>
        <time>29-03-2015T08:16:24Z</time>
      </trkpt>
      <trkpt lat="44.41693" lon="4.63493">
        <ele>130</ele>
        <time>29-03-2015T08:16:29Z</time>
      </trkpt>
      <trkpt lat="44.41693" lon="4.63494">
        <ele>130</ele>
        <time>29-03-2015T08:16:34Z</time>
      </trkpt>
      <trkpt lat="44.41693" lon="4.63494">
        <ele>130</ele>
        <time>29-03-2015T08:16:39Z</time>
      </trkpt>
      <trkpt lat="44.41693" lon="4.63494">
        <ele>130</ele>
        <time>29-03-2015T08:16:44Z</time>
      </trkpt>
      <trkpt lat="44.4169" lon="4.63498">
        <ele>130</ele>
        <time>29-03-2015T08:16:49Z</time>
      </trkpt>
      <trkpt lat="44.41683" lon="4.63501">
        <ele>130</ele>
        <time>29-03-2015T08:16:52Z</time>
      </trkpt>
      <trkpt lat="44.41679" lon="4.63504">
        <ele>133</ele>
        <time>29-03-2015T08:16:57Z</time>
      </trkpt>
      <trkpt lat="44.41672" lon="4.63504">
        <ele>133</ele>
        <time>29-03-2015T08:17:00Z</time>
      </trkpt>
      <trkpt lat="44.41665" lon="4.63506">
        <ele>134</ele>
        <time>29-03-2015T08:17:04Z</time>
      </trkpt>
      <trkpt lat="44.41659" lon="4.63504">
        <ele>134</ele>
        <time>29-03-2015T08:17:06Z</time>
      </trkpt>
      <trkpt lat="44.41651" lon="4.63507">
        <ele>135</ele>
        <time>29-03-2015T08:17:10Z</time>
      </trkpt>
      <trkpt lat="44.41645" lon="4.63509">
        <ele>135</ele>
        <time>29-03-2015T08:17:13Z</time>
      </trkpt>
      <trkpt lat="44.4164" lon="4.6351">
        <ele>135</ele>
        <time>29-03-2015T08:17:15Z</time>
      </trkpt>
      <trkpt lat="44.41637" lon="4.63512">
        <ele>137</ele>
        <time>29-03-2015T08:17:20Z</time>
      </trkpt>
      <trkpt lat="44.41638" lon="4.63515">
        <ele>137</ele>
        <time>29-03-2015T08:17:25Z</time>
      </trkpt>
      <trkpt lat="44.41632" lon="4.63515">
        <ele>137</ele>
        <time>29-03-2015T08:17:28Z</time>
      </trkpt>
      <trkpt lat="44.41629" lon="4.6351">
        <ele>138</ele>
        <time>29-03-2015T08:17:32Z</time>
      </trkpt>
      <trkpt lat="44.41623" lon="4.6351">
        <ele>138</ele>
        <time>29-03-2015T08:17:35Z</time>
      </trkpt>
      <trkpt lat="44.41619" lon="4.63504">
        <ele>138</ele>
        <time>29-03-2015T08:17:38Z</time>
      </trkpt>
      <trkpt lat="44.41618" lon="4.63495">
        <ele>137</ele>
        <time>29-03-2015T08:17:41Z</time>
      </trkpt>
      <trkpt lat="44.41612" lon="4.63491">
        <ele>137</ele>
        <time>29-03-2015T08:17:43Z</time>
      </trkpt>
      <trkpt lat="44.41606" lon="4.63488">
        <ele>135</ele>
        <time>29-03-2015T08:17:45Z</time>
      </trkpt>
      <trkpt lat="44.41598" lon="4.63491">
        <ele>135</ele>
        <time>29-03-2015T08:17:47Z</time>
      </trkpt>
      <trkpt lat="44.41591" lon="4.63492">
        <ele>134</ele>
        <time>29-03-2015T08:17:49Z</time>
      </trkpt>
      <trkpt lat="44.41583" lon="4.63492">
        <ele>134</ele>
        <time>29-03-2015T08:17:51Z</time>
      </trkpt>
      <trkpt lat="44.41578" lon="4.6349">
        <ele>134</ele>
        <time>29-03-2015T08:17:52Z</time>
      </trkpt>
      <trkpt lat="44.41569" lon="4.63489">
        <ele>134</ele>
        <time>29-03-2015T08:17:54Z</time>
      </trkpt>
      <trkpt lat="44.41559" lon="4.63493">
        <ele>134</ele>
        <time>29-03-2015T08:17:56Z</time>
      </trkpt>
      <trkpt lat="44.41547" lon="4.63496">
        <ele>134</ele>
        <time>29-03-2015T08:17:58Z</time>
      </trkpt>
      <trkpt lat="44.4153" lon="4.63493">
        <ele>132</ele>
        <time>29-03-2015T08:18:00Z</time>
      </trkpt>
      <trkpt lat="44.41522" lon="4.63489">
        <ele>132</ele>
        <time>29-03-2015T08:18:02Z</time>
      </trkpt>
      <trkpt lat="44.41518" lon="4.63485">
        <ele>128</ele>
        <time>29-03-2015T08:18:06Z</time>
      </trkpt>
      <trkpt lat="44.41508" lon="4.63484">
        <ele>128</ele>
        <time>29-03-2015T08:18:09Z</time>
      </trkpt>
      <trkpt lat="44.41497" lon="4.63487">
        <ele>128</ele>
        <time>29-03-2015T08:18:11Z</time>
      </trkpt>
      <trkpt lat="44.41489" lon="4.63493">
        <ele>128</ele>
        <time>29-03-2015T08:18:13Z</time>
      </trkpt>
      <trkpt lat="44.41483" lon="4.63496">
        <ele>128</ele>
        <time>29-03-2015T08:18:15Z</time>
      </trkpt>
      <trkpt lat="44.41478" lon="4.63495">
        <ele>128</ele>
        <time>29-03-2015T08:18:17Z</time>
      </trkpt>
      <trkpt lat="44.41473" lon="4.6349">
        <ele>129</ele>
        <time>29-03-2015T08:18:20Z</time>
      </trkpt>
      <trkpt lat="44.41467" lon="4.63487">
        <ele>129</ele>
        <time>29-03-2015T08:18:22Z</time>
      </trkpt>
      <trkpt lat="44.41462" lon="4.63482">
        <ele>128</ele>
        <time>29-03-2015T08:18:24Z</time>
      </trkpt>
      <trkpt lat="44.41463" lon="4.63475">
        <ele>128</ele>
        <time>29-03-2015T08:18:26Z</time>
      </trkpt>
      <trkpt lat="44.41464" lon="4.63467">
        <ele>128</ele>
        <time>29-03-2015T08:18:28Z</time>
      </trkpt>
      <trkpt lat="44.41461" lon="4.6346">
        <ele>126</ele>
        <time>29-03-2015T08:18:29Z</time>
      </trkpt>
      <trkpt lat="44.41462" lon="4.63454">
        <ele>126</ele>
        <time>29-03-2015T08:18:30Z</time>
      </trkpt>
      <trkpt lat="44.41459" lon="4.63446">
        <ele>126</ele>
        <time>29-03-2015T08:18:31Z</time>
      </trkpt>
      <trkpt lat="44.41458" lon="4.63438">
        <ele>126</ele>
        <time>29-03-2015T08:18:32Z</time>
      </trkpt>
      <trkpt lat="44.41454" lon="4.63427">
        <ele>126</ele>
        <time>29-03-2015T08:18:33Z</time>
      </trkpt>
      <trkpt lat="44.41452" lon="4.6342">
        <ele>123</ele>
        <time>29-03-2015T08:18:34Z</time>
      </trkpt>
      <trkpt lat="44.4145" lon="4.63413">
        <ele>123</ele>
        <time>29-03-2015T08:18:35Z</time>
      </trkpt>
      <trkpt lat="44.41447" lon="4.63406">
        <ele>123</ele>
        <time>29-03-2015T08:18:36Z</time>
      </trkpt>
      <trkpt lat="44.41441" lon="4.63393">
        <ele>123</ele>
        <time>29-03-2015T08:18:38Z</time>
      </trkpt>
      <trkpt lat="44.41439" lon="4.63387">
        <ele>119</ele>
        <time>29-03-2015T08:18:39Z</time>
      </trkpt>
      <trkpt lat="44.41432" lon="4.63378">
        <ele>119</ele>
        <time>29-03-2015T08:18:40Z</time>
      </trkpt>
      <trkpt lat="44.41432" lon="4.63371">
        <ele>119</ele>
        <time>29-03-2015T08:18:41Z</time>
      </trkpt>
      <trkpt lat="44.41429" lon="4.6335">
        <ele>118</ele>
        <time>29-03-2015T08:18:44Z</time>
      </trkpt>
      <trkpt lat="44.41426" lon="4.63341">
        <ele>118</ele>
        <time>29-03-2015T08:18:45Z</time>
      </trkpt>
      <trkpt lat="44.41428" lon="4.63333">
        <ele>118</ele>
        <time>29-03-2015T08:18:46Z</time>
      </trkpt>
      <trkpt lat="44.41424" lon="4.63325">
        <ele>118</ele>
        <time>29-03-2015T08:18:47Z</time>
      </trkpt>
      <trkpt lat="44.41424" lon="4.63318">
        <ele>118</ele>
        <time>29-03-2015T08:18:48Z</time>
      </trkpt>
      <trkpt lat="44.41419" lon="4.63311">
        <ele>116</ele>
        <time>29-03-2015T08:18:49Z</time>
      </trkpt>
      <trkpt lat="44.41417" lon="4.633">
        <ele>116</ele>
        <time>29-03-2015T08:18:51Z</time>
      </trkpt>
      <trkpt lat="44.41416" lon="4.63289">
        <ele>116</ele>
        <time>29-03-2015T08:18:53Z</time>
      </trkpt>
      <trkpt lat="44.41413" lon="4.63282">
        <ele>116</ele>
        <time>29-03-2015T08:18:54Z</time>
      </trkpt>
      <trkpt lat="44.41405" lon="4.6327">
        <ele>116</ele>
        <time>29-03-2015T08:18:56Z</time>
      </trkpt>
      <trkpt lat="44.41401" lon="4.63259">
        <ele>116</ele>
        <time>29-03-2015T08:18:58Z</time>
      </trkpt>
      <trkpt lat="44.41401" lon="4.63251">
        <ele>116</ele>
        <time>29-03-2015T08:19:00Z</time>
      </trkpt>
      <trkpt lat="44.41399" lon="4.63242">
        <ele>116</ele>
        <time>29-03-2015T08:19:02Z</time>
      </trkpt>
      <trkpt lat="44.41395" lon="4.63237">
        <ele>116</ele>
        <time>29-03-2015T08:19:03Z</time>
      </trkpt>
      <trkpt lat="44.41393" lon="4.6323">
        <ele>114</ele>
        <time>29-03-2015T08:19:05Z</time>
      </trkpt>
      <trkpt lat="44.41394" lon="4.63228">
        <ele>113</ele>
        <time>29-03-2015T08:19:10Z</time>
      </trkpt>
      <trkpt lat="44.41395" lon="4.63225">
        <ele>113</ele>
        <time>29-03-2015T08:19:15Z</time>
      </trkpt>
      <trkpt lat="44.414" lon="4.63218">
        <ele>113</ele>
        <time>29-03-2015T08:19:17Z</time>
      </trkpt>
      <trkpt lat="44.41404" lon="4.63213">
        <ele>113</ele>
        <time>29-03-2015T08:19:18Z</time>
      </trkpt>
      <trkpt lat="44.41408" lon="4.63209">
        <ele>113</ele>
        <time>29-03-2015T08:19:19Z</time>
      </trkpt>
      <trkpt lat="44.41412" lon="4.63205">
        <ele>113</ele>
        <time>29-03-2015T08:19:20Z</time>
      </trkpt>
      <trkpt lat="44.41416" lon="4.63202">
        <ele>113</ele>
        <time>29-03-2015T08:19:21Z</time>
      </trkpt>
      <trkpt lat="44.4142" lon="4.63199">
        <ele>113</ele>
        <time>29-03-2015T08:19:22Z</time>
      </trkpt>
      <trkpt lat="44.41426" lon="4.63192">
        <ele>112</ele>
        <time>29-03-2015T08:19:24Z</time>
      </trkpt>
      <trkpt lat="44.41427" lon="4.63185">
        <ele>112</ele>
        <time>29-03-2015T08:19:26Z</time>
      </trkpt>
      <trkpt lat="44.41423" lon="4.6318">
        <ele>112</ele>
        <time>29-03-2015T08:19:29Z</time>
      </trkpt>
      <trkpt lat="44.4142" lon="4.63174">
        <ele>112</ele>
        <time>29-03-2015T08:19:31Z</time>
      </trkpt>
      <trkpt lat="44.41415" lon="4.63168">
        <ele>112</ele>
        <time>29-03-2015T08:19:32Z</time>
      </trkpt>
      <trkpt lat="44.41411" lon="4.63158">
        <ele>112</ele>
        <time>29-03-2015T08:19:34Z</time>
      </trkpt>
      <trkpt lat="44.41408" lon="4.63151">
        <ele>112</ele>
        <time>29-03-2015T08:19:35Z</time>
      </trkpt>
      <trkpt lat="44.41405" lon="4.63142">
        <ele>112</ele>
        <time>29-03-2015T08:19:37Z</time>
      </trkpt>
      <trkpt lat="44.41401" lon="4.63134">
        <ele>113</ele>
        <time>29-03-2015T08:19:40Z</time>
      </trkpt>
      <trkpt lat="44.41394" lon="4.63132">
        <ele>113</ele>
        <time>29-03-2015T08:19:42Z</time>
      </trkpt>
      <trkpt lat="44.41388" lon="4.63128">
        <ele>113</ele>
        <time>29-03-2015T08:19:44Z</time>
      </trkpt>
      <trkpt lat="44.41384" lon="4.63125">
        <ele>113</ele>
        <time>29-03-2015T08:19:45Z</time>
      </trkpt>
      <trkpt lat="44.41375" lon="4.63119">
        <ele>113</ele>
        <time>29-03-2015T08:19:47Z</time>
      </trkpt>
      <trkpt lat="44.41368" lon="4.63118">
        <ele>115</ele>
        <time>29-03-2015T08:19:49Z</time>
      </trkpt>
      <trkpt lat="44.41364" lon="4.63117">
        <ele>115</ele>
        <time>29-03-2015T08:19:51Z</time>
      </trkpt>
      <trkpt lat="44.41358" lon="4.63116">
        <ele>115</ele>
        <time>29-03-2015T08:19:52Z</time>
      </trkpt>
      <trkpt lat="44.41349" lon="4.63114">
        <ele>116</ele>
        <time>29-03-2015T08:19:55Z</time>
      </trkpt>
      <trkpt lat="44.41342" lon="4.63112">
        <ele>116</ele>
        <time>29-03-2015T08:19:57Z</time>
      </trkpt>
      <trkpt lat="44.41335" lon="4.63108">
        <ele>117</ele>
        <time>29-03-2015T08:20:02Z</time>
      </trkpt>
      <trkpt lat="44.41331" lon="4.63107">
        <ele>119</ele>
        <time>29-03-2015T08:20:07Z</time>
      </trkpt>
      <trkpt lat="44.41326" lon="4.63105">
        <ele>121</ele>
        <time>29-03-2015T08:20:10Z</time>
      </trkpt>
      <trkpt lat="44.41323" lon="4.63099">
        <ele>122</ele>
        <time>29-03-2015T08:20:15Z</time>
      </trkpt>
      <trkpt lat="44.41319" lon="4.6309">
        <ele>122</ele>
        <time>29-03-2015T08:20:18Z</time>
      </trkpt>
      <trkpt lat="44.41317" lon="4.63084">
        <ele>122</ele>
        <time>29-03-2015T08:20:23Z</time>
      </trkpt>
      <trkpt lat="44.41313" lon="4.63081">
        <ele>123</ele>
        <time>29-03-2015T08:20:25Z</time>
      </trkpt>
      <trkpt lat="44.41304" lon="4.63079">
        <ele>123</ele>
        <time>29-03-2015T08:20:26Z</time>
      </trkpt>
      <trkpt lat="44.413" lon="4.63074">
        <ele>124</ele>
        <time>29-03-2015T08:20:29Z</time>
      </trkpt>
      <trkpt lat="44.41296" lon="4.63066">
        <ele>126</ele>
        <time>29-03-2015T08:20:34Z</time>
      </trkpt>
      <trkpt lat="44.41298" lon="4.63061">
        <ele>126</ele>
        <time>29-03-2015T08:20:39Z</time>
      </trkpt>
      <trkpt lat="44.41294" lon="4.63055">
        <ele>126</ele>
        <time>29-03-2015T08:20:42Z</time>
      </trkpt>
      <trkpt lat="44.41289" lon="4.6305">
        <ele>128</ele>
        <time>29-03-2015T08:20:45Z</time>
      </trkpt>
      <trkpt lat="44.41284" lon="4.63044">
        <ele>128</ele>
        <time>29-03-2015T08:20:48Z</time>
      </trkpt>
      <trkpt lat="44.41284" lon="4.63037">
        <ele>129</ele>
        <time>29-03-2015T08:20:52Z</time>
      </trkpt>
      <trkpt lat="44.4128" lon="4.63031">
        <ele>129</ele>
        <time>29-03-2015T08:20:54Z</time>
      </trkpt>
      <trkpt lat="44.41279" lon="4.63022">
        <ele>130</ele>
        <time>29-03-2015T08:20:59Z</time>
      </trkpt>
      <trkpt lat="44.41277" lon="4.63015">
        <ele>130</ele>
        <time>29-03-2015T08:21:02Z</time>
      </trkpt>
      <trkpt lat="44.41281" lon="4.63012">
        <ele>132</ele>
        <time>29-03-2015T08:21:04Z</time>
      </trkpt>
      <trkpt lat="44.41278" lon="4.63005">
        <ele>132</ele>
        <time>29-03-2015T08:21:08Z</time>
      </trkpt>
      <trkpt lat="44.41279" lon="4.62997">
        <ele>132</ele>
        <time>29-03-2015T08:21:13Z</time>
      </trkpt>
      <trkpt lat="44.41274" lon="4.62988">
        <ele>133</ele>
        <time>29-03-2015T08:21:16Z</time>
      </trkpt>
      <trkpt lat="44.41275" lon="4.6298">
        <ele>136</ele>
        <time>29-03-2015T08:21:19Z</time>
      </trkpt>
      <trkpt lat="44.41279" lon="4.62976">
        <ele>136</ele>
        <time>29-03-2015T08:21:21Z</time>
      </trkpt>
      <trkpt lat="44.41282" lon="4.6297">
        <ele>136</ele>
        <time>29-03-2015T08:21:24Z</time>
      </trkpt>
      <trkpt lat="44.41278" lon="4.6296">
        <ele>136</ele>
        <time>29-03-2015T08:21:28Z</time>
      </trkpt>
      <trkpt lat="44.41276" lon="4.62953">
        <ele>137</ele>
        <time>29-03-2015T08:21:32Z</time>
      </trkpt>
      <trkpt lat="44.41274" lon="4.62947">
        <ele>138</ele>
        <time>29-03-2015T08:21:34Z</time>
      </trkpt>
      <trkpt lat="44.41272" lon="4.62936">
        <ele>138</ele>
        <time>29-03-2015T08:21:37Z</time>
      </trkpt>
      <trkpt lat="44.41275" lon="4.62931">
        <ele>141</ele>
        <time>29-03-2015T08:21:39Z</time>
      </trkpt>
      <trkpt lat="44.41271" lon="4.62927">
        <ele>141</ele>
        <time>29-03-2015T08:21:40Z</time>
      </trkpt>
      <trkpt lat="44.41274" lon="4.6292">
        <ele>141</ele>
        <time>29-03-2015T08:21:42Z</time>
      </trkpt>
      <trkpt lat="44.41272" lon="4.62913">
        <ele>141</ele>
        <time>29-03-2015T08:21:43Z</time>
      </trkpt>
      <trkpt lat="44.41273" lon="4.62903">
        <ele>141</ele>
        <time>29-03-2015T08:21:45Z</time>
      </trkpt>
      <trkpt lat="44.41272" lon="4.62894">
        <ele>141</ele>
        <time>29-03-2015T08:21:47Z</time>
      </trkpt>
      <trkpt lat="44.41266" lon="4.62887">
        <ele>141</ele>
        <time>29-03-2015T08:21:49Z</time>
      </trkpt>
      <trkpt lat="44.41265" lon="4.62878">
        <ele>141</ele>
        <time>29-03-2015T08:21:52Z</time>
      </trkpt>
      <trkpt lat="44.4126" lon="4.62868">
        <ele>143</ele>
        <time>29-03-2015T08:21:55Z</time>
      </trkpt>
      <trkpt lat="44.41259" lon="4.62859">
        <ele>143</ele>
        <time>29-03-2015T08:21:58Z</time>
      </trkpt>
      <trkpt lat="44.4126" lon="4.6285">
        <ele>144</ele>
        <time>29-03-2015T08:22:01Z</time>
      </trkpt>
      <trkpt lat="44.41259" lon="4.62843">
        <ele>144</ele>
        <time>29-03-2015T08:22:03Z</time>
      </trkpt>
      <trkpt lat="44.41257" lon="4.62835">
        <ele>145</ele>
        <time>29-03-2015T08:22:05Z</time>
      </trkpt>
      <trkpt lat="44.41259" lon="4.62826">
        <ele>145</ele>
        <time>29-03-2015T08:22:08Z</time>
      </trkpt>
      <trkpt lat="44.4126" lon="4.62819">
        <ele>146</ele>
        <time>29-03-2015T08:22:10Z</time>
      </trkpt>
      <trkpt lat="44.41258" lon="4.6281">
        <ele>146</ele>
        <time>29-03-2015T08:22:12Z</time>
      </trkpt>
      <trkpt lat="44.41255" lon="4.62804">
        <ele>146</ele>
        <time>29-03-2015T08:22:15Z</time>
      </trkpt>
      <trkpt lat="44.41247" lon="4.62807">
        <ele>146</ele>
        <time>29-03-2015T08:22:18Z</time>
      </trkpt>
      <trkpt lat="44.41241" lon="4.62811">
        <ele>147</ele>
        <time>29-03-2015T08:22:21Z</time>
      </trkpt>
      <trkpt lat="44.41236" lon="4.62817">
        <ele>149</ele>
        <time>29-03-2015T08:22:24Z</time>
      </trkpt>
      <trkpt lat="44.41231" lon="4.62818">
        <ele>149</ele>
        <time>29-03-2015T08:22:26Z</time>
      </trkpt>
      <trkpt lat="44.41226" lon="4.62817">
        <ele>149</ele>
        <time>29-03-2015T08:22:27Z</time>
      </trkpt>
      <trkpt lat="44.41221" lon="4.62819">
        <ele>150</ele>
        <time>29-03-2015T08:22:29Z</time>
      </trkpt>
      <trkpt lat="44.41216" lon="4.6282">
        <ele>150</ele>
        <time>29-03-2015T08:22:31Z</time>
      </trkpt>
      <trkpt lat="44.41209" lon="4.62822">
        <ele>151</ele>
        <time>29-03-2015T08:22:34Z</time>
      </trkpt>
      <trkpt lat="44.41203" lon="4.62821">
        <ele>151</ele>
        <time>29-03-2015T08:22:37Z</time>
      </trkpt>
      <trkpt lat="44.41195" lon="4.62819">
        <ele>152</ele>
        <time>29-03-2015T08:22:40Z</time>
      </trkpt>
      <trkpt lat="44.41191" lon="4.62818">
        <ele>152</ele>
        <time>29-03-2015T08:22:42Z</time>
      </trkpt>
      <trkpt lat="44.41186" lon="4.62816">
        <ele>153</ele>
        <time>29-03-2015T08:22:44Z</time>
      </trkpt>
      <trkpt lat="44.41179" lon="4.62815">
        <ele>153</ele>
        <time>29-03-2015T08:22:47Z</time>
      </trkpt>
      <trkpt lat="44.41174" lon="4.62814">
        <ele>155</ele>
        <time>29-03-2015T08:22:50Z</time>
      </trkpt>
      <trkpt lat="44.41166" lon="4.62814">
        <ele>155</ele>
        <time>29-03-2015T08:22:54Z</time>
      </trkpt>
      <trkpt lat="44.4116" lon="4.62814">
        <ele>155</ele>
        <time>29-03-2015T08:22:57Z</time>
      </trkpt>
      <trkpt lat="44.41156" lon="4.62812">
        <ele>156</ele>
        <time>29-03-2015T08:22:59Z</time>
      </trkpt>
      <trkpt lat="44.4115" lon="4.62809">
        <ele>156</ele>
        <time>29-03-2015T08:23:01Z</time>
      </trkpt>
      <trkpt lat="44.41144" lon="4.62807">
        <ele>158</ele>
        <time>29-03-2015T08:23:04Z</time>
      </trkpt>
      <trkpt lat="44.41138" lon="4.62807">
        <ele>158</ele>
        <time>29-03-2015T08:23:06Z</time>
      </trkpt>
      <trkpt lat="44.41134" lon="4.62805">
        <ele>158</ele>
        <time>29-03-2015T08:23:08Z</time>
      </trkpt>
      <trkpt lat="44.41129" lon="4.62803">
        <ele>159</ele>
        <time>29-03-2015T08:23:11Z</time>
      </trkpt>
      <trkpt lat="44.41124" lon="4.62803">
        <ele>159</ele>
        <time>29-03-2015T08:23:13Z</time>
      </trkpt>
      <trkpt lat="44.41118" lon="4.62801">
        <ele>159</ele>
        <time>29-03-2015T08:23:15Z</time>
      </trkpt>
      <trkpt lat="44.41113" lon="4.62798">
        <ele>159</ele>
        <time>29-03-2015T08:23:17Z</time>
      </trkpt>
      <trkpt lat="44.41108" lon="4.62799">
        <ele>160</ele>
        <time>29-03-2015T08:23:19Z</time>
      </trkpt>
      <trkpt lat="44.41101" lon="4.62797">
        <ele>160</ele>
        <time>29-03-2015T08:23:22Z</time>
      </trkpt>
      <trkpt lat="44.41096" lon="4.62795">
        <ele>160</ele>
        <time>29-03-2015T08:23:25Z</time>
      </trkpt>
      <trkpt lat="44.41091" lon="4.62792">
        <ele>160</ele>
        <time>29-03-2015T08:23:26Z</time>
      </trkpt>
      <trkpt lat="44.41084" lon="4.62785">
        <ele>162</ele>
        <time>29-03-2015T08:23:29Z</time>
      </trkpt>
      <trkpt lat="44.41079" lon="4.62782">
        <ele>162</ele>
        <time>29-03-2015T08:23:30Z</time>
      </trkpt>
      <trkpt lat="44.41076" lon="4.62777">
        <ele>162</ele>
        <time>29-03-2015T08:23:32Z</time>
      </trkpt>
      <trkpt lat="44.4107" lon="4.62772">
        <ele>162</ele>
        <time>29-03-2015T08:23:33Z</time>
      </trkpt>
      <trkpt lat="44.41062" lon="4.62764">
        <ele>164</ele>
        <time>29-03-2015T08:23:37Z</time>
      </trkpt>
      <trkpt lat="44.41057" lon="4.62759">
        <ele>166</ele>
        <time>29-03-2015T08:23:39Z</time>
      </trkpt>
      <trkpt lat="44.41051" lon="4.62754">
        <ele>166</ele>
        <time>29-03-2015T08:23:41Z</time>
      </trkpt>
      <trkpt lat="44.41048" lon="4.62749">
        <ele>166</ele>
        <time>29-03-2015T08:23:43Z</time>
      </trkpt>
      <trkpt lat="44.41041" lon="4.62744">
        <ele>167</ele>
        <time>29-03-2015T08:23:45Z</time>
      </trkpt>
      <trkpt lat="44.41037" lon="4.6274">
        <ele>168</ele>
        <time>29-03-2015T08:23:49Z</time>
      </trkpt>
      <trkpt lat="44.41032" lon="4.62736">
        <ele>168</ele>
        <time>29-03-2015T08:23:52Z</time>
      </trkpt>
      <trkpt lat="44.41026" lon="4.62732">
        <ele>169</ele>
        <time>29-03-2015T08:23:54Z</time>
      </trkpt>
      <trkpt lat="44.4102" lon="4.62728">
        <ele>169</ele>
        <time>29-03-2015T08:23:56Z</time>
      </trkpt>
      <trkpt lat="44.41018" lon="4.62722">
        <ele>170</ele>
        <time>29-03-2015T08:23:59Z</time>
      </trkpt>
      <trkpt lat="44.41013" lon="4.62717">
        <ele>170</ele>
        <time>29-03-2015T08:24:00Z</time>
      </trkpt>
      <trkpt lat="44.41011" lon="4.62707">
        <ele>170</ele>
        <time>29-03-2015T08:24:03Z</time>
      </trkpt>
      <trkpt lat="44.41009" lon="4.627">
        <ele>172</ele>
        <time>29-03-2015T08:24:04Z</time>
      </trkpt>
      <trkpt lat="44.41009" lon="4.62694">
        <ele>172</ele>
        <time>29-03-2015T08:24:08Z</time>
      </trkpt>
      <trkpt lat="44.41013" lon="4.62688">
        <ele>172</ele>
        <time>29-03-2015T08:24:12Z</time>
      </trkpt>
      <trkpt lat="44.41019" lon="4.62687">
        <ele>173</ele>
        <time>29-03-2015T08:24:14Z</time>
      </trkpt>
      <trkpt lat="44.41022" lon="4.62682">
        <ele>173</ele>
        <time>29-03-2015T08:24:17Z</time>
      </trkpt>
      <trkpt lat="44.41027" lon="4.62677">
        <ele>173</ele>
        <time>29-03-2015T08:24:20Z</time>
      </trkpt>
      <trkpt lat="44.41033" lon="4.62673">
        <ele>173</ele>
        <time>29-03-2015T08:24:23Z</time>
      </trkpt>
      <trkpt lat="44.41036" lon="4.62668">
        <ele>174</ele>
        <time>29-03-2015T08:24:26Z</time>
      </trkpt>
      <trkpt lat="44.4104" lon="4.62664">
        <ele>174</ele>
        <time>29-03-2015T08:24:29Z</time>
      </trkpt>
      <trkpt lat="44.41044" lon="4.62661">
        <ele>174</ele>
        <time>29-03-2015T08:24:31Z</time>
      </trkpt>
      <trkpt lat="44.41048" lon="4.62655">
        <ele>175</ele>
        <time>29-03-2015T08:24:34Z</time>
      </trkpt>
      <trkpt lat="44.41047" lon="4.62654">
        <ele>176</ele>
        <time>29-03-2015T08:24:39Z</time>
      </trkpt>
      <trkpt lat="44.41047" lon="4.62655">
        <ele>176</ele>
        <time>29-03-2015T08:24:44Z</time>
      </trkpt>
      <trkpt lat="44.41052" lon="4.62649">
        <ele>176</ele>
        <time>29-03-2015T08:24:47Z</time>
      </trkpt>
      <trkpt lat="44.41054" lon="4.62642">
        <ele>176</ele>
        <time>29-03-2015T08:24:49Z</time>
      </trkpt>
      <trkpt lat="44.41056" lon="4.62629">
        <ele>176</ele>
        <time>29-03-2015T08:24:51Z</time>
      </trkpt>
      <trkpt lat="44.41058" lon="4.62621">
        <ele>176</ele>
        <time>29-03-2015T08:24:53Z</time>
      </trkpt>
      <trkpt lat="44.41061" lon="4.62615">
        <ele>176</ele>
        <time>29-03-2015T08:24:54Z</time>
      </trkpt>
      <trkpt lat="44.41063" lon="4.62608">
        <ele>176</ele>
        <time>29-03-2015T08:24:55Z</time>
      </trkpt>
      <trkpt lat="44.41064" lon="4.62601">
        <ele>176</ele>
        <time>29-03-2015T08:24:56Z</time>
      </trkpt>
      <trkpt lat="44.41068" lon="4.62595">
        <ele>176</ele>
        <time>29-03-2015T08:24:57Z</time>
      </trkpt>
      <trkpt lat="44.41072" lon="4.62587">
        <ele>176</ele>
        <time>29-03-2015T08:24:58Z</time>
      </trkpt>
      <trkpt lat="44.41076" lon="4.62583">
        <ele>176</ele>
        <time>29-03-2015T08:24:59Z</time>
      </trkpt>
      <trkpt lat="44.4108" lon="4.62578">
        <ele>176</ele>
        <time>29-03-2015T08:25:00Z</time>
      </trkpt>
      <trkpt lat="44.41085" lon="4.62572">
        <ele>176</ele>
        <time>29-03-2015T08:25:01Z</time>
      </trkpt>
      <trkpt lat="44.4109" lon="4.62565">
        <ele>176</ele>
        <time>29-03-2015T08:25:02Z</time>
      </trkpt>
      <trkpt lat="44.41095" lon="4.62558">
        <ele>176</ele>
        <time>29-03-2015T08:25:03Z</time>
      </trkpt>
      <trkpt lat="44.41101" lon="4.62555">
        <ele>174</ele>
        <time>29-03-2015T08:25:04Z</time>
      </trkpt>
      <trkpt lat="44.41105" lon="4.62548">
        <ele>174</ele>
        <time>29-03-2015T08:25:05Z</time>
      </trkpt>
      <trkpt lat="44.41108" lon="4.62543">
        <ele>174</ele>
        <time>29-03-2015T08:25:06Z</time>
      </trkpt>
      <trkpt lat="44.4111" lon="4.62534">
        <ele>174</ele>
        <time>29-03-2015T08:25:07Z</time>
      </trkpt>
      <trkpt lat="44.41112" lon="4.62526">
        <ele>174</ele>
        <time>29-03-2015T08:25:08Z</time>
      </trkpt>
      <trkpt lat="44.4111" lon="4.62517">
        <ele>173</ele>
        <time>29-03-2015T08:25:09Z</time>
      </trkpt>
      <trkpt lat="44.41107" lon="4.62511">
        <ele>173</ele>
        <time>29-03-2015T08:25:10Z</time>
      </trkpt>
      <trkpt lat="44.41104" lon="4.625">
        <ele>173</ele>
        <time>29-03-2015T08:25:12Z</time>
      </trkpt>
      <trkpt lat="44.41101" lon="4.62494">
        <ele>173</ele>
        <time>29-03-2015T08:25:13Z</time>
      </trkpt>
      <trkpt lat="44.41098" lon="4.62486">
        <ele>173</ele>
        <time>29-03-2015T08:25:14Z</time>
      </trkpt>
      <trkpt lat="44.41094" lon="4.62481">
        <ele>173</ele>
        <time>29-03-2015T08:25:15Z</time>
      </trkpt>
      <trkpt lat="44.41093" lon="4.62471">
        <ele>173</ele>
        <time>29-03-2015T08:25:17Z</time>
      </trkpt>
      <trkpt lat="44.41089" lon="4.62466">
        <ele>173</ele>
        <time>29-03-2015T08:25:18Z</time>
      </trkpt>
      <trkpt lat="44.41082" lon="4.62461">
        <ele>173</ele>
        <time>29-03-2015T08:25:19Z</time>
      </trkpt>
      <trkpt lat="44.41079" lon="4.62453">
        <ele>173</ele>
        <time>29-03-2015T08:25:21Z</time>
      </trkpt>
      <trkpt lat="44.41076" lon="4.62449">
        <ele>173</ele>
        <time>29-03-2015T08:25:23Z</time>
      </trkpt>
      <trkpt lat="44.41071" lon="4.62444">
        <ele>173</ele>
        <time>29-03-2015T08:25:24Z</time>
      </trkpt>
      <trkpt lat="44.41067" lon="4.62436">
        <ele>173</ele>
        <time>29-03-2015T08:25:27Z</time>
      </trkpt>
      <trkpt lat="44.41063" lon="4.62431">
        <ele>173</ele>
        <time>29-03-2015T08:25:28Z</time>
      </trkpt>
      <trkpt lat="44.41064" lon="4.62424">
        <ele>174</ele>
        <time>29-03-2015T08:25:31Z</time>
      </trkpt>
      <trkpt lat="44.4107" lon="4.62419">
        <ele>175</ele>
        <time>29-03-2015T08:25:34Z</time>
      </trkpt>
      <trkpt lat="44.41076" lon="4.62422">
        <ele>175</ele>
        <time>29-03-2015T08:25:36Z</time>
      </trkpt>
      <trkpt lat="44.4108" lon="4.62427">
        <ele>175</ele>
        <time>29-03-2015T08:25:37Z</time>
      </trkpt>
      <trkpt lat="44.41087" lon="4.62431">
        <ele>175</ele>
        <time>29-03-2015T08:25:39Z</time>
      </trkpt>
      <trkpt lat="44.41094" lon="4.62438">
        <ele>175</ele>
        <time>29-03-2015T08:25:41Z</time>
      </trkpt>
      <trkpt lat="44.41097" lon="4.62442">
        <ele>175</ele>
        <time>29-03-2015T08:25:42Z</time>
      </trkpt>
      <trkpt lat="44.41102" lon="4.6245">
        <ele>175</ele>
        <time>29-03-2015T08:25:43Z</time>
      </trkpt>
      <trkpt lat="44.41104" lon="4.62456">
        <ele>175</ele>
        <time>29-03-2015T08:25:44Z</time>
      </trkpt>
      <trkpt lat="44.41109" lon="4.62459">
        <ele>175</ele>
        <time>29-03-2015T08:25:45Z</time>
      </trkpt>
      <trkpt lat="44.41114" lon="4.62461">
        <ele>175</ele>
        <time>29-03-2015T08:25:46Z</time>
      </trkpt>
      <trkpt lat="44.41119" lon="4.62464">
        <ele>175</ele>
        <time>29-03-2015T08:25:47Z</time>
      </trkpt>
      <trkpt lat="44.41123" lon="4.62468">
        <ele>175</ele>
        <time>29-03-2015T08:25:48Z</time>
      </trkpt>
      <trkpt lat="44.41126" lon="4.62477">
        <ele>173</ele>
        <time>29-03-2015T08:25:50Z</time>
      </trkpt>
      <trkpt lat="44.41132" lon="4.62482">
        <ele>173</ele>
        <time>29-03-2015T08:25:51Z</time>
      </trkpt>
      <trkpt lat="44.41139" lon="4.62481">
        <ele>173</ele>
        <time>29-03-2015T08:25:53Z</time>
      </trkpt>
      <trkpt lat="44.41144" lon="4.6248">
        <ele>171</ele>
        <time>29-03-2015T08:25:54Z</time>
      </trkpt>
      <trkpt lat="44.41149" lon="4.62476">
        <ele>171</ele>
        <time>29-03-2015T08:25:55Z</time>
      </trkpt>
      <trkpt lat="44.41154" lon="4.62473">
        <ele>171</ele>
        <time>29-03-2015T08:25:56Z</time>
      </trkpt>
      <trkpt lat="44.41165" lon="4.62473">
        <ele>171</ele>
        <time>29-03-2015T08:25:58Z</time>
      </trkpt>
      <trkpt lat="44.41172" lon="4.62471">
        <ele>171</ele>
        <time>29-03-2015T08:25:59Z</time>
      </trkpt>
      <trkpt lat="44.41177" lon="4.62469">
        <ele>171</ele>
        <time>29-03-2015T08:26:00Z</time>
      </trkpt>
      <trkpt lat="44.41182" lon="4.62468">
        <ele>171</ele>
        <time>29-03-2015T08:26:01Z</time>
      </trkpt>
      <trkpt lat="44.41189" lon="4.62465">
        <ele>171</ele>
        <time>29-03-2015T08:26:02Z</time>
      </trkpt>
      <trkpt lat="44.41194" lon="4.62462">
        <ele>171</ele>
        <time>29-03-2015T08:26:03Z</time>
      </trkpt>
      <trkpt lat="44.412" lon="4.6246">
        <ele>170</ele>
        <time>29-03-2015T08:26:04Z</time>
      </trkpt>
      <trkpt lat="44.41205" lon="4.62457">
        <ele>170</ele>
        <time>29-03-2015T08:26:05Z</time>
      </trkpt>
      <trkpt lat="44.41211" lon="4.62454">
        <ele>170</ele>
        <time>29-03-2015T08:26:06Z</time>
      </trkpt>
      <trkpt lat="44.41217" lon="4.62453">
        <ele>170</ele>
        <time>29-03-2015T08:26:07Z</time>
      </trkpt>
      <trkpt lat="44.41223" lon="4.62452">
        <ele>170</ele>
        <time>29-03-2015T08:26:08Z</time>
      </trkpt>
      <trkpt lat="44.41229" lon="4.62452">
        <ele>169</ele>
        <time>29-03-2015T08:26:09Z</time>
      </trkpt>
      <trkpt lat="44.41235" lon="4.62451">
        <ele>169</ele>
        <time>29-03-2015T08:26:10Z</time>
      </trkpt>
      <trkpt lat="44.41241" lon="4.6245">
        <ele>169</ele>
        <time>29-03-2015T08:26:11Z</time>
      </trkpt>
      <trkpt lat="44.41247" lon="4.62446">
        <ele>169</ele>
        <time>29-03-2015T08:26:12Z</time>
      </trkpt>
      <trkpt lat="44.41253" lon="4.62443">
        <ele>169</ele>
        <time>29-03-2015T08:26:13Z</time>
      </trkpt>
      <trkpt lat="44.4126" lon="4.62441">
        <ele>169</ele>
        <time>29-03-2015T08:26:14Z</time>
      </trkpt>
      <trkpt lat="44.41266" lon="4.62439">
        <ele>169</ele>
        <time>29-03-2015T08:26:15Z</time>
      </trkpt>
      <trkpt lat="44.41271" lon="4.62435">
        <ele>169</ele>
        <time>29-03-2015T08:26:16Z</time>
      </trkpt>
      <trkpt lat="44.41278" lon="4.62433">
        <ele>169</ele>
        <time>29-03-2015T08:26:17Z</time>
      </trkpt>
      <trkpt lat="44.41284" lon="4.62431">
        <ele>169</ele>
        <time>29-03-2015T08:26:18Z</time>
      </trkpt>
      <trkpt lat="44.4129" lon="4.62429">
        <ele>168</ele>
        <time>29-03-2015T08:26:19Z</time>
      </trkpt>
      <trkpt lat="44.41295" lon="4.62426">
        <ele>168</ele>
        <time>29-03-2015T08:26:20Z</time>
      </trkpt>
      <trkpt lat="44.41303" lon="4.62419">
        <ele>168</ele>
        <time>29-03-2015T08:26:22Z</time>
      </trkpt>
      <trkpt lat="44.41308" lon="4.62415">
        <ele>168</ele>
        <time>29-03-2015T08:26:23Z</time>
      </trkpt>
      <trkpt lat="44.41312" lon="4.62411">
        <ele>168</ele>
        <time>29-03-2015T08:26:24Z</time>
      </trkpt>
      <trkpt lat="44.41318" lon="4.62408">
        <ele>168</ele>
        <time>29-03-2015T08:26:25Z</time>
      </trkpt>
      <trkpt lat="44.41323" lon="4.62405">
        <ele>168</ele>
        <time>29-03-2015T08:26:26Z</time>
      </trkpt>
      <trkpt lat="44.41328" lon="4.62402">
        <ele>168</ele>
        <time>29-03-2015T08:26:27Z</time>
      </trkpt>
      <trkpt lat="44.41333" lon="4.624">
        <ele>168</ele>
        <time>29-03-2015T08:26:28Z</time>
      </trkpt>
      <trkpt lat="44.41338" lon="4.62397">
        <ele>169</ele>
        <time>29-03-2015T08:26:29Z</time>
      </trkpt>
      <trkpt lat="44.41344" lon="4.62394">
        <ele>169</ele>
        <time>29-03-2015T08:26:30Z</time>
      </trkpt>
      <trkpt lat="44.41348" lon="4.62392">
        <ele>169</ele>
        <time>29-03-2015T08:26:31Z</time>
      </trkpt>
      <trkpt lat="44.41353" lon="4.6239">
        <ele>169</ele>
        <time>29-03-2015T08:26:32Z</time>
      </trkpt>
      <trkpt lat="44.41358" lon="4.62388">
        <ele>169</ele>
        <time>29-03-2015T08:26:33Z</time>
      </trkpt>
      <trkpt lat="44.41362" lon="4.62386">
        <ele>169</ele>
        <time>29-03-2015T08:26:34Z</time>
      </trkpt>
      <trkpt lat="44.41367" lon="4.62384">
        <ele>169</ele>
        <time>29-03-2015T08:26:35Z</time>
      </trkpt>
      <trkpt lat="44.41372" lon="4.62383">
        <ele>169</ele>
        <time>29-03-2015T08:26:36Z</time>
      </trkpt>
      <trkpt lat="44.41377" lon="4.62382">
        <ele>169</ele>
        <time>29-03-2015T08:26:37Z</time>
      </trkpt>
      <trkpt lat="44.41382" lon="4.62382">
        <ele>169</ele>
        <time>29-03-2015T08:26:38Z</time>
      </trkpt>
      <trkpt lat="44.41387" lon="4.62378">
        <ele>169</ele>
        <time>29-03-2015T08:26:39Z</time>
      </trkpt>
      <trkpt lat="44.41393" lon="4.62376">
        <ele>169</ele>
        <time>29-03-2015T08:26:40Z</time>
      </trkpt>
      <trkpt lat="44.41402" lon="4.62369">
        <ele>169</ele>
        <time>29-03-2015T08:26:42Z</time>
      </trkpt>
      <trkpt lat="44.41406" lon="4.62365">
        <ele>169</ele>
        <time>29-03-2015T08:26:43Z</time>
      </trkpt>
      <trkpt lat="44.41411" lon="4.62363">
        <ele>169</ele>
        <time>29-03-2015T08:26:44Z</time>
      </trkpt>
      <trkpt lat="44.41416" lon="4.62361">
        <ele>169</ele>
        <time>29-03-2015T08:26:45Z</time>
      </trkpt>
      <trkpt lat="44.41421" lon="4.62362">
        <ele>169</ele>
        <time>29-03-2015T08:26:46Z</time>
      </trkpt>
      <trkpt lat="44.41429" lon="4.62363">
        <ele>169</ele>
        <time>29-03-2015T08:26:48Z</time>
      </trkpt>
      <trkpt lat="44.41435" lon="4.62366">
        <ele>167</ele>
        <time>29-03-2015T08:26:49Z</time>
      </trkpt>
      <trkpt lat="44.41442" lon="4.62366">
        <ele>167</ele>
        <time>29-03-2015T08:26:50Z</time>
      </trkpt>
      <trkpt lat="44.41447" lon="4.62365">
        <ele>167</ele>
        <time>29-03-2015T08:26:51Z</time>
      </trkpt>
      <trkpt lat="44.41453" lon="4.62366">
        <ele>167</ele>
        <time>29-03-2015T08:26:52Z</time>
      </trkpt>
      <trkpt lat="44.41467" lon="4.62363">
        <ele>166</ele>
        <time>29-03-2015T08:26:54Z</time>
      </trkpt>
      <trkpt lat="44.41472" lon="4.6236">
        <ele>166</ele>
        <time>29-03-2015T08:26:55Z</time>
      </trkpt>
      <trkpt lat="44.41478" lon="4.62358">
        <ele>166</ele>
        <time>29-03-2015T08:26:56Z</time>
      </trkpt>
      <trkpt lat="44.41483" lon="4.62355">
        <ele>166</ele>
        <time>29-03-2015T08:26:57Z</time>
      </trkpt>
      <trkpt lat="44.4149" lon="4.62354">
        <ele>166</ele>
        <time>29-03-2015T08:26:58Z</time>
      </trkpt>
      <trkpt lat="44.41496" lon="4.62354">
        <ele>164</ele>
        <time>29-03-2015T08:26:59Z</time>
      </trkpt>
      <trkpt lat="44.41502" lon="4.62353">
        <ele>164</ele>
        <time>29-03-2015T08:27:00Z</time>
      </trkpt>
      <trkpt lat="44.41509" lon="4.62354">
        <ele>164</ele>
        <time>29-03-2015T08:27:01Z</time>
      </trkpt>
      <trkpt lat="44.41515" lon="4.6235">
        <ele>164</ele>
        <time>29-03-2015T08:27:02Z</time>
      </trkpt>
      <trkpt lat="44.4152" lon="4.62345">
        <ele>164</ele>
        <time>29-03-2015T08:27:03Z</time>
      </trkpt>
      <trkpt lat="44.41526" lon="4.62341">
        <ele>162</ele>
        <time>29-03-2015T08:27:04Z</time>
      </trkpt>
      <trkpt lat="44.41532" lon="4.62338">
        <ele>162</ele>
        <time>29-03-2015T08:27:05Z</time>
      </trkpt>
      <trkpt lat="44.41537" lon="4.62336">
        <ele>162</ele>
        <time>29-03-2015T08:27:06Z</time>
      </trkpt>
      <trkpt lat="44.41541" lon="4.62333">
        <ele>162</ele>
        <time>29-03-2015T08:27:07Z</time>
      </trkpt>
      <trkpt lat="44.41544" lon="4.62327">
        <ele>162</ele>
        <time>29-03-2015T08:27:08Z</time>
      </trkpt>
      <trkpt lat="44.41545" lon="4.62321">
        <ele>160</ele>
        <time>29-03-2015T08:27:09Z</time>
      </trkpt>
      <trkpt lat="44.41547" lon="4.62314">
        <ele>160</ele>
        <time>29-03-2015T08:27:10Z</time>
      </trkpt>
      <trkpt lat="44.4155" lon="4.62306">
        <ele>160</ele>
        <time>29-03-2015T08:27:11Z</time>
      </trkpt>
      <trkpt lat="44.41553" lon="4.623">
        <ele>160</ele>
        <time>29-03-2015T08:27:12Z</time>
      </trkpt>
      <trkpt lat="44.41558" lon="4.62294">
        <ele>160</ele>
        <time>29-03-2015T08:27:13Z</time>
      </trkpt>
      <trkpt lat="44.41562" lon="4.62289">
        <ele>160</ele>
        <time>29-03-2015T08:27:14Z</time>
      </trkpt>
      <trkpt lat="44.41568" lon="4.62282">
        <ele>160</ele>
        <time>29-03-2015T08:27:15Z</time>
      </trkpt>
      <trkpt lat="44.41572" lon="4.62277">
        <ele>160</ele>
        <time>29-03-2015T08:27:16Z</time>
      </trkpt>
      <trkpt lat="44.41575" lon="4.62272">
        <ele>160</ele>
        <time>29-03-2015T08:27:17Z</time>
      </trkpt>
      <trkpt lat="44.41579" lon="4.6227">
        <ele>160</ele>
        <time>29-03-2015T08:27:18Z</time>
      </trkpt>
      <trkpt lat="44.41584" lon="4.62272">
        <ele>158</ele>
        <time>29-03-2015T08:27:19Z</time>
      </trkpt>
      <trkpt lat="44.4159" lon="4.62276">
        <ele>158</ele>
        <time>29-03-2015T08:27:20Z</time>
      </trkpt>
      <trkpt lat="44.41594" lon="4.62279">
        <ele>158</ele>
        <time>29-03-2015T08:27:21Z</time>
      </trkpt>
      <trkpt lat="44.416" lon="4.62282">
        <ele>158</ele>
        <time>29-03-2015T08:27:23Z</time>
      </trkpt>
      <trkpt lat="44.41602" lon="4.62281">
        <ele>155</ele>
        <time>29-03-2015T08:27:28Z</time>
      </trkpt>
      <trkpt lat="44.41603" lon="4.62271">
        <ele>152</ele>
        <time>29-03-2015T08:27:33Z</time>
      </trkpt>
      <trkpt lat="44.41603" lon="4.62264">
        <ele>152</ele>
        <time>29-03-2015T08:27:34Z</time>
      </trkpt>
      <trkpt lat="44.41608" lon="4.62257">
        <ele>152</ele>
        <time>29-03-2015T08:27:36Z</time>
      </trkpt>
      <trkpt lat="44.41615" lon="4.62254">
        <ele>152</ele>
        <time>29-03-2015T08:27:38Z</time>
      </trkpt>
      <trkpt lat="44.41622" lon="4.62256">
        <ele>152</ele>
        <time>29-03-2015T08:27:40Z</time>
      </trkpt>
      <trkpt lat="44.4163" lon="4.62257">
        <ele>152</ele>
        <time>29-03-2015T08:27:42Z</time>
      </trkpt>
      <trkpt lat="44.41639" lon="4.62255">
        <ele>152</ele>
        <time>29-03-2015T08:27:44Z</time>
      </trkpt>
      <trkpt lat="44.41644" lon="4.62254">
        <ele>152</ele>
        <time>29-03-2015T08:27:45Z</time>
      </trkpt>
      <trkpt lat="44.41649" lon="4.62254">
        <ele>152</ele>
        <time>29-03-2015T08:27:46Z</time>
      </trkpt>
      <trkpt lat="44.41654" lon="4.62253">
        <ele>152</ele>
        <time>29-03-2015T08:27:47Z</time>
      </trkpt>
      <trkpt lat="44.4166" lon="4.62252">
        <ele>152</ele>
        <time>29-03-2015T08:27:48Z</time>
      </trkpt>
      <trkpt lat="44.41665" lon="4.62249">
        <ele>151</ele>
        <time>29-03-2015T08:27:49Z</time>
      </trkpt>
      <trkpt lat="44.41671" lon="4.62246">
        <ele>151</ele>
        <time>29-03-2015T08:27:50Z</time>
      </trkpt>
      <trkpt lat="44.41678" lon="4.62245">
        <ele>151</ele>
        <time>29-03-2015T08:27:51Z</time>
      </trkpt>
      <trkpt lat="44.41684" lon="4.62241">
        <ele>151</ele>
        <time>29-03-2015T08:27:52Z</time>
      </trkpt>
      <trkpt lat="44.41691" lon="4.62237">
        <ele>151</ele>
        <time>29-03-2015T08:27:53Z</time>
      </trkpt>
      <trkpt lat="44.41697" lon="4.62233">
        <ele>149</ele>
        <time>29-03-2015T08:27:54Z</time>
      </trkpt>
      <trkpt lat="44.41705" lon="4.62229">
        <ele>149</ele>
        <time>29-03-2015T08:27:55Z</time>
      </trkpt>
      <trkpt lat="44.41712" lon="4.62226">
        <ele>149</ele>
        <time>29-03-2015T08:27:56Z</time>
      </trkpt>
      <trkpt lat="44.4172" lon="4.62221">
        <ele>149</ele>
        <time>29-03-2015T08:27:57Z</time>
      </trkpt>
      <trkpt lat="44.41727" lon="4.62217">
        <ele>149</ele>
        <time>29-03-2015T08:27:58Z</time>
      </trkpt>
      <trkpt lat="44.41734" lon="4.62212">
        <ele>147</ele>
        <time>29-03-2015T08:27:59Z</time>
      </trkpt>
      <trkpt lat="44.41741" lon="4.62208">
        <ele>147</ele>
        <time>29-03-2015T08:28:00Z</time>
      </trkpt>
      <trkpt lat="44.41748" lon="4.62203">
        <ele>147</ele>
        <time>29-03-2015T08:28:01Z</time>
      </trkpt>
      <trkpt lat="44.41754" lon="4.62199">
        <ele>147</ele>
        <time>29-03-2015T08:28:02Z</time>
      </trkpt>
      <trkpt lat="44.41761" lon="4.62196">
        <ele>147</ele>
        <time>29-03-2015T08:28:03Z</time>
      </trkpt>
      <trkpt lat="44.41768" lon="4.62194">
        <ele>143</ele>
        <time>29-03-2015T08:28:04Z</time>
      </trkpt>
      <trkpt lat="44.41775" lon="4.62193">
        <ele>143</ele>
        <time>29-03-2015T08:28:05Z</time>
      </trkpt>
      <trkpt lat="44.41781" lon="4.62193">
        <ele>143</ele>
        <time>29-03-2015T08:28:06Z</time>
      </trkpt>
      <trkpt lat="44.41787" lon="4.62193">
        <ele>143</ele>
        <time>29-03-2015T08:28:07Z</time>
      </trkpt>
      <trkpt lat="44.41793" lon="4.62195">
        <ele>143</ele>
        <time>29-03-2015T08:28:08Z</time>
      </trkpt>
      <trkpt lat="44.41801" lon="4.62197">
        <ele>140</ele>
        <time>29-03-2015T08:28:09Z</time>
      </trkpt>
      <trkpt lat="44.41806" lon="4.62199">
        <ele>140</ele>
        <time>29-03-2015T08:28:10Z</time>
      </trkpt>
      <trkpt lat="44.41813" lon="4.62202">
        <ele>140</ele>
        <time>29-03-2015T08:28:11Z</time>
      </trkpt>
      <trkpt lat="44.41821" lon="4.62204">
        <ele>140</ele>
        <time>29-03-2015T08:28:12Z</time>
      </trkpt>
      <trkpt lat="44.41829" lon="4.62207">
        <ele>140</ele>
        <time>29-03-2015T08:28:13Z</time>
      </trkpt>
      <trkpt lat="44.41836" lon="4.62209">
        <ele>139</ele>
        <time>29-03-2015T08:28:14Z</time>
      </trkpt>
      <trkpt lat="44.41844" lon="4.62212">
        <ele>139</ele>
        <time>29-03-2015T08:28:15Z</time>
      </trkpt>
      <trkpt lat="44.41853" lon="4.62214">
        <ele>139</ele>
        <time>29-03-2015T08:28:16Z</time>
      </trkpt>
      <trkpt lat="44.41859" lon="4.62218">
        <ele>139</ele>
        <time>29-03-2015T08:28:17Z</time>
      </trkpt>
      <trkpt lat="44.41867" lon="4.62222">
        <ele>139</ele>
        <time>29-03-2015T08:28:18Z</time>
      </trkpt>
      <trkpt lat="44.41874" lon="4.62222">
        <ele>136</ele>
        <time>29-03-2015T08:28:19Z</time>
      </trkpt>
      <trkpt lat="44.41879" lon="4.62227">
        <ele>136</ele>
        <time>29-03-2015T08:28:20Z</time>
      </trkpt>
      <trkpt lat="44.41886" lon="4.62229">
        <ele>136</ele>
        <time>29-03-2015T08:28:22Z</time>
      </trkpt>
      <trkpt lat="44.41894" lon="4.62225">
        <ele>135</ele>
        <time>29-03-2015T08:28:24Z</time>
      </trkpt>
      <trkpt lat="44.41899" lon="4.62223">
        <ele>135</ele>
        <time>29-03-2015T08:28:25Z</time>
      </trkpt>
      <trkpt lat="44.41907" lon="4.62221">
        <ele>135</ele>
        <time>29-03-2015T08:28:27Z</time>
      </trkpt>
      <trkpt lat="44.41915" lon="4.62218">
        <ele>134</ele>
        <time>29-03-2015T08:28:29Z</time>
      </trkpt>
      <trkpt lat="44.4192" lon="4.6221">
        <ele>134</ele>
        <time>29-03-2015T08:28:31Z</time>
      </trkpt>
      <trkpt lat="44.41924" lon="4.62203">
        <ele>134</ele>
        <time>29-03-2015T08:28:33Z</time>
      </trkpt>
      <trkpt lat="44.4193" lon="4.62195">
        <ele>134</ele>
        <time>29-03-2015T08:28:35Z</time>
      </trkpt>
      <trkpt lat="44.41935" lon="4.62187">
        <ele>134</ele>
        <time>29-03-2015T08:28:37Z</time>
      </trkpt>
      <trkpt lat="44.41938" lon="4.6218">
        <ele>134</ele>
        <time>29-03-2015T08:28:39Z</time>
      </trkpt>
      <trkpt lat="44.41941" lon="4.62173">
        <ele>134</ele>
        <time>29-03-2015T08:28:41Z</time>
      </trkpt>
      <trkpt lat="44.41943" lon="4.62164">
        <ele>134</ele>
        <time>29-03-2015T08:28:43Z</time>
      </trkpt>
      <trkpt lat="44.41948" lon="4.62153">
        <ele>134</ele>
        <time>29-03-2015T08:28:45Z</time>
      </trkpt>
      <trkpt lat="44.41954" lon="4.62142">
        <ele>134</ele>
        <time>29-03-2015T08:28:47Z</time>
      </trkpt>
      <trkpt lat="44.41959" lon="4.62138">
        <ele>135</ele>
        <time>29-03-2015T08:28:49Z</time>
      </trkpt>
      <trkpt lat="44.41965" lon="4.62135">
        <ele>135</ele>
        <time>29-03-2015T08:28:51Z</time>
      </trkpt>
      <trkpt lat="44.41972" lon="4.62133">
        <ele>135</ele>
        <time>29-03-2015T08:28:53Z</time>
      </trkpt>
      <trkpt lat="44.41978" lon="4.62129">
        <ele>137</ele>
        <time>29-03-2015T08:28:55Z</time>
      </trkpt>
      <trkpt lat="44.41984" lon="4.62123">
        <ele>137</ele>
        <time>29-03-2015T08:28:57Z</time>
      </trkpt>
      <trkpt lat="44.41991" lon="4.62118">
        <ele>137</ele>
        <time>29-03-2015T08:28:59Z</time>
      </trkpt>
      <trkpt lat="44.41997" lon="4.62113">
        <ele>137</ele>
        <time>29-03-2015T08:29:01Z</time>
      </trkpt>
      <trkpt lat="44.42002" lon="4.62105">
        <ele>137</ele>
        <time>29-03-2015T08:29:03Z</time>
      </trkpt>
      <trkpt lat="44.42006" lon="4.621">
        <ele>138</ele>
        <time>29-03-2015T08:29:05Z</time>
      </trkpt>
      <trkpt lat="44.42011" lon="4.62094">
        <ele>138</ele>
        <time>29-03-2015T08:29:07Z</time>
      </trkpt>
      <trkpt lat="44.42016" lon="4.62092">
        <ele>138</ele>
        <time>29-03-2015T08:29:08Z</time>
      </trkpt>
      <trkpt lat="44.42022" lon="4.62089">
        <ele>136</ele>
        <time>29-03-2015T08:29:09Z</time>
      </trkpt>
      <trkpt lat="44.42027" lon="4.62088">
        <ele>136</ele>
        <time>29-03-2015T08:29:10Z</time>
      </trkpt>
      <trkpt lat="44.42033" lon="4.62086">
        <ele>136</ele>
        <time>29-03-2015T08:29:11Z</time>
      </trkpt>
      <trkpt lat="44.42037" lon="4.62084">
        <ele>136</ele>
        <time>29-03-2015T08:29:12Z</time>
      </trkpt>
      <trkpt lat="44.42044" lon="4.62081">
        <ele>134</ele>
        <time>29-03-2015T08:29:14Z</time>
      </trkpt>
      <trkpt lat="44.42047" lon="4.62075">
        <ele>134</ele>
        <time>29-03-2015T08:29:16Z</time>
      </trkpt>
      <trkpt lat="44.42044" lon="4.62069">
        <ele>134</ele>
        <time>29-03-2015T08:29:18Z</time>
      </trkpt>
      <trkpt lat="44.42039" lon="4.62062">
        <ele>133</ele>
        <time>29-03-2015T08:29:20Z</time>
      </trkpt>
      <trkpt lat="44.42036" lon="4.62056">
        <ele>133</ele>
        <time>29-03-2015T08:29:21Z</time>
      </trkpt>
      <trkpt lat="44.42033" lon="4.62049">
        <ele>133</ele>
        <time>29-03-2015T08:29:22Z</time>
      </trkpt>
      <trkpt lat="44.4203" lon="4.62043">
        <ele>133</ele>
        <time>29-03-2015T08:29:23Z</time>
      </trkpt>
      <trkpt lat="44.42027" lon="4.62035">
        <ele>131</ele>
        <time>29-03-2015T08:29:24Z</time>
      </trkpt>
      <trkpt lat="44.42025" lon="4.62029">
        <ele>131</ele>
        <time>29-03-2015T08:29:25Z</time>
      </trkpt>
      <trkpt lat="44.42024" lon="4.62017">
        <ele>131</ele>
        <time>29-03-2015T08:29:27Z</time>
      </trkpt>
      <trkpt lat="44.42026" lon="4.62011">
        <ele>131</ele>
        <time>29-03-2015T08:29:28Z</time>
      </trkpt>
      <trkpt lat="44.42028" lon="4.62003">
        <ele>130</ele>
        <time>29-03-2015T08:29:29Z</time>
      </trkpt>
      <trkpt lat="44.42031" lon="4.61997">
        <ele>130</ele>
        <time>29-03-2015T08:29:30Z</time>
      </trkpt>
      <trkpt lat="44.42036" lon="4.61991">
        <ele>130</ele>
        <time>29-03-2015T08:29:31Z</time>
      </trkpt>
      <trkpt lat="44.4204" lon="4.61985">
        <ele>130</ele>
        <time>29-03-2015T08:29:32Z</time>
      </trkpt>
      <trkpt lat="44.42043" lon="4.61974">
        <ele>130</ele>
        <time>29-03-2015T08:29:34Z</time>
      </trkpt>
      <trkpt lat="44.42046" lon="4.61967">
        <ele>130</ele>
        <time>29-03-2015T08:29:35Z</time>
      </trkpt>
      <trkpt lat="44.42049" lon="4.61957">
        <ele>130</ele>
        <time>29-03-2015T08:29:37Z</time>
      </trkpt>
      <trkpt lat="44.42053" lon="4.61951">
        <ele>130</ele>
        <time>29-03-2015T08:29:38Z</time>
      </trkpt>
      <trkpt lat="44.42057" lon="4.61947">
        <ele>131</ele>
        <time>29-03-2015T08:29:39Z</time>
      </trkpt>
      <trkpt lat="44.42064" lon="4.61941">
        <ele>131</ele>
        <time>29-03-2015T08:29:41Z</time>
      </trkpt>
      <trkpt lat="44.42069" lon="4.61943">
        <ele>131</ele>
        <time>29-03-2015T08:29:42Z</time>
      </trkpt>
      <trkpt lat="44.42079" lon="4.61945">
        <ele>131</ele>
        <time>29-03-2015T08:29:44Z</time>
      </trkpt>
      <trkpt lat="44.42083" lon="4.61946">
        <ele>131</ele>
        <time>29-03-2015T08:29:45Z</time>
      </trkpt>
      <trkpt lat="44.42089" lon="4.61948">
        <ele>131</ele>
        <time>29-03-2015T08:29:46Z</time>
      </trkpt>
      <trkpt lat="44.42096" lon="4.61948">
        <ele>131</ele>
        <time>29-03-2015T08:29:47Z</time>
      </trkpt>
      <trkpt lat="44.42103" lon="4.6195">
        <ele>131</ele>
        <time>29-03-2015T08:29:48Z</time>
      </trkpt>
      <trkpt lat="44.42109" lon="4.6195">
        <ele>131</ele>
        <time>29-03-2015T08:29:49Z</time>
      </trkpt>
      <trkpt lat="44.42115" lon="4.61951">
        <ele>131</ele>
        <time>29-03-2015T08:29:50Z</time>
      </trkpt>
      <trkpt lat="44.42121" lon="4.61951">
        <ele>131</ele>
        <time>29-03-2015T08:29:51Z</time>
      </trkpt>
      <trkpt lat="44.42128" lon="4.61952">
        <ele>131</ele>
        <time>29-03-2015T08:29:52Z</time>
      </trkpt>
      <trkpt lat="44.42134" lon="4.61953">
        <ele>131</ele>
        <time>29-03-2015T08:29:53Z</time>
      </trkpt>
      <trkpt lat="44.42141" lon="4.61954">
        <ele>131</ele>
        <time>29-03-2015T08:29:54Z</time>
      </trkpt>
      <trkpt lat="44.42146" lon="4.61955">
        <ele>131</ele>
        <time>29-03-2015T08:29:55Z</time>
      </trkpt>
      <trkpt lat="44.42153" lon="4.6196">
        <ele>131</ele>
        <time>29-03-2015T08:29:56Z</time>
      </trkpt>
      <trkpt lat="44.42157" lon="4.61964">
        <ele>131</ele>
        <time>29-03-2015T08:29:57Z</time>
      </trkpt>
      <trkpt lat="44.42162" lon="4.61968">
        <ele>131</ele>
        <time>29-03-2015T08:29:58Z</time>
      </trkpt>
      <trkpt lat="44.42168" lon="4.61972">
        <ele>128</ele>
        <time>29-03-2015T08:29:59Z</time>
      </trkpt>
      <trkpt lat="44.42174" lon="4.61978">
        <ele>128</ele>
        <time>29-03-2015T08:30:00Z</time>
      </trkpt>
      <trkpt lat="44.42178" lon="4.61982">
        <ele>128</ele>
        <time>29-03-2015T08:30:01Z</time>
      </trkpt>
      <trkpt lat="44.42182" lon="4.61987">
        <ele>128</ele>
        <time>29-03-2015T08:30:02Z</time>
      </trkpt>
      <trkpt lat="44.42185" lon="4.62001">
        <ele>123</ele>
        <time>29-03-2015T08:30:04Z</time>
      </trkpt>
      <trkpt lat="44.42185" lon="4.6201">
        <ele>123</ele>
        <time>29-03-2015T08:30:05Z</time>
      </trkpt>
      <trkpt lat="44.42186" lon="4.62019">
        <ele>123</ele>
        <time>29-03-2015T08:30:06Z</time>
      </trkpt>
      <trkpt lat="44.42192" lon="4.62028">
        <ele>123</ele>
        <time>29-03-2015T08:30:08Z</time>
      </trkpt>
      <trkpt lat="44.42198" lon="4.6203">
        <ele>119</ele>
        <time>29-03-2015T08:30:09Z</time>
      </trkpt>
      <trkpt lat="44.42202" lon="4.62031">
        <ele>119</ele>
        <time>29-03-2015T08:30:10Z</time>
      </trkpt>
      <trkpt lat="44.42207" lon="4.62031">
        <ele>119</ele>
        <time>29-03-2015T08:30:11Z</time>
      </trkpt>
      <trkpt lat="44.42213" lon="4.6203">
        <ele>119</ele>
        <time>29-03-2015T08:30:12Z</time>
      </trkpt>
      <trkpt lat="44.42218" lon="4.62032">
        <ele>119</ele>
        <time>29-03-2015T08:30:13Z</time>
      </trkpt>
      <trkpt lat="44.42223" lon="4.62032">
        <ele>119</ele>
        <time>29-03-2015T08:30:14Z</time>
      </trkpt>
      <trkpt lat="44.42227" lon="4.62039">
        <ele>119</ele>
        <time>29-03-2015T08:30:15Z</time>
      </trkpt>
      <trkpt lat="44.42233" lon="4.62046">
        <ele>119</ele>
        <time>29-03-2015T08:30:16Z</time>
      </trkpt>
      <trkpt lat="44.42237" lon="4.62057">
        <ele>119</ele>
        <time>29-03-2015T08:30:17Z</time>
      </trkpt>
      <trkpt lat="44.4224" lon="4.62067">
        <ele>119</ele>
        <time>29-03-2015T08:30:18Z</time>
      </trkpt>
      <trkpt lat="44.42243" lon="4.62078">
        <ele>117</ele>
        <time>29-03-2015T08:30:19Z</time>
      </trkpt>
      <trkpt lat="44.42246" lon="4.62088">
        <ele>117</ele>
        <time>29-03-2015T08:30:20Z</time>
      </trkpt>
      <trkpt lat="44.42247" lon="4.62097">
        <ele>117</ele>
        <time>29-03-2015T08:30:21Z</time>
      </trkpt>
      <trkpt lat="44.4225" lon="4.62106">
        <ele>117</ele>
        <time>29-03-2015T08:30:22Z</time>
      </trkpt>
      <trkpt lat="44.42253" lon="4.62114">
        <ele>117</ele>
        <time>29-03-2015T08:30:23Z</time>
      </trkpt>
      <trkpt lat="44.42258" lon="4.62123">
        <ele>115</ele>
        <time>29-03-2015T08:30:24Z</time>
      </trkpt>
      <trkpt lat="44.42263" lon="4.62131">
        <ele>115</ele>
        <time>29-03-2015T08:30:25Z</time>
      </trkpt>
      <trkpt lat="44.42269" lon="4.6214">
        <ele>115</ele>
        <time>29-03-2015T08:30:26Z</time>
      </trkpt>
      <trkpt lat="44.42272" lon="4.62147">
        <ele>115</ele>
        <time>29-03-2015T08:30:27Z</time>
      </trkpt>
      <trkpt lat="44.42275" lon="4.62154">
        <ele>115</ele>
        <time>29-03-2015T08:30:28Z</time>
      </trkpt>
      <trkpt lat="44.42278" lon="4.62162">
        <ele>106</ele>
        <time>29-03-2015T08:30:29Z</time>
      </trkpt>
      <trkpt lat="44.42281" lon="4.62171">
        <ele>106</ele>
        <time>29-03-2015T08:30:30Z</time>
      </trkpt>
      <trkpt lat="44.42284" lon="4.62179">
        <ele>106</ele>
        <time>29-03-2015T08:30:31Z</time>
      </trkpt>
      <trkpt lat="44.42289" lon="4.62186">
        <ele>106</ele>
        <time>29-03-2015T08:30:32Z</time>
      </trkpt>
      <trkpt lat="44.42294" lon="4.62192">
        <ele>106</ele>
        <time>29-03-2015T08:30:33Z</time>
      </trkpt>
      <trkpt lat="44.42299" lon="4.622">
        <ele>102</ele>
        <time>29-03-2015T08:30:34Z</time>
      </trkpt>
      <trkpt lat="44.42304" lon="4.62208">
        <ele>102</ele>
        <time>29-03-2015T08:30:35Z</time>
      </trkpt>
      <trkpt lat="44.42309" lon="4.62212">
        <ele>102</ele>
        <time>29-03-2015T08:30:36Z</time>
      </trkpt>
      <trkpt lat="44.42313" lon="4.62217">
        <ele>102</ele>
        <time>29-03-2015T08:30:37Z</time>
      </trkpt>
      <trkpt lat="44.42317" lon="4.62223">
        <ele>102</ele>
        <time>29-03-2015T08:30:38Z</time>
      </trkpt>
      <trkpt lat="44.42323" lon="4.62226">
        <ele>102</ele>
        <time>29-03-2015T08:30:39Z</time>
      </trkpt>
      <trkpt lat="44.42328" lon="4.6223">
        <ele>102</ele>
        <time>29-03-2015T08:30:40Z</time>
      </trkpt>
      <trkpt lat="44.42334" lon="4.62234">
        <ele>102</ele>
        <time>29-03-2015T08:30:41Z</time>
      </trkpt>
      <trkpt lat="44.42339" lon="4.62238">
        <ele>102</ele>
        <time>29-03-2015T08:30:42Z</time>
      </trkpt>
      <trkpt lat="44.42345" lon="4.62244">
        <ele>102</ele>
        <time>29-03-2015T08:30:43Z</time>
      </trkpt>
      <trkpt lat="44.42352" lon="4.62248">
        <ele>100</ele>
        <time>29-03-2015T08:30:44Z</time>
      </trkpt>
      <trkpt lat="44.42357" lon="4.62253">
        <ele>100</ele>
        <time>29-03-2015T08:30:45Z</time>
      </trkpt>
      <trkpt lat="44.42362" lon="4.62257">
        <ele>100</ele>
        <time>29-03-2015T08:30:46Z</time>
      </trkpt>
      <trkpt lat="44.42366" lon="4.6226">
        <ele>100</ele>
        <time>29-03-2015T08:30:47Z</time>
      </trkpt>
      <trkpt lat="44.42372" lon="4.62264">
        <ele>100</ele>
        <time>29-03-2015T08:30:48Z</time>
      </trkpt>
      <trkpt lat="44.42376" lon="4.62267">
        <ele>99</ele>
        <time>29-03-2015T08:30:49Z</time>
      </trkpt>
      <trkpt lat="44.42382" lon="4.62272">
        <ele>99</ele>
        <time>29-03-2015T08:30:50Z</time>
      </trkpt>
      <trkpt lat="44.42386" lon="4.62275">
        <ele>99</ele>
        <time>29-03-2015T08:30:51Z</time>
      </trkpt>
      <trkpt lat="44.42392" lon="4.62278">
        <ele>99</ele>
        <time>29-03-2015T08:30:52Z</time>
      </trkpt>
      <trkpt lat="44.42397" lon="4.62282">
        <ele>99</ele>
        <time>29-03-2015T08:30:53Z</time>
      </trkpt>
      <trkpt lat="44.42402" lon="4.62286">
        <ele>99</ele>
        <time>29-03-2015T08:30:54Z</time>
      </trkpt>
      <trkpt lat="44.42407" lon="4.62291">
        <ele>99</ele>
        <time>29-03-2015T08:30:55Z</time>
      </trkpt>
      <trkpt lat="44.42412" lon="4.62294">
        <ele>99</ele>
        <time>29-03-2015T08:30:56Z</time>
      </trkpt>
      <trkpt lat="44.42418" lon="4.62299">
        <ele>99</ele>
        <time>29-03-2015T08:30:57Z</time>
      </trkpt>
      <trkpt lat="44.42422" lon="4.62303">
        <ele>99</ele>
        <time>29-03-2015T08:30:58Z</time>
      </trkpt>
      <trkpt lat="44.42427" lon="4.62307">
        <ele>100</ele>
        <time>29-03-2015T08:30:59Z</time>
      </trkpt>
      <trkpt lat="44.42431" lon="4.62309">
        <ele>100</ele>
        <time>29-03-2015T08:31:00Z</time>
      </trkpt>
      <trkpt lat="44.42436" lon="4.62313">
        <ele>100</ele>
        <time>29-03-2015T08:31:01Z</time>
      </trkpt>
      <trkpt lat="44.42441" lon="4.62316">
        <ele>100</ele>
        <time>29-03-2015T08:31:02Z</time>
      </trkpt>
      <trkpt lat="44.42446" lon="4.6232">
        <ele>100</ele>
        <time>29-03-2015T08:31:03Z</time>
      </trkpt>
      <trkpt lat="44.42451" lon="4.62326">
        <ele>100</ele>
        <time>29-03-2015T08:31:04Z</time>
      </trkpt>
      <trkpt lat="44.4246" lon="4.62332">
        <ele>100</ele>
        <time>29-03-2015T08:31:06Z</time>
      </trkpt>
      <trkpt lat="44.42465" lon="4.62336">
        <ele>100</ele>
        <time>29-03-2015T08:31:07Z</time>
      </trkpt>
      <trkpt lat="44.4247" lon="4.6234">
        <ele>100</ele>
        <time>29-03-2015T08:31:08Z</time>
      </trkpt>
      <trkpt lat="44.42475" lon="4.62345">
        <ele>100</ele>
        <time>29-03-2015T08:31:09Z</time>
      </trkpt>
      <trkpt lat="44.42479" lon="4.62348">
        <ele>100</ele>
        <time>29-03-2015T08:31:10Z</time>
      </trkpt>
      <trkpt lat="44.42483" lon="4.62352">
        <ele>100</ele>
        <time>29-03-2015T08:31:11Z</time>
      </trkpt>
      <trkpt lat="44.42489" lon="4.62356">
        <ele>100</ele>
        <time>29-03-2015T08:31:13Z</time>
      </trkpt>
      <trkpt lat="44.42492" lon="4.62349">
        <ele>98</ele>
        <time>29-03-2015T08:31:16Z</time>
      </trkpt>
      <trkpt lat="44.42492" lon="4.62342">
        <ele>98</ele>
        <time>29-03-2015T08:31:18Z</time>
      </trkpt>
      <trkpt lat="44.42496" lon="4.62337">
        <ele>99</ele>
        <time>29-03-2015T08:31:20Z</time>
      </trkpt>
      <trkpt lat="44.42499" lon="4.62331">
        <ele>99</ele>
        <time>29-03-2015T08:31:22Z</time>
      </trkpt>
      <trkpt lat="44.42503" lon="4.62328">
        <ele>99</ele>
        <time>29-03-2015T08:31:24Z</time>
      </trkpt>
      <trkpt lat="44.4251" lon="4.62324">
        <ele>99</ele>
        <time>29-03-2015T08:31:27Z</time>
      </trkpt>
      <trkpt lat="44.42514" lon="4.62319">
        <ele>102</ele>
        <time>29-03-2015T08:31:29Z</time>
      </trkpt>
      <trkpt lat="44.42519" lon="4.62316">
        <ele>102</ele>
        <time>29-03-2015T08:31:31Z</time>
      </trkpt>
      <trkpt lat="44.42524" lon="4.62314">
        <ele>103</ele>
        <time>29-03-2015T08:31:34Z</time>
      </trkpt>
      <trkpt lat="44.42529" lon="4.62316">
        <ele>103</ele>
        <time>29-03-2015T08:31:37Z</time>
      </trkpt>
      <trkpt lat="44.42534" lon="4.62317">
        <ele>103</ele>
        <time>29-03-2015T08:31:40Z</time>
      </trkpt>
      <trkpt lat="44.42538" lon="4.62313">
        <ele>104</ele>
        <time>29-03-2015T08:31:44Z</time>
      </trkpt>
      <trkpt lat="44.42539" lon="4.6231">
        <ele>105</ele>
        <time>29-03-2015T08:31:49Z</time>
      </trkpt>
      <trkpt lat="44.42539" lon="4.62313">
        <ele>105</ele>
        <time>29-03-2015T08:31:54Z</time>
      </trkpt>
      <trkpt lat="44.42539" lon="4.62312">
        <ele>105</ele>
        <time>29-03-2015T08:31:59Z</time>
      </trkpt>
      <trkpt lat="44.4254" lon="4.62313">
        <ele>105</ele>
        <time>29-03-2015T08:32:04Z</time>
      </trkpt>
      <trkpt lat="44.42541" lon="4.6232">
        <ele>105</ele>
        <time>29-03-2015T08:32:08Z</time>
      </trkpt>
      <trkpt lat="44.42541" lon="4.6232">
        <ele>105</ele>
        <time>29-03-2015T08:32:13Z</time>
      </trkpt>
      <trkpt lat="44.42539" lon="4.62324">
        <ele>105</ele>
        <time>29-03-2015T08:32:18Z</time>
      </trkpt>
      <trkpt lat="44.4254" lon="4.62317">
        <ele>105</ele>
        <time>29-03-2015T08:32:22Z</time>
      </trkpt>
      <trkpt lat="44.42539" lon="4.62317">
        <ele>105</ele>
        <time>29-03-2015T08:32:27Z</time>
      </trkpt>
      <trkpt lat="44.4254" lon="4.62318">
        <ele>105</ele>
        <time>29-03-2015T08:32:32Z</time>
      </trkpt>
      <trkpt lat="44.4254" lon="4.62318">
        <ele>105</ele>
        <time>29-03-2015T08:32:37Z</time>
      </trkpt>
      <trkpt lat="44.42542" lon="4.62315">
        <ele>105</ele>
        <time>29-03-2015T08:32:42Z</time>
      </trkpt>
      <trkpt lat="44.4254" lon="4.62311">
        <ele>105</ele>
        <time>29-03-2015T08:32:47Z</time>
      </trkpt>
      <trkpt lat="44.42543" lon="4.62315">
        <ele>105</ele>
        <time>29-03-2015T08:32:52Z</time>
      </trkpt>
      <trkpt lat="44.42542" lon="4.62315">
        <ele>104</ele>
        <time>29-03-2015T08:32:57Z</time>
      </trkpt>
      <trkpt lat="44.42541" lon="4.62316">
        <ele>104</ele>
        <time>29-03-2015T08:33:02Z</time>
      </trkpt>
      <trkpt lat="44.42543" lon="4.62318">
        <ele>104</ele>
        <time>29-03-2015T08:33:07Z</time>
      </trkpt>
      <trkpt lat="44.42543" lon="4.62318">
        <ele>104</ele>
        <time>29-03-2015T08:33:12Z</time>
      </trkpt>
      <trkpt lat="44.4254" lon="4.62317">
        <ele>104</ele>
        <time>29-03-2015T08:33:17Z</time>
      </trkpt>
      <trkpt lat="44.42541" lon="4.62316">
        <ele>104</ele>
        <time>29-03-2015T08:33:22Z</time>
      </trkpt>
      <trkpt lat="44.4254" lon="4.62318">
        <ele>104</ele>
        <time>29-03-2015T08:33:27Z</time>
      </trkpt>
      <trkpt lat="44.4254" lon="4.62317">
        <ele>104</ele>
        <time>29-03-2015T08:33:32Z</time>
      </trkpt>
      <trkpt lat="44.4254" lon="4.62316">
        <ele>104</ele>
        <time>29-03-2015T08:33:37Z</time>
      </trkpt>
      <trkpt lat="44.42541" lon="4.62317">
        <ele>104</ele>
        <time>29-03-2015T08:33:42Z</time>
      </trkpt>
      <trkpt lat="44.42541" lon="4.62317">
        <ele>104</ele>
        <time>29-03-2015T08:33:47Z</time>
      </trkpt>
      <trkpt lat="44.4254" lon="4.62318">
        <ele>104</ele>
        <time>29-03-2015T08:33:52Z</time>
      </trkpt>
      <trkpt lat="44.42539" lon="4.6232">
        <ele>104</ele>
        <time>29-03-2015T08:33:57Z</time>
      </trkpt>
      <trkpt lat="44.4254" lon="4.62319">
        <ele>104</ele>
        <time>29-03-2015T08:34:07Z</time>
      </trkpt>
      <trkpt lat="44.4254" lon="4.62318">
        <ele>104</ele>
        <time>29-03-2015T08:34:12Z</time>
      </trkpt>
      <trkpt lat="44.42542" lon="4.62318">
        <ele>104</ele>
        <time>29-03-2015T08:34:17Z</time>
      </trkpt>
      <trkpt lat="44.42541" lon="4.62317">
        <ele>104</ele>
        <time>29-03-2015T08:34:22Z</time>
      </trkpt>
      <trkpt lat="44.42542" lon="4.62317">
        <ele>104</ele>
        <time>29-03-2015T08:34:27Z</time>
      </trkpt>
      <trkpt lat="44.42542" lon="4.62317">
        <ele>104</ele>
        <time>29-03-2015T08:34:32Z</time>
      </trkpt>
      <trkpt lat="44.42542" lon="4.62315">
        <ele>104</ele>
        <time>29-03-2015T08:34:37Z</time>
      </trkpt>
      <trkpt lat="44.42541" lon="4.62314">
        <ele>104</ele>
        <time>29-03-2015T08:34:42Z</time>
      </trkpt>
      <trkpt lat="44.42541" lon="4.62314">
        <ele>104</ele>
        <time>29-03-2015T08:34:47Z</time>
      </trkpt>
      <trkpt lat="44.42541" lon="4.62314">
        <ele>104</ele>
        <time>29-03-2015T08:34:52Z</time>
      </trkpt>
      <trkpt lat="44.42541" lon="4.62315">
        <ele>104</ele>
        <time>29-03-2015T08:34:57Z</time>
      </trkpt>
      <trkpt lat="44.42541" lon="4.62315">
        <ele>104</ele>
        <time>29-03-2015T08:35:02Z</time>
      </trkpt>
      <trkpt lat="44.42541" lon="4.62316">
        <ele>104</ele>
        <time>29-03-2015T08:35:07Z</time>
      </trkpt>
      <trkpt lat="44.42541" lon="4.62316">
        <ele>104</ele>
        <time>29-03-2015T08:35:12Z</time>
      </trkpt>
      <trkpt lat="44.4254" lon="4.62317">
        <ele>105</ele>
        <time>29-03-2015T08:35:17Z</time>
      </trkpt>
      <trkpt lat="44.4254" lon="4.62316">
        <ele>105</ele>
        <time>29-03-2015T08:35:22Z</time>
      </trkpt>
      <trkpt lat="44.4254" lon="4.62317">
        <ele>105</ele>
        <time>29-03-2015T08:35:27Z</time>
      </trkpt>
      <trkpt lat="44.4254" lon="4.62316">
        <ele>105</ele>
        <time>29-03-2015T08:35:32Z</time>
      </trkpt>
      <trkpt lat="44.4254" lon="4.62317">
        <ele>105</ele>
        <time>29-03-2015T08:35:37Z</time>
      </trkpt>
      <trkpt lat="44.42542" lon="4.6232">
        <ele>105</ele>
        <time>29-03-2015T08:35:42Z</time>
      </trkpt>
      <trkpt lat="44.42541" lon="4.62317">
        <ele>105</ele>
        <time>29-03-2015T08:35:47Z</time>
      </trkpt>
      <trkpt lat="44.42542" lon="4.62318">
        <ele>105</ele>
        <time>29-03-2015T08:35:52Z</time>
      </trkpt>
      <trkpt lat="44.42545" lon="4.62316">
        <ele>105</ele>
        <time>29-03-2015T08:35:57Z</time>
      </trkpt>
      <trkpt lat="44.42542" lon="4.62312">
        <ele>105</ele>
        <time>29-03-2015T08:36:02Z</time>
      </trkpt>
      <trkpt lat="44.42542" lon="4.62313">
        <ele>105</ele>
        <time>29-03-2015T08:36:07Z</time>
      </trkpt>
      <trkpt lat="44.42542" lon="4.62311">
        <ele>105</ele>
        <time>29-03-2015T08:36:12Z</time>
      </trkpt>
      <trkpt lat="44.42543" lon="4.62312">
        <ele>105</ele>
        <time>29-03-2015T08:36:17Z</time>
      </trkpt>
      <trkpt lat="44.42544" lon="4.62314">
        <ele>105</ele>
        <time>29-03-2015T08:36:22Z</time>
      </trkpt>
      <trkpt lat="44.42542" lon="4.62312">
        <ele>105</ele>
        <time>29-03-2015T08:36:27Z</time>
      </trkpt>
      <trkpt lat="44.42541" lon="4.6231">
        <ele>105</ele>
        <time>29-03-2015T08:36:32Z</time>
      </trkpt>
      <trkpt lat="44.42539" lon="4.62309">
        <ele>105</ele>
        <time>29-03-2015T08:36:37Z</time>
      </trkpt>
      <trkpt lat="44.4254" lon="4.62308">
        <ele>105</ele>
        <time>29-03-2015T08:36:42Z</time>
      </trkpt>
      <trkpt lat="44.4254" lon="4.62308">
        <ele>105</ele>
        <time>29-03-2015T08:36:47Z</time>
      </trkpt>
      <trkpt lat="44.42539" lon="4.62309">
        <ele>105</ele>
        <time>29-03-2015T08:36:52Z</time>
      </trkpt>
      <trkpt lat="44.42543" lon="4.62313">
        <ele>105</ele>
        <time>29-03-2015T08:36:55Z</time>
      </trkpt>
      <trkpt lat="44.42549" lon="4.62318">
        <ele>105</ele>
        <time>29-03-2015T08:36:57Z</time>
      </trkpt>
      <trkpt lat="44.42556" lon="4.62323">
        <ele>105</ele>
        <time>29-03-2015T08:37:01Z</time>
      </trkpt>
      <trkpt lat="44.42562" lon="4.62329">
        <ele>105</ele>
        <time>29-03-2015T08:37:03Z</time>
      </trkpt>
      <trkpt lat="44.42566" lon="4.62333">
        <ele>105</ele>
        <time>29-03-2015T08:37:04Z</time>
      </trkpt>
      <trkpt lat="44.42569" lon="4.62339">
        <ele>105</ele>
        <time>29-03-2015T08:37:07Z</time>
      </trkpt>
      <trkpt lat="44.42577" lon="4.6234">
        <ele>105</ele>
        <time>29-03-2015T08:37:08Z</time>
      </trkpt>
      <trkpt lat="44.42584" lon="4.62345">
        <ele>105</ele>
        <time>29-03-2015T08:37:10Z</time>
      </trkpt>
      <trkpt lat="44.42591" lon="4.62347">
        <ele>105</ele>
        <time>29-03-2015T08:37:11Z</time>
      </trkpt>
      <trkpt lat="44.42597" lon="4.62349">
        <ele>105</ele>
        <time>29-03-2015T08:37:12Z</time>
      </trkpt>
      <trkpt lat="44.42604" lon="4.62343">
        <ele>105</ele>
        <time>29-03-2015T08:37:14Z</time>
      </trkpt>
      <trkpt lat="44.42608" lon="4.62339">
        <ele>105</ele>
        <time>29-03-2015T08:37:16Z</time>
      </trkpt>
      <trkpt lat="44.42612" lon="4.62336">
        <ele>106</ele>
        <time>29-03-2015T08:37:20Z</time>
      </trkpt>
      <trkpt lat="44.42614" lon="4.62326">
        <ele>106</ele>
        <time>29-03-2015T08:37:23Z</time>
      </trkpt>
      <trkpt lat="44.42613" lon="4.62318">
        <ele>108</ele>
        <time>29-03-2015T08:37:28Z</time>
      </trkpt>
      <trkpt lat="44.42611" lon="4.62312">
        <ele>109</ele>
        <time>29-03-2015T08:37:30Z</time>
      </trkpt>
      <trkpt lat="44.42606" lon="4.62307">
        <ele>109</ele>
        <time>29-03-2015T08:37:32Z</time>
      </trkpt>
      <trkpt lat="44.42604" lon="4.62303">
        <ele>111</ele>
        <time>29-03-2015T08:37:37Z</time>
      </trkpt>
      <trkpt lat="44.42601" lon="4.62297">
        <ele>113</ele>
        <time>29-03-2015T08:37:40Z</time>
      </trkpt>
      <trkpt lat="44.42597" lon="4.62294">
        <ele>114</ele>
        <time>29-03-2015T08:37:44Z</time>
      </trkpt>
      <trkpt lat="44.42592" lon="4.62287">
        <ele>114</ele>
        <time>29-03-2015T08:37:48Z</time>
      </trkpt>
      <trkpt lat="44.42589" lon="4.62282">
        <ele>116</ele>
        <time>29-03-2015T08:37:52Z</time>
      </trkpt>
      <trkpt lat="44.42585" lon="4.62278">
        <ele>116</ele>
        <time>29-03-2015T08:37:56Z</time>
      </trkpt>
      <trkpt lat="44.42584" lon="4.62271">
        <ele>118</ele>
        <time>29-03-2015T08:38:00Z</time>
      </trkpt>
      <trkpt lat="44.42584" lon="4.62268">
        <ele>119</ele>
        <time>29-03-2015T08:38:05Z</time>
      </trkpt>
      <trkpt lat="44.42578" lon="4.62264">
        <ele>119</ele>
        <time>29-03-2015T08:38:08Z</time>
      </trkpt>
      <trkpt lat="44.42573" lon="4.62257">
        <ele>121</ele>
        <time>29-03-2015T08:38:10Z</time>
      </trkpt>
      <trkpt lat="44.42569" lon="4.62252">
        <ele>121</ele>
        <time>29-03-2015T08:38:13Z</time>
      </trkpt>
      <trkpt lat="44.42567" lon="4.62247">
        <ele>121</ele>
        <time>29-03-2015T08:38:18Z</time>
      </trkpt>
      <trkpt lat="44.42564" lon="4.6224">
        <ele>122</ele>
        <time>29-03-2015T08:38:22Z</time>
      </trkpt>
      <trkpt lat="44.4256" lon="4.62235">
        <ele>123</ele>
        <time>29-03-2015T08:38:24Z</time>
      </trkpt>
      <trkpt lat="44.42556" lon="4.62231">
        <ele>124</ele>
        <time>29-03-2015T08:38:29Z</time>
      </trkpt>
      <trkpt lat="44.42555" lon="4.62228">
        <ele>125</ele>
        <time>29-03-2015T08:38:34Z</time>
      </trkpt>
      <trkpt lat="44.4255" lon="4.62223">
        <ele>125</ele>
        <time>29-03-2015T08:38:36Z</time>
      </trkpt>
      <trkpt lat="44.42544" lon="4.62218">
        <ele>125</ele>
        <time>29-03-2015T08:38:38Z</time>
      </trkpt>
      <trkpt lat="44.42538" lon="4.62215">
        <ele>126</ele>
        <time>29-03-2015T08:38:39Z</time>
      </trkpt>
      <trkpt lat="44.42534" lon="4.62212">
        <ele>126</ele>
        <time>29-03-2015T08:38:41Z</time>
      </trkpt>
      <trkpt lat="44.4253" lon="4.62209">
        <ele>127</ele>
        <time>29-03-2015T08:38:46Z</time>
      </trkpt>
      <trkpt lat="44.42533" lon="4.62206">
        <ele>127</ele>
        <time>29-03-2015T08:38:51Z</time>
      </trkpt>
      <trkpt lat="44.42533" lon="4.62199">
        <ele>129</ele>
        <time>29-03-2015T08:38:55Z</time>
      </trkpt>
      <trkpt lat="44.42535" lon="4.62193">
        <ele>129</ele>
        <time>29-03-2015T08:38:56Z</time>
      </trkpt>
      <trkpt lat="44.4254" lon="4.62185">
        <ele>130</ele>
        <time>29-03-2015T08:38:59Z</time>
      </trkpt>
      <trkpt lat="44.42544" lon="4.62179">
        <ele>130</ele>
        <time>29-03-2015T08:39:02Z</time>
      </trkpt>
      <trkpt lat="44.42546" lon="4.62177">
        <ele>131</ele>
        <time>29-03-2015T08:39:07Z</time>
      </trkpt>
      <trkpt lat="44.42547" lon="4.62175">
        <ele>133</ele>
        <time>29-03-2015T08:39:12Z</time>
      </trkpt>
      <trkpt lat="44.42546" lon="4.62169">
        <ele>134</ele>
        <time>29-03-2015T08:39:17Z</time>
      </trkpt>
      <trkpt lat="44.42545" lon="4.62162">
        <ele>134</ele>
        <time>29-03-2015T08:39:21Z</time>
      </trkpt>
      <trkpt lat="44.42546" lon="4.62156">
        <ele>135</ele>
        <time>29-03-2015T08:39:25Z</time>
      </trkpt>
      <trkpt lat="44.42547" lon="4.62148">
        <ele>135</ele>
        <time>29-03-2015T08:39:28Z</time>
      </trkpt>
      <trkpt lat="44.42546" lon="4.6214">
        <ele>137</ele>
        <time>29-03-2015T08:39:30Z</time>
      </trkpt>
      <trkpt lat="44.42544" lon="4.62134">
        <ele>137</ele>
        <time>29-03-2015T08:39:32Z</time>
      </trkpt>
      <trkpt lat="44.42541" lon="4.62128">
        <ele>138</ele>
        <time>29-03-2015T08:39:34Z</time>
      </trkpt>
      <trkpt lat="44.42538" lon="4.6212">
        <ele>138</ele>
        <time>29-03-2015T08:39:38Z</time>
      </trkpt>
      <trkpt lat="44.42536" lon="4.62112">
        <ele>139</ele>
        <time>29-03-2015T08:39:42Z</time>
      </trkpt>
      <trkpt lat="44.42533" lon="4.62105">
        <ele>141</ele>
        <time>29-03-2015T08:39:45Z</time>
      </trkpt>
      <trkpt lat="44.42529" lon="4.621">
        <ele>141</ele>
        <time>29-03-2015T08:39:48Z</time>
      </trkpt>
      <trkpt lat="44.42528" lon="4.62093">
        <ele>141</ele>
        <time>29-03-2015T08:39:52Z</time>
      </trkpt>
      <trkpt lat="44.42526" lon="4.62086">
        <ele>142</ele>
        <time>29-03-2015T08:39:56Z</time>
      </trkpt>
      <trkpt lat="44.42525" lon="4.62079">
        <ele>144</ele>
        <time>29-03-2015T08:40:00Z</time>
      </trkpt>
      <trkpt lat="44.42522" lon="4.62074">
        <ele>144</ele>
        <time>29-03-2015T08:40:03Z</time>
      </trkpt>
      <trkpt lat="44.42517" lon="4.62069">
        <ele>145</ele>
        <time>29-03-2015T08:40:06Z</time>
      </trkpt>
      <trkpt lat="44.42512" lon="4.62064">
        <ele>146</ele>
        <time>29-03-2015T08:40:11Z</time>
      </trkpt>
      <trkpt lat="44.42509" lon="4.62061">
        <ele>148</ele>
        <time>29-03-2015T08:40:16Z</time>
      </trkpt>
      <trkpt lat="44.42508" lon="4.62058">
        <ele>149</ele>
        <time>29-03-2015T08:40:21Z</time>
      </trkpt>
      <trkpt lat="44.42506" lon="4.62054">
        <ele>149</ele>
        <time>29-03-2015T08:40:26Z</time>
      </trkpt>
      <trkpt lat="44.42502" lon="4.6205">
        <ele>149</ele>
        <time>29-03-2015T08:40:28Z</time>
      </trkpt>
      <trkpt lat="44.42497" lon="4.62045">
        <ele>150</ele>
        <time>29-03-2015T08:40:30Z</time>
      </trkpt>
      <trkpt lat="44.42491" lon="4.6204">
        <ele>150</ele>
        <time>29-03-2015T08:40:32Z</time>
      </trkpt>
      <trkpt lat="44.42487" lon="4.62035">
        <ele>151</ele>
        <time>29-03-2015T08:40:34Z</time>
      </trkpt>
      <trkpt lat="44.42483" lon="4.6203">
        <ele>151</ele>
        <time>29-03-2015T08:40:36Z</time>
      </trkpt>
      <trkpt lat="44.4248" lon="4.62025">
        <ele>151</ele>
        <time>29-03-2015T08:40:38Z</time>
      </trkpt>
      <trkpt lat="44.42478" lon="4.62019">
        <ele>152</ele>
        <time>29-03-2015T08:40:43Z</time>
      </trkpt>
      <trkpt lat="44.42477" lon="4.62017">
        <ele>153</ele>
        <time>29-03-2015T08:40:48Z</time>
      </trkpt>
      <trkpt lat="44.42473" lon="4.62012">
        <ele>155</ele>
        <time>29-03-2015T08:40:52Z</time>
      </trkpt>
      <trkpt lat="44.42467" lon="4.62008">
        <ele>156</ele>
        <time>29-03-2015T08:40:54Z</time>
      </trkpt>
      <trkpt lat="44.4246" lon="4.62005">
        <ele>156</ele>
        <time>29-03-2015T08:40:56Z</time>
      </trkpt>
      <trkpt lat="44.42455" lon="4.62002">
        <ele>156</ele>
        <time>29-03-2015T08:40:58Z</time>
      </trkpt>
      <trkpt lat="44.4245" lon="4.62">
        <ele>157</ele>
        <time>29-03-2015T08:41:00Z</time>
      </trkpt>
      <trkpt lat="44.42449" lon="4.61999">
        <ele>158</ele>
        <time>29-03-2015T08:41:05Z</time>
      </trkpt>
      <trkpt lat="44.42445" lon="4.61997">
        <ele>158</ele>
        <time>29-03-2015T08:41:08Z</time>
      </trkpt>
      <trkpt lat="44.42439" lon="4.61992">
        <ele>160</ele>
        <time>29-03-2015T08:41:10Z</time>
      </trkpt>
      <trkpt lat="44.42433" lon="4.61987">
        <ele>160</ele>
        <time>29-03-2015T08:41:12Z</time>
      </trkpt>
      <trkpt lat="44.42428" lon="4.61986">
        <ele>160</ele>
        <time>29-03-2015T08:41:14Z</time>
      </trkpt>
      <trkpt lat="44.42424" lon="4.61988">
        <ele>160</ele>
        <time>29-03-2015T08:41:17Z</time>
      </trkpt>
      <trkpt lat="44.4242" lon="4.61983">
        <ele>160</ele>
        <time>29-03-2015T08:41:21Z</time>
      </trkpt>
      <trkpt lat="44.42416" lon="4.61978">
        <ele>160</ele>
        <time>29-03-2015T08:41:23Z</time>
      </trkpt>
      <trkpt lat="44.42412" lon="4.61972">
        <ele>162</ele>
        <time>29-03-2015T08:41:25Z</time>
      </trkpt>
      <trkpt lat="44.42411" lon="4.61965">
        <ele>162</ele>
        <time>29-03-2015T08:41:28Z</time>
      </trkpt>
      <trkpt lat="44.42413" lon="4.61958">
        <ele>163</ele>
        <time>29-03-2015T08:41:33Z</time>
      </trkpt>
      <trkpt lat="44.42411" lon="4.61951">
        <ele>165</ele>
        <time>29-03-2015T08:41:36Z</time>
      </trkpt>
      <trkpt lat="44.4241" lon="4.61945">
        <ele>166</ele>
        <time>29-03-2015T08:41:39Z</time>
      </trkpt>
      <trkpt lat="44.42408" lon="4.61941">
        <ele>166</ele>
        <time>29-03-2015T08:41:44Z</time>
      </trkpt>
      <trkpt lat="44.42405" lon="4.61935">
        <ele>166</ele>
        <time>29-03-2015T08:41:47Z</time>
      </trkpt>
      <trkpt lat="44.42405" lon="4.61934">
        <ele>167</ele>
        <time>29-03-2015T08:41:52Z</time>
      </trkpt>
      <trkpt lat="44.42403" lon="4.61928">
        <ele>168</ele>
        <time>29-03-2015T08:41:54Z</time>
      </trkpt>
      <trkpt lat="44.42399" lon="4.61923">
        <ele>168</ele>
        <time>29-03-2015T08:41:56Z</time>
      </trkpt>
      <trkpt lat="44.42394" lon="4.61918">
        <ele>170</ele>
        <time>29-03-2015T08:41:59Z</time>
      </trkpt>
      <trkpt lat="44.42389" lon="4.61916">
        <ele>170</ele>
        <time>29-03-2015T08:42:04Z</time>
      </trkpt>
      <trkpt lat="44.42385" lon="4.61911">
        <ele>170</ele>
        <time>29-03-2015T08:42:06Z</time>
      </trkpt>
      <trkpt lat="44.42382" lon="4.61906">
        <ele>172</ele>
        <time>29-03-2015T08:42:11Z</time>
      </trkpt>
      <trkpt lat="44.42378" lon="4.61902">
        <ele>172</ele>
        <time>29-03-2015T08:42:13Z</time>
      </trkpt>
      <trkpt lat="44.42378" lon="4.61899">
        <ele>172</ele>
        <time>29-03-2015T08:42:18Z</time>
      </trkpt>
      <trkpt lat="44.42373" lon="4.61894">
        <ele>173</ele>
        <time>29-03-2015T08:42:20Z</time>
      </trkpt>
      <trkpt lat="44.4237" lon="4.61889">
        <ele>173</ele>
        <time>29-03-2015T08:42:22Z</time>
      </trkpt>
      <trkpt lat="44.42367" lon="4.61881">
        <ele>173</ele>
        <time>29-03-2015T08:42:25Z</time>
      </trkpt>
      <trkpt lat="44.42365" lon="4.61875">
        <ele>173</ele>
        <time>29-03-2015T08:42:28Z</time>
      </trkpt>
      <trkpt lat="44.42363" lon="4.61869">
        <ele>174</ele>
        <time>29-03-2015T08:42:30Z</time>
      </trkpt>
      <trkpt lat="44.42361" lon="4.61863">
        <ele>175</ele>
        <time>29-03-2015T08:42:35Z</time>
      </trkpt>
      <trkpt lat="44.4236" lon="4.61856">
        <ele>175</ele>
        <time>29-03-2015T08:42:37Z</time>
      </trkpt>
      <trkpt lat="44.42361" lon="4.61848">
        <ele>177</ele>
        <time>29-03-2015T08:42:41Z</time>
      </trkpt>
      <trkpt lat="44.4236" lon="4.61841">
        <ele>177</ele>
        <time>29-03-2015T08:42:43Z</time>
      </trkpt>
      <trkpt lat="44.42359" lon="4.61834">
        <ele>177</ele>
        <time>29-03-2015T08:42:46Z</time>
      </trkpt>
      <trkpt lat="44.42356" lon="4.61824">
        <ele>178</ele>
        <time>29-03-2015T08:42:49Z</time>
      </trkpt>
      <trkpt lat="44.42353" lon="4.61816">
        <ele>178</ele>
        <time>29-03-2015T08:42:51Z</time>
      </trkpt>
      <trkpt lat="44.4235" lon="4.6181">
        <ele>179</ele>
        <time>29-03-2015T08:42:55Z</time>
      </trkpt>
      <trkpt lat="44.42344" lon="4.61803">
        <ele>179</ele>
        <time>29-03-2015T08:42:57Z</time>
      </trkpt>
      <trkpt lat="44.42339" lon="4.61801">
        <ele>179</ele>
        <time>29-03-2015T08:43:00Z</time>
      </trkpt>
      <trkpt lat="44.42334" lon="4.61795">
        <ele>179</ele>
        <time>29-03-2015T08:43:03Z</time>
      </trkpt>
      <trkpt lat="44.42329" lon="4.61795">
        <ele>181</ele>
        <time>29-03-2015T08:43:07Z</time>
      </trkpt>
      <trkpt lat="44.42318" lon="4.61793">
        <ele>182</ele>
        <time>29-03-2015T08:43:09Z</time>
      </trkpt>
      <trkpt lat="44.42314" lon="4.61791">
        <ele>182</ele>
        <time>29-03-2015T08:43:13Z</time>
      </trkpt>
      <trkpt lat="44.42308" lon="4.61791">
        <ele>182</ele>
        <time>29-03-2015T08:43:14Z</time>
      </trkpt>
      <trkpt lat="44.42304" lon="4.61793">
        <ele>182</ele>
        <time>29-03-2015T08:43:17Z</time>
      </trkpt>
      <trkpt lat="44.42299" lon="4.61792">
        <ele>182</ele>
        <time>29-03-2015T08:43:19Z</time>
      </trkpt>
      <trkpt lat="44.42292" lon="4.61789">
        <ele>182</ele>
        <time>29-03-2015T08:43:20Z</time>
      </trkpt>
      <trkpt lat="44.42283" lon="4.61786">
        <ele>183</ele>
        <time>29-03-2015T08:43:24Z</time>
      </trkpt>
      <trkpt lat="44.42275" lon="4.61783">
        <ele>183</ele>
        <time>29-03-2015T08:43:25Z</time>
      </trkpt>
      <trkpt lat="44.42271" lon="4.61781">
        <ele>183</ele>
        <time>29-03-2015T08:43:26Z</time>
      </trkpt>
      <trkpt lat="44.42263" lon="4.61777">
        <ele>183</ele>
        <time>29-03-2015T08:43:29Z</time>
      </trkpt>
      <trkpt lat="44.42258" lon="4.61775">
        <ele>183</ele>
        <time>29-03-2015T08:43:30Z</time>
      </trkpt>
      <trkpt lat="44.42253" lon="4.61773">
        <ele>183</ele>
        <time>29-03-2015T08:43:31Z</time>
      </trkpt>
      <trkpt lat="44.42249" lon="4.61773">
        <ele>183</ele>
        <time>29-03-2015T08:43:32Z</time>
      </trkpt>
      <trkpt lat="44.42243" lon="4.61771">
        <ele>183</ele>
        <time>29-03-2015T08:43:33Z</time>
      </trkpt>
      <trkpt lat="44.42238" lon="4.61769">
        <ele>182</ele>
        <time>29-03-2015T08:43:34Z</time>
      </trkpt>
      <trkpt lat="44.4223" lon="4.61765">
        <ele>182</ele>
        <time>29-03-2015T08:43:35Z</time>
      </trkpt>
      <trkpt lat="44.42222" lon="4.61762">
        <ele>182</ele>
        <time>29-03-2015T08:43:36Z</time>
      </trkpt>
      <trkpt lat="44.42217" lon="4.6176">
        <ele>182</ele>
        <time>29-03-2015T08:43:37Z</time>
      </trkpt>
      <trkpt lat="44.4221" lon="4.61755">
        <ele>180</ele>
        <time>29-03-2015T08:43:39Z</time>
      </trkpt>
      <trkpt lat="44.422" lon="4.6175">
        <ele>180</ele>
        <time>29-03-2015T08:43:40Z</time>
      </trkpt>
      <trkpt lat="44.42193" lon="4.61745">
        <ele>180</ele>
        <time>29-03-2015T08:43:41Z</time>
      </trkpt>
      <trkpt lat="44.42186" lon="4.61741">
        <ele>180</ele>
        <time>29-03-2015T08:43:42Z</time>
      </trkpt>
      <trkpt lat="44.42181" lon="4.61739">
        <ele>180</ele>
        <time>29-03-2015T08:43:43Z</time>
      </trkpt>
      <trkpt lat="44.42175" lon="4.61737">
        <ele>180</ele>
        <time>29-03-2015T08:43:44Z</time>
      </trkpt>
      <trkpt lat="44.42171" lon="4.61734">
        <ele>180</ele>
        <time>29-03-2015T08:43:45Z</time>
      </trkpt>
      <trkpt lat="44.42164" lon="4.61729">
        <ele>180</ele>
        <time>29-03-2015T08:43:47Z</time>
      </trkpt>
      <trkpt lat="44.4216" lon="4.61725">
        <ele>179</ele>
        <time>29-03-2015T08:43:49Z</time>
      </trkpt>
      <trkpt lat="44.42151" lon="4.61718">
        <ele>179</ele>
        <time>29-03-2015T08:43:51Z</time>
      </trkpt>
      <trkpt lat="44.42145" lon="4.61715">
        <ele>179</ele>
        <time>29-03-2015T08:43:52Z</time>
      </trkpt>
      <trkpt lat="44.42142" lon="4.61711">
        <ele>179</ele>
        <time>29-03-2015T08:43:53Z</time>
      </trkpt>
      <trkpt lat="44.42137" lon="4.61707">
        <ele>179</ele>
        <time>29-03-2015T08:43:54Z</time>
      </trkpt>
      <trkpt lat="44.42132" lon="4.61702">
        <ele>179</ele>
        <time>29-03-2015T08:43:55Z</time>
      </trkpt>
      <trkpt lat="44.42123" lon="4.61699">
        <ele>179</ele>
        <time>29-03-2015T08:43:56Z</time>
      </trkpt>
      <trkpt lat="44.42115" lon="4.61698">
        <ele>179</ele>
        <time>29-03-2015T08:43:57Z</time>
      </trkpt>
      <trkpt lat="44.42106" lon="4.61693">
        <ele>179</ele>
        <time>29-03-2015T08:43:59Z</time>
      </trkpt>
      <trkpt lat="44.42096" lon="4.61689">
        <ele>179</ele>
        <time>29-03-2015T08:44:00Z</time>
      </trkpt>
      <trkpt lat="44.42082" lon="4.61686">
        <ele>179</ele>
        <time>29-03-2015T08:44:01Z</time>
      </trkpt>
      <trkpt lat="44.42073" lon="4.61682">
        <ele>179</ele>
        <time>29-03-2015T08:44:03Z</time>
      </trkpt>
      <trkpt lat="44.42062" lon="4.6168">
        <ele>179</ele>
        <time>29-03-2015T08:44:05Z</time>
      </trkpt>
      <trkpt lat="44.42054" lon="4.61679">
        <ele>179</ele>
        <time>29-03-2015T08:44:06Z</time>
      </trkpt>
      <trkpt lat="44.42047" lon="4.61679">
        <ele>179</ele>
        <time>29-03-2015T08:44:07Z</time>
      </trkpt>
      <trkpt lat="44.42042" lon="4.61675">
        <ele>180</ele>
        <time>29-03-2015T08:44:09Z</time>
      </trkpt>
      <trkpt lat="44.42036" lon="4.61671">
        <ele>180</ele>
        <time>29-03-2015T08:44:10Z</time>
      </trkpt>
      <trkpt lat="44.42031" lon="4.6167">
        <ele>180</ele>
        <time>29-03-2015T08:44:12Z</time>
      </trkpt>
      <trkpt lat="44.42015" lon="4.61669">
        <ele>180</ele>
        <time>29-03-2015T08:44:15Z</time>
      </trkpt>
      <trkpt lat="44.42001" lon="4.61668">
        <ele>181</ele>
        <time>29-03-2015T08:44:19Z</time>
      </trkpt>
      <trkpt lat="44.41995" lon="4.61668">
        <ele>181</ele>
        <time>29-03-2015T08:44:22Z</time>
      </trkpt>
      <trkpt lat="44.41985" lon="4.61666">
        <ele>181</ele>
        <time>29-03-2015T08:44:23Z</time>
      </trkpt>
      <trkpt lat="44.4198" lon="4.61666">
        <ele>182</ele>
        <time>29-03-2015T08:44:28Z</time>
      </trkpt>
      <trkpt lat="44.41974" lon="4.61666">
        <ele>183</ele>
        <time>29-03-2015T08:44:31Z</time>
      </trkpt>
      <trkpt lat="44.41968" lon="4.61667">
        <ele>183</ele>
        <time>29-03-2015T08:44:33Z</time>
      </trkpt>
      <trkpt lat="44.41962" lon="4.61668">
        <ele>185</ele>
        <time>29-03-2015T08:44:35Z</time>
      </trkpt>
      <trkpt lat="44.41951" lon="4.6167">
        <ele>185</ele>
        <time>29-03-2015T08:44:36Z</time>
      </trkpt>
      <trkpt lat="44.41945" lon="4.61671">
        <ele>187</ele>
        <time>29-03-2015T08:44:41Z</time>
      </trkpt>
      <trkpt lat="44.41939" lon="4.61671">
        <ele>187</ele>
        <time>29-03-2015T08:44:43Z</time>
      </trkpt>
      <trkpt lat="44.41932" lon="4.61672">
        <ele>187</ele>
        <time>29-03-2015T08:44:44Z</time>
      </trkpt>
      <trkpt lat="44.41925" lon="4.61671">
        <ele>187</ele>
        <time>29-03-2015T08:44:48Z</time>
      </trkpt>
      <trkpt lat="44.41918" lon="4.61671">
        <ele>188</ele>
        <time>29-03-2015T08:44:51Z</time>
      </trkpt>
      <trkpt lat="44.41911" lon="4.6167">
        <ele>188</ele>
        <time>29-03-2015T08:44:54Z</time>
      </trkpt>
      <trkpt lat="44.41903" lon="4.61669">
        <ele>188</ele>
        <time>29-03-2015T08:44:55Z</time>
      </trkpt>
      <trkpt lat="44.41898" lon="4.61667">
        <ele>188</ele>
        <time>29-03-2015T08:44:58Z</time>
      </trkpt>
      <trkpt lat="44.41892" lon="4.61666">
        <ele>190</ele>
        <time>29-03-2015T08:44:59Z</time>
      </trkpt>
      <trkpt lat="44.41885" lon="4.61668">
        <ele>190</ele>
        <time>29-03-2015T08:45:02Z</time>
      </trkpt>
      <trkpt lat="44.41879" lon="4.61668">
        <ele>190</ele>
        <time>29-03-2015T08:45:03Z</time>
      </trkpt>
      <trkpt lat="44.41874" lon="4.61667">
        <ele>192</ele>
        <time>29-03-2015T08:45:06Z</time>
      </trkpt>
      <trkpt lat="44.41867" lon="4.61667">
        <ele>193</ele>
        <time>29-03-2015T08:45:09Z</time>
      </trkpt>
      <trkpt lat="44.41861" lon="4.61666">
        <ele>193</ele>
        <time>29-03-2015T08:45:10Z</time>
      </trkpt>
      <trkpt lat="44.41856" lon="4.61663">
        <ele>193</ele>
        <time>29-03-2015T08:45:13Z</time>
      </trkpt>
      <trkpt lat="44.41851" lon="4.61662">
        <ele>193</ele>
        <time>29-03-2015T08:45:15Z</time>
      </trkpt>
      <trkpt lat="44.41841" lon="4.61661">
        <ele>193</ele>
        <time>29-03-2015T08:45:17Z</time>
      </trkpt>
      <trkpt lat="44.41833" lon="4.61659">
        <ele>194</ele>
        <time>29-03-2015T08:45:20Z</time>
      </trkpt>
      <trkpt lat="44.41822" lon="4.61657">
        <ele>195</ele>
        <time>29-03-2015T08:45:24Z</time>
      </trkpt>
      <trkpt lat="44.41815" lon="4.61657">
        <ele>195</ele>
        <time>29-03-2015T08:45:27Z</time>
      </trkpt>
      <trkpt lat="44.41811" lon="4.61659">
        <ele>196</ele>
        <time>29-03-2015T08:45:30Z</time>
      </trkpt>
      <trkpt lat="44.41804" lon="4.6166">
        <ele>196</ele>
        <time>29-03-2015T08:45:31Z</time>
      </trkpt>
      <trkpt lat="44.41795" lon="4.61662">
        <ele>197</ele>
        <time>29-03-2015T08:45:34Z</time>
      </trkpt>
      <trkpt lat="44.41788" lon="4.61664">
        <ele>197</ele>
        <time>29-03-2015T08:45:37Z</time>
      </trkpt>
      <trkpt lat="44.41779" lon="4.61665">
        <ele>200</ele>
        <time>29-03-2015T08:45:40Z</time>
      </trkpt>
      <trkpt lat="44.41773" lon="4.61663">
        <ele>200</ele>
        <time>29-03-2015T08:45:41Z</time>
      </trkpt>
      <trkpt lat="44.41766" lon="4.61663">
        <ele>201</ele>
        <time>29-03-2015T08:45:44Z</time>
      </trkpt>
      <trkpt lat="44.41761" lon="4.61665">
        <ele>201</ele>
        <time>29-03-2015T08:45:47Z</time>
      </trkpt>
      <trkpt lat="44.41752" lon="4.61667">
        <ele>204</ele>
        <time>29-03-2015T08:45:51Z</time>
      </trkpt>
      <trkpt lat="44.41746" lon="4.6167">
        <ele>205</ele>
        <time>29-03-2015T08:45:54Z</time>
      </trkpt>
      <trkpt lat="44.41742" lon="4.6167">
        <ele>205</ele>
        <time>29-03-2015T08:45:57Z</time>
      </trkpt>
      <trkpt lat="44.41737" lon="4.61671">
        <ele>206</ele>
        <time>29-03-2015T08:46:00Z</time>
      </trkpt>
      <trkpt lat="44.41731" lon="4.61671">
        <ele>206</ele>
        <time>29-03-2015T08:46:03Z</time>
      </trkpt>
      <trkpt lat="44.41733" lon="4.61667">
        <ele>208</ele>
        <time>29-03-2015T08:46:08Z</time>
      </trkpt>
      <trkpt lat="44.41728" lon="4.61666">
        <ele>210</ele>
        <time>29-03-2015T08:46:10Z</time>
      </trkpt>
      <trkpt lat="44.41721" lon="4.61663">
        <ele>210</ele>
        <time>29-03-2015T08:46:12Z</time>
      </trkpt>
      <trkpt lat="44.41718" lon="4.61658">
        <ele>210</ele>
        <time>29-03-2015T08:46:17Z</time>
      </trkpt>
      <trkpt lat="44.4171" lon="4.61659">
        <ele>211</ele>
        <time>29-03-2015T08:46:21Z</time>
      </trkpt>
      <trkpt lat="44.41707" lon="4.61665">
        <ele>212</ele>
        <time>29-03-2015T08:46:25Z</time>
      </trkpt>
      <trkpt lat="44.41706" lon="4.61672">
        <ele>213</ele>
        <time>29-03-2015T08:46:29Z</time>
      </trkpt>
      <trkpt lat="44.41701" lon="4.61674">
        <ele>213</ele>
        <time>29-03-2015T08:46:32Z</time>
      </trkpt>
      <trkpt lat="44.41697" lon="4.61677">
        <ele>214</ele>
        <time>29-03-2015T08:46:34Z</time>
      </trkpt>
      <trkpt lat="44.41687" lon="4.6168">
        <ele>214</ele>
        <time>29-03-2015T08:46:38Z</time>
      </trkpt>
      <trkpt lat="44.41676" lon="4.61684">
        <ele>217</ele>
        <time>29-03-2015T08:46:45Z</time>
      </trkpt>
      <trkpt lat="44.41671" lon="4.61682">
        <ele>217</ele>
        <time>29-03-2015T08:46:47Z</time>
      </trkpt>
      <trkpt lat="44.41666" lon="4.61683">
        <ele>218</ele>
        <time>29-03-2015T08:46:49Z</time>
      </trkpt>
      <trkpt lat="44.41657" lon="4.61685">
        <ele>218</ele>
        <time>29-03-2015T08:46:52Z</time>
      </trkpt>
      <trkpt lat="44.41649" lon="4.61685">
        <ele>218</ele>
        <time>29-03-2015T08:46:55Z</time>
      </trkpt>
      <trkpt lat="44.41644" lon="4.61686">
        <ele>218</ele>
        <time>29-03-2015T08:46:57Z</time>
      </trkpt>
      <trkpt lat="44.41639" lon="4.61684">
        <ele>220</ele>
        <time>29-03-2015T08:47:00Z</time>
      </trkpt>
      <trkpt lat="44.41632" lon="4.61685">
        <ele>220</ele>
        <time>29-03-2015T08:47:03Z</time>
      </trkpt>
      <trkpt lat="44.41627" lon="4.61684">
        <ele>222</ele>
        <time>29-03-2015T08:47:05Z</time>
      </trkpt>
      <trkpt lat="44.41618" lon="4.61682">
        <ele>222</ele>
        <time>29-03-2015T08:47:08Z</time>
      </trkpt>
      <trkpt lat="44.4161" lon="4.61683">
        <ele>224</ele>
        <time>29-03-2015T08:47:11Z</time>
      </trkpt>
      <trkpt lat="44.41605" lon="4.61684">
        <ele>224</ele>
        <time>29-03-2015T08:47:13Z</time>
      </trkpt>
      <trkpt lat="44.41599" lon="4.61684">
        <ele>224</ele>
        <time>29-03-2015T08:47:16Z</time>
      </trkpt>
      <trkpt lat="44.41595" lon="4.61681">
        <ele>224</ele>
        <time>29-03-2015T08:47:18Z</time>
      </trkpt>
      <trkpt lat="44.41591" lon="4.61678">
        <ele>225</ele>
        <time>29-03-2015T08:47:20Z</time>
      </trkpt>
      <trkpt lat="44.41585" lon="4.61676">
        <ele>225</ele>
        <time>29-03-2015T08:47:21Z</time>
      </trkpt>
      <trkpt lat="44.4158" lon="4.61671">
        <ele>225</ele>
        <time>29-03-2015T08:47:24Z</time>
      </trkpt>
      <trkpt lat="44.41575" lon="4.61667">
        <ele>225</ele>
        <time>29-03-2015T08:47:26Z</time>
      </trkpt>
      <trkpt lat="44.41564" lon="4.61664">
        <ele>226</ele>
        <time>29-03-2015T08:47:29Z</time>
      </trkpt>
      <trkpt lat="44.41557" lon="4.61662">
        <ele>226</ele>
        <time>29-03-2015T08:47:31Z</time>
      </trkpt>
      <trkpt lat="44.41547" lon="4.61661">
        <ele>228</ele>
        <time>29-03-2015T08:47:34Z</time>
      </trkpt>
      <trkpt lat="44.4154" lon="4.61658">
        <ele>228</ele>
        <time>29-03-2015T08:47:36Z</time>
      </trkpt>
      <trkpt lat="44.41535" lon="4.61656">
        <ele>228</ele>
        <time>29-03-2015T08:47:39Z</time>
      </trkpt>
      <trkpt lat="44.41527" lon="4.61656">
        <ele>228</ele>
        <time>29-03-2015T08:47:41Z</time>
      </trkpt>
      <trkpt lat="44.41521" lon="4.61654">
        <ele>228</ele>
        <time>29-03-2015T08:47:44Z</time>
      </trkpt>
      <trkpt lat="44.41514" lon="4.61653">
        <ele>228</ele>
        <time>29-03-2015T08:47:46Z</time>
      </trkpt>
      <trkpt lat="44.41508" lon="4.61653">
        <ele>231</ele>
        <time>29-03-2015T08:47:49Z</time>
      </trkpt>
      <trkpt lat="44.41502" lon="4.61649">
        <ele>231</ele>
        <time>29-03-2015T08:47:51Z</time>
      </trkpt>
      <trkpt lat="44.41498" lon="4.61645">
        <ele>231</ele>
        <time>29-03-2015T08:47:53Z</time>
      </trkpt>
      <trkpt lat="44.41492" lon="4.6164">
        <ele>231</ele>
        <time>29-03-2015T08:47:56Z</time>
      </trkpt>
      <trkpt lat="44.41484" lon="4.61637">
        <ele>231</ele>
        <time>29-03-2015T08:47:58Z</time>
      </trkpt>
      <trkpt lat="44.41479" lon="4.61633">
        <ele>233</ele>
        <time>29-03-2015T08:48:00Z</time>
      </trkpt>
      <trkpt lat="44.41473" lon="4.61631">
        <ele>233</ele>
        <time>29-03-2015T08:48:03Z</time>
      </trkpt>
      <trkpt lat="44.41465" lon="4.6163">
        <ele>235</ele>
        <time>29-03-2015T08:48:05Z</time>
      </trkpt>
      <trkpt lat="44.41459" lon="4.61629">
        <ele>236</ele>
        <time>29-03-2015T08:48:09Z</time>
      </trkpt>
      <trkpt lat="44.41455" lon="4.61623">
        <ele>236</ele>
        <time>29-03-2015T08:48:11Z</time>
      </trkpt>
      <trkpt lat="44.41447" lon="4.61621">
        <ele>236</ele>
        <time>29-03-2015T08:48:12Z</time>
      </trkpt>
      <trkpt lat="44.41442" lon="4.61618">
        <ele>237</ele>
        <time>29-03-2015T08:48:14Z</time>
      </trkpt>
      <trkpt lat="44.41435" lon="4.61613">
        <ele>237</ele>
        <time>29-03-2015T08:48:17Z</time>
      </trkpt>
      <trkpt lat="44.41433" lon="4.61605">
        <ele>239</ele>
        <time>29-03-2015T08:48:20Z</time>
      </trkpt>
      <trkpt lat="44.41428" lon="4.61602">
        <ele>239</ele>
        <time>29-03-2015T08:48:21Z</time>
      </trkpt>
      <trkpt lat="44.41421" lon="4.61597">
        <ele>239</ele>
        <time>29-03-2015T08:48:24Z</time>
      </trkpt>
      <trkpt lat="44.41416" lon="4.61593">
        <ele>239</ele>
        <time>29-03-2015T08:48:26Z</time>
      </trkpt>
      <trkpt lat="44.41414" lon="4.61584">
        <ele>240</ele>
        <time>29-03-2015T08:48:30Z</time>
      </trkpt>
      <trkpt lat="44.4141" lon="4.61578">
        <ele>240</ele>
        <time>29-03-2015T08:48:33Z</time>
      </trkpt>
      <trkpt lat="44.41404" lon="4.61574">
        <ele>241</ele>
        <time>29-03-2015T08:48:35Z</time>
      </trkpt>
      <trkpt lat="44.41398" lon="4.61573">
        <ele>241</ele>
        <time>29-03-2015T08:48:37Z</time>
      </trkpt>
      <trkpt lat="44.41392" lon="4.61571">
        <ele>242</ele>
        <time>29-03-2015T08:48:39Z</time>
      </trkpt>
      <trkpt lat="44.41385" lon="4.6157">
        <ele>242</ele>
        <time>29-03-2015T08:48:43Z</time>
      </trkpt>
      <trkpt lat="44.41378" lon="4.61568">
        <ele>243</ele>
        <time>29-03-2015T08:48:46Z</time>
      </trkpt>
      <trkpt lat="44.41369" lon="4.61567">
        <ele>243</ele>
        <time>29-03-2015T08:48:48Z</time>
      </trkpt>
      <trkpt lat="44.41365" lon="4.61567">
        <ele>244</ele>
        <time>29-03-2015T08:48:51Z</time>
      </trkpt>
      <trkpt lat="44.41357" lon="4.61568">
        <ele>244</ele>
        <time>29-03-2015T08:48:52Z</time>
      </trkpt>
      <trkpt lat="44.41351" lon="4.61566">
        <ele>244</ele>
        <time>29-03-2015T08:48:54Z</time>
      </trkpt>
      <trkpt lat="44.41353" lon="4.6156">
        <ele>244</ele>
        <time>29-03-2015T08:48:57Z</time>
      </trkpt>
      <trkpt lat="44.41352" lon="4.61552">
        <ele>245</ele>
        <time>29-03-2015T08:49:00Z</time>
      </trkpt>
      <trkpt lat="44.41349" lon="4.61544">
        <ele>245</ele>
        <time>29-03-2015T08:49:03Z</time>
      </trkpt>
      <trkpt lat="44.41346" lon="4.61538">
        <ele>247</ele>
        <time>29-03-2015T08:49:06Z</time>
      </trkpt>
      <trkpt lat="44.41342" lon="4.61532">
        <ele>247</ele>
        <time>29-03-2015T08:49:08Z</time>
      </trkpt>
      <trkpt lat="44.41338" lon="4.61527">
        <ele>249</ele>
        <time>29-03-2015T08:49:11Z</time>
      </trkpt>
      <trkpt lat="44.41334" lon="4.61523">
        <ele>249</ele>
        <time>29-03-2015T08:49:13Z</time>
      </trkpt>
      <trkpt lat="44.4133" lon="4.61519">
        <ele>249</ele>
        <time>29-03-2015T08:49:16Z</time>
      </trkpt>
      <trkpt lat="44.41324" lon="4.61514">
        <ele>252</ele>
        <time>29-03-2015T08:49:19Z</time>
      </trkpt>
      <trkpt lat="44.41319" lon="4.61506">
        <ele>252</ele>
        <time>29-03-2015T08:49:23Z</time>
      </trkpt>
      <trkpt lat="44.41317" lon="4.61498">
        <ele>252</ele>
        <time>29-03-2015T08:49:26Z</time>
      </trkpt>
      <trkpt lat="44.41313" lon="4.61492">
        <ele>254</ele>
        <time>29-03-2015T08:49:29Z</time>
      </trkpt>
      <trkpt lat="44.41308" lon="4.61484">
        <ele>254</ele>
        <time>29-03-2015T08:49:33Z</time>
      </trkpt>
      <trkpt lat="44.41303" lon="4.61479">
        <ele>256</ele>
        <time>29-03-2015T08:49:36Z</time>
      </trkpt>
      <trkpt lat="44.41299" lon="4.61473">
        <ele>257</ele>
        <time>29-03-2015T08:49:39Z</time>
      </trkpt>
      <trkpt lat="44.41295" lon="4.61469">
        <ele>257</ele>
        <time>29-03-2015T08:49:42Z</time>
      </trkpt>
      <trkpt lat="44.4129" lon="4.61466">
        <ele>257</ele>
        <time>29-03-2015T08:49:43Z</time>
      </trkpt>
      <trkpt lat="44.41284" lon="4.61463">
        <ele>258</ele>
        <time>29-03-2015T08:49:45Z</time>
      </trkpt>
      <trkpt lat="44.41277" lon="4.61462">
        <ele>258</ele>
        <time>29-03-2015T08:49:47Z</time>
      </trkpt>
      <trkpt lat="44.41271" lon="4.61461">
        <ele>259</ele>
        <time>29-03-2015T08:49:49Z</time>
      </trkpt>
      <trkpt lat="44.41265" lon="4.61458">
        <ele>259</ele>
        <time>29-03-2015T08:49:53Z</time>
      </trkpt>
      <trkpt lat="44.4126" lon="4.61455">
        <ele>261</ele>
        <time>29-03-2015T08:49:56Z</time>
      </trkpt>
      <trkpt lat="44.41258" lon="4.61447">
        <ele>261</ele>
        <time>29-03-2015T08:50:00Z</time>
      </trkpt>
      <trkpt lat="44.41255" lon="4.61443">
        <ele>261</ele>
        <time>29-03-2015T08:50:03Z</time>
      </trkpt>
      <trkpt lat="44.41251" lon="4.61436">
        <ele>263</ele>
        <time>29-03-2015T08:50:06Z</time>
      </trkpt>
      <trkpt lat="44.41246" lon="4.61431">
        <ele>265</ele>
        <time>29-03-2015T08:50:09Z</time>
      </trkpt>
      <trkpt lat="44.41242" lon="4.61425">
        <ele>265</ele>
        <time>29-03-2015T08:50:12Z</time>
      </trkpt>
      <trkpt lat="44.41237" lon="4.6142">
        <ele>266</ele>
        <time>29-03-2015T08:50:15Z</time>
      </trkpt>
      <trkpt lat="44.41233" lon="4.61415">
        <ele>266</ele>
        <time>29-03-2015T08:50:17Z</time>
      </trkpt>
      <trkpt lat="44.41227" lon="4.61411">
        <ele>266</ele>
        <time>29-03-2015T08:50:20Z</time>
      </trkpt>
      <trkpt lat="44.41222" lon="4.61408">
        <ele>266</ele>
        <time>29-03-2015T08:50:22Z</time>
      </trkpt>
      <trkpt lat="44.41215" lon="4.61406">
        <ele>267</ele>
        <time>29-03-2015T08:50:25Z</time>
      </trkpt>
      <trkpt lat="44.4121" lon="4.61402">
        <ele>267</ele>
        <time>29-03-2015T08:50:28Z</time>
      </trkpt>
      <trkpt lat="44.41202" lon="4.614">
        <ele>268</ele>
        <time>29-03-2015T08:50:30Z</time>
      </trkpt>
      <trkpt lat="44.41198" lon="4.61398">
        <ele>268</ele>
        <time>29-03-2015T08:50:32Z</time>
      </trkpt>
      <trkpt lat="44.41193" lon="4.61396">
        <ele>268</ele>
        <time>29-03-2015T08:50:34Z</time>
      </trkpt>
      <trkpt lat="44.41189" lon="4.61391">
        <ele>268</ele>
        <time>29-03-2015T08:50:38Z</time>
      </trkpt>
      <trkpt lat="44.41185" lon="4.61389">
        <ele>270</ele>
        <time>29-03-2015T08:50:39Z</time>
      </trkpt>
      <trkpt lat="44.41178" lon="4.61388">
        <ele>270</ele>
        <time>29-03-2015T08:50:41Z</time>
      </trkpt>
      <trkpt lat="44.41174" lon="4.61385">
        <ele>270</ele>
        <time>29-03-2015T08:50:43Z</time>
      </trkpt>
      <trkpt lat="44.41166" lon="4.61384">
        <ele>270</ele>
        <time>29-03-2015T08:50:46Z</time>
      </trkpt>
      <trkpt lat="44.41159" lon="4.61383">
        <ele>270</ele>
        <time>29-03-2015T08:50:48Z</time>
      </trkpt>
      <trkpt lat="44.41154" lon="4.61381">
        <ele>272</ele>
        <time>29-03-2015T08:50:50Z</time>
      </trkpt>
      <trkpt lat="44.41149" lon="4.61382">
        <ele>272</ele>
        <time>29-03-2015T08:50:53Z</time>
      </trkpt>
      <trkpt lat="44.41144" lon="4.61383">
        <ele>272</ele>
        <time>29-03-2015T08:50:55Z</time>
      </trkpt>
      <trkpt lat="44.41138" lon="4.61381">
        <ele>272</ele>
        <time>29-03-2015T08:50:57Z</time>
      </trkpt>
      <trkpt lat="44.41131" lon="4.6138">
        <ele>273</ele>
        <time>29-03-2015T08:51:00Z</time>
      </trkpt>
      <trkpt lat="44.41122" lon="4.61378">
        <ele>273</ele>
        <time>29-03-2015T08:51:04Z</time>
      </trkpt>
      <trkpt lat="44.41116" lon="4.61378">
        <ele>273</ele>
        <time>29-03-2015T08:51:06Z</time>
      </trkpt>
      <trkpt lat="44.4111" lon="4.61377">
        <ele>273</ele>
        <time>29-03-2015T08:51:08Z</time>
      </trkpt>
      <trkpt lat="44.41102" lon="4.61377">
        <ele>276</ele>
        <time>29-03-2015T08:51:09Z</time>
      </trkpt>
      <trkpt lat="44.41097" lon="4.61375">
        <ele>276</ele>
        <time>29-03-2015T08:51:11Z</time>
      </trkpt>
      <trkpt lat="44.4109" lon="4.61374">
        <ele>276</ele>
        <time>29-03-2015T08:51:14Z</time>
      </trkpt>
      <trkpt lat="44.41084" lon="4.61372">
        <ele>276</ele>
        <time>29-03-2015T08:51:16Z</time>
      </trkpt>
      <trkpt lat="44.41075" lon="4.61368">
        <ele>277</ele>
        <time>29-03-2015T08:51:19Z</time>
      </trkpt>
      <trkpt lat="44.41072" lon="4.6136">
        <ele>277</ele>
        <time>29-03-2015T08:51:22Z</time>
      </trkpt>
      <trkpt lat="44.41069" lon="4.61355">
        <ele>278</ele>
        <time>29-03-2015T08:51:24Z</time>
      </trkpt>
      <trkpt lat="44.41067" lon="4.61348">
        <ele>278</ele>
        <time>29-03-2015T08:51:26Z</time>
      </trkpt>
      <trkpt lat="44.41065" lon="4.61342">
        <ele>279</ele>
        <time>29-03-2015T08:51:29Z</time>
      </trkpt>
      <trkpt lat="44.41062" lon="4.61334">
        <ele>279</ele>
        <time>29-03-2015T08:51:32Z</time>
      </trkpt>
      <trkpt lat="44.41061" lon="4.61327">
        <ele>282</ele>
        <time>29-03-2015T08:51:35Z</time>
      </trkpt>
      <trkpt lat="44.41058" lon="4.6132">
        <ele>282</ele>
        <time>29-03-2015T08:51:38Z</time>
      </trkpt>
      <trkpt lat="44.41058" lon="4.61312">
        <ele>282</ele>
        <time>29-03-2015T08:51:40Z</time>
      </trkpt>
      <trkpt lat="44.41056" lon="4.61305">
        <ele>282</ele>
        <time>29-03-2015T08:51:43Z</time>
      </trkpt>
      <trkpt lat="44.41055" lon="4.61298">
        <ele>284</ele>
        <time>29-03-2015T08:51:45Z</time>
      </trkpt>
      <trkpt lat="44.41054" lon="4.61291">
        <ele>284</ele>
        <time>29-03-2015T08:51:47Z</time>
      </trkpt>
      <trkpt lat="44.41053" lon="4.61281">
        <ele>285</ele>
        <time>29-03-2015T08:51:50Z</time>
      </trkpt>
      <trkpt lat="44.41051" lon="4.61275">
        <ele>285</ele>
        <time>29-03-2015T08:51:52Z</time>
      </trkpt>
      <trkpt lat="44.41047" lon="4.61269">
        <ele>286</ele>
        <time>29-03-2015T08:51:54Z</time>
      </trkpt>
      <trkpt lat="44.41042" lon="4.61265">
        <ele>286</ele>
        <time>29-03-2015T08:51:56Z</time>
      </trkpt>
      <trkpt lat="44.41038" lon="4.6126">
        <ele>286</ele>
        <time>29-03-2015T08:51:58Z</time>
      </trkpt>
      <trkpt lat="44.41033" lon="4.61253">
        <ele>288</ele>
        <time>29-03-2015T08:52:01Z</time>
      </trkpt>
      <trkpt lat="44.41028" lon="4.61248">
        <ele>288</ele>
        <time>29-03-2015T08:52:03Z</time>
      </trkpt>
      <trkpt lat="44.41022" lon="4.61243">
        <ele>288</ele>
        <time>29-03-2015T08:52:06Z</time>
      </trkpt>
      <trkpt lat="44.41018" lon="4.61238">
        <ele>289</ele>
        <time>29-03-2015T08:52:09Z</time>
      </trkpt>
      <trkpt lat="44.41013" lon="4.61234">
        <ele>289</ele>
        <time>29-03-2015T08:52:13Z</time>
      </trkpt>
      <trkpt lat="44.41006" lon="4.61231">
        <ele>290</ele>
        <time>29-03-2015T08:52:16Z</time>
      </trkpt>
      <trkpt lat="44.41003" lon="4.61227">
        <ele>290</ele>
        <time>29-03-2015T08:52:18Z</time>
      </trkpt>
      <trkpt lat="44.40998" lon="4.61225">
        <ele>292</ele>
        <time>29-03-2015T08:52:19Z</time>
      </trkpt>
      <trkpt lat="44.40994" lon="4.61221">
        <ele>292</ele>
        <time>29-03-2015T08:52:22Z</time>
      </trkpt>
      <trkpt lat="44.40988" lon="4.61215">
        <ele>293</ele>
        <time>29-03-2015T08:52:25Z</time>
      </trkpt>
      <trkpt lat="44.40982" lon="4.6121">
        <ele>293</ele>
        <time>29-03-2015T08:52:28Z</time>
      </trkpt>
      <trkpt lat="44.40974" lon="4.61209">
        <ele>295</ele>
        <time>29-03-2015T08:52:31Z</time>
      </trkpt>
      <trkpt lat="44.40969" lon="4.61208">
        <ele>296</ele>
        <time>29-03-2015T08:52:34Z</time>
      </trkpt>
      <trkpt lat="44.40971" lon="4.61203">
        <ele>296</ele>
        <time>29-03-2015T08:52:39Z</time>
      </trkpt>
      <trkpt lat="44.40969" lon="4.61201">
        <ele>296</ele>
        <time>29-03-2015T08:52:44Z</time>
      </trkpt>
      <trkpt lat="44.4097" lon="4.61203">
        <ele>296</ele>
        <time>29-03-2015T08:52:49Z</time>
      </trkpt>
      <trkpt lat="44.4097" lon="4.61204">
        <ele>296</ele>
        <time>29-03-2015T08:52:54Z</time>
      </trkpt>
      <trkpt lat="44.4097" lon="4.61203">
        <ele>296</ele>
        <time>29-03-2015T08:52:59Z</time>
      </trkpt>
      <trkpt lat="44.4097" lon="4.61203">
        <ele>296</ele>
        <time>29-03-2015T08:53:04Z</time>
      </trkpt>
      <trkpt lat="44.4097" lon="4.61203">
        <ele>296</ele>
        <time>29-03-2015T08:53:09Z</time>
      </trkpt>
      <trkpt lat="44.4097" lon="4.61203">
        <ele>296</ele>
        <time>29-03-2015T08:53:14Z</time>
      </trkpt>
      <trkpt lat="44.4097" lon="4.61203">
        <ele>296</ele>
        <time>29-03-2015T08:53:19Z</time>
      </trkpt>
      <trkpt lat="44.4097" lon="4.61203">
        <ele>296</ele>
        <time>29-03-2015T08:53:24Z</time>
      </trkpt>
      <trkpt lat="44.4097" lon="4.61203">
        <ele>296</ele>
        <time>29-03-2015T08:53:29Z</time>
      </trkpt>
      <trkpt lat="44.4097" lon="4.61203">
        <ele>296</ele>
        <time>29-03-2015T08:53:34Z</time>
      </trkpt>
      <trkpt lat="44.4097" lon="4.61203">
        <ele>296</ele>
        <time>29-03-2015T08:53:39Z</time>
      </trkpt>
      <trkpt lat="44.4097" lon="4.61203">
        <ele>296</ele>
        <time>29-03-2015T08:53:44Z</time>
      </trkpt>
      <trkpt lat="44.4097" lon="4.61203">
        <ele>296</ele>
        <time>29-03-2015T08:53:49Z</time>
      </trkpt>
      <trkpt lat="44.4097" lon="4.61203">
        <ele>296</ele>
        <time>29-03-2015T08:53:54Z</time>
      </trkpt>
      <trkpt lat="44.4097" lon="4.61203">
        <ele>296</ele>
        <time>29-03-2015T08:53:59Z</time>
      </trkpt>
      <trkpt lat="44.4097" lon="4.61203">
        <ele>296</ele>
        <time>29-03-2015T08:54:04Z</time>
      </trkpt>
      <trkpt lat="44.4097" lon="4.61203">
        <ele>296</ele>
        <time>29-03-2015T08:54:09Z</time>
      </trkpt>
      <trkpt lat="44.4097" lon="4.61203">
        <ele>296</ele>
        <time>29-03-2015T08:54:14Z</time>
      </trkpt>
      <trkpt lat="44.40971" lon="4.61202">
        <ele>296</ele>
        <time>29-03-2015T08:54:19Z</time>
      </trkpt>
      <trkpt lat="44.40971" lon="4.61202">
        <ele>296</ele>
        <time>29-03-2015T08:54:24Z</time>
      </trkpt>
      <trkpt lat="44.4097" lon="4.61204">
        <ele>296</ele>
        <time>29-03-2015T08:54:29Z</time>
      </trkpt>
      <trkpt lat="44.4097" lon="4.61204">
        <ele>296</ele>
        <time>29-03-2015T08:54:34Z</time>
      </trkpt>
      <trkpt lat="44.40971" lon="4.612">
        <ele>296</ele>
        <time>29-03-2015T08:54:39Z</time>
      </trkpt>
      <trkpt lat="44.40973" lon="4.61193">
        <ele>296</ele>
        <time>29-03-2015T08:54:44Z</time>
      </trkpt>
      <trkpt lat="44.40971" lon="4.61188">
        <ele>296</ele>
        <time>29-03-2015T08:54:46Z</time>
      </trkpt>
      <trkpt lat="44.40966" lon="4.61184">
        <ele>296</ele>
        <time>29-03-2015T08:54:48Z</time>
      </trkpt>
      <trkpt lat="44.40962" lon="4.61182">
        <ele>297</ele>
        <time>29-03-2015T08:54:50Z</time>
      </trkpt>
      <trkpt lat="44.40954" lon="4.61179">
        <ele>297</ele>
        <time>29-03-2015T08:54:52Z</time>
      </trkpt>
      <trkpt lat="44.40949" lon="4.61176">
        <ele>299</ele>
        <time>29-03-2015T08:54:54Z</time>
      </trkpt>
      <trkpt lat="44.40944" lon="4.61171">
        <ele>299</ele>
        <time>29-03-2015T08:54:56Z</time>
      </trkpt>
      <trkpt lat="44.4094" lon="4.61167">
        <ele>299</ele>
        <time>29-03-2015T08:54:58Z</time>
      </trkpt>
      <trkpt lat="44.40932" lon="4.61163">
        <ele>300</ele>
        <time>29-03-2015T08:55:01Z</time>
      </trkpt>
      <trkpt lat="44.40928" lon="4.61159">
        <ele>301</ele>
        <time>29-03-2015T08:55:04Z</time>
      </trkpt>
      <trkpt lat="44.40925" lon="4.61154">
        <ele>301</ele>
        <time>29-03-2015T08:55:07Z</time>
      </trkpt>
      <trkpt lat="44.4092" lon="4.61149">
        <ele>304</ele>
        <time>29-03-2015T08:55:10Z</time>
      </trkpt>
      <trkpt lat="44.40916" lon="4.61145">
        <ele>304</ele>
        <time>29-03-2015T08:55:13Z</time>
      </trkpt>
      <trkpt lat="44.4091" lon="4.61144">
        <ele>304</ele>
        <time>29-03-2015T08:55:15Z</time>
      </trkpt>
      <trkpt lat="44.40906" lon="4.61142">
        <ele>304</ele>
        <time>29-03-2015T08:55:18Z</time>
      </trkpt>
      <trkpt lat="44.40901" lon="4.6114">
        <ele>305</ele>
        <time>29-03-2015T08:55:20Z</time>
      </trkpt>
      <trkpt lat="44.40895" lon="4.61139">
        <ele>305</ele>
        <time>29-03-2015T08:55:24Z</time>
      </trkpt>
      <trkpt lat="44.40891" lon="4.61136">
        <ele>305</ele>
        <time>29-03-2015T08:55:26Z</time>
      </trkpt>
      <trkpt lat="44.40885" lon="4.61133">
        <ele>306</ele>
        <time>29-03-2015T08:55:31Z</time>
      </trkpt>
      <trkpt lat="44.40879" lon="4.61131">
        <ele>308</ele>
        <time>29-03-2015T08:55:35Z</time>
      </trkpt>
      <trkpt lat="44.40876" lon="4.61127">
        <ele>310</ele>
        <time>29-03-2015T08:55:40Z</time>
      </trkpt>
      <trkpt lat="44.40873" lon="4.61123">
        <ele>310</ele>
        <time>29-03-2015T08:55:43Z</time>
      </trkpt>
      <trkpt lat="44.40869" lon="4.61118">
        <ele>311</ele>
        <time>29-03-2015T08:55:48Z</time>
      </trkpt>
      <trkpt lat="44.40864" lon="4.61116">
        <ele>311</ele>
        <time>29-03-2015T08:55:52Z</time>
      </trkpt>
      <trkpt lat="44.40859" lon="4.61115">
        <ele>311</ele>
        <time>29-03-2015T08:55:54Z</time>
      </trkpt>
      <trkpt lat="44.40854" lon="4.61113">
        <ele>313</ele>
        <time>29-03-2015T08:55:59Z</time>
      </trkpt>
      <trkpt lat="44.4085" lon="4.6111">
        <ele>314</ele>
        <time>29-03-2015T08:56:04Z</time>
      </trkpt>
      <trkpt lat="44.40849" lon="4.6111">
        <ele>314</ele>
        <time>29-03-2015T08:56:09Z</time>
      </trkpt>
      <trkpt lat="44.4085" lon="4.6111">
        <ele>314</ele>
        <time>29-03-2015T08:56:14Z</time>
      </trkpt>
      <trkpt lat="44.40846" lon="4.61111">
        <ele>314</ele>
        <time>29-03-2015T08:56:19Z</time>
      </trkpt>
      <trkpt lat="44.40841" lon="4.61108">
        <ele>314</ele>
        <time>29-03-2015T08:56:22Z</time>
      </trkpt>
      <trkpt lat="44.40835" lon="4.61104">
        <ele>315</ele>
        <time>29-03-2015T08:56:25Z</time>
      </trkpt>
      <trkpt lat="44.4083" lon="4.61102">
        <ele>315</ele>
        <time>29-03-2015T08:56:28Z</time>
      </trkpt>
      <trkpt lat="44.40822" lon="4.61099">
        <ele>316</ele>
        <time>29-03-2015T08:56:31Z</time>
      </trkpt>
      <trkpt lat="44.40818" lon="4.61095">
        <ele>316</ele>
        <time>29-03-2015T08:56:33Z</time>
      </trkpt>
      <trkpt lat="44.40815" lon="4.61089">
        <ele>317</ele>
        <time>29-03-2015T08:56:37Z</time>
      </trkpt>
      <trkpt lat="44.40812" lon="4.61084">
        <ele>319</ele>
        <time>29-03-2015T08:56:39Z</time>
      </trkpt>
      <trkpt lat="44.40808" lon="4.61078">
        <ele>319</ele>
        <time>29-03-2015T08:56:42Z</time>
      </trkpt>
      <trkpt lat="44.40803" lon="4.61075">
        <ele>319</ele>
        <time>29-03-2015T08:56:45Z</time>
      </trkpt>
      <trkpt lat="44.40798" lon="4.61073">
        <ele>319</ele>
        <time>29-03-2015T08:56:47Z</time>
      </trkpt>
      <trkpt lat="44.40793" lon="4.61071">
        <ele>321</ele>
        <time>29-03-2015T08:56:50Z</time>
      </trkpt>
      <trkpt lat="44.40789" lon="4.61068">
        <ele>321</ele>
        <time>29-03-2015T08:56:52Z</time>
      </trkpt>
      <trkpt lat="44.40786" lon="4.61063">
        <ele>322</ele>
        <time>29-03-2015T08:56:55Z</time>
      </trkpt>
      <trkpt lat="44.40782" lon="4.61058">
        <ele>322</ele>
        <time>29-03-2015T08:56:58Z</time>
      </trkpt>
      <trkpt lat="44.40779" lon="4.61053">
        <ele>323</ele>
        <time>29-03-2015T08:57:00Z</time>
      </trkpt>
      <trkpt lat="44.40775" lon="4.61049">
        <ele>323</ele>
        <time>29-03-2015T08:57:03Z</time>
      </trkpt>
      <trkpt lat="44.40772" lon="4.61043">
        <ele>323</ele>
        <time>29-03-2015T08:57:06Z</time>
      </trkpt>
      <trkpt lat="44.40768" lon="4.61039">
        <ele>326</ele>
        <time>29-03-2015T08:57:09Z</time>
      </trkpt>
      <trkpt lat="44.40765" lon="4.61034">
        <ele>326</ele>
        <time>29-03-2015T08:57:11Z</time>
      </trkpt>
      <trkpt lat="44.4076" lon="4.61031">
        <ele>326</ele>
        <time>29-03-2015T08:57:14Z</time>
      </trkpt>
      <trkpt lat="44.40755" lon="4.6103">
        <ele>326</ele>
        <time>29-03-2015T08:57:16Z</time>
      </trkpt>
      <trkpt lat="44.40748" lon="4.61028">
        <ele>326</ele>
        <time>29-03-2015T08:57:18Z</time>
      </trkpt>
      <trkpt lat="44.40742" lon="4.61028">
        <ele>326</ele>
        <time>29-03-2015T08:57:21Z</time>
      </trkpt>
      <trkpt lat="44.40736" lon="4.61028">
        <ele>327</ele>
        <time>29-03-2015T08:57:25Z</time>
      </trkpt>
      <trkpt lat="44.40728" lon="4.61026">
        <ele>327</ele>
        <time>29-03-2015T08:57:28Z</time>
      </trkpt>
      <trkpt lat="44.40723" lon="4.61025">
        <ele>329</ele>
        <time>29-03-2015T08:57:30Z</time>
      </trkpt>
      <trkpt lat="44.40718" lon="4.61025">
        <ele>329</ele>
        <time>29-03-2015T08:57:33Z</time>
      </trkpt>
      <trkpt lat="44.40713" lon="4.61024">
        <ele>329</ele>
        <time>29-03-2015T08:57:38Z</time>
      </trkpt>
      <trkpt lat="44.40706" lon="4.61022">
        <ele>329</ele>
        <time>29-03-2015T08:57:40Z</time>
      </trkpt>
      <trkpt lat="44.407" lon="4.61023">
        <ele>329</ele>
        <time>29-03-2015T08:57:42Z</time>
      </trkpt>
      <trkpt lat="44.40695" lon="4.61023">
        <ele>329</ele>
        <time>29-03-2015T08:57:45Z</time>
      </trkpt>
      <trkpt lat="44.40689" lon="4.61024">
        <ele>329</ele>
        <time>29-03-2015T08:57:48Z</time>
      </trkpt>
      <trkpt lat="44.40683" lon="4.61022">
        <ele>331</ele>
        <time>29-03-2015T08:57:51Z</time>
      </trkpt>
      <trkpt lat="44.40676" lon="4.6102">
        <ele>331</ele>
        <time>29-03-2015T08:57:53Z</time>
      </trkpt>
      <trkpt lat="44.40671" lon="4.61018">
        <ele>332</ele>
        <time>29-03-2015T08:57:55Z</time>
      </trkpt>
      <trkpt lat="44.40664" lon="4.61017">
        <ele>332</ele>
        <time>29-03-2015T08:57:58Z</time>
      </trkpt>
      <trkpt lat="44.40657" lon="4.61016">
        <ele>333</ele>
        <time>29-03-2015T08:58:00Z</time>
      </trkpt>
      <trkpt lat="44.40652" lon="4.61015">
        <ele>333</ele>
        <time>29-03-2015T08:58:02Z</time>
      </trkpt>
      <trkpt lat="44.40645" lon="4.61013">
        <ele>333</ele>
        <time>29-03-2015T08:58:04Z</time>
      </trkpt>
      <trkpt lat="44.40638" lon="4.6101">
        <ele>333</ele>
        <time>29-03-2015T08:58:06Z</time>
      </trkpt>
      <trkpt lat="44.40633" lon="4.61005">
        <ele>335</ele>
        <time>29-03-2015T08:58:09Z</time>
      </trkpt>
      <trkpt lat="44.40629" lon="4.61002">
        <ele>335</ele>
        <time>29-03-2015T08:58:11Z</time>
      </trkpt>
      <trkpt lat="44.40623" lon="4.61">
        <ele>335</ele>
        <time>29-03-2015T08:58:13Z</time>
      </trkpt>
      <trkpt lat="44.40615" lon="4.60998">
        <ele>335</ele>
        <time>29-03-2015T08:58:16Z</time>
      </trkpt>
      <trkpt lat="44.40608" lon="4.60997">
        <ele>335</ele>
        <time>29-03-2015T08:58:18Z</time>
      </trkpt>
      <trkpt lat="44.40602" lon="4.60994">
        <ele>335</ele>
        <time>29-03-2015T08:58:20Z</time>
      </trkpt>
      <trkpt lat="44.40597" lon="4.60991">
        <ele>335</ele>
        <time>29-03-2015T08:58:22Z</time>
      </trkpt>
      <trkpt lat="44.40594" lon="4.60985">
        <ele>336</ele>
        <time>29-03-2015T08:58:24Z</time>
      </trkpt>
      <trkpt lat="44.4059" lon="4.6098">
        <ele>336</ele>
        <time>29-03-2015T08:58:26Z</time>
      </trkpt>
      <trkpt lat="44.40585" lon="4.60977">
        <ele>336</ele>
        <time>29-03-2015T08:58:28Z</time>
      </trkpt>
      <trkpt lat="44.40579" lon="4.60972">
        <ele>338</ele>
        <time>29-03-2015T08:58:30Z</time>
      </trkpt>
      <trkpt lat="44.40575" lon="4.60969">
        <ele>338</ele>
        <time>29-03-2015T08:58:32Z</time>
      </trkpt>
      <trkpt lat="44.4057" lon="4.60966">
        <ele>340</ele>
        <time>29-03-2015T08:58:34Z</time>
      </trkpt>
      <trkpt lat="44.40565" lon="4.60962">
        <ele>340</ele>
        <time>29-03-2015T08:58:36Z</time>
      </trkpt>
      <trkpt lat="44.40559" lon="4.60959">
        <ele>340</ele>
        <time>29-03-2015T08:58:38Z</time>
      </trkpt>
      <trkpt lat="44.40554" lon="4.60957">
        <ele>342</ele>
        <time>29-03-2015T08:58:40Z</time>
      </trkpt>
      <trkpt lat="44.40546" lon="4.60949">
        <ele>342</ele>
        <time>29-03-2015T08:58:44Z</time>
      </trkpt>
      <trkpt lat="44.4054" lon="4.60946">
        <ele>342</ele>
        <time>29-03-2015T08:58:46Z</time>
      </trkpt>
      <trkpt lat="44.40536" lon="4.60943">
        <ele>342</ele>
        <time>29-03-2015T08:58:48Z</time>
      </trkpt>
      <trkpt lat="44.4053" lon="4.60941">
        <ele>344</ele>
        <time>29-03-2015T08:58:50Z</time>
      </trkpt>
      <trkpt lat="44.40525" lon="4.60938">
        <ele>344</ele>
        <time>29-03-2015T08:58:52Z</time>
      </trkpt>
      <trkpt lat="44.40519" lon="4.60935">
        <ele>344</ele>
        <time>29-03-2015T08:58:55Z</time>
      </trkpt>
      <trkpt lat="44.40514" lon="4.60932">
        <ele>344</ele>
        <time>29-03-2015T08:58:57Z</time>
      </trkpt>
      <trkpt lat="44.40509" lon="4.60928">
        <ele>345</ele>
        <time>29-03-2015T08:59:00Z</time>
      </trkpt>
      <trkpt lat="44.40504" lon="4.60925">
        <ele>345</ele>
        <time>29-03-2015T08:59:02Z</time>
      </trkpt>
      <trkpt lat="44.40498" lon="4.60922">
        <ele>347</ele>
        <time>29-03-2015T08:59:04Z</time>
      </trkpt>
      <trkpt lat="44.40493" lon="4.60919">
        <ele>347</ele>
        <time>29-03-2015T08:59:06Z</time>
      </trkpt>
      <trkpt lat="44.40488" lon="4.60917">
        <ele>347</ele>
        <time>29-03-2015T08:59:08Z</time>
      </trkpt>
      <trkpt lat="44.40483" lon="4.60914">
        <ele>348</ele>
        <time>29-03-2015T08:59:10Z</time>
      </trkpt>
      <trkpt lat="44.40478" lon="4.6091">
        <ele>348</ele>
        <time>29-03-2015T08:59:12Z</time>
      </trkpt>
      <trkpt lat="44.40473" lon="4.60907">
        <ele>349</ele>
        <time>29-03-2015T08:59:14Z</time>
      </trkpt>
      <trkpt lat="44.40467" lon="4.60903">
        <ele>349</ele>
        <time>29-03-2015T08:59:17Z</time>
      </trkpt>
      <trkpt lat="44.40463" lon="4.60899">
        <ele>350</ele>
        <time>29-03-2015T08:59:19Z</time>
      </trkpt>
      <trkpt lat="44.40455" lon="4.60896">
        <ele>350</ele>
        <time>29-03-2015T08:59:22Z</time>
      </trkpt>
      <trkpt lat="44.4045" lon="4.60892">
        <ele>351</ele>
        <time>29-03-2015T08:59:24Z</time>
      </trkpt>
      <trkpt lat="44.40446" lon="4.60888">
        <ele>351</ele>
        <time>29-03-2015T08:59:26Z</time>
      </trkpt>
      <trkpt lat="44.40442" lon="4.60886">
        <ele>351</ele>
        <time>29-03-2015T08:59:30Z</time>
      </trkpt>
      <trkpt lat="44.40442" lon="4.60885">
        <ele>352</ele>
        <time>29-03-2015T08:59:35Z</time>
      </trkpt>
      <trkpt lat="44.40443" lon="4.60885">
        <ele>352</ele>
        <time>29-03-2015T08:59:40Z</time>
      </trkpt>
      <trkpt lat="44.40444" lon="4.60885">
        <ele>352</ele>
        <time>29-03-2015T08:59:45Z</time>
      </trkpt>
      <trkpt lat="44.40444" lon="4.60885">
        <ele>352</ele>
        <time>29-03-2015T08:59:50Z</time>
      </trkpt>
      <trkpt lat="44.40444" lon="4.60885">
        <ele>352</ele>
        <time>29-03-2015T08:59:55Z</time>
      </trkpt>
      <trkpt lat="44.40444" lon="4.60885">
        <ele>353</ele>
        <time>29-03-2015T09:00:00Z</time>
      </trkpt>
      <trkpt lat="44.40444" lon="4.60885">
        <ele>353</ele>
        <time>29-03-2015T09:00:05Z</time>
      </trkpt>
      <trkpt lat="44.40444" lon="4.60885">
        <ele>352</ele>
        <time>29-03-2015T09:00:10Z</time>
      </trkpt>
      <trkpt lat="44.40444" lon="4.60885">
        <ele>352</ele>
        <time>29-03-2015T09:00:15Z</time>
      </trkpt>
      <trkpt lat="44.40444" lon="4.60885">
        <ele>352</ele>
        <time>29-03-2015T09:00:20Z</time>
      </trkpt>
      <trkpt lat="44.40444" lon="4.60885">
        <ele>352</ele>
        <time>29-03-2015T09:00:25Z</time>
      </trkpt>
      <trkpt lat="44.40444" lon="4.60885">
        <ele>352</ele>
        <time>29-03-2015T09:00:30Z</time>
      </trkpt>
      <trkpt lat="44.40444" lon="4.60885">
        <ele>352</ele>
        <time>29-03-2015T09:00:35Z</time>
      </trkpt>
      <trkpt lat="44.40447" lon="4.60878">
        <ele>352</ele>
        <time>29-03-2015T09:00:39Z</time>
      </trkpt>
      <trkpt lat="44.40449" lon="4.60872">
        <ele>352</ele>
        <time>29-03-2015T09:00:42Z</time>
      </trkpt>
      <trkpt lat="44.40453" lon="4.60865">
        <ele>352</ele>
        <time>29-03-2015T09:00:44Z</time>
      </trkpt>
      <trkpt lat="44.40455" lon="4.60859">
        <ele>352</ele>
        <time>29-03-2015T09:00:46Z</time>
      </trkpt>
      <trkpt lat="44.40459" lon="4.60854">
        <ele>352</ele>
        <time>29-03-2015T09:00:48Z</time>
      </trkpt>
      <trkpt lat="44.40463" lon="4.6085">
        <ele>354</ele>
        <time>29-03-2015T09:00:50Z</time>
      </trkpt>
      <trkpt lat="44.40467" lon="4.60846">
        <ele>354</ele>
        <time>29-03-2015T09:00:52Z</time>
      </trkpt>
      <trkpt lat="44.40472" lon="4.60841">
        <ele>354</ele>
        <time>29-03-2015T09:00:55Z</time>
      </trkpt>
      <trkpt lat="44.40476" lon="4.60837">
        <ele>354</ele>
        <time>29-03-2015T09:00:57Z</time>
      </trkpt>
      <trkpt lat="44.40482" lon="4.60833">
        <ele>354</ele>
        <time>29-03-2015T09:00:59Z</time>
      </trkpt>
      <trkpt lat="44.40487" lon="4.60831">
        <ele>354</ele>
        <time>29-03-2015T09:01:02Z</time>
      </trkpt>
      <trkpt lat="44.40492" lon="4.60828">
        <ele>354</ele>
        <time>29-03-2015T09:01:05Z</time>
      </trkpt>
      <trkpt lat="44.40497" lon="4.60823">
        <ele>354</ele>
        <time>29-03-2015T09:01:08Z</time>
      </trkpt>
      <trkpt lat="44.40501" lon="4.60819">
        <ele>355</ele>
        <time>29-03-2015T09:01:10Z</time>
      </trkpt>
      <trkpt lat="44.40505" lon="4.60817">
        <ele>355</ele>
        <time>29-03-2015T09:01:12Z</time>
      </trkpt>
      <trkpt lat="44.40509" lon="4.60814">
        <ele>355</ele>
        <time>29-03-2015T09:01:14Z</time>
      </trkpt>
      <trkpt lat="44.40514" lon="4.60809">
        <ele>355</ele>
        <time>29-03-2015T09:01:17Z</time>
      </trkpt>
      <trkpt lat="44.40517" lon="4.60803">
        <ele>356</ele>
        <time>29-03-2015T09:01:19Z</time>
      </trkpt>
      <trkpt lat="44.40521" lon="4.60798">
        <ele>356</ele>
        <time>29-03-2015T09:01:22Z</time>
      </trkpt>
      <trkpt lat="44.40525" lon="4.60794">
        <ele>357</ele>
        <time>29-03-2015T09:01:24Z</time>
      </trkpt>
      <trkpt lat="44.4053" lon="4.60791">
        <ele>357</ele>
        <time>29-03-2015T09:01:26Z</time>
      </trkpt>
      <trkpt lat="44.40535" lon="4.6079">
        <ele>357</ele>
        <time>29-03-2015T09:01:28Z</time>
      </trkpt>
      <trkpt lat="44.4054" lon="4.60788">
        <ele>357</ele>
        <time>29-03-2015T09:01:30Z</time>
      </trkpt>
      <trkpt lat="44.40545" lon="4.60785">
        <ele>357</ele>
        <time>29-03-2015T09:01:32Z</time>
      </trkpt>
      <trkpt lat="44.4055" lon="4.60783">
        <ele>358</ele>
        <time>29-03-2015T09:01:34Z</time>
      </trkpt>
      <trkpt lat="44.40557" lon="4.60781">
        <ele>358</ele>
        <time>29-03-2015T09:01:36Z</time>
      </trkpt>
      <trkpt lat="44.40564" lon="4.60776">
        <ele>358</ele>
        <time>29-03-2015T09:01:38Z</time>
      </trkpt>
      <trkpt lat="44.40572" lon="4.60773">
        <ele>358</ele>
        <time>29-03-2015T09:01:40Z</time>
      </trkpt>
      <trkpt lat="44.40576" lon="4.60771">
        <ele>358</ele>
        <time>29-03-2015T09:01:41Z</time>
      </trkpt>
      <trkpt lat="44.40579" lon="4.60766">
        <ele>358</ele>
        <time>29-03-2015T09:01:42Z</time>
      </trkpt>
      <trkpt lat="44.40582" lon="4.60761">
        <ele>358</ele>
        <time>29-03-2015T09:01:43Z</time>
      </trkpt>
      <trkpt lat="44.40587" lon="4.60752">
        <ele>356</ele>
        <time>29-03-2015T09:01:45Z</time>
      </trkpt>
      <trkpt lat="44.40588" lon="4.60746">
        <ele>356</ele>
        <time>29-03-2015T09:01:47Z</time>
      </trkpt>
      <trkpt lat="44.40588" lon="4.60737">
        <ele>356</ele>
        <time>29-03-2015T09:01:49Z</time>
      </trkpt>
      <trkpt lat="44.40584" lon="4.6073">
        <ele>356</ele>
        <time>29-03-2015T09:01:52Z</time>
      </trkpt>
      <trkpt lat="44.40578" lon="4.60727">
        <ele>356</ele>
        <time>29-03-2015T09:01:54Z</time>
      </trkpt>
      <trkpt lat="44.40573" lon="4.60724">
        <ele>356</ele>
        <time>29-03-2015T09:01:56Z</time>
      </trkpt>
      <trkpt lat="44.40567" lon="4.60718">
        <ele>358</ele>
        <time>29-03-2015T09:01:59Z</time>
      </trkpt>
      <trkpt lat="44.40563" lon="4.60715">
        <ele>358</ele>
        <time>29-03-2015T09:02:01Z</time>
      </trkpt>
      <trkpt lat="44.40557" lon="4.6071">
        <ele>360</ele>
        <time>29-03-2015T09:02:04Z</time>
      </trkpt>
      <trkpt lat="44.40552" lon="4.60707">
        <ele>360</ele>
        <time>29-03-2015T09:02:06Z</time>
      </trkpt>
      <trkpt lat="44.40548" lon="4.60705">
        <ele>362</ele>
        <time>29-03-2015T09:02:09Z</time>
      </trkpt>
      <trkpt lat="44.40544" lon="4.60698">
        <ele>362</ele>
        <time>29-03-2015T09:02:12Z</time>
      </trkpt>
      <trkpt lat="44.40541" lon="4.60692">
        <ele>362</ele>
        <time>29-03-2015T09:02:16Z</time>
      </trkpt>
      <trkpt lat="44.40535" lon="4.6069">
        <ele>363</ele>
        <time>29-03-2015T09:02:19Z</time>
      </trkpt>
      <trkpt lat="44.4053" lon="4.60686">
        <ele>363</ele>
        <time>29-03-2015T09:02:23Z</time>
      </trkpt>
      <trkpt lat="44.40525" lon="4.60687">
        <ele>363</ele>
        <time>29-03-2015T09:02:25Z</time>
      </trkpt>
      <trkpt lat="44.40519" lon="4.6069">
        <ele>364</ele>
        <time>29-03-2015T09:02:29Z</time>
      </trkpt>
      <trkpt lat="44.40513" lon="4.60692">
        <ele>364</ele>
        <time>29-03-2015T09:02:31Z</time>
      </trkpt>
      <trkpt lat="44.40509" lon="4.60691">
        <ele>365</ele>
        <time>29-03-2015T09:02:34Z</time>
      </trkpt>
      <trkpt lat="44.40503" lon="4.6069">
        <ele>365</ele>
        <time>29-03-2015T09:02:37Z</time>
      </trkpt>
      <trkpt lat="44.405" lon="4.60685">
        <ele>366</ele>
        <time>29-03-2015T09:02:39Z</time>
      </trkpt>
      <trkpt lat="44.40496" lon="4.6068">
        <ele>366</ele>
        <time>29-03-2015T09:02:42Z</time>
      </trkpt>
      <trkpt lat="44.40493" lon="4.60674">
        <ele>367</ele>
        <time>29-03-2015T09:02:45Z</time>
      </trkpt>
      <trkpt lat="44.40487" lon="4.60673">
        <ele>368</ele>
        <time>29-03-2015T09:02:49Z</time>
      </trkpt>
      <trkpt lat="44.40483" lon="4.60667">
        <ele>368</ele>
        <time>29-03-2015T09:02:52Z</time>
      </trkpt>
      <trkpt lat="44.4048" lon="4.60661">
        <ele>368</ele>
        <time>29-03-2015T09:02:55Z</time>
      </trkpt>
      <trkpt lat="44.40476" lon="4.60656">
        <ele>368</ele>
        <time>29-03-2015T09:02:58Z</time>
      </trkpt>
      <trkpt lat="44.40471" lon="4.60654">
        <ele>369</ele>
        <time>29-03-2015T09:03:02Z</time>
      </trkpt>
      <trkpt lat="44.40468" lon="4.60646">
        <ele>371</ele>
        <time>29-03-2015T09:03:06Z</time>
      </trkpt>
      <trkpt lat="44.40463" lon="4.60642">
        <ele>371</ele>
        <time>29-03-2015T09:03:09Z</time>
      </trkpt>
      <trkpt lat="44.40455" lon="4.60636">
        <ele>371</ele>
        <time>29-03-2015T09:03:12Z</time>
      </trkpt>
      <trkpt lat="44.40454" lon="4.60628">
        <ele>371</ele>
        <time>29-03-2015T09:03:16Z</time>
      </trkpt>
      <trkpt lat="44.40451" lon="4.60622">
        <ele>373</ele>
        <time>29-03-2015T09:03:21Z</time>
      </trkpt>
      <trkpt lat="44.40445" lon="4.60619">
        <ele>373</ele>
        <time>29-03-2015T09:03:25Z</time>
      </trkpt>
      <trkpt lat="44.40441" lon="4.60616">
        <ele>373</ele>
        <time>29-03-2015T09:03:28Z</time>
      </trkpt>
      <trkpt lat="44.40437" lon="4.6061">
        <ele>374</ele>
        <time>29-03-2015T09:03:31Z</time>
      </trkpt>
      <trkpt lat="44.40434" lon="4.60605">
        <ele>376</ele>
        <time>29-03-2015T09:03:34Z</time>
      </trkpt>
      <trkpt lat="44.40431" lon="4.60601">
        <ele>376</ele>
        <time>29-03-2015T09:03:37Z</time>
      </trkpt>
      <trkpt lat="44.4043" lon="4.60592">
        <ele>377</ele>
        <time>29-03-2015T09:03:41Z</time>
      </trkpt>
      <trkpt lat="44.4043" lon="4.60585">
        <ele>377</ele>
        <time>29-03-2015T09:03:45Z</time>
      </trkpt>
      <trkpt lat="44.40423" lon="4.60582">
        <ele>377</ele>
        <time>29-03-2015T09:03:49Z</time>
      </trkpt>
      <trkpt lat="44.40419" lon="4.60577">
        <ele>377</ele>
        <time>29-03-2015T09:03:52Z</time>
      </trkpt>
      <trkpt lat="44.40417" lon="4.6057">
        <ele>377</ele>
        <time>29-03-2015T09:03:55Z</time>
      </trkpt>
      <trkpt lat="44.40414" lon="4.60562">
        <ele>379</ele>
        <time>29-03-2015T09:03:59Z</time>
      </trkpt>
      <trkpt lat="44.40418" lon="4.60558">
        <ele>379</ele>
        <time>29-03-2015T09:04:01Z</time>
      </trkpt>
      <trkpt lat="44.40424" lon="4.60556">
        <ele>379</ele>
        <time>29-03-2015T09:04:04Z</time>
      </trkpt>
      <trkpt lat="44.40426" lon="4.60549">
        <ele>379</ele>
        <time>29-03-2015T09:04:07Z</time>
      </trkpt>
      <trkpt lat="44.40423" lon="4.6054">
        <ele>379</ele>
        <time>29-03-2015T09:04:10Z</time>
      </trkpt>
      <trkpt lat="44.40418" lon="4.60539">
        <ele>379</ele>
        <time>29-03-2015T09:04:12Z</time>
      </trkpt>
      <trkpt lat="44.4041" lon="4.60539">
        <ele>379</ele>
        <time>29-03-2015T09:04:14Z</time>
      </trkpt>
      <trkpt lat="44.40403" lon="4.6054">
        <ele>379</ele>
        <time>29-03-2015T09:04:16Z</time>
      </trkpt>
      <trkpt lat="44.40397" lon="4.60538">
        <ele>379</ele>
        <time>29-03-2015T09:04:18Z</time>
      </trkpt>
      <trkpt lat="44.40392" lon="4.60535">
        <ele>379</ele>
        <time>29-03-2015T09:04:20Z</time>
      </trkpt>
      <trkpt lat="44.40386" lon="4.60533">
        <ele>379</ele>
        <time>29-03-2015T09:04:22Z</time>
      </trkpt>
      <trkpt lat="44.4038" lon="4.60529">
        <ele>380</ele>
        <time>29-03-2015T09:04:24Z</time>
      </trkpt>
      <trkpt lat="44.40374" lon="4.60526">
        <ele>380</ele>
        <time>29-03-2015T09:04:26Z</time>
      </trkpt>
      <trkpt lat="44.40367" lon="4.60523">
        <ele>380</ele>
        <time>29-03-2015T09:04:28Z</time>
      </trkpt>
      <trkpt lat="44.40363" lon="4.60522">
        <ele>381</ele>
        <time>29-03-2015T09:04:29Z</time>
      </trkpt>
      <trkpt lat="44.40357" lon="4.60523">
        <ele>381</ele>
        <time>29-03-2015T09:04:31Z</time>
      </trkpt>
      <trkpt lat="44.4035" lon="4.60523">
        <ele>381</ele>
        <time>29-03-2015T09:04:33Z</time>
      </trkpt>
      <trkpt lat="44.40343" lon="4.60526">
        <ele>382</ele>
        <time>29-03-2015T09:04:35Z</time>
      </trkpt>
      <trkpt lat="44.40336" lon="4.60526">
        <ele>382</ele>
        <time>29-03-2015T09:04:37Z</time>
      </trkpt>
      <trkpt lat="44.40338" lon="4.60519">
        <ele>382</ele>
        <time>29-03-2015T09:04:40Z</time>
      </trkpt>
      <trkpt lat="44.4034" lon="4.60509">
        <ele>382</ele>
        <time>29-03-2015T09:04:42Z</time>
      </trkpt>
      <trkpt lat="44.40342" lon="4.605">
        <ele>381</ele>
        <time>29-03-2015T09:04:44Z</time>
      </trkpt>
      <trkpt lat="44.40345" lon="4.60489">
        <ele>381</ele>
        <time>29-03-2015T09:04:46Z</time>
      </trkpt>
      <trkpt lat="44.40347" lon="4.60482">
        <ele>381</ele>
        <time>29-03-2015T09:04:48Z</time>
      </trkpt>
      <trkpt lat="44.40349" lon="4.60475">
        <ele>380</ele>
        <time>29-03-2015T09:04:50Z</time>
      </trkpt>
      <trkpt lat="44.40352" lon="4.60466">
        <ele>380</ele>
        <time>29-03-2015T09:04:52Z</time>
      </trkpt>
      <trkpt lat="44.40355" lon="4.60458">
        <ele>379</ele>
        <time>29-03-2015T09:04:54Z</time>
      </trkpt>
      <trkpt lat="44.4036" lon="4.60453">
        <ele>379</ele>
        <time>29-03-2015T09:04:56Z</time>
      </trkpt>
      <trkpt lat="44.40364" lon="4.60447">
        <ele>379</ele>
        <time>29-03-2015T09:04:58Z</time>
      </trkpt>
      <trkpt lat="44.40367" lon="4.60442">
        <ele>377</ele>
        <time>29-03-2015T09:04:59Z</time>
      </trkpt>
      <trkpt lat="44.4037" lon="4.60433">
        <ele>377</ele>
        <time>29-03-2015T09:05:01Z</time>
      </trkpt>
      <trkpt lat="44.40369" lon="4.60425">
        <ele>377</ele>
        <time>29-03-2015T09:05:03Z</time>
      </trkpt>
      <trkpt lat="44.40369" lon="4.60418">
        <ele>376</ele>
        <time>29-03-2015T09:05:05Z</time>
      </trkpt>
      <trkpt lat="44.40369" lon="4.60409">
        <ele>376</ele>
        <time>29-03-2015T09:05:09Z</time>
      </trkpt>
      <trkpt lat="44.40371" lon="4.604">
        <ele>376</ele>
        <time>29-03-2015T09:05:11Z</time>
      </trkpt>
      <trkpt lat="44.4037" lon="4.60392">
        <ele>376</ele>
        <time>29-03-2015T09:05:13Z</time>
      </trkpt>
      <trkpt lat="44.40368" lon="4.60382">
        <ele>377</ele>
        <time>29-03-2015T09:05:15Z</time>
      </trkpt>
      <trkpt lat="44.40364" lon="4.60376">
        <ele>377</ele>
        <time>29-03-2015T09:05:18Z</time>
      </trkpt>
      <trkpt lat="44.40364" lon="4.6037">
        <ele>378</ele>
        <time>29-03-2015T09:05:22Z</time>
      </trkpt>
      <trkpt lat="44.4036" lon="4.60366">
        <ele>378</ele>
        <time>29-03-2015T09:05:24Z</time>
      </trkpt>
      <trkpt lat="44.40355" lon="4.60363">
        <ele>378</ele>
        <time>29-03-2015T09:05:27Z</time>
      </trkpt>
      <trkpt lat="44.40352" lon="4.60358">
        <ele>379</ele>
        <time>29-03-2015T09:05:30Z</time>
      </trkpt>
      <trkpt lat="44.40349" lon="4.60352">
        <ele>379</ele>
        <time>29-03-2015T09:05:33Z</time>
      </trkpt>
      <trkpt lat="44.40345" lon="4.60348">
        <ele>381</ele>
        <time>29-03-2015T09:05:38Z</time>
      </trkpt>
      <trkpt lat="44.4034" lon="4.60347">
        <ele>382</ele>
        <time>29-03-2015T09:05:41Z</time>
      </trkpt>
      <trkpt lat="44.40335" lon="4.60343">
        <ele>382</ele>
        <time>29-03-2015T09:05:46Z</time>
      </trkpt>
      <trkpt lat="44.40333" lon="4.60337">
        <ele>383</ele>
        <time>29-03-2015T09:05:50Z</time>
      </trkpt>
      <trkpt lat="44.4033" lon="4.60332">
        <ele>384</ele>
        <time>29-03-2015T09:05:54Z</time>
      </trkpt>
      <trkpt lat="44.40322" lon="4.60332">
        <ele>384</ele>
        <time>29-03-2015T09:05:58Z</time>
      </trkpt>
      <trkpt lat="44.40315" lon="4.60331">
        <ele>385</ele>
        <time>29-03-2015T09:06:02Z</time>
      </trkpt>
      <trkpt lat="44.4031" lon="4.60332">
        <ele>387</ele>
        <time>29-03-2015T09:06:05Z</time>
      </trkpt>
      <trkpt lat="44.40306" lon="4.60327">
        <ele>387</ele>
        <time>29-03-2015T09:06:09Z</time>
      </trkpt>
      <trkpt lat="44.40304" lon="4.6032">
        <ele>387</ele>
        <time>29-03-2015T09:06:13Z</time>
      </trkpt>
      <trkpt lat="44.40302" lon="4.60314">
        <ele>388</ele>
        <time>29-03-2015T09:06:17Z</time>
      </trkpt>
      <trkpt lat="44.403" lon="4.60308">
        <ele>390</ele>
        <time>29-03-2015T09:06:20Z</time>
      </trkpt>
      <trkpt lat="44.40297" lon="4.60304">
        <ele>390</ele>
        <time>29-03-2015T09:06:22Z</time>
      </trkpt>
      <trkpt lat="44.40294" lon="4.60297">
        <ele>390</ele>
        <time>29-03-2015T09:06:25Z</time>
      </trkpt>
      <trkpt lat="44.4029" lon="4.60291">
        <ele>391</ele>
        <time>29-03-2015T09:06:29Z</time>
      </trkpt>
      <trkpt lat="44.40285" lon="4.60287">
        <ele>391</ele>
        <time>29-03-2015T09:06:32Z</time>
      </trkpt>
      <trkpt lat="44.40283" lon="4.6028">
        <ele>392</ele>
        <time>29-03-2015T09:06:35Z</time>
      </trkpt>
      <trkpt lat="44.40283" lon="4.60274">
        <ele>392</ele>
        <time>29-03-2015T09:06:37Z</time>
      </trkpt>
      <trkpt lat="44.40284" lon="4.60266">
        <ele>393</ele>
        <time>29-03-2015T09:06:40Z</time>
      </trkpt>
      <trkpt lat="44.40284" lon="4.60259">
        <ele>393</ele>
        <time>29-03-2015T09:06:43Z</time>
      </trkpt>
      <trkpt lat="44.40284" lon="4.60251">
        <ele>393</ele>
        <time>29-03-2015T09:06:46Z</time>
      </trkpt>
      <trkpt lat="44.40281" lon="4.60245">
        <ele>393</ele>
        <time>29-03-2015T09:06:49Z</time>
      </trkpt>
      <trkpt lat="44.40276" lon="4.60241">
        <ele>393</ele>
        <time>29-03-2015T09:06:52Z</time>
      </trkpt>
      <trkpt lat="44.40273" lon="4.60234">
        <ele>393</ele>
        <time>29-03-2015T09:06:56Z</time>
      </trkpt>
      <trkpt lat="44.4027" lon="4.60229">
        <ele>393</ele>
        <time>29-03-2015T09:06:58Z</time>
      </trkpt>
      <trkpt lat="44.40266" lon="4.60223">
        <ele>393</ele>
        <time>29-03-2015T09:07:02Z</time>
      </trkpt>
      <trkpt lat="44.40264" lon="4.60216">
        <ele>393</ele>
        <time>29-03-2015T09:07:05Z</time>
      </trkpt>
      <trkpt lat="44.40263" lon="4.6021">
        <ele>393</ele>
        <time>29-03-2015T09:07:07Z</time>
      </trkpt>
      <trkpt lat="44.40261" lon="4.60203">
        <ele>395</ele>
        <time>29-03-2015T09:07:09Z</time>
      </trkpt>
      <trkpt lat="44.40258" lon="4.60196">
        <ele>395</ele>
        <time>29-03-2015T09:07:12Z</time>
      </trkpt>
      <trkpt lat="44.40254" lon="4.60191">
        <ele>395</ele>
        <time>29-03-2015T09:07:15Z</time>
      </trkpt>
      <trkpt lat="44.40247" lon="4.6019">
        <ele>395</ele>
        <time>29-03-2015T09:07:18Z</time>
      </trkpt>
      <trkpt lat="44.40241" lon="4.60189">
        <ele>395</ele>
        <time>29-03-2015T09:07:20Z</time>
      </trkpt>
      <trkpt lat="44.40235" lon="4.60193">
        <ele>395</ele>
        <time>29-03-2015T09:07:22Z</time>
      </trkpt>
      <trkpt lat="44.4023" lon="4.60196">
        <ele>395</ele>
        <time>29-03-2015T09:07:25Z</time>
      </trkpt>
      <trkpt lat="44.40224" lon="4.60196">
        <ele>395</ele>
        <time>29-03-2015T09:07:28Z</time>
      </trkpt>
      <trkpt lat="44.40219" lon="4.60197">
        <ele>395</ele>
        <time>29-03-2015T09:07:30Z</time>
      </trkpt>
      <trkpt lat="44.4022" lon="4.6019">
        <ele>395</ele>
        <time>29-03-2015T09:07:33Z</time>
      </trkpt>
      <trkpt lat="44.40223" lon="4.60185">
        <ele>396</ele>
        <time>29-03-2015T09:07:35Z</time>
      </trkpt>
      <trkpt lat="44.40225" lon="4.60176">
        <ele>396</ele>
        <time>29-03-2015T09:07:37Z</time>
      </trkpt>
      <trkpt lat="44.40227" lon="4.60169">
        <ele>396</ele>
        <time>29-03-2015T09:07:39Z</time>
      </trkpt>
      <trkpt lat="44.40226" lon="4.60162">
        <ele>396</ele>
        <time>29-03-2015T09:07:41Z</time>
      </trkpt>
      <trkpt lat="44.40226" lon="4.60155">
        <ele>397</ele>
        <time>29-03-2015T09:07:45Z</time>
      </trkpt>
      <trkpt lat="44.40227" lon="4.60149">
        <ele>397</ele>
        <time>29-03-2015T09:07:47Z</time>
      </trkpt>
      <trkpt lat="44.40227" lon="4.60142">
        <ele>397</ele>
        <time>29-03-2015T09:07:50Z</time>
      </trkpt>
      <trkpt lat="44.40224" lon="4.60136">
        <ele>397</ele>
        <time>29-03-2015T09:07:53Z</time>
      </trkpt>
      <trkpt lat="44.40225" lon="4.60129">
        <ele>398</ele>
        <time>29-03-2015T09:07:57Z</time>
      </trkpt>
      <trkpt lat="44.40223" lon="4.6012">
        <ele>398</ele>
        <time>29-03-2015T09:08:00Z</time>
      </trkpt>
      <trkpt lat="44.40222" lon="4.60114">
        <ele>398</ele>
        <time>29-03-2015T09:08:02Z</time>
      </trkpt>
      <trkpt lat="44.40222" lon="4.60106">
        <ele>399</ele>
        <time>29-03-2015T09:08:06Z</time>
      </trkpt>
      <trkpt lat="44.40219" lon="4.601">
        <ele>399</ele>
        <time>29-03-2015T09:08:10Z</time>
      </trkpt>
      <trkpt lat="44.40217" lon="4.60093">
        <ele>399</ele>
        <time>29-03-2015T09:08:13Z</time>
      </trkpt>
      <trkpt lat="44.40215" lon="4.60088">
        <ele>400</ele>
        <time>29-03-2015T09:08:16Z</time>
      </trkpt>
      <trkpt lat="44.40214" lon="4.6008">
        <ele>401</ele>
        <time>29-03-2015T09:08:20Z</time>
      </trkpt>
      <trkpt lat="44.40215" lon="4.6007">
        <ele>401</ele>
        <time>29-03-2015T09:08:23Z</time>
      </trkpt>
      <trkpt lat="44.40216" lon="4.60062">
        <ele>401</ele>
        <time>29-03-2015T09:08:26Z</time>
      </trkpt>
      <trkpt lat="44.40217" lon="4.60054">
        <ele>401</ele>
        <time>29-03-2015T09:08:29Z</time>
      </trkpt>
      <trkpt lat="44.40216" lon="4.60047">
        <ele>401</ele>
        <time>29-03-2015T09:08:31Z</time>
      </trkpt>
      <trkpt lat="44.40215" lon="4.6004">
        <ele>402</ele>
        <time>29-03-2015T09:08:34Z</time>
      </trkpt>
      <trkpt lat="44.40215" lon="4.6003">
        <ele>402</ele>
        <time>29-03-2015T09:08:37Z</time>
      </trkpt>
      <trkpt lat="44.40212" lon="4.60022">
        <ele>402</ele>
        <time>29-03-2015T09:08:39Z</time>
      </trkpt>
      <trkpt lat="44.40216" lon="4.60016">
        <ele>402</ele>
        <time>29-03-2015T09:08:41Z</time>
      </trkpt>
      <trkpt lat="44.40222" lon="4.6001">
        <ele>402</ele>
        <time>29-03-2015T09:08:43Z</time>
      </trkpt>
      <trkpt lat="44.40226" lon="4.60005">
        <ele>402</ele>
        <time>29-03-2015T09:08:45Z</time>
      </trkpt>
      <trkpt lat="44.40234" lon="4.60002">
        <ele>402</ele>
        <time>29-03-2015T09:08:47Z</time>
      </trkpt>
      <trkpt lat="44.40241" lon="4.60002">
        <ele>402</ele>
        <time>29-03-2015T09:08:49Z</time>
      </trkpt>
      <trkpt lat="44.40248" lon="4.60006">
        <ele>402</ele>
        <time>29-03-2015T09:08:51Z</time>
      </trkpt>
      <trkpt lat="44.40254" lon="4.60006">
        <ele>402</ele>
        <time>29-03-2015T09:08:53Z</time>
      </trkpt>
      <trkpt lat="44.4026" lon="4.60002">
        <ele>402</ele>
        <time>29-03-2015T09:08:55Z</time>
      </trkpt>
      <trkpt lat="44.40267" lon="4.59994">
        <ele>402</ele>
        <time>29-03-2015T09:08:57Z</time>
      </trkpt>
      <trkpt lat="44.40272" lon="4.5999">
        <ele>402</ele>
        <time>29-03-2015T09:08:58Z</time>
      </trkpt>
      <trkpt lat="44.40276" lon="4.59988">
        <ele>402</ele>
        <time>29-03-2015T09:08:59Z</time>
      </trkpt>
      <trkpt lat="44.40281" lon="4.59984">
        <ele>402</ele>
        <time>29-03-2015T09:09:00Z</time>
      </trkpt>
      <trkpt lat="44.40286" lon="4.59982">
        <ele>402</ele>
        <time>29-03-2015T09:09:01Z</time>
      </trkpt>
      <trkpt lat="44.40291" lon="4.59979">
        <ele>402</ele>
        <time>29-03-2015T09:09:02Z</time>
      </trkpt>
      <trkpt lat="44.40296" lon="4.59977">
        <ele>402</ele>
        <time>29-03-2015T09:09:03Z</time>
      </trkpt>
      <trkpt lat="44.40301" lon="4.59975">
        <ele>401</ele>
        <time>29-03-2015T09:09:04Z</time>
      </trkpt>
      <trkpt lat="44.40306" lon="4.59973">
        <ele>401</ele>
        <time>29-03-2015T09:09:05Z</time>
      </trkpt>
      <trkpt lat="44.4031" lon="4.59969">
        <ele>401</ele>
        <time>29-03-2015T09:09:06Z</time>
      </trkpt>
      <trkpt lat="44.40315" lon="4.59967">
        <ele>401</ele>
        <time>29-03-2015T09:09:07Z</time>
      </trkpt>
      <trkpt lat="44.40319" lon="4.59964">
        <ele>401</ele>
        <time>29-03-2015T09:09:08Z</time>
      </trkpt>
      <trkpt lat="44.40325" lon="4.59959">
        <ele>400</ele>
        <time>29-03-2015T09:09:09Z</time>
      </trkpt>
      <trkpt lat="44.40331" lon="4.59958">
        <ele>400</ele>
        <time>29-03-2015T09:09:10Z</time>
      </trkpt>
      <trkpt lat="44.40337" lon="4.59956">
        <ele>400</ele>
        <time>29-03-2015T09:09:11Z</time>
      </trkpt>
      <trkpt lat="44.40343" lon="4.59955">
        <ele>400</ele>
        <time>29-03-2015T09:09:12Z</time>
      </trkpt>
      <trkpt lat="44.40348" lon="4.59954">
        <ele>400</ele>
        <time>29-03-2015T09:09:13Z</time>
      </trkpt>
      <trkpt lat="44.40358" lon="4.59956">
        <ele>400</ele>
        <time>29-03-2015T09:09:15Z</time>
      </trkpt>
      <trkpt lat="44.40366" lon="4.59956">
        <ele>400</ele>
        <time>29-03-2015T09:09:17Z</time>
      </trkpt>
      <trkpt lat="44.40373" lon="4.59954">
        <ele>400</ele>
        <time>29-03-2015T09:09:18Z</time>
      </trkpt>
      <trkpt lat="44.40378" lon="4.5995">
        <ele>399</ele>
        <time>29-03-2015T09:09:19Z</time>
      </trkpt>
      <trkpt lat="44.40383" lon="4.59942">
        <ele>399</ele>
        <time>29-03-2015T09:09:21Z</time>
      </trkpt>
      <trkpt lat="44.40386" lon="4.59937">
        <ele>399</ele>
        <time>29-03-2015T09:09:23Z</time>
      </trkpt>
      <trkpt lat="44.40382" lon="4.5993">
        <ele>397</ele>
        <time>29-03-2015T09:09:28Z</time>
      </trkpt>
      <trkpt lat="44.40379" lon="4.59923">
        <ele>397</ele>
        <time>29-03-2015T09:09:30Z</time>
      </trkpt>
      <trkpt lat="44.4038" lon="4.59916">
        <ele>397</ele>
        <time>29-03-2015T09:09:31Z</time>
      </trkpt>
      <trkpt lat="44.40379" lon="4.59906">
        <ele>397</ele>
        <time>29-03-2015T09:09:33Z</time>
      </trkpt>
      <trkpt lat="44.40379" lon="4.59896">
        <ele>396</ele>
        <time>29-03-2015T09:09:35Z</time>
      </trkpt>
      <trkpt lat="44.40377" lon="4.59888">
        <ele>396</ele>
        <time>29-03-2015T09:09:37Z</time>
      </trkpt>
      <trkpt lat="44.40379" lon="4.59871">
        <ele>393</ele>
        <time>29-03-2015T09:09:41Z</time>
      </trkpt>
      <trkpt lat="44.40378" lon="4.59861">
        <ele>393</ele>
        <time>29-03-2015T09:09:43Z</time>
      </trkpt>
      <trkpt lat="44.4038" lon="4.59853">
        <ele>390</ele>
        <time>29-03-2015T09:09:45Z</time>
      </trkpt>
      <trkpt lat="44.40377" lon="4.59845">
        <ele>390</ele>
        <time>29-03-2015T09:09:48Z</time>
      </trkpt>
      <trkpt lat="44.40372" lon="4.59838">
        <ele>386</ele>
        <time>29-03-2015T09:09:51Z</time>
      </trkpt>
      <trkpt lat="44.40372" lon="4.5983">
        <ele>385</ele>
        <time>29-03-2015T09:09:54Z</time>
      </trkpt>
      <trkpt lat="44.4037" lon="4.59824">
        <ele>385</ele>
        <time>29-03-2015T09:09:56Z</time>
      </trkpt>
      <trkpt lat="44.40369" lon="4.59813">
        <ele>381</ele>
        <time>29-03-2015T09:09:59Z</time>
      </trkpt>
      <trkpt lat="44.40366" lon="4.59807">
        <ele>381</ele>
        <time>29-03-2015T09:10:01Z</time>
      </trkpt>
      <trkpt lat="44.40365" lon="4.598">
        <ele>381</ele>
        <time>29-03-2015T09:10:03Z</time>
      </trkpt>
      <trkpt lat="44.40363" lon="4.59794">
        <ele>377</ele>
        <time>29-03-2015T09:10:04Z</time>
      </trkpt>
      <trkpt lat="44.40357" lon="4.59788">
        <ele>377</ele>
        <time>29-03-2015T09:10:07Z</time>
      </trkpt>
      <trkpt lat="44.4035" lon="4.59781">
        <ele>374</ele>
        <time>29-03-2015T09:10:09Z</time>
      </trkpt>
      <trkpt lat="44.40345" lon="4.59778">
        <ele>374</ele>
        <time>29-03-2015T09:10:10Z</time>
      </trkpt>
      <trkpt lat="44.4034" lon="4.59775">
        <ele>374</ele>
        <time>29-03-2015T09:10:11Z</time>
      </trkpt>
      <trkpt lat="44.40332" lon="4.59772">
        <ele>374</ele>
        <time>29-03-2015T09:10:13Z</time>
      </trkpt>
      <trkpt lat="44.40326" lon="4.59774">
        <ele>372</ele>
        <time>29-03-2015T09:10:14Z</time>
      </trkpt>
      <trkpt lat="44.4032" lon="4.59773">
        <ele>372</ele>
        <time>29-03-2015T09:10:15Z</time>
      </trkpt>
      <trkpt lat="44.40316" lon="4.59774">
        <ele>372</ele>
        <time>29-03-2015T09:10:16Z</time>
      </trkpt>
      <trkpt lat="44.4031" lon="4.59772">
        <ele>372</ele>
        <time>29-03-2015T09:10:18Z</time>
      </trkpt>
      <trkpt lat="44.40305" lon="4.59766">
        <ele>371</ele>
        <time>29-03-2015T09:10:20Z</time>
      </trkpt>
      <trkpt lat="44.40303" lon="4.59761">
        <ele>371</ele>
        <time>29-03-2015T09:10:22Z</time>
      </trkpt>
      <trkpt lat="44.403" lon="4.59754">
        <ele>369</ele>
        <time>29-03-2015T09:10:24Z</time>
      </trkpt>
      <trkpt lat="44.40299" lon="4.59748">
        <ele>369</ele>
        <time>29-03-2015T09:10:25Z</time>
      </trkpt>
      <trkpt lat="44.40298" lon="4.59739">
        <ele>369</ele>
        <time>29-03-2015T09:10:27Z</time>
      </trkpt>
      <trkpt lat="44.40303" lon="4.5973">
        <ele>366</ele>
        <time>29-03-2015T09:10:29Z</time>
      </trkpt>
      <trkpt lat="44.40311" lon="4.5972">
        <ele>366</ele>
        <time>29-03-2015T09:10:31Z</time>
      </trkpt>
      <trkpt lat="44.40314" lon="4.59716">
        <ele>366</ele>
        <time>29-03-2015T09:10:32Z</time>
      </trkpt>
      <trkpt lat="44.40318" lon="4.59711">
        <ele>366</ele>
        <time>29-03-2015T09:10:33Z</time>
      </trkpt>
      <trkpt lat="44.40323" lon="4.59707">
        <ele>362</ele>
        <time>29-03-2015T09:10:34Z</time>
      </trkpt>
      <trkpt lat="44.40327" lon="4.59702">
        <ele>362</ele>
        <time>29-03-2015T09:10:35Z</time>
      </trkpt>
      <trkpt lat="44.40331" lon="4.59695">
        <ele>362</ele>
        <time>29-03-2015T09:10:36Z</time>
      </trkpt>
      <trkpt lat="44.40334" lon="4.59688">
        <ele>362</ele>
        <time>29-03-2015T09:10:37Z</time>
      </trkpt>
      <trkpt lat="44.40337" lon="4.59681">
        <ele>362</ele>
        <time>29-03-2015T09:10:38Z</time>
      </trkpt>
      <trkpt lat="44.40341" lon="4.59674">
        <ele>357</ele>
        <time>29-03-2015T09:10:39Z</time>
      </trkpt>
      <trkpt lat="44.40346" lon="4.59668">
        <ele>357</ele>
        <time>29-03-2015T09:10:40Z</time>
      </trkpt>
      <trkpt lat="44.40347" lon="4.59661">
        <ele>357</ele>
        <time>29-03-2015T09:10:41Z</time>
      </trkpt>
      <trkpt lat="44.40348" lon="4.59653">
        <ele>357</ele>
        <time>29-03-2015T09:10:42Z</time>
      </trkpt>
      <trkpt lat="44.40344" lon="4.59638">
        <ele>356</ele>
        <time>29-03-2015T09:10:44Z</time>
      </trkpt>
      <trkpt lat="44.40343" lon="4.59628">
        <ele>356</ele>
        <time>29-03-2015T09:10:45Z</time>
      </trkpt>
      <trkpt lat="44.40341" lon="4.59619">
        <ele>356</ele>
        <time>29-03-2015T09:10:46Z</time>
      </trkpt>
      <trkpt lat="44.40342" lon="4.59612">
        <ele>356</ele>
        <time>29-03-2015T09:10:47Z</time>
      </trkpt>
      <trkpt lat="44.4034" lon="4.59605">
        <ele>356</ele>
        <time>29-03-2015T09:10:48Z</time>
      </trkpt>
      <trkpt lat="44.40335" lon="4.59595">
        <ele>353</ele>
        <time>29-03-2015T09:10:50Z</time>
      </trkpt>
      <trkpt lat="44.40331" lon="4.59592">
        <ele>353</ele>
        <time>29-03-2015T09:10:51Z</time>
      </trkpt>
      <trkpt lat="44.40322" lon="4.59584">
        <ele>353</ele>
        <time>29-03-2015T09:10:53Z</time>
      </trkpt>
      <trkpt lat="44.40317" lon="4.59583">
        <ele>351</ele>
        <time>29-03-2015T09:10:54Z</time>
      </trkpt>
      <trkpt lat="44.40313" lon="4.59583">
        <ele>351</ele>
        <time>29-03-2015T09:10:55Z</time>
      </trkpt>
      <trkpt lat="44.40308" lon="4.59581">
        <ele>351</ele>
        <time>29-03-2015T09:10:56Z</time>
      </trkpt>
      <trkpt lat="44.40298" lon="4.5958">
        <ele>351</ele>
        <time>29-03-2015T09:10:58Z</time>
      </trkpt>
      <trkpt lat="44.40292" lon="4.59578">
        <ele>351</ele>
        <time>29-03-2015T09:10:59Z</time>
      </trkpt>
      <trkpt lat="44.40287" lon="4.59577">
        <ele>351</ele>
        <time>29-03-2015T09:11:00Z</time>
      </trkpt>
      <trkpt lat="44.4028" lon="4.59574">
        <ele>351</ele>
        <time>29-03-2015T09:11:01Z</time>
      </trkpt>
      <trkpt lat="44.40275" lon="4.59572">
        <ele>351</ele>
        <time>29-03-2015T09:11:02Z</time>
      </trkpt>
      <trkpt lat="44.4027" lon="4.59571">
        <ele>351</ele>
        <time>29-03-2015T09:11:03Z</time>
      </trkpt>
      <trkpt lat="44.40265" lon="4.59571">
        <ele>354</ele>
        <time>29-03-2015T09:11:04Z</time>
      </trkpt>
      <trkpt lat="44.40259" lon="4.5957">
        <ele>354</ele>
        <time>29-03-2015T09:11:05Z</time>
      </trkpt>
      <trkpt lat="44.40253" lon="4.59569">
        <ele>354</ele>
        <time>29-03-2015T09:11:06Z</time>
      </trkpt>
      <trkpt lat="44.40247" lon="4.59568">
        <ele>354</ele>
        <time>29-03-2015T09:11:07Z</time>
      </trkpt>
      <trkpt lat="44.4024" lon="4.59569">
        <ele>354</ele>
        <time>29-03-2015T09:11:08Z</time>
      </trkpt>
      <trkpt lat="44.40234" lon="4.5957">
        <ele>355</ele>
        <time>29-03-2015T09:11:09Z</time>
      </trkpt>
      <trkpt lat="44.40227" lon="4.5957">
        <ele>355</ele>
        <time>29-03-2015T09:11:10Z</time>
      </trkpt>
      <trkpt lat="44.40222" lon="4.5957">
        <ele>355</ele>
        <time>29-03-2015T09:11:11Z</time>
      </trkpt>
      <trkpt lat="44.40217" lon="4.59569">
        <ele>355</ele>
        <time>29-03-2015T09:11:12Z</time>
      </trkpt>
      <trkpt lat="44.40212" lon="4.59567">
        <ele>355</ele>
        <time>29-03-2015T09:11:13Z</time>
      </trkpt>
      <trkpt lat="44.40207" lon="4.59565">
        <ele>355</ele>
        <time>29-03-2015T09:11:14Z</time>
      </trkpt>
      <trkpt lat="44.40202" lon="4.5956">
        <ele>355</ele>
        <time>29-03-2015T09:11:15Z</time>
      </trkpt>
      <trkpt lat="44.40193" lon="4.59553">
        <ele>355</ele>
        <time>29-03-2015T09:11:17Z</time>
      </trkpt>
      <trkpt lat="44.40187" lon="4.59546">
        <ele>357</ele>
        <time>29-03-2015T09:11:19Z</time>
      </trkpt>
      <trkpt lat="44.40184" lon="4.59542">
        <ele>357</ele>
        <time>29-03-2015T09:11:20Z</time>
      </trkpt>
      <trkpt lat="44.40178" lon="4.59535">
        <ele>357</ele>
        <time>29-03-2015T09:11:22Z</time>
      </trkpt>
      <trkpt lat="44.40173" lon="4.59528">
        <ele>358</ele>
        <time>29-03-2015T09:11:24Z</time>
      </trkpt>
      <trkpt lat="44.40168" lon="4.59521">
        <ele>358</ele>
        <time>29-03-2015T09:11:26Z</time>
      </trkpt>
      <trkpt lat="44.40164" lon="4.59515">
        <ele>358</ele>
        <time>29-03-2015T09:11:28Z</time>
      </trkpt>
      <trkpt lat="44.40158" lon="4.59513">
        <ele>359</ele>
        <time>29-03-2015T09:11:30Z</time>
      </trkpt>
      <trkpt lat="44.40152" lon="4.59511">
        <ele>359</ele>
        <time>29-03-2015T09:11:32Z</time>
      </trkpt>
      <trkpt lat="44.40145" lon="4.5951">
        <ele>362</ele>
        <time>29-03-2015T09:11:34Z</time>
      </trkpt>
      <trkpt lat="44.4014" lon="4.59508">
        <ele>362</ele>
        <time>29-03-2015T09:11:37Z</time>
      </trkpt>
      <trkpt lat="44.40134" lon="4.59506">
        <ele>362</ele>
        <time>29-03-2015T09:11:39Z</time>
      </trkpt>
      <trkpt lat="44.40129" lon="4.59503">
        <ele>362</ele>
        <time>29-03-2015T09:11:41Z</time>
      </trkpt>
      <trkpt lat="44.40122" lon="4.59498">
        <ele>363</ele>
        <time>29-03-2015T09:11:44Z</time>
      </trkpt>
      <trkpt lat="44.40116" lon="4.59497">
        <ele>363</ele>
        <time>29-03-2015T09:11:46Z</time>
      </trkpt>
      <trkpt lat="44.4011" lon="4.59495">
        <ele>363</ele>
        <time>29-03-2015T09:11:48Z</time>
      </trkpt>
      <trkpt lat="44.40105" lon="4.59494">
        <ele>364</ele>
        <time>29-03-2015T09:11:50Z</time>
      </trkpt>
      <trkpt lat="44.40099" lon="4.59493">
        <ele>364</ele>
        <time>29-03-2015T09:11:53Z</time>
      </trkpt>
      <trkpt lat="44.40093" lon="4.59491">
        <ele>364</ele>
        <time>29-03-2015T09:11:55Z</time>
      </trkpt>
      <trkpt lat="44.40086" lon="4.59489">
        <ele>364</ele>
        <time>29-03-2015T09:11:57Z</time>
      </trkpt>
      <trkpt lat="44.40081" lon="4.59486">
        <ele>366</ele>
        <time>29-03-2015T09:11:59Z</time>
      </trkpt>
      <trkpt lat="44.40076" lon="4.59483">
        <ele>366</ele>
        <time>29-03-2015T09:12:01Z</time>
      </trkpt>
      <trkpt lat="44.40073" lon="4.5948">
        <ele>366</ele>
        <time>29-03-2015T09:12:03Z</time>
      </trkpt>
      <trkpt lat="44.40068" lon="4.59475">
        <ele>367</ele>
        <time>29-03-2015T09:12:05Z</time>
      </trkpt>
      <trkpt lat="44.40064" lon="4.59469">
        <ele>367</ele>
        <time>29-03-2015T09:12:08Z</time>
      </trkpt>
      <trkpt lat="44.4006" lon="4.59464">
        <ele>369</ele>
        <time>29-03-2015T09:12:10Z</time>
      </trkpt>
      <trkpt lat="44.40056" lon="4.59461">
        <ele>369</ele>
        <time>29-03-2015T09:12:12Z</time>
      </trkpt>
      <trkpt lat="44.40051" lon="4.59457">
        <ele>370</ele>
        <time>29-03-2015T09:12:14Z</time>
      </trkpt>
      <trkpt lat="44.40045" lon="4.59454">
        <ele>370</ele>
        <time>29-03-2015T09:12:17Z</time>
      </trkpt>
      <trkpt lat="44.40041" lon="4.59449">
        <ele>371</ele>
        <time>29-03-2015T09:12:20Z</time>
      </trkpt>
      <trkpt lat="44.40036" lon="4.59445">
        <ele>371</ele>
        <time>29-03-2015T09:12:22Z</time>
      </trkpt>
      <trkpt lat="44.4003" lon="4.59446">
        <ele>371</ele>
        <time>29-03-2015T09:12:24Z</time>
      </trkpt>
      <trkpt lat="44.40024" lon="4.59447">
        <ele>371</ele>
        <time>29-03-2015T09:12:26Z</time>
      </trkpt>
      <trkpt lat="44.40018" lon="4.5945">
        <ele>371</ele>
        <time>29-03-2015T09:12:28Z</time>
      </trkpt>
      <trkpt lat="44.40011" lon="4.59452">
        <ele>374</ele>
        <time>29-03-2015T09:12:30Z</time>
      </trkpt>
      <trkpt lat="44.40005" lon="4.59456">
        <ele>374</ele>
        <time>29-03-2015T09:12:32Z</time>
      </trkpt>
      <trkpt lat="44.40001" lon="4.5946">
        <ele>374</ele>
        <time>29-03-2015T09:12:34Z</time>
      </trkpt>
      <trkpt lat="44.39995" lon="4.5946">
        <ele>374</ele>
        <time>29-03-2015T09:12:36Z</time>
      </trkpt>
      <trkpt lat="44.3999" lon="4.59455">
        <ele>374</ele>
        <time>29-03-2015T09:12:38Z</time>
      </trkpt>
      <trkpt lat="44.39988" lon="4.59449">
        <ele>376</ele>
        <time>29-03-2015T09:12:40Z</time>
      </trkpt>
      <trkpt lat="44.39989" lon="4.59442">
        <ele>376</ele>
        <time>29-03-2015T09:12:42Z</time>
      </trkpt>
      <trkpt lat="44.39991" lon="4.59436">
        <ele>377</ele>
        <time>29-03-2015T09:12:44Z</time>
      </trkpt>
      <trkpt lat="44.39992" lon="4.59427">
        <ele>377</ele>
        <time>29-03-2015T09:12:46Z</time>
      </trkpt>
      <trkpt lat="44.39995" lon="4.59418">
        <ele>377</ele>
        <time>29-03-2015T09:12:48Z</time>
      </trkpt>
      <trkpt lat="44.39995" lon="4.59408">
        <ele>379</ele>
        <time>29-03-2015T09:12:50Z</time>
      </trkpt>
      <trkpt lat="44.39994" lon="4.59401">
        <ele>379</ele>
        <time>29-03-2015T09:12:52Z</time>
      </trkpt>
      <trkpt lat="44.39994" lon="4.59393">
        <ele>379</ele>
        <time>29-03-2015T09:12:54Z</time>
      </trkpt>
      <trkpt lat="44.39995" lon="4.59385">
        <ele>379</ele>
        <time>29-03-2015T09:12:56Z</time>
      </trkpt>
      <trkpt lat="44.39997" lon="4.59379">
        <ele>379</ele>
        <time>29-03-2015T09:12:58Z</time>
      </trkpt>
      <trkpt lat="44.39998" lon="4.59372">
        <ele>379</ele>
        <time>29-03-2015T09:13:00Z</time>
      </trkpt>
      <trkpt lat="44.4" lon="4.59364">
        <ele>379</ele>
        <time>29-03-2015T09:13:02Z</time>
      </trkpt>
      <trkpt lat="44.40003" lon="4.59358">
        <ele>379</ele>
        <time>29-03-2015T09:13:04Z</time>
      </trkpt>
      <trkpt lat="44.40008" lon="4.59354">
        <ele>379</ele>
        <time>29-03-2015T09:13:07Z</time>
      </trkpt>
      <trkpt lat="44.40015" lon="4.59351">
        <ele>379</ele>
        <time>29-03-2015T09:13:10Z</time>
      </trkpt>
      <trkpt lat="44.4002" lon="4.59352">
        <ele>379</ele>
        <time>29-03-2015T09:13:12Z</time>
      </trkpt>
      <trkpt lat="44.40025" lon="4.59354">
        <ele>379</ele>
        <time>29-03-2015T09:13:14Z</time>
      </trkpt>
      <trkpt lat="44.40032" lon="4.59355">
        <ele>379</ele>
        <time>29-03-2015T09:13:16Z</time>
      </trkpt>
      <trkpt lat="44.4004" lon="4.59355">
        <ele>379</ele>
        <time>29-03-2015T09:13:18Z</time>
      </trkpt>
      <trkpt lat="44.40045" lon="4.59356">
        <ele>379</ele>
        <time>29-03-2015T09:13:19Z</time>
      </trkpt>
      <trkpt lat="44.40053" lon="4.59356">
        <ele>379</ele>
        <time>29-03-2015T09:13:21Z</time>
      </trkpt>
      <trkpt lat="44.40058" lon="4.59357">
        <ele>379</ele>
        <time>29-03-2015T09:13:22Z</time>
      </trkpt>
      <trkpt lat="44.40063" lon="4.59358">
        <ele>379</ele>
        <time>29-03-2015T09:13:23Z</time>
      </trkpt>
      <trkpt lat="44.40068" lon="4.59357">
        <ele>379</ele>
        <time>29-03-2015T09:13:24Z</time>
      </trkpt>
      <trkpt lat="44.40073" lon="4.59355">
        <ele>379</ele>
        <time>29-03-2015T09:13:25Z</time>
      </trkpt>
      <trkpt lat="44.40082" lon="4.59352">
        <ele>379</ele>
        <time>29-03-2015T09:13:27Z</time>
      </trkpt>
      <trkpt lat="44.40086" lon="4.59348">
        <ele>379</ele>
        <time>29-03-2015T09:13:28Z</time>
      </trkpt>
      <trkpt lat="44.40091" lon="4.59342">
        <ele>379</ele>
        <time>29-03-2015T09:13:29Z</time>
      </trkpt>
      <trkpt lat="44.40098" lon="4.59335">
        <ele>379</ele>
        <time>29-03-2015T09:13:31Z</time>
      </trkpt>
      <trkpt lat="44.40102" lon="4.59331">
        <ele>379</ele>
        <time>29-03-2015T09:13:32Z</time>
      </trkpt>
      <trkpt lat="44.40106" lon="4.59327">
        <ele>379</ele>
        <time>29-03-2015T09:13:33Z</time>
      </trkpt>
      <trkpt lat="44.40111" lon="4.59324">
        <ele>379</ele>
        <time>29-03-2015T09:13:34Z</time>
      </trkpt>
      <trkpt lat="44.40116" lon="4.59321">
        <ele>379</ele>
        <time>29-03-2015T09:13:35Z</time>
      </trkpt>
      <trkpt lat="44.40122" lon="4.59318">
        <ele>379</ele>
        <time>29-03-2015T09:13:36Z</time>
      </trkpt>
      <trkpt lat="44.40127" lon="4.59316">
        <ele>379</ele>
        <time>29-03-2015T09:13:37Z</time>
      </trkpt>
      <trkpt lat="44.40133" lon="4.59316">
        <ele>379</ele>
        <time>29-03-2015T09:13:38Z</time>
      </trkpt>
      <trkpt lat="44.40138" lon="4.59318">
        <ele>379</ele>
        <time>29-03-2015T09:13:39Z</time>
      </trkpt>
      <trkpt lat="44.40143" lon="4.59321">
        <ele>379</ele>
        <time>29-03-2015T09:13:40Z</time>
      </trkpt>
      <trkpt lat="44.40148" lon="4.59323">
        <ele>379</ele>
        <time>29-03-2015T09:13:41Z</time>
      </trkpt>
      <trkpt lat="44.40152" lon="4.59327">
        <ele>379</ele>
        <time>29-03-2015T09:13:42Z</time>
      </trkpt>
      <trkpt lat="44.40157" lon="4.59331">
        <ele>379</ele>
        <time>29-03-2015T09:13:43Z</time>
      </trkpt>
      <trkpt lat="44.40166" lon="4.59338">
        <ele>379</ele>
        <time>29-03-2015T09:13:45Z</time>
      </trkpt>
      <trkpt lat="44.40171" lon="4.59341">
        <ele>379</ele>
        <time>29-03-2015T09:13:46Z</time>
      </trkpt>
      <trkpt lat="44.40176" lon="4.59344">
        <ele>379</ele>
        <time>29-03-2015T09:13:47Z</time>
      </trkpt>
      <trkpt lat="44.40183" lon="4.59345">
        <ele>379</ele>
        <time>29-03-2015T09:13:48Z</time>
      </trkpt>
      <trkpt lat="44.4019" lon="4.59345">
        <ele>379</ele>
        <time>29-03-2015T09:13:49Z</time>
      </trkpt>
      <trkpt lat="44.40197" lon="4.59345">
        <ele>379</ele>
        <time>29-03-2015T09:13:50Z</time>
      </trkpt>
      <trkpt lat="44.40205" lon="4.59347">
        <ele>379</ele>
        <time>29-03-2015T09:13:51Z</time>
      </trkpt>
      <trkpt lat="44.40212" lon="4.59349">
        <ele>379</ele>
        <time>29-03-2015T09:13:52Z</time>
      </trkpt>
      <trkpt lat="44.4022" lon="4.59349">
        <ele>379</ele>
        <time>29-03-2015T09:13:53Z</time>
      </trkpt>
      <trkpt lat="44.40228" lon="4.59352">
        <ele>377</ele>
        <time>29-03-2015T09:13:54Z</time>
      </trkpt>
      <trkpt lat="44.40235" lon="4.59353">
        <ele>377</ele>
        <time>29-03-2015T09:13:55Z</time>
      </trkpt>
      <trkpt lat="44.40244" lon="4.59352">
        <ele>377</ele>
        <time>29-03-2015T09:13:56Z</time>
      </trkpt>
      <trkpt lat="44.40253" lon="4.59351">
        <ele>377</ele>
        <time>29-03-2015T09:13:57Z</time>
      </trkpt>
      <trkpt lat="44.40261" lon="4.59351">
        <ele>377</ele>
        <time>29-03-2015T09:13:58Z</time>
      </trkpt>
      <trkpt lat="44.40269" lon="4.59352">
        <ele>377</ele>
        <time>29-03-2015T09:13:59Z</time>
      </trkpt>
      <trkpt lat="44.40278" lon="4.59354">
        <ele>377</ele>
        <time>29-03-2015T09:14:00Z</time>
      </trkpt>
      <trkpt lat="44.40286" lon="4.59357">
        <ele>377</ele>
        <time>29-03-2015T09:14:01Z</time>
      </trkpt>
      <trkpt lat="44.40294" lon="4.59361">
        <ele>377</ele>
        <time>29-03-2015T09:14:02Z</time>
      </trkpt>
      <trkpt lat="44.40303" lon="4.59362">
        <ele>377</ele>
        <time>29-03-2015T09:14:03Z</time>
      </trkpt>
      <trkpt lat="44.40312" lon="4.59365">
        <ele>377</ele>
        <time>29-03-2015T09:14:04Z</time>
      </trkpt>
      <trkpt lat="44.40321" lon="4.59366">
        <ele>377</ele>
        <time>29-03-2015T09:14:05Z</time>
      </trkpt>
      <trkpt lat="44.40331" lon="4.59367">
        <ele>377</ele>
        <time>29-03-2015T09:14:06Z</time>
      </trkpt>
      <trkpt lat="44.4034" lon="4.5937">
        <ele>377</ele>
        <time>29-03-2015T09:14:07Z</time>
      </trkpt>
      <trkpt lat="44.40349" lon="4.59372">
        <ele>377</ele>
        <time>29-03-2015T09:14:08Z</time>
      </trkpt>
      <trkpt lat="44.40359" lon="4.59374">
        <ele>375</ele>
        <time>29-03-2015T09:14:09Z</time>
      </trkpt>
      <trkpt lat="44.40368" lon="4.59374">
        <ele>375</ele>
        <time>29-03-2015T09:14:10Z</time>
      </trkpt>
      <trkpt lat="44.40378" lon="4.59374">
        <ele>375</ele>
        <time>29-03-2015T09:14:11Z</time>
      </trkpt>
      <trkpt lat="44.40388" lon="4.59374">
        <ele>375</ele>
        <time>29-03-2015T09:14:12Z</time>
      </trkpt>
      <trkpt lat="44.40396" lon="4.59375">
        <ele>375</ele>
        <time>29-03-2015T09:14:13Z</time>
      </trkpt>
      <trkpt lat="44.40406" lon="4.59379">
        <ele>374</ele>
        <time>29-03-2015T09:14:14Z</time>
      </trkpt>
      <trkpt lat="44.40415" lon="4.59381">
        <ele>374</ele>
        <time>29-03-2015T09:14:15Z</time>
      </trkpt>
      <trkpt lat="44.40425" lon="4.59383">
        <ele>374</ele>
        <time>29-03-2015T09:14:16Z</time>
      </trkpt>
      <trkpt lat="44.40433" lon="4.59383">
        <ele>374</ele>
        <time>29-03-2015T09:14:17Z</time>
      </trkpt>
      <trkpt lat="44.40442" lon="4.59382">
        <ele>374</ele>
        <time>29-03-2015T09:14:18Z</time>
      </trkpt>
      <trkpt lat="44.40451" lon="4.5938">
        <ele>371</ele>
        <time>29-03-2015T09:14:19Z</time>
      </trkpt>
      <trkpt lat="44.4046" lon="4.59378">
        <ele>371</ele>
        <time>29-03-2015T09:14:20Z</time>
      </trkpt>
      <trkpt lat="44.40467" lon="4.59379">
        <ele>371</ele>
        <time>29-03-2015T09:14:21Z</time>
      </trkpt>
      <trkpt lat="44.40476" lon="4.5938">
        <ele>371</ele>
        <time>29-03-2015T09:14:22Z</time>
      </trkpt>
      <trkpt lat="44.40484" lon="4.59382">
        <ele>371</ele>
        <time>29-03-2015T09:14:23Z</time>
      </trkpt>
      <trkpt lat="44.40492" lon="4.59386">
        <ele>371</ele>
        <time>29-03-2015T09:14:24Z</time>
      </trkpt>
      <trkpt lat="44.40501" lon="4.59392">
        <ele>371</ele>
        <time>29-03-2015T09:14:25Z</time>
      </trkpt>
      <trkpt lat="44.4051" lon="4.59398">
        <ele>371</ele>
        <time>29-03-2015T09:14:26Z</time>
      </trkpt>
      <trkpt lat="44.40516" lon="4.59407">
        <ele>371</ele>
        <time>29-03-2015T09:14:27Z</time>
      </trkpt>
      <trkpt lat="44.40522" lon="4.59415">
        <ele>371</ele>
        <time>29-03-2015T09:14:28Z</time>
      </trkpt>
      <trkpt lat="44.40531" lon="4.59421">
        <ele>367</ele>
        <time>29-03-2015T09:14:29Z</time>
      </trkpt>
      <trkpt lat="44.4054" lon="4.59426">
        <ele>367</ele>
        <time>29-03-2015T09:14:30Z</time>
      </trkpt>
      <trkpt lat="44.40549" lon="4.59429">
        <ele>367</ele>
        <time>29-03-2015T09:14:31Z</time>
      </trkpt>
      <trkpt lat="44.40559" lon="4.59431">
        <ele>367</ele>
        <time>29-03-2015T09:14:32Z</time>
      </trkpt>
      <trkpt lat="44.40567" lon="4.59433">
        <ele>367</ele>
        <time>29-03-2015T09:14:33Z</time>
      </trkpt>
      <trkpt lat="44.40576" lon="4.59434">
        <ele>366</ele>
        <time>29-03-2015T09:14:34Z</time>
      </trkpt>
      <trkpt lat="44.40585" lon="4.59434">
        <ele>366</ele>
        <time>29-03-2015T09:14:35Z</time>
      </trkpt>
      <trkpt lat="44.40594" lon="4.59435">
        <ele>366</ele>
        <time>29-03-2015T09:14:36Z</time>
      </trkpt>
      <trkpt lat="44.40602" lon="4.59437">
        <ele>366</ele>
        <time>29-03-2015T09:14:37Z</time>
      </trkpt>
      <trkpt lat="44.4061" lon="4.5944">
        <ele>366</ele>
        <time>29-03-2015T09:14:38Z</time>
      </trkpt>
      <trkpt lat="44.40618" lon="4.59443">
        <ele>365</ele>
        <time>29-03-2015T09:14:39Z</time>
      </trkpt>
      <trkpt lat="44.40628" lon="4.59447">
        <ele>365</ele>
        <time>29-03-2015T09:14:40Z</time>
      </trkpt>
      <trkpt lat="44.40636" lon="4.59451">
        <ele>365</ele>
        <time>29-03-2015T09:14:41Z</time>
      </trkpt>
      <trkpt lat="44.40646" lon="4.59455">
        <ele>365</ele>
        <time>29-03-2015T09:14:42Z</time>
      </trkpt>
      <trkpt lat="44.40654" lon="4.59457">
        <ele>365</ele>
        <time>29-03-2015T09:14:43Z</time>
      </trkpt>
      <trkpt lat="44.40661" lon="4.59459">
        <ele>363</ele>
        <time>29-03-2015T09:14:44Z</time>
      </trkpt>
      <trkpt lat="44.40669" lon="4.59462">
        <ele>363</ele>
        <time>29-03-2015T09:14:45Z</time>
      </trkpt>
      <trkpt lat="44.40676" lon="4.59464">
        <ele>363</ele>
        <time>29-03-2015T09:14:46Z</time>
      </trkpt>
      <trkpt lat="44.40685" lon="4.59468">
        <ele>363</ele>
        <time>29-03-2015T09:14:47Z</time>
      </trkpt>
      <trkpt lat="44.40693" lon="4.59472">
        <ele>363</ele>
        <time>29-03-2015T09:14:48Z</time>
      </trkpt>
      <trkpt lat="44.40699" lon="4.59476">
        <ele>362</ele>
        <time>29-03-2015T09:14:49Z</time>
      </trkpt>
      <trkpt lat="44.40706" lon="4.59478">
        <ele>362</ele>
        <time>29-03-2015T09:14:50Z</time>
      </trkpt>
      <trkpt lat="44.40713" lon="4.59482">
        <ele>362</ele>
        <time>29-03-2015T09:14:51Z</time>
      </trkpt>
      <trkpt lat="44.4072" lon="4.59485">
        <ele>362</ele>
        <time>29-03-2015T09:14:52Z</time>
      </trkpt>
      <trkpt lat="44.40727" lon="4.5949">
        <ele>362</ele>
        <time>29-03-2015T09:14:53Z</time>
      </trkpt>
      <trkpt lat="44.40736" lon="4.59493">
        <ele>362</ele>
        <time>29-03-2015T09:14:54Z</time>
      </trkpt>
      <trkpt lat="44.40743" lon="4.59495">
        <ele>362</ele>
        <time>29-03-2015T09:14:55Z</time>
      </trkpt>
      <trkpt lat="44.4075" lon="4.59498">
        <ele>362</ele>
        <time>29-03-2015T09:14:56Z</time>
      </trkpt>
      <trkpt lat="44.40758" lon="4.595">
        <ele>362</ele>
        <time>29-03-2015T09:14:57Z</time>
      </trkpt>
      <trkpt lat="44.40766" lon="4.59503">
        <ele>362</ele>
        <time>29-03-2015T09:14:58Z</time>
      </trkpt>
      <trkpt lat="44.40772" lon="4.59506">
        <ele>361</ele>
        <time>29-03-2015T09:14:59Z</time>
      </trkpt>
      <trkpt lat="44.40778" lon="4.59509">
        <ele>361</ele>
        <time>29-03-2015T09:15:00Z</time>
      </trkpt>
      <trkpt lat="44.40785" lon="4.59513">
        <ele>361</ele>
        <time>29-03-2015T09:15:01Z</time>
      </trkpt>
      <trkpt lat="44.4079" lon="4.59518">
        <ele>361</ele>
        <time>29-03-2015T09:15:02Z</time>
      </trkpt>
      <trkpt lat="44.40797" lon="4.59524">
        <ele>361</ele>
        <time>29-03-2015T09:15:03Z</time>
      </trkpt>
      <trkpt lat="44.40802" lon="4.5953">
        <ele>361</ele>
        <time>29-03-2015T09:15:04Z</time>
      </trkpt>
      <trkpt lat="44.40808" lon="4.59536">
        <ele>361</ele>
        <time>29-03-2015T09:15:05Z</time>
      </trkpt>
      <trkpt lat="44.40814" lon="4.59542">
        <ele>361</ele>
        <time>29-03-2015T09:15:06Z</time>
      </trkpt>
      <trkpt lat="44.40821" lon="4.59546">
        <ele>361</ele>
        <time>29-03-2015T09:15:07Z</time>
      </trkpt>
      <trkpt lat="44.40827" lon="4.5955">
        <ele>361</ele>
        <time>29-03-2015T09:15:08Z</time>
      </trkpt>
      <trkpt lat="44.40833" lon="4.59554">
        <ele>360</ele>
        <time>29-03-2015T09:15:09Z</time>
      </trkpt>
      <trkpt lat="44.40838" lon="4.59559">
        <ele>360</ele>
        <time>29-03-2015T09:15:10Z</time>
      </trkpt>
      <trkpt lat="44.40845" lon="4.59564">
        <ele>360</ele>
        <time>29-03-2015T09:15:11Z</time>
      </trkpt>
      <trkpt lat="44.40852" lon="4.59567">
        <ele>360</ele>
        <time>29-03-2015T09:15:12Z</time>
      </trkpt>
      <trkpt lat="44.40858" lon="4.5957">
        <ele>360</ele>
        <time>29-03-2015T09:15:13Z</time>
      </trkpt>
      <trkpt lat="44.40865" lon="4.59572">
        <ele>360</ele>
        <time>29-03-2015T09:15:14Z</time>
      </trkpt>
      <trkpt lat="44.40871" lon="4.59573">
        <ele>360</ele>
        <time>29-03-2015T09:15:15Z</time>
      </trkpt>
      <trkpt lat="44.40877" lon="4.59575">
        <ele>360</ele>
        <time>29-03-2015T09:15:16Z</time>
      </trkpt>
      <trkpt lat="44.40884" lon="4.59574">
        <ele>360</ele>
        <time>29-03-2015T09:15:17Z</time>
      </trkpt>
      <trkpt lat="44.40891" lon="4.59573">
        <ele>360</ele>
        <time>29-03-2015T09:15:18Z</time>
      </trkpt>
      <trkpt lat="44.40897" lon="4.59575">
        <ele>359</ele>
        <time>29-03-2015T09:15:19Z</time>
      </trkpt>
      <trkpt lat="44.40904" lon="4.59577">
        <ele>359</ele>
        <time>29-03-2015T09:15:20Z</time>
      </trkpt>
      <trkpt lat="44.40909" lon="4.59579">
        <ele>359</ele>
        <time>29-03-2015T09:15:21Z</time>
      </trkpt>
      <trkpt lat="44.40914" lon="4.59581">
        <ele>359</ele>
        <time>29-03-2015T09:15:22Z</time>
      </trkpt>
      <trkpt lat="44.40918" lon="4.59584">
        <ele>359</ele>
        <time>29-03-2015T09:15:23Z</time>
      </trkpt>
      <trkpt lat="44.40923" lon="4.59589">
        <ele>359</ele>
        <time>29-03-2015T09:15:24Z</time>
      </trkpt>
      <trkpt lat="44.40927" lon="4.59592">
        <ele>359</ele>
        <time>29-03-2015T09:15:25Z</time>
      </trkpt>
      <trkpt lat="44.40932" lon="4.59594">
        <ele>359</ele>
        <time>29-03-2015T09:15:26Z</time>
      </trkpt>
      <trkpt lat="44.40942" lon="4.59597">
        <ele>359</ele>
        <time>29-03-2015T09:15:28Z</time>
      </trkpt>
      <trkpt lat="44.4095" lon="4.59598">
        <ele>359</ele>
        <time>29-03-2015T09:15:30Z</time>
      </trkpt>
      <trkpt lat="44.40959" lon="4.59599">
        <ele>359</ele>
        <time>29-03-2015T09:15:32Z</time>
      </trkpt>
      <trkpt lat="44.40968" lon="4.59598">
        <ele>359</ele>
        <time>29-03-2015T09:15:34Z</time>
      </trkpt>
      <trkpt lat="44.40975" lon="4.59594">
        <ele>359</ele>
        <time>29-03-2015T09:15:36Z</time>
      </trkpt>
      <trkpt lat="44.40983" lon="4.59593">
        <ele>359</ele>
        <time>29-03-2015T09:15:38Z</time>
      </trkpt>
      <trkpt lat="44.40988" lon="4.59592">
        <ele>359</ele>
        <time>29-03-2015T09:15:39Z</time>
      </trkpt>
      <trkpt lat="44.40995" lon="4.59591">
        <ele>359</ele>
        <time>29-03-2015T09:15:41Z</time>
      </trkpt>
      <trkpt lat="44.41002" lon="4.59593">
        <ele>359</ele>
        <time>29-03-2015T09:15:43Z</time>
      </trkpt>
      <trkpt lat="44.41007" lon="4.59595">
        <ele>359</ele>
        <time>29-03-2015T09:15:44Z</time>
      </trkpt>
      <trkpt lat="44.41011" lon="4.59596">
        <ele>359</ele>
        <time>29-03-2015T09:15:45Z</time>
      </trkpt>
      <trkpt lat="44.4102" lon="4.59595">
        <ele>359</ele>
        <time>29-03-2015T09:15:47Z</time>
      </trkpt>
      <trkpt lat="44.41025" lon="4.59593">
        <ele>359</ele>
        <time>29-03-2015T09:15:48Z</time>
      </trkpt>
      <trkpt lat="44.41034" lon="4.59592">
        <ele>359</ele>
        <time>29-03-2015T09:15:50Z</time>
      </trkpt>
      <trkpt lat="44.41038" lon="4.59591">
        <ele>359</ele>
        <time>29-03-2015T09:15:51Z</time>
      </trkpt>
      <trkpt lat="44.41043" lon="4.5959">
        <ele>359</ele>
        <time>29-03-2015T09:15:52Z</time>
      </trkpt>
      <trkpt lat="44.41049" lon="4.59588">
        <ele>359</ele>
        <time>29-03-2015T09:15:53Z</time>
      </trkpt>
      <trkpt lat="44.41054" lon="4.59586">
        <ele>359</ele>
        <time>29-03-2015T09:15:54Z</time>
      </trkpt>
      <trkpt lat="44.41059" lon="4.59586">
        <ele>359</ele>
        <time>29-03-2015T09:15:55Z</time>
      </trkpt>
      <trkpt lat="44.41065" lon="4.59584">
        <ele>359</ele>
        <time>29-03-2015T09:15:56Z</time>
      </trkpt>
      <trkpt lat="44.41071" lon="4.59583">
        <ele>359</ele>
        <time>29-03-2015T09:15:57Z</time>
      </trkpt>
      <trkpt lat="44.41076" lon="4.59582">
        <ele>359</ele>
        <time>29-03-2015T09:15:58Z</time>
      </trkpt>
      <trkpt lat="44.41083" lon="4.59581">
        <ele>359</ele>
        <time>29-03-2015T09:15:59Z</time>
      </trkpt>
      <trkpt lat="44.4109" lon="4.59579">
        <ele>359</ele>
        <time>29-03-2015T09:16:00Z</time>
      </trkpt>
      <trkpt lat="44.41096" lon="4.59577">
        <ele>359</ele>
        <time>29-03-2015T09:16:01Z</time>
      </trkpt>
      <trkpt lat="44.41101" lon="4.59574">
        <ele>359</ele>
        <time>29-03-2015T09:16:02Z</time>
      </trkpt>
      <trkpt lat="44.41107" lon="4.59572">
        <ele>359</ele>
        <time>29-03-2015T09:16:03Z</time>
      </trkpt>
      <trkpt lat="44.41114" lon="4.5957">
        <ele>356</ele>
        <time>29-03-2015T09:16:04Z</time>
      </trkpt>
      <trkpt lat="44.4112" lon="4.59569">
        <ele>356</ele>
        <time>29-03-2015T09:16:05Z</time>
      </trkpt>
      <trkpt lat="44.41127" lon="4.59568">
        <ele>356</ele>
        <time>29-03-2015T09:16:06Z</time>
      </trkpt>
      <trkpt lat="44.41134" lon="4.59567">
        <ele>356</ele>
        <time>29-03-2015T09:16:07Z</time>
      </trkpt>
      <trkpt lat="44.41141" lon="4.59568">
        <ele>356</ele>
        <time>29-03-2015T09:16:08Z</time>
      </trkpt>
      <trkpt lat="44.41147" lon="4.5957">
        <ele>356</ele>
        <time>29-03-2015T09:16:09Z</time>
      </trkpt>
      <trkpt lat="44.41152" lon="4.59571">
        <ele>356</ele>
        <time>29-03-2015T09:16:10Z</time>
      </trkpt>
      <trkpt lat="44.41157" lon="4.5957">
        <ele>356</ele>
        <time>29-03-2015T09:16:11Z</time>
      </trkpt>
      <trkpt lat="44.41161" lon="4.59567">
        <ele>356</ele>
        <time>29-03-2015T09:16:12Z</time>
      </trkpt>
      <trkpt lat="44.41165" lon="4.59562">
        <ele>356</ele>
        <time>29-03-2015T09:16:13Z</time>
      </trkpt>
      <trkpt lat="44.41166" lon="4.59553">
        <ele>355</ele>
        <time>29-03-2015T09:16:15Z</time>
      </trkpt>
      <trkpt lat="44.41165" lon="4.59544">
        <ele>355</ele>
        <time>29-03-2015T09:16:17Z</time>
      </trkpt>
      <trkpt lat="44.41163" lon="4.59538">
        <ele>355</ele>
        <time>29-03-2015T09:16:18Z</time>
      </trkpt>
      <trkpt lat="44.41161" lon="4.59532">
        <ele>352</ele>
        <time>29-03-2015T09:16:19Z</time>
      </trkpt>
      <trkpt lat="44.4116" lon="4.59524">
        <ele>352</ele>
        <time>29-03-2015T09:16:20Z</time>
      </trkpt>
      <trkpt lat="44.41156" lon="4.59516">
        <ele>352</ele>
        <time>29-03-2015T09:16:21Z</time>
      </trkpt>
      <trkpt lat="44.41156" lon="4.59508">
        <ele>352</ele>
        <time>29-03-2015T09:16:22Z</time>
      </trkpt>
      <trkpt lat="44.41155" lon="4.595">
        <ele>352</ele>
        <time>29-03-2015T09:16:23Z</time>
      </trkpt>
      <trkpt lat="44.41153" lon="4.59492">
        <ele>352</ele>
        <time>29-03-2015T09:16:24Z</time>
      </trkpt>
      <trkpt lat="44.41151" lon="4.59483">
        <ele>352</ele>
        <time>29-03-2015T09:16:25Z</time>
      </trkpt>
      <trkpt lat="44.41151" lon="4.59475">
        <ele>352</ele>
        <time>29-03-2015T09:16:26Z</time>
      </trkpt>
      <trkpt lat="44.41148" lon="4.59466">
        <ele>352</ele>
        <time>29-03-2015T09:16:27Z</time>
      </trkpt>
      <trkpt lat="44.41145" lon="4.5946">
        <ele>352</ele>
        <time>29-03-2015T09:16:28Z</time>
      </trkpt>
      <trkpt lat="44.41142" lon="4.59452">
        <ele>347</ele>
        <time>29-03-2015T09:16:29Z</time>
      </trkpt>
      <trkpt lat="44.4114" lon="4.59446">
        <ele>347</ele>
        <time>29-03-2015T09:16:30Z</time>
      </trkpt>
      <trkpt lat="44.41137" lon="4.59439">
        <ele>347</ele>
        <time>29-03-2015T09:16:31Z</time>
      </trkpt>
      <trkpt lat="44.41136" lon="4.59431">
        <ele>347</ele>
        <time>29-03-2015T09:16:32Z</time>
      </trkpt>
      <trkpt lat="44.41135" lon="4.59421">
        <ele>347</ele>
        <time>29-03-2015T09:16:33Z</time>
      </trkpt>
      <trkpt lat="44.41134" lon="4.59412">
        <ele>344</ele>
        <time>29-03-2015T09:16:34Z</time>
      </trkpt>
      <trkpt lat="44.41133" lon="4.59406">
        <ele>344</ele>
        <time>29-03-2015T09:16:35Z</time>
      </trkpt>
      <trkpt lat="44.41132" lon="4.59399">
        <ele>344</ele>
        <time>29-03-2015T09:16:36Z</time>
      </trkpt>
      <trkpt lat="44.41133" lon="4.59391">
        <ele>344</ele>
        <time>29-03-2015T09:16:37Z</time>
      </trkpt>
      <trkpt lat="44.41131" lon="4.59383">
        <ele>344</ele>
        <time>29-03-2015T09:16:38Z</time>
      </trkpt>
      <trkpt lat="44.41131" lon="4.59375">
        <ele>338</ele>
        <time>29-03-2015T09:16:39Z</time>
      </trkpt>
      <trkpt lat="44.41131" lon="4.59367">
        <ele>338</ele>
        <time>29-03-2015T09:16:40Z</time>
      </trkpt>
      <trkpt lat="44.41129" lon="4.5936">
        <ele>338</ele>
        <time>29-03-2015T09:16:41Z</time>
      </trkpt>
      <trkpt lat="44.41127" lon="4.59352">
        <ele>338</ele>
        <time>29-03-2015T09:16:42Z</time>
      </trkpt>
      <trkpt lat="44.41125" lon="4.59344">
        <ele>338</ele>
        <time>29-03-2015T09:16:43Z</time>
      </trkpt>
      <trkpt lat="44.41123" lon="4.59336">
        <ele>336</ele>
        <time>29-03-2015T09:16:44Z</time>
      </trkpt>
      <trkpt lat="44.41122" lon="4.59326">
        <ele>336</ele>
        <time>29-03-2015T09:16:45Z</time>
      </trkpt>
      <trkpt lat="44.4112" lon="4.59318">
        <ele>336</ele>
        <time>29-03-2015T09:16:46Z</time>
      </trkpt>
      <trkpt lat="44.4112" lon="4.5931">
        <ele>336</ele>
        <time>29-03-2015T09:16:47Z</time>
      </trkpt>
      <trkpt lat="44.41119" lon="4.593">
        <ele>336</ele>
        <time>29-03-2015T09:16:48Z</time>
      </trkpt>
      <trkpt lat="44.41117" lon="4.5929">
        <ele>332</ele>
        <time>29-03-2015T09:16:49Z</time>
      </trkpt>
      <trkpt lat="44.41114" lon="4.59282">
        <ele>332</ele>
        <time>29-03-2015T09:16:50Z</time>
      </trkpt>
      <trkpt lat="44.41112" lon="4.59273">
        <ele>332</ele>
        <time>29-03-2015T09:16:51Z</time>
      </trkpt>
      <trkpt lat="44.41109" lon="4.59265">
        <ele>332</ele>
        <time>29-03-2015T09:16:52Z</time>
      </trkpt>
      <trkpt lat="44.41108" lon="4.59258">
        <ele>332</ele>
        <time>29-03-2015T09:16:53Z</time>
      </trkpt>
      <trkpt lat="44.41106" lon="4.59251">
        <ele>332</ele>
        <time>29-03-2015T09:16:54Z</time>
      </trkpt>
      <trkpt lat="44.41106" lon="4.59244">
        <ele>332</ele>
        <time>29-03-2015T09:16:55Z</time>
      </trkpt>
      <trkpt lat="44.41105" lon="4.59236">
        <ele>332</ele>
        <time>29-03-2015T09:16:56Z</time>
      </trkpt>
      <trkpt lat="44.41103" lon="4.59229">
        <ele>332</ele>
        <time>29-03-2015T09:16:57Z</time>
      </trkpt>
      <trkpt lat="44.41099" lon="4.59218">
        <ele>325</ele>
        <time>29-03-2015T09:16:59Z</time>
      </trkpt>
      <trkpt lat="44.41098" lon="4.59211">
        <ele>325</ele>
        <time>29-03-2015T09:17:00Z</time>
      </trkpt>
      <trkpt lat="44.41097" lon="4.59204">
        <ele>325</ele>
        <time>29-03-2015T09:17:01Z</time>
      </trkpt>
      <trkpt lat="44.41096" lon="4.59198">
        <ele>325</ele>
        <time>29-03-2015T09:17:02Z</time>
      </trkpt>
      <trkpt lat="44.41096" lon="4.5919">
        <ele>325</ele>
        <time>29-03-2015T09:17:03Z</time>
      </trkpt>
      <trkpt lat="44.41094" lon="4.59183">
        <ele>320</ele>
        <time>29-03-2015T09:17:04Z</time>
      </trkpt>
      <trkpt lat="44.41093" lon="4.59177">
        <ele>320</ele>
        <time>29-03-2015T09:17:05Z</time>
      </trkpt>
      <trkpt lat="44.41092" lon="4.59169">
        <ele>320</ele>
        <time>29-03-2015T09:17:06Z</time>
      </trkpt>
      <trkpt lat="44.41092" lon="4.59161">
        <ele>320</ele>
        <time>29-03-2015T09:17:07Z</time>
      </trkpt>
      <trkpt lat="44.41091" lon="4.59154">
        <ele>320</ele>
        <time>29-03-2015T09:17:08Z</time>
      </trkpt>
      <trkpt lat="44.41088" lon="4.59148">
        <ele>320</ele>
        <time>29-03-2015T09:17:09Z</time>
      </trkpt>
      <trkpt lat="44.41083" lon="4.59141">
        <ele>320</ele>
        <time>29-03-2015T09:17:11Z</time>
      </trkpt>
      <trkpt lat="44.41082" lon="4.59134">
        <ele>320</ele>
        <time>29-03-2015T09:17:14Z</time>
      </trkpt>
      <trkpt lat="44.4108" lon="4.59127">
        <ele>320</ele>
        <time>29-03-2015T09:17:16Z</time>
      </trkpt>
      <trkpt lat="44.41078" lon="4.5912">
        <ele>322</ele>
        <time>29-03-2015T09:17:20Z</time>
      </trkpt>
      <trkpt lat="44.41078" lon="4.59112">
        <ele>322</ele>
        <time>29-03-2015T09:17:23Z</time>
      </trkpt>
      <trkpt lat="44.41077" lon="4.59105">
        <ele>324</ele>
        <time>29-03-2015T09:17:26Z</time>
      </trkpt>
      <trkpt lat="44.41075" lon="4.59099">
        <ele>325</ele>
        <time>29-03-2015T09:17:29Z</time>
      </trkpt>
      <trkpt lat="44.41073" lon="4.59092">
        <ele>325</ele>
        <time>29-03-2015T09:17:33Z</time>
      </trkpt>
      <trkpt lat="44.4107" lon="4.59085">
        <ele>326</ele>
        <time>29-03-2015T09:17:36Z</time>
      </trkpt>
      <trkpt lat="44.41067" lon="4.59079">
        <ele>328</ele>
        <time>29-03-2015T09:17:39Z</time>
      </trkpt>
      <trkpt lat="44.41067" lon="4.59072">
        <ele>328</ele>
        <time>29-03-2015T09:17:43Z</time>
      </trkpt>
      <trkpt lat="44.41067" lon="4.59065">
        <ele>329</ele>
        <time>29-03-2015T09:17:47Z</time>
      </trkpt>
      <trkpt lat="44.41065" lon="4.5906">
        <ele>331</ele>
        <time>29-03-2015T09:17:50Z</time>
      </trkpt>
      <trkpt lat="44.41065" lon="4.59053">
        <ele>331</ele>
        <time>29-03-2015T09:17:53Z</time>
      </trkpt>
      <trkpt lat="44.41063" lon="4.59046">
        <ele>331</ele>
        <time>29-03-2015T09:17:58Z</time>
      </trkpt>
      <trkpt lat="44.41063" lon="4.59039">
        <ele>332</ele>
        <time>29-03-2015T09:18:02Z</time>
      </trkpt>
      <trkpt lat="44.41061" lon="4.59032">
        <ele>332</ele>
        <time>29-03-2015T09:18:06Z</time>
      </trkpt>
      <trkpt lat="44.41057" lon="4.59027">
        <ele>334</ele>
        <time>29-03-2015T09:18:09Z</time>
      </trkpt>
      <trkpt lat="44.41058" lon="4.5902">
        <ele>334</ele>
        <time>29-03-2015T09:18:13Z</time>
      </trkpt>
      <trkpt lat="44.41055" lon="4.59013">
        <ele>334</ele>
        <time>29-03-2015T09:18:16Z</time>
      </trkpt>
      <trkpt lat="44.41052" lon="4.59007">
        <ele>335</ele>
        <time>29-03-2015T09:18:21Z</time>
      </trkpt>
      <trkpt lat="44.41053" lon="4.58999">
        <ele>336</ele>
        <time>29-03-2015T09:18:24Z</time>
      </trkpt>
      <trkpt lat="44.41051" lon="4.58994">
        <ele>336</ele>
        <time>29-03-2015T09:18:26Z</time>
      </trkpt>
      <trkpt lat="44.41051" lon="4.58987">
        <ele>338</ele>
        <time>29-03-2015T09:18:30Z</time>
      </trkpt>
      <trkpt lat="44.4105" lon="4.58981">
        <ele>338</ele>
        <time>29-03-2015T09:18:32Z</time>
      </trkpt>
      <trkpt lat="44.41048" lon="4.58972">
        <ele>339</ele>
        <time>29-03-2015T09:18:35Z</time>
      </trkpt>
      <trkpt lat="44.41047" lon="4.58966">
        <ele>339</ele>
        <time>29-03-2015T09:18:37Z</time>
      </trkpt>
      <trkpt lat="44.41045" lon="4.5896">
        <ele>341</ele>
        <time>29-03-2015T09:18:39Z</time>
      </trkpt>
      <trkpt lat="44.41044" lon="4.58952">
        <ele>341</ele>
        <time>29-03-2015T09:18:41Z</time>
      </trkpt>
      <trkpt lat="44.41043" lon="4.58944">
        <ele>342</ele>
        <time>29-03-2015T09:18:44Z</time>
      </trkpt>
      <trkpt lat="44.41043" lon="4.58937">
        <ele>342</ele>
        <time>29-03-2015T09:18:47Z</time>
      </trkpt>
      <trkpt lat="44.41042" lon="4.5893">
        <ele>343</ele>
        <time>29-03-2015T09:18:50Z</time>
      </trkpt>
      <trkpt lat="44.41042" lon="4.58924">
        <ele>343</ele>
        <time>29-03-2015T09:18:52Z</time>
      </trkpt>
      <trkpt lat="44.41039" lon="4.58915">
        <ele>343</ele>
        <time>29-03-2015T09:18:55Z</time>
      </trkpt>
      <trkpt lat="44.41038" lon="4.58907">
        <ele>343</ele>
        <time>29-03-2015T09:18:57Z</time>
      </trkpt>
      <trkpt lat="44.41039" lon="4.58898">
        <ele>343</ele>
        <time>29-03-2015T09:18:59Z</time>
      </trkpt>
      <trkpt lat="44.41042" lon="4.58893">
        <ele>343</ele>
        <time>29-03-2015T09:19:01Z</time>
      </trkpt>
      <trkpt lat="44.41041" lon="4.58895">
        <ele>342</ele>
        <time>29-03-2015T09:19:06Z</time>
      </trkpt>
      <trkpt lat="44.41041" lon="4.58895">
        <ele>342</ele>
        <time>29-03-2015T09:19:11Z</time>
      </trkpt>
      <trkpt lat="44.41042" lon="4.58893">
        <ele>342</ele>
        <time>29-03-2015T09:19:16Z</time>
      </trkpt>
      <trkpt lat="44.41043" lon="4.58884">
        <ele>341</ele>
        <time>29-03-2015T09:19:19Z</time>
      </trkpt>
      <trkpt lat="44.41046" lon="4.58873">
        <ele>341</ele>
        <time>29-03-2015T09:19:21Z</time>
      </trkpt>
      <trkpt lat="44.41048" lon="4.58862">
        <ele>341</ele>
        <time>29-03-2015T09:19:23Z</time>
      </trkpt>
      <trkpt lat="44.41049" lon="4.58856">
        <ele>341</ele>
        <time>29-03-2015T09:19:24Z</time>
      </trkpt>
      <trkpt lat="44.41051" lon="4.58849">
        <ele>341</ele>
        <time>29-03-2015T09:19:25Z</time>
      </trkpt>
      <trkpt lat="44.41052" lon="4.58841">
        <ele>341</ele>
        <time>29-03-2015T09:19:26Z</time>
      </trkpt>
      <trkpt lat="44.41053" lon="4.58826">
        <ele>341</ele>
        <time>29-03-2015T09:19:28Z</time>
      </trkpt>
      <trkpt lat="44.41056" lon="4.58818">
        <ele>337</ele>
        <time>29-03-2015T09:19:29Z</time>
      </trkpt>
      <trkpt lat="44.41058" lon="4.58808">
        <ele>337</ele>
        <time>29-03-2015T09:19:30Z</time>
      </trkpt>
      <trkpt lat="44.41058" lon="4.58797">
        <ele>337</ele>
        <time>29-03-2015T09:19:31Z</time>
      </trkpt>
      <trkpt lat="44.41059" lon="4.58785">
        <ele>337</ele>
        <time>29-03-2015T09:19:32Z</time>
      </trkpt>
      <trkpt lat="44.41062" lon="4.58773">
        <ele>337</ele>
        <time>29-03-2015T09:19:33Z</time>
      </trkpt>
      <trkpt lat="44.41063" lon="4.5876">
        <ele>334</ele>
        <time>29-03-2015T09:19:34Z</time>
      </trkpt>
      <trkpt lat="44.41065" lon="4.58749">
        <ele>334</ele>
        <time>29-03-2015T09:19:35Z</time>
      </trkpt>
      <trkpt lat="44.41067" lon="4.58736">
        <ele>334</ele>
        <time>29-03-2015T09:19:36Z</time>
      </trkpt>
      <trkpt lat="44.41068" lon="4.58722">
        <ele>334</ele>
        <time>29-03-2015T09:19:37Z</time>
      </trkpt>
      <trkpt lat="44.41071" lon="4.5871">
        <ele>334</ele>
        <time>29-03-2015T09:19:38Z</time>
      </trkpt>
      <trkpt lat="44.41074" lon="4.58697">
        <ele>329</ele>
        <time>29-03-2015T09:19:39Z</time>
      </trkpt>
      <trkpt lat="44.41077" lon="4.58689">
        <ele>329</ele>
        <time>29-03-2015T09:19:40Z</time>
      </trkpt>
      <trkpt lat="44.41076" lon="4.58681">
        <ele>329</ele>
        <time>29-03-2015T09:19:41Z</time>
      </trkpt>
      <trkpt lat="44.41078" lon="4.58674">
        <ele>329</ele>
        <time>29-03-2015T09:19:42Z</time>
      </trkpt>
      <trkpt lat="44.4108" lon="4.58664">
        <ele>329</ele>
        <time>29-03-2015T09:19:44Z</time>
      </trkpt>
      <trkpt lat="44.41083" lon="4.58656">
        <ele>329</ele>
        <time>29-03-2015T09:19:46Z</time>
      </trkpt>
      <trkpt lat="44.41084" lon="4.58645">
        <ele>329</ele>
        <time>29-03-2015T09:19:48Z</time>
      </trkpt>
      <trkpt lat="44.41085" lon="4.58634">
        <ele>329</ele>
        <time>29-03-2015T09:19:50Z</time>
      </trkpt>
      <trkpt lat="44.41087" lon="4.58625">
        <ele>329</ele>
        <time>29-03-2015T09:19:52Z</time>
      </trkpt>
      <trkpt lat="44.41087" lon="4.58616">
        <ele>329</ele>
        <time>29-03-2015T09:19:54Z</time>
      </trkpt>
      <trkpt lat="44.4109" lon="4.58609">
        <ele>329</ele>
        <time>29-03-2015T09:19:56Z</time>
      </trkpt>
      <trkpt lat="44.4109" lon="4.58601">
        <ele>329</ele>
        <time>29-03-2015T09:19:58Z</time>
      </trkpt>
      <trkpt lat="44.41092" lon="4.58593">
        <ele>332</ele>
        <time>29-03-2015T09:20:00Z</time>
      </trkpt>
      <trkpt lat="44.41093" lon="4.58585">
        <ele>332</ele>
        <time>29-03-2015T09:20:02Z</time>
      </trkpt>
      <trkpt lat="44.41096" lon="4.58575">
        <ele>333</ele>
        <time>29-03-2015T09:20:05Z</time>
      </trkpt>
      <trkpt lat="44.41095" lon="4.58567">
        <ele>333</ele>
        <time>29-03-2015T09:20:08Z</time>
      </trkpt>
      <trkpt lat="44.41097" lon="4.5856">
        <ele>336</ele>
        <time>29-03-2015T09:20:10Z</time>
      </trkpt>
      <trkpt lat="44.41099" lon="4.58553">
        <ele>336</ele>
        <time>29-03-2015T09:20:13Z</time>
      </trkpt>
      <trkpt lat="44.41102" lon="4.58544">
        <ele>337</ele>
        <time>29-03-2015T09:20:16Z</time>
      </trkpt>
      <trkpt lat="44.411" lon="4.58538">
        <ele>338</ele>
        <time>29-03-2015T09:20:19Z</time>
      </trkpt>
      <trkpt lat="44.41101" lon="4.58529">
        <ele>338</ele>
        <time>29-03-2015T09:20:22Z</time>
      </trkpt>
      <trkpt lat="44.411" lon="4.58523">
        <ele>338</ele>
        <time>29-03-2015T09:20:25Z</time>
      </trkpt>
      <trkpt lat="44.41102" lon="4.58516">
        <ele>338</ele>
        <time>29-03-2015T09:20:28Z</time>
      </trkpt>
      <trkpt lat="44.41103" lon="4.58509">
        <ele>340</ele>
        <time>29-03-2015T09:20:31Z</time>
      </trkpt>
      <trkpt lat="44.41106" lon="4.58501">
        <ele>341</ele>
        <time>29-03-2015T09:20:34Z</time>
      </trkpt>
      <trkpt lat="44.41107" lon="4.58494">
        <ele>341</ele>
        <time>29-03-2015T09:20:37Z</time>
      </trkpt>
      <trkpt lat="44.41109" lon="4.58487">
        <ele>343</ele>
        <time>29-03-2015T09:20:39Z</time>
      </trkpt>
      <trkpt lat="44.4111" lon="4.5848">
        <ele>343</ele>
        <time>29-03-2015T09:20:41Z</time>
      </trkpt>
      <trkpt lat="44.4111" lon="4.58473">
        <ele>343</ele>
        <time>29-03-2015T09:20:43Z</time>
      </trkpt>
      <trkpt lat="44.41111" lon="4.58465">
        <ele>344</ele>
        <time>29-03-2015T09:20:45Z</time>
      </trkpt>
      <trkpt lat="44.41113" lon="4.58458">
        <ele>344</ele>
        <time>29-03-2015T09:20:47Z</time>
      </trkpt>
      <trkpt lat="44.41114" lon="4.58452">
        <ele>344</ele>
        <time>29-03-2015T09:20:49Z</time>
      </trkpt>
      <trkpt lat="44.41117" lon="4.58444">
        <ele>344</ele>
        <time>29-03-2015T09:20:51Z</time>
      </trkpt>
      <trkpt lat="44.41117" lon="4.58437">
        <ele>344</ele>
        <time>29-03-2015T09:20:53Z</time>
      </trkpt>
      <trkpt lat="44.41119" lon="4.5843">
        <ele>344</ele>
        <time>29-03-2015T09:20:55Z</time>
      </trkpt>
      <trkpt lat="44.4112" lon="4.58422">
        <ele>344</ele>
        <time>29-03-2015T09:20:57Z</time>
      </trkpt>
      <trkpt lat="44.41121" lon="4.58414">
        <ele>344</ele>
        <time>29-03-2015T09:20:59Z</time>
      </trkpt>
      <trkpt lat="44.41122" lon="4.58405">
        <ele>344</ele>
        <time>29-03-2015T09:21:01Z</time>
      </trkpt>
      <trkpt lat="44.41121" lon="4.58397">
        <ele>344</ele>
        <time>29-03-2015T09:21:03Z</time>
      </trkpt>
      <trkpt lat="44.41123" lon="4.58387">
        <ele>344</ele>
        <time>29-03-2015T09:21:05Z</time>
      </trkpt>
      <trkpt lat="44.41124" lon="4.5838">
        <ele>344</ele>
        <time>29-03-2015T09:21:09Z</time>
      </trkpt>
      <trkpt lat="44.41124" lon="4.58371">
        <ele>344</ele>
        <time>29-03-2015T09:21:12Z</time>
      </trkpt>
      <trkpt lat="44.41123" lon="4.58364">
        <ele>344</ele>
        <time>29-03-2015T09:21:14Z</time>
      </trkpt>
      <trkpt lat="44.41125" lon="4.58357">
        <ele>344</ele>
        <time>29-03-2015T09:21:17Z</time>
      </trkpt>
      <trkpt lat="44.41125" lon="4.58351">
        <ele>344</ele>
        <time>29-03-2015T09:21:22Z</time>
      </trkpt>
      <trkpt lat="44.41125" lon="4.58343">
        <ele>343</ele>
        <time>29-03-2015T09:21:25Z</time>
      </trkpt>
      <trkpt lat="44.41126" lon="4.58336">
        <ele>344</ele>
        <time>29-03-2015T09:21:29Z</time>
      </trkpt>
      <trkpt lat="44.41126" lon="4.58329">
        <ele>344</ele>
        <time>29-03-2015T09:21:32Z</time>
      </trkpt>
      <trkpt lat="44.41127" lon="4.5832">
        <ele>343</ele>
        <time>29-03-2015T09:21:35Z</time>
      </trkpt>
      <trkpt lat="44.41127" lon="4.58313">
        <ele>343</ele>
        <time>29-03-2015T09:21:37Z</time>
      </trkpt>
      <trkpt lat="44.41129" lon="4.58306">
        <ele>343</ele>
        <time>29-03-2015T09:21:39Z</time>
      </trkpt>
      <trkpt lat="44.4113" lon="4.58296">
        <ele>343</ele>
        <time>29-03-2015T09:21:41Z</time>
      </trkpt>
      <trkpt lat="44.4113" lon="4.58285">
        <ele>343</ele>
        <time>29-03-2015T09:21:43Z</time>
      </trkpt>
      <trkpt lat="44.41131" lon="4.58277">
        <ele>341</ele>
        <time>29-03-2015T09:21:45Z</time>
      </trkpt>
      <trkpt lat="44.41127" lon="4.58273">
        <ele>341</ele>
        <time>29-03-2015T09:21:47Z</time>
      </trkpt>
      <trkpt lat="44.41127" lon="4.58264">
        <ele>340</ele>
        <time>29-03-2015T09:21:50Z</time>
      </trkpt>
      <trkpt lat="44.41131" lon="4.58252">
        <ele>340</ele>
        <time>29-03-2015T09:21:52Z</time>
      </trkpt>
      <trkpt lat="44.41132" lon="4.58242">
        <ele>340</ele>
        <time>29-03-2015T09:21:54Z</time>
      </trkpt>
      <trkpt lat="44.41135" lon="4.5823">
        <ele>340</ele>
        <time>29-03-2015T09:21:56Z</time>
      </trkpt>
      <trkpt lat="44.41137" lon="4.58218">
        <ele>340</ele>
        <time>29-03-2015T09:21:58Z</time>
      </trkpt>
      <trkpt lat="44.41139" lon="4.58212">
        <ele>338</ele>
        <time>29-03-2015T09:21:59Z</time>
      </trkpt>
      <trkpt lat="44.41138" lon="4.58206">
        <ele>338</ele>
        <time>29-03-2015T09:22:00Z</time>
      </trkpt>
      <trkpt lat="44.41138" lon="4.58199">
        <ele>338</ele>
        <time>29-03-2015T09:22:01Z</time>
      </trkpt>
      <trkpt lat="44.41137" lon="4.58192">
        <ele>338</ele>
        <time>29-03-2015T09:22:02Z</time>
      </trkpt>
      <trkpt lat="44.41138" lon="4.58186">
        <ele>338</ele>
        <time>29-03-2015T09:22:03Z</time>
      </trkpt>
      <trkpt lat="44.41138" lon="4.58172">
        <ele>337</ele>
        <time>29-03-2015T09:22:05Z</time>
      </trkpt>
      <trkpt lat="44.41139" lon="4.58164">
        <ele>337</ele>
        <time>29-03-2015T09:22:06Z</time>
      </trkpt>
      <trkpt lat="44.41139" lon="4.58157">
        <ele>337</ele>
        <time>29-03-2015T09:22:07Z</time>
      </trkpt>
      <trkpt lat="44.41139" lon="4.58147">
        <ele>337</ele>
        <time>29-03-2015T09:22:08Z</time>
      </trkpt>
      <trkpt lat="44.4114" lon="4.58138">
        <ele>335</ele>
        <time>29-03-2015T09:22:09Z</time>
      </trkpt>
      <trkpt lat="44.41141" lon="4.58131">
        <ele>335</ele>
        <time>29-03-2015T09:22:10Z</time>
      </trkpt>
      <trkpt lat="44.41142" lon="4.58123">
        <ele>335</ele>
        <time>29-03-2015T09:22:11Z</time>
      </trkpt>
      <trkpt lat="44.41142" lon="4.58114">
        <ele>335</ele>
        <time>29-03-2015T09:22:12Z</time>
      </trkpt>
      <trkpt lat="44.41143" lon="4.58106">
        <ele>335</ele>
        <time>29-03-2015T09:22:13Z</time>
      </trkpt>
      <trkpt lat="44.41143" lon="4.58096">
        <ele>334</ele>
        <time>29-03-2015T09:22:14Z</time>
      </trkpt>
      <trkpt lat="44.41144" lon="4.58086">
        <ele>334</ele>
        <time>29-03-2015T09:22:15Z</time>
      </trkpt>
      <trkpt lat="44.41145" lon="4.58078">
        <ele>334</ele>
        <time>29-03-2015T09:22:16Z</time>
      </trkpt>
      <trkpt lat="44.41147" lon="4.5807">
        <ele>334</ele>
        <time>29-03-2015T09:22:17Z</time>
      </trkpt>
      <trkpt lat="44.41147" lon="4.5806">
        <ele>334</ele>
        <time>29-03-2015T09:22:18Z</time>
      </trkpt>
      <trkpt lat="44.41147" lon="4.58052">
        <ele>332</ele>
        <time>29-03-2015T09:22:19Z</time>
      </trkpt>
      <trkpt lat="44.41147" lon="4.58044">
        <ele>332</ele>
        <time>29-03-2015T09:22:20Z</time>
      </trkpt>
      <trkpt lat="44.41148" lon="4.58035">
        <ele>332</ele>
        <time>29-03-2015T09:22:21Z</time>
      </trkpt>
      <trkpt lat="44.41149" lon="4.58027">
        <ele>332</ele>
        <time>29-03-2015T09:22:22Z</time>
      </trkpt>
      <trkpt lat="44.41149" lon="4.58021">
        <ele>332</ele>
        <time>29-03-2015T09:22:23Z</time>
      </trkpt>
      <trkpt lat="44.41149" lon="4.58013">
        <ele>330</ele>
        <time>29-03-2015T09:22:24Z</time>
      </trkpt>
      <trkpt lat="44.41149" lon="4.58005">
        <ele>330</ele>
        <time>29-03-2015T09:22:25Z</time>
      </trkpt>
      <trkpt lat="44.41149" lon="4.57997">
        <ele>330</ele>
        <time>29-03-2015T09:22:26Z</time>
      </trkpt>
      <trkpt lat="44.4115" lon="4.57991">
        <ele>330</ele>
        <time>29-03-2015T09:22:27Z</time>
      </trkpt>
      <trkpt lat="44.41149" lon="4.57983">
        <ele>330</ele>
        <time>29-03-2015T09:22:28Z</time>
      </trkpt>
      <trkpt lat="44.41151" lon="4.57975">
        <ele>330</ele>
        <time>29-03-2015T09:22:29Z</time>
      </trkpt>
      <trkpt lat="44.41152" lon="4.57968">
        <ele>330</ele>
        <time>29-03-2015T09:22:30Z</time>
      </trkpt>
      <trkpt lat="44.41153" lon="4.57959">
        <ele>330</ele>
        <time>29-03-2015T09:22:31Z</time>
      </trkpt>
      <trkpt lat="44.41154" lon="4.57949">
        <ele>330</ele>
        <time>29-03-2015T09:22:32Z</time>
      </trkpt>
      <trkpt lat="44.41155" lon="4.57941">
        <ele>330</ele>
        <time>29-03-2015T09:22:33Z</time>
      </trkpt>
      <trkpt lat="44.41157" lon="4.57931">
        <ele>328</ele>
        <time>29-03-2015T09:22:34Z</time>
      </trkpt>
      <trkpt lat="44.41156" lon="4.57921">
        <ele>328</ele>
        <time>29-03-2015T09:22:35Z</time>
      </trkpt>
      <trkpt lat="44.41156" lon="4.57912">
        <ele>328</ele>
        <time>29-03-2015T09:22:36Z</time>
      </trkpt>
      <trkpt lat="44.41157" lon="4.57904">
        <ele>328</ele>
        <time>29-03-2015T09:22:37Z</time>
      </trkpt>
      <trkpt lat="44.41159" lon="4.57896">
        <ele>328</ele>
        <time>29-03-2015T09:22:38Z</time>
      </trkpt>
      <trkpt lat="44.41162" lon="4.57885">
        <ele>323</ele>
        <time>29-03-2015T09:22:40Z</time>
      </trkpt>
      <trkpt lat="44.41167" lon="4.57883">
        <ele>323</ele>
        <time>29-03-2015T09:22:42Z</time>
      </trkpt>
      <trkpt lat="44.41175" lon="4.57885">
        <ele>322</ele>
        <time>29-03-2015T09:22:44Z</time>
      </trkpt>
      <trkpt lat="44.41184" lon="4.57888">
        <ele>322</ele>
        <time>29-03-2015T09:22:46Z</time>
      </trkpt>
      <trkpt lat="44.41191" lon="4.57889">
        <ele>322</ele>
        <time>29-03-2015T09:22:47Z</time>
      </trkpt>
      <trkpt lat="44.41197" lon="4.5789">
        <ele>322</ele>
        <time>29-03-2015T09:22:48Z</time>
      </trkpt>
      <trkpt lat="44.41203" lon="4.57892">
        <ele>322</ele>
        <time>29-03-2015T09:22:49Z</time>
      </trkpt>
      <trkpt lat="44.41209" lon="4.57894">
        <ele>322</ele>
        <time>29-03-2015T09:22:50Z</time>
      </trkpt>
      <trkpt lat="44.41217" lon="4.57896">
        <ele>322</ele>
        <time>29-03-2015T09:22:51Z</time>
      </trkpt>
      <trkpt lat="44.41223" lon="4.57898">
        <ele>322</ele>
        <time>29-03-2015T09:22:52Z</time>
      </trkpt>
      <trkpt lat="44.41229" lon="4.57899">
        <ele>322</ele>
        <time>29-03-2015T09:22:53Z</time>
      </trkpt>
      <trkpt lat="44.41236" lon="4.57898">
        <ele>322</ele>
        <time>29-03-2015T09:22:54Z</time>
      </trkpt>
      <trkpt lat="44.41243" lon="4.57899">
        <ele>322</ele>
        <time>29-03-2015T09:22:55Z</time>
      </trkpt>
      <trkpt lat="44.4125" lon="4.57898">
        <ele>322</ele>
        <time>29-03-2015T09:22:56Z</time>
      </trkpt>
      <trkpt lat="44.41257" lon="4.57899">
        <ele>322</ele>
        <time>29-03-2015T09:22:57Z</time>
      </trkpt>
      <trkpt lat="44.41263" lon="4.57899">
        <ele>322</ele>
        <time>29-03-2015T09:22:58Z</time>
      </trkpt>
      <trkpt lat="44.4127" lon="4.57897">
        <ele>320</ele>
        <time>29-03-2015T09:22:59Z</time>
      </trkpt>
      <trkpt lat="44.41275" lon="4.57894">
        <ele>320</ele>
        <time>29-03-2015T09:23:00Z</time>
      </trkpt>
      <trkpt lat="44.4128" lon="4.57889">
        <ele>320</ele>
        <time>29-03-2015T09:23:02Z</time>
      </trkpt>
      <trkpt lat="44.41289" lon="4.5789">
        <ele>319</ele>
        <time>29-03-2015T09:23:05Z</time>
      </trkpt>
      <trkpt lat="44.41294" lon="4.5789">
        <ele>319</ele>
        <time>29-03-2015T09:23:07Z</time>
      </trkpt>
      <trkpt lat="44.41299" lon="4.57884">
        <ele>317</ele>
        <time>29-03-2015T09:23:09Z</time>
      </trkpt>
      <trkpt lat="44.41299" lon="4.57873">
        <ele>317</ele>
        <time>29-03-2015T09:23:11Z</time>
      </trkpt>
      <trkpt lat="44.41299" lon="4.57865">
        <ele>317</ele>
        <time>29-03-2015T09:23:12Z</time>
      </trkpt>
      <trkpt lat="44.41301" lon="4.57852">
        <ele>317</ele>
        <time>29-03-2015T09:23:14Z</time>
      </trkpt>
      <trkpt lat="44.41301" lon="4.57845">
        <ele>317</ele>
        <time>29-03-2015T09:23:15Z</time>
      </trkpt>
      <trkpt lat="44.41301" lon="4.57838">
        <ele>317</ele>
        <time>29-03-2015T09:23:16Z</time>
      </trkpt>
      <trkpt lat="44.41299" lon="4.57827">
        <ele>317</ele>
        <time>29-03-2015T09:23:18Z</time>
      </trkpt>
      <trkpt lat="44.41296" lon="4.57815">
        <ele>319</ele>
        <time>29-03-2015T09:23:20Z</time>
      </trkpt>
      <trkpt lat="44.41293" lon="4.57805">
        <ele>319</ele>
        <time>29-03-2015T09:23:22Z</time>
      </trkpt>
      <trkpt lat="44.4129" lon="4.57795">
        <ele>319</ele>
        <time>29-03-2015T09:23:24Z</time>
      </trkpt>
      <trkpt lat="44.41286" lon="4.57785">
        <ele>319</ele>
        <time>29-03-2015T09:23:26Z</time>
      </trkpt>
      <trkpt lat="44.41285" lon="4.57776">
        <ele>319</ele>
        <time>29-03-2015T09:23:28Z</time>
      </trkpt>
      <trkpt lat="44.41283" lon="4.57767">
        <ele>320</ele>
        <time>29-03-2015T09:23:30Z</time>
      </trkpt>
      <trkpt lat="44.41282" lon="4.57757">
        <ele>320</ele>
        <time>29-03-2015T09:23:32Z</time>
      </trkpt>
      <trkpt lat="44.41281" lon="4.57747">
        <ele>321</ele>
        <time>29-03-2015T09:23:34Z</time>
      </trkpt>
      <trkpt lat="44.4128" lon="4.57735">
        <ele>321</ele>
        <time>29-03-2015T09:23:36Z</time>
      </trkpt>
      <trkpt lat="44.41279" lon="4.57728">
        <ele>321</ele>
        <time>29-03-2015T09:23:37Z</time>
      </trkpt>
      <trkpt lat="44.4128" lon="4.57722">
        <ele>321</ele>
        <time>29-03-2015T09:23:38Z</time>
      </trkpt>
      <trkpt lat="44.4128" lon="4.57711">
        <ele>322</ele>
        <time>29-03-2015T09:23:40Z</time>
      </trkpt>
      <trkpt lat="44.4128" lon="4.577">
        <ele>322</ele>
        <time>29-03-2015T09:23:42Z</time>
      </trkpt>
      <trkpt lat="44.41281" lon="4.57687">
        <ele>322</ele>
        <time>29-03-2015T09:23:44Z</time>
      </trkpt>
      <trkpt lat="44.4128" lon="4.57681">
        <ele>322</ele>
        <time>29-03-2015T09:23:45Z</time>
      </trkpt>
      <trkpt lat="44.41281" lon="4.57674">
        <ele>322</ele>
        <time>29-03-2015T09:23:46Z</time>
      </trkpt>
      <trkpt lat="44.4128" lon="4.57666">
        <ele>322</ele>
        <time>29-03-2015T09:23:47Z</time>
      </trkpt>
      <trkpt lat="44.41279" lon="4.57654">
        <ele>322</ele>
        <time>29-03-2015T09:23:49Z</time>
      </trkpt>
      <trkpt lat="44.41275" lon="4.57644">
        <ele>322</ele>
        <time>29-03-2015T09:23:51Z</time>
      </trkpt>
      <trkpt lat="44.41271" lon="4.57638">
        <ele>322</ele>
        <time>29-03-2015T09:23:52Z</time>
      </trkpt>
      <trkpt lat="44.41268" lon="4.57633">
        <ele>322</ele>
        <time>29-03-2015T09:23:53Z</time>
      </trkpt>
      <trkpt lat="44.41262" lon="4.57624">
        <ele>322</ele>
        <time>29-03-2015T09:23:55Z</time>
      </trkpt>
      <trkpt lat="44.41259" lon="4.57619">
        <ele>322</ele>
        <time>29-03-2015T09:23:56Z</time>
      </trkpt>
      <trkpt lat="44.41257" lon="4.57612">
        <ele>322</ele>
        <time>29-03-2015T09:23:58Z</time>
      </trkpt>
      <trkpt lat="44.41252" lon="4.57602">
        <ele>323</ele>
        <time>29-03-2015T09:24:00Z</time>
      </trkpt>
      <trkpt lat="44.41249" lon="4.57592">
        <ele>323</ele>
        <time>29-03-2015T09:24:02Z</time>
      </trkpt>
      <trkpt lat="44.41246" lon="4.57583">
        <ele>323</ele>
        <time>29-03-2015T09:24:04Z</time>
      </trkpt>
      <trkpt lat="44.41243" lon="4.57573">
        <ele>323</ele>
        <time>29-03-2015T09:24:06Z</time>
      </trkpt>
      <trkpt lat="44.4124" lon="4.57562">
        <ele>323</ele>
        <time>29-03-2015T09:24:08Z</time>
      </trkpt>
      <trkpt lat="44.41238" lon="4.57552">
        <ele>323</ele>
        <time>29-03-2015T09:24:10Z</time>
      </trkpt>
      <trkpt lat="44.41237" lon="4.57546">
        <ele>323</ele>
        <time>29-03-2015T09:24:11Z</time>
      </trkpt>
      <trkpt lat="44.41236" lon="4.57539">
        <ele>323</ele>
        <time>29-03-2015T09:24:12Z</time>
      </trkpt>
      <trkpt lat="44.41235" lon="4.5753">
        <ele>323</ele>
        <time>29-03-2015T09:24:14Z</time>
      </trkpt>
      <trkpt lat="44.41236" lon="4.57519">
        <ele>323</ele>
        <time>29-03-2015T09:24:16Z</time>
      </trkpt>
      <trkpt lat="44.41238" lon="4.57509">
        <ele>323</ele>
        <time>29-03-2015T09:24:18Z</time>
      </trkpt>
      <trkpt lat="44.4124" lon="4.575">
        <ele>323</ele>
        <time>29-03-2015T09:24:20Z</time>
      </trkpt>
      <trkpt lat="44.41243" lon="4.5749">
        <ele>323</ele>
        <time>29-03-2015T09:24:22Z</time>
      </trkpt>
      <trkpt lat="44.41245" lon="4.57481">
        <ele>324</ele>
        <time>29-03-2015T09:24:24Z</time>
      </trkpt>
      <trkpt lat="44.4125" lon="4.57471">
        <ele>324</ele>
        <time>29-03-2015T09:24:26Z</time>
      </trkpt>
      <trkpt lat="44.41254" lon="4.5746">
        <ele>324</ele>
        <time>29-03-2015T09:24:28Z</time>
      </trkpt>
      <trkpt lat="44.41254" lon="4.57448">
        <ele>325</ele>
        <time>29-03-2015T09:24:30Z</time>
      </trkpt>
      <trkpt lat="44.41253" lon="4.57436">
        <ele>325</ele>
        <time>29-03-2015T09:24:32Z</time>
      </trkpt>
      <trkpt lat="44.41255" lon="4.57426">
        <ele>327</ele>
        <time>29-03-2015T09:24:34Z</time>
      </trkpt>
      <trkpt lat="44.41256" lon="4.57416">
        <ele>327</ele>
        <time>29-03-2015T09:24:36Z</time>
      </trkpt>
      <trkpt lat="44.41256" lon="4.57407">
        <ele>327</ele>
        <time>29-03-2015T09:24:38Z</time>
      </trkpt>
      <trkpt lat="44.41255" lon="4.574">
        <ele>328</ele>
        <time>29-03-2015T09:24:40Z</time>
      </trkpt>
      <trkpt lat="44.41256" lon="4.57393">
        <ele>328</ele>
        <time>29-03-2015T09:24:42Z</time>
      </trkpt>
      <trkpt lat="44.41256" lon="4.57384">
        <ele>328</ele>
        <time>29-03-2015T09:24:44Z</time>
      </trkpt>
      <trkpt lat="44.41259" lon="4.57376">
        <ele>328</ele>
        <time>29-03-2015T09:24:46Z</time>
      </trkpt>
      <trkpt lat="44.41261" lon="4.57367">
        <ele>328</ele>
        <time>29-03-2015T09:24:48Z</time>
      </trkpt>
      <trkpt lat="44.41265" lon="4.5736">
        <ele>329</ele>
        <time>29-03-2015T09:24:50Z</time>
      </trkpt>
      <trkpt lat="44.41269" lon="4.57352">
        <ele>329</ele>
        <time>29-03-2015T09:24:52Z</time>
      </trkpt>
      <trkpt lat="44.41272" lon="4.57344">
        <ele>329</ele>
        <time>29-03-2015T09:24:54Z</time>
      </trkpt>
      <trkpt lat="44.41275" lon="4.57335">
        <ele>329</ele>
        <time>29-03-2015T09:24:56Z</time>
      </trkpt>
      <trkpt lat="44.41278" lon="4.57327">
        <ele>329</ele>
        <time>29-03-2015T09:24:58Z</time>
      </trkpt>
      <trkpt lat="44.41279" lon="4.57318">
        <ele>329</ele>
        <time>29-03-2015T09:25:00Z</time>
      </trkpt>
      <trkpt lat="44.41279" lon="4.57309">
        <ele>329</ele>
        <time>29-03-2015T09:25:02Z</time>
      </trkpt>
      <trkpt lat="44.41279" lon="4.57301">
        <ele>329</ele>
        <time>29-03-2015T09:25:04Z</time>
      </trkpt>
      <trkpt lat="44.4128" lon="4.5729">
        <ele>329</ele>
        <time>29-03-2015T09:25:06Z</time>
      </trkpt>
      <trkpt lat="44.4128" lon="4.57279">
        <ele>329</ele>
        <time>29-03-2015T09:25:08Z</time>
      </trkpt>
      <trkpt lat="44.41278" lon="4.57273">
        <ele>329</ele>
        <time>29-03-2015T09:25:09Z</time>
      </trkpt>
      <trkpt lat="44.41278" lon="4.57261">
        <ele>329</ele>
        <time>29-03-2015T09:25:11Z</time>
      </trkpt>
      <trkpt lat="44.41276" lon="4.57251">
        <ele>329</ele>
        <time>29-03-2015T09:25:13Z</time>
      </trkpt>
      <trkpt lat="44.41276" lon="4.57244">
        <ele>329</ele>
        <time>29-03-2015T09:25:14Z</time>
      </trkpt>
      <trkpt lat="44.41276" lon="4.57237">
        <ele>329</ele>
        <time>29-03-2015T09:25:15Z</time>
      </trkpt>
      <trkpt lat="44.41277" lon="4.57224">
        <ele>329</ele>
        <time>29-03-2015T09:25:17Z</time>
      </trkpt>
      <trkpt lat="44.41279" lon="4.57217">
        <ele>329</ele>
        <time>29-03-2015T09:25:18Z</time>
      </trkpt>
      <trkpt lat="44.41282" lon="4.57205">
        <ele>328</ele>
        <time>29-03-2015T09:25:20Z</time>
      </trkpt>
      <trkpt lat="44.41284" lon="4.57193">
        <ele>328</ele>
        <time>29-03-2015T09:25:22Z</time>
      </trkpt>
      <trkpt lat="44.41284" lon="4.57181">
        <ele>328</ele>
        <time>29-03-2015T09:25:24Z</time>
      </trkpt>
      <trkpt lat="44.41284" lon="4.57174">
        <ele>328</ele>
        <time>29-03-2015T09:25:25Z</time>
      </trkpt>
      <trkpt lat="44.41282" lon="4.57163">
        <ele>328</ele>
        <time>29-03-2015T09:25:27Z</time>
      </trkpt>
      <trkpt lat="44.41277" lon="4.57153">
        <ele>328</ele>
        <time>29-03-2015T09:25:29Z</time>
      </trkpt>
      <trkpt lat="44.41274" lon="4.57147">
        <ele>328</ele>
        <time>29-03-2015T09:25:30Z</time>
      </trkpt>
      <trkpt lat="44.41272" lon="4.57136">
        <ele>328</ele>
        <time>29-03-2015T09:25:32Z</time>
      </trkpt>
      <trkpt lat="44.41268" lon="4.57125">
        <ele>328</ele>
        <time>29-03-2015T09:25:34Z</time>
      </trkpt>
      <trkpt lat="44.41264" lon="4.57113">
        <ele>328</ele>
        <time>29-03-2015T09:25:36Z</time>
      </trkpt>
      <trkpt lat="44.4126" lon="4.57102">
        <ele>328</ele>
        <time>29-03-2015T09:25:38Z</time>
      </trkpt>
      <trkpt lat="44.41257" lon="4.57091">
        <ele>329</ele>
        <time>29-03-2015T09:25:40Z</time>
      </trkpt>
      <trkpt lat="44.41254" lon="4.57079">
        <ele>329</ele>
        <time>29-03-2015T09:25:42Z</time>
      </trkpt>
      <trkpt lat="44.41253" lon="4.57068">
        <ele>329</ele>
        <time>29-03-2015T09:25:44Z</time>
      </trkpt>
      <trkpt lat="44.41253" lon="4.57062">
        <ele>329</ele>
        <time>29-03-2015T09:25:45Z</time>
      </trkpt>
      <trkpt lat="44.41255" lon="4.57054">
        <ele>329</ele>
        <time>29-03-2015T09:25:47Z</time>
      </trkpt>
      <trkpt lat="44.4125" lon="4.5705">
        <ele>328</ele>
        <time>29-03-2015T09:25:51Z</time>
      </trkpt>
      <trkpt lat="44.41247" lon="4.57045">
        <ele>328</ele>
        <time>29-03-2015T09:25:53Z</time>
      </trkpt>
      <trkpt lat="44.41244" lon="4.57037">
        <ele>328</ele>
        <time>29-03-2015T09:25:55Z</time>
      </trkpt>
      <trkpt lat="44.41241" lon="4.57031">
        <ele>328</ele>
        <time>29-03-2015T09:25:57Z</time>
      </trkpt>
      <trkpt lat="44.41236" lon="4.57024">
        <ele>328</ele>
        <time>29-03-2015T09:25:59Z</time>
      </trkpt>
      <trkpt lat="44.41232" lon="4.57019">
        <ele>328</ele>
        <time>29-03-2015T09:26:01Z</time>
      </trkpt>
      <trkpt lat="44.41231" lon="4.5701">
        <ele>328</ele>
        <time>29-03-2015T09:26:03Z</time>
      </trkpt>
      <trkpt lat="44.41232" lon="4.57001">
        <ele>328</ele>
        <time>29-03-2015T09:26:05Z</time>
      </trkpt>
      <trkpt lat="44.41233" lon="4.56993">
        <ele>328</ele>
        <time>29-03-2015T09:26:07Z</time>
      </trkpt>
      <trkpt lat="44.41234" lon="4.56982">
        <ele>328</ele>
        <time>29-03-2015T09:26:09Z</time>
      </trkpt>
      <trkpt lat="44.41234" lon="4.56972">
        <ele>328</ele>
        <time>29-03-2015T09:26:11Z</time>
      </trkpt>
      <trkpt lat="44.41232" lon="4.56963">
        <ele>328</ele>
        <time>29-03-2015T09:26:13Z</time>
      </trkpt>
      <trkpt lat="44.41232" lon="4.56954">
        <ele>330</ele>
        <time>29-03-2015T09:26:15Z</time>
      </trkpt>
      <trkpt lat="44.41233" lon="4.56944">
        <ele>330</ele>
        <time>29-03-2015T09:26:17Z</time>
      </trkpt>
      <trkpt lat="44.41233" lon="4.56936">
        <ele>331</ele>
        <time>29-03-2015T09:26:19Z</time>
      </trkpt>
      <trkpt lat="44.41234" lon="4.56926">
        <ele>331</ele>
        <time>29-03-2015T09:26:21Z</time>
      </trkpt>
      <trkpt lat="44.41234" lon="4.56916">
        <ele>331</ele>
        <time>29-03-2015T09:26:23Z</time>
      </trkpt>
      <trkpt lat="44.41236" lon="4.56905">
        <ele>331</ele>
        <time>29-03-2015T09:26:25Z</time>
      </trkpt>
      <trkpt lat="44.41238" lon="4.56896">
        <ele>331</ele>
        <time>29-03-2015T09:26:27Z</time>
      </trkpt>
      <trkpt lat="44.41239" lon="4.56883">
        <ele>331</ele>
        <time>29-03-2015T09:26:29Z</time>
      </trkpt>
      <trkpt lat="44.41241" lon="4.56874">
        <ele>331</ele>
        <time>29-03-2015T09:26:31Z</time>
      </trkpt>
      <trkpt lat="44.41242" lon="4.56864">
        <ele>331</ele>
        <time>29-03-2015T09:26:33Z</time>
      </trkpt>
      <trkpt lat="44.41243" lon="4.56853">
        <ele>331</ele>
        <time>29-03-2015T09:26:35Z</time>
      </trkpt>
      <trkpt lat="44.41245" lon="4.56842">
        <ele>331</ele>
        <time>29-03-2015T09:26:37Z</time>
      </trkpt>
      <trkpt lat="44.41248" lon="4.56831">
        <ele>331</ele>
        <time>29-03-2015T09:26:39Z</time>
      </trkpt>
      <trkpt lat="44.41253" lon="4.56823">
        <ele>331</ele>
        <time>29-03-2015T09:26:41Z</time>
      </trkpt>
      <trkpt lat="44.41258" lon="4.56814">
        <ele>331</ele>
        <time>29-03-2015T09:26:43Z</time>
      </trkpt>
      <trkpt lat="44.4126" lon="4.56804">
        <ele>330</ele>
        <time>29-03-2015T09:26:45Z</time>
      </trkpt>
      <trkpt lat="44.41263" lon="4.56792">
        <ele>330</ele>
        <time>29-03-2015T09:26:47Z</time>
      </trkpt>
      <trkpt lat="44.41267" lon="4.56786">
        <ele>330</ele>
        <time>29-03-2015T09:26:48Z</time>
      </trkpt>
      <trkpt lat="44.41272" lon="4.56778">
        <ele>330</ele>
        <time>29-03-2015T09:26:50Z</time>
      </trkpt>
      <trkpt lat="44.41279" lon="4.56769">
        <ele>330</ele>
        <time>29-03-2015T09:26:52Z</time>
      </trkpt>
      <trkpt lat="44.41284" lon="4.56764">
        <ele>330</ele>
        <time>29-03-2015T09:26:53Z</time>
      </trkpt>
      <trkpt lat="44.41287" lon="4.5676">
        <ele>329</ele>
        <time>29-03-2015T09:26:54Z</time>
      </trkpt>
      <trkpt lat="44.41295" lon="4.56755">
        <ele>329</ele>
        <time>29-03-2015T09:26:56Z</time>
      </trkpt>
      <trkpt lat="44.41299" lon="4.56753">
        <ele>329</ele>
        <time>29-03-2015T09:26:57Z</time>
      </trkpt>
      <trkpt lat="44.41308" lon="4.56748">
        <ele>329</ele>
        <time>29-03-2015T09:26:59Z</time>
      </trkpt>
      <trkpt lat="44.41312" lon="4.56746">
        <ele>329</ele>
        <time>29-03-2015T09:27:00Z</time>
      </trkpt>
      <trkpt lat="44.41318" lon="4.56737">
        <ele>329</ele>
        <time>29-03-2015T09:27:02Z</time>
      </trkpt>
      <trkpt lat="44.4132" lon="4.56731">
        <ele>329</ele>
        <time>29-03-2015T09:27:03Z</time>
      </trkpt>
      <trkpt lat="44.41323" lon="4.56725">
        <ele>326</ele>
        <time>29-03-2015T09:27:04Z</time>
      </trkpt>
      <trkpt lat="44.41329" lon="4.56717">
        <ele>326</ele>
        <time>29-03-2015T09:27:06Z</time>
      </trkpt>
      <trkpt lat="44.41336" lon="4.56709">
        <ele>326</ele>
        <time>29-03-2015T09:27:08Z</time>
      </trkpt>
      <trkpt lat="44.41341" lon="4.56698">
        <ele>325</ele>
        <time>29-03-2015T09:27:10Z</time>
      </trkpt>
      <trkpt lat="44.41347" lon="4.56686">
        <ele>325</ele>
        <time>29-03-2015T09:27:12Z</time>
      </trkpt>
      <trkpt lat="44.4135" lon="4.56678">
        <ele>325</ele>
        <time>29-03-2015T09:27:13Z</time>
      </trkpt>
      <trkpt lat="44.41352" lon="4.56669">
        <ele>324</ele>
        <time>29-03-2015T09:27:14Z</time>
      </trkpt>
      <trkpt lat="44.41354" lon="4.56661">
        <ele>324</ele>
        <time>29-03-2015T09:27:15Z</time>
      </trkpt>
      <trkpt lat="44.41355" lon="4.56653">
        <ele>324</ele>
        <time>29-03-2015T09:27:16Z</time>
      </trkpt>
      <trkpt lat="44.41358" lon="4.56644">
        <ele>324</ele>
        <time>29-03-2015T09:27:17Z</time>
      </trkpt>
      <trkpt lat="44.4136" lon="4.56636">
        <ele>324</ele>
        <time>29-03-2015T09:27:18Z</time>
      </trkpt>
      <trkpt lat="44.41362" lon="4.56627">
        <ele>322</ele>
        <time>29-03-2015T09:27:19Z</time>
      </trkpt>
      <trkpt lat="44.41364" lon="4.56617">
        <ele>322</ele>
        <time>29-03-2015T09:27:20Z</time>
      </trkpt>
      <trkpt lat="44.41367" lon="4.56609">
        <ele>322</ele>
        <time>29-03-2015T09:27:21Z</time>
      </trkpt>
      <trkpt lat="44.4137" lon="4.56599">
        <ele>322</ele>
        <time>29-03-2015T09:27:22Z</time>
      </trkpt>
      <trkpt lat="44.41372" lon="4.56592">
        <ele>322</ele>
        <time>29-03-2015T09:27:23Z</time>
      </trkpt>
      <trkpt lat="44.41375" lon="4.56584">
        <ele>320</ele>
        <time>29-03-2015T09:27:24Z</time>
      </trkpt>
      <trkpt lat="44.41377" lon="4.56575">
        <ele>320</ele>
        <time>29-03-2015T09:27:25Z</time>
      </trkpt>
      <trkpt lat="44.41379" lon="4.56566">
        <ele>320</ele>
        <time>29-03-2015T09:27:26Z</time>
      </trkpt>
      <trkpt lat="44.41378" lon="4.56558">
        <ele>320</ele>
        <time>29-03-2015T09:27:27Z</time>
      </trkpt>
      <trkpt lat="44.4138" lon="4.5655">
        <ele>320</ele>
        <time>29-03-2015T09:27:28Z</time>
      </trkpt>
      <trkpt lat="44.4138" lon="4.56542">
        <ele>319</ele>
        <time>29-03-2015T09:27:29Z</time>
      </trkpt>
      <trkpt lat="44.41382" lon="4.56534">
        <ele>319</ele>
        <time>29-03-2015T09:27:30Z</time>
      </trkpt>
      <trkpt lat="44.41381" lon="4.56525">
        <ele>319</ele>
        <time>29-03-2015T09:27:31Z</time>
      </trkpt>
      <trkpt lat="44.41382" lon="4.56519">
        <ele>319</ele>
        <time>29-03-2015T09:27:32Z</time>
      </trkpt>
      <trkpt lat="44.41382" lon="4.56512">
        <ele>319</ele>
        <time>29-03-2015T09:27:33Z</time>
      </trkpt>
      <trkpt lat="44.41382" lon="4.56505">
        <ele>319</ele>
        <time>29-03-2015T09:27:34Z</time>
      </trkpt>
      <trkpt lat="44.41384" lon="4.56499">
        <ele>319</ele>
        <time>29-03-2015T09:27:35Z</time>
      </trkpt>
      <trkpt lat="44.41385" lon="4.56488">
        <ele>319</ele>
        <time>29-03-2015T09:27:37Z</time>
      </trkpt>
      <trkpt lat="44.41386" lon="4.56481">
        <ele>319</ele>
        <time>29-03-2015T09:27:38Z</time>
      </trkpt>
      <trkpt lat="44.41387" lon="4.56474">
        <ele>319</ele>
        <time>29-03-2015T09:27:39Z</time>
      </trkpt>
      <trkpt lat="44.41389" lon="4.56468">
        <ele>319</ele>
        <time>29-03-2015T09:27:40Z</time>
      </trkpt>
      <trkpt lat="44.41394" lon="4.56458">
        <ele>319</ele>
        <time>29-03-2015T09:27:42Z</time>
      </trkpt>
      <trkpt lat="44.41397" lon="4.56447">
        <ele>319</ele>
        <time>29-03-2015T09:27:44Z</time>
      </trkpt>
      <trkpt lat="44.414" lon="4.56435">
        <ele>319</ele>
        <time>29-03-2015T09:27:46Z</time>
      </trkpt>
      <trkpt lat="44.41402" lon="4.56429">
        <ele>319</ele>
        <time>29-03-2015T09:27:47Z</time>
      </trkpt>
      <trkpt lat="44.41404" lon="4.56417">
        <ele>321</ele>
        <time>29-03-2015T09:27:49Z</time>
      </trkpt>
      <trkpt lat="44.41407" lon="4.5641">
        <ele>321</ele>
        <time>29-03-2015T09:27:50Z</time>
      </trkpt>
      <trkpt lat="44.41408" lon="4.56402">
        <ele>321</ele>
        <time>29-03-2015T09:27:51Z</time>
      </trkpt>
      <trkpt lat="44.41408" lon="4.56394">
        <ele>321</ele>
        <time>29-03-2015T09:27:52Z</time>
      </trkpt>
      <trkpt lat="44.41409" lon="4.56387">
        <ele>321</ele>
        <time>29-03-2015T09:27:53Z</time>
      </trkpt>
      <trkpt lat="44.41411" lon="4.5638">
        <ele>321</ele>
        <time>29-03-2015T09:27:54Z</time>
      </trkpt>
      <trkpt lat="44.41413" lon="4.56374">
        <ele>321</ele>
        <time>29-03-2015T09:27:55Z</time>
      </trkpt>
      <trkpt lat="44.41414" lon="4.56368">
        <ele>321</ele>
        <time>29-03-2015T09:27:56Z</time>
      </trkpt>
      <trkpt lat="44.41416" lon="4.56361">
        <ele>321</ele>
        <time>29-03-2015T09:27:57Z</time>
      </trkpt>
      <trkpt lat="44.41419" lon="4.56355">
        <ele>321</ele>
        <time>29-03-2015T09:27:58Z</time>
      </trkpt>
      <trkpt lat="44.41423" lon="4.5635">
        <ele>319</ele>
        <time>29-03-2015T09:27:59Z</time>
      </trkpt>
      <trkpt lat="44.41427" lon="4.56345">
        <ele>319</ele>
        <time>29-03-2015T09:28:00Z</time>
      </trkpt>
      <trkpt lat="44.41428" lon="4.56339">
        <ele>319</ele>
        <time>29-03-2015T09:28:01Z</time>
      </trkpt>
      <trkpt lat="44.4143" lon="4.56333">
        <ele>319</ele>
        <time>29-03-2015T09:28:02Z</time>
      </trkpt>
      <trkpt lat="44.41431" lon="4.56323">
        <ele>320</ele>
        <time>29-03-2015T09:28:04Z</time>
      </trkpt>
      <trkpt lat="44.41433" lon="4.56314">
        <ele>320</ele>
        <time>29-03-2015T09:28:06Z</time>
      </trkpt>
      <trkpt lat="44.41433" lon="4.56304">
        <ele>320</ele>
        <time>29-03-2015T09:28:08Z</time>
      </trkpt>
      <trkpt lat="44.41431" lon="4.56298">
        <ele>321</ele>
        <time>29-03-2015T09:28:10Z</time>
      </trkpt>
      <trkpt lat="44.41432" lon="4.5629">
        <ele>321</ele>
        <time>29-03-2015T09:28:12Z</time>
      </trkpt>
      <trkpt lat="44.41433" lon="4.56282">
        <ele>321</ele>
        <time>29-03-2015T09:28:14Z</time>
      </trkpt>
      <trkpt lat="44.41435" lon="4.56274">
        <ele>321</ele>
        <time>29-03-2015T09:28:16Z</time>
      </trkpt>
      <trkpt lat="44.41435" lon="4.56265">
        <ele>321</ele>
        <time>29-03-2015T09:28:18Z</time>
      </trkpt>
      <trkpt lat="44.41438" lon="4.5626">
        <ele>316</ele>
        <time>29-03-2015T09:28:20Z</time>
      </trkpt>
      <trkpt lat="44.4144" lon="4.56252">
        <ele>316</ele>
        <time>29-03-2015T09:28:22Z</time>
      </trkpt>
      <trkpt lat="44.41441" lon="4.56244">
        <ele>314</ele>
        <time>29-03-2015T09:28:24Z</time>
      </trkpt>
      <trkpt lat="44.41442" lon="4.56245">
        <ele>313</ele>
        <time>29-03-2015T09:28:29Z</time>
      </trkpt>
      <trkpt lat="44.41441" lon="4.56245">
        <ele>313</ele>
        <time>29-03-2015T09:28:34Z</time>
      </trkpt>
      <trkpt lat="44.41443" lon="4.56242">
        <ele>312</ele>
        <time>29-03-2015T09:28:39Z</time>
      </trkpt>
      <trkpt lat="44.41442" lon="4.56235">
        <ele>312</ele>
        <time>29-03-2015T09:28:43Z</time>
      </trkpt>
      <trkpt lat="44.41441" lon="4.56232">
        <ele>312</ele>
        <time>29-03-2015T09:28:48Z</time>
      </trkpt>
      <trkpt lat="44.41442" lon="4.56225">
        <ele>309</ele>
        <time>29-03-2015T09:28:52Z</time>
      </trkpt>
      <trkpt lat="44.41441" lon="4.56221">
        <ele>309</ele>
        <time>29-03-2015T09:28:57Z</time>
      </trkpt>
      <trkpt lat="44.41439" lon="4.56217">
        <ele>308</ele>
        <time>29-03-2015T09:29:02Z</time>
      </trkpt>
      <trkpt lat="44.41438" lon="4.56213">
        <ele>307</ele>
        <time>29-03-2015T09:29:07Z</time>
      </trkpt>
      <trkpt lat="44.41441" lon="4.5621">
        <ele>305</ele>
        <time>29-03-2015T09:29:12Z</time>
      </trkpt>
      <trkpt lat="44.41443" lon="4.56201">
        <ele>305</ele>
        <time>29-03-2015T09:29:15Z</time>
      </trkpt>
      <trkpt lat="44.4144" lon="4.56193">
        <ele>305</ele>
        <time>29-03-2015T09:29:17Z</time>
      </trkpt>
      <trkpt lat="44.41436" lon="4.56188">
        <ele>302</ele>
        <time>29-03-2015T09:29:19Z</time>
      </trkpt>
      <trkpt lat="44.41431" lon="4.56186">
        <ele>302</ele>
        <time>29-03-2015T09:29:21Z</time>
      </trkpt>
      <trkpt lat="44.41426" lon="4.56184">
        <ele>302</ele>
        <time>29-03-2015T09:29:23Z</time>
      </trkpt>
      <trkpt lat="44.4142" lon="4.56176">
        <ele>301</ele>
        <time>29-03-2015T09:29:25Z</time>
      </trkpt>
      <trkpt lat="44.41416" lon="4.5617">
        <ele>301</ele>
        <time>29-03-2015T09:29:27Z</time>
      </trkpt>
      <trkpt lat="44.4141" lon="4.56163">
        <ele>300</ele>
        <time>29-03-2015T09:29:29Z</time>
      </trkpt>
      <trkpt lat="44.4141" lon="4.56151">
        <ele>300</ele>
        <time>29-03-2015T09:29:31Z</time>
      </trkpt>
      <trkpt lat="44.41408" lon="4.56142">
        <ele>300</ele>
        <time>29-03-2015T09:29:33Z</time>
      </trkpt>
      <trkpt lat="44.41404" lon="4.56136">
        <ele>297</ele>
        <time>29-03-2015T09:29:35Z</time>
      </trkpt>
      <trkpt lat="44.41401" lon="4.56127">
        <ele>297</ele>
        <time>29-03-2015T09:29:37Z</time>
      </trkpt>
      <trkpt lat="44.41399" lon="4.56118">
        <ele>297</ele>
        <time>29-03-2015T09:29:39Z</time>
      </trkpt>
      <trkpt lat="44.41397" lon="4.56112">
        <ele>297</ele>
        <time>29-03-2015T09:29:41Z</time>
      </trkpt>
      <trkpt lat="44.41398" lon="4.56104">
        <ele>297</ele>
        <time>29-03-2015T09:29:43Z</time>
      </trkpt>
      <trkpt lat="44.41396" lon="4.56096">
        <ele>294</ele>
        <time>29-03-2015T09:29:45Z</time>
      </trkpt>
      <trkpt lat="44.41392" lon="4.56084">
        <ele>294</ele>
        <time>29-03-2015T09:29:47Z</time>
      </trkpt>
      <trkpt lat="44.4139" lon="4.56077">
        <ele>294</ele>
        <time>29-03-2015T09:29:48Z</time>
      </trkpt>
      <trkpt lat="44.41387" lon="4.56064">
        <ele>293</ele>
        <time>29-03-2015T09:29:50Z</time>
      </trkpt>
      <trkpt lat="44.41385" lon="4.56058">
        <ele>293</ele>
        <time>29-03-2015T09:29:51Z</time>
      </trkpt>
      <trkpt lat="44.41383" lon="4.56053">
        <ele>293</ele>
        <time>29-03-2015T09:29:52Z</time>
      </trkpt>
      <trkpt lat="44.41381" lon="4.56046">
        <ele>293</ele>
        <time>29-03-2015T09:29:53Z</time>
      </trkpt>
      <trkpt lat="44.41379" lon="4.5604">
        <ele>293</ele>
        <time>29-03-2015T09:29:54Z</time>
      </trkpt>
      <trkpt lat="44.41375" lon="4.56029">
        <ele>293</ele>
        <time>29-03-2015T09:29:56Z</time>
      </trkpt>
      <trkpt lat="44.41373" lon="4.56024">
        <ele>293</ele>
        <time>29-03-2015T09:29:57Z</time>
      </trkpt>
      <trkpt lat="44.41371" lon="4.56017">
        <ele>293</ele>
        <time>29-03-2015T09:29:58Z</time>
      </trkpt>
      <trkpt lat="44.41366" lon="4.56007">
        <ele>289</ele>
        <time>29-03-2015T09:30:00Z</time>
      </trkpt>
      <trkpt lat="44.41362" lon="4.56003">
        <ele>289</ele>
        <time>29-03-2015T09:30:01Z</time>
      </trkpt>
      <trkpt lat="44.41358" lon="4.55998">
        <ele>289</ele>
        <time>29-03-2015T09:30:02Z</time>
      </trkpt>
      <trkpt lat="44.41352" lon="4.55988">
        <ele>283</ele>
        <time>29-03-2015T09:30:04Z</time>
      </trkpt>
      <trkpt lat="44.41346" lon="4.55978">
        <ele>283</ele>
        <time>29-03-2015T09:30:06Z</time>
      </trkpt>
      <trkpt lat="44.41339" lon="4.55971">
        <ele>283</ele>
        <time>29-03-2015T09:30:08Z</time>
      </trkpt>
      <trkpt lat="44.41332" lon="4.55966">
        <ele>279</ele>
        <time>29-03-2015T09:30:10Z</time>
      </trkpt>
      <trkpt lat="44.41327" lon="4.55965">
        <ele>279</ele>
        <time>29-03-2015T09:30:12Z</time>
      </trkpt>
      <trkpt lat="44.41322" lon="4.55957">
        <ele>278</ele>
        <time>29-03-2015T09:30:15Z</time>
      </trkpt>
      <trkpt lat="44.41317" lon="4.55953">
        <ele>278</ele>
        <time>29-03-2015T09:30:17Z</time>
      </trkpt>
      <trkpt lat="44.41312" lon="4.55951">
        <ele>278</ele>
        <time>29-03-2015T09:30:18Z</time>
      </trkpt>
      <trkpt lat="44.41306" lon="4.55951">
        <ele>273</ele>
        <time>29-03-2015T09:30:20Z</time>
      </trkpt>
      <trkpt lat="44.41298" lon="4.55951">
        <ele>273</ele>
        <time>29-03-2015T09:30:22Z</time>
      </trkpt>
      <trkpt lat="44.41291" lon="4.55949">
        <ele>272</ele>
        <time>29-03-2015T09:30:24Z</time>
      </trkpt>
      <trkpt lat="44.41289" lon="4.55942">
        <ele>272</ele>
        <time>29-03-2015T09:30:26Z</time>
      </trkpt>
      <trkpt lat="44.41289" lon="4.55934">
        <ele>272</ele>
        <time>29-03-2015T09:30:27Z</time>
      </trkpt>
      <trkpt lat="44.41289" lon="4.55926">
        <ele>271</ele>
        <time>29-03-2015T09:30:29Z</time>
      </trkpt>
      <trkpt lat="44.41288" lon="4.55918">
        <ele>271</ele>
        <time>29-03-2015T09:30:31Z</time>
      </trkpt>
      <trkpt lat="44.41287" lon="4.55911">
        <ele>271</ele>
        <time>29-03-2015T09:30:33Z</time>
      </trkpt>
      <trkpt lat="44.41286" lon="4.55904">
        <ele>273</ele>
        <time>29-03-2015T09:30:35Z</time>
      </trkpt>
      <trkpt lat="44.41286" lon="4.55897">
        <ele>273</ele>
        <time>29-03-2015T09:30:37Z</time>
      </trkpt>
      <trkpt lat="44.41285" lon="4.55891">
        <ele>274</ele>
        <time>29-03-2015T09:30:39Z</time>
      </trkpt>
      <trkpt lat="44.4128" lon="4.55885">
        <ele>274</ele>
        <time>29-03-2015T09:30:41Z</time>
      </trkpt>
      <trkpt lat="44.41277" lon="4.55878">
        <ele>276</ele>
        <time>29-03-2015T09:30:44Z</time>
      </trkpt>
      <trkpt lat="44.41275" lon="4.55872">
        <ele>276</ele>
        <time>29-03-2015T09:30:46Z</time>
      </trkpt>
      <trkpt lat="44.41272" lon="4.55867">
        <ele>276</ele>
        <time>29-03-2015T09:30:48Z</time>
      </trkpt>
      <trkpt lat="44.41268" lon="4.55863">
        <ele>278</ele>
        <time>29-03-2015T09:30:50Z</time>
      </trkpt>
      <trkpt lat="44.41265" lon="4.55856">
        <ele>278</ele>
        <time>29-03-2015T09:30:53Z</time>
      </trkpt>
      <trkpt lat="44.41262" lon="4.55851">
        <ele>278</ele>
        <time>29-03-2015T09:30:55Z</time>
      </trkpt>
      <trkpt lat="44.41258" lon="4.55846">
        <ele>278</ele>
        <time>29-03-2015T09:30:57Z</time>
      </trkpt>
      <trkpt lat="44.41255" lon="4.55841">
        <ele>279</ele>
        <time>29-03-2015T09:30:59Z</time>
      </trkpt>
      <trkpt lat="44.41252" lon="4.55834">
        <ele>279</ele>
        <time>29-03-2015T09:31:01Z</time>
      </trkpt>
      <trkpt lat="44.41252" lon="4.55825">
        <ele>279</ele>
        <time>29-03-2015T09:31:03Z</time>
      </trkpt>
      <trkpt lat="44.41254" lon="4.55818">
        <ele>276</ele>
        <time>29-03-2015T09:31:06Z</time>
      </trkpt>
      <trkpt lat="44.41256" lon="4.55812">
        <ele>276</ele>
        <time>29-03-2015T09:31:08Z</time>
      </trkpt>
      <trkpt lat="44.41257" lon="4.55814">
        <ele>273</ele>
        <time>29-03-2015T09:31:13Z</time>
      </trkpt>
      <trkpt lat="44.41258" lon="4.55808">
        <ele>273</ele>
        <time>29-03-2015T09:31:18Z</time>
      </trkpt>
      <trkpt lat="44.41258" lon="4.55801">
        <ele>272</ele>
        <time>29-03-2015T09:31:23Z</time>
      </trkpt>
      <trkpt lat="44.41259" lon="4.55792">
        <ele>271</ele>
        <time>29-03-2015T09:31:26Z</time>
      </trkpt>
      <trkpt lat="44.41258" lon="4.55786">
        <ele>271</ele>
        <time>29-03-2015T09:31:28Z</time>
      </trkpt>
      <trkpt lat="44.41257" lon="4.55778">
        <ele>271</ele>
        <time>29-03-2015T09:31:30Z</time>
      </trkpt>
      <trkpt lat="44.41256" lon="4.55771">
        <ele>271</ele>
        <time>29-03-2015T09:31:32Z</time>
      </trkpt>
      <trkpt lat="44.41254" lon="4.55763">
        <ele>271</ele>
        <time>29-03-2015T09:31:34Z</time>
      </trkpt>
      <trkpt lat="44.41254" lon="4.55755">
        <ele>271</ele>
        <time>29-03-2015T09:31:36Z</time>
      </trkpt>
      <trkpt lat="44.41252" lon="4.55747">
        <ele>271</ele>
        <time>29-03-2015T09:31:38Z</time>
      </trkpt>
      <trkpt lat="44.41248" lon="4.55744">
        <ele>272</ele>
        <time>29-03-2015T09:31:40Z</time>
      </trkpt>
      <trkpt lat="44.41245" lon="4.55737">
        <ele>272</ele>
        <time>29-03-2015T09:31:43Z</time>
      </trkpt>
      <trkpt lat="44.41243" lon="4.5573">
        <ele>272</ele>
        <time>29-03-2015T09:31:46Z</time>
      </trkpt>
      <trkpt lat="44.41241" lon="4.55725">
        <ele>272</ele>
        <time>29-03-2015T09:31:48Z</time>
      </trkpt>
      <trkpt lat="44.41238" lon="4.55716">
        <ele>272</ele>
        <time>29-03-2015T09:31:50Z</time>
      </trkpt>
      <trkpt lat="44.41234" lon="4.55707">
        <ele>272</ele>
        <time>29-03-2015T09:31:52Z</time>
      </trkpt>
      <trkpt lat="44.41229" lon="4.55699">
        <ele>272</ele>
        <time>29-03-2015T09:31:54Z</time>
      </trkpt>
      <trkpt lat="44.41226" lon="4.55694">
        <ele>272</ele>
        <time>29-03-2015T09:31:55Z</time>
      </trkpt>
      <trkpt lat="44.41223" lon="4.55686">
        <ele>272</ele>
        <time>29-03-2015T09:31:57Z</time>
      </trkpt>
      <trkpt lat="44.4122" lon="4.55679">
        <ele>272</ele>
        <time>29-03-2015T09:31:59Z</time>
      </trkpt>
      <trkpt lat="44.41217" lon="4.5567">
        <ele>272</ele>
        <time>29-03-2015T09:32:02Z</time>
      </trkpt>
      <trkpt lat="44.41217" lon="4.55662">
        <ele>272</ele>
        <time>29-03-2015T09:32:04Z</time>
      </trkpt>
      <trkpt lat="44.41215" lon="4.55655">
        <ele>272</ele>
        <time>29-03-2015T09:32:06Z</time>
      </trkpt>
      <trkpt lat="44.41213" lon="4.55647">
        <ele>272</ele>
        <time>29-03-2015T09:32:08Z</time>
      </trkpt>
      <trkpt lat="44.41211" lon="4.55638">
        <ele>273</ele>
        <time>29-03-2015T09:32:10Z</time>
      </trkpt>
      <trkpt lat="44.41209" lon="4.55632">
        <ele>273</ele>
        <time>29-03-2015T09:32:11Z</time>
      </trkpt>
      <trkpt lat="44.41204" lon="4.55624">
        <ele>273</ele>
        <time>29-03-2015T09:32:13Z</time>
      </trkpt>
      <trkpt lat="44.41199" lon="4.55618">
        <ele>273</ele>
        <time>29-03-2015T09:32:15Z</time>
      </trkpt>
      <trkpt lat="44.41194" lon="4.55609">
        <ele>273</ele>
        <time>29-03-2015T09:32:17Z</time>
      </trkpt>
      <trkpt lat="44.41189" lon="4.55601">
        <ele>273</ele>
        <time>29-03-2015T09:32:19Z</time>
      </trkpt>
      <trkpt lat="44.41189" lon="4.55594">
        <ele>273</ele>
        <time>29-03-2015T09:32:21Z</time>
      </trkpt>
      <trkpt lat="44.41193" lon="4.55584">
        <ele>273</ele>
        <time>29-03-2015T09:32:23Z</time>
      </trkpt>
      <trkpt lat="44.41194" lon="4.55573">
        <ele>273</ele>
        <time>29-03-2015T09:32:25Z</time>
      </trkpt>
      <trkpt lat="44.41192" lon="4.55562">
        <ele>273</ele>
        <time>29-03-2015T09:32:27Z</time>
      </trkpt>
      <trkpt lat="44.41189" lon="4.55554">
        <ele>274</ele>
        <time>29-03-2015T09:32:29Z</time>
      </trkpt>
      <trkpt lat="44.41187" lon="4.55544">
        <ele>274</ele>
        <time>29-03-2015T09:32:31Z</time>
      </trkpt>
      <trkpt lat="44.41182" lon="4.55539">
        <ele>274</ele>
        <time>29-03-2015T09:32:33Z</time>
      </trkpt>
      <trkpt lat="44.41177" lon="4.55539">
        <ele>275</ele>
        <time>29-03-2015T09:32:35Z</time>
      </trkpt>
      <trkpt lat="44.41172" lon="4.55535">
        <ele>275</ele>
        <time>29-03-2015T09:32:37Z</time>
      </trkpt>
      <trkpt lat="44.41168" lon="4.55529">
        <ele>278</ele>
        <time>29-03-2015T09:32:39Z</time>
      </trkpt>
      <trkpt lat="44.41174" lon="4.55529">
        <ele>278</ele>
        <time>29-03-2015T09:32:42Z</time>
      </trkpt>
      <trkpt lat="44.4118" lon="4.55533">
        <ele>278</ele>
        <time>29-03-2015T09:32:44Z</time>
      </trkpt>
      <trkpt lat="44.41186" lon="4.55537">
        <ele>278</ele>
        <time>29-03-2015T09:32:46Z</time>
      </trkpt>
      <trkpt lat="44.41194" lon="4.55539">
        <ele>278</ele>
        <time>29-03-2015T09:32:48Z</time>
      </trkpt>
      <trkpt lat="44.41202" lon="4.5554">
        <ele>278</ele>
        <time>29-03-2015T09:32:50Z</time>
      </trkpt>
      <trkpt lat="44.4121" lon="4.55542">
        <ele>278</ele>
        <time>29-03-2015T09:32:52Z</time>
      </trkpt>
      <trkpt lat="44.41216" lon="4.55542">
        <ele>278</ele>
        <time>29-03-2015T09:32:54Z</time>
      </trkpt>
      <trkpt lat="44.41221" lon="4.55542">
        <ele>278</ele>
        <time>29-03-2015T09:32:57Z</time>
      </trkpt>
      <trkpt lat="44.41228" lon="4.55543">
        <ele>278</ele>
        <time>29-03-2015T09:32:59Z</time>
      </trkpt>
      <trkpt lat="44.41237" lon="4.55544">
        <ele>278</ele>
        <time>29-03-2015T09:33:01Z</time>
      </trkpt>
      <trkpt lat="44.41242" lon="4.55545">
        <ele>278</ele>
        <time>29-03-2015T09:33:02Z</time>
      </trkpt>
      <trkpt lat="44.41247" lon="4.55545">
        <ele>278</ele>
        <time>29-03-2015T09:33:03Z</time>
      </trkpt>
      <trkpt lat="44.41252" lon="4.55547">
        <ele>278</ele>
        <time>29-03-2015T09:33:04Z</time>
      </trkpt>
      <trkpt lat="44.41256" lon="4.55545">
        <ele>278</ele>
        <time>29-03-2015T09:33:05Z</time>
      </trkpt>
      <trkpt lat="44.41263" lon="4.55546">
        <ele>278</ele>
        <time>29-03-2015T09:33:07Z</time>
      </trkpt>
      <trkpt lat="44.4127" lon="4.55546">
        <ele>278</ele>
        <time>29-03-2015T09:33:09Z</time>
      </trkpt>
      <trkpt lat="44.41278" lon="4.55541">
        <ele>278</ele>
        <time>29-03-2015T09:33:11Z</time>
      </trkpt>
      <trkpt lat="44.4128" lon="4.55532">
        <ele>278</ele>
        <time>29-03-2015T09:33:13Z</time>
      </trkpt>
      <trkpt lat="44.41283" lon="4.55521">
        <ele>278</ele>
        <time>29-03-2015T09:33:15Z</time>
      </trkpt>
      <trkpt lat="44.41285" lon="4.55512">
        <ele>278</ele>
        <time>29-03-2015T09:33:17Z</time>
      </trkpt>
      <trkpt lat="44.41287" lon="4.55504">
        <ele>279</ele>
        <time>29-03-2015T09:33:19Z</time>
      </trkpt>
      <trkpt lat="44.41289" lon="4.55494">
        <ele>279</ele>
        <time>29-03-2015T09:33:21Z</time>
      </trkpt>
      <trkpt lat="44.41289" lon="4.55485">
        <ele>279</ele>
        <time>29-03-2015T09:33:23Z</time>
      </trkpt>
      <trkpt lat="44.4129" lon="4.55474">
        <ele>279</ele>
        <time>29-03-2015T09:33:25Z</time>
      </trkpt>
      <trkpt lat="44.41291" lon="4.55464">
        <ele>279</ele>
        <time>29-03-2015T09:33:27Z</time>
      </trkpt>
      <trkpt lat="44.41292" lon="4.55456">
        <ele>280</ele>
        <time>29-03-2015T09:33:29Z</time>
      </trkpt>
      <trkpt lat="44.41292" lon="4.55448">
        <ele>280</ele>
        <time>29-03-2015T09:33:31Z</time>
      </trkpt>
      <trkpt lat="44.41292" lon="4.55439">
        <ele>280</ele>
        <time>29-03-2015T09:33:33Z</time>
      </trkpt>
      <trkpt lat="44.4129" lon="4.55431">
        <ele>280</ele>
        <time>29-03-2015T09:33:35Z</time>
      </trkpt>
      <trkpt lat="44.4129" lon="4.55424">
        <ele>280</ele>
        <time>29-03-2015T09:33:37Z</time>
      </trkpt>
      <trkpt lat="44.4129" lon="4.55416">
        <ele>282</ele>
        <time>29-03-2015T09:33:39Z</time>
      </trkpt>
      <trkpt lat="44.41289" lon="4.55407">
        <ele>282</ele>
        <time>29-03-2015T09:33:42Z</time>
      </trkpt>
      <trkpt lat="44.41289" lon="4.55401">
        <ele>283</ele>
        <time>29-03-2015T09:33:44Z</time>
      </trkpt>
      <trkpt lat="44.4129" lon="4.55394">
        <ele>283</ele>
        <time>29-03-2015T09:33:46Z</time>
      </trkpt>
      <trkpt lat="44.4129" lon="4.55385">
        <ele>283</ele>
        <time>29-03-2015T09:33:49Z</time>
      </trkpt>
      <trkpt lat="44.4129" lon="4.55379">
        <ele>283</ele>
        <time>29-03-2015T09:33:51Z</time>
      </trkpt>
      <trkpt lat="44.41293" lon="4.55371">
        <ele>283</ele>
        <time>29-03-2015T09:33:53Z</time>
      </trkpt>
      <trkpt lat="44.41293" lon="4.55361">
        <ele>283</ele>
        <time>29-03-2015T09:33:56Z</time>
      </trkpt>
      <trkpt lat="44.41294" lon="4.55355">
        <ele>283</ele>
        <time>29-03-2015T09:33:58Z</time>
      </trkpt>
      <trkpt lat="44.41295" lon="4.55348">
        <ele>285</ele>
        <time>29-03-2015T09:34:00Z</time>
      </trkpt>
      <trkpt lat="44.41297" lon="4.55343">
        <ele>285</ele>
        <time>29-03-2015T09:34:02Z</time>
      </trkpt>
      <trkpt lat="44.41297" lon="4.55333">
        <ele>285</ele>
        <time>29-03-2015T09:34:05Z</time>
      </trkpt>
      <trkpt lat="44.41298" lon="4.55324">
        <ele>285</ele>
        <time>29-03-2015T09:34:08Z</time>
      </trkpt>
      <trkpt lat="44.41298" lon="4.55318">
        <ele>287</ele>
        <time>29-03-2015T09:34:10Z</time>
      </trkpt>
      <trkpt lat="44.41297" lon="4.55311">
        <ele>287</ele>
        <time>29-03-2015T09:34:12Z</time>
      </trkpt>
      <trkpt lat="44.41298" lon="4.55302">
        <ele>287</ele>
        <time>29-03-2015T09:34:14Z</time>
      </trkpt>
      <trkpt lat="44.41298" lon="4.55295">
        <ele>287</ele>
        <time>29-03-2015T09:34:16Z</time>
      </trkpt>
      <trkpt lat="44.41298" lon="4.55287">
        <ele>287</ele>
        <time>29-03-2015T09:34:18Z</time>
      </trkpt>
      <trkpt lat="44.41298" lon="4.55281">
        <ele>288</ele>
        <time>29-03-2015T09:34:20Z</time>
      </trkpt>
      <trkpt lat="44.41298" lon="4.55274">
        <ele>288</ele>
        <time>29-03-2015T09:34:22Z</time>
      </trkpt>
      <trkpt lat="44.41299" lon="4.55266">
        <ele>288</ele>
        <time>29-03-2015T09:34:24Z</time>
      </trkpt>
      <trkpt lat="44.413" lon="4.5526">
        <ele>288</ele>
        <time>29-03-2015T09:34:26Z</time>
      </trkpt>
      <trkpt lat="44.41301" lon="4.55253">
        <ele>288</ele>
        <time>29-03-2015T09:34:28Z</time>
      </trkpt>
      <trkpt lat="44.41303" lon="4.55246">
        <ele>289</ele>
        <time>29-03-2015T09:34:30Z</time>
      </trkpt>
      <trkpt lat="44.41303" lon="4.5524">
        <ele>289</ele>
        <time>29-03-2015T09:34:32Z</time>
      </trkpt>
      <trkpt lat="44.41305" lon="4.5523">
        <ele>290</ele>
        <time>29-03-2015T09:34:35Z</time>
      </trkpt>
      <trkpt lat="44.41305" lon="4.55223">
        <ele>290</ele>
        <time>29-03-2015T09:34:37Z</time>
      </trkpt>
      <trkpt lat="44.41304" lon="4.55216">
        <ele>291</ele>
        <time>29-03-2015T09:34:39Z</time>
      </trkpt>
      <trkpt lat="44.41304" lon="4.55209">
        <ele>291</ele>
        <time>29-03-2015T09:34:41Z</time>
      </trkpt>
      <trkpt lat="44.41304" lon="4.552">
        <ele>291</ele>
        <time>29-03-2015T09:34:44Z</time>
      </trkpt>
      <trkpt lat="44.41304" lon="4.55194">
        <ele>291</ele>
        <time>29-03-2015T09:34:47Z</time>
      </trkpt>
      <trkpt lat="44.41306" lon="4.55187">
        <ele>292</ele>
        <time>29-03-2015T09:34:49Z</time>
      </trkpt>
      <trkpt lat="44.41307" lon="4.5518">
        <ele>292</ele>
        <time>29-03-2015T09:34:52Z</time>
      </trkpt>
      <trkpt lat="44.41305" lon="4.55173">
        <ele>292</ele>
        <time>29-03-2015T09:34:55Z</time>
      </trkpt>
      <trkpt lat="44.41305" lon="4.55164">
        <ele>292</ele>
        <time>29-03-2015T09:34:58Z</time>
      </trkpt>
      <trkpt lat="44.41306" lon="4.55155">
        <ele>294</ele>
        <time>29-03-2015T09:35:01Z</time>
      </trkpt>
      <trkpt lat="44.41307" lon="4.55147">
        <ele>297</ele>
        <time>29-03-2015T09:35:04Z</time>
      </trkpt>
      <trkpt lat="44.41306" lon="4.55141">
        <ele>297</ele>
        <time>29-03-2015T09:35:08Z</time>
      </trkpt>
      <trkpt lat="44.41302" lon="4.55136">
        <ele>297</ele>
        <time>29-03-2015T09:35:12Z</time>
      </trkpt>
      <trkpt lat="44.41299" lon="4.5513">
        <ele>298</ele>
        <time>29-03-2015T09:35:16Z</time>
      </trkpt>
      <trkpt lat="44.41293" lon="4.5513">
        <ele>298</ele>
        <time>29-03-2015T09:35:21Z</time>
      </trkpt>
      <trkpt lat="44.4129" lon="4.55137">
        <ele>300</ele>
        <time>29-03-2015T09:35:25Z</time>
      </trkpt>
      <trkpt lat="44.41288" lon="4.55143">
        <ele>300</ele>
        <time>29-03-2015T09:35:28Z</time>
      </trkpt>
      <trkpt lat="44.41287" lon="4.5515">
        <ele>301</ele>
        <time>29-03-2015T09:35:31Z</time>
      </trkpt>
      <trkpt lat="44.41284" lon="4.55156">
        <ele>302</ele>
        <time>29-03-2015T09:35:35Z</time>
      </trkpt>
      <trkpt lat="44.41281" lon="4.55162">
        <ele>303</ele>
        <time>29-03-2015T09:35:39Z</time>
      </trkpt>
      <trkpt lat="44.41279" lon="4.55168">
        <ele>303</ele>
        <time>29-03-2015T09:35:42Z</time>
      </trkpt>
      <trkpt lat="44.41277" lon="4.55175">
        <ele>303</ele>
        <time>29-03-2015T09:35:45Z</time>
      </trkpt>
      <trkpt lat="44.41274" lon="4.55182">
        <ele>303</ele>
        <time>29-03-2015T09:35:48Z</time>
      </trkpt>
      <trkpt lat="44.4127" lon="4.55186">
        <ele>304</ele>
        <time>29-03-2015T09:35:52Z</time>
      </trkpt>
      <trkpt lat="44.41266" lon="4.55189">
        <ele>304</ele>
        <time>29-03-2015T09:35:56Z</time>
      </trkpt>
      <trkpt lat="44.4126" lon="4.55191">
        <ele>306</ele>
        <time>29-03-2015T09:36:00Z</time>
      </trkpt>
      <trkpt lat="44.41254" lon="4.55191">
        <ele>306</ele>
        <time>29-03-2015T09:36:03Z</time>
      </trkpt>
      <trkpt lat="44.41249" lon="4.55187">
        <ele>307</ele>
        <time>29-03-2015T09:36:07Z</time>
      </trkpt>
      <trkpt lat="44.41245" lon="4.55182">
        <ele>308</ele>
        <time>29-03-2015T09:36:10Z</time>
      </trkpt>
      <trkpt lat="44.41245" lon="4.55173">
        <ele>308</ele>
        <time>29-03-2015T09:36:13Z</time>
      </trkpt>
      <trkpt lat="44.41244" lon="4.55167">
        <ele>308</ele>
        <time>29-03-2015T09:36:15Z</time>
      </trkpt>
      <trkpt lat="44.41243" lon="4.55159">
        <ele>308</ele>
        <time>29-03-2015T09:36:18Z</time>
      </trkpt>
      <trkpt lat="44.41243" lon="4.5515">
        <ele>308</ele>
        <time>29-03-2015T09:36:20Z</time>
      </trkpt>
      <trkpt lat="44.41244" lon="4.55142">
        <ele>308</ele>
        <time>29-03-2015T09:36:22Z</time>
      </trkpt>
      <trkpt lat="44.41245" lon="4.55133">
        <ele>309</ele>
        <time>29-03-2015T09:36:24Z</time>
      </trkpt>
      <trkpt lat="44.41245" lon="4.55126">
        <ele>309</ele>
        <time>29-03-2015T09:36:26Z</time>
      </trkpt>
      <trkpt lat="44.41244" lon="4.55117">
        <ele>309</ele>
        <time>29-03-2015T09:36:28Z</time>
      </trkpt>
      <trkpt lat="44.41243" lon="4.55108">
        <ele>311</ele>
        <time>29-03-2015T09:36:30Z</time>
      </trkpt>
      <trkpt lat="44.41242" lon="4.551">
        <ele>311</ele>
        <time>29-03-2015T09:36:32Z</time>
      </trkpt>
      <trkpt lat="44.41242" lon="4.55093">
        <ele>311</ele>
        <time>29-03-2015T09:36:34Z</time>
      </trkpt>
      <trkpt lat="44.41242" lon="4.55084">
        <ele>311</ele>
        <time>29-03-2015T09:36:36Z</time>
      </trkpt>
      <trkpt lat="44.41243" lon="4.55075">
        <ele>311</ele>
        <time>29-03-2015T09:36:38Z</time>
      </trkpt>
      <trkpt lat="44.41244" lon="4.55064">
        <ele>311</ele>
        <time>29-03-2015T09:36:40Z</time>
      </trkpt>
      <trkpt lat="44.41245" lon="4.55051">
        <ele>311</ele>
        <time>29-03-2015T09:36:42Z</time>
      </trkpt>
      <trkpt lat="44.41245" lon="4.55039">
        <ele>311</ele>
        <time>29-03-2015T09:36:44Z</time>
      </trkpt>
      <trkpt lat="44.41245" lon="4.55027">
        <ele>311</ele>
        <time>29-03-2015T09:36:46Z</time>
      </trkpt>
      <trkpt lat="44.41246" lon="4.55017">
        <ele>311</ele>
        <time>29-03-2015T09:36:48Z</time>
      </trkpt>
      <trkpt lat="44.41246" lon="4.55005">
        <ele>311</ele>
        <time>29-03-2015T09:36:50Z</time>
      </trkpt>
      <trkpt lat="44.41245" lon="4.54995">
        <ele>311</ele>
        <time>29-03-2015T09:36:52Z</time>
      </trkpt>
      <trkpt lat="44.41247" lon="4.54985">
        <ele>311</ele>
        <time>29-03-2015T09:36:54Z</time>
      </trkpt>
      <trkpt lat="44.4125" lon="4.54974">
        <ele>311</ele>
        <time>29-03-2015T09:36:56Z</time>
      </trkpt>
      <trkpt lat="44.41253" lon="4.54964">
        <ele>311</ele>
        <time>29-03-2015T09:36:58Z</time>
      </trkpt>
      <trkpt lat="44.41255" lon="4.54954">
        <ele>313</ele>
        <time>29-03-2015T09:37:00Z</time>
      </trkpt>
      <trkpt lat="44.41257" lon="4.54943">
        <ele>313</ele>
        <time>29-03-2015T09:37:02Z</time>
      </trkpt>
      <trkpt lat="44.41258" lon="4.54937">
        <ele>313</ele>
        <time>29-03-2015T09:37:03Z</time>
      </trkpt>
      <trkpt lat="44.4126" lon="4.54926">
        <ele>313</ele>
        <time>29-03-2015T09:37:05Z</time>
      </trkpt>
      <trkpt lat="44.41261" lon="4.5492">
        <ele>313</ele>
        <time>29-03-2015T09:37:06Z</time>
      </trkpt>
      <trkpt lat="44.41262" lon="4.54913">
        <ele>313</ele>
        <time>29-03-2015T09:37:07Z</time>
      </trkpt>
      <trkpt lat="44.41264" lon="4.54907">
        <ele>313</ele>
        <time>29-03-2015T09:37:08Z</time>
      </trkpt>
      <trkpt lat="44.41265" lon="4.549">
        <ele>313</ele>
        <time>29-03-2015T09:37:09Z</time>
      </trkpt>
      <trkpt lat="44.41266" lon="4.54894">
        <ele>313</ele>
        <time>29-03-2015T09:37:10Z</time>
      </trkpt>
      <trkpt lat="44.41267" lon="4.54881">
        <ele>313</ele>
        <time>29-03-2015T09:37:12Z</time>
      </trkpt>
      <trkpt lat="44.41268" lon="4.54875">
        <ele>313</ele>
        <time>29-03-2015T09:37:13Z</time>
      </trkpt>
      <trkpt lat="44.41271" lon="4.54862">
        <ele>313</ele>
        <time>29-03-2015T09:37:15Z</time>
      </trkpt>
      <trkpt lat="44.41273" lon="4.54856">
        <ele>313</ele>
        <time>29-03-2015T09:37:16Z</time>
      </trkpt>
      <trkpt lat="44.41274" lon="4.54849">
        <ele>313</ele>
        <time>29-03-2015T09:37:17Z</time>
      </trkpt>
      <trkpt lat="44.41277" lon="4.54837">
        <ele>313</ele>
        <time>29-03-2015T09:37:19Z</time>
      </trkpt>
      <trkpt lat="44.41279" lon="4.5483">
        <ele>313</ele>
        <time>29-03-2015T09:37:20Z</time>
      </trkpt>
      <trkpt lat="44.41282" lon="4.54819">
        <ele>313</ele>
        <time>29-03-2015T09:37:22Z</time>
      </trkpt>
      <trkpt lat="44.41283" lon="4.54812">
        <ele>313</ele>
        <time>29-03-2015T09:37:23Z</time>
      </trkpt>
      <trkpt lat="44.41284" lon="4.54802">
        <ele>313</ele>
        <time>29-03-2015T09:37:25Z</time>
      </trkpt>
      <trkpt lat="44.41286" lon="4.5479">
        <ele>313</ele>
        <time>29-03-2015T09:37:27Z</time>
      </trkpt>
      <trkpt lat="44.41288" lon="4.54779">
        <ele>314</ele>
        <time>29-03-2015T09:37:29Z</time>
      </trkpt>
      <trkpt lat="44.4129" lon="4.54768">
        <ele>314</ele>
        <time>29-03-2015T09:37:31Z</time>
      </trkpt>
      <trkpt lat="44.41292" lon="4.54758">
        <ele>314</ele>
        <time>29-03-2015T09:37:33Z</time>
      </trkpt>
      <trkpt lat="44.41293" lon="4.54748">
        <ele>315</ele>
        <time>29-03-2015T09:37:35Z</time>
      </trkpt>
      <trkpt lat="44.41293" lon="4.5474">
        <ele>315</ele>
        <time>29-03-2015T09:37:37Z</time>
      </trkpt>
      <trkpt lat="44.41293" lon="4.54731">
        <ele>317</ele>
        <time>29-03-2015T09:37:39Z</time>
      </trkpt>
      <trkpt lat="44.41291" lon="4.54723">
        <ele>317</ele>
        <time>29-03-2015T09:37:41Z</time>
      </trkpt>
      <trkpt lat="44.41292" lon="4.54715">
        <ele>317</ele>
        <time>29-03-2015T09:37:43Z</time>
      </trkpt>
      <trkpt lat="44.4129" lon="4.54708">
        <ele>319</ele>
        <time>29-03-2015T09:37:45Z</time>
      </trkpt>
      <trkpt lat="44.4129" lon="4.54702">
        <ele>319</ele>
        <time>29-03-2015T09:37:47Z</time>
      </trkpt>
      <trkpt lat="44.41291" lon="4.54694">
        <ele>319</ele>
        <time>29-03-2015T09:37:49Z</time>
      </trkpt>
      <trkpt lat="44.41293" lon="4.54687">
        <ele>319</ele>
        <time>29-03-2015T09:37:51Z</time>
      </trkpt>
      <trkpt lat="44.41293" lon="4.54679">
        <ele>319</ele>
        <time>29-03-2015T09:37:53Z</time>
      </trkpt>
      <trkpt lat="44.41297" lon="4.54673">
        <ele>319</ele>
        <time>29-03-2015T09:37:55Z</time>
      </trkpt>
      <trkpt lat="44.41301" lon="4.54668">
        <ele>319</ele>
        <time>29-03-2015T09:37:57Z</time>
      </trkpt>
      <trkpt lat="44.41305" lon="4.54664">
        <ele>321</ele>
        <time>29-03-2015T09:37:59Z</time>
      </trkpt>
      <trkpt lat="44.41308" lon="4.54657">
        <ele>321</ele>
        <time>29-03-2015T09:38:01Z</time>
      </trkpt>
      <trkpt lat="44.41311" lon="4.5465">
        <ele>321</ele>
        <time>29-03-2015T09:38:03Z</time>
      </trkpt>
      <trkpt lat="44.41315" lon="4.54644">
        <ele>321</ele>
        <time>29-03-2015T09:38:05Z</time>
      </trkpt>
      <trkpt lat="44.41319" lon="4.54638">
        <ele>321</ele>
        <time>29-03-2015T09:38:07Z</time>
      </trkpt>
      <trkpt lat="44.41323" lon="4.54632">
        <ele>321</ele>
        <time>29-03-2015T09:38:09Z</time>
      </trkpt>
      <trkpt lat="44.41328" lon="4.54625">
        <ele>321</ele>
        <time>29-03-2015T09:38:11Z</time>
      </trkpt>
      <trkpt lat="44.41332" lon="4.54618">
        <ele>321</ele>
        <time>29-03-2015T09:38:13Z</time>
      </trkpt>
      <trkpt lat="44.41338" lon="4.5461">
        <ele>321</ele>
        <time>29-03-2015T09:38:15Z</time>
      </trkpt>
      <trkpt lat="44.41343" lon="4.54602">
        <ele>321</ele>
        <time>29-03-2015T09:38:17Z</time>
      </trkpt>
      <trkpt lat="44.41349" lon="4.54594">
        <ele>319</ele>
        <time>29-03-2015T09:38:19Z</time>
      </trkpt>
      <trkpt lat="44.41355" lon="4.54586">
        <ele>319</ele>
        <time>29-03-2015T09:38:21Z</time>
      </trkpt>
      <trkpt lat="44.41358" lon="4.5458">
        <ele>319</ele>
        <time>29-03-2015T09:38:23Z</time>
      </trkpt>
      <trkpt lat="44.41365" lon="4.54572">
        <ele>319</ele>
        <time>29-03-2015T09:38:25Z</time>
      </trkpt>
      <trkpt lat="44.41369" lon="4.54564">
        <ele>319</ele>
        <time>29-03-2015T09:38:27Z</time>
      </trkpt>
      <trkpt lat="44.41373" lon="4.54554">
        <ele>319</ele>
        <time>29-03-2015T09:38:29Z</time>
      </trkpt>
      <trkpt lat="44.41374" lon="4.54548">
        <ele>319</ele>
        <time>29-03-2015T09:38:30Z</time>
      </trkpt>
      <trkpt lat="44.41372" lon="4.54538">
        <ele>319</ele>
        <time>29-03-2015T09:38:32Z</time>
      </trkpt>
      <trkpt lat="44.41368" lon="4.5453">
        <ele>319</ele>
        <time>29-03-2015T09:38:34Z</time>
      </trkpt>
      <trkpt lat="44.41361" lon="4.54521">
        <ele>319</ele>
        <time>29-03-2015T09:38:36Z</time>
      </trkpt>
      <trkpt lat="44.41356" lon="4.54512">
        <ele>319</ele>
        <time>29-03-2015T09:38:38Z</time>
      </trkpt>
      <trkpt lat="44.41354" lon="4.54507">
        <ele>322</ele>
        <time>29-03-2015T09:38:39Z</time>
      </trkpt>
      <trkpt lat="44.41352" lon="4.54496">
        <ele>322</ele>
        <time>29-03-2015T09:38:41Z</time>
      </trkpt>
      <trkpt lat="44.41351" lon="4.54486">
        <ele>322</ele>
        <time>29-03-2015T09:38:43Z</time>
      </trkpt>
      <trkpt lat="44.4135" lon="4.54477">
        <ele>322</ele>
        <time>29-03-2015T09:38:45Z</time>
      </trkpt>
      <trkpt lat="44.4135" lon="4.54469">
        <ele>322</ele>
        <time>29-03-2015T09:38:47Z</time>
      </trkpt>
      <trkpt lat="44.4135" lon="4.54457">
        <ele>323</ele>
        <time>29-03-2015T09:38:49Z</time>
      </trkpt>
      <trkpt lat="44.4135" lon="4.54447">
        <ele>323</ele>
        <time>29-03-2015T09:38:51Z</time>
      </trkpt>
      <trkpt lat="44.41349" lon="4.54438">
        <ele>323</ele>
        <time>29-03-2015T09:38:53Z</time>
      </trkpt>
      <trkpt lat="44.41347" lon="4.54429">
        <ele>323</ele>
        <time>29-03-2015T09:38:55Z</time>
      </trkpt>
      <trkpt lat="44.41349" lon="4.5442">
        <ele>323</ele>
        <time>29-03-2015T09:38:57Z</time>
      </trkpt>
      <trkpt lat="44.41348" lon="4.54411">
        <ele>324</ele>
        <time>29-03-2015T09:38:59Z</time>
      </trkpt>
      <trkpt lat="44.41348" lon="4.54401">
        <ele>324</ele>
        <time>29-03-2015T09:39:01Z</time>
      </trkpt>
      <trkpt lat="44.41351" lon="4.54392">
        <ele>324</ele>
        <time>29-03-2015T09:39:03Z</time>
      </trkpt>
      <trkpt lat="44.41356" lon="4.54386">
        <ele>324</ele>
        <time>29-03-2015T09:39:05Z</time>
      </trkpt>
      <trkpt lat="44.41359" lon="4.54368">
        <ele>326</ele>
        <time>29-03-2015T09:39:09Z</time>
      </trkpt>
      <trkpt lat="44.41358" lon="4.54356">
        <ele>326</ele>
        <time>29-03-2015T09:39:11Z</time>
      </trkpt>
      <trkpt lat="44.41357" lon="4.54345">
        <ele>326</ele>
        <time>29-03-2015T09:39:13Z</time>
      </trkpt>
      <trkpt lat="44.41356" lon="4.54336">
        <ele>325</ele>
        <time>29-03-2015T09:39:15Z</time>
      </trkpt>
      <trkpt lat="44.41354" lon="4.54329">
        <ele>325</ele>
        <time>29-03-2015T09:39:16Z</time>
      </trkpt>
      <trkpt lat="44.41354" lon="4.54319">
        <ele>325</ele>
        <time>29-03-2015T09:39:18Z</time>
      </trkpt>
      <trkpt lat="44.41354" lon="4.54308">
        <ele>325</ele>
        <time>29-03-2015T09:39:20Z</time>
      </trkpt>
      <trkpt lat="44.41355" lon="4.54297">
        <ele>325</ele>
        <time>29-03-2015T09:39:22Z</time>
      </trkpt>
      <trkpt lat="44.41359" lon="4.54288">
        <ele>326</ele>
        <time>29-03-2015T09:39:24Z</time>
      </trkpt>
      <trkpt lat="44.41364" lon="4.54278">
        <ele>326</ele>
        <time>29-03-2015T09:39:26Z</time>
      </trkpt>
      <trkpt lat="44.41367" lon="4.54273">
        <ele>326</ele>
        <time>29-03-2015T09:39:27Z</time>
      </trkpt>
      <trkpt lat="44.41369" lon="4.54262">
        <ele>326</ele>
        <time>29-03-2015T09:39:29Z</time>
      </trkpt>
      <trkpt lat="44.41368" lon="4.54253">
        <ele>326</ele>
        <time>29-03-2015T09:39:31Z</time>
      </trkpt>
      <trkpt lat="44.41363" lon="4.54245">
        <ele>326</ele>
        <time>29-03-2015T09:39:33Z</time>
      </trkpt>
      <trkpt lat="44.41358" lon="4.54236">
        <ele>325</ele>
        <time>29-03-2015T09:39:35Z</time>
      </trkpt>
      <trkpt lat="44.41354" lon="4.54231">
        <ele>325</ele>
        <time>29-03-2015T09:39:36Z</time>
      </trkpt>
      <trkpt lat="44.41349" lon="4.54224">
        <ele>325</ele>
        <time>29-03-2015T09:39:38Z</time>
      </trkpt>
      <trkpt lat="44.41346" lon="4.54219">
        <ele>325</ele>
        <time>29-03-2015T09:39:39Z</time>
      </trkpt>
      <trkpt lat="44.41339" lon="4.5421">
        <ele>325</ele>
        <time>29-03-2015T09:39:41Z</time>
      </trkpt>
      <trkpt lat="44.41334" lon="4.54203">
        <ele>325</ele>
        <time>29-03-2015T09:39:43Z</time>
      </trkpt>
      <trkpt lat="44.41327" lon="4.54199">
        <ele>326</ele>
        <time>29-03-2015T09:39:45Z</time>
      </trkpt>
      <trkpt lat="44.41323" lon="4.54194">
        <ele>326</ele>
        <time>29-03-2015T09:39:46Z</time>
      </trkpt>
      <trkpt lat="44.41317" lon="4.54189">
        <ele>326</ele>
        <time>29-03-2015T09:39:48Z</time>
      </trkpt>
      <trkpt lat="44.41311" lon="4.54186">
        <ele>327</ele>
        <time>29-03-2015T09:39:50Z</time>
      </trkpt>
      <trkpt lat="44.41305" lon="4.54183">
        <ele>327</ele>
        <time>29-03-2015T09:39:53Z</time>
      </trkpt>
      <trkpt lat="44.413" lon="4.54176">
        <ele>327</ele>
        <time>29-03-2015T09:39:55Z</time>
      </trkpt>
      <trkpt lat="44.41296" lon="4.54172">
        <ele>327</ele>
        <time>29-03-2015T09:39:57Z</time>
      </trkpt>
      <trkpt lat="44.41292" lon="4.54167">
        <ele>329</ele>
        <time>29-03-2015T09:39:59Z</time>
      </trkpt>
      <trkpt lat="44.41286" lon="4.5416">
        <ele>329</ele>
        <time>29-03-2015T09:40:01Z</time>
      </trkpt>
      <trkpt lat="44.41283" lon="4.54151">
        <ele>329</ele>
        <time>29-03-2015T09:40:03Z</time>
      </trkpt>
      <trkpt lat="44.4128" lon="4.54144">
        <ele>329</ele>
        <time>29-03-2015T09:40:05Z</time>
      </trkpt>
      <trkpt lat="44.41277" lon="4.54139">
        <ele>329</ele>
        <time>29-03-2015T09:40:07Z</time>
      </trkpt>
      <trkpt lat="44.41273" lon="4.54132">
        <ele>331</ele>
        <time>29-03-2015T09:40:09Z</time>
      </trkpt>
      <trkpt lat="44.41269" lon="4.54126">
        <ele>331</ele>
        <time>29-03-2015T09:40:11Z</time>
      </trkpt>
      <trkpt lat="44.41263" lon="4.54118">
        <ele>331</ele>
        <time>29-03-2015T09:40:13Z</time>
      </trkpt>
      <trkpt lat="44.4126" lon="4.54114">
        <ele>331</ele>
        <time>29-03-2015T09:40:15Z</time>
      </trkpt>
      <trkpt lat="44.41259" lon="4.54107">
        <ele>331</ele>
        <time>29-03-2015T09:40:17Z</time>
      </trkpt>
      <trkpt lat="44.41261" lon="4.54098">
        <ele>331</ele>
        <time>29-03-2015T09:40:19Z</time>
      </trkpt>
      <trkpt lat="44.41264" lon="4.5409">
        <ele>331</ele>
        <time>29-03-2015T09:40:21Z</time>
      </trkpt>
      <trkpt lat="44.41267" lon="4.54084">
        <ele>331</ele>
        <time>29-03-2015T09:40:23Z</time>
      </trkpt>
      <trkpt lat="44.41273" lon="4.5408">
        <ele>332</ele>
        <time>29-03-2015T09:40:25Z</time>
      </trkpt>
      <trkpt lat="44.4128" lon="4.54074">
        <ele>332</ele>
        <time>29-03-2015T09:40:27Z</time>
      </trkpt>
      <trkpt lat="44.41285" lon="4.54066">
        <ele>332</ele>
        <time>29-03-2015T09:40:29Z</time>
      </trkpt>
      <trkpt lat="44.41289" lon="4.54057">
        <ele>332</ele>
        <time>29-03-2015T09:40:31Z</time>
      </trkpt>
      <trkpt lat="44.41293" lon="4.54049">
        <ele>332</ele>
        <time>29-03-2015T09:40:33Z</time>
      </trkpt>
      <trkpt lat="44.41298" lon="4.5404">
        <ele>333</ele>
        <time>29-03-2015T09:40:35Z</time>
      </trkpt>
      <trkpt lat="44.41302" lon="4.54035">
        <ele>333</ele>
        <time>29-03-2015T09:40:36Z</time>
      </trkpt>
      <trkpt lat="44.41305" lon="4.5403">
        <ele>333</ele>
        <time>29-03-2015T09:40:37Z</time>
      </trkpt>
      <trkpt lat="44.4131" lon="4.5402">
        <ele>332</ele>
        <time>29-03-2015T09:40:39Z</time>
      </trkpt>
      <trkpt lat="44.41314" lon="4.54013">
        <ele>332</ele>
        <time>29-03-2015T09:40:41Z</time>
      </trkpt>
      <trkpt lat="44.41319" lon="4.54004">
        <ele>332</ele>
        <time>29-03-2015T09:40:43Z</time>
      </trkpt>
      <trkpt lat="44.41322" lon="4.53998">
        <ele>332</ele>
        <time>29-03-2015T09:40:44Z</time>
      </trkpt>
      <trkpt lat="44.41327" lon="4.53991">
        <ele>332</ele>
        <time>29-03-2015T09:40:46Z</time>
      </trkpt>
      <trkpt lat="44.41331" lon="4.53987">
        <ele>332</ele>
        <time>29-03-2015T09:40:47Z</time>
      </trkpt>
      <trkpt lat="44.41335" lon="4.53978">
        <ele>332</ele>
        <time>29-03-2015T09:40:49Z</time>
      </trkpt>
      <trkpt lat="44.4134" lon="4.53968">
        <ele>332</ele>
        <time>29-03-2015T09:40:51Z</time>
      </trkpt>
      <trkpt lat="44.41341" lon="4.53958">
        <ele>332</ele>
        <time>29-03-2015T09:40:53Z</time>
      </trkpt>
      <trkpt lat="44.41344" lon="4.53952">
        <ele>332</ele>
        <time>29-03-2015T09:40:54Z</time>
      </trkpt>
      <trkpt lat="44.41347" lon="4.53947">
        <ele>332</ele>
        <time>29-03-2015T09:40:55Z</time>
      </trkpt>
      <trkpt lat="44.4135" lon="4.53942">
        <ele>332</ele>
        <time>29-03-2015T09:40:56Z</time>
      </trkpt>
      <trkpt lat="44.41353" lon="4.53937">
        <ele>332</ele>
        <time>29-03-2015T09:40:57Z</time>
      </trkpt>
      <trkpt lat="44.41356" lon="4.53931">
        <ele>332</ele>
        <time>29-03-2015T09:40:58Z</time>
      </trkpt>
      <trkpt lat="44.41358" lon="4.53925">
        <ele>333</ele>
        <time>29-03-2015T09:40:59Z</time>
      </trkpt>
      <trkpt lat="44.41364" lon="4.53916">
        <ele>333</ele>
        <time>29-03-2015T09:41:01Z</time>
      </trkpt>
      <trkpt lat="44.4137" lon="4.53907">
        <ele>333</ele>
        <time>29-03-2015T09:41:03Z</time>
      </trkpt>
      <trkpt lat="44.41373" lon="4.53902">
        <ele>334</ele>
        <time>29-03-2015T09:41:04Z</time>
      </trkpt>
      <trkpt lat="44.41378" lon="4.53893">
        <ele>334</ele>
        <time>29-03-2015T09:41:06Z</time>
      </trkpt>
      <trkpt lat="44.41381" lon="4.53883">
        <ele>334</ele>
        <time>29-03-2015T09:41:08Z</time>
      </trkpt>
      <trkpt lat="44.41383" lon="4.53872">
        <ele>334</ele>
        <time>29-03-2015T09:41:10Z</time>
      </trkpt>
      <trkpt lat="44.41385" lon="4.53861">
        <ele>334</ele>
        <time>29-03-2015T09:41:12Z</time>
      </trkpt>
      <trkpt lat="44.41388" lon="4.53857">
        <ele>334</ele>
        <time>29-03-2015T09:41:13Z</time>
      </trkpt>
      <trkpt lat="44.41394" lon="4.53852">
        <ele>334</ele>
        <time>29-03-2015T09:41:15Z</time>
      </trkpt>
      <trkpt lat="44.41402" lon="4.53854">
        <ele>334</ele>
        <time>29-03-2015T09:41:17Z</time>
      </trkpt>
      <trkpt lat="44.41411" lon="4.53855">
        <ele>334</ele>
        <time>29-03-2015T09:41:19Z</time>
      </trkpt>
      <trkpt lat="44.4142" lon="4.53857">
        <ele>334</ele>
        <time>29-03-2015T09:41:21Z</time>
      </trkpt>
      <trkpt lat="44.41425" lon="4.53857">
        <ele>334</ele>
        <time>29-03-2015T09:41:22Z</time>
      </trkpt>
      <trkpt lat="44.41432" lon="4.53858">
        <ele>334</ele>
        <time>29-03-2015T09:41:24Z</time>
      </trkpt>
      <trkpt lat="44.41441" lon="4.53859">
        <ele>334</ele>
        <time>29-03-2015T09:41:26Z</time>
      </trkpt>
      <trkpt lat="44.41448" lon="4.53858">
        <ele>334</ele>
        <time>29-03-2015T09:41:28Z</time>
      </trkpt>
      <trkpt lat="44.41452" lon="4.53857">
        <ele>335</ele>
        <time>29-03-2015T09:41:29Z</time>
      </trkpt>
      <trkpt lat="44.4146" lon="4.53859">
        <ele>335</ele>
        <time>29-03-2015T09:41:31Z</time>
      </trkpt>
      <trkpt lat="44.41469" lon="4.53861">
        <ele>335</ele>
        <time>29-03-2015T09:41:33Z</time>
      </trkpt>
      <trkpt lat="44.41474" lon="4.53862">
        <ele>335</ele>
        <time>29-03-2015T09:41:34Z</time>
      </trkpt>
      <trkpt lat="44.41479" lon="4.53864">
        <ele>335</ele>
        <time>29-03-2015T09:41:35Z</time>
      </trkpt>
      <trkpt lat="44.41483" lon="4.53866">
        <ele>335</ele>
        <time>29-03-2015T09:41:36Z</time>
      </trkpt>
      <trkpt lat="44.41488" lon="4.53867">
        <ele>335</ele>
        <time>29-03-2015T09:41:37Z</time>
      </trkpt>
      <trkpt lat="44.41495" lon="4.53871">
        <ele>335</ele>
        <time>29-03-2015T09:41:39Z</time>
      </trkpt>
      <trkpt lat="44.415" lon="4.53873">
        <ele>335</ele>
        <time>29-03-2015T09:41:40Z</time>
      </trkpt>
      <trkpt lat="44.41505" lon="4.53875">
        <ele>335</ele>
        <time>29-03-2015T09:41:41Z</time>
      </trkpt>
      <trkpt lat="44.41514" lon="4.53878">
        <ele>335</ele>
        <time>29-03-2015T09:41:43Z</time>
      </trkpt>
      <trkpt lat="44.41523" lon="4.5388">
        <ele>335</ele>
        <time>29-03-2015T09:41:45Z</time>
      </trkpt>
      <trkpt lat="44.4153" lon="4.53882">
        <ele>335</ele>
        <time>29-03-2015T09:41:47Z</time>
      </trkpt>
      <trkpt lat="44.41535" lon="4.53887">
        <ele>336</ele>
        <time>29-03-2015T09:41:49Z</time>
      </trkpt>
      <trkpt lat="44.41538" lon="4.53894">
        <ele>336</ele>
        <time>29-03-2015T09:41:51Z</time>
      </trkpt>
      <trkpt lat="44.41541" lon="4.53902">
        <ele>336</ele>
        <time>29-03-2015T09:41:53Z</time>
      </trkpt>
      <trkpt lat="44.41542" lon="4.53911">
        <ele>336</ele>
        <time>29-03-2015T09:41:55Z</time>
      </trkpt>
      <trkpt lat="44.41545" lon="4.53922">
        <ele>336</ele>
        <time>29-03-2015T09:41:57Z</time>
      </trkpt>
      <trkpt lat="44.41547" lon="4.53929">
        <ele>336</ele>
        <time>29-03-2015T09:41:58Z</time>
      </trkpt>
      <trkpt lat="44.41551" lon="4.5394">
        <ele>337</ele>
        <time>29-03-2015T09:42:00Z</time>
      </trkpt>
      <trkpt lat="44.41553" lon="4.53946">
        <ele>337</ele>
        <time>29-03-2015T09:42:01Z</time>
      </trkpt>
      <trkpt lat="44.41557" lon="4.53958">
        <ele>337</ele>
        <time>29-03-2015T09:42:03Z</time>
      </trkpt>
      <trkpt lat="44.4156" lon="4.53963">
        <ele>337</ele>
        <time>29-03-2015T09:42:04Z</time>
      </trkpt>
      <trkpt lat="44.41565" lon="4.53974">
        <ele>337</ele>
        <time>29-03-2015T09:42:06Z</time>
      </trkpt>
      <trkpt lat="44.41568" lon="4.5398">
        <ele>337</ele>
        <time>29-03-2015T09:42:07Z</time>
      </trkpt>
      <trkpt lat="44.41572" lon="4.53986">
        <ele>337</ele>
        <time>29-03-2015T09:42:08Z</time>
      </trkpt>
      <trkpt lat="44.41575" lon="4.53991">
        <ele>337</ele>
        <time>29-03-2015T09:42:09Z</time>
      </trkpt>
      <trkpt lat="44.41579" lon="4.53995">
        <ele>337</ele>
        <time>29-03-2015T09:42:10Z</time>
      </trkpt>
      <trkpt lat="44.41583" lon="4.54002">
        <ele>337</ele>
        <time>29-03-2015T09:42:12Z</time>
      </trkpt>
      <trkpt lat="44.41588" lon="4.54009">
        <ele>337</ele>
        <time>29-03-2015T09:42:14Z</time>
      </trkpt>
      <trkpt lat="44.41594" lon="4.54014">
        <ele>337</ele>
        <time>29-03-2015T09:42:16Z</time>
      </trkpt>
      <trkpt lat="44.416" lon="4.54016">
        <ele>337</ele>
        <time>29-03-2015T09:42:18Z</time>
      </trkpt>
      <trkpt lat="44.41605" lon="4.54017">
        <ele>337</ele>
        <time>29-03-2015T09:42:20Z</time>
      </trkpt>
      <trkpt lat="44.41613" lon="4.54018">
        <ele>337</ele>
        <time>29-03-2015T09:42:22Z</time>
      </trkpt>
      <trkpt lat="44.4162" lon="4.54021">
        <ele>338</ele>
        <time>29-03-2015T09:42:24Z</time>
      </trkpt>
      <trkpt lat="44.41626" lon="4.54025">
        <ele>338</ele>
        <time>29-03-2015T09:42:26Z</time>
      </trkpt>
      <trkpt lat="44.41631" lon="4.54026">
        <ele>338</ele>
        <time>29-03-2015T09:42:28Z</time>
      </trkpt>
      <trkpt lat="44.41636" lon="4.54025">
        <ele>338</ele>
        <time>29-03-2015T09:42:30Z</time>
      </trkpt>
      <trkpt lat="44.41642" lon="4.54022">
        <ele>338</ele>
        <time>29-03-2015T09:42:32Z</time>
      </trkpt>
      <trkpt lat="44.41649" lon="4.5402">
        <ele>340</ele>
        <time>29-03-2015T09:42:34Z</time>
      </trkpt>
      <trkpt lat="44.41654" lon="4.54017">
        <ele>340</ele>
        <time>29-03-2015T09:42:36Z</time>
      </trkpt>
      <trkpt lat="44.4166" lon="4.54015">
        <ele>340</ele>
        <time>29-03-2015T09:42:38Z</time>
      </trkpt>
      <trkpt lat="44.41666" lon="4.54011">
        <ele>340</ele>
        <time>29-03-2015T09:42:40Z</time>
      </trkpt>
      <trkpt lat="44.41672" lon="4.54008">
        <ele>340</ele>
        <time>29-03-2015T09:42:42Z</time>
      </trkpt>
      <trkpt lat="44.41679" lon="4.54004">
        <ele>340</ele>
        <time>29-03-2015T09:42:45Z</time>
      </trkpt>
      <trkpt lat="44.41685" lon="4.54001">
        <ele>340</ele>
        <time>29-03-2015T09:42:47Z</time>
      </trkpt>
      <trkpt lat="44.41691" lon="4.53996">
        <ele>341</ele>
        <time>29-03-2015T09:42:49Z</time>
      </trkpt>
      <trkpt lat="44.41697" lon="4.53993">
        <ele>341</ele>
        <time>29-03-2015T09:42:51Z</time>
      </trkpt>
      <trkpt lat="44.41702" lon="4.53989">
        <ele>341</ele>
        <time>29-03-2015T09:42:53Z</time>
      </trkpt>
      <trkpt lat="44.41707" lon="4.53986">
        <ele>342</ele>
        <time>29-03-2015T09:42:55Z</time>
      </trkpt>
      <trkpt lat="44.41714" lon="4.53981">
        <ele>342</ele>
        <time>29-03-2015T09:42:58Z</time>
      </trkpt>
      <trkpt lat="44.4172" lon="4.53976">
        <ele>342</ele>
        <time>29-03-2015T09:43:00Z</time>
      </trkpt>
      <trkpt lat="44.41725" lon="4.53973">
        <ele>342</ele>
        <time>29-03-2015T09:43:02Z</time>
      </trkpt>
      <trkpt lat="44.4173" lon="4.53968">
        <ele>343</ele>
        <time>29-03-2015T09:43:04Z</time>
      </trkpt>
      <trkpt lat="44.41737" lon="4.53965">
        <ele>343</ele>
        <time>29-03-2015T09:43:06Z</time>
      </trkpt>
      <trkpt lat="44.41743" lon="4.53962">
        <ele>343</ele>
        <time>29-03-2015T09:43:08Z</time>
      </trkpt>
      <trkpt lat="44.4175" lon="4.53959">
        <ele>344</ele>
        <time>29-03-2015T09:43:10Z</time>
      </trkpt>
      <trkpt lat="44.41756" lon="4.53953">
        <ele>344</ele>
        <time>29-03-2015T09:43:13Z</time>
      </trkpt>
      <trkpt lat="44.41761" lon="4.53947">
        <ele>345</ele>
        <time>29-03-2015T09:43:15Z</time>
      </trkpt>
      <trkpt lat="44.41766" lon="4.53945">
        <ele>345</ele>
        <time>29-03-2015T09:43:17Z</time>
      </trkpt>
      <trkpt lat="44.41772" lon="4.53942">
        <ele>345</ele>
        <time>29-03-2015T09:43:19Z</time>
      </trkpt>
      <trkpt lat="44.41778" lon="4.5394">
        <ele>345</ele>
        <time>29-03-2015T09:43:21Z</time>
      </trkpt>
      <trkpt lat="44.41783" lon="4.53937">
        <ele>345</ele>
        <time>29-03-2015T09:43:22Z</time>
      </trkpt>
      <trkpt lat="44.41789" lon="4.53935">
        <ele>345</ele>
        <time>29-03-2015T09:43:24Z</time>
      </trkpt>
      <trkpt lat="44.41793" lon="4.53932">
        <ele>345</ele>
        <time>29-03-2015T09:43:26Z</time>
      </trkpt>
      <trkpt lat="44.418" lon="4.53929">
        <ele>345</ele>
        <time>29-03-2015T09:43:28Z</time>
      </trkpt>
      <trkpt lat="44.41805" lon="4.5393">
        <ele>345</ele>
        <time>29-03-2015T09:43:30Z</time>
      </trkpt>
      <trkpt lat="44.4181" lon="4.53929">
        <ele>345</ele>
        <time>29-03-2015T09:43:32Z</time>
      </trkpt>
      <trkpt lat="44.41816" lon="4.53928">
        <ele>347</ele>
        <time>29-03-2015T09:43:34Z</time>
      </trkpt>
      <trkpt lat="44.41821" lon="4.53929">
        <ele>347</ele>
        <time>29-03-2015T09:43:36Z</time>
      </trkpt>
      <trkpt lat="44.41827" lon="4.53928">
        <ele>347</ele>
        <time>29-03-2015T09:43:38Z</time>
      </trkpt>
      <trkpt lat="44.41833" lon="4.53924">
        <ele>346</ele>
        <time>29-03-2015T09:43:40Z</time>
      </trkpt>
      <trkpt lat="44.4184" lon="4.5392">
        <ele>346</ele>
        <time>29-03-2015T09:43:42Z</time>
      </trkpt>
      <trkpt lat="44.41845" lon="4.53915">
        <ele>346</ele>
        <time>29-03-2015T09:43:44Z</time>
      </trkpt>
      <trkpt lat="44.4185" lon="4.5391">
        <ele>346</ele>
        <time>29-03-2015T09:43:46Z</time>
      </trkpt>
      <trkpt lat="44.41856" lon="4.53905">
        <ele>346</ele>
        <time>29-03-2015T09:43:48Z</time>
      </trkpt>
      <trkpt lat="44.41861" lon="4.53901">
        <ele>347</ele>
        <time>29-03-2015T09:43:50Z</time>
      </trkpt>
      <trkpt lat="44.41865" lon="4.53896">
        <ele>347</ele>
        <time>29-03-2015T09:43:52Z</time>
      </trkpt>
      <trkpt lat="44.41871" lon="4.53891">
        <ele>347</ele>
        <time>29-03-2015T09:43:54Z</time>
      </trkpt>
      <trkpt lat="44.41876" lon="4.53888">
        <ele>347</ele>
        <time>29-03-2015T09:43:56Z</time>
      </trkpt>
      <trkpt lat="44.41882" lon="4.53884">
        <ele>347</ele>
        <time>29-03-2015T09:43:58Z</time>
      </trkpt>
      <trkpt lat="44.41887" lon="4.5388">
        <ele>347</ele>
        <time>29-03-2015T09:44:00Z</time>
      </trkpt>
      <trkpt lat="44.41892" lon="4.53877">
        <ele>347</ele>
        <time>29-03-2015T09:44:02Z</time>
      </trkpt>
      <trkpt lat="44.41896" lon="4.53872">
        <ele>348</ele>
        <time>29-03-2015T09:44:04Z</time>
      </trkpt>
      <trkpt lat="44.41902" lon="4.53867">
        <ele>348</ele>
        <time>29-03-2015T09:44:06Z</time>
      </trkpt>
      <trkpt lat="44.41906" lon="4.53864">
        <ele>348</ele>
        <time>29-03-2015T09:44:07Z</time>
      </trkpt>
      <trkpt lat="44.41911" lon="4.5386">
        <ele>350</ele>
        <time>29-03-2015T09:44:09Z</time>
      </trkpt>
      <trkpt lat="44.41917" lon="4.53855">
        <ele>350</ele>
        <time>29-03-2015T09:44:11Z</time>
      </trkpt>
      <trkpt lat="44.41921" lon="4.53849">
        <ele>350</ele>
        <time>29-03-2015T09:44:13Z</time>
      </trkpt>
      <trkpt lat="44.41925" lon="4.53844">
        <ele>349</ele>
        <time>29-03-2015T09:44:15Z</time>
      </trkpt>
      <trkpt lat="44.4193" lon="4.53843">
        <ele>349</ele>
        <time>29-03-2015T09:44:17Z</time>
      </trkpt>
      <trkpt lat="44.41937" lon="4.53841">
        <ele>349</ele>
        <time>29-03-2015T09:44:19Z</time>
      </trkpt>
      <trkpt lat="44.41941" lon="4.5384">
        <ele>349</ele>
        <time>29-03-2015T09:44:20Z</time>
      </trkpt>
      <trkpt lat="44.41949" lon="4.53836">
        <ele>349</ele>
        <time>29-03-2015T09:44:22Z</time>
      </trkpt>
      <trkpt lat="44.41956" lon="4.53832">
        <ele>349</ele>
        <time>29-03-2015T09:44:24Z</time>
      </trkpt>
      <trkpt lat="44.41964" lon="4.5383">
        <ele>349</ele>
        <time>29-03-2015T09:44:26Z</time>
      </trkpt>
      <trkpt lat="44.41969" lon="4.53828">
        <ele>349</ele>
        <time>29-03-2015T09:44:27Z</time>
      </trkpt>
      <trkpt lat="44.41977" lon="4.53826">
        <ele>350</ele>
        <time>29-03-2015T09:44:29Z</time>
      </trkpt>
      <trkpt lat="44.41984" lon="4.53829">
        <ele>350</ele>
        <time>29-03-2015T09:44:31Z</time>
      </trkpt>
      <trkpt lat="44.41992" lon="4.53829">
        <ele>350</ele>
        <time>29-03-2015T09:44:33Z</time>
      </trkpt>
      <trkpt lat="44.41999" lon="4.53829">
        <ele>350</ele>
        <time>29-03-2015T09:44:35Z</time>
      </trkpt>
      <trkpt lat="44.42005" lon="4.53829">
        <ele>350</ele>
        <time>29-03-2015T09:44:37Z</time>
      </trkpt>
      <trkpt lat="44.42011" lon="4.53832">
        <ele>351</ele>
        <time>29-03-2015T09:44:39Z</time>
      </trkpt>
      <trkpt lat="44.42018" lon="4.53833">
        <ele>351</ele>
        <time>29-03-2015T09:44:41Z</time>
      </trkpt>
      <trkpt lat="44.42024" lon="4.53835">
        <ele>351</ele>
        <time>29-03-2015T09:44:43Z</time>
      </trkpt>
      <trkpt lat="44.42031" lon="4.53835">
        <ele>351</ele>
        <time>29-03-2015T09:44:45Z</time>
      </trkpt>
      <trkpt lat="44.42037" lon="4.53833">
        <ele>351</ele>
        <time>29-03-2015T09:44:47Z</time>
      </trkpt>
      <trkpt lat="44.42043" lon="4.53833">
        <ele>353</ele>
        <time>29-03-2015T09:44:49Z</time>
      </trkpt>
      <trkpt lat="44.4205" lon="4.53831">
        <ele>353</ele>
        <time>29-03-2015T09:44:51Z</time>
      </trkpt>
      <trkpt lat="44.42057" lon="4.5383">
        <ele>353</ele>
        <time>29-03-2015T09:44:53Z</time>
      </trkpt>
      <trkpt lat="44.42064" lon="4.5383">
        <ele>352</ele>
        <time>29-03-2015T09:44:55Z</time>
      </trkpt>
      <trkpt lat="44.42071" lon="4.53829">
        <ele>352</ele>
        <time>29-03-2015T09:44:57Z</time>
      </trkpt>
      <trkpt lat="44.42078" lon="4.53828">
        <ele>352</ele>
        <time>29-03-2015T09:44:59Z</time>
      </trkpt>
      <trkpt lat="44.42083" lon="4.53828">
        <ele>352</ele>
        <time>29-03-2015T09:45:01Z</time>
      </trkpt>
      <trkpt lat="44.4209" lon="4.53824">
        <ele>352</ele>
        <time>29-03-2015T09:45:03Z</time>
      </trkpt>
      <trkpt lat="44.42096" lon="4.53823">
        <ele>353</ele>
        <time>29-03-2015T09:45:05Z</time>
      </trkpt>
      <trkpt lat="44.42102" lon="4.5382">
        <ele>353</ele>
        <time>29-03-2015T09:45:07Z</time>
      </trkpt>
      <trkpt lat="44.42108" lon="4.53817">
        <ele>353</ele>
        <time>29-03-2015T09:45:09Z</time>
      </trkpt>
      <trkpt lat="44.42115" lon="4.53814">
        <ele>353</ele>
        <time>29-03-2015T09:45:11Z</time>
      </trkpt>
      <trkpt lat="44.4212" lon="4.53811">
        <ele>353</ele>
        <time>29-03-2015T09:45:13Z</time>
      </trkpt>
      <trkpt lat="44.42125" lon="4.53807">
        <ele>353</ele>
        <time>29-03-2015T09:45:14Z</time>
      </trkpt>
      <trkpt lat="44.42132" lon="4.53804">
        <ele>353</ele>
        <time>29-03-2015T09:45:16Z</time>
      </trkpt>
      <trkpt lat="44.42137" lon="4.53806">
        <ele>353</ele>
        <time>29-03-2015T09:45:18Z</time>
      </trkpt>
      <trkpt lat="44.42145" lon="4.53808">
        <ele>353</ele>
        <time>29-03-2015T09:45:20Z</time>
      </trkpt>
      <trkpt lat="44.42151" lon="4.53814">
        <ele>353</ele>
        <time>29-03-2015T09:45:22Z</time>
      </trkpt>
      <trkpt lat="44.42155" lon="4.53823">
        <ele>354</ele>
        <time>29-03-2015T09:45:24Z</time>
      </trkpt>
      <trkpt lat="44.4216" lon="4.53832">
        <ele>354</ele>
        <time>29-03-2015T09:45:26Z</time>
      </trkpt>
      <trkpt lat="44.42165" lon="4.53841">
        <ele>354</ele>
        <time>29-03-2015T09:45:28Z</time>
      </trkpt>
      <trkpt lat="44.42171" lon="4.53851">
        <ele>354</ele>
        <time>29-03-2015T09:45:30Z</time>
      </trkpt>
      <trkpt lat="44.42174" lon="4.53857">
        <ele>354</ele>
        <time>29-03-2015T09:45:31Z</time>
      </trkpt>
      <trkpt lat="44.42177" lon="4.53861">
        <ele>354</ele>
        <time>29-03-2015T09:45:32Z</time>
      </trkpt>
      <trkpt lat="44.42181" lon="4.53865">
        <ele>354</ele>
        <time>29-03-2015T09:45:33Z</time>
      </trkpt>
      <trkpt lat="44.42185" lon="4.53869">
        <ele>354</ele>
        <time>29-03-2015T09:45:34Z</time>
      </trkpt>
      <trkpt lat="44.42193" lon="4.53872">
        <ele>354</ele>
        <time>29-03-2015T09:45:36Z</time>
      </trkpt>
      <trkpt lat="44.42198" lon="4.53872">
        <ele>354</ele>
        <time>29-03-2015T09:45:37Z</time>
      </trkpt>
      <trkpt lat="44.42203" lon="4.53872">
        <ele>354</ele>
        <time>29-03-2015T09:45:38Z</time>
      </trkpt>
      <trkpt lat="44.42208" lon="4.53874">
        <ele>354</ele>
        <time>29-03-2015T09:45:39Z</time>
      </trkpt>
      <trkpt lat="44.42214" lon="4.53874">
        <ele>354</ele>
        <time>29-03-2015T09:45:40Z</time>
      </trkpt>
      <trkpt lat="44.42219" lon="4.53875">
        <ele>354</ele>
        <time>29-03-2015T09:45:41Z</time>
      </trkpt>
      <trkpt lat="44.42228" lon="4.53879">
        <ele>354</ele>
        <time>29-03-2015T09:45:43Z</time>
      </trkpt>
      <trkpt lat="44.42234" lon="4.53879">
        <ele>354</ele>
        <time>29-03-2015T09:45:44Z</time>
      </trkpt>
      <trkpt lat="44.4224" lon="4.53879">
        <ele>354</ele>
        <time>29-03-2015T09:45:45Z</time>
      </trkpt>
      <trkpt lat="44.42245" lon="4.53882">
        <ele>354</ele>
        <time>29-03-2015T09:45:46Z</time>
      </trkpt>
      <trkpt lat="44.4225" lon="4.53882">
        <ele>354</ele>
        <time>29-03-2015T09:45:47Z</time>
      </trkpt>
      <trkpt lat="44.42255" lon="4.53884">
        <ele>354</ele>
        <time>29-03-2015T09:45:48Z</time>
      </trkpt>
      <trkpt lat="44.4226" lon="4.53885">
        <ele>352</ele>
        <time>29-03-2015T09:45:49Z</time>
      </trkpt>
      <trkpt lat="44.42266" lon="4.53886">
        <ele>352</ele>
        <time>29-03-2015T09:45:50Z</time>
      </trkpt>
      <trkpt lat="44.42276" lon="4.53888">
        <ele>352</ele>
        <time>29-03-2015T09:45:52Z</time>
      </trkpt>
      <trkpt lat="44.42281" lon="4.5389">
        <ele>352</ele>
        <time>29-03-2015T09:45:53Z</time>
      </trkpt>
      <trkpt lat="44.42287" lon="4.53891">
        <ele>352</ele>
        <time>29-03-2015T09:45:54Z</time>
      </trkpt>
      <trkpt lat="44.42293" lon="4.53893">
        <ele>352</ele>
        <time>29-03-2015T09:45:55Z</time>
      </trkpt>
      <trkpt lat="44.42302" lon="4.53894">
        <ele>352</ele>
        <time>29-03-2015T09:45:57Z</time>
      </trkpt>
      <trkpt lat="44.4231" lon="4.53899">
        <ele>352</ele>
        <time>29-03-2015T09:45:59Z</time>
      </trkpt>
      <trkpt lat="44.42313" lon="4.53905">
        <ele>352</ele>
        <time>29-03-2015T09:46:00Z</time>
      </trkpt>
      <trkpt lat="44.4232" lon="4.53912">
        <ele>352</ele>
        <time>29-03-2015T09:46:02Z</time>
      </trkpt>
      <trkpt lat="44.42324" lon="4.53915">
        <ele>352</ele>
        <time>29-03-2015T09:46:03Z</time>
      </trkpt>
      <trkpt lat="44.42329" lon="4.53917">
        <ele>352</ele>
        <time>29-03-2015T09:46:04Z</time>
      </trkpt>
      <trkpt lat="44.42333" lon="4.53916">
        <ele>352</ele>
        <time>29-03-2015T09:46:05Z</time>
      </trkpt>
      <trkpt lat="44.42342" lon="4.53915">
        <ele>352</ele>
        <time>29-03-2015T09:46:07Z</time>
      </trkpt>
      <trkpt lat="44.42347" lon="4.53914">
        <ele>352</ele>
        <time>29-03-2015T09:46:08Z</time>
      </trkpt>
      <trkpt lat="44.42353" lon="4.53912">
        <ele>351</ele>
        <time>29-03-2015T09:46:09Z</time>
      </trkpt>
      <trkpt lat="44.42358" lon="4.53912">
        <ele>351</ele>
        <time>29-03-2015T09:46:10Z</time>
      </trkpt>
      <trkpt lat="44.42368" lon="4.53911">
        <ele>351</ele>
        <time>29-03-2015T09:46:12Z</time>
      </trkpt>
      <trkpt lat="44.42375" lon="4.53911">
        <ele>352</ele>
        <time>29-03-2015T09:46:14Z</time>
      </trkpt>
      <trkpt lat="44.4238" lon="4.5391">
        <ele>352</ele>
        <time>29-03-2015T09:46:15Z</time>
      </trkpt>
      <trkpt lat="44.42384" lon="4.53909">
        <ele>352</ele>
        <time>29-03-2015T09:46:16Z</time>
      </trkpt>
      <trkpt lat="44.4239" lon="4.53909">
        <ele>352</ele>
        <time>29-03-2015T09:46:17Z</time>
      </trkpt>
      <trkpt lat="44.42398" lon="4.5391">
        <ele>352</ele>
        <time>29-03-2015T09:46:19Z</time>
      </trkpt>
      <trkpt lat="44.42404" lon="4.5391">
        <ele>352</ele>
        <time>29-03-2015T09:46:20Z</time>
      </trkpt>
      <trkpt lat="44.42412" lon="4.53908">
        <ele>352</ele>
        <time>29-03-2015T09:46:22Z</time>
      </trkpt>
      <trkpt lat="44.42426" lon="4.53908">
        <ele>352</ele>
        <time>29-03-2015T09:46:25Z</time>
      </trkpt>
      <trkpt lat="44.42431" lon="4.53907">
        <ele>352</ele>
        <time>29-03-2015T09:46:26Z</time>
      </trkpt>
      <trkpt lat="44.42436" lon="4.53906">
        <ele>352</ele>
        <time>29-03-2015T09:46:27Z</time>
      </trkpt>
      <trkpt lat="44.4244" lon="4.53906">
        <ele>352</ele>
        <time>29-03-2015T09:46:28Z</time>
      </trkpt>
      <trkpt lat="44.42445" lon="4.53906">
        <ele>352</ele>
        <time>29-03-2015T09:46:29Z</time>
      </trkpt>
      <trkpt lat="44.4245" lon="4.53905">
        <ele>352</ele>
        <time>29-03-2015T09:46:30Z</time>
      </trkpt>
      <trkpt lat="44.42458" lon="4.53904">
        <ele>352</ele>
        <time>29-03-2015T09:46:32Z</time>
      </trkpt>
      <trkpt lat="44.42464" lon="4.53903">
        <ele>352</ele>
        <time>29-03-2015T09:46:33Z</time>
      </trkpt>
      <trkpt lat="44.42473" lon="4.53902">
        <ele>352</ele>
        <time>29-03-2015T09:46:35Z</time>
      </trkpt>
      <trkpt lat="44.42482" lon="4.53902">
        <ele>352</ele>
        <time>29-03-2015T09:46:37Z</time>
      </trkpt>
      <trkpt lat="44.42487" lon="4.53901">
        <ele>352</ele>
        <time>29-03-2015T09:46:38Z</time>
      </trkpt>
      <trkpt lat="44.42492" lon="4.53901">
        <ele>354</ele>
        <time>29-03-2015T09:46:39Z</time>
      </trkpt>
      <trkpt lat="44.42498" lon="4.53901">
        <ele>354</ele>
        <time>29-03-2015T09:46:40Z</time>
      </trkpt>
      <trkpt lat="44.42506" lon="4.539">
        <ele>354</ele>
        <time>29-03-2015T09:46:42Z</time>
      </trkpt>
      <trkpt lat="44.42511" lon="4.53899">
        <ele>354</ele>
        <time>29-03-2015T09:46:43Z</time>
      </trkpt>
      <trkpt lat="44.42516" lon="4.53898">
        <ele>354</ele>
        <time>29-03-2015T09:46:44Z</time>
      </trkpt>
      <trkpt lat="44.42521" lon="4.53899">
        <ele>354</ele>
        <time>29-03-2015T09:46:45Z</time>
      </trkpt>
      <trkpt lat="44.42526" lon="4.53897">
        <ele>354</ele>
        <time>29-03-2015T09:46:46Z</time>
      </trkpt>
      <trkpt lat="44.42531" lon="4.53898">
        <ele>354</ele>
        <time>29-03-2015T09:46:47Z</time>
      </trkpt>
      <trkpt lat="44.42536" lon="4.53897">
        <ele>354</ele>
        <time>29-03-2015T09:46:48Z</time>
      </trkpt>
      <trkpt lat="44.42542" lon="4.53895">
        <ele>355</ele>
        <time>29-03-2015T09:46:49Z</time>
      </trkpt>
      <trkpt lat="44.4255" lon="4.53895">
        <ele>355</ele>
        <time>29-03-2015T09:46:51Z</time>
      </trkpt>
      <trkpt lat="44.42558" lon="4.53895">
        <ele>355</ele>
        <time>29-03-2015T09:46:53Z</time>
      </trkpt>
      <trkpt lat="44.42563" lon="4.53892">
        <ele>355</ele>
        <time>29-03-2015T09:46:54Z</time>
      </trkpt>
      <trkpt lat="44.42571" lon="4.53891">
        <ele>355</ele>
        <time>29-03-2015T09:46:56Z</time>
      </trkpt>
      <trkpt lat="44.42578" lon="4.5389">
        <ele>355</ele>
        <time>29-03-2015T09:46:58Z</time>
      </trkpt>
      <trkpt lat="44.42583" lon="4.53888">
        <ele>355</ele>
        <time>29-03-2015T09:46:59Z</time>
      </trkpt>
      <trkpt lat="44.4259" lon="4.53885">
        <ele>355</ele>
        <time>29-03-2015T09:47:00Z</time>
      </trkpt>
      <trkpt lat="44.42597" lon="4.53883">
        <ele>355</ele>
        <time>29-03-2015T09:47:02Z</time>
      </trkpt>
      <trkpt lat="44.42602" lon="4.53881">
        <ele>355</ele>
        <time>29-03-2015T09:47:03Z</time>
      </trkpt>
      <trkpt lat="44.42611" lon="4.53878">
        <ele>356</ele>
        <time>29-03-2015T09:47:05Z</time>
      </trkpt>
      <trkpt lat="44.42618" lon="4.53877">
        <ele>356</ele>
        <time>29-03-2015T09:47:07Z</time>
      </trkpt>
      <trkpt lat="44.42624" lon="4.53876">
        <ele>356</ele>
        <time>29-03-2015T09:47:08Z</time>
      </trkpt>
      <trkpt lat="44.42633" lon="4.53876">
        <ele>358</ele>
        <time>29-03-2015T09:47:10Z</time>
      </trkpt>
      <trkpt lat="44.42638" lon="4.53876">
        <ele>358</ele>
        <time>29-03-2015T09:47:11Z</time>
      </trkpt>
      <trkpt lat="44.42643" lon="4.53876">
        <ele>358</ele>
        <time>29-03-2015T09:47:12Z</time>
      </trkpt>
      <trkpt lat="44.42648" lon="4.53875">
        <ele>358</ele>
        <time>29-03-2015T09:47:13Z</time>
      </trkpt>
      <trkpt lat="44.42657" lon="4.53876">
        <ele>358</ele>
        <time>29-03-2015T09:47:15Z</time>
      </trkpt>
      <trkpt lat="44.42663" lon="4.53877">
        <ele>358</ele>
        <time>29-03-2015T09:47:16Z</time>
      </trkpt>
      <trkpt lat="44.42668" lon="4.53876">
        <ele>358</ele>
        <time>29-03-2015T09:47:17Z</time>
      </trkpt>
      <trkpt lat="44.42679" lon="4.53878">
        <ele>357</ele>
        <time>29-03-2015T09:47:19Z</time>
      </trkpt>
      <trkpt lat="44.42684" lon="4.53878">
        <ele>357</ele>
        <time>29-03-2015T09:47:20Z</time>
      </trkpt>
      <trkpt lat="44.4269" lon="4.53879">
        <ele>357</ele>
        <time>29-03-2015T09:47:21Z</time>
      </trkpt>
      <trkpt lat="44.42696" lon="4.53878">
        <ele>357</ele>
        <time>29-03-2015T09:47:22Z</time>
      </trkpt>
      <trkpt lat="44.42702" lon="4.53877">
        <ele>357</ele>
        <time>29-03-2015T09:47:23Z</time>
      </trkpt>
      <trkpt lat="44.42709" lon="4.53877">
        <ele>356</ele>
        <time>29-03-2015T09:47:24Z</time>
      </trkpt>
      <trkpt lat="44.42715" lon="4.53876">
        <ele>356</ele>
        <time>29-03-2015T09:47:25Z</time>
      </trkpt>
      <trkpt lat="44.4272" lon="4.53878">
        <ele>356</ele>
        <time>29-03-2015T09:47:26Z</time>
      </trkpt>
      <trkpt lat="44.42726" lon="4.53878">
        <ele>356</ele>
        <time>29-03-2015T09:47:27Z</time>
      </trkpt>
      <trkpt lat="44.42733" lon="4.53877">
        <ele>356</ele>
        <time>29-03-2015T09:47:28Z</time>
      </trkpt>
      <trkpt lat="44.42739" lon="4.53878">
        <ele>356</ele>
        <time>29-03-2015T09:47:29Z</time>
      </trkpt>
      <trkpt lat="44.42746" lon="4.53878">
        <ele>356</ele>
        <time>29-03-2015T09:47:30Z</time>
      </trkpt>
      <trkpt lat="44.42752" lon="4.53877">
        <ele>356</ele>
        <time>29-03-2015T09:47:31Z</time>
      </trkpt>
      <trkpt lat="44.42758" lon="4.53877">
        <ele>356</ele>
        <time>29-03-2015T09:47:32Z</time>
      </trkpt>
      <trkpt lat="44.42762" lon="4.53876">
        <ele>356</ele>
        <time>29-03-2015T09:47:33Z</time>
      </trkpt>
      <trkpt lat="44.42768" lon="4.53875">
        <ele>356</ele>
        <time>29-03-2015T09:47:34Z</time>
      </trkpt>
      <trkpt lat="44.42772" lon="4.53875">
        <ele>356</ele>
        <time>29-03-2015T09:47:35Z</time>
      </trkpt>
      <trkpt lat="44.42783" lon="4.53871">
        <ele>356</ele>
        <time>29-03-2015T09:47:37Z</time>
      </trkpt>
      <trkpt lat="44.42791" lon="4.5387">
        <ele>354</ele>
        <time>29-03-2015T09:47:39Z</time>
      </trkpt>
      <trkpt lat="44.42797" lon="4.53867">
        <ele>354</ele>
        <time>29-03-2015T09:47:40Z</time>
      </trkpt>
      <trkpt lat="44.42802" lon="4.53866">
        <ele>354</ele>
        <time>29-03-2015T09:47:41Z</time>
      </trkpt>
      <trkpt lat="44.42807" lon="4.53865">
        <ele>354</ele>
        <time>29-03-2015T09:47:42Z</time>
      </trkpt>
      <trkpt lat="44.42812" lon="4.53863">
        <ele>354</ele>
        <time>29-03-2015T09:47:43Z</time>
      </trkpt>
      <trkpt lat="44.42817" lon="4.53861">
        <ele>354</ele>
        <time>29-03-2015T09:47:44Z</time>
      </trkpt>
      <trkpt lat="44.42823" lon="4.53859">
        <ele>354</ele>
        <time>29-03-2015T09:47:45Z</time>
      </trkpt>
      <trkpt lat="44.4283" lon="4.53857">
        <ele>354</ele>
        <time>29-03-2015T09:47:46Z</time>
      </trkpt>
      <trkpt lat="44.42838" lon="4.53858">
        <ele>354</ele>
        <time>29-03-2015T09:47:48Z</time>
      </trkpt>
      <trkpt lat="44.42844" lon="4.53856">
        <ele>353</ele>
        <time>29-03-2015T09:47:49Z</time>
      </trkpt>
      <trkpt lat="44.42849" lon="4.53857">
        <ele>353</ele>
        <time>29-03-2015T09:47:50Z</time>
      </trkpt>
      <trkpt lat="44.42854" lon="4.53858">
        <ele>353</ele>
        <time>29-03-2015T09:47:51Z</time>
      </trkpt>
      <trkpt lat="44.42861" lon="4.53858">
        <ele>353</ele>
        <time>29-03-2015T09:47:52Z</time>
      </trkpt>
      <trkpt lat="44.42866" lon="4.53861">
        <ele>353</ele>
        <time>29-03-2015T09:47:53Z</time>
      </trkpt>
      <trkpt lat="44.4287" lon="4.53863">
        <ele>353</ele>
        <time>29-03-2015T09:47:54Z</time>
      </trkpt>
      <trkpt lat="44.42876" lon="4.53863">
        <ele>353</ele>
        <time>29-03-2015T09:47:55Z</time>
      </trkpt>
      <trkpt lat="44.4288" lon="4.53865">
        <ele>353</ele>
        <time>29-03-2015T09:47:56Z</time>
      </trkpt>
      <trkpt lat="44.4289" lon="4.53865">
        <ele>353</ele>
        <time>29-03-2015T09:47:58Z</time>
      </trkpt>
      <trkpt lat="44.42895" lon="4.53865">
        <ele>352</ele>
        <time>29-03-2015T09:47:59Z</time>
      </trkpt>
      <trkpt lat="44.429" lon="4.53869">
        <ele>352</ele>
        <time>29-03-2015T09:48:01Z</time>
      </trkpt>
      <trkpt lat="44.429" lon="4.53876">
        <ele>352</ele>
        <time>29-03-2015T09:48:03Z</time>
      </trkpt>
      <trkpt lat="44.42898" lon="4.53884">
        <ele>352</ele>
        <time>29-03-2015T09:48:05Z</time>
      </trkpt>
      <trkpt lat="44.42894" lon="4.53896">
        <ele>352</ele>
        <time>29-03-2015T09:48:07Z</time>
      </trkpt>
      <trkpt lat="44.42893" lon="4.53902">
        <ele>352</ele>
        <time>29-03-2015T09:48:08Z</time>
      </trkpt>
      <trkpt lat="44.42891" lon="4.53908">
        <ele>352</ele>
        <time>29-03-2015T09:48:09Z</time>
      </trkpt>
      <trkpt lat="44.42888" lon="4.53914">
        <ele>352</ele>
        <time>29-03-2015T09:48:10Z</time>
      </trkpt>
      <trkpt lat="44.42887" lon="4.53921">
        <ele>352</ele>
        <time>29-03-2015T09:48:11Z</time>
      </trkpt>
      <trkpt lat="44.42885" lon="4.53928">
        <ele>352</ele>
        <time>29-03-2015T09:48:12Z</time>
      </trkpt>
      <trkpt lat="44.42883" lon="4.53935">
        <ele>352</ele>
        <time>29-03-2015T09:48:13Z</time>
      </trkpt>
      <trkpt lat="44.4288" lon="4.53941">
        <ele>352</ele>
        <time>29-03-2015T09:48:14Z</time>
      </trkpt>
      <trkpt lat="44.42879" lon="4.53949">
        <ele>352</ele>
        <time>29-03-2015T09:48:15Z</time>
      </trkpt>
      <trkpt lat="44.42876" lon="4.53955">
        <ele>352</ele>
        <time>29-03-2015T09:48:16Z</time>
      </trkpt>
      <trkpt lat="44.42874" lon="4.53962">
        <ele>352</ele>
        <time>29-03-2015T09:48:17Z</time>
      </trkpt>
      <trkpt lat="44.42872" lon="4.53968">
        <ele>352</ele>
        <time>29-03-2015T09:48:18Z</time>
      </trkpt>
      <trkpt lat="44.4287" lon="4.53976">
        <ele>352</ele>
        <time>29-03-2015T09:48:19Z</time>
      </trkpt>
      <trkpt lat="44.42867" lon="4.53984">
        <ele>352</ele>
        <time>29-03-2015T09:48:20Z</time>
      </trkpt>
      <trkpt lat="44.42864" lon="4.5399">
        <ele>352</ele>
        <time>29-03-2015T09:48:21Z</time>
      </trkpt>
      <trkpt lat="44.42862" lon="4.53997">
        <ele>352</ele>
        <time>29-03-2015T09:48:22Z</time>
      </trkpt>
      <trkpt lat="44.42859" lon="4.54005">
        <ele>352</ele>
        <time>29-03-2015T09:48:23Z</time>
      </trkpt>
      <trkpt lat="44.42857" lon="4.54012">
        <ele>352</ele>
        <time>29-03-2015T09:48:24Z</time>
      </trkpt>
      <trkpt lat="44.42853" lon="4.54024">
        <ele>352</ele>
        <time>29-03-2015T09:48:26Z</time>
      </trkpt>
      <trkpt lat="44.42851" lon="4.54033">
        <ele>352</ele>
        <time>29-03-2015T09:48:27Z</time>
      </trkpt>
      <trkpt lat="44.42848" lon="4.54046">
        <ele>351</ele>
        <time>29-03-2015T09:48:29Z</time>
      </trkpt>
      <trkpt lat="44.42845" lon="4.54054">
        <ele>351</ele>
        <time>29-03-2015T09:48:30Z</time>
      </trkpt>
      <trkpt lat="44.42843" lon="4.54063">
        <ele>351</ele>
        <time>29-03-2015T09:48:31Z</time>
      </trkpt>
      <trkpt lat="44.42841" lon="4.54071">
        <ele>351</ele>
        <time>29-03-2015T09:48:32Z</time>
      </trkpt>
      <trkpt lat="44.42839" lon="4.54078">
        <ele>351</ele>
        <time>29-03-2015T09:48:33Z</time>
      </trkpt>
      <trkpt lat="44.42837" lon="4.54086">
        <ele>350</ele>
        <time>29-03-2015T09:48:34Z</time>
      </trkpt>
      <trkpt lat="44.42835" lon="4.54095">
        <ele>350</ele>
        <time>29-03-2015T09:48:35Z</time>
      </trkpt>
      <trkpt lat="44.42833" lon="4.54104">
        <ele>350</ele>
        <time>29-03-2015T09:48:36Z</time>
      </trkpt>
      <trkpt lat="44.42829" lon="4.54113">
        <ele>350</ele>
        <time>29-03-2015T09:48:37Z</time>
      </trkpt>
      <trkpt lat="44.42826" lon="4.54122">
        <ele>350</ele>
        <time>29-03-2015T09:48:38Z</time>
      </trkpt>
      <trkpt lat="44.42823" lon="4.5413">
        <ele>350</ele>
        <time>29-03-2015T09:48:39Z</time>
      </trkpt>
      <trkpt lat="44.42819" lon="4.54141">
        <ele>350</ele>
        <time>29-03-2015T09:48:40Z</time>
      </trkpt>
      <trkpt lat="44.42816" lon="4.5415">
        <ele>350</ele>
        <time>29-03-2015T09:48:41Z</time>
      </trkpt>
      <trkpt lat="44.42813" lon="4.54158">
        <ele>350</ele>
        <time>29-03-2015T09:48:42Z</time>
      </trkpt>
      <trkpt lat="44.4281" lon="4.54168">
        <ele>350</ele>
        <time>29-03-2015T09:48:43Z</time>
      </trkpt>
      <trkpt lat="44.42807" lon="4.54177">
        <ele>350</ele>
        <time>29-03-2015T09:48:44Z</time>
      </trkpt>
      <trkpt lat="44.42805" lon="4.54185">
        <ele>350</ele>
        <time>29-03-2015T09:48:45Z</time>
      </trkpt>
      <trkpt lat="44.42803" lon="4.54193">
        <ele>350</ele>
        <time>29-03-2015T09:48:46Z</time>
      </trkpt>
      <trkpt lat="44.428" lon="4.54202">
        <ele>350</ele>
        <time>29-03-2015T09:48:47Z</time>
      </trkpt>
      <trkpt lat="44.42798" lon="4.5421">
        <ele>350</ele>
        <time>29-03-2015T09:48:48Z</time>
      </trkpt>
      <trkpt lat="44.42796" lon="4.54219">
        <ele>350</ele>
        <time>29-03-2015T09:48:49Z</time>
      </trkpt>
      <trkpt lat="44.42794" lon="4.54226">
        <ele>350</ele>
        <time>29-03-2015T09:48:50Z</time>
      </trkpt>
      <trkpt lat="44.42792" lon="4.54234">
        <ele>350</ele>
        <time>29-03-2015T09:48:51Z</time>
      </trkpt>
      <trkpt lat="44.4279" lon="4.54239">
        <ele>350</ele>
        <time>29-03-2015T09:48:52Z</time>
      </trkpt>
      <trkpt lat="44.42789" lon="4.54247">
        <ele>350</ele>
        <time>29-03-2015T09:48:53Z</time>
      </trkpt>
      <trkpt lat="44.42787" lon="4.54254">
        <ele>350</ele>
        <time>29-03-2015T09:48:54Z</time>
      </trkpt>
      <trkpt lat="44.42785" lon="4.54261">
        <ele>350</ele>
        <time>29-03-2015T09:48:55Z</time>
      </trkpt>
      <trkpt lat="44.42784" lon="4.54268">
        <ele>350</ele>
        <time>29-03-2015T09:48:56Z</time>
      </trkpt>
      <trkpt lat="44.42785" lon="4.54274">
        <ele>350</ele>
        <time>29-03-2015T09:48:57Z</time>
      </trkpt>
      <trkpt lat="44.42786" lon="4.54288">
        <ele>350</ele>
        <time>29-03-2015T09:48:59Z</time>
      </trkpt>
      <trkpt lat="44.42787" lon="4.54296">
        <ele>350</ele>
        <time>29-03-2015T09:49:00Z</time>
      </trkpt>
      <trkpt lat="44.42789" lon="4.54302">
        <ele>350</ele>
        <time>29-03-2015T09:49:01Z</time>
      </trkpt>
      <trkpt lat="44.42789" lon="4.54312">
        <ele>350</ele>
        <time>29-03-2015T09:49:02Z</time>
      </trkpt>
      <trkpt lat="44.4279" lon="4.54319">
        <ele>350</ele>
        <time>29-03-2015T09:49:03Z</time>
      </trkpt>
      <trkpt lat="44.42792" lon="4.54333">
        <ele>350</ele>
        <time>29-03-2015T09:49:05Z</time>
      </trkpt>
      <trkpt lat="44.42793" lon="4.5434">
        <ele>350</ele>
        <time>29-03-2015T09:49:06Z</time>
      </trkpt>
      <trkpt lat="44.42797" lon="4.54345">
        <ele>350</ele>
        <time>29-03-2015T09:49:07Z</time>
      </trkpt>
      <trkpt lat="44.42801" lon="4.5435">
        <ele>350</ele>
        <time>29-03-2015T09:49:08Z</time>
      </trkpt>
      <trkpt lat="44.42807" lon="4.54352">
        <ele>351</ele>
        <time>29-03-2015T09:49:09Z</time>
      </trkpt>
      <trkpt lat="44.42813" lon="4.54354">
        <ele>351</ele>
        <time>29-03-2015T09:49:10Z</time>
      </trkpt>
      <trkpt lat="44.4282" lon="4.54354">
        <ele>351</ele>
        <time>29-03-2015T09:49:11Z</time>
      </trkpt>
      <trkpt lat="44.42827" lon="4.54354">
        <ele>351</ele>
        <time>29-03-2015T09:49:12Z</time>
      </trkpt>
      <trkpt lat="44.42834" lon="4.54355">
        <ele>351</ele>
        <time>29-03-2015T09:49:13Z</time>
      </trkpt>
      <trkpt lat="44.42841" lon="4.54357">
        <ele>349</ele>
        <time>29-03-2015T09:49:14Z</time>
      </trkpt>
      <trkpt lat="44.42847" lon="4.54357">
        <ele>349</ele>
        <time>29-03-2015T09:49:15Z</time>
      </trkpt>
      <trkpt lat="44.42854" lon="4.5436">
        <ele>349</ele>
        <time>29-03-2015T09:49:16Z</time>
      </trkpt>
      <trkpt lat="44.42858" lon="4.54367">
        <ele>349</ele>
        <time>29-03-2015T09:49:17Z</time>
      </trkpt>
      <trkpt lat="44.4286" lon="4.54375">
        <ele>349</ele>
        <time>29-03-2015T09:49:18Z</time>
      </trkpt>
      <trkpt lat="44.42862" lon="4.54383">
        <ele>347</ele>
        <time>29-03-2015T09:49:19Z</time>
      </trkpt>
      <trkpt lat="44.42862" lon="4.54393">
        <ele>347</ele>
        <time>29-03-2015T09:49:20Z</time>
      </trkpt>
      <trkpt lat="44.42863" lon="4.54403">
        <ele>347</ele>
        <time>29-03-2015T09:49:21Z</time>
      </trkpt>
      <trkpt lat="44.42863" lon="4.54412">
        <ele>347</ele>
        <time>29-03-2015T09:49:22Z</time>
      </trkpt>
      <trkpt lat="44.42865" lon="4.54422">
        <ele>347</ele>
        <time>29-03-2015T09:49:23Z</time>
      </trkpt>
      <trkpt lat="44.42865" lon="4.5443">
        <ele>347</ele>
        <time>29-03-2015T09:49:24Z</time>
      </trkpt>
      <trkpt lat="44.42866" lon="4.54441">
        <ele>347</ele>
        <time>29-03-2015T09:49:25Z</time>
      </trkpt>
      <trkpt lat="44.42867" lon="4.54452">
        <ele>347</ele>
        <time>29-03-2015T09:49:26Z</time>
      </trkpt>
      <trkpt lat="44.42868" lon="4.54462">
        <ele>347</ele>
        <time>29-03-2015T09:49:27Z</time>
      </trkpt>
      <trkpt lat="44.4287" lon="4.54472">
        <ele>347</ele>
        <time>29-03-2015T09:49:28Z</time>
      </trkpt>
      <trkpt lat="44.4287" lon="4.54483">
        <ele>347</ele>
        <time>29-03-2015T09:49:29Z</time>
      </trkpt>
      <trkpt lat="44.42872" lon="4.54492">
        <ele>347</ele>
        <time>29-03-2015T09:49:30Z</time>
      </trkpt>
      <trkpt lat="44.42873" lon="4.54499">
        <ele>347</ele>
        <time>29-03-2015T09:49:31Z</time>
      </trkpt>
      <trkpt lat="44.42876" lon="4.54507">
        <ele>347</ele>
        <time>29-03-2015T09:49:32Z</time>
      </trkpt>
      <trkpt lat="44.4288" lon="4.54514">
        <ele>347</ele>
        <time>29-03-2015T09:49:33Z</time>
      </trkpt>
      <trkpt lat="44.42884" lon="4.54517">
        <ele>346</ele>
        <time>29-03-2015T09:49:34Z</time>
      </trkpt>
      <trkpt lat="44.42888" lon="4.54525">
        <ele>346</ele>
        <time>29-03-2015T09:49:36Z</time>
      </trkpt>
      <trkpt lat="44.42889" lon="4.54534">
        <ele>346</ele>
        <time>29-03-2015T09:49:38Z</time>
      </trkpt>
      <trkpt lat="44.42886" lon="4.54544">
        <ele>344</ele>
        <time>29-03-2015T09:49:40Z</time>
      </trkpt>
      <trkpt lat="44.42885" lon="4.5455">
        <ele>344</ele>
        <time>29-03-2015T09:49:41Z</time>
      </trkpt>
      <trkpt lat="44.42885" lon="4.54557">
        <ele>344</ele>
        <time>29-03-2015T09:49:42Z</time>
      </trkpt>
      <trkpt lat="44.42885" lon="4.54568">
        <ele>344</ele>
        <time>29-03-2015T09:49:44Z</time>
      </trkpt>
      <trkpt lat="44.42886" lon="4.5458">
        <ele>344</ele>
        <time>29-03-2015T09:49:46Z</time>
      </trkpt>
      <trkpt lat="44.42888" lon="4.54588">
        <ele>344</ele>
        <time>29-03-2015T09:49:47Z</time>
      </trkpt>
      <trkpt lat="44.42889" lon="4.54595">
        <ele>344</ele>
        <time>29-03-2015T09:49:48Z</time>
      </trkpt>
      <trkpt lat="44.4289" lon="4.54604">
        <ele>344</ele>
        <time>29-03-2015T09:49:49Z</time>
      </trkpt>
      <trkpt lat="44.42891" lon="4.54611">
        <ele>344</ele>
        <time>29-03-2015T09:49:50Z</time>
      </trkpt>
      <trkpt lat="44.42893" lon="4.54617">
        <ele>344</ele>
        <time>29-03-2015T09:49:51Z</time>
      </trkpt>
      <trkpt lat="44.42893" lon="4.54625">
        <ele>344</ele>
        <time>29-03-2015T09:49:52Z</time>
      </trkpt>
      <trkpt lat="44.42896" lon="4.54633">
        <ele>344</ele>
        <time>29-03-2015T09:49:53Z</time>
      </trkpt>
      <trkpt lat="44.42896" lon="4.5464">
        <ele>344</ele>
        <time>29-03-2015T09:49:54Z</time>
      </trkpt>
      <trkpt lat="44.42898" lon="4.54647">
        <ele>344</ele>
        <time>29-03-2015T09:49:55Z</time>
      </trkpt>
      <trkpt lat="44.429" lon="4.54654">
        <ele>344</ele>
        <time>29-03-2015T09:49:56Z</time>
      </trkpt>
      <trkpt lat="44.42901" lon="4.54663">
        <ele>344</ele>
        <time>29-03-2015T09:49:57Z</time>
      </trkpt>
      <trkpt lat="44.42902" lon="4.5467">
        <ele>344</ele>
        <time>29-03-2015T09:49:58Z</time>
      </trkpt>
      <trkpt lat="44.42905" lon="4.54677">
        <ele>344</ele>
        <time>29-03-2015T09:49:59Z</time>
      </trkpt>
      <trkpt lat="44.42907" lon="4.54685">
        <ele>344</ele>
        <time>29-03-2015T09:50:00Z</time>
      </trkpt>
      <trkpt lat="44.4291" lon="4.54694">
        <ele>344</ele>
        <time>29-03-2015T09:50:01Z</time>
      </trkpt>
      <trkpt lat="44.42913" lon="4.547">
        <ele>344</ele>
        <time>29-03-2015T09:50:02Z</time>
      </trkpt>
      <trkpt lat="44.42915" lon="4.54707">
        <ele>344</ele>
        <time>29-03-2015T09:50:03Z</time>
      </trkpt>
      <trkpt lat="44.42918" lon="4.54714">
        <ele>344</ele>
        <time>29-03-2015T09:50:04Z</time>
      </trkpt>
      <trkpt lat="44.42923" lon="4.5472">
        <ele>344</ele>
        <time>29-03-2015T09:50:05Z</time>
      </trkpt>
      <trkpt lat="44.42926" lon="4.54728">
        <ele>344</ele>
        <time>29-03-2015T09:50:06Z</time>
      </trkpt>
      <trkpt lat="44.42928" lon="4.54735">
        <ele>344</ele>
        <time>29-03-2015T09:50:07Z</time>
      </trkpt>
      <trkpt lat="44.42932" lon="4.54744">
        <ele>344</ele>
        <time>29-03-2015T09:50:08Z</time>
      </trkpt>
      <trkpt lat="44.42935" lon="4.54753">
        <ele>342</ele>
        <time>29-03-2015T09:50:09Z</time>
      </trkpt>
      <trkpt lat="44.42938" lon="4.54759">
        <ele>342</ele>
        <time>29-03-2015T09:50:10Z</time>
      </trkpt>
      <trkpt lat="44.42941" lon="4.54768">
        <ele>342</ele>
        <time>29-03-2015T09:50:11Z</time>
      </trkpt>
      <trkpt lat="44.42944" lon="4.54778">
        <ele>342</ele>
        <time>29-03-2015T09:50:12Z</time>
      </trkpt>
      <trkpt lat="44.42948" lon="4.54786">
        <ele>342</ele>
        <time>29-03-2015T09:50:13Z</time>
      </trkpt>
      <trkpt lat="44.42951" lon="4.54794">
        <ele>341</ele>
        <time>29-03-2015T09:50:14Z</time>
      </trkpt>
      <trkpt lat="44.42953" lon="4.54803">
        <ele>341</ele>
        <time>29-03-2015T09:50:15Z</time>
      </trkpt>
      <trkpt lat="44.42954" lon="4.54813">
        <ele>341</ele>
        <time>29-03-2015T09:50:16Z</time>
      </trkpt>
      <trkpt lat="44.42954" lon="4.54825">
        <ele>341</ele>
        <time>29-03-2015T09:50:17Z</time>
      </trkpt>
      <trkpt lat="44.42954" lon="4.54835">
        <ele>341</ele>
        <time>29-03-2015T09:50:18Z</time>
      </trkpt>
      <trkpt lat="44.42953" lon="4.54846">
        <ele>340</ele>
        <time>29-03-2015T09:50:19Z</time>
      </trkpt>
      <trkpt lat="44.42952" lon="4.54856">
        <ele>340</ele>
        <time>29-03-2015T09:50:20Z</time>
      </trkpt>
      <trkpt lat="44.42953" lon="4.54864">
        <ele>340</ele>
        <time>29-03-2015T09:50:21Z</time>
      </trkpt>
      <trkpt lat="44.42951" lon="4.54873">
        <ele>340</ele>
        <time>29-03-2015T09:50:22Z</time>
      </trkpt>
      <trkpt lat="44.42951" lon="4.54883">
        <ele>340</ele>
        <time>29-03-2015T09:50:23Z</time>
      </trkpt>
      <trkpt lat="44.42951" lon="4.54893">
        <ele>340</ele>
        <time>29-03-2015T09:50:24Z</time>
      </trkpt>
      <trkpt lat="44.42951" lon="4.54903">
        <ele>340</ele>
        <time>29-03-2015T09:50:25Z</time>
      </trkpt>
      <trkpt lat="44.42951" lon="4.54911">
        <ele>340</ele>
        <time>29-03-2015T09:50:26Z</time>
      </trkpt>
      <trkpt lat="44.42952" lon="4.54919">
        <ele>340</ele>
        <time>29-03-2015T09:50:27Z</time>
      </trkpt>
      <trkpt lat="44.42951" lon="4.54928">
        <ele>340</ele>
        <time>29-03-2015T09:50:28Z</time>
      </trkpt>
      <trkpt lat="44.4295" lon="4.54939">
        <ele>339</ele>
        <time>29-03-2015T09:50:29Z</time>
      </trkpt>
      <trkpt lat="44.42949" lon="4.54949">
        <ele>339</ele>
        <time>29-03-2015T09:50:30Z</time>
      </trkpt>
      <trkpt lat="44.42949" lon="4.54958">
        <ele>339</ele>
        <time>29-03-2015T09:50:31Z</time>
      </trkpt>
      <trkpt lat="44.4295" lon="4.54967">
        <ele>339</ele>
        <time>29-03-2015T09:50:32Z</time>
      </trkpt>
      <trkpt lat="44.42949" lon="4.54979">
        <ele>339</ele>
        <time>29-03-2015T09:50:33Z</time>
      </trkpt>
      <trkpt lat="44.42948" lon="4.5499">
        <ele>339</ele>
        <time>29-03-2015T09:50:34Z</time>
      </trkpt>
      <trkpt lat="44.42948" lon="4.55">
        <ele>339</ele>
        <time>29-03-2015T09:50:35Z</time>
      </trkpt>
      <trkpt lat="44.42948" lon="4.55012">
        <ele>339</ele>
        <time>29-03-2015T09:50:36Z</time>
      </trkpt>
      <trkpt lat="44.42947" lon="4.55024">
        <ele>339</ele>
        <time>29-03-2015T09:50:37Z</time>
      </trkpt>
      <trkpt lat="44.42947" lon="4.55032">
        <ele>339</ele>
        <time>29-03-2015T09:50:38Z</time>
      </trkpt>
      <trkpt lat="44.42947" lon="4.55041">
        <ele>339</ele>
        <time>29-03-2015T09:50:39Z</time>
      </trkpt>
      <trkpt lat="44.42945" lon="4.55051">
        <ele>339</ele>
        <time>29-03-2015T09:50:40Z</time>
      </trkpt>
      <trkpt lat="44.42945" lon="4.55058">
        <ele>339</ele>
        <time>29-03-2015T09:50:41Z</time>
      </trkpt>
      <trkpt lat="44.42944" lon="4.55067">
        <ele>339</ele>
        <time>29-03-2015T09:50:42Z</time>
      </trkpt>
      <trkpt lat="44.42945" lon="4.55075">
        <ele>339</ele>
        <time>29-03-2015T09:50:43Z</time>
      </trkpt>
      <trkpt lat="44.42945" lon="4.55085">
        <ele>339</ele>
        <time>29-03-2015T09:50:44Z</time>
      </trkpt>
      <trkpt lat="44.42945" lon="4.55092">
        <ele>339</ele>
        <time>29-03-2015T09:50:45Z</time>
      </trkpt>
      <trkpt lat="44.42944" lon="4.55101">
        <ele>339</ele>
        <time>29-03-2015T09:50:46Z</time>
      </trkpt>
      <trkpt lat="44.42946" lon="4.55107">
        <ele>339</ele>
        <time>29-03-2015T09:50:47Z</time>
      </trkpt>
      <trkpt lat="44.42951" lon="4.55112">
        <ele>339</ele>
        <time>29-03-2015T09:50:49Z</time>
      </trkpt>
      <trkpt lat="44.42959" lon="4.55117">
        <ele>339</ele>
        <time>29-03-2015T09:50:51Z</time>
      </trkpt>
      <trkpt lat="44.42966" lon="4.55118">
        <ele>339</ele>
        <time>29-03-2015T09:50:53Z</time>
      </trkpt>
      <trkpt lat="44.42969" lon="4.55124">
        <ele>338</ele>
        <time>29-03-2015T09:50:55Z</time>
      </trkpt>
      <trkpt lat="44.4297" lon="4.55132">
        <ele>338</ele>
        <time>29-03-2015T09:50:58Z</time>
      </trkpt>
      <trkpt lat="44.42968" lon="4.55138">
        <ele>338</ele>
        <time>29-03-2015T09:51:00Z</time>
      </trkpt>
      <trkpt lat="44.42969" lon="4.55138">
        <ele>339</ele>
        <time>29-03-2015T09:51:05Z</time>
      </trkpt>
      <trkpt lat="44.42971" lon="4.55144">
        <ele>339</ele>
        <time>29-03-2015T09:51:10Z</time>
      </trkpt>
      <trkpt lat="44.42971" lon="4.55145">
        <ele>339</ele>
        <time>29-03-2015T09:51:15Z</time>
      </trkpt>
      <trkpt lat="44.42971" lon="4.55141">
        <ele>339</ele>
        <time>29-03-2015T09:51:20Z</time>
      </trkpt>
      <trkpt lat="44.42971" lon="4.55141">
        <ele>339</ele>
        <time>29-03-2015T09:51:25Z</time>
      </trkpt>
      <trkpt lat="44.42967" lon="4.5514">
        <ele>339</ele>
        <time>29-03-2015T09:51:30Z</time>
      </trkpt>
      <trkpt lat="44.42966" lon="4.5514">
        <ele>339</ele>
        <time>29-03-2015T09:51:35Z</time>
      </trkpt>
      <trkpt lat="44.42968" lon="4.5514">
        <ele>339</ele>
        <time>29-03-2015T09:51:40Z</time>
      </trkpt>
      <trkpt lat="44.42968" lon="4.55141">
        <ele>339</ele>
        <time>29-03-2015T09:51:45Z</time>
      </trkpt>
      <trkpt lat="44.42967" lon="4.55145">
        <ele>338</ele>
        <time>29-03-2015T09:51:50Z</time>
      </trkpt>
      <trkpt lat="44.42969" lon="4.55145">
        <ele>338</ele>
        <time>29-03-2015T09:51:55Z</time>
      </trkpt>
      <trkpt lat="44.42969" lon="4.55144">
        <ele>338</ele>
        <time>29-03-2015T09:52:05Z</time>
      </trkpt>
      <trkpt lat="44.42969" lon="4.55144">
        <ele>338</ele>
        <time>29-03-2015T09:52:10Z</time>
      </trkpt>
      <trkpt lat="44.42969" lon="4.55144">
        <ele>338</ele>
        <time>29-03-2015T09:52:15Z</time>
      </trkpt>
      <trkpt lat="44.42969" lon="4.55144">
        <ele>337</ele>
        <time>29-03-2015T09:52:20Z</time>
      </trkpt>
      <trkpt lat="44.42969" lon="4.55144">
        <ele>337</ele>
        <time>29-03-2015T09:52:25Z</time>
      </trkpt>
      <trkpt lat="44.42967" lon="4.5515">
        <ele>337</ele>
        <time>29-03-2015T09:52:30Z</time>
      </trkpt>
      <trkpt lat="44.42966" lon="4.55147">
        <ele>337</ele>
        <time>29-03-2015T09:52:35Z</time>
      </trkpt>
      <trkpt lat="44.42967" lon="4.55143">
        <ele>337</ele>
        <time>29-03-2015T09:52:40Z</time>
      </trkpt>
      <trkpt lat="44.42968" lon="4.5514">
        <ele>337</ele>
        <time>29-03-2015T09:52:45Z</time>
      </trkpt>
      <trkpt lat="44.42968" lon="4.55143">
        <ele>337</ele>
        <time>29-03-2015T09:52:50Z</time>
      </trkpt>
      <trkpt lat="44.42968" lon="4.55143">
        <ele>337</ele>
        <time>29-03-2015T09:52:55Z</time>
      </trkpt>
      <trkpt lat="44.42968" lon="4.55143">
        <ele>337</ele>
        <time>29-03-2015T09:53:00Z</time>
      </trkpt>
      <trkpt lat="44.42966" lon="4.55145">
        <ele>338</ele>
        <time>29-03-2015T09:53:05Z</time>
      </trkpt>
      <trkpt lat="44.42967" lon="4.55144">
        <ele>338</ele>
        <time>29-03-2015T09:53:10Z</time>
      </trkpt>
      <trkpt lat="44.42969" lon="4.55142">
        <ele>338</ele>
        <time>29-03-2015T09:53:15Z</time>
      </trkpt>
      <trkpt lat="44.4297" lon="4.55141">
        <ele>338</ele>
        <time>29-03-2015T09:53:20Z</time>
      </trkpt>
      <trkpt lat="44.42969" lon="4.55141">
        <ele>338</ele>
        <time>29-03-2015T09:53:25Z</time>
      </trkpt>
      <trkpt lat="44.42969" lon="4.55139">
        <ele>338</ele>
        <time>29-03-2015T09:53:30Z</time>
      </trkpt>
      <trkpt lat="44.42973" lon="4.55142">
        <ele>338</ele>
        <time>29-03-2015T09:53:35Z</time>
      </trkpt>
      <trkpt lat="44.42975" lon="4.55142">
        <ele>338</ele>
        <time>29-03-2015T09:53:40Z</time>
      </trkpt>
      <trkpt lat="44.42974" lon="4.55144">
        <ele>338</ele>
        <time>29-03-2015T09:53:45Z</time>
      </trkpt>
      <trkpt lat="44.42974" lon="4.55142">
        <ele>337</ele>
        <time>29-03-2015T09:53:50Z</time>
      </trkpt>
      <trkpt lat="44.42976" lon="4.55141">
        <ele>337</ele>
        <time>29-03-2015T09:53:55Z</time>
      </trkpt>
      <trkpt lat="44.42977" lon="4.55142">
        <ele>338</ele>
        <time>29-03-2015T09:54:00Z</time>
      </trkpt>
      <trkpt lat="44.42975" lon="4.5514">
        <ele>338</ele>
        <time>29-03-2015T09:54:05Z</time>
      </trkpt>
      <trkpt lat="44.42976" lon="4.5514">
        <ele>337</ele>
        <time>29-03-2015T09:54:10Z</time>
      </trkpt>
      <trkpt lat="44.42975" lon="4.5514">
        <ele>337</ele>
        <time>29-03-2015T09:54:15Z</time>
      </trkpt>
      <trkpt lat="44.42975" lon="4.5514">
        <ele>337</ele>
        <time>29-03-2015T09:54:20Z</time>
      </trkpt>
      <trkpt lat="44.42975" lon="4.5514">
        <ele>337</ele>
        <time>29-03-2015T09:54:25Z</time>
      </trkpt>
      <trkpt lat="44.42975" lon="4.5514">
        <ele>337</ele>
        <time>29-03-2015T09:54:30Z</time>
      </trkpt>
      <trkpt lat="44.42973" lon="4.55141">
        <ele>337</ele>
        <time>29-03-2015T09:54:35Z</time>
      </trkpt>
      <trkpt lat="44.42972" lon="4.55141">
        <ele>337</ele>
        <time>29-03-2015T09:54:40Z</time>
      </trkpt>
      <trkpt lat="44.42968" lon="4.55144">
        <ele>337</ele>
        <time>29-03-2015T09:54:45Z</time>
      </trkpt>
      <trkpt lat="44.42967" lon="4.55139">
        <ele>337</ele>
        <time>29-03-2015T09:54:50Z</time>
      </trkpt>
      <trkpt lat="44.42964" lon="4.55138">
        <ele>337</ele>
        <time>29-03-2015T09:54:55Z</time>
      </trkpt>
      <trkpt lat="44.42966" lon="4.5514">
        <ele>337</ele>
        <time>29-03-2015T09:55:00Z</time>
      </trkpt>
      <trkpt lat="44.42968" lon="4.5514">
        <ele>337</ele>
        <time>29-03-2015T09:55:05Z</time>
      </trkpt>
      <trkpt lat="44.42972" lon="4.55143">
        <ele>337</ele>
        <time>29-03-2015T09:55:10Z</time>
      </trkpt>
      <trkpt lat="44.42969" lon="4.55142">
        <ele>337</ele>
        <time>29-03-2015T09:55:15Z</time>
      </trkpt>
      <trkpt lat="44.42968" lon="4.55144">
        <ele>337</ele>
        <time>29-03-2015T09:55:20Z</time>
      </trkpt>
      <trkpt lat="44.42967" lon="4.55145">
        <ele>337</ele>
        <time>29-03-2015T09:55:25Z</time>
      </trkpt>
      <trkpt lat="44.42967" lon="4.55145">
        <ele>337</ele>
        <time>29-03-2015T09:55:30Z</time>
      </trkpt>
      <trkpt lat="44.4297" lon="4.5514">
        <ele>337</ele>
        <time>29-03-2015T09:55:35Z</time>
      </trkpt>
      <trkpt lat="44.4297" lon="4.55139">
        <ele>337</ele>
        <time>29-03-2015T09:55:40Z</time>
      </trkpt>
      <trkpt lat="44.42971" lon="4.55138">
        <ele>337</ele>
        <time>29-03-2015T09:55:45Z</time>
      </trkpt>
      <trkpt lat="44.42971" lon="4.55138">
        <ele>337</ele>
        <time>29-03-2015T09:55:50Z</time>
      </trkpt>
      <trkpt lat="44.42971" lon="4.55137">
        <ele>337</ele>
        <time>29-03-2015T09:55:55Z</time>
      </trkpt>
      <trkpt lat="44.42972" lon="4.55137">
        <ele>338</ele>
        <time>29-03-2015T09:56:00Z</time>
      </trkpt>
      <trkpt lat="44.42971" lon="4.55138">
        <ele>338</ele>
        <time>29-03-2015T09:56:05Z</time>
      </trkpt>
      <trkpt lat="44.42975" lon="4.55136">
        <ele>338</ele>
        <time>29-03-2015T09:56:10Z</time>
      </trkpt>
      <trkpt lat="44.42978" lon="4.55129">
        <ele>338</ele>
        <time>29-03-2015T09:56:12Z</time>
      </trkpt>
      <trkpt lat="44.42984" lon="4.55123">
        <ele>338</ele>
        <time>29-03-2015T09:56:14Z</time>
      </trkpt>
      <trkpt lat="44.42987" lon="4.55119">
        <ele>338</ele>
        <time>29-03-2015T09:56:15Z</time>
      </trkpt>
      <trkpt lat="44.42995" lon="4.55114">
        <ele>338</ele>
        <time>29-03-2015T09:56:17Z</time>
      </trkpt>
      <trkpt lat="44.43003" lon="4.55113">
        <ele>338</ele>
        <time>29-03-2015T09:56:18Z</time>
      </trkpt>
      <trkpt lat="44.43008" lon="4.55112">
        <ele>339</ele>
        <time>29-03-2015T09:56:19Z</time>
      </trkpt>
      <trkpt lat="44.43013" lon="4.55111">
        <ele>339</ele>
        <time>29-03-2015T09:56:20Z</time>
      </trkpt>
      <trkpt lat="44.43018" lon="4.55111">
        <ele>339</ele>
        <time>29-03-2015T09:56:21Z</time>
      </trkpt>
      <trkpt lat="44.43023" lon="4.55112">
        <ele>339</ele>
        <time>29-03-2015T09:56:22Z</time>
      </trkpt>
      <trkpt lat="44.43027" lon="4.55116">
        <ele>339</ele>
        <time>29-03-2015T09:56:23Z</time>
      </trkpt>
      <trkpt lat="44.43032" lon="4.55116">
        <ele>339</ele>
        <time>29-03-2015T09:56:24Z</time>
      </trkpt>
      <trkpt lat="44.4304" lon="4.55117">
        <ele>339</ele>
        <time>29-03-2015T09:56:26Z</time>
      </trkpt>
      <trkpt lat="44.43048" lon="4.55121">
        <ele>339</ele>
        <time>29-03-2015T09:56:28Z</time>
      </trkpt>
      <trkpt lat="44.43053" lon="4.55122">
        <ele>339</ele>
        <time>29-03-2015T09:56:29Z</time>
      </trkpt>
      <trkpt lat="44.43058" lon="4.55123">
        <ele>339</ele>
        <time>29-03-2015T09:56:30Z</time>
      </trkpt>
      <trkpt lat="44.43063" lon="4.55125">
        <ele>339</ele>
        <time>29-03-2015T09:56:31Z</time>
      </trkpt>
      <trkpt lat="44.43068" lon="4.55126">
        <ele>339</ele>
        <time>29-03-2015T09:56:32Z</time>
      </trkpt>
      <trkpt lat="44.43073" lon="4.55128">
        <ele>339</ele>
        <time>29-03-2015T09:56:33Z</time>
      </trkpt>
      <trkpt lat="44.43078" lon="4.5513">
        <ele>339</ele>
        <time>29-03-2015T09:56:34Z</time>
      </trkpt>
      <trkpt lat="44.43084" lon="4.5513">
        <ele>339</ele>
        <time>29-03-2015T09:56:35Z</time>
      </trkpt>
      <trkpt lat="44.43089" lon="4.55131">
        <ele>339</ele>
        <time>29-03-2015T09:56:36Z</time>
      </trkpt>
      <trkpt lat="44.43094" lon="4.55132">
        <ele>339</ele>
        <time>29-03-2015T09:56:37Z</time>
      </trkpt>
      <trkpt lat="44.43099" lon="4.55135">
        <ele>339</ele>
        <time>29-03-2015T09:56:38Z</time>
      </trkpt>
      <trkpt lat="44.43105" lon="4.55138">
        <ele>339</ele>
        <time>29-03-2015T09:56:39Z</time>
      </trkpt>
      <trkpt lat="44.43112" lon="4.55145">
        <ele>339</ele>
        <time>29-03-2015T09:56:41Z</time>
      </trkpt>
      <trkpt lat="44.43117" lon="4.55147">
        <ele>339</ele>
        <time>29-03-2015T09:56:42Z</time>
      </trkpt>
      <trkpt lat="44.4312" lon="4.55153">
        <ele>339</ele>
        <time>29-03-2015T09:56:43Z</time>
      </trkpt>
      <trkpt lat="44.43127" lon="4.55162">
        <ele>339</ele>
        <time>29-03-2015T09:56:45Z</time>
      </trkpt>
      <trkpt lat="44.43131" lon="4.55165">
        <ele>339</ele>
        <time>29-03-2015T09:56:46Z</time>
      </trkpt>
      <trkpt lat="44.43134" lon="4.55171">
        <ele>339</ele>
        <time>29-03-2015T09:56:47Z</time>
      </trkpt>
      <trkpt lat="44.4314" lon="4.5518">
        <ele>339</ele>
        <time>29-03-2015T09:56:49Z</time>
      </trkpt>
      <trkpt lat="44.43144" lon="4.55183">
        <ele>339</ele>
        <time>29-03-2015T09:56:50Z</time>
      </trkpt>
      <trkpt lat="44.43147" lon="4.55188">
        <ele>339</ele>
        <time>29-03-2015T09:56:51Z</time>
      </trkpt>
      <trkpt lat="44.43154" lon="4.55197">
        <ele>339</ele>
        <time>29-03-2015T09:56:53Z</time>
      </trkpt>
      <trkpt lat="44.43157" lon="4.552">
        <ele>339</ele>
        <time>29-03-2015T09:56:54Z</time>
      </trkpt>
      <trkpt lat="44.43163" lon="4.55208">
        <ele>339</ele>
        <time>29-03-2015T09:56:56Z</time>
      </trkpt>
      <trkpt lat="44.43167" lon="4.55212">
        <ele>339</ele>
        <time>29-03-2015T09:56:57Z</time>
      </trkpt>
      <trkpt lat="44.43175" lon="4.5522">
        <ele>339</ele>
        <time>29-03-2015T09:56:59Z</time>
      </trkpt>
      <trkpt lat="44.43178" lon="4.55223">
        <ele>339</ele>
        <time>29-03-2015T09:57:00Z</time>
      </trkpt>
      <trkpt lat="44.43182" lon="4.55227">
        <ele>339</ele>
        <time>29-03-2015T09:57:01Z</time>
      </trkpt>
      <trkpt lat="44.43186" lon="4.55231">
        <ele>339</ele>
        <time>29-03-2015T09:57:02Z</time>
      </trkpt>
      <trkpt lat="44.4319" lon="4.55234">
        <ele>339</ele>
        <time>29-03-2015T09:57:03Z</time>
      </trkpt>
      <trkpt lat="44.43194" lon="4.55238">
        <ele>339</ele>
        <time>29-03-2015T09:57:04Z</time>
      </trkpt>
      <trkpt lat="44.43202" lon="4.55245">
        <ele>339</ele>
        <time>29-03-2015T09:57:06Z</time>
      </trkpt>
      <trkpt lat="44.43209" lon="4.55251">
        <ele>339</ele>
        <time>29-03-2015T09:57:08Z</time>
      </trkpt>
      <trkpt lat="44.43217" lon="4.55256">
        <ele>340</ele>
        <time>29-03-2015T09:57:10Z</time>
      </trkpt>
      <trkpt lat="44.43226" lon="4.55262">
        <ele>340</ele>
        <time>29-03-2015T09:57:12Z</time>
      </trkpt>
      <trkpt lat="44.43234" lon="4.55265">
        <ele>340</ele>
        <time>29-03-2015T09:57:14Z</time>
      </trkpt>
      <trkpt lat="44.43242" lon="4.55267">
        <ele>340</ele>
        <time>29-03-2015T09:57:16Z</time>
      </trkpt>
      <trkpt lat="44.43246" lon="4.55268">
        <ele>340</ele>
        <time>29-03-2015T09:57:17Z</time>
      </trkpt>
      <trkpt lat="44.43251" lon="4.55268">
        <ele>340</ele>
        <time>29-03-2015T09:57:18Z</time>
      </trkpt>
      <trkpt lat="44.4326" lon="4.55268">
        <ele>340</ele>
        <time>29-03-2015T09:57:20Z</time>
      </trkpt>
      <trkpt lat="44.43266" lon="4.55266">
        <ele>340</ele>
        <time>29-03-2015T09:57:21Z</time>
      </trkpt>
      <trkpt lat="44.4327" lon="4.55264">
        <ele>340</ele>
        <time>29-03-2015T09:57:22Z</time>
      </trkpt>
      <trkpt lat="44.43277" lon="4.55262">
        <ele>340</ele>
        <time>29-03-2015T09:57:23Z</time>
      </trkpt>
      <trkpt lat="44.43282" lon="4.55259">
        <ele>340</ele>
        <time>29-03-2015T09:57:24Z</time>
      </trkpt>
      <trkpt lat="44.43287" lon="4.55256">
        <ele>340</ele>
        <time>29-03-2015T09:57:25Z</time>
      </trkpt>
      <trkpt lat="44.43295" lon="4.55251">
        <ele>340</ele>
        <time>29-03-2015T09:57:27Z</time>
      </trkpt>
      <trkpt lat="44.43301" lon="4.55248">
        <ele>341</ele>
        <time>29-03-2015T09:57:29Z</time>
      </trkpt>
      <trkpt lat="44.43308" lon="4.55245">
        <ele>341</ele>
        <time>29-03-2015T09:57:31Z</time>
      </trkpt>
      <trkpt lat="44.43315" lon="4.5524">
        <ele>341</ele>
        <time>29-03-2015T09:57:33Z</time>
      </trkpt>
      <trkpt lat="44.43322" lon="4.55237">
        <ele>342</ele>
        <time>29-03-2015T09:57:35Z</time>
      </trkpt>
      <trkpt lat="44.4333" lon="4.5523">
        <ele>342</ele>
        <time>29-03-2015T09:57:37Z</time>
      </trkpt>
      <trkpt lat="44.43334" lon="4.55227">
        <ele>342</ele>
        <time>29-03-2015T09:57:38Z</time>
      </trkpt>
      <trkpt lat="44.43338" lon="4.55221">
        <ele>341</ele>
        <time>29-03-2015T09:57:39Z</time>
      </trkpt>
      <trkpt lat="44.43344" lon="4.55217">
        <ele>341</ele>
        <time>29-03-2015T09:57:40Z</time>
      </trkpt>
      <trkpt lat="44.4335" lon="4.55213">
        <ele>341</ele>
        <time>29-03-2015T09:57:42Z</time>
      </trkpt>
      <trkpt lat="44.43357" lon="4.5521">
        <ele>341</ele>
        <time>29-03-2015T09:57:45Z</time>
      </trkpt>
      <trkpt lat="44.43362" lon="4.55206">
        <ele>341</ele>
        <time>29-03-2015T09:57:47Z</time>
      </trkpt>
      <trkpt lat="44.43366" lon="4.55202">
        <ele>341</ele>
        <time>29-03-2015T09:57:49Z</time>
      </trkpt>
      <trkpt lat="44.43368" lon="4.55192">
        <ele>341</ele>
        <time>29-03-2015T09:57:51Z</time>
      </trkpt>
      <trkpt lat="44.43373" lon="4.55183">
        <ele>341</ele>
        <time>29-03-2015T09:57:53Z</time>
      </trkpt>
      <trkpt lat="44.43377" lon="4.55176">
        <ele>341</ele>
        <time>29-03-2015T09:57:55Z</time>
      </trkpt>
      <trkpt lat="44.43382" lon="4.55168">
        <ele>341</ele>
        <time>29-03-2015T09:57:57Z</time>
      </trkpt>
      <trkpt lat="44.43389" lon="4.5516">
        <ele>341</ele>
        <time>29-03-2015T09:57:59Z</time>
      </trkpt>
      <trkpt lat="44.43396" lon="4.55153">
        <ele>341</ele>
        <time>29-03-2015T09:58:01Z</time>
      </trkpt>
      <trkpt lat="44.43396" lon="4.5515">
        <ele>338</ele>
        <time>29-03-2015T09:58:06Z</time>
      </trkpt>
      <trkpt lat="44.43398" lon="4.55156">
        <ele>339</ele>
        <time>29-03-2015T09:58:09Z</time>
      </trkpt>
      <trkpt lat="44.43402" lon="4.55162">
        <ele>339</ele>
        <time>29-03-2015T09:58:11Z</time>
      </trkpt>
      <trkpt lat="44.4341" lon="4.55165">
        <ele>339</ele>
        <time>29-03-2015T09:58:13Z</time>
      </trkpt>
      <trkpt lat="44.43414" lon="4.55168">
        <ele>339</ele>
        <time>29-03-2015T09:58:14Z</time>
      </trkpt>
      <trkpt lat="44.43418" lon="4.55173">
        <ele>339</ele>
        <time>29-03-2015T09:58:15Z</time>
      </trkpt>
      <trkpt lat="44.43424" lon="4.55177">
        <ele>339</ele>
        <time>29-03-2015T09:58:16Z</time>
      </trkpt>
      <trkpt lat="44.4343" lon="4.55177">
        <ele>339</ele>
        <time>29-03-2015T09:58:17Z</time>
      </trkpt>
      <trkpt lat="44.43436" lon="4.55177">
        <ele>339</ele>
        <time>29-03-2015T09:58:18Z</time>
      </trkpt>
      <trkpt lat="44.43444" lon="4.55174">
        <ele>340</ele>
        <time>29-03-2015T09:58:20Z</time>
      </trkpt>
      <trkpt lat="44.43453" lon="4.5517">
        <ele>340</ele>
        <time>29-03-2015T09:58:22Z</time>
      </trkpt>
      <trkpt lat="44.43458" lon="4.55168">
        <ele>340</ele>
        <time>29-03-2015T09:58:23Z</time>
      </trkpt>
      <trkpt lat="44.43466" lon="4.55161">
        <ele>342</ele>
        <time>29-03-2015T09:58:25Z</time>
      </trkpt>
      <trkpt lat="44.4347" lon="4.55156">
        <ele>342</ele>
        <time>29-03-2015T09:58:26Z</time>
      </trkpt>
      <trkpt lat="44.43475" lon="4.55154">
        <ele>342</ele>
        <time>29-03-2015T09:58:27Z</time>
      </trkpt>
      <trkpt lat="44.43479" lon="4.55149">
        <ele>342</ele>
        <time>29-03-2015T09:58:28Z</time>
      </trkpt>
      <trkpt lat="44.43483" lon="4.55145">
        <ele>345</ele>
        <time>29-03-2015T09:58:29Z</time>
      </trkpt>
      <trkpt lat="44.4349" lon="4.55142">
        <ele>345</ele>
        <time>29-03-2015T09:58:31Z</time>
      </trkpt>
      <trkpt lat="44.43497" lon="4.5514">
        <ele>345</ele>
        <time>29-03-2015T09:58:33Z</time>
      </trkpt>
      <trkpt lat="44.43505" lon="4.55134">
        <ele>345</ele>
        <time>29-03-2015T09:58:35Z</time>
      </trkpt>
      <trkpt lat="44.4351" lon="4.5513">
        <ele>345</ele>
        <time>29-03-2015T09:58:36Z</time>
      </trkpt>
      <trkpt lat="44.43514" lon="4.55127">
        <ele>345</ele>
        <time>29-03-2015T09:58:37Z</time>
      </trkpt>
      <trkpt lat="44.43521" lon="4.55121">
        <ele>345</ele>
        <time>29-03-2015T09:58:39Z</time>
      </trkpt>
      <trkpt lat="44.43527" lon="4.55116">
        <ele>345</ele>
        <time>29-03-2015T09:58:41Z</time>
      </trkpt>
      <trkpt lat="44.43533" lon="4.55111">
        <ele>345</ele>
        <time>29-03-2015T09:58:43Z</time>
      </trkpt>
      <trkpt lat="44.43537" lon="4.55107">
        <ele>345</ele>
        <time>29-03-2015T09:58:44Z</time>
      </trkpt>
      <trkpt lat="44.43544" lon="4.55102">
        <ele>345</ele>
        <time>29-03-2015T09:58:46Z</time>
      </trkpt>
      <trkpt lat="44.4355" lon="4.55099">
        <ele>345</ele>
        <time>29-03-2015T09:58:48Z</time>
      </trkpt>
      <trkpt lat="44.43555" lon="4.55094">
        <ele>347</ele>
        <time>29-03-2015T09:58:50Z</time>
      </trkpt>
      <trkpt lat="44.43563" lon="4.55089">
        <ele>347</ele>
        <time>29-03-2015T09:58:52Z</time>
      </trkpt>
      <trkpt lat="44.43568" lon="4.55086">
        <ele>347</ele>
        <time>29-03-2015T09:58:53Z</time>
      </trkpt>
      <trkpt lat="44.43572" lon="4.55084">
        <ele>347</ele>
        <time>29-03-2015T09:58:54Z</time>
      </trkpt>
      <trkpt lat="44.43577" lon="4.55086">
        <ele>347</ele>
        <time>29-03-2015T09:58:56Z</time>
      </trkpt>
      <trkpt lat="44.43585" lon="4.55086">
        <ele>347</ele>
        <time>29-03-2015T09:58:58Z</time>
      </trkpt>
      <trkpt lat="44.43589" lon="4.55085">
        <ele>348</ele>
        <time>29-03-2015T09:58:59Z</time>
      </trkpt>
      <trkpt lat="44.43594" lon="4.55083">
        <ele>348</ele>
        <time>29-03-2015T09:59:00Z</time>
      </trkpt>
      <trkpt lat="44.43602" lon="4.55082">
        <ele>348</ele>
        <time>29-03-2015T09:59:02Z</time>
      </trkpt>
      <trkpt lat="44.43608" lon="4.55084">
        <ele>348</ele>
        <time>29-03-2015T09:59:04Z</time>
      </trkpt>
      <trkpt lat="44.43614" lon="4.55084">
        <ele>348</ele>
        <time>29-03-2015T09:59:06Z</time>
      </trkpt>
      <trkpt lat="44.43622" lon="4.55087">
        <ele>348</ele>
        <time>29-03-2015T09:59:08Z</time>
      </trkpt>
      <trkpt lat="44.43629" lon="4.55093">
        <ele>351</ele>
        <time>29-03-2015T09:59:10Z</time>
      </trkpt>
      <trkpt lat="44.43631" lon="4.55099">
        <ele>351</ele>
        <time>29-03-2015T09:59:11Z</time>
      </trkpt>
      <trkpt lat="44.43634" lon="4.55104">
        <ele>351</ele>
        <time>29-03-2015T09:59:12Z</time>
      </trkpt>
      <trkpt lat="44.43636" lon="4.5511">
        <ele>351</ele>
        <time>29-03-2015T09:59:13Z</time>
      </trkpt>
      <trkpt lat="44.43638" lon="4.55117">
        <ele>349</ele>
        <time>29-03-2015T09:59:14Z</time>
      </trkpt>
      <trkpt lat="44.43642" lon="4.55122">
        <ele>349</ele>
        <time>29-03-2015T09:59:15Z</time>
      </trkpt>
      <trkpt lat="44.43644" lon="4.55129">
        <ele>349</ele>
        <time>29-03-2015T09:59:16Z</time>
      </trkpt>
      <trkpt lat="44.43647" lon="4.55137">
        <ele>349</ele>
        <time>29-03-2015T09:59:17Z</time>
      </trkpt>
      <trkpt lat="44.4365" lon="4.55143">
        <ele>349</ele>
        <time>29-03-2015T09:59:18Z</time>
      </trkpt>
      <trkpt lat="44.43651" lon="4.55153">
        <ele>349</ele>
        <time>29-03-2015T09:59:19Z</time>
      </trkpt>
      <trkpt lat="44.43653" lon="4.5516">
        <ele>349</ele>
        <time>29-03-2015T09:59:20Z</time>
      </trkpt>
      <trkpt lat="44.43657" lon="4.55168">
        <ele>349</ele>
        <time>29-03-2015T09:59:21Z</time>
      </trkpt>
      <trkpt lat="44.4366" lon="4.55176">
        <ele>349</ele>
        <time>29-03-2015T09:59:22Z</time>
      </trkpt>
      <trkpt lat="44.43664" lon="4.5518">
        <ele>349</ele>
        <time>29-03-2015T09:59:23Z</time>
      </trkpt>
      <trkpt lat="44.43668" lon="4.55187">
        <ele>349</ele>
        <time>29-03-2015T09:59:24Z</time>
      </trkpt>
      <trkpt lat="44.43671" lon="4.55193">
        <ele>349</ele>
        <time>29-03-2015T09:59:25Z</time>
      </trkpt>
      <trkpt lat="44.43675" lon="4.55198">
        <ele>349</ele>
        <time>29-03-2015T09:59:26Z</time>
      </trkpt>
      <trkpt lat="44.43678" lon="4.55206">
        <ele>349</ele>
        <time>29-03-2015T09:59:27Z</time>
      </trkpt>
      <trkpt lat="44.43681" lon="4.55212">
        <ele>349</ele>
        <time>29-03-2015T09:59:28Z</time>
      </trkpt>
      <trkpt lat="44.43685" lon="4.55218">
        <ele>348</ele>
        <time>29-03-2015T09:59:29Z</time>
      </trkpt>
      <trkpt lat="44.43689" lon="4.55227">
        <ele>348</ele>
        <time>29-03-2015T09:59:30Z</time>
      </trkpt>
      <trkpt lat="44.43693" lon="4.55231">
        <ele>348</ele>
        <time>29-03-2015T09:59:31Z</time>
      </trkpt>
      <trkpt lat="44.43697" lon="4.55238">
        <ele>348</ele>
        <time>29-03-2015T09:59:32Z</time>
      </trkpt>
      <trkpt lat="44.43701" lon="4.55245">
        <ele>348</ele>
        <time>29-03-2015T09:59:33Z</time>
      </trkpt>
      <trkpt lat="44.43707" lon="4.55249">
        <ele>348</ele>
        <time>29-03-2015T09:59:34Z</time>
      </trkpt>
      <trkpt lat="44.43712" lon="4.55255">
        <ele>348</ele>
        <time>29-03-2015T09:59:35Z</time>
      </trkpt>
      <trkpt lat="44.43718" lon="4.55258">
        <ele>348</ele>
        <time>29-03-2015T09:59:36Z</time>
      </trkpt>
      <trkpt lat="44.43725" lon="4.55261">
        <ele>348</ele>
        <time>29-03-2015T09:59:37Z</time>
      </trkpt>
      <trkpt lat="44.4373" lon="4.55263">
        <ele>348</ele>
        <time>29-03-2015T09:59:38Z</time>
      </trkpt>
      <trkpt lat="44.43735" lon="4.55266">
        <ele>348</ele>
        <time>29-03-2015T09:59:39Z</time>
      </trkpt>
      <trkpt lat="44.43739" lon="4.55271">
        <ele>348</ele>
        <time>29-03-2015T09:59:40Z</time>
      </trkpt>
      <trkpt lat="44.43744" lon="4.55275">
        <ele>348</ele>
        <time>29-03-2015T09:59:41Z</time>
      </trkpt>
      <trkpt lat="44.43749" lon="4.55279">
        <ele>348</ele>
        <time>29-03-2015T09:59:42Z</time>
      </trkpt>
      <trkpt lat="44.43753" lon="4.55285">
        <ele>348</ele>
        <time>29-03-2015T09:59:43Z</time>
      </trkpt>
      <trkpt lat="44.43756" lon="4.55291">
        <ele>347</ele>
        <time>29-03-2015T09:59:44Z</time>
      </trkpt>
      <trkpt lat="44.43759" lon="4.55297">
        <ele>347</ele>
        <time>29-03-2015T09:59:45Z</time>
      </trkpt>
      <trkpt lat="44.43762" lon="4.55306">
        <ele>347</ele>
        <time>29-03-2015T09:59:46Z</time>
      </trkpt>
      <trkpt lat="44.43766" lon="4.55311">
        <ele>347</ele>
        <time>29-03-2015T09:59:47Z</time>
      </trkpt>
      <trkpt lat="44.43771" lon="4.55317">
        <ele>347</ele>
        <time>29-03-2015T09:59:48Z</time>
      </trkpt>
      <trkpt lat="44.43774" lon="4.55324">
        <ele>347</ele>
        <time>29-03-2015T09:59:49Z</time>
      </trkpt>
      <trkpt lat="44.43779" lon="4.55329">
        <ele>347</ele>
        <time>29-03-2015T09:59:50Z</time>
      </trkpt>
      <trkpt lat="44.43782" lon="4.55336">
        <ele>347</ele>
        <time>29-03-2015T09:59:51Z</time>
      </trkpt>
      <trkpt lat="44.43785" lon="4.55344">
        <ele>347</ele>
        <time>29-03-2015T09:59:52Z</time>
      </trkpt>
      <trkpt lat="44.4379" lon="4.55348">
        <ele>347</ele>
        <time>29-03-2015T09:59:53Z</time>
      </trkpt>
      <trkpt lat="44.43795" lon="4.55354">
        <ele>347</ele>
        <time>29-03-2015T09:59:54Z</time>
      </trkpt>
      <trkpt lat="44.43799" lon="4.55357">
        <ele>347</ele>
        <time>29-03-2015T09:59:55Z</time>
      </trkpt>
      <trkpt lat="44.43803" lon="4.55359">
        <ele>347</ele>
        <time>29-03-2015T09:59:56Z</time>
      </trkpt>
      <trkpt lat="44.43807" lon="4.55365">
        <ele>347</ele>
        <time>29-03-2015T09:59:57Z</time>
      </trkpt>
      <trkpt lat="44.43809" lon="4.55371">
        <ele>347</ele>
        <time>29-03-2015T09:59:58Z</time>
      </trkpt>
      <trkpt lat="44.43813" lon="4.55378">
        <ele>347</ele>
        <time>29-03-2015T09:59:59Z</time>
      </trkpt>
      <trkpt lat="44.43816" lon="4.55385">
        <ele>347</ele>
        <time>29-03-2015T10:00:00Z</time>
      </trkpt>
      <trkpt lat="44.4382" lon="4.55392">
        <ele>347</ele>
        <time>29-03-2015T10:00:01Z</time>
      </trkpt>
      <trkpt lat="44.43823" lon="4.55397">
        <ele>347</ele>
        <time>29-03-2015T10:00:02Z</time>
      </trkpt>
      <trkpt lat="44.43825" lon="4.55406">
        <ele>347</ele>
        <time>29-03-2015T10:00:03Z</time>
      </trkpt>
      <trkpt lat="44.43829" lon="4.55412">
        <ele>345</ele>
        <time>29-03-2015T10:00:04Z</time>
      </trkpt>
      <trkpt lat="44.43832" lon="4.55418">
        <ele>345</ele>
        <time>29-03-2015T10:00:05Z</time>
      </trkpt>
      <trkpt lat="44.43835" lon="4.55425">
        <ele>345</ele>
        <time>29-03-2015T10:00:06Z</time>
      </trkpt>
      <trkpt lat="44.43838" lon="4.55432">
        <ele>345</ele>
        <time>29-03-2015T10:00:07Z</time>
      </trkpt>
      <trkpt lat="44.43841" lon="4.55438">
        <ele>345</ele>
        <time>29-03-2015T10:00:08Z</time>
      </trkpt>
      <trkpt lat="44.43843" lon="4.55448">
        <ele>346</ele>
        <time>29-03-2015T10:00:09Z</time>
      </trkpt>
      <trkpt lat="44.43844" lon="4.55456">
        <ele>346</ele>
        <time>29-03-2015T10:00:10Z</time>
      </trkpt>
      <trkpt lat="44.43845" lon="4.55464">
        <ele>346</ele>
        <time>29-03-2015T10:00:11Z</time>
      </trkpt>
      <trkpt lat="44.43845" lon="4.55472">
        <ele>346</ele>
        <time>29-03-2015T10:00:12Z</time>
      </trkpt>
      <trkpt lat="44.43844" lon="4.55481">
        <ele>346</ele>
        <time>29-03-2015T10:00:13Z</time>
      </trkpt>
      <trkpt lat="44.43842" lon="4.55487">
        <ele>345</ele>
        <time>29-03-2015T10:00:14Z</time>
      </trkpt>
      <trkpt lat="44.43839" lon="4.55496">
        <ele>345</ele>
        <time>29-03-2015T10:00:15Z</time>
      </trkpt>
      <trkpt lat="44.43835" lon="4.55504">
        <ele>345</ele>
        <time>29-03-2015T10:00:16Z</time>
      </trkpt>
      <trkpt lat="44.43831" lon="4.55508">
        <ele>345</ele>
        <time>29-03-2015T10:00:17Z</time>
      </trkpt>
      <trkpt lat="44.43826" lon="4.55514">
        <ele>345</ele>
        <time>29-03-2015T10:00:18Z</time>
      </trkpt>
      <trkpt lat="44.43821" lon="4.55518">
        <ele>345</ele>
        <time>29-03-2015T10:00:19Z</time>
      </trkpt>
      <trkpt lat="44.43817" lon="4.55523">
        <ele>345</ele>
        <time>29-03-2015T10:00:20Z</time>
      </trkpt>
      <trkpt lat="44.43815" lon="4.55529">
        <ele>345</ele>
        <time>29-03-2015T10:00:21Z</time>
      </trkpt>
      <trkpt lat="44.43814" lon="4.55537">
        <ele>345</ele>
        <time>29-03-2015T10:00:22Z</time>
      </trkpt>
      <trkpt lat="44.43813" lon="4.55552">
        <ele>345</ele>
        <time>29-03-2015T10:00:24Z</time>
      </trkpt>
      <trkpt lat="44.43813" lon="4.55558">
        <ele>345</ele>
        <time>29-03-2015T10:00:25Z</time>
      </trkpt>
      <trkpt lat="44.43815" lon="4.55569">
        <ele>345</ele>
        <time>29-03-2015T10:00:27Z</time>
      </trkpt>
      <trkpt lat="44.43816" lon="4.55575">
        <ele>345</ele>
        <time>29-03-2015T10:00:28Z</time>
      </trkpt>
      <trkpt lat="44.43823" lon="4.55583">
        <ele>347</ele>
        <time>29-03-2015T10:00:30Z</time>
      </trkpt>
      <trkpt lat="44.43826" lon="4.55588">
        <ele>347</ele>
        <time>29-03-2015T10:00:31Z</time>
      </trkpt>
      <trkpt lat="44.43831" lon="4.55591">
        <ele>347</ele>
        <time>29-03-2015T10:00:32Z</time>
      </trkpt>
      <trkpt lat="44.43836" lon="4.55594">
        <ele>347</ele>
        <time>29-03-2015T10:00:33Z</time>
      </trkpt>
      <trkpt lat="44.4384" lon="4.55599">
        <ele>348</ele>
        <time>29-03-2015T10:00:34Z</time>
      </trkpt>
      <trkpt lat="44.43844" lon="4.55602">
        <ele>348</ele>
        <time>29-03-2015T10:00:35Z</time>
      </trkpt>
      <trkpt lat="44.43855" lon="4.55605">
        <ele>348</ele>
        <time>29-03-2015T10:00:37Z</time>
      </trkpt>
      <trkpt lat="44.43861" lon="4.55605">
        <ele>348</ele>
        <time>29-03-2015T10:00:38Z</time>
      </trkpt>
      <trkpt lat="44.43866" lon="4.55605">
        <ele>348</ele>
        <time>29-03-2015T10:00:39Z</time>
      </trkpt>
      <trkpt lat="44.43871" lon="4.55606">
        <ele>348</ele>
        <time>29-03-2015T10:00:40Z</time>
      </trkpt>
      <trkpt lat="44.43877" lon="4.55606">
        <ele>348</ele>
        <time>29-03-2015T10:00:41Z</time>
      </trkpt>
      <trkpt lat="44.43884" lon="4.55605">
        <ele>348</ele>
        <time>29-03-2015T10:00:42Z</time>
      </trkpt>
      <trkpt lat="44.43893" lon="4.55607">
        <ele>348</ele>
        <time>29-03-2015T10:00:44Z</time>
      </trkpt>
      <trkpt lat="44.43902" lon="4.5561">
        <ele>348</ele>
        <time>29-03-2015T10:00:46Z</time>
      </trkpt>
      <trkpt lat="44.43909" lon="4.55608">
        <ele>348</ele>
        <time>29-03-2015T10:00:47Z</time>
      </trkpt>
      <trkpt lat="44.43914" lon="4.55608">
        <ele>348</ele>
        <time>29-03-2015T10:00:48Z</time>
      </trkpt>
      <trkpt lat="44.43919" lon="4.55611">
        <ele>349</ele>
        <time>29-03-2015T10:00:49Z</time>
      </trkpt>
      <trkpt lat="44.43924" lon="4.55613">
        <ele>349</ele>
        <time>29-03-2015T10:00:50Z</time>
      </trkpt>
      <trkpt lat="44.43929" lon="4.55615">
        <ele>349</ele>
        <time>29-03-2015T10:00:51Z</time>
      </trkpt>
      <trkpt lat="44.43934" lon="4.55618">
        <ele>349</ele>
        <time>29-03-2015T10:00:52Z</time>
      </trkpt>
      <trkpt lat="44.43939" lon="4.55621">
        <ele>349</ele>
        <time>29-03-2015T10:00:53Z</time>
      </trkpt>
      <trkpt lat="44.43944" lon="4.55623">
        <ele>349</ele>
        <time>29-03-2015T10:00:54Z</time>
      </trkpt>
      <trkpt lat="44.43947" lon="4.55629">
        <ele>349</ele>
        <time>29-03-2015T10:00:55Z</time>
      </trkpt>
      <trkpt lat="44.43951" lon="4.55634">
        <ele>349</ele>
        <time>29-03-2015T10:00:56Z</time>
      </trkpt>
      <trkpt lat="44.43957" lon="4.55635">
        <ele>349</ele>
        <time>29-03-2015T10:00:57Z</time>
      </trkpt>
      <trkpt lat="44.43961" lon="4.55639">
        <ele>349</ele>
        <time>29-03-2015T10:00:58Z</time>
      </trkpt>
      <trkpt lat="44.43965" lon="4.55643">
        <ele>349</ele>
        <time>29-03-2015T10:00:59Z</time>
      </trkpt>
      <trkpt lat="44.43975" lon="4.55645">
        <ele>349</ele>
        <time>29-03-2015T10:01:01Z</time>
      </trkpt>
      <trkpt lat="44.4398" lon="4.55648">
        <ele>349</ele>
        <time>29-03-2015T10:01:02Z</time>
      </trkpt>
      <trkpt lat="44.43984" lon="4.55653">
        <ele>349</ele>
        <time>29-03-2015T10:01:03Z</time>
      </trkpt>
      <trkpt lat="44.43992" lon="4.55662">
        <ele>350</ele>
        <time>29-03-2015T10:01:05Z</time>
      </trkpt>
      <trkpt lat="44.43995" lon="4.55668">
        <ele>350</ele>
        <time>29-03-2015T10:01:06Z</time>
      </trkpt>
      <trkpt lat="44.44004" lon="4.55675">
        <ele>350</ele>
        <time>29-03-2015T10:01:08Z</time>
      </trkpt>
      <trkpt lat="44.44007" lon="4.55681">
        <ele>350</ele>
        <time>29-03-2015T10:01:09Z</time>
      </trkpt>
      <trkpt lat="44.44011" lon="4.55685">
        <ele>350</ele>
        <time>29-03-2015T10:01:10Z</time>
      </trkpt>
      <trkpt lat="44.44016" lon="4.55689">
        <ele>350</ele>
        <time>29-03-2015T10:01:11Z</time>
      </trkpt>
      <trkpt lat="44.44019" lon="4.55695">
        <ele>350</ele>
        <time>29-03-2015T10:01:12Z</time>
      </trkpt>
      <trkpt lat="44.44022" lon="4.55701">
        <ele>350</ele>
        <time>29-03-2015T10:01:13Z</time>
      </trkpt>
      <trkpt lat="44.44026" lon="4.55704">
        <ele>350</ele>
        <time>29-03-2015T10:01:14Z</time>
      </trkpt>
      <trkpt lat="44.44031" lon="4.55708">
        <ele>350</ele>
        <time>29-03-2015T10:01:15Z</time>
      </trkpt>
      <trkpt lat="44.44034" lon="4.55714">
        <ele>350</ele>
        <time>29-03-2015T10:01:16Z</time>
      </trkpt>
      <trkpt lat="44.44038" lon="4.55719">
        <ele>350</ele>
        <time>29-03-2015T10:01:17Z</time>
      </trkpt>
      <trkpt lat="44.44044" lon="4.55721">
        <ele>350</ele>
        <time>29-03-2015T10:01:18Z</time>
      </trkpt>
      <trkpt lat="44.44049" lon="4.55724">
        <ele>350</ele>
        <time>29-03-2015T10:01:19Z</time>
      </trkpt>
      <trkpt lat="44.44052" lon="4.55729">
        <ele>350</ele>
        <time>29-03-2015T10:01:20Z</time>
      </trkpt>
      <trkpt lat="44.44056" lon="4.55732">
        <ele>350</ele>
        <time>29-03-2015T10:01:21Z</time>
      </trkpt>
      <trkpt lat="44.44061" lon="4.55734">
        <ele>350</ele>
        <time>29-03-2015T10:01:22Z</time>
      </trkpt>
      <trkpt lat="44.44065" lon="4.55738">
        <ele>350</ele>
        <time>29-03-2015T10:01:23Z</time>
      </trkpt>
      <trkpt lat="44.44069" lon="4.55741">
        <ele>350</ele>
        <time>29-03-2015T10:01:24Z</time>
      </trkpt>
      <trkpt lat="44.44074" lon="4.55743">
        <ele>350</ele>
        <time>29-03-2015T10:01:25Z</time>
      </trkpt>
      <trkpt lat="44.44078" lon="4.55746">
        <ele>350</ele>
        <time>29-03-2015T10:01:26Z</time>
      </trkpt>
      <trkpt lat="44.44083" lon="4.55748">
        <ele>350</ele>
        <time>29-03-2015T10:01:27Z</time>
      </trkpt>
      <trkpt lat="44.44088" lon="4.5575">
        <ele>350</ele>
        <time>29-03-2015T10:01:28Z</time>
      </trkpt>
      <trkpt lat="44.44093" lon="4.55752">
        <ele>350</ele>
        <time>29-03-2015T10:01:29Z</time>
      </trkpt>
      <trkpt lat="44.44098" lon="4.55756">
        <ele>350</ele>
        <time>29-03-2015T10:01:30Z</time>
      </trkpt>
      <trkpt lat="44.44104" lon="4.55758">
        <ele>350</ele>
        <time>29-03-2015T10:01:31Z</time>
      </trkpt>
      <trkpt lat="44.44109" lon="4.55759">
        <ele>350</ele>
        <time>29-03-2015T10:01:32Z</time>
      </trkpt>
      <trkpt lat="44.44116" lon="4.55766">
        <ele>350</ele>
        <time>29-03-2015T10:01:34Z</time>
      </trkpt>
      <trkpt lat="44.44124" lon="4.55769">
        <ele>350</ele>
        <time>29-03-2015T10:01:36Z</time>
      </trkpt>
      <trkpt lat="44.44128" lon="4.55773">
        <ele>350</ele>
        <time>29-03-2015T10:01:37Z</time>
      </trkpt>
      <trkpt lat="44.44131" lon="4.55778">
        <ele>350</ele>
        <time>29-03-2015T10:01:38Z</time>
      </trkpt>
      <trkpt lat="44.44136" lon="4.55782">
        <ele>350</ele>
        <time>29-03-2015T10:01:39Z</time>
      </trkpt>
      <trkpt lat="44.4414" lon="4.55786">
        <ele>350</ele>
        <time>29-03-2015T10:01:40Z</time>
      </trkpt>
      <trkpt lat="44.44143" lon="4.55791">
        <ele>350</ele>
        <time>29-03-2015T10:01:41Z</time>
      </trkpt>
      <trkpt lat="44.44147" lon="4.55796">
        <ele>350</ele>
        <time>29-03-2015T10:01:42Z</time>
      </trkpt>
      <trkpt lat="44.44155" lon="4.558">
        <ele>350</ele>
        <time>29-03-2015T10:01:44Z</time>
      </trkpt>
      <trkpt lat="44.44162" lon="4.55809">
        <ele>350</ele>
        <time>29-03-2015T10:01:46Z</time>
      </trkpt>
      <trkpt lat="44.4417" lon="4.55816">
        <ele>350</ele>
        <time>29-03-2015T10:01:48Z</time>
      </trkpt>
      <trkpt lat="44.44172" lon="4.55822">
        <ele>350</ele>
        <time>29-03-2015T10:01:49Z</time>
      </trkpt>
      <trkpt lat="44.44176" lon="4.55826">
        <ele>350</ele>
        <time>29-03-2015T10:01:50Z</time>
      </trkpt>
      <trkpt lat="44.44181" lon="4.55826">
        <ele>350</ele>
        <time>29-03-2015T10:01:51Z</time>
      </trkpt>
      <trkpt lat="44.44186" lon="4.55834">
        <ele>350</ele>
        <time>29-03-2015T10:01:53Z</time>
      </trkpt>
      <trkpt lat="44.44189" lon="4.55839">
        <ele>350</ele>
        <time>29-03-2015T10:01:54Z</time>
      </trkpt>
      <trkpt lat="44.44197" lon="4.55846">
        <ele>350</ele>
        <time>29-03-2015T10:01:56Z</time>
      </trkpt>
      <trkpt lat="44.442" lon="4.55852">
        <ele>350</ele>
        <time>29-03-2015T10:01:57Z</time>
      </trkpt>
      <trkpt lat="44.44203" lon="4.55859">
        <ele>350</ele>
        <time>29-03-2015T10:01:58Z</time>
      </trkpt>
      <trkpt lat="44.44208" lon="4.55861">
        <ele>350</ele>
        <time>29-03-2015T10:01:59Z</time>
      </trkpt>
      <trkpt lat="44.44213" lon="4.55867">
        <ele>350</ele>
        <time>29-03-2015T10:02:00Z</time>
      </trkpt>
      <trkpt lat="44.44217" lon="4.55874">
        <ele>350</ele>
        <time>29-03-2015T10:02:01Z</time>
      </trkpt>
      <trkpt lat="44.44221" lon="4.55883">
        <ele>350</ele>
        <time>29-03-2015T10:02:02Z</time>
      </trkpt>
      <trkpt lat="44.44227" lon="4.55887">
        <ele>350</ele>
        <time>29-03-2015T10:02:03Z</time>
      </trkpt>
      <trkpt lat="44.44232" lon="4.55893">
        <ele>350</ele>
        <time>29-03-2015T10:02:04Z</time>
      </trkpt>
      <trkpt lat="44.44236" lon="4.55901">
        <ele>350</ele>
        <time>29-03-2015T10:02:05Z</time>
      </trkpt>
      <trkpt lat="44.44241" lon="4.5591">
        <ele>350</ele>
        <time>29-03-2015T10:02:06Z</time>
      </trkpt>
      <trkpt lat="44.44246" lon="4.55914">
        <ele>350</ele>
        <time>29-03-2015T10:02:07Z</time>
      </trkpt>
      <trkpt lat="44.44252" lon="4.55918">
        <ele>350</ele>
        <time>29-03-2015T10:02:08Z</time>
      </trkpt>
      <trkpt lat="44.44259" lon="4.55922">
        <ele>350</ele>
        <time>29-03-2015T10:02:09Z</time>
      </trkpt>
      <trkpt lat="44.44264" lon="4.55928">
        <ele>350</ele>
        <time>29-03-2015T10:02:10Z</time>
      </trkpt>
      <trkpt lat="44.44266" lon="4.55936">
        <ele>350</ele>
        <time>29-03-2015T10:02:11Z</time>
      </trkpt>
      <trkpt lat="44.44266" lon="4.55943">
        <ele>350</ele>
        <time>29-03-2015T10:02:12Z</time>
      </trkpt>
      <trkpt lat="44.44265" lon="4.55955">
        <ele>350</ele>
        <time>29-03-2015T10:02:13Z</time>
      </trkpt>
      <trkpt lat="44.44264" lon="4.55963">
        <ele>350</ele>
        <time>29-03-2015T10:02:14Z</time>
      </trkpt>
      <trkpt lat="44.44266" lon="4.55971">
        <ele>350</ele>
        <time>29-03-2015T10:02:15Z</time>
      </trkpt>
      <trkpt lat="44.44269" lon="4.55977">
        <ele>350</ele>
        <time>29-03-2015T10:02:16Z</time>
      </trkpt>
      <trkpt lat="44.44273" lon="4.5598">
        <ele>350</ele>
        <time>29-03-2015T10:02:17Z</time>
      </trkpt>
      <trkpt lat="44.44279" lon="4.55984">
        <ele>350</ele>
        <time>29-03-2015T10:02:18Z</time>
      </trkpt>
      <trkpt lat="44.44282" lon="4.5599">
        <ele>349</ele>
        <time>29-03-2015T10:02:19Z</time>
      </trkpt>
      <trkpt lat="44.44285" lon="4.55996">
        <ele>349</ele>
        <time>29-03-2015T10:02:20Z</time>
      </trkpt>
      <trkpt lat="44.4429" lon="4.56">
        <ele>349</ele>
        <time>29-03-2015T10:02:21Z</time>
      </trkpt>
      <trkpt lat="44.44294" lon="4.56005">
        <ele>349</ele>
        <time>29-03-2015T10:02:22Z</time>
      </trkpt>
      <trkpt lat="44.44298" lon="4.56012">
        <ele>349</ele>
        <time>29-03-2015T10:02:23Z</time>
      </trkpt>
      <trkpt lat="44.44299" lon="4.5602">
        <ele>349</ele>
        <time>29-03-2015T10:02:24Z</time>
      </trkpt>
      <trkpt lat="44.44304" lon="4.56025">
        <ele>349</ele>
        <time>29-03-2015T10:02:25Z</time>
      </trkpt>
      <trkpt lat="44.4431" lon="4.56037">
        <ele>349</ele>
        <time>29-03-2015T10:02:27Z</time>
      </trkpt>
      <trkpt lat="44.44313" lon="4.56044">
        <ele>349</ele>
        <time>29-03-2015T10:02:28Z</time>
      </trkpt>
      <trkpt lat="44.44316" lon="4.56051">
        <ele>349</ele>
        <time>29-03-2015T10:02:29Z</time>
      </trkpt>
      <trkpt lat="44.44321" lon="4.56053">
        <ele>349</ele>
        <time>29-03-2015T10:02:30Z</time>
      </trkpt>
      <trkpt lat="44.44327" lon="4.56055">
        <ele>349</ele>
        <time>29-03-2015T10:02:31Z</time>
      </trkpt>
      <trkpt lat="44.44331" lon="4.56057">
        <ele>349</ele>
        <time>29-03-2015T10:02:32Z</time>
      </trkpt>
      <trkpt lat="44.44333" lon="4.56064">
        <ele>349</ele>
        <time>29-03-2015T10:02:33Z</time>
      </trkpt>
      <trkpt lat="44.44337" lon="4.56069">
        <ele>349</ele>
        <time>29-03-2015T10:02:34Z</time>
      </trkpt>
      <trkpt lat="44.44342" lon="4.56073">
        <ele>349</ele>
        <time>29-03-2015T10:02:35Z</time>
      </trkpt>
      <trkpt lat="44.44347" lon="4.56074">
        <ele>349</ele>
        <time>29-03-2015T10:02:36Z</time>
      </trkpt>
      <trkpt lat="44.44349" lon="4.5608">
        <ele>349</ele>
        <time>29-03-2015T10:02:37Z</time>
      </trkpt>
      <trkpt lat="44.44353" lon="4.56087">
        <ele>349</ele>
        <time>29-03-2015T10:02:38Z</time>
      </trkpt>
      <trkpt lat="44.44356" lon="4.56092">
        <ele>348</ele>
        <time>29-03-2015T10:02:39Z</time>
      </trkpt>
      <trkpt lat="44.44359" lon="4.56098">
        <ele>348</ele>
        <time>29-03-2015T10:02:40Z</time>
      </trkpt>
      <trkpt lat="44.44362" lon="4.56104">
        <ele>348</ele>
        <time>29-03-2015T10:02:41Z</time>
      </trkpt>
      <trkpt lat="44.44366" lon="4.56108">
        <ele>348</ele>
        <time>29-03-2015T10:02:42Z</time>
      </trkpt>
      <trkpt lat="44.44368" lon="4.56115">
        <ele>348</ele>
        <time>29-03-2015T10:02:43Z</time>
      </trkpt>
      <trkpt lat="44.44372" lon="4.56123">
        <ele>348</ele>
        <time>29-03-2015T10:02:44Z</time>
      </trkpt>
      <trkpt lat="44.44376" lon="4.56126">
        <ele>348</ele>
        <time>29-03-2015T10:02:45Z</time>
      </trkpt>
      <trkpt lat="44.4438" lon="4.56132">
        <ele>348</ele>
        <time>29-03-2015T10:02:46Z</time>
      </trkpt>
      <trkpt lat="44.44382" lon="4.56141">
        <ele>348</ele>
        <time>29-03-2015T10:02:47Z</time>
      </trkpt>
      <trkpt lat="44.44385" lon="4.56147">
        <ele>348</ele>
        <time>29-03-2015T10:02:48Z</time>
      </trkpt>
      <trkpt lat="44.44389" lon="4.56151">
        <ele>348</ele>
        <time>29-03-2015T10:02:49Z</time>
      </trkpt>
      <trkpt lat="44.44396" lon="4.5616">
        <ele>348</ele>
        <time>29-03-2015T10:02:51Z</time>
      </trkpt>
      <trkpt lat="44.44401" lon="4.56164">
        <ele>348</ele>
        <time>29-03-2015T10:02:52Z</time>
      </trkpt>
      <trkpt lat="44.44404" lon="4.56173">
        <ele>348</ele>
        <time>29-03-2015T10:02:53Z</time>
      </trkpt>
      <trkpt lat="44.44405" lon="4.5618">
        <ele>348</ele>
        <time>29-03-2015T10:02:54Z</time>
      </trkpt>
      <trkpt lat="44.44411" lon="4.56184">
        <ele>348</ele>
        <time>29-03-2015T10:02:55Z</time>
      </trkpt>
      <trkpt lat="44.44414" lon="4.56189">
        <ele>348</ele>
        <time>29-03-2015T10:02:56Z</time>
      </trkpt>
      <trkpt lat="44.44419" lon="4.56194">
        <ele>348</ele>
        <time>29-03-2015T10:02:57Z</time>
      </trkpt>
      <trkpt lat="44.44426" lon="4.56202">
        <ele>348</ele>
        <time>29-03-2015T10:02:59Z</time>
      </trkpt>
      <trkpt lat="44.4443" lon="4.56207">
        <ele>348</ele>
        <time>29-03-2015T10:03:00Z</time>
      </trkpt>
      <trkpt lat="44.44435" lon="4.56211">
        <ele>348</ele>
        <time>29-03-2015T10:03:01Z</time>
      </trkpt>
      <trkpt lat="44.44439" lon="4.56216">
        <ele>348</ele>
        <time>29-03-2015T10:03:02Z</time>
      </trkpt>
      <trkpt lat="44.44442" lon="4.56222">
        <ele>348</ele>
        <time>29-03-2015T10:03:03Z</time>
      </trkpt>
      <trkpt lat="44.44446" lon="4.56229">
        <ele>348</ele>
        <time>29-03-2015T10:03:04Z</time>
      </trkpt>
      <trkpt lat="44.44449" lon="4.56236">
        <ele>348</ele>
        <time>29-03-2015T10:03:05Z</time>
      </trkpt>
      <trkpt lat="44.44453" lon="4.56242">
        <ele>348</ele>
        <time>29-03-2015T10:03:06Z</time>
      </trkpt>
      <trkpt lat="44.44457" lon="4.56245">
        <ele>348</ele>
        <time>29-03-2015T10:03:07Z</time>
      </trkpt>
      <trkpt lat="44.44461" lon="4.56253">
        <ele>348</ele>
        <time>29-03-2015T10:03:08Z</time>
      </trkpt>
      <trkpt lat="44.44463" lon="4.56258">
        <ele>348</ele>
        <time>29-03-2015T10:03:09Z</time>
      </trkpt>
      <trkpt lat="44.44467" lon="4.56265">
        <ele>348</ele>
        <time>29-03-2015T10:03:10Z</time>
      </trkpt>
      <trkpt lat="44.44471" lon="4.56272">
        <ele>348</ele>
        <time>29-03-2015T10:03:11Z</time>
      </trkpt>
      <trkpt lat="44.44475" lon="4.56277">
        <ele>348</ele>
        <time>29-03-2015T10:03:12Z</time>
      </trkpt>
      <trkpt lat="44.4448" lon="4.56282">
        <ele>348</ele>
        <time>29-03-2015T10:03:13Z</time>
      </trkpt>
      <trkpt lat="44.44484" lon="4.56288">
        <ele>348</ele>
        <time>29-03-2015T10:03:14Z</time>
      </trkpt>
      <trkpt lat="44.44489" lon="4.56293">
        <ele>348</ele>
        <time>29-03-2015T10:03:15Z</time>
      </trkpt>
      <trkpt lat="44.44492" lon="4.56299">
        <ele>348</ele>
        <time>29-03-2015T10:03:16Z</time>
      </trkpt>
      <trkpt lat="44.44495" lon="4.56306">
        <ele>348</ele>
        <time>29-03-2015T10:03:17Z</time>
      </trkpt>
      <trkpt lat="44.44499" lon="4.56311">
        <ele>348</ele>
        <time>29-03-2015T10:03:18Z</time>
      </trkpt>
      <trkpt lat="44.44503" lon="4.56315">
        <ele>348</ele>
        <time>29-03-2015T10:03:19Z</time>
      </trkpt>
      <trkpt lat="44.44506" lon="4.56321">
        <ele>348</ele>
        <time>29-03-2015T10:03:20Z</time>
      </trkpt>
      <trkpt lat="44.44511" lon="4.56327">
        <ele>348</ele>
        <time>29-03-2015T10:03:21Z</time>
      </trkpt>
      <trkpt lat="44.44514" lon="4.56333">
        <ele>348</ele>
        <time>29-03-2015T10:03:22Z</time>
      </trkpt>
      <trkpt lat="44.44515" lon="4.56342">
        <ele>348</ele>
        <time>29-03-2015T10:03:23Z</time>
      </trkpt>
      <trkpt lat="44.44523" lon="4.56348">
        <ele>348</ele>
        <time>29-03-2015T10:03:25Z</time>
      </trkpt>
      <trkpt lat="44.44528" lon="4.56352">
        <ele>348</ele>
        <time>29-03-2015T10:03:26Z</time>
      </trkpt>
      <trkpt lat="44.44533" lon="4.56356">
        <ele>348</ele>
        <time>29-03-2015T10:03:27Z</time>
      </trkpt>
      <trkpt lat="44.44538" lon="4.56361">
        <ele>348</ele>
        <time>29-03-2015T10:03:28Z</time>
      </trkpt>
      <trkpt lat="44.4454" lon="4.56368">
        <ele>348</ele>
        <time>29-03-2015T10:03:29Z</time>
      </trkpt>
      <trkpt lat="44.44546" lon="4.56372">
        <ele>348</ele>
        <time>29-03-2015T10:03:30Z</time>
      </trkpt>
      <trkpt lat="44.44547" lon="4.56378">
        <ele>348</ele>
        <time>29-03-2015T10:03:31Z</time>
      </trkpt>
      <trkpt lat="44.44549" lon="4.56387">
        <ele>348</ele>
        <time>29-03-2015T10:03:32Z</time>
      </trkpt>
      <trkpt lat="44.44551" lon="4.56393">
        <ele>348</ele>
        <time>29-03-2015T10:03:33Z</time>
      </trkpt>
      <trkpt lat="44.44553" lon="4.56402">
        <ele>348</ele>
        <time>29-03-2015T10:03:34Z</time>
      </trkpt>
      <trkpt lat="44.44556" lon="4.56409">
        <ele>348</ele>
        <time>29-03-2015T10:03:35Z</time>
      </trkpt>
      <trkpt lat="44.44562" lon="4.56412">
        <ele>348</ele>
        <time>29-03-2015T10:03:36Z</time>
      </trkpt>
      <trkpt lat="44.44566" lon="4.56417">
        <ele>348</ele>
        <time>29-03-2015T10:03:37Z</time>
      </trkpt>
      <trkpt lat="44.4457" lon="4.56422">
        <ele>348</ele>
        <time>29-03-2015T10:03:38Z</time>
      </trkpt>
      <trkpt lat="44.44575" lon="4.56425">
        <ele>348</ele>
        <time>29-03-2015T10:03:39Z</time>
      </trkpt>
      <trkpt lat="44.44577" lon="4.56432">
        <ele>348</ele>
        <time>29-03-2015T10:03:40Z</time>
      </trkpt>
      <trkpt lat="44.44579" lon="4.5644">
        <ele>348</ele>
        <time>29-03-2015T10:03:41Z</time>
      </trkpt>
      <trkpt lat="44.44583" lon="4.56445">
        <ele>348</ele>
        <time>29-03-2015T10:03:42Z</time>
      </trkpt>
      <trkpt lat="44.44587" lon="4.56452">
        <ele>348</ele>
        <time>29-03-2015T10:03:43Z</time>
      </trkpt>
      <trkpt lat="44.44592" lon="4.56457">
        <ele>348</ele>
        <time>29-03-2015T10:03:44Z</time>
      </trkpt>
      <trkpt lat="44.44598" lon="4.56461">
        <ele>348</ele>
        <time>29-03-2015T10:03:45Z</time>
      </trkpt>
      <trkpt lat="44.44602" lon="4.56468">
        <ele>348</ele>
        <time>29-03-2015T10:03:46Z</time>
      </trkpt>
      <trkpt lat="44.44606" lon="4.56472">
        <ele>348</ele>
        <time>29-03-2015T10:03:47Z</time>
      </trkpt>
      <trkpt lat="44.44611" lon="4.56476">
        <ele>348</ele>
        <time>29-03-2015T10:03:48Z</time>
      </trkpt>
      <trkpt lat="44.44616" lon="4.56481">
        <ele>347</ele>
        <time>29-03-2015T10:03:49Z</time>
      </trkpt>
      <trkpt lat="44.44621" lon="4.56485">
        <ele>347</ele>
        <time>29-03-2015T10:03:50Z</time>
      </trkpt>
      <trkpt lat="44.44625" lon="4.56491">
        <ele>347</ele>
        <time>29-03-2015T10:03:51Z</time>
      </trkpt>
      <trkpt lat="44.44628" lon="4.56497">
        <ele>347</ele>
        <time>29-03-2015T10:03:52Z</time>
      </trkpt>
      <trkpt lat="44.44634" lon="4.56499">
        <ele>347</ele>
        <time>29-03-2015T10:03:53Z</time>
      </trkpt>
      <trkpt lat="44.44637" lon="4.56504">
        <ele>347</ele>
        <time>29-03-2015T10:03:54Z</time>
      </trkpt>
      <trkpt lat="44.4464" lon="4.56511">
        <ele>347</ele>
        <time>29-03-2015T10:03:55Z</time>
      </trkpt>
      <trkpt lat="44.44643" lon="4.56517">
        <ele>347</ele>
        <time>29-03-2015T10:03:56Z</time>
      </trkpt>
      <trkpt lat="44.44646" lon="4.56523">
        <ele>347</ele>
        <time>29-03-2015T10:03:57Z</time>
      </trkpt>
      <trkpt lat="44.4465" lon="4.56528">
        <ele>347</ele>
        <time>29-03-2015T10:03:58Z</time>
      </trkpt>
      <trkpt lat="44.44655" lon="4.56534">
        <ele>347</ele>
        <time>29-03-2015T10:03:59Z</time>
      </trkpt>
      <trkpt lat="44.44658" lon="4.5654">
        <ele>347</ele>
        <time>29-03-2015T10:04:00Z</time>
      </trkpt>
      <trkpt lat="44.44661" lon="4.56547">
        <ele>347</ele>
        <time>29-03-2015T10:04:01Z</time>
      </trkpt>
      <trkpt lat="44.44666" lon="4.5655">
        <ele>347</ele>
        <time>29-03-2015T10:04:02Z</time>
      </trkpt>
      <trkpt lat="44.44669" lon="4.56555">
        <ele>347</ele>
        <time>29-03-2015T10:04:03Z</time>
      </trkpt>
      <trkpt lat="44.44673" lon="4.5656">
        <ele>347</ele>
        <time>29-03-2015T10:04:04Z</time>
      </trkpt>
      <trkpt lat="44.44679" lon="4.56563">
        <ele>347</ele>
        <time>29-03-2015T10:04:05Z</time>
      </trkpt>
      <trkpt lat="44.44683" lon="4.56567">
        <ele>347</ele>
        <time>29-03-2015T10:04:06Z</time>
      </trkpt>
      <trkpt lat="44.4469" lon="4.56568">
        <ele>347</ele>
        <time>29-03-2015T10:04:07Z</time>
      </trkpt>
      <trkpt lat="44.44695" lon="4.56571">
        <ele>347</ele>
        <time>29-03-2015T10:04:08Z</time>
      </trkpt>
      <trkpt lat="44.44699" lon="4.56577">
        <ele>347</ele>
        <time>29-03-2015T10:04:09Z</time>
      </trkpt>
      <trkpt lat="44.44702" lon="4.56584">
        <ele>347</ele>
        <time>29-03-2015T10:04:10Z</time>
      </trkpt>
      <trkpt lat="44.44705" lon="4.5659">
        <ele>347</ele>
        <time>29-03-2015T10:04:11Z</time>
      </trkpt>
      <trkpt lat="44.44708" lon="4.56597">
        <ele>347</ele>
        <time>29-03-2015T10:04:12Z</time>
      </trkpt>
      <trkpt lat="44.44714" lon="4.56599">
        <ele>347</ele>
        <time>29-03-2015T10:04:13Z</time>
      </trkpt>
      <trkpt lat="44.44719" lon="4.56604">
        <ele>347</ele>
        <time>29-03-2015T10:04:14Z</time>
      </trkpt>
      <trkpt lat="44.44725" lon="4.56606">
        <ele>347</ele>
        <time>29-03-2015T10:04:15Z</time>
      </trkpt>
      <trkpt lat="44.4473" lon="4.56609">
        <ele>347</ele>
        <time>29-03-2015T10:04:16Z</time>
      </trkpt>
      <trkpt lat="44.44732" lon="4.56616">
        <ele>347</ele>
        <time>29-03-2015T10:04:17Z</time>
      </trkpt>
      <trkpt lat="44.44736" lon="4.56623">
        <ele>347</ele>
        <time>29-03-2015T10:04:18Z</time>
      </trkpt>
      <trkpt lat="44.4474" lon="4.56628">
        <ele>347</ele>
        <time>29-03-2015T10:04:19Z</time>
      </trkpt>
      <trkpt lat="44.44744" lon="4.56633">
        <ele>347</ele>
        <time>29-03-2015T10:04:20Z</time>
      </trkpt>
      <trkpt lat="44.4475" lon="4.56634">
        <ele>347</ele>
        <time>29-03-2015T10:04:21Z</time>
      </trkpt>
      <trkpt lat="44.44754" lon="4.56637">
        <ele>347</ele>
        <time>29-03-2015T10:04:22Z</time>
      </trkpt>
      <trkpt lat="44.4476" lon="4.56637">
        <ele>347</ele>
        <time>29-03-2015T10:04:23Z</time>
      </trkpt>
      <trkpt lat="44.44766" lon="4.56637">
        <ele>347</ele>
        <time>29-03-2015T10:04:24Z</time>
      </trkpt>
      <trkpt lat="44.4477" lon="4.56641">
        <ele>347</ele>
        <time>29-03-2015T10:04:25Z</time>
      </trkpt>
      <trkpt lat="44.44775" lon="4.56645">
        <ele>347</ele>
        <time>29-03-2015T10:04:26Z</time>
      </trkpt>
      <trkpt lat="44.44779" lon="4.5665">
        <ele>347</ele>
        <time>29-03-2015T10:04:27Z</time>
      </trkpt>
      <trkpt lat="44.44784" lon="4.56654">
        <ele>347</ele>
        <time>29-03-2015T10:04:28Z</time>
      </trkpt>
      <trkpt lat="44.44789" lon="4.56659">
        <ele>347</ele>
        <time>29-03-2015T10:04:29Z</time>
      </trkpt>
      <trkpt lat="44.44792" lon="4.56665">
        <ele>347</ele>
        <time>29-03-2015T10:04:30Z</time>
      </trkpt>
      <trkpt lat="44.44799" lon="4.56668">
        <ele>347</ele>
        <time>29-03-2015T10:04:31Z</time>
      </trkpt>
      <trkpt lat="44.44805" lon="4.5667">
        <ele>347</ele>
        <time>29-03-2015T10:04:32Z</time>
      </trkpt>
      <trkpt lat="44.44812" lon="4.56673">
        <ele>347</ele>
        <time>29-03-2015T10:04:33Z</time>
      </trkpt>
      <trkpt lat="44.44817" lon="4.56675">
        <ele>347</ele>
        <time>29-03-2015T10:04:34Z</time>
      </trkpt>
      <trkpt lat="44.44822" lon="4.56679">
        <ele>347</ele>
        <time>29-03-2015T10:04:35Z</time>
      </trkpt>
      <trkpt lat="44.44827" lon="4.56681">
        <ele>347</ele>
        <time>29-03-2015T10:04:36Z</time>
      </trkpt>
      <trkpt lat="44.44831" lon="4.5668">
        <ele>347</ele>
        <time>29-03-2015T10:04:37Z</time>
      </trkpt>
      <trkpt lat="44.44836" lon="4.5668">
        <ele>347</ele>
        <time>29-03-2015T10:04:38Z</time>
      </trkpt>
      <trkpt lat="44.44844" lon="4.56679">
        <ele>346</ele>
        <time>29-03-2015T10:04:40Z</time>
      </trkpt>
      <trkpt lat="44.44847" lon="4.56687">
        <ele>346</ele>
        <time>29-03-2015T10:04:42Z</time>
      </trkpt>
      <trkpt lat="44.44853" lon="4.56699">
        <ele>346</ele>
        <time>29-03-2015T10:04:44Z</time>
      </trkpt>
      <trkpt lat="44.44857" lon="4.56703">
        <ele>346</ele>
        <time>29-03-2015T10:04:45Z</time>
      </trkpt>
      <trkpt lat="44.44859" lon="4.56714">
        <ele>346</ele>
        <time>29-03-2015T10:04:46Z</time>
      </trkpt>
      <trkpt lat="44.4486" lon="4.56723">
        <ele>346</ele>
        <time>29-03-2015T10:04:47Z</time>
      </trkpt>
      <trkpt lat="44.44865" lon="4.56728">
        <ele>346</ele>
        <time>29-03-2015T10:04:48Z</time>
      </trkpt>
      <trkpt lat="44.44869" lon="4.56736">
        <ele>346</ele>
        <time>29-03-2015T10:04:49Z</time>
      </trkpt>
      <trkpt lat="44.44872" lon="4.56741">
        <ele>346</ele>
        <time>29-03-2015T10:04:50Z</time>
      </trkpt>
      <trkpt lat="44.44875" lon="4.56748">
        <ele>346</ele>
        <time>29-03-2015T10:04:51Z</time>
      </trkpt>
      <trkpt lat="44.4488" lon="4.56752">
        <ele>346</ele>
        <time>29-03-2015T10:04:52Z</time>
      </trkpt>
      <trkpt lat="44.44886" lon="4.56754">
        <ele>346</ele>
        <time>29-03-2015T10:04:53Z</time>
      </trkpt>
      <trkpt lat="44.44892" lon="4.56753">
        <ele>346</ele>
        <time>29-03-2015T10:04:54Z</time>
      </trkpt>
      <trkpt lat="44.44898" lon="4.56755">
        <ele>346</ele>
        <time>29-03-2015T10:04:55Z</time>
      </trkpt>
      <trkpt lat="44.44901" lon="4.56762">
        <ele>346</ele>
        <time>29-03-2015T10:04:56Z</time>
      </trkpt>
      <trkpt lat="44.44905" lon="4.56767">
        <ele>346</ele>
        <time>29-03-2015T10:04:57Z</time>
      </trkpt>
      <trkpt lat="44.44909" lon="4.56774">
        <ele>346</ele>
        <time>29-03-2015T10:04:58Z</time>
      </trkpt>
      <trkpt lat="44.44914" lon="4.56783">
        <ele>346</ele>
        <time>29-03-2015T10:05:00Z</time>
      </trkpt>
      <trkpt lat="44.44917" lon="4.56789">
        <ele>346</ele>
        <time>29-03-2015T10:05:01Z</time>
      </trkpt>
      <trkpt lat="44.44922" lon="4.56792">
        <ele>346</ele>
        <time>29-03-2015T10:05:02Z</time>
      </trkpt>
      <trkpt lat="44.44929" lon="4.56799">
        <ele>346</ele>
        <time>29-03-2015T10:05:04Z</time>
      </trkpt>
      <trkpt lat="44.44934" lon="4.568">
        <ele>346</ele>
        <time>29-03-2015T10:05:05Z</time>
      </trkpt>
      <trkpt lat="44.44944" lon="4.56802">
        <ele>346</ele>
        <time>29-03-2015T10:05:07Z</time>
      </trkpt>
      <trkpt lat="44.44957" lon="4.56811">
        <ele>347</ele>
        <time>29-03-2015T10:05:10Z</time>
      </trkpt>
      <trkpt lat="44.44964" lon="4.56819">
        <ele>347</ele>
        <time>29-03-2015T10:05:12Z</time>
      </trkpt>
      <trkpt lat="44.4497" lon="4.56821">
        <ele>347</ele>
        <time>29-03-2015T10:05:13Z</time>
      </trkpt>
      <trkpt lat="44.44974" lon="4.56825">
        <ele>347</ele>
        <time>29-03-2015T10:05:14Z</time>
      </trkpt>
      <trkpt lat="44.44979" lon="4.56825">
        <ele>347</ele>
        <time>29-03-2015T10:05:15Z</time>
      </trkpt>
      <trkpt lat="44.44984" lon="4.56826">
        <ele>347</ele>
        <time>29-03-2015T10:05:16Z</time>
      </trkpt>
      <trkpt lat="44.44989" lon="4.56829">
        <ele>347</ele>
        <time>29-03-2015T10:05:17Z</time>
      </trkpt>
      <trkpt lat="44.44994" lon="4.56828">
        <ele>347</ele>
        <time>29-03-2015T10:05:18Z</time>
      </trkpt>
      <trkpt lat="44.44999" lon="4.5683">
        <ele>348</ele>
        <time>29-03-2015T10:05:19Z</time>
      </trkpt>
      <trkpt lat="44.45004" lon="4.5683">
        <ele>348</ele>
        <time>29-03-2015T10:05:20Z</time>
      </trkpt>
      <trkpt lat="44.4501" lon="4.56833">
        <ele>348</ele>
        <time>29-03-2015T10:05:21Z</time>
      </trkpt>
      <trkpt lat="44.45014" lon="4.56836">
        <ele>348</ele>
        <time>29-03-2015T10:05:22Z</time>
      </trkpt>
      <trkpt lat="44.45019" lon="4.5684">
        <ele>348</ele>
        <time>29-03-2015T10:05:23Z</time>
      </trkpt>
      <trkpt lat="44.45024" lon="4.56843">
        <ele>348</ele>
        <time>29-03-2015T10:05:24Z</time>
      </trkpt>
      <trkpt lat="44.45029" lon="4.56846">
        <ele>348</ele>
        <time>29-03-2015T10:05:25Z</time>
      </trkpt>
      <trkpt lat="44.45032" lon="4.56851">
        <ele>348</ele>
        <time>29-03-2015T10:05:26Z</time>
      </trkpt>
      <trkpt lat="44.45039" lon="4.56853">
        <ele>348</ele>
        <time>29-03-2015T10:05:27Z</time>
      </trkpt>
      <trkpt lat="44.45047" lon="4.56859">
        <ele>348</ele>
        <time>29-03-2015T10:05:29Z</time>
      </trkpt>
      <trkpt lat="44.45051" lon="4.56865">
        <ele>348</ele>
        <time>29-03-2015T10:05:30Z</time>
      </trkpt>
      <trkpt lat="44.45054" lon="4.56876">
        <ele>348</ele>
        <time>29-03-2015T10:05:32Z</time>
      </trkpt>
      <trkpt lat="44.45055" lon="4.56886">
        <ele>349</ele>
        <time>29-03-2015T10:05:34Z</time>
      </trkpt>
      <trkpt lat="44.45054" lon="4.56893">
        <ele>349</ele>
        <time>29-03-2015T10:05:35Z</time>
      </trkpt>
      <trkpt lat="44.45056" lon="4.56905">
        <ele>349</ele>
        <time>29-03-2015T10:05:37Z</time>
      </trkpt>
      <trkpt lat="44.45066" lon="4.56915">
        <ele>349</ele>
        <time>29-03-2015T10:05:39Z</time>
      </trkpt>
      <trkpt lat="44.45072" lon="4.56916">
        <ele>349</ele>
        <time>29-03-2015T10:05:40Z</time>
      </trkpt>
      <trkpt lat="44.45077" lon="4.56919">
        <ele>349</ele>
        <time>29-03-2015T10:05:41Z</time>
      </trkpt>
      <trkpt lat="44.45084" lon="4.5692">
        <ele>349</ele>
        <time>29-03-2015T10:05:42Z</time>
      </trkpt>
      <trkpt lat="44.45089" lon="4.56924">
        <ele>349</ele>
        <time>29-03-2015T10:05:43Z</time>
      </trkpt>
      <trkpt lat="44.45096" lon="4.56927">
        <ele>349</ele>
        <time>29-03-2015T10:05:44Z</time>
      </trkpt>
      <trkpt lat="44.45101" lon="4.5693">
        <ele>349</ele>
        <time>29-03-2015T10:05:45Z</time>
      </trkpt>
      <trkpt lat="44.45107" lon="4.56932">
        <ele>349</ele>
        <time>29-03-2015T10:05:46Z</time>
      </trkpt>
      <trkpt lat="44.45113" lon="4.56935">
        <ele>349</ele>
        <time>29-03-2015T10:05:47Z</time>
      </trkpt>
      <trkpt lat="44.45122" lon="4.5694">
        <ele>347</ele>
        <time>29-03-2015T10:05:49Z</time>
      </trkpt>
      <trkpt lat="44.45128" lon="4.56941">
        <ele>347</ele>
        <time>29-03-2015T10:05:50Z</time>
      </trkpt>
      <trkpt lat="44.45133" lon="4.56944">
        <ele>347</ele>
        <time>29-03-2015T10:05:51Z</time>
      </trkpt>
      <trkpt lat="44.45137" lon="4.56949">
        <ele>347</ele>
        <time>29-03-2015T10:05:52Z</time>
      </trkpt>
      <trkpt lat="44.45141" lon="4.56954">
        <ele>347</ele>
        <time>29-03-2015T10:05:53Z</time>
      </trkpt>
      <trkpt lat="44.45144" lon="4.56962">
        <ele>347</ele>
        <time>29-03-2015T10:05:54Z</time>
      </trkpt>
      <trkpt lat="44.45146" lon="4.56968">
        <ele>347</ele>
        <time>29-03-2015T10:05:55Z</time>
      </trkpt>
      <trkpt lat="44.45148" lon="4.56978">
        <ele>347</ele>
        <time>29-03-2015T10:05:56Z</time>
      </trkpt>
      <trkpt lat="44.45151" lon="4.56985">
        <ele>347</ele>
        <time>29-03-2015T10:05:57Z</time>
      </trkpt>
      <trkpt lat="44.45151" lon="4.56998">
        <ele>347</ele>
        <time>29-03-2015T10:05:58Z</time>
      </trkpt>
      <trkpt lat="44.45153" lon="4.57007">
        <ele>347</ele>
        <time>29-03-2015T10:05:59Z</time>
      </trkpt>
      <trkpt lat="44.45154" lon="4.57018">
        <ele>347</ele>
        <time>29-03-2015T10:06:00Z</time>
      </trkpt>
      <trkpt lat="44.45156" lon="4.57028">
        <ele>347</ele>
        <time>29-03-2015T10:06:01Z</time>
      </trkpt>
      <trkpt lat="44.45157" lon="4.57036">
        <ele>347</ele>
        <time>29-03-2015T10:06:02Z</time>
      </trkpt>
      <trkpt lat="44.45159" lon="4.57046">
        <ele>347</ele>
        <time>29-03-2015T10:06:03Z</time>
      </trkpt>
      <trkpt lat="44.45161" lon="4.57057">
        <ele>345</ele>
        <time>29-03-2015T10:06:04Z</time>
      </trkpt>
      <trkpt lat="44.45161" lon="4.57069">
        <ele>345</ele>
        <time>29-03-2015T10:06:05Z</time>
      </trkpt>
      <trkpt lat="44.45164" lon="4.57077">
        <ele>345</ele>
        <time>29-03-2015T10:06:06Z</time>
      </trkpt>
      <trkpt lat="44.45165" lon="4.57088">
        <ele>345</ele>
        <time>29-03-2015T10:06:07Z</time>
      </trkpt>
      <trkpt lat="44.45165" lon="4.57098">
        <ele>345</ele>
        <time>29-03-2015T10:06:08Z</time>
      </trkpt>
      <trkpt lat="44.45165" lon="4.57111">
        <ele>344</ele>
        <time>29-03-2015T10:06:09Z</time>
      </trkpt>
      <trkpt lat="44.45168" lon="4.5712">
        <ele>344</ele>
        <time>29-03-2015T10:06:10Z</time>
      </trkpt>
      <trkpt lat="44.45168" lon="4.57131">
        <ele>344</ele>
        <time>29-03-2015T10:06:11Z</time>
      </trkpt>
      <trkpt lat="44.45169" lon="4.57141">
        <ele>344</ele>
        <time>29-03-2015T10:06:12Z</time>
      </trkpt>
      <trkpt lat="44.45169" lon="4.57153">
        <ele>344</ele>
        <time>29-03-2015T10:06:13Z</time>
      </trkpt>
      <trkpt lat="44.45171" lon="4.57163">
        <ele>342</ele>
        <time>29-03-2015T10:06:14Z</time>
      </trkpt>
      <trkpt lat="44.45172" lon="4.57172">
        <ele>342</ele>
        <time>29-03-2015T10:06:15Z</time>
      </trkpt>
      <trkpt lat="44.45175" lon="4.5718">
        <ele>342</ele>
        <time>29-03-2015T10:06:16Z</time>
      </trkpt>
      <trkpt lat="44.45179" lon="4.57189">
        <ele>342</ele>
        <time>29-03-2015T10:06:17Z</time>
      </trkpt>
      <trkpt lat="44.45181" lon="4.57199">
        <ele>342</ele>
        <time>29-03-2015T10:06:18Z</time>
      </trkpt>
      <trkpt lat="44.45184" lon="4.57208">
        <ele>340</ele>
        <time>29-03-2015T10:06:19Z</time>
      </trkpt>
      <trkpt lat="44.45186" lon="4.57215">
        <ele>340</ele>
        <time>29-03-2015T10:06:20Z</time>
      </trkpt>
      <trkpt lat="44.45187" lon="4.57226">
        <ele>340</ele>
        <time>29-03-2015T10:06:21Z</time>
      </trkpt>
      <trkpt lat="44.4519" lon="4.57231">
        <ele>340</ele>
        <time>29-03-2015T10:06:22Z</time>
      </trkpt>
      <trkpt lat="44.4519" lon="4.57242">
        <ele>340</ele>
        <time>29-03-2015T10:06:23Z</time>
      </trkpt>
      <trkpt lat="44.45192" lon="4.57251">
        <ele>339</ele>
        <time>29-03-2015T10:06:24Z</time>
      </trkpt>
      <trkpt lat="44.45194" lon="4.57262">
        <ele>339</ele>
        <time>29-03-2015T10:06:25Z</time>
      </trkpt>
      <trkpt lat="44.45197" lon="4.57271">
        <ele>339</ele>
        <time>29-03-2015T10:06:26Z</time>
      </trkpt>
      <trkpt lat="44.45197" lon="4.57281">
        <ele>339</ele>
        <time>29-03-2015T10:06:27Z</time>
      </trkpt>
      <trkpt lat="44.45196" lon="4.57294">
        <ele>339</ele>
        <time>29-03-2015T10:06:28Z</time>
      </trkpt>
      <trkpt lat="44.45194" lon="4.57305">
        <ele>336</ele>
        <time>29-03-2015T10:06:29Z</time>
      </trkpt>
      <trkpt lat="44.45192" lon="4.57317">
        <ele>336</ele>
        <time>29-03-2015T10:06:30Z</time>
      </trkpt>
      <trkpt lat="44.45189" lon="4.57327">
        <ele>336</ele>
        <time>29-03-2015T10:06:31Z</time>
      </trkpt>
      <trkpt lat="44.4519" lon="4.57338">
        <ele>336</ele>
        <time>29-03-2015T10:06:32Z</time>
      </trkpt>
      <trkpt lat="44.4519" lon="4.57349">
        <ele>336</ele>
        <time>29-03-2015T10:06:33Z</time>
      </trkpt>
      <trkpt lat="44.45193" lon="4.5736">
        <ele>336</ele>
        <time>29-03-2015T10:06:34Z</time>
      </trkpt>
      <trkpt lat="44.45194" lon="4.57368">
        <ele>336</ele>
        <time>29-03-2015T10:06:35Z</time>
      </trkpt>
      <trkpt lat="44.45196" lon="4.57378">
        <ele>336</ele>
        <time>29-03-2015T10:06:36Z</time>
      </trkpt>
      <trkpt lat="44.45197" lon="4.57386">
        <ele>336</ele>
        <time>29-03-2015T10:06:37Z</time>
      </trkpt>
      <trkpt lat="44.45198" lon="4.57398">
        <ele>336</ele>
        <time>29-03-2015T10:06:38Z</time>
      </trkpt>
      <trkpt lat="44.452" lon="4.57407">
        <ele>335</ele>
        <time>29-03-2015T10:06:39Z</time>
      </trkpt>
      <trkpt lat="44.452" lon="4.57417">
        <ele>335</ele>
        <time>29-03-2015T10:06:40Z</time>
      </trkpt>
      <trkpt lat="44.45201" lon="4.57426">
        <ele>335</ele>
        <time>29-03-2015T10:06:41Z</time>
      </trkpt>
      <trkpt lat="44.45202" lon="4.57436">
        <ele>335</ele>
        <time>29-03-2015T10:06:42Z</time>
      </trkpt>
      <trkpt lat="44.45204" lon="4.57445">
        <ele>335</ele>
        <time>29-03-2015T10:06:43Z</time>
      </trkpt>
      <trkpt lat="44.45205" lon="4.57453">
        <ele>335</ele>
        <time>29-03-2015T10:06:44Z</time>
      </trkpt>
      <trkpt lat="44.45208" lon="4.57461">
        <ele>335</ele>
        <time>29-03-2015T10:06:45Z</time>
      </trkpt>
      <trkpt lat="44.4521" lon="4.57471">
        <ele>335</ele>
        <time>29-03-2015T10:06:46Z</time>
      </trkpt>
      <trkpt lat="44.45213" lon="4.57479">
        <ele>335</ele>
        <time>29-03-2015T10:06:47Z</time>
      </trkpt>
      <trkpt lat="44.45216" lon="4.57487">
        <ele>335</ele>
        <time>29-03-2015T10:06:48Z</time>
      </trkpt>
      <trkpt lat="44.4522" lon="4.57495">
        <ele>335</ele>
        <time>29-03-2015T10:06:49Z</time>
      </trkpt>
      <trkpt lat="44.45222" lon="4.57506">
        <ele>335</ele>
        <time>29-03-2015T10:06:50Z</time>
      </trkpt>
      <trkpt lat="44.45225" lon="4.57513">
        <ele>335</ele>
        <time>29-03-2015T10:06:51Z</time>
      </trkpt>
      <trkpt lat="44.45229" lon="4.5752">
        <ele>335</ele>
        <time>29-03-2015T10:06:52Z</time>
      </trkpt>
      <trkpt lat="44.45231" lon="4.57527">
        <ele>335</ele>
        <time>29-03-2015T10:06:53Z</time>
      </trkpt>
      <trkpt lat="44.45233" lon="4.57536">
        <ele>333</ele>
        <time>29-03-2015T10:06:54Z</time>
      </trkpt>
      <trkpt lat="44.45236" lon="4.57544">
        <ele>333</ele>
        <time>29-03-2015T10:06:55Z</time>
      </trkpt>
      <trkpt lat="44.45239" lon="4.57551">
        <ele>333</ele>
        <time>29-03-2015T10:06:56Z</time>
      </trkpt>
      <trkpt lat="44.45241" lon="4.5756">
        <ele>333</ele>
        <time>29-03-2015T10:06:57Z</time>
      </trkpt>
      <trkpt lat="44.45245" lon="4.57568">
        <ele>333</ele>
        <time>29-03-2015T10:06:58Z</time>
      </trkpt>
      <trkpt lat="44.45247" lon="4.57576">
        <ele>330</ele>
        <time>29-03-2015T10:06:59Z</time>
      </trkpt>
      <trkpt lat="44.45251" lon="4.57582">
        <ele>330</ele>
        <time>29-03-2015T10:07:00Z</time>
      </trkpt>
      <trkpt lat="44.45251" lon="4.57592">
        <ele>330</ele>
        <time>29-03-2015T10:07:01Z</time>
      </trkpt>
      <trkpt lat="44.45253" lon="4.57599">
        <ele>330</ele>
        <time>29-03-2015T10:07:02Z</time>
      </trkpt>
      <trkpt lat="44.45253" lon="4.5761">
        <ele>330</ele>
        <time>29-03-2015T10:07:03Z</time>
      </trkpt>
      <trkpt lat="44.45256" lon="4.57616">
        <ele>329</ele>
        <time>29-03-2015T10:07:04Z</time>
      </trkpt>
      <trkpt lat="44.45259" lon="4.57625">
        <ele>329</ele>
        <time>29-03-2015T10:07:05Z</time>
      </trkpt>
      <trkpt lat="44.45261" lon="4.57633">
        <ele>329</ele>
        <time>29-03-2015T10:07:06Z</time>
      </trkpt>
      <trkpt lat="44.45261" lon="4.57642">
        <ele>329</ele>
        <time>29-03-2015T10:07:07Z</time>
      </trkpt>
      <trkpt lat="44.45262" lon="4.57651">
        <ele>326</ele>
        <time>29-03-2015T10:07:09Z</time>
      </trkpt>
      <trkpt lat="44.45257" lon="4.57654">
        <ele>326</ele>
        <time>29-03-2015T10:07:12Z</time>
      </trkpt>
      <trkpt lat="44.45252" lon="4.57652">
        <ele>326</ele>
        <time>29-03-2015T10:07:14Z</time>
      </trkpt>
      <trkpt lat="44.45248" lon="4.57648">
        <ele>326</ele>
        <time>29-03-2015T10:07:16Z</time>
      </trkpt>
      <trkpt lat="44.45246" lon="4.57642">
        <ele>326</ele>
        <time>29-03-2015T10:07:19Z</time>
      </trkpt>
      <trkpt lat="44.45242" lon="4.5764">
        <ele>326</ele>
        <time>29-03-2015T10:07:21Z</time>
      </trkpt>
      <trkpt lat="44.45239" lon="4.57633">
        <ele>326</ele>
        <time>29-03-2015T10:07:23Z</time>
      </trkpt>
      <trkpt lat="44.45235" lon="4.57628">
        <ele>326</ele>
        <time>29-03-2015T10:07:25Z</time>
      </trkpt>
      <trkpt lat="44.45229" lon="4.57625">
        <ele>326</ele>
        <time>29-03-2015T10:07:27Z</time>
      </trkpt>
      <trkpt lat="44.45222" lon="4.57628">
        <ele>326</ele>
        <time>29-03-2015T10:07:29Z</time>
      </trkpt>
      <trkpt lat="44.45213" lon="4.57636">
        <ele>326</ele>
        <time>29-03-2015T10:07:31Z</time>
      </trkpt>
      <trkpt lat="44.45209" lon="4.57641">
        <ele>326</ele>
        <time>29-03-2015T10:07:32Z</time>
      </trkpt>
      <trkpt lat="44.45203" lon="4.57644">
        <ele>326</ele>
        <time>29-03-2015T10:07:33Z</time>
      </trkpt>
      <trkpt lat="44.45199" lon="4.57648">
        <ele>324</ele>
        <time>29-03-2015T10:07:34Z</time>
      </trkpt>
      <trkpt lat="44.4519" lon="4.57653">
        <ele>324</ele>
        <time>29-03-2015T10:07:36Z</time>
      </trkpt>
      <trkpt lat="44.45185" lon="4.57655">
        <ele>324</ele>
        <time>29-03-2015T10:07:37Z</time>
      </trkpt>
      <trkpt lat="44.4518" lon="4.57658">
        <ele>324</ele>
        <time>29-03-2015T10:07:38Z</time>
      </trkpt>
      <trkpt lat="44.45174" lon="4.5766">
        <ele>322</ele>
        <time>29-03-2015T10:07:39Z</time>
      </trkpt>
      <trkpt lat="44.4517" lon="4.57662">
        <ele>322</ele>
        <time>29-03-2015T10:07:40Z</time>
      </trkpt>
      <trkpt lat="44.45165" lon="4.57663">
        <ele>322</ele>
        <time>29-03-2015T10:07:41Z</time>
      </trkpt>
      <trkpt lat="44.45161" lon="4.57666">
        <ele>322</ele>
        <time>29-03-2015T10:07:42Z</time>
      </trkpt>
      <trkpt lat="44.45156" lon="4.57669">
        <ele>322</ele>
        <time>29-03-2015T10:07:43Z</time>
      </trkpt>
      <trkpt lat="44.45149" lon="4.57676">
        <ele>323</ele>
        <time>29-03-2015T10:07:45Z</time>
      </trkpt>
      <trkpt lat="44.45145" lon="4.57684">
        <ele>323</ele>
        <time>29-03-2015T10:07:47Z</time>
      </trkpt>
      <trkpt lat="44.45138" lon="4.57691">
        <ele>325</ele>
        <time>29-03-2015T10:07:49Z</time>
      </trkpt>
      <trkpt lat="44.45133" lon="4.57694">
        <ele>325</ele>
        <time>29-03-2015T10:07:51Z</time>
      </trkpt>
      <trkpt lat="44.45129" lon="4.57697">
        <ele>325</ele>
        <time>29-03-2015T10:07:53Z</time>
      </trkpt>
      <trkpt lat="44.45124" lon="4.57703">
        <ele>325</ele>
        <time>29-03-2015T10:07:56Z</time>
      </trkpt>
      <trkpt lat="44.45119" lon="4.57709">
        <ele>326</ele>
        <time>29-03-2015T10:07:59Z</time>
      </trkpt>
      <trkpt lat="44.45112" lon="4.57717">
        <ele>326</ele>
        <time>29-03-2015T10:08:01Z</time>
      </trkpt>
      <trkpt lat="44.45106" lon="4.57725">
        <ele>326</ele>
        <time>29-03-2015T10:08:03Z</time>
      </trkpt>
      <trkpt lat="44.45101" lon="4.57731">
        <ele>329</ele>
        <time>29-03-2015T10:08:05Z</time>
      </trkpt>
      <trkpt lat="44.45095" lon="4.57735">
        <ele>329</ele>
        <time>29-03-2015T10:08:07Z</time>
      </trkpt>
      <trkpt lat="44.45091" lon="4.5774">
        <ele>328</ele>
        <time>29-03-2015T10:08:09Z</time>
      </trkpt>
      <trkpt lat="44.45084" lon="4.57745">
        <ele>328</ele>
        <time>29-03-2015T10:08:11Z</time>
      </trkpt>
      <trkpt lat="44.45077" lon="4.57754">
        <ele>328</ele>
        <time>29-03-2015T10:08:13Z</time>
      </trkpt>
      <trkpt lat="44.45071" lon="4.57763">
        <ele>328</ele>
        <time>29-03-2015T10:08:15Z</time>
      </trkpt>
      <trkpt lat="44.45065" lon="4.5777">
        <ele>328</ele>
        <time>29-03-2015T10:08:17Z</time>
      </trkpt>
      <trkpt lat="44.4506" lon="4.57774">
        <ele>329</ele>
        <time>29-03-2015T10:08:19Z</time>
      </trkpt>
      <trkpt lat="44.45054" lon="4.5778">
        <ele>329</ele>
        <time>29-03-2015T10:08:21Z</time>
      </trkpt>
      <trkpt lat="44.4505" lon="4.57781">
        <ele>329</ele>
        <time>29-03-2015T10:08:22Z</time>
      </trkpt>
      <trkpt lat="44.45046" lon="4.57788">
        <ele>329</ele>
        <time>29-03-2015T10:08:23Z</time>
      </trkpt>
      <trkpt lat="44.45041" lon="4.57791">
        <ele>329</ele>
        <time>29-03-2015T10:08:24Z</time>
      </trkpt>
      <trkpt lat="44.45038" lon="4.57799">
        <ele>329</ele>
        <time>29-03-2015T10:08:25Z</time>
      </trkpt>
      <trkpt lat="44.45033" lon="4.57804">
        <ele>329</ele>
        <time>29-03-2015T10:08:26Z</time>
      </trkpt>
      <trkpt lat="44.4503" lon="4.5781">
        <ele>329</ele>
        <time>29-03-2015T10:08:27Z</time>
      </trkpt>
      <trkpt lat="44.45026" lon="4.57815">
        <ele>329</ele>
        <time>29-03-2015T10:08:28Z</time>
      </trkpt>
      <trkpt lat="44.45019" lon="4.5782">
        <ele>329</ele>
        <time>29-03-2015T10:08:30Z</time>
      </trkpt>
      <trkpt lat="44.45012" lon="4.57826">
        <ele>329</ele>
        <time>29-03-2015T10:08:32Z</time>
      </trkpt>
      <trkpt lat="44.45007" lon="4.57831">
        <ele>329</ele>
        <time>29-03-2015T10:08:33Z</time>
      </trkpt>
      <trkpt lat="44.45004" lon="4.57836">
        <ele>329</ele>
        <time>29-03-2015T10:08:34Z</time>
      </trkpt>
      <trkpt lat="44.44999" lon="4.57843">
        <ele>329</ele>
        <time>29-03-2015T10:08:35Z</time>
      </trkpt>
      <trkpt lat="44.44994" lon="4.57847">
        <ele>329</ele>
        <time>29-03-2015T10:08:36Z</time>
      </trkpt>
      <trkpt lat="44.4499" lon="4.57852">
        <ele>329</ele>
        <time>29-03-2015T10:08:37Z</time>
      </trkpt>
      <trkpt lat="44.44983" lon="4.57858">
        <ele>328</ele>
        <time>29-03-2015T10:08:39Z</time>
      </trkpt>
      <trkpt lat="44.44978" lon="4.57861">
        <ele>328</ele>
        <time>29-03-2015T10:08:40Z</time>
      </trkpt>
      <trkpt lat="44.44974" lon="4.57865">
        <ele>328</ele>
        <time>29-03-2015T10:08:41Z</time>
      </trkpt>
      <trkpt lat="44.4497" lon="4.57873">
        <ele>328</ele>
        <time>29-03-2015T10:08:42Z</time>
      </trkpt>
      <trkpt lat="44.44967" lon="4.5788">
        <ele>328</ele>
        <time>29-03-2015T10:08:43Z</time>
      </trkpt>
      <trkpt lat="44.44962" lon="4.57888">
        <ele>326</ele>
        <time>29-03-2015T10:08:44Z</time>
      </trkpt>
      <trkpt lat="44.44959" lon="4.57896">
        <ele>326</ele>
        <time>29-03-2015T10:08:45Z</time>
      </trkpt>
      <trkpt lat="44.44954" lon="4.579">
        <ele>326</ele>
        <time>29-03-2015T10:08:46Z</time>
      </trkpt>
      <trkpt lat="44.44951" lon="4.57905">
        <ele>326</ele>
        <time>29-03-2015T10:08:47Z</time>
      </trkpt>
      <trkpt lat="44.44946" lon="4.57907">
        <ele>326</ele>
        <time>29-03-2015T10:08:48Z</time>
      </trkpt>
      <trkpt lat="44.44941" lon="4.5791">
        <ele>326</ele>
        <time>29-03-2015T10:08:49Z</time>
      </trkpt>
      <trkpt lat="44.44937" lon="4.57917">
        <ele>326</ele>
        <time>29-03-2015T10:08:50Z</time>
      </trkpt>
      <trkpt lat="44.44933" lon="4.57923">
        <ele>326</ele>
        <time>29-03-2015T10:08:51Z</time>
      </trkpt>
      <trkpt lat="44.44931" lon="4.57932">
        <ele>326</ele>
        <time>29-03-2015T10:08:52Z</time>
      </trkpt>
      <trkpt lat="44.44928" lon="4.57939">
        <ele>326</ele>
        <time>29-03-2015T10:08:53Z</time>
      </trkpt>
      <trkpt lat="44.44925" lon="4.57943">
        <ele>326</ele>
        <time>29-03-2015T10:08:54Z</time>
      </trkpt>
      <trkpt lat="44.44917" lon="4.57949">
        <ele>326</ele>
        <time>29-03-2015T10:08:56Z</time>
      </trkpt>
      <trkpt lat="44.44911" lon="4.57954">
        <ele>326</ele>
        <time>29-03-2015T10:08:57Z</time>
      </trkpt>
      <trkpt lat="44.44904" lon="4.5796">
        <ele>326</ele>
        <time>29-03-2015T10:08:58Z</time>
      </trkpt>
      <trkpt lat="44.44896" lon="4.57968">
        <ele>323</ele>
        <time>29-03-2015T10:08:59Z</time>
      </trkpt>
      <trkpt lat="44.44889" lon="4.57982">
        <ele>323</ele>
        <time>29-03-2015T10:09:00Z</time>
      </trkpt>
      <trkpt lat="44.44882" lon="4.57991">
        <ele>323</ele>
        <time>29-03-2015T10:09:01Z</time>
      </trkpt>
      <trkpt lat="44.44877" lon="4.57999">
        <ele>323</ele>
        <time>29-03-2015T10:09:02Z</time>
      </trkpt>
      <trkpt lat="44.4487" lon="4.58013">
        <ele>323</ele>
        <time>29-03-2015T10:09:03Z</time>
      </trkpt>
      <trkpt lat="44.44866" lon="4.58024">
        <ele>319</ele>
        <time>29-03-2015T10:09:04Z</time>
      </trkpt>
      <trkpt lat="44.44862" lon="4.5804">
        <ele>319</ele>
        <time>29-03-2015T10:09:05Z</time>
      </trkpt>
      <trkpt lat="44.4486" lon="4.58054">
        <ele>319</ele>
        <time>29-03-2015T10:09:06Z</time>
      </trkpt>
      <trkpt lat="44.44858" lon="4.58066">
        <ele>319</ele>
        <time>29-03-2015T10:09:07Z</time>
      </trkpt>
      <trkpt lat="44.44855" lon="4.5808">
        <ele>319</ele>
        <time>29-03-2015T10:09:08Z</time>
      </trkpt>
      <trkpt lat="44.44853" lon="4.58091">
        <ele>314</ele>
        <time>29-03-2015T10:09:09Z</time>
      </trkpt>
      <trkpt lat="44.4485" lon="4.58104">
        <ele>314</ele>
        <time>29-03-2015T10:09:10Z</time>
      </trkpt>
      <trkpt lat="44.44847" lon="4.58117">
        <ele>314</ele>
        <time>29-03-2015T10:09:11Z</time>
      </trkpt>
      <trkpt lat="44.44845" lon="4.58127">
        <ele>314</ele>
        <time>29-03-2015T10:09:12Z</time>
      </trkpt>
      <trkpt lat="44.44843" lon="4.58138">
        <ele>314</ele>
        <time>29-03-2015T10:09:13Z</time>
      </trkpt>
      <trkpt lat="44.44842" lon="4.58147">
        <ele>313</ele>
        <time>29-03-2015T10:09:14Z</time>
      </trkpt>
      <trkpt lat="44.44839" lon="4.58155">
        <ele>313</ele>
        <time>29-03-2015T10:09:15Z</time>
      </trkpt>
      <trkpt lat="44.44835" lon="4.58168">
        <ele>313</ele>
        <time>29-03-2015T10:09:16Z</time>
      </trkpt>
      <trkpt lat="44.44834" lon="4.58177">
        <ele>313</ele>
        <time>29-03-2015T10:09:17Z</time>
      </trkpt>
      <trkpt lat="44.44831" lon="4.58188">
        <ele>313</ele>
        <time>29-03-2015T10:09:18Z</time>
      </trkpt>
      <trkpt lat="44.44829" lon="4.58194">
        <ele>312</ele>
        <time>29-03-2015T10:09:19Z</time>
      </trkpt>
      <trkpt lat="44.44822" lon="4.58206">
        <ele>312</ele>
        <time>29-03-2015T10:09:21Z</time>
      </trkpt>
      <trkpt lat="44.44817" lon="4.58215">
        <ele>312</ele>
        <time>29-03-2015T10:09:22Z</time>
      </trkpt>
      <trkpt lat="44.44811" lon="4.58223">
        <ele>312</ele>
        <time>29-03-2015T10:09:23Z</time>
      </trkpt>
      <trkpt lat="44.44805" lon="4.58231">
        <ele>311</ele>
        <time>29-03-2015T10:09:24Z</time>
      </trkpt>
      <trkpt lat="44.448" lon="4.58235">
        <ele>311</ele>
        <time>29-03-2015T10:09:25Z</time>
      </trkpt>
      <trkpt lat="44.44795" lon="4.58242">
        <ele>311</ele>
        <time>29-03-2015T10:09:26Z</time>
      </trkpt>
      <trkpt lat="44.4479" lon="4.5825">
        <ele>311</ele>
        <time>29-03-2015T10:09:27Z</time>
      </trkpt>
      <trkpt lat="44.44785" lon="4.58258">
        <ele>311</ele>
        <time>29-03-2015T10:09:28Z</time>
      </trkpt>
      <trkpt lat="44.4478" lon="4.58269">
        <ele>311</ele>
        <time>29-03-2015T10:09:29Z</time>
      </trkpt>
      <trkpt lat="44.44776" lon="4.58278">
        <ele>311</ele>
        <time>29-03-2015T10:09:30Z</time>
      </trkpt>
      <trkpt lat="44.44771" lon="4.58285">
        <ele>311</ele>
        <time>29-03-2015T10:09:31Z</time>
      </trkpt>
      <trkpt lat="44.44768" lon="4.58292">
        <ele>311</ele>
        <time>29-03-2015T10:09:32Z</time>
      </trkpt>
      <trkpt lat="44.44763" lon="4.58299">
        <ele>311</ele>
        <time>29-03-2015T10:09:33Z</time>
      </trkpt>
      <trkpt lat="44.44759" lon="4.58309">
        <ele>310</ele>
        <time>29-03-2015T10:09:34Z</time>
      </trkpt>
      <trkpt lat="44.44755" lon="4.58322">
        <ele>310</ele>
        <time>29-03-2015T10:09:35Z</time>
      </trkpt>
      <trkpt lat="44.44751" lon="4.58332">
        <ele>310</ele>
        <time>29-03-2015T10:09:36Z</time>
      </trkpt>
      <trkpt lat="44.44749" lon="4.58341">
        <ele>310</ele>
        <time>29-03-2015T10:09:37Z</time>
      </trkpt>
      <trkpt lat="44.44746" lon="4.58351">
        <ele>310</ele>
        <time>29-03-2015T10:09:38Z</time>
      </trkpt>
      <trkpt lat="44.44743" lon="4.58361">
        <ele>308</ele>
        <time>29-03-2015T10:09:39Z</time>
      </trkpt>
      <trkpt lat="44.4474" lon="4.58375">
        <ele>308</ele>
        <time>29-03-2015T10:09:40Z</time>
      </trkpt>
      <trkpt lat="44.44737" lon="4.58386">
        <ele>308</ele>
        <time>29-03-2015T10:09:41Z</time>
      </trkpt>
      <trkpt lat="44.44735" lon="4.58395">
        <ele>308</ele>
        <time>29-03-2015T10:09:42Z</time>
      </trkpt>
      <trkpt lat="44.44735" lon="4.58407">
        <ele>308</ele>
        <time>29-03-2015T10:09:43Z</time>
      </trkpt>
      <trkpt lat="44.44732" lon="4.58417">
        <ele>307</ele>
        <time>29-03-2015T10:09:44Z</time>
      </trkpt>
      <trkpt lat="44.4473" lon="4.58428">
        <ele>307</ele>
        <time>29-03-2015T10:09:45Z</time>
      </trkpt>
      <trkpt lat="44.44728" lon="4.58441">
        <ele>307</ele>
        <time>29-03-2015T10:09:46Z</time>
      </trkpt>
      <trkpt lat="44.44726" lon="4.58452">
        <ele>307</ele>
        <time>29-03-2015T10:09:47Z</time>
      </trkpt>
      <trkpt lat="44.44726" lon="4.58462">
        <ele>307</ele>
        <time>29-03-2015T10:09:48Z</time>
      </trkpt>
      <trkpt lat="44.44725" lon="4.58475">
        <ele>304</ele>
        <time>29-03-2015T10:09:49Z</time>
      </trkpt>
      <trkpt lat="44.44724" lon="4.58488">
        <ele>304</ele>
        <time>29-03-2015T10:09:50Z</time>
      </trkpt>
      <trkpt lat="44.44723" lon="4.58499">
        <ele>304</ele>
        <time>29-03-2015T10:09:51Z</time>
      </trkpt>
      <trkpt lat="44.44721" lon="4.58512">
        <ele>304</ele>
        <time>29-03-2015T10:09:52Z</time>
      </trkpt>
      <trkpt lat="44.4472" lon="4.58522">
        <ele>304</ele>
        <time>29-03-2015T10:09:53Z</time>
      </trkpt>
      <trkpt lat="44.44718" lon="4.58535">
        <ele>304</ele>
        <time>29-03-2015T10:09:54Z</time>
      </trkpt>
      <trkpt lat="44.44715" lon="4.58548">
        <ele>304</ele>
        <time>29-03-2015T10:09:55Z</time>
      </trkpt>
      <trkpt lat="44.44714" lon="4.58558">
        <ele>304</ele>
        <time>29-03-2015T10:09:56Z</time>
      </trkpt>
      <trkpt lat="44.44713" lon="4.58567">
        <ele>304</ele>
        <time>29-03-2015T10:09:57Z</time>
      </trkpt>
      <trkpt lat="44.44712" lon="4.58579">
        <ele>304</ele>
        <time>29-03-2015T10:09:58Z</time>
      </trkpt>
      <trkpt lat="44.44709" lon="4.58591">
        <ele>303</ele>
        <time>29-03-2015T10:09:59Z</time>
      </trkpt>
      <trkpt lat="44.44707" lon="4.58604">
        <ele>303</ele>
        <time>29-03-2015T10:10:00Z</time>
      </trkpt>
      <trkpt lat="44.44706" lon="4.58615">
        <ele>303</ele>
        <time>29-03-2015T10:10:01Z</time>
      </trkpt>
      <trkpt lat="44.44706" lon="4.58624">
        <ele>303</ele>
        <time>29-03-2015T10:10:02Z</time>
      </trkpt>
      <trkpt lat="44.44705" lon="4.58638">
        <ele>303</ele>
        <time>29-03-2015T10:10:03Z</time>
      </trkpt>
      <trkpt lat="44.44703" lon="4.58651">
        <ele>301</ele>
        <time>29-03-2015T10:10:04Z</time>
      </trkpt>
      <trkpt lat="44.44702" lon="4.58672">
        <ele>301</ele>
        <time>29-03-2015T10:10:06Z</time>
      </trkpt>
      <trkpt lat="44.44701" lon="4.58682">
        <ele>301</ele>
        <time>29-03-2015T10:10:07Z</time>
      </trkpt>
      <trkpt lat="44.447" lon="4.58694">
        <ele>301</ele>
        <time>29-03-2015T10:10:08Z</time>
      </trkpt>
      <trkpt lat="44.44699" lon="4.58707">
        <ele>298</ele>
        <time>29-03-2015T10:10:09Z</time>
      </trkpt>
      <trkpt lat="44.44698" lon="4.58718">
        <ele>298</ele>
        <time>29-03-2015T10:10:10Z</time>
      </trkpt>
      <trkpt lat="44.44697" lon="4.58725">
        <ele>298</ele>
        <time>29-03-2015T10:10:11Z</time>
      </trkpt>
      <trkpt lat="44.44695" lon="4.58737">
        <ele>298</ele>
        <time>29-03-2015T10:10:12Z</time>
      </trkpt>
      <trkpt lat="44.44692" lon="4.5875">
        <ele>298</ele>
        <time>29-03-2015T10:10:13Z</time>
      </trkpt>
      <trkpt lat="44.4469" lon="4.58759">
        <ele>298</ele>
        <time>29-03-2015T10:10:14Z</time>
      </trkpt>
      <trkpt lat="44.44689" lon="4.58766">
        <ele>298</ele>
        <time>29-03-2015T10:10:15Z</time>
      </trkpt>
      <trkpt lat="44.44687" lon="4.58776">
        <ele>298</ele>
        <time>29-03-2015T10:10:16Z</time>
      </trkpt>
      <trkpt lat="44.44685" lon="4.58787">
        <ele>298</ele>
        <time>29-03-2015T10:10:17Z</time>
      </trkpt>
      <trkpt lat="44.44682" lon="4.58796">
        <ele>298</ele>
        <time>29-03-2015T10:10:18Z</time>
      </trkpt>
      <trkpt lat="44.44679" lon="4.58804">
        <ele>298</ele>
        <time>29-03-2015T10:10:19Z</time>
      </trkpt>
      <trkpt lat="44.44677" lon="4.58811">
        <ele>298</ele>
        <time>29-03-2015T10:10:20Z</time>
      </trkpt>
      <trkpt lat="44.44674" lon="4.5882">
        <ele>298</ele>
        <time>29-03-2015T10:10:21Z</time>
      </trkpt>
      <trkpt lat="44.44671" lon="4.58831">
        <ele>298</ele>
        <time>29-03-2015T10:10:22Z</time>
      </trkpt>
      <trkpt lat="44.44668" lon="4.58839">
        <ele>298</ele>
        <time>29-03-2015T10:10:23Z</time>
      </trkpt>
      <trkpt lat="44.44665" lon="4.58845">
        <ele>298</ele>
        <time>29-03-2015T10:10:24Z</time>
      </trkpt>
      <trkpt lat="44.44663" lon="4.58856">
        <ele>298</ele>
        <time>29-03-2015T10:10:25Z</time>
      </trkpt>
      <trkpt lat="44.4466" lon="4.58866">
        <ele>298</ele>
        <time>29-03-2015T10:10:26Z</time>
      </trkpt>
      <trkpt lat="44.44657" lon="4.58875">
        <ele>298</ele>
        <time>29-03-2015T10:10:27Z</time>
      </trkpt>
      <trkpt lat="44.44655" lon="4.58885">
        <ele>298</ele>
        <time>29-03-2015T10:10:28Z</time>
      </trkpt>
      <trkpt lat="44.44653" lon="4.58893">
        <ele>297</ele>
        <time>29-03-2015T10:10:29Z</time>
      </trkpt>
      <trkpt lat="44.44649" lon="4.58903">
        <ele>297</ele>
        <time>29-03-2015T10:10:30Z</time>
      </trkpt>
      <trkpt lat="44.44645" lon="4.58912">
        <ele>297</ele>
        <time>29-03-2015T10:10:31Z</time>
      </trkpt>
      <trkpt lat="44.44642" lon="4.58922">
        <ele>297</ele>
        <time>29-03-2015T10:10:32Z</time>
      </trkpt>
      <trkpt lat="44.44639" lon="4.58928">
        <ele>297</ele>
        <time>29-03-2015T10:10:33Z</time>
      </trkpt>
      <trkpt lat="44.44636" lon="4.58938">
        <ele>297</ele>
        <time>29-03-2015T10:10:34Z</time>
      </trkpt>
      <trkpt lat="44.44633" lon="4.58949">
        <ele>297</ele>
        <time>29-03-2015T10:10:35Z</time>
      </trkpt>
      <trkpt lat="44.4463" lon="4.58957">
        <ele>297</ele>
        <time>29-03-2015T10:10:36Z</time>
      </trkpt>
      <trkpt lat="44.44626" lon="4.58969">
        <ele>297</ele>
        <time>29-03-2015T10:10:38Z</time>
      </trkpt>
      <trkpt lat="44.44622" lon="4.5898">
        <ele>296</ele>
        <time>29-03-2015T10:10:39Z</time>
      </trkpt>
      <trkpt lat="44.44621" lon="4.58988">
        <ele>296</ele>
        <time>29-03-2015T10:10:40Z</time>
      </trkpt>
      <trkpt lat="44.44619" lon="4.58995">
        <ele>296</ele>
        <time>29-03-2015T10:10:41Z</time>
      </trkpt>
      <trkpt lat="44.44616" lon="4.59004">
        <ele>296</ele>
        <time>29-03-2015T10:10:42Z</time>
      </trkpt>
      <trkpt lat="44.44614" lon="4.59012">
        <ele>296</ele>
        <time>29-03-2015T10:10:43Z</time>
      </trkpt>
      <trkpt lat="44.44612" lon="4.59018">
        <ele>296</ele>
        <time>29-03-2015T10:10:44Z</time>
      </trkpt>
      <trkpt lat="44.4461" lon="4.59025">
        <ele>296</ele>
        <time>29-03-2015T10:10:45Z</time>
      </trkpt>
      <trkpt lat="44.44606" lon="4.59036">
        <ele>296</ele>
        <time>29-03-2015T10:10:47Z</time>
      </trkpt>
      <trkpt lat="44.44602" lon="4.59047">
        <ele>296</ele>
        <time>29-03-2015T10:10:49Z</time>
      </trkpt>
      <trkpt lat="44.44599" lon="4.59052">
        <ele>296</ele>
        <time>29-03-2015T10:10:51Z</time>
      </trkpt>
      <trkpt lat="44.44596" lon="4.5906">
        <ele>296</ele>
        <time>29-03-2015T10:10:52Z</time>
      </trkpt>
      <trkpt lat="44.44591" lon="4.59065">
        <ele>297</ele>
        <time>29-03-2015T10:10:54Z</time>
      </trkpt>
      <trkpt lat="44.44588" lon="4.5907">
        <ele>297</ele>
        <time>29-03-2015T10:10:55Z</time>
      </trkpt>
      <trkpt lat="44.44584" lon="4.59077">
        <ele>297</ele>
        <time>29-03-2015T10:10:56Z</time>
      </trkpt>
      <trkpt lat="44.4458" lon="4.59081">
        <ele>297</ele>
        <time>29-03-2015T10:10:58Z</time>
      </trkpt>
      <trkpt lat="44.44578" lon="4.59087">
        <ele>298</ele>
        <time>29-03-2015T10:10:59Z</time>
      </trkpt>
      <trkpt lat="44.44577" lon="4.59094">
        <ele>298</ele>
        <time>29-03-2015T10:11:00Z</time>
      </trkpt>
      <trkpt lat="44.44572" lon="4.59105">
        <ele>298</ele>
        <time>29-03-2015T10:11:03Z</time>
      </trkpt>
      <trkpt lat="44.44569" lon="4.59111">
        <ele>299</ele>
        <time>29-03-2015T10:11:04Z</time>
      </trkpt>
      <trkpt lat="44.44564" lon="4.59114">
        <ele>299</ele>
        <time>29-03-2015T10:11:06Z</time>
      </trkpt>
      <trkpt lat="44.44561" lon="4.59121">
        <ele>299</ele>
        <time>29-03-2015T10:11:07Z</time>
      </trkpt>
      <trkpt lat="44.44558" lon="4.59126">
        <ele>299</ele>
        <time>29-03-2015T10:11:08Z</time>
      </trkpt>
      <trkpt lat="44.44553" lon="4.59135">
        <ele>299</ele>
        <time>29-03-2015T10:11:11Z</time>
      </trkpt>
      <trkpt lat="44.44548" lon="4.59142">
        <ele>299</ele>
        <time>29-03-2015T10:11:13Z</time>
      </trkpt>
      <trkpt lat="44.44542" lon="4.5915">
        <ele>301</ele>
        <time>29-03-2015T10:11:15Z</time>
      </trkpt>
      <trkpt lat="44.44535" lon="4.59154">
        <ele>301</ele>
        <time>29-03-2015T10:11:17Z</time>
      </trkpt>
      <trkpt lat="44.44531" lon="4.5916">
        <ele>304</ele>
        <time>29-03-2015T10:11:19Z</time>
      </trkpt>
      <trkpt lat="44.44524" lon="4.59165">
        <ele>304</ele>
        <time>29-03-2015T10:11:21Z</time>
      </trkpt>
      <trkpt lat="44.44517" lon="4.59172">
        <ele>304</ele>
        <time>29-03-2015T10:11:23Z</time>
      </trkpt>
      <trkpt lat="44.44513" lon="4.59175">
        <ele>304</ele>
        <time>29-03-2015T10:11:24Z</time>
      </trkpt>
      <trkpt lat="44.44507" lon="4.59179">
        <ele>304</ele>
        <time>29-03-2015T10:11:26Z</time>
      </trkpt>
      <trkpt lat="44.44502" lon="4.59184">
        <ele>304</ele>
        <time>29-03-2015T10:11:27Z</time>
      </trkpt>
      <trkpt lat="44.44495" lon="4.59189">
        <ele>304</ele>
        <time>29-03-2015T10:11:29Z</time>
      </trkpt>
      <trkpt lat="44.44492" lon="4.59194">
        <ele>304</ele>
        <time>29-03-2015T10:11:30Z</time>
      </trkpt>
      <trkpt lat="44.44488" lon="4.592">
        <ele>304</ele>
        <time>29-03-2015T10:11:31Z</time>
      </trkpt>
      <trkpt lat="44.44483" lon="4.59205">
        <ele>304</ele>
        <time>29-03-2015T10:11:33Z</time>
      </trkpt>
      <trkpt lat="44.44481" lon="4.59212">
        <ele>304</ele>
        <time>29-03-2015T10:11:34Z</time>
      </trkpt>
      <trkpt lat="44.4448" lon="4.59218">
        <ele>304</ele>
        <time>29-03-2015T10:11:35Z</time>
      </trkpt>
      <trkpt lat="44.44476" lon="4.59225">
        <ele>304</ele>
        <time>29-03-2015T10:11:37Z</time>
      </trkpt>
      <trkpt lat="44.44475" lon="4.59232">
        <ele>304</ele>
        <time>29-03-2015T10:11:38Z</time>
      </trkpt>
      <trkpt lat="44.44474" lon="4.59239">
        <ele>304</ele>
        <time>29-03-2015T10:11:39Z</time>
      </trkpt>
      <trkpt lat="44.44473" lon="4.59252">
        <ele>304</ele>
        <time>29-03-2015T10:11:42Z</time>
      </trkpt>
      <trkpt lat="44.44473" lon="4.5926">
        <ele>305</ele>
        <time>29-03-2015T10:11:44Z</time>
      </trkpt>
      <trkpt lat="44.4447" lon="4.5927">
        <ele>305</ele>
        <time>29-03-2015T10:11:46Z</time>
      </trkpt>
      <trkpt lat="44.4447" lon="4.59278">
        <ele>305</ele>
        <time>29-03-2015T10:11:48Z</time>
      </trkpt>
      <trkpt lat="44.44466" lon="4.59288">
        <ele>309</ele>
        <time>29-03-2015T10:11:50Z</time>
      </trkpt>
      <trkpt lat="44.44462" lon="4.59298">
        <ele>309</ele>
        <time>29-03-2015T10:11:52Z</time>
      </trkpt>
      <trkpt lat="44.44458" lon="4.59304">
        <ele>309</ele>
        <time>29-03-2015T10:11:54Z</time>
      </trkpt>
      <trkpt lat="44.44455" lon="4.59315">
        <ele>309</ele>
        <time>29-03-2015T10:11:56Z</time>
      </trkpt>
      <trkpt lat="44.44451" lon="4.59324">
        <ele>312</ele>
        <time>29-03-2015T10:11:59Z</time>
      </trkpt>
      <trkpt lat="44.44449" lon="4.59331">
        <ele>312</ele>
        <time>29-03-2015T10:12:00Z</time>
      </trkpt>
      <trkpt lat="44.44447" lon="4.59341">
        <ele>312</ele>
        <time>29-03-2015T10:12:03Z</time>
      </trkpt>
      <trkpt lat="44.44446" lon="4.59349">
        <ele>314</ele>
        <time>29-03-2015T10:12:05Z</time>
      </trkpt>
      <trkpt lat="44.44444" lon="4.59357">
        <ele>314</ele>
        <time>29-03-2015T10:12:07Z</time>
      </trkpt>
      <trkpt lat="44.44442" lon="4.59364">
        <ele>316</ele>
        <time>29-03-2015T10:12:09Z</time>
      </trkpt>
      <trkpt lat="44.4444" lon="4.5937">
        <ele>316</ele>
        <time>29-03-2015T10:12:11Z</time>
      </trkpt>
      <trkpt lat="44.44438" lon="4.5938">
        <ele>316</ele>
        <time>29-03-2015T10:12:14Z</time>
      </trkpt>
      <trkpt lat="44.44437" lon="4.59387">
        <ele>316</ele>
        <time>29-03-2015T10:12:17Z</time>
      </trkpt>
      <trkpt lat="44.44437" lon="4.59396">
        <ele>317</ele>
        <time>29-03-2015T10:12:20Z</time>
      </trkpt>
      <trkpt lat="44.44437" lon="4.59407">
        <ele>317</ele>
        <time>29-03-2015T10:12:23Z</time>
      </trkpt>
      <trkpt lat="44.44438" lon="4.59414">
        <ele>318</ele>
        <time>29-03-2015T10:12:25Z</time>
      </trkpt>
      <trkpt lat="44.44438" lon="4.59421">
        <ele>318</ele>
        <time>29-03-2015T10:12:27Z</time>
      </trkpt>
      <trkpt lat="44.44439" lon="4.59431">
        <ele>318</ele>
        <time>29-03-2015T10:12:29Z</time>
      </trkpt>
      <trkpt lat="44.44438" lon="4.59439">
        <ele>318</ele>
        <time>29-03-2015T10:12:32Z</time>
      </trkpt>
      <trkpt lat="44.44439" lon="4.59448">
        <ele>318</ele>
        <time>29-03-2015T10:12:34Z</time>
      </trkpt>
      <trkpt lat="44.44433" lon="4.59454">
        <ele>318</ele>
        <time>29-03-2015T10:12:36Z</time>
      </trkpt>
      <trkpt lat="44.4443" lon="4.59462">
        <ele>318</ele>
        <time>29-03-2015T10:12:38Z</time>
      </trkpt>
      <trkpt lat="44.44426" lon="4.59466">
        <ele>319</ele>
        <time>29-03-2015T10:12:40Z</time>
      </trkpt>
      <trkpt lat="44.44421" lon="4.59467">
        <ele>319</ele>
        <time>29-03-2015T10:12:41Z</time>
      </trkpt>
      <trkpt lat="44.44416" lon="4.59468">
        <ele>319</ele>
        <time>29-03-2015T10:12:43Z</time>
      </trkpt>
      <trkpt lat="44.44411" lon="4.59471">
        <ele>320</ele>
        <time>29-03-2015T10:12:45Z</time>
      </trkpt>
      <trkpt lat="44.44406" lon="4.59474">
        <ele>320</ele>
        <time>29-03-2015T10:12:48Z</time>
      </trkpt>
      <trkpt lat="44.44403" lon="4.59481">
        <ele>322</ele>
        <time>29-03-2015T10:12:50Z</time>
      </trkpt>
      <trkpt lat="44.44399" lon="4.59485">
        <ele>322</ele>
        <time>29-03-2015T10:12:52Z</time>
      </trkpt>
      <trkpt lat="44.44396" lon="4.59492">
        <ele>323</ele>
        <time>29-03-2015T10:12:54Z</time>
      </trkpt>
      <trkpt lat="44.44394" lon="4.59498">
        <ele>323</ele>
        <time>29-03-2015T10:12:56Z</time>
      </trkpt>
      <trkpt lat="44.44391" lon="4.59503">
        <ele>326</ele>
        <time>29-03-2015T10:12:59Z</time>
      </trkpt>
      <trkpt lat="44.44388" lon="4.59508">
        <ele>326</ele>
        <time>29-03-2015T10:13:01Z</time>
      </trkpt>
      <trkpt lat="44.44384" lon="4.59511">
        <ele>326</ele>
        <time>29-03-2015T10:13:03Z</time>
      </trkpt>
      <trkpt lat="44.44381" lon="4.59516">
        <ele>327</ele>
        <time>29-03-2015T10:13:06Z</time>
      </trkpt>
      <trkpt lat="44.44377" lon="4.5952">
        <ele>328</ele>
        <time>29-03-2015T10:13:09Z</time>
      </trkpt>
      <trkpt lat="44.44374" lon="4.5953">
        <ele>328</ele>
        <time>29-03-2015T10:13:12Z</time>
      </trkpt>
      <trkpt lat="44.44369" lon="4.59534">
        <ele>329</ele>
        <time>29-03-2015T10:13:14Z</time>
      </trkpt>
      <trkpt lat="44.44366" lon="4.5954">
        <ele>329</ele>
        <time>29-03-2015T10:13:16Z</time>
      </trkpt>
      <trkpt lat="44.44361" lon="4.59545">
        <ele>330</ele>
        <time>29-03-2015T10:13:19Z</time>
      </trkpt>
      <trkpt lat="44.44356" lon="4.59544">
        <ele>330</ele>
        <time>29-03-2015T10:13:21Z</time>
      </trkpt>
      <trkpt lat="44.44351" lon="4.59545">
        <ele>330</ele>
        <time>29-03-2015T10:13:23Z</time>
      </trkpt>
      <trkpt lat="44.44345" lon="4.59547">
        <ele>331</ele>
        <time>29-03-2015T10:13:26Z</time>
      </trkpt>
      <trkpt lat="44.44341" lon="4.59553">
        <ele>332</ele>
        <time>29-03-2015T10:13:30Z</time>
      </trkpt>
      <trkpt lat="44.44335" lon="4.59552">
        <ele>332</ele>
        <time>29-03-2015T10:13:34Z</time>
      </trkpt>
      <trkpt lat="44.4433" lon="4.59557">
        <ele>332</ele>
        <time>29-03-2015T10:13:37Z</time>
      </trkpt>
      <trkpt lat="44.4433" lon="4.59547">
        <ele>332</ele>
        <time>29-03-2015T10:13:41Z</time>
      </trkpt>
      <trkpt lat="44.4433" lon="4.59536">
        <ele>332</ele>
        <time>29-03-2015T10:13:43Z</time>
      </trkpt>
      <trkpt lat="44.44325" lon="4.59529">
        <ele>332</ele>
        <time>29-03-2015T10:13:46Z</time>
      </trkpt>
      <trkpt lat="44.44321" lon="4.59523">
        <ele>332</ele>
        <time>29-03-2015T10:13:48Z</time>
      </trkpt>
      <trkpt lat="44.44314" lon="4.59516">
        <ele>332</ele>
        <time>29-03-2015T10:13:50Z</time>
      </trkpt>
      <trkpt lat="44.44309" lon="4.59509">
        <ele>332</ele>
        <time>29-03-2015T10:13:52Z</time>
      </trkpt>
      <trkpt lat="44.44302" lon="4.59505">
        <ele>333</ele>
        <time>29-03-2015T10:13:54Z</time>
      </trkpt>
      <trkpt lat="44.44295" lon="4.595">
        <ele>333</ele>
        <time>29-03-2015T10:13:56Z</time>
      </trkpt>
      <trkpt lat="44.44292" lon="4.59495">
        <ele>333</ele>
        <time>29-03-2015T10:13:57Z</time>
      </trkpt>
      <trkpt lat="44.44286" lon="4.59495">
        <ele>333</ele>
        <time>29-03-2015T10:13:58Z</time>
      </trkpt>
      <trkpt lat="44.44281" lon="4.59494">
        <ele>332</ele>
        <time>29-03-2015T10:13:59Z</time>
      </trkpt>
      <trkpt lat="44.44276" lon="4.59488">
        <ele>332</ele>
        <time>29-03-2015T10:14:00Z</time>
      </trkpt>
      <trkpt lat="44.4427" lon="4.59488">
        <ele>332</ele>
        <time>29-03-2015T10:14:01Z</time>
      </trkpt>
      <trkpt lat="44.44265" lon="4.59486">
        <ele>332</ele>
        <time>29-03-2015T10:14:02Z</time>
      </trkpt>
      <trkpt lat="44.4426" lon="4.59482">
        <ele>332</ele>
        <time>29-03-2015T10:14:03Z</time>
      </trkpt>
      <trkpt lat="44.44252" lon="4.59478">
        <ele>331</ele>
        <time>29-03-2015T10:14:05Z</time>
      </trkpt>
      <trkpt lat="44.44245" lon="4.59474">
        <ele>331</ele>
        <time>29-03-2015T10:14:07Z</time>
      </trkpt>
      <trkpt lat="44.44237" lon="4.59469">
        <ele>330</ele>
        <time>29-03-2015T10:14:09Z</time>
      </trkpt>
      <trkpt lat="44.44233" lon="4.59465">
        <ele>330</ele>
        <time>29-03-2015T10:14:10Z</time>
      </trkpt>
      <trkpt lat="44.44229" lon="4.59461">
        <ele>330</ele>
        <time>29-03-2015T10:14:11Z</time>
      </trkpt>
      <trkpt lat="44.44224" lon="4.59457">
        <ele>330</ele>
        <time>29-03-2015T10:14:12Z</time>
      </trkpt>
      <trkpt lat="44.4422" lon="4.59454">
        <ele>330</ele>
        <time>29-03-2015T10:14:13Z</time>
      </trkpt>
      <trkpt lat="44.44211" lon="4.59453">
        <ele>329</ele>
        <time>29-03-2015T10:14:15Z</time>
      </trkpt>
      <trkpt lat="44.44204" lon="4.5945">
        <ele>329</ele>
        <time>29-03-2015T10:14:17Z</time>
      </trkpt>
      <trkpt lat="44.44199" lon="4.59447">
        <ele>329</ele>
        <time>29-03-2015T10:14:18Z</time>
      </trkpt>
      <trkpt lat="44.44195" lon="4.59444">
        <ele>329</ele>
        <time>29-03-2015T10:14:19Z</time>
      </trkpt>
      <trkpt lat="44.44191" lon="4.59443">
        <ele>329</ele>
        <time>29-03-2015T10:14:20Z</time>
      </trkpt>
      <trkpt lat="44.44185" lon="4.5944">
        <ele>329</ele>
        <time>29-03-2015T10:14:21Z</time>
      </trkpt>
      <trkpt lat="44.44179" lon="4.59438">
        <ele>329</ele>
        <time>29-03-2015T10:14:22Z</time>
      </trkpt>
      <trkpt lat="44.44174" lon="4.59438">
        <ele>329</ele>
        <time>29-03-2015T10:14:23Z</time>
      </trkpt>
      <trkpt lat="44.4417" lon="4.59434">
        <ele>328</ele>
        <time>29-03-2015T10:14:24Z</time>
      </trkpt>
      <trkpt lat="44.44161" lon="4.59434">
        <ele>328</ele>
        <time>29-03-2015T10:14:26Z</time>
      </trkpt>
      <trkpt lat="44.44157" lon="4.59431">
        <ele>328</ele>
        <time>29-03-2015T10:14:27Z</time>
      </trkpt>
      <trkpt lat="44.44151" lon="4.5943">
        <ele>328</ele>
        <time>29-03-2015T10:14:28Z</time>
      </trkpt>
      <trkpt lat="44.44147" lon="4.59425">
        <ele>328</ele>
        <time>29-03-2015T10:14:29Z</time>
      </trkpt>
      <trkpt lat="44.44142" lon="4.59424">
        <ele>328</ele>
        <time>29-03-2015T10:14:30Z</time>
      </trkpt>
      <trkpt lat="44.44137" lon="4.59423">
        <ele>328</ele>
        <time>29-03-2015T10:14:31Z</time>
      </trkpt>
      <trkpt lat="44.44129" lon="4.59422">
        <ele>328</ele>
        <time>29-03-2015T10:14:33Z</time>
      </trkpt>
      <trkpt lat="44.44121" lon="4.59425">
        <ele>326</ele>
        <time>29-03-2015T10:14:35Z</time>
      </trkpt>
      <trkpt lat="44.44117" lon="4.59428">
        <ele>326</ele>
        <time>29-03-2015T10:14:36Z</time>
      </trkpt>
      <trkpt lat="44.44107" lon="4.59431">
        <ele>326</ele>
        <time>29-03-2015T10:14:38Z</time>
      </trkpt>
      <trkpt lat="44.44099" lon="4.59431">
        <ele>325</ele>
        <time>29-03-2015T10:14:40Z</time>
      </trkpt>
      <trkpt lat="44.44091" lon="4.59431">
        <ele>325</ele>
        <time>29-03-2015T10:14:42Z</time>
      </trkpt>
      <trkpt lat="44.44086" lon="4.59434">
        <ele>325</ele>
        <time>29-03-2015T10:14:43Z</time>
      </trkpt>
      <trkpt lat="44.44082" lon="4.59436">
        <ele>323</ele>
        <time>29-03-2015T10:14:44Z</time>
      </trkpt>
      <trkpt lat="44.44077" lon="4.59439">
        <ele>323</ele>
        <time>29-03-2015T10:14:45Z</time>
      </trkpt>
      <trkpt lat="44.44073" lon="4.59441">
        <ele>323</ele>
        <time>29-03-2015T10:14:46Z</time>
      </trkpt>
      <trkpt lat="44.44067" lon="4.59444">
        <ele>323</ele>
        <time>29-03-2015T10:14:47Z</time>
      </trkpt>
      <trkpt lat="44.44062" lon="4.59446">
        <ele>323</ele>
        <time>29-03-2015T10:14:48Z</time>
      </trkpt>
      <trkpt lat="44.44057" lon="4.59444">
        <ele>323</ele>
        <time>29-03-2015T10:14:49Z</time>
      </trkpt>
      <trkpt lat="44.4405" lon="4.59445">
        <ele>323</ele>
        <time>29-03-2015T10:14:50Z</time>
      </trkpt>
      <trkpt lat="44.44044" lon="4.59446">
        <ele>323</ele>
        <time>29-03-2015T10:14:52Z</time>
      </trkpt>
      <trkpt lat="44.44037" lon="4.5945">
        <ele>323</ele>
        <time>29-03-2015T10:14:54Z</time>
      </trkpt>
      <trkpt lat="44.44033" lon="4.59453">
        <ele>323</ele>
        <time>29-03-2015T10:14:55Z</time>
      </trkpt>
      <trkpt lat="44.44025" lon="4.5946">
        <ele>323</ele>
        <time>29-03-2015T10:14:57Z</time>
      </trkpt>
      <trkpt lat="44.44021" lon="4.59463">
        <ele>323</ele>
        <time>29-03-2015T10:14:58Z</time>
      </trkpt>
      <trkpt lat="44.44016" lon="4.59464">
        <ele>320</ele>
        <time>29-03-2015T10:14:59Z</time>
      </trkpt>
      <trkpt lat="44.44011" lon="4.59463">
        <ele>320</ele>
        <time>29-03-2015T10:15:00Z</time>
      </trkpt>
      <trkpt lat="44.44002" lon="4.59461">
        <ele>320</ele>
        <time>29-03-2015T10:15:02Z</time>
      </trkpt>
      <trkpt lat="44.43997" lon="4.5946">
        <ele>320</ele>
        <time>29-03-2015T10:15:03Z</time>
      </trkpt>
      <trkpt lat="44.43989" lon="4.59459">
        <ele>319</ele>
        <time>29-03-2015T10:15:05Z</time>
      </trkpt>
      <trkpt lat="44.4398" lon="4.59461">
        <ele>319</ele>
        <time>29-03-2015T10:15:07Z</time>
      </trkpt>
      <trkpt lat="44.43971" lon="4.59466">
        <ele>317</ele>
        <time>29-03-2015T10:15:09Z</time>
      </trkpt>
      <trkpt lat="44.43963" lon="4.59467">
        <ele>317</ele>
        <time>29-03-2015T10:15:11Z</time>
      </trkpt>
      <trkpt lat="44.43958" lon="4.59467">
        <ele>317</ele>
        <time>29-03-2015T10:15:12Z</time>
      </trkpt>
      <trkpt lat="44.4395" lon="4.59466">
        <ele>318</ele>
        <time>29-03-2015T10:15:14Z</time>
      </trkpt>
      <trkpt lat="44.43948" lon="4.5946">
        <ele>318</ele>
        <time>29-03-2015T10:15:15Z</time>
      </trkpt>
      <trkpt lat="44.4394" lon="4.59459">
        <ele>318</ele>
        <time>29-03-2015T10:15:17Z</time>
      </trkpt>
      <trkpt lat="44.43932" lon="4.5946">
        <ele>318</ele>
        <time>29-03-2015T10:15:19Z</time>
      </trkpt>
      <trkpt lat="44.43927" lon="4.5946">
        <ele>318</ele>
        <time>29-03-2015T10:15:20Z</time>
      </trkpt>
      <trkpt lat="44.43922" lon="4.59463">
        <ele>318</ele>
        <time>29-03-2015T10:15:21Z</time>
      </trkpt>
      <trkpt lat="44.43915" lon="4.59467">
        <ele>318</ele>
        <time>29-03-2015T10:15:23Z</time>
      </trkpt>
      <trkpt lat="44.43908" lon="4.59469">
        <ele>317</ele>
        <time>29-03-2015T10:15:25Z</time>
      </trkpt>
      <trkpt lat="44.43903" lon="4.59467">
        <ele>317</ele>
        <time>29-03-2015T10:15:27Z</time>
      </trkpt>
      <trkpt lat="44.43896" lon="4.59461">
        <ele>315</ele>
        <time>29-03-2015T10:15:29Z</time>
      </trkpt>
      <trkpt lat="44.43893" lon="4.59458">
        <ele>315</ele>
        <time>29-03-2015T10:15:30Z</time>
      </trkpt>
      <trkpt lat="44.43885" lon="4.59452">
        <ele>315</ele>
        <time>29-03-2015T10:15:32Z</time>
      </trkpt>
      <trkpt lat="44.43881" lon="4.59449">
        <ele>315</ele>
        <time>29-03-2015T10:15:35Z</time>
      </trkpt>
      <trkpt lat="44.43877" lon="4.59443">
        <ele>315</ele>
        <time>29-03-2015T10:15:37Z</time>
      </trkpt>
      <trkpt lat="44.43874" lon="4.59438">
        <ele>315</ele>
        <time>29-03-2015T10:15:38Z</time>
      </trkpt>
      <trkpt lat="44.43866" lon="4.59429">
        <ele>315</ele>
        <time>29-03-2015T10:15:40Z</time>
      </trkpt>
      <trkpt lat="44.4386" lon="4.59421">
        <ele>315</ele>
        <time>29-03-2015T10:15:42Z</time>
      </trkpt>
      <trkpt lat="44.43853" lon="4.59415">
        <ele>311</ele>
        <time>29-03-2015T10:15:44Z</time>
      </trkpt>
      <trkpt lat="44.43849" lon="4.59412">
        <ele>311</ele>
        <time>29-03-2015T10:15:45Z</time>
      </trkpt>
      <trkpt lat="44.43844" lon="4.59411">
        <ele>311</ele>
        <time>29-03-2015T10:15:46Z</time>
      </trkpt>
      <trkpt lat="44.43839" lon="4.59403">
        <ele>311</ele>
        <time>29-03-2015T10:15:47Z</time>
      </trkpt>
      <trkpt lat="44.43834" lon="4.594">
        <ele>311</ele>
        <time>29-03-2015T10:15:48Z</time>
      </trkpt>
      <trkpt lat="44.4383" lon="4.59396">
        <ele>311</ele>
        <time>29-03-2015T10:15:49Z</time>
      </trkpt>
      <trkpt lat="44.43826" lon="4.59393">
        <ele>311</ele>
        <time>29-03-2015T10:15:50Z</time>
      </trkpt>
      <trkpt lat="44.43822" lon="4.59387">
        <ele>311</ele>
        <time>29-03-2015T10:15:51Z</time>
      </trkpt>
      <trkpt lat="44.43817" lon="4.59385">
        <ele>311</ele>
        <time>29-03-2015T10:15:52Z</time>
      </trkpt>
      <trkpt lat="44.43811" lon="4.59384">
        <ele>311</ele>
        <time>29-03-2015T10:15:53Z</time>
      </trkpt>
      <trkpt lat="44.43806" lon="4.59381">
        <ele>311</ele>
        <time>29-03-2015T10:15:54Z</time>
      </trkpt>
      <trkpt lat="44.43799" lon="4.59379">
        <ele>311</ele>
        <time>29-03-2015T10:15:55Z</time>
      </trkpt>
      <trkpt lat="44.43793" lon="4.59375">
        <ele>311</ele>
        <time>29-03-2015T10:15:56Z</time>
      </trkpt>
      <trkpt lat="44.43787" lon="4.59372">
        <ele>311</ele>
        <time>29-03-2015T10:15:57Z</time>
      </trkpt>
      <trkpt lat="44.43782" lon="4.59366">
        <ele>311</ele>
        <time>29-03-2015T10:15:58Z</time>
      </trkpt>
      <trkpt lat="44.43777" lon="4.59364">
        <ele>308</ele>
        <time>29-03-2015T10:15:59Z</time>
      </trkpt>
      <trkpt lat="44.43775" lon="4.59358">
        <ele>308</ele>
        <time>29-03-2015T10:16:00Z</time>
      </trkpt>
      <trkpt lat="44.43768" lon="4.59351">
        <ele>308</ele>
        <time>29-03-2015T10:16:02Z</time>
      </trkpt>
      <trkpt lat="44.4376" lon="4.59347">
        <ele>307</ele>
        <time>29-03-2015T10:16:04Z</time>
      </trkpt>
      <trkpt lat="44.43756" lon="4.59344">
        <ele>307</ele>
        <time>29-03-2015T10:16:05Z</time>
      </trkpt>
      <trkpt lat="44.43751" lon="4.59344">
        <ele>307</ele>
        <time>29-03-2015T10:16:06Z</time>
      </trkpt>
      <trkpt lat="44.43747" lon="4.59346">
        <ele>307</ele>
        <time>29-03-2015T10:16:07Z</time>
      </trkpt>
      <trkpt lat="44.43741" lon="4.59346">
        <ele>307</ele>
        <time>29-03-2015T10:16:08Z</time>
      </trkpt>
      <trkpt lat="44.43734" lon="4.59342">
        <ele>305</ele>
        <time>29-03-2015T10:16:10Z</time>
      </trkpt>
      <trkpt lat="44.43733" lon="4.59335">
        <ele>305</ele>
        <time>29-03-2015T10:16:12Z</time>
      </trkpt>
      <trkpt lat="44.43739" lon="4.59328">
        <ele>305</ele>
        <time>29-03-2015T10:16:14Z</time>
      </trkpt>
      <trkpt lat="44.43743" lon="4.59323">
        <ele>305</ele>
        <time>29-03-2015T10:16:15Z</time>
      </trkpt>
      <trkpt lat="44.43747" lon="4.59318">
        <ele>305</ele>
        <time>29-03-2015T10:16:16Z</time>
      </trkpt>
      <trkpt lat="44.43752" lon="4.59312">
        <ele>305</ele>
        <time>29-03-2015T10:16:18Z</time>
      </trkpt>
      <trkpt lat="44.43758" lon="4.59305">
        <ele>304</ele>
        <time>29-03-2015T10:16:20Z</time>
      </trkpt>
      <trkpt lat="44.43764" lon="4.59299">
        <ele>304</ele>
        <time>29-03-2015T10:16:22Z</time>
      </trkpt>
      <trkpt lat="44.4377" lon="4.59293">
        <ele>304</ele>
        <time>29-03-2015T10:16:24Z</time>
      </trkpt>
      <trkpt lat="44.43776" lon="4.59287">
        <ele>304</ele>
        <time>29-03-2015T10:16:26Z</time>
      </trkpt>
      <trkpt lat="44.4378" lon="4.59283">
        <ele>304</ele>
        <time>29-03-2015T10:16:28Z</time>
      </trkpt>
      <trkpt lat="44.43783" lon="4.59278">
        <ele>301</ele>
        <time>29-03-2015T10:16:30Z</time>
      </trkpt>
      <trkpt lat="44.43791" lon="4.59272">
        <ele>301</ele>
        <time>29-03-2015T10:16:32Z</time>
      </trkpt>
      <trkpt lat="44.43795" lon="4.59263">
        <ele>296</ele>
        <time>29-03-2015T10:16:34Z</time>
      </trkpt>
      <trkpt lat="44.43799" lon="4.5926">
        <ele>296</ele>
        <time>29-03-2015T10:16:35Z</time>
      </trkpt>
      <trkpt lat="44.43803" lon="4.59254">
        <ele>296</ele>
        <time>29-03-2015T10:16:36Z</time>
      </trkpt>
      <trkpt lat="44.43811" lon="4.59251">
        <ele>296</ele>
        <time>29-03-2015T10:16:37Z</time>
      </trkpt>
      <trkpt lat="44.43816" lon="4.59245">
        <ele>296</ele>
        <time>29-03-2015T10:16:38Z</time>
      </trkpt>
      <trkpt lat="44.43822" lon="4.59241">
        <ele>292</ele>
        <time>29-03-2015T10:16:40Z</time>
      </trkpt>
      <trkpt lat="44.43828" lon="4.59236">
        <ele>292</ele>
        <time>29-03-2015T10:16:42Z</time>
      </trkpt>
      <trkpt lat="44.43834" lon="4.59233">
        <ele>292</ele>
        <time>29-03-2015T10:16:43Z</time>
      </trkpt>
      <trkpt lat="44.43843" lon="4.59224">
        <ele>288</ele>
        <time>29-03-2015T10:16:45Z</time>
      </trkpt>
      <trkpt lat="44.43847" lon="4.59218">
        <ele>288</ele>
        <time>29-03-2015T10:16:46Z</time>
      </trkpt>
      <trkpt lat="44.43852" lon="4.59213">
        <ele>288</ele>
        <time>29-03-2015T10:16:47Z</time>
      </trkpt>
      <trkpt lat="44.43854" lon="4.59205">
        <ele>288</ele>
        <time>29-03-2015T10:16:48Z</time>
      </trkpt>
      <trkpt lat="44.43856" lon="4.5919">
        <ele>284</ele>
        <time>29-03-2015T10:16:50Z</time>
      </trkpt>
      <trkpt lat="44.43853" lon="4.59179">
        <ele>284</ele>
        <time>29-03-2015T10:16:52Z</time>
      </trkpt>
      <trkpt lat="44.43855" lon="4.59174">
        <ele>284</ele>
        <time>29-03-2015T10:16:53Z</time>
      </trkpt>
      <trkpt lat="44.43858" lon="4.59168">
        <ele>281</ele>
        <time>29-03-2015T10:16:54Z</time>
      </trkpt>
      <trkpt lat="44.43862" lon="4.59163">
        <ele>281</ele>
        <time>29-03-2015T10:16:55Z</time>
      </trkpt>
      <trkpt lat="44.43865" lon="4.59159">
        <ele>281</ele>
        <time>29-03-2015T10:16:56Z</time>
      </trkpt>
      <trkpt lat="44.43867" lon="4.59151">
        <ele>281</ele>
        <time>29-03-2015T10:16:58Z</time>
      </trkpt>
      <trkpt lat="44.43862" lon="4.59146">
        <ele>277</ele>
        <time>29-03-2015T10:17:00Z</time>
      </trkpt>
      <trkpt lat="44.43854" lon="4.59144">
        <ele>277</ele>
        <time>29-03-2015T10:17:02Z</time>
      </trkpt>
      <trkpt lat="44.43849" lon="4.59143">
        <ele>277</ele>
        <time>29-03-2015T10:17:03Z</time>
      </trkpt>
      <trkpt lat="44.43845" lon="4.5914">
        <ele>274</ele>
        <time>29-03-2015T10:17:04Z</time>
      </trkpt>
      <trkpt lat="44.43839" lon="4.59135">
        <ele>274</ele>
        <time>29-03-2015T10:17:06Z</time>
      </trkpt>
      <trkpt lat="44.43833" lon="4.59129">
        <ele>274</ele>
        <time>29-03-2015T10:17:08Z</time>
      </trkpt>
      <trkpt lat="44.43829" lon="4.59124">
        <ele>269</ele>
        <time>29-03-2015T10:17:10Z</time>
      </trkpt>
      <trkpt lat="44.43826" lon="4.59117">
        <ele>269</ele>
        <time>29-03-2015T10:17:12Z</time>
      </trkpt>
      <trkpt lat="44.43821" lon="4.59112">
        <ele>267</ele>
        <time>29-03-2015T10:17:14Z</time>
      </trkpt>
      <trkpt lat="44.43815" lon="4.59109">
        <ele>267</ele>
        <time>29-03-2015T10:17:16Z</time>
      </trkpt>
      <trkpt lat="44.43809" lon="4.5911">
        <ele>267</ele>
        <time>29-03-2015T10:17:18Z</time>
      </trkpt>
      <trkpt lat="44.43803" lon="4.59116">
        <ele>264</ele>
        <time>29-03-2015T10:17:20Z</time>
      </trkpt>
      <trkpt lat="44.438" lon="4.59122">
        <ele>264</ele>
        <time>29-03-2015T10:17:22Z</time>
      </trkpt>
      <trkpt lat="44.43794" lon="4.59131">
        <ele>262</ele>
        <time>29-03-2015T10:17:24Z</time>
      </trkpt>
      <trkpt lat="44.43791" lon="4.59137">
        <ele>262</ele>
        <time>29-03-2015T10:17:25Z</time>
      </trkpt>
      <trkpt lat="44.43787" lon="4.59146">
        <ele>262</ele>
        <time>29-03-2015T10:17:26Z</time>
      </trkpt>
      <trkpt lat="44.43782" lon="4.59156">
        <ele>262</ele>
        <time>29-03-2015T10:17:27Z</time>
      </trkpt>
      <trkpt lat="44.43777" lon="4.59163">
        <ele>261</ele>
        <time>29-03-2015T10:17:29Z</time>
      </trkpt>
      <trkpt lat="44.43772" lon="4.59166">
        <ele>261</ele>
        <time>29-03-2015T10:17:31Z</time>
      </trkpt>
      <trkpt lat="44.43764" lon="4.59164">
        <ele>261</ele>
        <time>29-03-2015T10:17:33Z</time>
      </trkpt>
      <trkpt lat="44.43756" lon="4.59161">
        <ele>261</ele>
        <time>29-03-2015T10:17:35Z</time>
      </trkpt>
      <trkpt lat="44.4375" lon="4.59159">
        <ele>261</ele>
        <time>29-03-2015T10:17:36Z</time>
      </trkpt>
      <trkpt lat="44.43745" lon="4.59157">
        <ele>261</ele>
        <time>29-03-2015T10:17:37Z</time>
      </trkpt>
      <trkpt lat="44.4374" lon="4.59156">
        <ele>261</ele>
        <time>29-03-2015T10:17:38Z</time>
      </trkpt>
      <trkpt lat="44.43734" lon="4.59153">
        <ele>262</ele>
        <time>29-03-2015T10:17:39Z</time>
      </trkpt>
      <trkpt lat="44.43729" lon="4.59152">
        <ele>262</ele>
        <time>29-03-2015T10:17:40Z</time>
      </trkpt>
      <trkpt lat="44.43724" lon="4.59148">
        <ele>262</ele>
        <time>29-03-2015T10:17:41Z</time>
      </trkpt>
      <trkpt lat="44.43719" lon="4.59145">
        <ele>262</ele>
        <time>29-03-2015T10:17:42Z</time>
      </trkpt>
      <trkpt lat="44.43713" lon="4.59139">
        <ele>262</ele>
        <time>29-03-2015T10:17:43Z</time>
      </trkpt>
      <trkpt lat="44.43708" lon="4.59134">
        <ele>261</ele>
        <time>29-03-2015T10:17:44Z</time>
      </trkpt>
      <trkpt lat="44.43701" lon="4.59125">
        <ele>261</ele>
        <time>29-03-2015T10:17:45Z</time>
      </trkpt>
      <trkpt lat="44.43696" lon="4.59117">
        <ele>261</ele>
        <time>29-03-2015T10:17:46Z</time>
      </trkpt>
      <trkpt lat="44.43692" lon="4.59103">
        <ele>261</ele>
        <time>29-03-2015T10:17:47Z</time>
      </trkpt>
      <trkpt lat="44.43686" lon="4.59092">
        <ele>261</ele>
        <time>29-03-2015T10:17:48Z</time>
      </trkpt>
      <trkpt lat="44.43681" lon="4.59078">
        <ele>256</ele>
        <time>29-03-2015T10:17:49Z</time>
      </trkpt>
      <trkpt lat="44.43675" lon="4.59064">
        <ele>256</ele>
        <time>29-03-2015T10:17:50Z</time>
      </trkpt>
      <trkpt lat="44.4367" lon="4.59048">
        <ele>256</ele>
        <time>29-03-2015T10:17:51Z</time>
      </trkpt>
      <trkpt lat="44.43666" lon="4.59032">
        <ele>256</ele>
        <time>29-03-2015T10:17:52Z</time>
      </trkpt>
      <trkpt lat="44.4366" lon="4.59017">
        <ele>256</ele>
        <time>29-03-2015T10:17:53Z</time>
      </trkpt>
      <trkpt lat="44.43656" lon="4.59005">
        <ele>253</ele>
        <time>29-03-2015T10:17:54Z</time>
      </trkpt>
      <trkpt lat="44.43652" lon="4.58992">
        <ele>253</ele>
        <time>29-03-2015T10:17:55Z</time>
      </trkpt>
      <trkpt lat="44.43649" lon="4.58985">
        <ele>253</ele>
        <time>29-03-2015T10:17:56Z</time>
      </trkpt>
      <trkpt lat="44.43646" lon="4.58978">
        <ele>253</ele>
        <time>29-03-2015T10:17:57Z</time>
      </trkpt>
      <trkpt lat="44.43646" lon="4.58971">
        <ele>253</ele>
        <time>29-03-2015T10:17:58Z</time>
      </trkpt>
      <trkpt lat="44.43649" lon="4.58966">
        <ele>242</ele>
        <time>29-03-2015T10:17:59Z</time>
      </trkpt>
      <trkpt lat="44.43651" lon="4.5896">
        <ele>242</ele>
        <time>29-03-2015T10:18:00Z</time>
      </trkpt>
      <trkpt lat="44.43651" lon="4.58952">
        <ele>242</ele>
        <time>29-03-2015T10:18:02Z</time>
      </trkpt>
      <trkpt lat="44.43647" lon="4.58948">
        <ele>239</ele>
        <time>29-03-2015T10:18:04Z</time>
      </trkpt>
      <trkpt lat="44.4364" lon="4.58944">
        <ele>239</ele>
        <time>29-03-2015T10:18:06Z</time>
      </trkpt>
      <trkpt lat="44.43634" lon="4.58944">
        <ele>239</ele>
        <time>29-03-2015T10:18:08Z</time>
      </trkpt>
      <trkpt lat="44.43629" lon="4.58949">
        <ele>239</ele>
        <time>29-03-2015T10:18:11Z</time>
      </trkpt>
      <trkpt lat="44.43633" lon="4.58946">
        <ele>239</ele>
        <time>29-03-2015T10:18:16Z</time>
      </trkpt>
      <trkpt lat="44.43631" lon="4.58944">
        <ele>239</ele>
        <time>29-03-2015T10:18:21Z</time>
      </trkpt>
      <trkpt lat="44.43626" lon="4.58948">
        <ele>239</ele>
        <time>29-03-2015T10:18:24Z</time>
      </trkpt>
      <trkpt lat="44.4362" lon="4.58947">
        <ele>239</ele>
        <time>29-03-2015T10:18:28Z</time>
      </trkpt>
      <trkpt lat="44.43615" lon="4.58947">
        <ele>238</ele>
        <time>29-03-2015T10:18:30Z</time>
      </trkpt>
      <trkpt lat="44.43612" lon="4.58953">
        <ele>238</ele>
        <time>29-03-2015T10:18:35Z</time>
      </trkpt>
      <trkpt lat="44.43612" lon="4.58953">
        <ele>238</ele>
        <time>29-03-2015T10:18:40Z</time>
      </trkpt>
      <trkpt lat="44.43606" lon="4.58954">
        <ele>238</ele>
        <time>29-03-2015T10:18:42Z</time>
      </trkpt>
      <trkpt lat="44.43602" lon="4.5896">
        <ele>237</ele>
        <time>29-03-2015T10:18:44Z</time>
      </trkpt>
      <trkpt lat="44.43596" lon="4.58965">
        <ele>237</ele>
        <time>29-03-2015T10:18:46Z</time>
      </trkpt>
      <trkpt lat="44.43589" lon="4.5897">
        <ele>237</ele>
        <time>29-03-2015T10:18:48Z</time>
      </trkpt>
      <trkpt lat="44.43584" lon="4.58967">
        <ele>234</ele>
        <time>29-03-2015T10:18:49Z</time>
      </trkpt>
      <trkpt lat="44.4358" lon="4.58968">
        <ele>234</ele>
        <time>29-03-2015T10:18:50Z</time>
      </trkpt>
      <trkpt lat="44.43575" lon="4.58974">
        <ele>234</ele>
        <time>29-03-2015T10:18:52Z</time>
      </trkpt>
      <trkpt lat="44.43572" lon="4.58981">
        <ele>234</ele>
        <time>29-03-2015T10:18:53Z</time>
      </trkpt>
      <trkpt lat="44.43568" lon="4.58991">
        <ele>232</ele>
        <time>29-03-2015T10:18:55Z</time>
      </trkpt>
      <trkpt lat="44.43567" lon="4.59">
        <ele>232</ele>
        <time>29-03-2015T10:18:57Z</time>
      </trkpt>
      <trkpt lat="44.43562" lon="4.59004">
        <ele>232</ele>
        <time>29-03-2015T10:18:59Z</time>
      </trkpt>
      <trkpt lat="44.43558" lon="4.59004">
        <ele>232</ele>
        <time>29-03-2015T10:19:01Z</time>
      </trkpt>
      <trkpt lat="44.43552" lon="4.59008">
        <ele>232</ele>
        <time>29-03-2015T10:19:03Z</time>
      </trkpt>
      <trkpt lat="44.43547" lon="4.59009">
        <ele>232</ele>
        <time>29-03-2015T10:19:05Z</time>
      </trkpt>
      <trkpt lat="44.43541" lon="4.59011">
        <ele>232</ele>
        <time>29-03-2015T10:19:07Z</time>
      </trkpt>
      <trkpt lat="44.43534" lon="4.59012">
        <ele>231</ele>
        <time>29-03-2015T10:19:09Z</time>
      </trkpt>
      <trkpt lat="44.43527" lon="4.59016">
        <ele>231</ele>
        <time>29-03-2015T10:19:11Z</time>
      </trkpt>
      <trkpt lat="44.43523" lon="4.5902">
        <ele>231</ele>
        <time>29-03-2015T10:19:12Z</time>
      </trkpt>
      <trkpt lat="44.43519" lon="4.59026">
        <ele>231</ele>
        <time>29-03-2015T10:19:13Z</time>
      </trkpt>
      <trkpt lat="44.43516" lon="4.59031">
        <ele>231</ele>
        <time>29-03-2015T10:19:14Z</time>
      </trkpt>
      <trkpt lat="44.43511" lon="4.59035">
        <ele>231</ele>
        <time>29-03-2015T10:19:15Z</time>
      </trkpt>
      <trkpt lat="44.43505" lon="4.59045">
        <ele>231</ele>
        <time>29-03-2015T10:19:17Z</time>
      </trkpt>
      <trkpt lat="44.43502" lon="4.59051">
        <ele>231</ele>
        <time>29-03-2015T10:19:18Z</time>
      </trkpt>
      <trkpt lat="44.43496" lon="4.59061">
        <ele>225</ele>
        <time>29-03-2015T10:19:20Z</time>
      </trkpt>
      <trkpt lat="44.43491" lon="4.59069">
        <ele>225</ele>
        <time>29-03-2015T10:19:22Z</time>
      </trkpt>
      <trkpt lat="44.43488" lon="4.59075">
        <ele>225</ele>
        <time>29-03-2015T10:19:23Z</time>
      </trkpt>
      <trkpt lat="44.43484" lon="4.5908">
        <ele>223</ele>
        <time>29-03-2015T10:19:25Z</time>
      </trkpt>
      <trkpt lat="44.4348" lon="4.59084">
        <ele>223</ele>
        <time>29-03-2015T10:19:26Z</time>
      </trkpt>
      <trkpt lat="44.43476" lon="4.59089">
        <ele>223</ele>
        <time>29-03-2015T10:19:27Z</time>
      </trkpt>
      <trkpt lat="44.43469" lon="4.59096">
        <ele>220</ele>
        <time>29-03-2015T10:19:29Z</time>
      </trkpt>
      <trkpt lat="44.43462" lon="4.59098">
        <ele>220</ele>
        <time>29-03-2015T10:19:31Z</time>
      </trkpt>
      <trkpt lat="44.43457" lon="4.59101">
        <ele>220</ele>
        <time>29-03-2015T10:19:32Z</time>
      </trkpt>
      <trkpt lat="44.43451" lon="4.59106">
        <ele>220</ele>
        <time>29-03-2015T10:19:33Z</time>
      </trkpt>
      <trkpt lat="44.43448" lon="4.59111">
        <ele>216</ele>
        <time>29-03-2015T10:19:34Z</time>
      </trkpt>
      <trkpt lat="44.43441" lon="4.59119">
        <ele>216</ele>
        <time>29-03-2015T10:19:36Z</time>
      </trkpt>
      <trkpt lat="44.43436" lon="4.59123">
        <ele>216</ele>
        <time>29-03-2015T10:19:38Z</time>
      </trkpt>
      <trkpt lat="44.43429" lon="4.59124">
        <ele>216</ele>
        <time>29-03-2015T10:19:40Z</time>
      </trkpt>
      <trkpt lat="44.43423" lon="4.59132">
        <ele>216</ele>
        <time>29-03-2015T10:19:42Z</time>
      </trkpt>
      <trkpt lat="44.4342" lon="4.5914">
        <ele>213</ele>
        <time>29-03-2015T10:19:44Z</time>
      </trkpt>
      <trkpt lat="44.43415" lon="4.59147">
        <ele>213</ele>
        <time>29-03-2015T10:19:46Z</time>
      </trkpt>
      <trkpt lat="44.43411" lon="4.59152">
        <ele>213</ele>
        <time>29-03-2015T10:19:47Z</time>
      </trkpt>
      <trkpt lat="44.43408" lon="4.59162">
        <ele>213</ele>
        <time>29-03-2015T10:19:48Z</time>
      </trkpt>
      <trkpt lat="44.43407" lon="4.5917">
        <ele>212</ele>
        <time>29-03-2015T10:19:49Z</time>
      </trkpt>
      <trkpt lat="44.43405" lon="4.59178">
        <ele>212</ele>
        <time>29-03-2015T10:19:50Z</time>
      </trkpt>
      <trkpt lat="44.43402" lon="4.59184">
        <ele>212</ele>
        <time>29-03-2015T10:19:51Z</time>
      </trkpt>
      <trkpt lat="44.43394" lon="4.59191">
        <ele>212</ele>
        <time>29-03-2015T10:19:53Z</time>
      </trkpt>
      <trkpt lat="44.43391" lon="4.59196">
        <ele>211</ele>
        <time>29-03-2015T10:19:54Z</time>
      </trkpt>
      <trkpt lat="44.4339" lon="4.59203">
        <ele>211</ele>
        <time>29-03-2015T10:19:55Z</time>
      </trkpt>
      <trkpt lat="44.43388" lon="4.59215">
        <ele>211</ele>
        <time>29-03-2015T10:19:57Z</time>
      </trkpt>
      <trkpt lat="44.43385" lon="4.59223">
        <ele>213</ele>
        <time>29-03-2015T10:19:59Z</time>
      </trkpt>
      <trkpt lat="44.43381" lon="4.5923">
        <ele>213</ele>
        <time>29-03-2015T10:20:01Z</time>
      </trkpt>
      <trkpt lat="44.43378" lon="4.59237">
        <ele>213</ele>
        <time>29-03-2015T10:20:03Z</time>
      </trkpt>
      <trkpt lat="44.43374" lon="4.59241">
        <ele>216</ele>
        <time>29-03-2015T10:20:05Z</time>
      </trkpt>
      <trkpt lat="44.43369" lon="4.5924">
        <ele>216</ele>
        <time>29-03-2015T10:20:07Z</time>
      </trkpt>
      <trkpt lat="44.43366" lon="4.59247">
        <ele>217</ele>
        <time>29-03-2015T10:20:09Z</time>
      </trkpt>
      <trkpt lat="44.43359" lon="4.59249">
        <ele>217</ele>
        <time>29-03-2015T10:20:11Z</time>
      </trkpt>
      <trkpt lat="44.43351" lon="4.5925">
        <ele>217</ele>
        <time>29-03-2015T10:20:13Z</time>
      </trkpt>
      <trkpt lat="44.43345" lon="4.59257">
        <ele>217</ele>
        <time>29-03-2015T10:20:15Z</time>
      </trkpt>
      <trkpt lat="44.4334" lon="4.59264">
        <ele>217</ele>
        <time>29-03-2015T10:20:17Z</time>
      </trkpt>
      <trkpt lat="44.43333" lon="4.59267">
        <ele>216</ele>
        <time>29-03-2015T10:20:19Z</time>
      </trkpt>
      <trkpt lat="44.43326" lon="4.59273">
        <ele>216</ele>
        <time>29-03-2015T10:20:21Z</time>
      </trkpt>
      <trkpt lat="44.43321" lon="4.59275">
        <ele>216</ele>
        <time>29-03-2015T10:20:23Z</time>
      </trkpt>
      <trkpt lat="44.43317" lon="4.5928">
        <ele>216</ele>
        <time>29-03-2015T10:20:25Z</time>
      </trkpt>
      <trkpt lat="44.43317" lon="4.59291">
        <ele>216</ele>
        <time>29-03-2015T10:20:27Z</time>
      </trkpt>
      <trkpt lat="44.43314" lon="4.593">
        <ele>216</ele>
        <time>29-03-2015T10:20:31Z</time>
      </trkpt>
      <trkpt lat="44.4331" lon="4.59307">
        <ele>218</ele>
        <time>29-03-2015T10:20:34Z</time>
      </trkpt>
      <trkpt lat="44.43308" lon="4.59313">
        <ele>218</ele>
        <time>29-03-2015T10:20:37Z</time>
      </trkpt>
      <trkpt lat="44.43306" lon="4.5932">
        <ele>219</ele>
        <time>29-03-2015T10:20:41Z</time>
      </trkpt>
      <trkpt lat="44.43306" lon="4.59327">
        <ele>219</ele>
        <time>29-03-2015T10:20:42Z</time>
      </trkpt>
      <trkpt lat="44.43304" lon="4.59335">
        <ele>219</ele>
        <time>29-03-2015T10:20:44Z</time>
      </trkpt>
      <trkpt lat="44.43302" lon="4.59341">
        <ele>219</ele>
        <time>29-03-2015T10:20:46Z</time>
      </trkpt>
      <trkpt lat="44.43302" lon="4.5935">
        <ele>219</ele>
        <time>29-03-2015T10:20:48Z</time>
      </trkpt>
      <trkpt lat="44.43297" lon="4.59355">
        <ele>219</ele>
        <time>29-03-2015T10:20:50Z</time>
      </trkpt>
      <trkpt lat="44.43293" lon="4.5936">
        <ele>219</ele>
        <time>29-03-2015T10:20:52Z</time>
      </trkpt>
      <trkpt lat="44.4329" lon="4.59366">
        <ele>219</ele>
        <time>29-03-2015T10:20:54Z</time>
      </trkpt>
      <trkpt lat="44.43288" lon="4.59373">
        <ele>219</ele>
        <time>29-03-2015T10:20:56Z</time>
      </trkpt>
      <trkpt lat="44.43288" lon="4.59384">
        <ele>219</ele>
        <time>29-03-2015T10:20:58Z</time>
      </trkpt>
      <trkpt lat="44.43292" lon="4.59392">
        <ele>220</ele>
        <time>29-03-2015T10:21:00Z</time>
      </trkpt>
      <trkpt lat="44.43296" lon="4.594">
        <ele>220</ele>
        <time>29-03-2015T10:21:02Z</time>
      </trkpt>
      <trkpt lat="44.43299" lon="4.59405">
        <ele>220</ele>
        <time>29-03-2015T10:21:03Z</time>
      </trkpt>
      <trkpt lat="44.43301" lon="4.59416">
        <ele>219</ele>
        <time>29-03-2015T10:21:05Z</time>
      </trkpt>
      <trkpt lat="44.43308" lon="4.59421">
        <ele>219</ele>
        <time>29-03-2015T10:21:07Z</time>
      </trkpt>
      <trkpt lat="44.43314" lon="4.59422">
        <ele>218</ele>
        <time>29-03-2015T10:21:09Z</time>
      </trkpt>
      <trkpt lat="44.43318" lon="4.59426">
        <ele>218</ele>
        <time>29-03-2015T10:21:11Z</time>
      </trkpt>
      <trkpt lat="44.43324" lon="4.59441">
        <ele>218</ele>
        <time>29-03-2015T10:21:15Z</time>
      </trkpt>
      <trkpt lat="44.43324" lon="4.59448">
        <ele>218</ele>
        <time>29-03-2015T10:21:16Z</time>
      </trkpt>
      <trkpt lat="44.43326" lon="4.59455">
        <ele>218</ele>
        <time>29-03-2015T10:21:17Z</time>
      </trkpt>
      <trkpt lat="44.43327" lon="4.59463">
        <ele>218</ele>
        <time>29-03-2015T10:21:19Z</time>
      </trkpt>
      <trkpt lat="44.4333" lon="4.59474">
        <ele>218</ele>
        <time>29-03-2015T10:21:21Z</time>
      </trkpt>
      <trkpt lat="44.43331" lon="4.59482">
        <ele>218</ele>
        <time>29-03-2015T10:21:23Z</time>
      </trkpt>
      <trkpt lat="44.43329" lon="4.5949">
        <ele>218</ele>
        <time>29-03-2015T10:21:25Z</time>
      </trkpt>
      <trkpt lat="44.43331" lon="4.59501">
        <ele>218</ele>
        <time>29-03-2015T10:21:27Z</time>
      </trkpt>
      <trkpt lat="44.43331" lon="4.59508">
        <ele>218</ele>
        <time>29-03-2015T10:21:28Z</time>
      </trkpt>
      <trkpt lat="44.43333" lon="4.59514">
        <ele>217</ele>
        <time>29-03-2015T10:21:29Z</time>
      </trkpt>
      <trkpt lat="44.43334" lon="4.59521">
        <ele>217</ele>
        <time>29-03-2015T10:21:30Z</time>
      </trkpt>
      <trkpt lat="44.43336" lon="4.59526">
        <ele>217</ele>
        <time>29-03-2015T10:21:32Z</time>
      </trkpt>
      <trkpt lat="44.43339" lon="4.59535">
        <ele>212</ele>
        <time>29-03-2015T10:21:34Z</time>
      </trkpt>
      <trkpt lat="44.43343" lon="4.59543">
        <ele>212</ele>
        <time>29-03-2015T10:21:36Z</time>
      </trkpt>
      <trkpt lat="44.43346" lon="4.59551">
        <ele>212</ele>
        <time>29-03-2015T10:21:38Z</time>
      </trkpt>
      <trkpt lat="44.4335" lon="4.59557">
        <ele>211</ele>
        <time>29-03-2015T10:21:40Z</time>
      </trkpt>
      <trkpt lat="44.43352" lon="4.59567">
        <ele>211</ele>
        <time>29-03-2015T10:21:42Z</time>
      </trkpt>
      <trkpt lat="44.43352" lon="4.59576">
        <ele>211</ele>
        <time>29-03-2015T10:21:44Z</time>
      </trkpt>
      <trkpt lat="44.43351" lon="4.59589">
        <ele>211</ele>
        <time>29-03-2015T10:21:47Z</time>
      </trkpt>
      <trkpt lat="44.4335" lon="4.59596">
        <ele>210</ele>
        <time>29-03-2015T10:21:50Z</time>
      </trkpt>
      <trkpt lat="44.43347" lon="4.59605">
        <ele>210</ele>
        <time>29-03-2015T10:21:52Z</time>
      </trkpt>
      <trkpt lat="44.43347" lon="4.59612">
        <ele>209</ele>
        <time>29-03-2015T10:21:54Z</time>
      </trkpt>
      <trkpt lat="44.43349" lon="4.59621">
        <ele>209</ele>
        <time>29-03-2015T10:21:56Z</time>
      </trkpt>
      <trkpt lat="44.43348" lon="4.59631">
        <ele>209</ele>
        <time>29-03-2015T10:21:58Z</time>
      </trkpt>
      <trkpt lat="44.43348" lon="4.5964">
        <ele>209</ele>
        <time>29-03-2015T10:22:00Z</time>
      </trkpt>
      <trkpt lat="44.43348" lon="4.59649">
        <ele>209</ele>
        <time>29-03-2015T10:22:03Z</time>
      </trkpt>
      <trkpt lat="44.43347" lon="4.59658">
        <ele>208</ele>
        <time>29-03-2015T10:22:06Z</time>
      </trkpt>
      <trkpt lat="44.43352" lon="4.59657">
        <ele>209</ele>
        <time>29-03-2015T10:22:11Z</time>
      </trkpt>
      <trkpt lat="44.4335" lon="4.59659">
        <ele>209</ele>
        <time>29-03-2015T10:22:16Z</time>
      </trkpt>
      <trkpt lat="44.43349" lon="4.59663">
        <ele>209</ele>
        <time>29-03-2015T10:22:21Z</time>
      </trkpt>
      <trkpt lat="44.43351" lon="4.5967">
        <ele>208</ele>
        <time>29-03-2015T10:22:25Z</time>
      </trkpt>
      <trkpt lat="44.43351" lon="4.5968">
        <ele>208</ele>
        <time>29-03-2015T10:22:29Z</time>
      </trkpt>
      <trkpt lat="44.43353" lon="4.59686">
        <ele>208</ele>
        <time>29-03-2015T10:22:32Z</time>
      </trkpt>
      <trkpt lat="44.43354" lon="4.59693">
        <ele>208</ele>
        <time>29-03-2015T10:22:34Z</time>
      </trkpt>
      <trkpt lat="44.43357" lon="4.59702">
        <ele>208</ele>
        <time>29-03-2015T10:22:36Z</time>
      </trkpt>
      <trkpt lat="44.43356" lon="4.59708">
        <ele>208</ele>
        <time>29-03-2015T10:22:38Z</time>
      </trkpt>
      <trkpt lat="44.43356" lon="4.59718">
        <ele>209</ele>
        <time>29-03-2015T10:22:40Z</time>
      </trkpt>
      <trkpt lat="44.43362" lon="4.59721">
        <ele>209</ele>
        <time>29-03-2015T10:22:43Z</time>
      </trkpt>
      <trkpt lat="44.43366" lon="4.59729">
        <ele>209</ele>
        <time>29-03-2015T10:22:46Z</time>
      </trkpt>
      <trkpt lat="44.43365" lon="4.5974">
        <ele>209</ele>
        <time>29-03-2015T10:22:48Z</time>
      </trkpt>
      <trkpt lat="44.43366" lon="4.59748">
        <ele>209</ele>
        <time>29-03-2015T10:22:51Z</time>
      </trkpt>
      <trkpt lat="44.43364" lon="4.59756">
        <ele>209</ele>
        <time>29-03-2015T10:22:53Z</time>
      </trkpt>
      <trkpt lat="44.43364" lon="4.59762">
        <ele>209</ele>
        <time>29-03-2015T10:22:54Z</time>
      </trkpt>
      <trkpt lat="44.43365" lon="4.59772">
        <ele>209</ele>
        <time>29-03-2015T10:22:57Z</time>
      </trkpt>
      <trkpt lat="44.43367" lon="4.5978">
        <ele>209</ele>
        <time>29-03-2015T10:23:00Z</time>
      </trkpt>
      <trkpt lat="44.4337" lon="4.59785">
        <ele>209</ele>
        <time>29-03-2015T10:23:02Z</time>
      </trkpt>
      <trkpt lat="44.43374" lon="4.59792">
        <ele>210</ele>
        <time>29-03-2015T10:23:04Z</time>
      </trkpt>
      <trkpt lat="44.43378" lon="4.59799">
        <ele>210</ele>
        <time>29-03-2015T10:23:07Z</time>
      </trkpt>
      <trkpt lat="44.43382" lon="4.59804">
        <ele>212</ele>
        <time>29-03-2015T10:23:10Z</time>
      </trkpt>
      <trkpt lat="44.43386" lon="4.59819">
        <ele>212</ele>
        <time>29-03-2015T10:23:17Z</time>
      </trkpt>
      <trkpt lat="44.43387" lon="4.59826">
        <ele>213</ele>
        <time>29-03-2015T10:23:20Z</time>
      </trkpt>
      <trkpt lat="44.43388" lon="4.59833">
        <ele>213</ele>
        <time>29-03-2015T10:23:23Z</time>
      </trkpt>
      <trkpt lat="44.43389" lon="4.59842">
        <ele>213</ele>
        <time>29-03-2015T10:23:27Z</time>
      </trkpt>
      <trkpt lat="44.43395" lon="4.59849">
        <ele>213</ele>
        <time>29-03-2015T10:23:30Z</time>
      </trkpt>
      <trkpt lat="44.43401" lon="4.59851">
        <ele>213</ele>
        <time>29-03-2015T10:23:33Z</time>
      </trkpt>
      <trkpt lat="44.43406" lon="4.59855">
        <ele>213</ele>
        <time>29-03-2015T10:23:36Z</time>
      </trkpt>
      <trkpt lat="44.4341" lon="4.59859">
        <ele>213</ele>
        <time>29-03-2015T10:23:38Z</time>
      </trkpt>
      <trkpt lat="44.43415" lon="4.59867">
        <ele>214</ele>
        <time>29-03-2015T10:23:40Z</time>
      </trkpt>
      <trkpt lat="44.43419" lon="4.59875">
        <ele>214</ele>
        <time>29-03-2015T10:23:42Z</time>
      </trkpt>
      <trkpt lat="44.4342" lon="4.59885">
        <ele>214</ele>
        <time>29-03-2015T10:23:45Z</time>
      </trkpt>
      <trkpt lat="44.43421" lon="4.59893">
        <ele>214</ele>
        <time>29-03-2015T10:23:48Z</time>
      </trkpt>
      <trkpt lat="44.43417" lon="4.59899">
        <ele>214</ele>
        <time>29-03-2015T10:23:51Z</time>
      </trkpt>
      <trkpt lat="44.43414" lon="4.59904">
        <ele>214</ele>
        <time>29-03-2015T10:23:52Z</time>
      </trkpt>
      <trkpt lat="44.43408" lon="4.59911">
        <ele>214</ele>
        <time>29-03-2015T10:23:54Z</time>
      </trkpt>
      <trkpt lat="44.43404" lon="4.59916">
        <ele>214</ele>
        <time>29-03-2015T10:23:56Z</time>
      </trkpt>
      <trkpt lat="44.43404" lon="4.59923">
        <ele>214</ele>
        <time>29-03-2015T10:23:57Z</time>
      </trkpt>
      <trkpt lat="44.43403" lon="4.59933">
        <ele>212</ele>
        <time>29-03-2015T10:23:59Z</time>
      </trkpt>
      <trkpt lat="44.43407" lon="4.59938">
        <ele>212</ele>
        <time>29-03-2015T10:24:00Z</time>
      </trkpt>
      <trkpt lat="44.43411" lon="4.5995">
        <ele>212</ele>
        <time>29-03-2015T10:24:02Z</time>
      </trkpt>
      <trkpt lat="44.43413" lon="4.5996">
        <ele>212</ele>
        <time>29-03-2015T10:24:03Z</time>
      </trkpt>
      <trkpt lat="44.43413" lon="4.59968">
        <ele>210</ele>
        <time>29-03-2015T10:24:04Z</time>
      </trkpt>
      <trkpt lat="44.43414" lon="4.59974">
        <ele>210</ele>
        <time>29-03-2015T10:24:05Z</time>
      </trkpt>
      <trkpt lat="44.43414" lon="4.59984">
        <ele>210</ele>
        <time>29-03-2015T10:24:07Z</time>
      </trkpt>
      <trkpt lat="44.43413" lon="4.59991">
        <ele>210</ele>
        <time>29-03-2015T10:24:08Z</time>
      </trkpt>
      <trkpt lat="44.43415" lon="4.60001">
        <ele>206</ele>
        <time>29-03-2015T10:24:09Z</time>
      </trkpt>
      <trkpt lat="44.43414" lon="4.60008">
        <ele>206</ele>
        <time>29-03-2015T10:24:10Z</time>
      </trkpt>
      <trkpt lat="44.43412" lon="4.60023">
        <ele>206</ele>
        <time>29-03-2015T10:24:12Z</time>
      </trkpt>
      <trkpt lat="44.43409" lon="4.60029">
        <ele>206</ele>
        <time>29-03-2015T10:24:13Z</time>
      </trkpt>
      <trkpt lat="44.43405" lon="4.60034">
        <ele>206</ele>
        <time>29-03-2015T10:24:14Z</time>
      </trkpt>
      <trkpt lat="44.43398" lon="4.60041">
        <ele>206</ele>
        <time>29-03-2015T10:24:16Z</time>
      </trkpt>
      <trkpt lat="44.43393" lon="4.60051">
        <ele>206</ele>
        <time>29-03-2015T10:24:18Z</time>
      </trkpt>
      <trkpt lat="44.43388" lon="4.6006">
        <ele>204</ele>
        <time>29-03-2015T10:24:20Z</time>
      </trkpt>
      <trkpt lat="44.43389" lon="4.6007">
        <ele>204</ele>
        <time>29-03-2015T10:24:21Z</time>
      </trkpt>
      <trkpt lat="44.43385" lon="4.60079">
        <ele>204</ele>
        <time>29-03-2015T10:24:23Z</time>
      </trkpt>
      <trkpt lat="44.43383" lon="4.60085">
        <ele>202</ele>
        <time>29-03-2015T10:24:24Z</time>
      </trkpt>
      <trkpt lat="44.43383" lon="4.60097">
        <ele>202</ele>
        <time>29-03-2015T10:24:26Z</time>
      </trkpt>
      <trkpt lat="44.43383" lon="4.60106">
        <ele>202</ele>
        <time>29-03-2015T10:24:27Z</time>
      </trkpt>
      <trkpt lat="44.4338" lon="4.60118">
        <ele>201</ele>
        <time>29-03-2015T10:24:29Z</time>
      </trkpt>
      <trkpt lat="44.43376" lon="4.6013">
        <ele>201</ele>
        <time>29-03-2015T10:24:31Z</time>
      </trkpt>
      <trkpt lat="44.43374" lon="4.60138">
        <ele>201</ele>
        <time>29-03-2015T10:24:33Z</time>
      </trkpt>
      <trkpt lat="44.43372" lon="4.60148">
        <ele>201</ele>
        <time>29-03-2015T10:24:35Z</time>
      </trkpt>
      <trkpt lat="44.43368" lon="4.60154">
        <ele>201</ele>
        <time>29-03-2015T10:24:37Z</time>
      </trkpt>
      <trkpt lat="44.43362" lon="4.60164">
        <ele>201</ele>
        <time>29-03-2015T10:24:39Z</time>
      </trkpt>
      <trkpt lat="44.43356" lon="4.60174">
        <ele>201</ele>
        <time>29-03-2015T10:24:41Z</time>
      </trkpt>
      <trkpt lat="44.43352" lon="4.60178">
        <ele>201</ele>
        <time>29-03-2015T10:24:42Z</time>
      </trkpt>
      <trkpt lat="44.43349" lon="4.60188">
        <ele>201</ele>
        <time>29-03-2015T10:24:44Z</time>
      </trkpt>
      <trkpt lat="44.43343" lon="4.60198">
        <ele>201</ele>
        <time>29-03-2015T10:24:48Z</time>
      </trkpt>
      <trkpt lat="44.4334" lon="4.60204">
        <ele>201</ele>
        <time>29-03-2015T10:24:50Z</time>
      </trkpt>
      <trkpt lat="44.43336" lon="4.6021">
        <ele>201</ele>
        <time>29-03-2015T10:24:52Z</time>
      </trkpt>
      <trkpt lat="44.43331" lon="4.60216">
        <ele>201</ele>
        <time>29-03-2015T10:24:54Z</time>
      </trkpt>
      <trkpt lat="44.43326" lon="4.60225">
        <ele>201</ele>
        <time>29-03-2015T10:24:56Z</time>
      </trkpt>
      <trkpt lat="44.43327" lon="4.60231">
        <ele>201</ele>
        <time>29-03-2015T10:24:57Z</time>
      </trkpt>
      <trkpt lat="44.43323" lon="4.60239">
        <ele>201</ele>
        <time>29-03-2015T10:24:59Z</time>
      </trkpt>
      <trkpt lat="44.43321" lon="4.60246">
        <ele>201</ele>
        <time>29-03-2015T10:25:01Z</time>
      </trkpt>
      <trkpt lat="44.43318" lon="4.60257">
        <ele>200</ele>
        <time>29-03-2015T10:25:04Z</time>
      </trkpt>
      <trkpt lat="44.43318" lon="4.60264">
        <ele>200</ele>
        <time>29-03-2015T10:25:05Z</time>
      </trkpt>
      <trkpt lat="44.43317" lon="4.60272">
        <ele>200</ele>
        <time>29-03-2015T10:25:06Z</time>
      </trkpt>
      <trkpt lat="44.43317" lon="4.60278">
        <ele>200</ele>
        <time>29-03-2015T10:25:07Z</time>
      </trkpt>
      <trkpt lat="44.43316" lon="4.60285">
        <ele>200</ele>
        <time>29-03-2015T10:25:08Z</time>
      </trkpt>
      <trkpt lat="44.43316" lon="4.60293">
        <ele>195</ele>
        <time>29-03-2015T10:25:10Z</time>
      </trkpt>
      <trkpt lat="44.43315" lon="4.603">
        <ele>195</ele>
        <time>29-03-2015T10:25:11Z</time>
      </trkpt>
      <trkpt lat="44.43315" lon="4.60308">
        <ele>195</ele>
        <time>29-03-2015T10:25:12Z</time>
      </trkpt>
      <trkpt lat="44.43313" lon="4.60317">
        <ele>195</ele>
        <time>29-03-2015T10:25:13Z</time>
      </trkpt>
      <trkpt lat="44.43313" lon="4.60326">
        <ele>194</ele>
        <time>29-03-2015T10:25:14Z</time>
      </trkpt>
      <trkpt lat="44.43315" lon="4.60333">
        <ele>194</ele>
        <time>29-03-2015T10:25:15Z</time>
      </trkpt>
      <trkpt lat="44.43314" lon="4.60342">
        <ele>194</ele>
        <time>29-03-2015T10:25:16Z</time>
      </trkpt>
      <trkpt lat="44.43313" lon="4.60349">
        <ele>194</ele>
        <time>29-03-2015T10:25:17Z</time>
      </trkpt>
      <trkpt lat="44.43311" lon="4.60356">
        <ele>194</ele>
        <time>29-03-2015T10:25:18Z</time>
      </trkpt>
      <trkpt lat="44.43307" lon="4.60366">
        <ele>188</ele>
        <time>29-03-2015T10:25:20Z</time>
      </trkpt>
      <trkpt lat="44.43303" lon="4.60377">
        <ele>188</ele>
        <time>29-03-2015T10:25:22Z</time>
      </trkpt>
      <trkpt lat="44.43299" lon="4.60385">
        <ele>187</ele>
        <time>29-03-2015T10:25:24Z</time>
      </trkpt>
      <trkpt lat="44.43299" lon="4.60392">
        <ele>187</ele>
        <time>29-03-2015T10:25:25Z</time>
      </trkpt>
      <trkpt lat="44.43298" lon="4.60404">
        <ele>187</ele>
        <time>29-03-2015T10:25:27Z</time>
      </trkpt>
      <trkpt lat="44.43297" lon="4.6041">
        <ele>187</ele>
        <time>29-03-2015T10:25:28Z</time>
      </trkpt>
      <trkpt lat="44.43297" lon="4.60422">
        <ele>183</ele>
        <time>29-03-2015T10:25:30Z</time>
      </trkpt>
      <trkpt lat="44.43298" lon="4.60429">
        <ele>183</ele>
        <time>29-03-2015T10:25:31Z</time>
      </trkpt>
      <trkpt lat="44.433" lon="4.60436">
        <ele>183</ele>
        <time>29-03-2015T10:25:32Z</time>
      </trkpt>
      <trkpt lat="44.43302" lon="4.60443">
        <ele>183</ele>
        <time>29-03-2015T10:25:33Z</time>
      </trkpt>
      <trkpt lat="44.43306" lon="4.60448">
        <ele>176</ele>
        <time>29-03-2015T10:25:34Z</time>
      </trkpt>
      <trkpt lat="44.43307" lon="4.60454">
        <ele>176</ele>
        <time>29-03-2015T10:25:35Z</time>
      </trkpt>
      <trkpt lat="44.43308" lon="4.60466">
        <ele>176</ele>
        <time>29-03-2015T10:25:37Z</time>
      </trkpt>
      <trkpt lat="44.43306" lon="4.60475">
        <ele>171</ele>
        <time>29-03-2015T10:25:40Z</time>
      </trkpt>
      <trkpt lat="44.43302" lon="4.60482">
        <ele>171</ele>
        <time>29-03-2015T10:25:42Z</time>
      </trkpt>
      <trkpt lat="44.43299" lon="4.60492">
        <ele>168</ele>
        <time>29-03-2015T10:25:44Z</time>
      </trkpt>
      <trkpt lat="44.43298" lon="4.60499">
        <ele>168</ele>
        <time>29-03-2015T10:25:45Z</time>
      </trkpt>
      <trkpt lat="44.43294" lon="4.60511">
        <ele>168</ele>
        <time>29-03-2015T10:25:47Z</time>
      </trkpt>
      <trkpt lat="44.43292" lon="4.60518">
        <ele>168</ele>
        <time>29-03-2015T10:25:48Z</time>
      </trkpt>
      <trkpt lat="44.43296" lon="4.60524">
        <ele>165</ele>
        <time>29-03-2015T10:25:51Z</time>
      </trkpt>
      <trkpt lat="44.43305" lon="4.60525">
        <ele>165</ele>
        <time>29-03-2015T10:25:53Z</time>
      </trkpt>
      <trkpt lat="44.43314" lon="4.60528">
        <ele>162</ele>
        <time>29-03-2015T10:25:55Z</time>
      </trkpt>
      <trkpt lat="44.43318" lon="4.60531">
        <ele>162</ele>
        <time>29-03-2015T10:25:56Z</time>
      </trkpt>
      <trkpt lat="44.43326" lon="4.60536">
        <ele>162</ele>
        <time>29-03-2015T10:25:58Z</time>
      </trkpt>
      <trkpt lat="44.43334" lon="4.60542">
        <ele>158</ele>
        <time>29-03-2015T10:26:00Z</time>
      </trkpt>
      <trkpt lat="44.43339" lon="4.60553">
        <ele>158</ele>
        <time>29-03-2015T10:26:02Z</time>
      </trkpt>
      <trkpt lat="44.43344" lon="4.60564">
        <ele>158</ele>
        <time>29-03-2015T10:26:04Z</time>
      </trkpt>
      <trkpt lat="44.43351" lon="4.60573">
        <ele>158</ele>
        <time>29-03-2015T10:26:06Z</time>
      </trkpt>
      <trkpt lat="44.43351" lon="4.6058">
        <ele>158</ele>
        <time>29-03-2015T10:26:07Z</time>
      </trkpt>
      <trkpt lat="44.43355" lon="4.60583">
        <ele>158</ele>
        <time>29-03-2015T10:26:08Z</time>
      </trkpt>
      <trkpt lat="44.43357" lon="4.60593">
        <ele>156</ele>
        <time>29-03-2015T10:26:09Z</time>
      </trkpt>
      <trkpt lat="44.4336" lon="4.60608">
        <ele>156</ele>
        <time>29-03-2015T10:26:11Z</time>
      </trkpt>
      <trkpt lat="44.43364" lon="4.60628">
        <ele>156</ele>
        <time>29-03-2015T10:26:14Z</time>
      </trkpt>
      <trkpt lat="44.43365" lon="4.60635">
        <ele>156</ele>
        <time>29-03-2015T10:26:15Z</time>
      </trkpt>
      <trkpt lat="44.43366" lon="4.60644">
        <ele>156</ele>
        <time>29-03-2015T10:26:16Z</time>
      </trkpt>
      <trkpt lat="44.43367" lon="4.60653">
        <ele>156</ele>
        <time>29-03-2015T10:26:17Z</time>
      </trkpt>
      <trkpt lat="44.43369" lon="4.60663">
        <ele>156</ele>
        <time>29-03-2015T10:26:18Z</time>
      </trkpt>
      <trkpt lat="44.43372" lon="4.60674">
        <ele>151</ele>
        <time>29-03-2015T10:26:20Z</time>
      </trkpt>
      <trkpt lat="44.43375" lon="4.60681">
        <ele>151</ele>
        <time>29-03-2015T10:26:22Z</time>
      </trkpt>
      <trkpt lat="44.43382" lon="4.60681">
        <ele>151</ele>
        <time>29-03-2015T10:26:23Z</time>
      </trkpt>
      <trkpt lat="44.43387" lon="4.6068">
        <ele>148</ele>
        <time>29-03-2015T10:26:24Z</time>
      </trkpt>
      <trkpt lat="44.43392" lon="4.60681">
        <ele>148</ele>
        <time>29-03-2015T10:26:25Z</time>
      </trkpt>
      <trkpt lat="44.43399" lon="4.60678">
        <ele>148</ele>
        <time>29-03-2015T10:26:27Z</time>
      </trkpt>
      <trkpt lat="44.43405" lon="4.60679">
        <ele>144</ele>
        <time>29-03-2015T10:26:29Z</time>
      </trkpt>
      <trkpt lat="44.43412" lon="4.60683">
        <ele>144</ele>
        <time>29-03-2015T10:26:31Z</time>
      </trkpt>
      <trkpt lat="44.43416" lon="4.60693">
        <ele>144</ele>
        <time>29-03-2015T10:26:33Z</time>
      </trkpt>
      <trkpt lat="44.43417" lon="4.60703">
        <ele>140</ele>
        <time>29-03-2015T10:26:34Z</time>
      </trkpt>
      <trkpt lat="44.43421" lon="4.6071">
        <ele>140</ele>
        <time>29-03-2015T10:26:35Z</time>
      </trkpt>
      <trkpt lat="44.43421" lon="4.6072">
        <ele>140</ele>
        <time>29-03-2015T10:26:36Z</time>
      </trkpt>
      <trkpt lat="44.43424" lon="4.60726">
        <ele>140</ele>
        <time>29-03-2015T10:26:37Z</time>
      </trkpt>
      <trkpt lat="44.43423" lon="4.60734">
        <ele>140</ele>
        <time>29-03-2015T10:26:38Z</time>
      </trkpt>
      <trkpt lat="44.43421" lon="4.60743">
        <ele>138</ele>
        <time>29-03-2015T10:26:39Z</time>
      </trkpt>
      <trkpt lat="44.43426" lon="4.60749">
        <ele>138</ele>
        <time>29-03-2015T10:26:40Z</time>
      </trkpt>
      <trkpt lat="44.43432" lon="4.60761">
        <ele>138</ele>
        <time>29-03-2015T10:26:42Z</time>
      </trkpt>
      <trkpt lat="44.43432" lon="4.60769">
        <ele>138</ele>
        <time>29-03-2015T10:26:43Z</time>
      </trkpt>
      <trkpt lat="44.43438" lon="4.60776">
        <ele>138</ele>
        <time>29-03-2015T10:26:45Z</time>
      </trkpt>
      <trkpt lat="44.43444" lon="4.60791">
        <ele>138</ele>
        <time>29-03-2015T10:26:47Z</time>
      </trkpt>
      <trkpt lat="44.43443" lon="4.608">
        <ele>138</ele>
        <time>29-03-2015T10:26:48Z</time>
      </trkpt>
      <trkpt lat="44.43448" lon="4.60806">
        <ele>138</ele>
        <time>29-03-2015T10:26:49Z</time>
      </trkpt>
      <trkpt lat="44.43446" lon="4.60812">
        <ele>138</ele>
        <time>29-03-2015T10:26:50Z</time>
      </trkpt>
      <trkpt lat="44.43449" lon="4.60818">
        <ele>138</ele>
        <time>29-03-2015T10:26:51Z</time>
      </trkpt>
      <trkpt lat="44.43454" lon="4.60822">
        <ele>138</ele>
        <time>29-03-2015T10:26:53Z</time>
      </trkpt>
      <trkpt lat="44.4346" lon="4.60826">
        <ele>139</ele>
        <time>29-03-2015T10:26:55Z</time>
      </trkpt>
      <trkpt lat="44.43465" lon="4.60824">
        <ele>139</ele>
        <time>29-03-2015T10:26:56Z</time>
      </trkpt>
      <trkpt lat="44.4347" lon="4.60827">
        <ele>139</ele>
        <time>29-03-2015T10:26:58Z</time>
      </trkpt>
      <trkpt lat="44.43473" lon="4.60832">
        <ele>141</ele>
        <time>29-03-2015T10:27:00Z</time>
      </trkpt>
      <trkpt lat="44.43479" lon="4.60838">
        <ele>141</ele>
        <time>29-03-2015T10:27:02Z</time>
      </trkpt>
      <trkpt lat="44.43482" lon="4.60846">
        <ele>143</ele>
        <time>29-03-2015T10:27:04Z</time>
      </trkpt>
      <trkpt lat="44.43485" lon="4.60854">
        <ele>143</ele>
        <time>29-03-2015T10:27:06Z</time>
      </trkpt>
      <trkpt lat="44.43489" lon="4.60861">
        <ele>143</ele>
        <time>29-03-2015T10:27:08Z</time>
      </trkpt>
      <trkpt lat="44.43493" lon="4.6087">
        <ele>143</ele>
        <time>29-03-2015T10:27:10Z</time>
      </trkpt>
      <trkpt lat="44.43498" lon="4.60878">
        <ele>143</ele>
        <time>29-03-2015T10:27:12Z</time>
      </trkpt>
      <trkpt lat="44.43505" lon="4.60886">
        <ele>143</ele>
        <time>29-03-2015T10:27:14Z</time>
      </trkpt>
      <trkpt lat="44.43512" lon="4.60894">
        <ele>143</ele>
        <time>29-03-2015T10:27:16Z</time>
      </trkpt>
      <trkpt lat="44.43517" lon="4.60901">
        <ele>143</ele>
        <time>29-03-2015T10:27:18Z</time>
      </trkpt>
      <trkpt lat="44.43522" lon="4.60907">
        <ele>142</ele>
        <time>29-03-2015T10:27:20Z</time>
      </trkpt>
      <trkpt lat="44.43523" lon="4.60913">
        <ele>142</ele>
        <time>29-03-2015T10:27:22Z</time>
      </trkpt>
      <trkpt lat="44.43527" lon="4.60918">
        <ele>142</ele>
        <time>29-03-2015T10:27:24Z</time>
      </trkpt>
      <trkpt lat="44.43533" lon="4.60919">
        <ele>142</ele>
        <time>29-03-2015T10:27:26Z</time>
      </trkpt>
      <trkpt lat="44.4354" lon="4.60923">
        <ele>142</ele>
        <time>29-03-2015T10:27:28Z</time>
      </trkpt>
      <trkpt lat="44.43546" lon="4.60927">
        <ele>142</ele>
        <time>29-03-2015T10:27:30Z</time>
      </trkpt>
      <trkpt lat="44.43551" lon="4.60932">
        <ele>142</ele>
        <time>29-03-2015T10:27:32Z</time>
      </trkpt>
      <trkpt lat="44.43557" lon="4.60936">
        <ele>142</ele>
        <time>29-03-2015T10:27:34Z</time>
      </trkpt>
      <trkpt lat="44.43566" lon="4.60941">
        <ele>142</ele>
        <time>29-03-2015T10:27:36Z</time>
      </trkpt>
      <trkpt lat="44.43571" lon="4.6095">
        <ele>142</ele>
        <time>29-03-2015T10:27:38Z</time>
      </trkpt>
      <trkpt lat="44.43576" lon="4.6096">
        <ele>143</ele>
        <time>29-03-2015T10:27:40Z</time>
      </trkpt>
      <trkpt lat="44.43582" lon="4.60968">
        <ele>143</ele>
        <time>29-03-2015T10:27:42Z</time>
      </trkpt>
      <trkpt lat="44.43587" lon="4.60973">
        <ele>143</ele>
        <time>29-03-2015T10:27:44Z</time>
      </trkpt>
      <trkpt lat="44.43594" lon="4.60979">
        <ele>143</ele>
        <time>29-03-2015T10:27:46Z</time>
      </trkpt>
      <trkpt lat="44.43598" lon="4.60986">
        <ele>143</ele>
        <time>29-03-2015T10:27:48Z</time>
      </trkpt>
      <trkpt lat="44.43598" lon="4.60997">
        <ele>143</ele>
        <time>29-03-2015T10:27:50Z</time>
      </trkpt>
      <trkpt lat="44.43601" lon="4.61006">
        <ele>143</ele>
        <time>29-03-2015T10:27:52Z</time>
      </trkpt>
      <trkpt lat="44.43603" lon="4.61015">
        <ele>143</ele>
        <time>29-03-2015T10:27:55Z</time>
      </trkpt>
      <trkpt lat="44.43603" lon="4.61023">
        <ele>143</ele>
        <time>29-03-2015T10:27:57Z</time>
      </trkpt>
      <trkpt lat="44.43604" lon="4.61031">
        <ele>143</ele>
        <time>29-03-2015T10:27:58Z</time>
      </trkpt>
      <trkpt lat="44.43602" lon="4.61042">
        <ele>144</ele>
        <time>29-03-2015T10:28:01Z</time>
      </trkpt>
      <trkpt lat="44.43603" lon="4.61051">
        <ele>144</ele>
        <time>29-03-2015T10:28:03Z</time>
      </trkpt>
      <trkpt lat="44.43606" lon="4.61056">
        <ele>146</ele>
        <time>29-03-2015T10:28:05Z</time>
      </trkpt>
      <trkpt lat="44.43605" lon="4.61065">
        <ele>146</ele>
        <time>29-03-2015T10:28:07Z</time>
      </trkpt>
      <trkpt lat="44.43605" lon="4.61077">
        <ele>147</ele>
        <time>29-03-2015T10:28:09Z</time>
      </trkpt>
      <trkpt lat="44.43604" lon="4.61086">
        <ele>147</ele>
        <time>29-03-2015T10:28:11Z</time>
      </trkpt>
      <trkpt lat="44.43604" lon="4.611">
        <ele>147</ele>
        <time>29-03-2015T10:28:13Z</time>
      </trkpt>
      <trkpt lat="44.4361" lon="4.6111">
        <ele>147</ele>
        <time>29-03-2015T10:28:15Z</time>
      </trkpt>
      <trkpt lat="44.43613" lon="4.61123">
        <ele>147</ele>
        <time>29-03-2015T10:28:17Z</time>
      </trkpt>
      <trkpt lat="44.43614" lon="4.61132">
        <ele>148</ele>
        <time>29-03-2015T10:28:20Z</time>
      </trkpt>
      <trkpt lat="44.43616" lon="4.61138">
        <ele>148</ele>
        <time>29-03-2015T10:28:22Z</time>
      </trkpt>
      <trkpt lat="44.43614" lon="4.61144">
        <ele>148</ele>
        <time>29-03-2015T10:28:23Z</time>
      </trkpt>
      <trkpt lat="44.43619" lon="4.6115">
        <ele>148</ele>
        <time>29-03-2015T10:28:26Z</time>
      </trkpt>
      <trkpt lat="44.43622" lon="4.61157">
        <ele>148</ele>
        <time>29-03-2015T10:28:28Z</time>
      </trkpt>
      <trkpt lat="44.43627" lon="4.61164">
        <ele>149</ele>
        <time>29-03-2015T10:28:32Z</time>
      </trkpt>
      <trkpt lat="44.43628" lon="4.61173">
        <ele>150</ele>
        <time>29-03-2015T10:28:34Z</time>
      </trkpt>
      <trkpt lat="44.43632" lon="4.61175">
        <ele>150</ele>
        <time>29-03-2015T10:28:35Z</time>
      </trkpt>
      <trkpt lat="44.43633" lon="4.61181">
        <ele>150</ele>
        <time>29-03-2015T10:28:37Z</time>
      </trkpt>
      <trkpt lat="44.43637" lon="4.61187">
        <ele>151</ele>
        <time>29-03-2015T10:28:39Z</time>
      </trkpt>
      <trkpt lat="44.43639" lon="4.61197">
        <ele>151</ele>
        <time>29-03-2015T10:28:43Z</time>
      </trkpt>
      <trkpt lat="44.43645" lon="4.61204">
        <ele>151</ele>
        <time>29-03-2015T10:28:46Z</time>
      </trkpt>
      <trkpt lat="44.43647" lon="4.61199">
        <ele>151</ele>
        <time>29-03-2015T10:28:47Z</time>
      </trkpt>
      <trkpt lat="44.43646" lon="4.6121">
        <ele>151</ele>
        <time>29-03-2015T10:28:48Z</time>
      </trkpt>
      <trkpt lat="44.43651" lon="4.61211">
        <ele>152</ele>
        <time>29-03-2015T10:28:50Z</time>
      </trkpt>
      <trkpt lat="44.43653" lon="4.61221">
        <ele>153</ele>
        <time>29-03-2015T10:28:54Z</time>
      </trkpt>
      <trkpt lat="44.43657" lon="4.61228">
        <ele>153</ele>
        <time>29-03-2015T10:28:57Z</time>
      </trkpt>
      <trkpt lat="44.43662" lon="4.61229">
        <ele>155</ele>
        <time>29-03-2015T10:29:02Z</time>
      </trkpt>
      <trkpt lat="44.43666" lon="4.61233">
        <ele>156</ele>
        <time>29-03-2015T10:29:04Z</time>
      </trkpt>
      <trkpt lat="44.4367" lon="4.61236">
        <ele>159</ele>
        <time>29-03-2015T10:29:09Z</time>
      </trkpt>
      <trkpt lat="44.43676" lon="4.61238">
        <ele>159</ele>
        <time>29-03-2015T10:29:11Z</time>
      </trkpt>
      <trkpt lat="44.4368" lon="4.61241">
        <ele>159</ele>
        <time>29-03-2015T10:29:15Z</time>
      </trkpt>
      <trkpt lat="44.43684" lon="4.61244">
        <ele>159</ele>
        <time>29-03-2015T10:29:18Z</time>
      </trkpt>
      <trkpt lat="44.43689" lon="4.61247">
        <ele>160</ele>
        <time>29-03-2015T10:29:23Z</time>
      </trkpt>
      <trkpt lat="44.43695" lon="4.61247">
        <ele>161</ele>
        <time>29-03-2015T10:29:26Z</time>
      </trkpt>
      <trkpt lat="44.43699" lon="4.6125">
        <ele>162</ele>
        <time>29-03-2015T10:29:31Z</time>
      </trkpt>
      <trkpt lat="44.43704" lon="4.61255">
        <ele>163</ele>
        <time>29-03-2015T10:29:35Z</time>
      </trkpt>
      <trkpt lat="44.4371" lon="4.61258">
        <ele>165</ele>
        <time>29-03-2015T10:29:39Z</time>
      </trkpt>
      <trkpt lat="44.43712" lon="4.61264">
        <ele>165</ele>
        <time>29-03-2015T10:29:42Z</time>
      </trkpt>
      <trkpt lat="44.43715" lon="4.61271">
        <ele>166</ele>
        <time>29-03-2015T10:29:47Z</time>
      </trkpt>
      <trkpt lat="44.43719" lon="4.61278">
        <ele>166</ele>
        <time>29-03-2015T10:29:52Z</time>
      </trkpt>
      <trkpt lat="44.4372" lon="4.61285">
        <ele>168</ele>
        <time>29-03-2015T10:29:56Z</time>
      </trkpt>
      <trkpt lat="44.43723" lon="4.61293">
        <ele>168</ele>
        <time>29-03-2015T10:29:59Z</time>
      </trkpt>
      <trkpt lat="44.43727" lon="4.61299">
        <ele>168</ele>
        <time>29-03-2015T10:30:02Z</time>
      </trkpt>
      <trkpt lat="44.43728" lon="4.61305">
        <ele>169</ele>
        <time>29-03-2015T10:30:05Z</time>
      </trkpt>
      <trkpt lat="44.43728" lon="4.61313">
        <ele>169</ele>
        <time>29-03-2015T10:30:08Z</time>
      </trkpt>
      <trkpt lat="44.43727" lon="4.61321">
        <ele>170</ele>
        <time>29-03-2015T10:30:11Z</time>
      </trkpt>
      <trkpt lat="44.43728" lon="4.61329">
        <ele>170</ele>
        <time>29-03-2015T10:30:14Z</time>
      </trkpt>
      <trkpt lat="44.43731" lon="4.61335">
        <ele>170</ele>
        <time>29-03-2015T10:30:16Z</time>
      </trkpt>
      <trkpt lat="44.43734" lon="4.61343">
        <ele>170</ele>
        <time>29-03-2015T10:30:18Z</time>
      </trkpt>
      <trkpt lat="44.43735" lon="4.61349">
        <ele>173</ele>
        <time>29-03-2015T10:30:22Z</time>
      </trkpt>
      <trkpt lat="44.43737" lon="4.61358">
        <ele>173</ele>
        <time>29-03-2015T10:30:26Z</time>
      </trkpt>
      <trkpt lat="44.43737" lon="4.61367">
        <ele>173</ele>
        <time>29-03-2015T10:30:29Z</time>
      </trkpt>
      <trkpt lat="44.43738" lon="4.61373">
        <ele>173</ele>
        <time>29-03-2015T10:30:31Z</time>
      </trkpt>
      <trkpt lat="44.43735" lon="4.61378">
        <ele>173</ele>
        <time>29-03-2015T10:30:33Z</time>
      </trkpt>
      <trkpt lat="44.4373" lon="4.61385">
        <ele>174</ele>
        <time>29-03-2015T10:30:35Z</time>
      </trkpt>
      <trkpt lat="44.43731" lon="4.61392">
        <ele>174</ele>
        <time>29-03-2015T10:30:38Z</time>
      </trkpt>
      <trkpt lat="44.43737" lon="4.61399">
        <ele>174</ele>
        <time>29-03-2015T10:30:41Z</time>
      </trkpt>
      <trkpt lat="44.43732" lon="4.61403">
        <ele>174</ele>
        <time>29-03-2015T10:30:43Z</time>
      </trkpt>
      <trkpt lat="44.43736" lon="4.61409">
        <ele>175</ele>
        <time>29-03-2015T10:30:46Z</time>
      </trkpt>
      <trkpt lat="44.43733" lon="4.61413">
        <ele>176</ele>
        <time>29-03-2015T10:30:49Z</time>
      </trkpt>
      <trkpt lat="44.43732" lon="4.61421">
        <ele>176</ele>
        <time>29-03-2015T10:30:53Z</time>
      </trkpt>
      <trkpt lat="44.43734" lon="4.61428">
        <ele>176</ele>
        <time>29-03-2015T10:30:58Z</time>
      </trkpt>
      <trkpt lat="44.43735" lon="4.61434">
        <ele>177</ele>
        <time>29-03-2015T10:31:02Z</time>
      </trkpt>
      <trkpt lat="44.43732" lon="4.61439">
        <ele>178</ele>
        <time>29-03-2015T10:31:04Z</time>
      </trkpt>
      <trkpt lat="44.43729" lon="4.61446">
        <ele>178</ele>
        <time>29-03-2015T10:31:08Z</time>
      </trkpt>
      <trkpt lat="44.43732" lon="4.61452">
        <ele>179</ele>
        <time>29-03-2015T10:31:11Z</time>
      </trkpt>
      <trkpt lat="44.43735" lon="4.6146">
        <ele>179</ele>
        <time>29-03-2015T10:31:15Z</time>
      </trkpt>
      <trkpt lat="44.43738" lon="4.61465">
        <ele>179</ele>
        <time>29-03-2015T10:31:18Z</time>
      </trkpt>
      <trkpt lat="44.43739" lon="4.61473">
        <ele>180</ele>
        <time>29-03-2015T10:31:20Z</time>
      </trkpt>
      <trkpt lat="44.43743" lon="4.61484">
        <ele>180</ele>
        <time>29-03-2015T10:31:23Z</time>
      </trkpt>
      <trkpt lat="44.43743" lon="4.61492">
        <ele>180</ele>
        <time>29-03-2015T10:31:25Z</time>
      </trkpt>
      <trkpt lat="44.43742" lon="4.61501">
        <ele>180</ele>
        <time>29-03-2015T10:31:27Z</time>
      </trkpt>
      <trkpt lat="44.43738" lon="4.6151">
        <ele>180</ele>
        <time>29-03-2015T10:31:28Z</time>
      </trkpt>
      <trkpt lat="44.43735" lon="4.61515">
        <ele>180</ele>
        <time>29-03-2015T10:31:30Z</time>
      </trkpt>
      <trkpt lat="44.43736" lon="4.61527">
        <ele>180</ele>
        <time>29-03-2015T10:31:32Z</time>
      </trkpt>
      <trkpt lat="44.43733" lon="4.61536">
        <ele>179</ele>
        <time>29-03-2015T10:31:34Z</time>
      </trkpt>
      <trkpt lat="44.43731" lon="4.61547">
        <ele>179</ele>
        <time>29-03-2015T10:31:36Z</time>
      </trkpt>
      <trkpt lat="44.43732" lon="4.61557">
        <ele>179</ele>
        <time>29-03-2015T10:31:37Z</time>
      </trkpt>
      <trkpt lat="44.43731" lon="4.61565">
        <ele>176</ele>
        <time>29-03-2015T10:31:39Z</time>
      </trkpt>
      <trkpt lat="44.43732" lon="4.61572">
        <ele>176</ele>
        <time>29-03-2015T10:31:40Z</time>
      </trkpt>
      <trkpt lat="44.43731" lon="4.61579">
        <ele>176</ele>
        <time>29-03-2015T10:31:42Z</time>
      </trkpt>
      <trkpt lat="44.4373" lon="4.61586">
        <ele>176</ele>
        <time>29-03-2015T10:31:44Z</time>
      </trkpt>
      <trkpt lat="44.43731" lon="4.61594">
        <ele>176</ele>
        <time>29-03-2015T10:31:47Z</time>
      </trkpt>
      <trkpt lat="44.43731" lon="4.61604">
        <ele>176</ele>
        <time>29-03-2015T10:31:49Z</time>
      </trkpt>
      <trkpt lat="44.43731" lon="4.61612">
        <ele>176</ele>
        <time>29-03-2015T10:31:51Z</time>
      </trkpt>
      <trkpt lat="44.43731" lon="4.61624">
        <ele>176</ele>
        <time>29-03-2015T10:31:53Z</time>
      </trkpt>
      <trkpt lat="44.43734" lon="4.61633">
        <ele>176</ele>
        <time>29-03-2015T10:31:55Z</time>
      </trkpt>
      <trkpt lat="44.43731" lon="4.61647">
        <ele>176</ele>
        <time>29-03-2015T10:31:57Z</time>
      </trkpt>
      <trkpt lat="44.43729" lon="4.61655">
        <ele>176</ele>
        <time>29-03-2015T10:31:58Z</time>
      </trkpt>
      <trkpt lat="44.43727" lon="4.61663">
        <ele>175</ele>
        <time>29-03-2015T10:32:00Z</time>
      </trkpt>
      <trkpt lat="44.43723" lon="4.61673">
        <ele>175</ele>
        <time>29-03-2015T10:32:02Z</time>
      </trkpt>
      <trkpt lat="44.43724" lon="4.6168">
        <ele>174</ele>
        <time>29-03-2015T10:32:04Z</time>
      </trkpt>
      <trkpt lat="44.43717" lon="4.61685">
        <ele>174</ele>
        <time>29-03-2015T10:32:06Z</time>
      </trkpt>
      <trkpt lat="44.43715" lon="4.61692">
        <ele>174</ele>
        <time>29-03-2015T10:32:07Z</time>
      </trkpt>
      <trkpt lat="44.43712" lon="4.61695">
        <ele>174</ele>
        <time>29-03-2015T10:32:08Z</time>
      </trkpt>
      <trkpt lat="44.43707" lon="4.61698">
        <ele>176</ele>
        <time>29-03-2015T10:32:09Z</time>
      </trkpt>
      <trkpt lat="44.43704" lon="4.61703">
        <ele>176</ele>
        <time>29-03-2015T10:32:10Z</time>
      </trkpt>
      <trkpt lat="44.43699" lon="4.61705">
        <ele>176</ele>
        <time>29-03-2015T10:32:11Z</time>
      </trkpt>
      <trkpt lat="44.43695" lon="4.61707">
        <ele>176</ele>
        <time>29-03-2015T10:32:12Z</time>
      </trkpt>
      <trkpt lat="44.43687" lon="4.61714">
        <ele>176</ele>
        <time>29-03-2015T10:32:14Z</time>
      </trkpt>
      <trkpt lat="44.43684" lon="4.61719">
        <ele>176</ele>
        <time>29-03-2015T10:32:15Z</time>
      </trkpt>
      <trkpt lat="44.43682" lon="4.61725">
        <ele>176</ele>
        <time>29-03-2015T10:32:16Z</time>
      </trkpt>
      <trkpt lat="44.43681" lon="4.61736">
        <ele>176</ele>
        <time>29-03-2015T10:32:18Z</time>
      </trkpt>
      <trkpt lat="44.43682" lon="4.61744">
        <ele>173</ele>
        <time>29-03-2015T10:32:19Z</time>
      </trkpt>
      <trkpt lat="44.43686" lon="4.61755">
        <ele>173</ele>
        <time>29-03-2015T10:32:20Z</time>
      </trkpt>
      <trkpt lat="44.43689" lon="4.61762">
        <ele>173</ele>
        <time>29-03-2015T10:32:21Z</time>
      </trkpt>
      <trkpt lat="44.43696" lon="4.61768">
        <ele>173</ele>
        <time>29-03-2015T10:32:22Z</time>
      </trkpt>
      <trkpt lat="44.43699" lon="4.61777">
        <ele>173</ele>
        <time>29-03-2015T10:32:23Z</time>
      </trkpt>
      <trkpt lat="44.43701" lon="4.61788">
        <ele>171</ele>
        <time>29-03-2015T10:32:24Z</time>
      </trkpt>
      <trkpt lat="44.43702" lon="4.61799">
        <ele>171</ele>
        <time>29-03-2015T10:32:25Z</time>
      </trkpt>
      <trkpt lat="44.43707" lon="4.61803">
        <ele>171</ele>
        <time>29-03-2015T10:32:26Z</time>
      </trkpt>
      <trkpt lat="44.43713" lon="4.61804">
        <ele>171</ele>
        <time>29-03-2015T10:32:27Z</time>
      </trkpt>
      <trkpt lat="44.43716" lon="4.61811">
        <ele>171</ele>
        <time>29-03-2015T10:32:28Z</time>
      </trkpt>
      <trkpt lat="44.4372" lon="4.61819">
        <ele>167</ele>
        <time>29-03-2015T10:32:29Z</time>
      </trkpt>
      <trkpt lat="44.43722" lon="4.61826">
        <ele>167</ele>
        <time>29-03-2015T10:32:30Z</time>
      </trkpt>
      <trkpt lat="44.43725" lon="4.61834">
        <ele>167</ele>
        <time>29-03-2015T10:32:31Z</time>
      </trkpt>
      <trkpt lat="44.43732" lon="4.6184">
        <ele>167</ele>
        <time>29-03-2015T10:32:32Z</time>
      </trkpt>
      <trkpt lat="44.43738" lon="4.61847">
        <ele>167</ele>
        <time>29-03-2015T10:32:33Z</time>
      </trkpt>
      <trkpt lat="44.43741" lon="4.61858">
        <ele>163</ele>
        <time>29-03-2015T10:32:34Z</time>
      </trkpt>
      <trkpt lat="44.43743" lon="4.6187">
        <ele>163</ele>
        <time>29-03-2015T10:32:35Z</time>
      </trkpt>
      <trkpt lat="44.43746" lon="4.6188">
        <ele>163</ele>
        <time>29-03-2015T10:32:36Z</time>
      </trkpt>
      <trkpt lat="44.43748" lon="4.6189">
        <ele>163</ele>
        <time>29-03-2015T10:32:37Z</time>
      </trkpt>
      <trkpt lat="44.43752" lon="4.61899">
        <ele>163</ele>
        <time>29-03-2015T10:32:38Z</time>
      </trkpt>
      <trkpt lat="44.43752" lon="4.61909">
        <ele>155</ele>
        <time>29-03-2015T10:32:39Z</time>
      </trkpt>
      <trkpt lat="44.43751" lon="4.61916">
        <ele>155</ele>
        <time>29-03-2015T10:32:40Z</time>
      </trkpt>
      <trkpt lat="44.43751" lon="4.61923">
        <ele>155</ele>
        <time>29-03-2015T10:32:41Z</time>
      </trkpt>
      <trkpt lat="44.43759" lon="4.6192">
        <ele>155</ele>
        <time>29-03-2015T10:32:42Z</time>
      </trkpt>
      <trkpt lat="44.43765" lon="4.61923">
        <ele>155</ele>
        <time>29-03-2015T10:32:44Z</time>
      </trkpt>
      <trkpt lat="44.43773" lon="4.61924">
        <ele>155</ele>
        <time>29-03-2015T10:32:46Z</time>
      </trkpt>
      <trkpt lat="44.4378" lon="4.61924">
        <ele>155</ele>
        <time>29-03-2015T10:32:47Z</time>
      </trkpt>
      <trkpt lat="44.43785" lon="4.61924">
        <ele>155</ele>
        <time>29-03-2015T10:32:48Z</time>
      </trkpt>
      <trkpt lat="44.4379" lon="4.61927">
        <ele>154</ele>
        <time>29-03-2015T10:32:50Z</time>
      </trkpt>
      <trkpt lat="44.43803" lon="4.61918">
        <ele>154</ele>
        <time>29-03-2015T10:32:53Z</time>
      </trkpt>
      <trkpt lat="44.43809" lon="4.61913">
        <ele>153</ele>
        <time>29-03-2015T10:32:54Z</time>
      </trkpt>
      <trkpt lat="44.43816" lon="4.61908">
        <ele>153</ele>
        <time>29-03-2015T10:32:55Z</time>
      </trkpt>
      <trkpt lat="44.43822" lon="4.61901">
        <ele>153</ele>
        <time>29-03-2015T10:32:56Z</time>
      </trkpt>
      <trkpt lat="44.43829" lon="4.61894">
        <ele>153</ele>
        <time>29-03-2015T10:32:57Z</time>
      </trkpt>
      <trkpt lat="44.43837" lon="4.61888">
        <ele>153</ele>
        <time>29-03-2015T10:32:58Z</time>
      </trkpt>
      <trkpt lat="44.43843" lon="4.61885">
        <ele>148</ele>
        <time>29-03-2015T10:32:59Z</time>
      </trkpt>
      <trkpt lat="44.4385" lon="4.61883">
        <ele>148</ele>
        <time>29-03-2015T10:33:00Z</time>
      </trkpt>
      <trkpt lat="44.43857" lon="4.61886">
        <ele>148</ele>
        <time>29-03-2015T10:33:01Z</time>
      </trkpt>
      <trkpt lat="44.43866" lon="4.61891">
        <ele>148</ele>
        <time>29-03-2015T10:33:02Z</time>
      </trkpt>
      <trkpt lat="44.43876" lon="4.61897">
        <ele>148</ele>
        <time>29-03-2015T10:33:03Z</time>
      </trkpt>
      <trkpt lat="44.43885" lon="4.61911">
        <ele>142</ele>
        <time>29-03-2015T10:33:04Z</time>
      </trkpt>
      <trkpt lat="44.4389" lon="4.61923">
        <ele>142</ele>
        <time>29-03-2015T10:33:05Z</time>
      </trkpt>
      <trkpt lat="44.43896" lon="4.61935">
        <ele>142</ele>
        <time>29-03-2015T10:33:06Z</time>
      </trkpt>
      <trkpt lat="44.43897" lon="4.61951">
        <ele>142</ele>
        <time>29-03-2015T10:33:07Z</time>
      </trkpt>
      <trkpt lat="44.43902" lon="4.61962">
        <ele>142</ele>
        <time>29-03-2015T10:33:08Z</time>
      </trkpt>
      <trkpt lat="44.43908" lon="4.61973">
        <ele>135</ele>
        <time>29-03-2015T10:33:09Z</time>
      </trkpt>
      <trkpt lat="44.43917" lon="4.61983">
        <ele>135</ele>
        <time>29-03-2015T10:33:10Z</time>
      </trkpt>
      <trkpt lat="44.43924" lon="4.61992">
        <ele>135</ele>
        <time>29-03-2015T10:33:11Z</time>
      </trkpt>
      <trkpt lat="44.43931" lon="4.62">
        <ele>135</ele>
        <time>29-03-2015T10:33:12Z</time>
      </trkpt>
      <trkpt lat="44.43938" lon="4.62008">
        <ele>135</ele>
        <time>29-03-2015T10:33:13Z</time>
      </trkpt>
      <trkpt lat="44.43944" lon="4.62017">
        <ele>131</ele>
        <time>29-03-2015T10:33:14Z</time>
      </trkpt>
      <trkpt lat="44.43949" lon="4.62023">
        <ele>131</ele>
        <time>29-03-2015T10:33:15Z</time>
      </trkpt>
      <trkpt lat="44.43951" lon="4.62035">
        <ele>131</ele>
        <time>29-03-2015T10:33:16Z</time>
      </trkpt>
      <trkpt lat="44.43954" lon="4.62045">
        <ele>131</ele>
        <time>29-03-2015T10:33:17Z</time>
      </trkpt>
      <trkpt lat="44.43953" lon="4.62057">
        <ele>131</ele>
        <time>29-03-2015T10:33:18Z</time>
      </trkpt>
      <trkpt lat="44.43951" lon="4.62071">
        <ele>125</ele>
        <time>29-03-2015T10:33:19Z</time>
      </trkpt>
      <trkpt lat="44.43948" lon="4.62086">
        <ele>125</ele>
        <time>29-03-2015T10:33:20Z</time>
      </trkpt>
      <trkpt lat="44.43949" lon="4.62096">
        <ele>125</ele>
        <time>29-03-2015T10:33:21Z</time>
      </trkpt>
      <trkpt lat="44.43952" lon="4.62104">
        <ele>125</ele>
        <time>29-03-2015T10:33:22Z</time>
      </trkpt>
      <trkpt lat="44.43955" lon="4.62113">
        <ele>125</ele>
        <time>29-03-2015T10:33:23Z</time>
      </trkpt>
      <trkpt lat="44.43965" lon="4.62115">
        <ele>121</ele>
        <time>29-03-2015T10:33:24Z</time>
      </trkpt>
      <trkpt lat="44.43968" lon="4.62124">
        <ele>121</ele>
        <time>29-03-2015T10:33:25Z</time>
      </trkpt>
      <trkpt lat="44.43973" lon="4.62133">
        <ele>121</ele>
        <time>29-03-2015T10:33:26Z</time>
      </trkpt>
      <trkpt lat="44.43978" lon="4.62139">
        <ele>121</ele>
        <time>29-03-2015T10:33:27Z</time>
      </trkpt>
      <trkpt lat="44.43984" lon="4.62141">
        <ele>121</ele>
        <time>29-03-2015T10:33:28Z</time>
      </trkpt>
      <trkpt lat="44.43991" lon="4.62148">
        <ele>117</ele>
        <time>29-03-2015T10:33:30Z</time>
      </trkpt>
      <trkpt lat="44.43994" lon="4.62153">
        <ele>117</ele>
        <time>29-03-2015T10:33:31Z</time>
      </trkpt>
      <trkpt lat="44.43998" lon="4.6216">
        <ele>117</ele>
        <time>29-03-2015T10:33:32Z</time>
      </trkpt>
      <trkpt lat="44.44007" lon="4.62167">
        <ele>114</ele>
        <time>29-03-2015T10:33:34Z</time>
      </trkpt>
      <trkpt lat="44.44012" lon="4.62169">
        <ele>114</ele>
        <time>29-03-2015T10:33:35Z</time>
      </trkpt>
      <trkpt lat="44.44012" lon="4.62175">
        <ele>114</ele>
        <time>29-03-2015T10:33:36Z</time>
      </trkpt>
      <trkpt lat="44.4401" lon="4.62185">
        <ele>114</ele>
        <time>29-03-2015T10:33:37Z</time>
      </trkpt>
      <trkpt lat="44.4401" lon="4.62192">
        <ele>114</ele>
        <time>29-03-2015T10:33:38Z</time>
      </trkpt>
      <trkpt lat="44.44014" lon="4.62188">
        <ele>112</ele>
        <time>29-03-2015T10:33:40Z</time>
      </trkpt>
      <trkpt lat="44.44018" lon="4.62196">
        <ele>112</ele>
        <time>29-03-2015T10:33:42Z</time>
      </trkpt>
      <trkpt lat="44.44021" lon="4.62204">
        <ele>112</ele>
        <time>29-03-2015T10:33:43Z</time>
      </trkpt>
      <trkpt lat="44.44022" lon="4.62211">
        <ele>111</ele>
        <time>29-03-2015T10:33:44Z</time>
      </trkpt>
      <trkpt lat="44.44024" lon="4.62217">
        <ele>111</ele>
        <time>29-03-2015T10:33:45Z</time>
      </trkpt>
      <trkpt lat="44.44032" lon="4.62225">
        <ele>111</ele>
        <time>29-03-2015T10:33:47Z</time>
      </trkpt>
      <trkpt lat="44.44038" lon="4.6223">
        <ele>111</ele>
        <time>29-03-2015T10:33:48Z</time>
      </trkpt>
      <trkpt lat="44.4404" lon="4.62237">
        <ele>106</ele>
        <time>29-03-2015T10:33:49Z</time>
      </trkpt>
      <trkpt lat="44.44047" lon="4.62247">
        <ele>106</ele>
        <time>29-03-2015T10:33:51Z</time>
      </trkpt>
      <trkpt lat="44.44045" lon="4.62253">
        <ele>106</ele>
        <time>29-03-2015T10:33:52Z</time>
      </trkpt>
      <trkpt lat="44.44049" lon="4.62257">
        <ele>103</ele>
        <time>29-03-2015T10:33:54Z</time>
      </trkpt>
      <trkpt lat="44.44045" lon="4.62264">
        <ele>103</ele>
        <time>29-03-2015T10:33:56Z</time>
      </trkpt>
      <trkpt lat="44.44034" lon="4.6227">
        <ele>103</ele>
        <time>29-03-2015T10:33:58Z</time>
      </trkpt>
      <trkpt lat="44.44031" lon="4.62275">
        <ele>102</ele>
        <time>29-03-2015T10:33:59Z</time>
      </trkpt>
      <trkpt lat="44.44026" lon="4.62277">
        <ele>102</ele>
        <time>29-03-2015T10:34:01Z</time>
      </trkpt>
      <trkpt lat="44.44021" lon="4.62283">
        <ele>102</ele>
        <time>29-03-2015T10:34:03Z</time>
      </trkpt>
      <trkpt lat="44.44016" lon="4.62291">
        <ele>101</ele>
        <time>29-03-2015T10:34:05Z</time>
      </trkpt>
      <trkpt lat="44.44013" lon="4.62303">
        <ele>101</ele>
        <time>29-03-2015T10:34:07Z</time>
      </trkpt>
      <trkpt lat="44.44009" lon="4.62311">
        <ele>100</ele>
        <time>29-03-2015T10:34:09Z</time>
      </trkpt>
      <trkpt lat="44.44005" lon="4.62318">
        <ele>100</ele>
        <time>29-03-2015T10:34:11Z</time>
      </trkpt>
      <trkpt lat="44.44003" lon="4.62326">
        <ele>100</ele>
        <time>29-03-2015T10:34:12Z</time>
      </trkpt>
      <trkpt lat="44.44002" lon="4.62333">
        <ele>100</ele>
        <time>29-03-2015T10:34:13Z</time>
      </trkpt>
      <trkpt lat="44.43999" lon="4.62345">
        <ele>100</ele>
        <time>29-03-2015T10:34:15Z</time>
      </trkpt>
      <trkpt lat="44.44003" lon="4.62355">
        <ele>100</ele>
        <time>29-03-2015T10:34:17Z</time>
      </trkpt>
      <trkpt lat="44.43996" lon="4.62362">
        <ele>99</ele>
        <time>29-03-2015T10:34:19Z</time>
      </trkpt>
      <trkpt lat="44.4399" lon="4.62366">
        <ele>99</ele>
        <time>29-03-2015T10:34:20Z</time>
      </trkpt>
      <trkpt lat="44.43986" lon="4.6237">
        <ele>99</ele>
        <time>29-03-2015T10:34:21Z</time>
      </trkpt>
      <trkpt lat="44.43983" lon="4.62375">
        <ele>99</ele>
        <time>29-03-2015T10:34:22Z</time>
      </trkpt>
      <trkpt lat="44.43978" lon="4.62381">
        <ele>99</ele>
        <time>29-03-2015T10:34:24Z</time>
      </trkpt>
      <trkpt lat="44.43971" lon="4.62384">
        <ele>99</ele>
        <time>29-03-2015T10:34:26Z</time>
      </trkpt>
      <trkpt lat="44.43969" lon="4.62392">
        <ele>98</ele>
        <time>29-03-2015T10:34:29Z</time>
      </trkpt>
      <trkpt lat="44.43971" lon="4.62398">
        <ele>98</ele>
        <time>29-03-2015T10:34:31Z</time>
      </trkpt>
      <trkpt lat="44.43968" lon="4.62403">
        <ele>97</ele>
        <time>29-03-2015T10:34:35Z</time>
      </trkpt>
      <trkpt lat="44.43963" lon="4.62406">
        <ele>97</ele>
        <time>29-03-2015T10:34:37Z</time>
      </trkpt>
      <trkpt lat="44.43959" lon="4.62407">
        <ele>97</ele>
        <time>29-03-2015T10:34:39Z</time>
      </trkpt>
      <trkpt lat="44.43954" lon="4.6241">
        <ele>97</ele>
        <time>29-03-2015T10:34:41Z</time>
      </trkpt>
      <trkpt lat="44.4395" lon="4.62414">
        <ele>97</ele>
        <time>29-03-2015T10:34:45Z</time>
      </trkpt>
      <trkpt lat="44.43948" lon="4.62421">
        <ele>97</ele>
        <time>29-03-2015T10:34:47Z</time>
      </trkpt>
      <trkpt lat="44.43946" lon="4.62427">
        <ele>97</ele>
        <time>29-03-2015T10:34:49Z</time>
      </trkpt>
      <trkpt lat="44.43948" lon="4.62427">
        <ele>97</ele>
        <time>29-03-2015T10:34:54Z</time>
      </trkpt>
      <trkpt lat="44.43946" lon="4.62427">
        <ele>97</ele>
        <time>29-03-2015T10:34:59Z</time>
      </trkpt>
      <trkpt lat="44.43949" lon="4.62425">
        <ele>97</ele>
        <time>29-03-2015T10:35:04Z</time>
      </trkpt>
      <trkpt lat="44.43948" lon="4.62423">
        <ele>98</ele>
        <time>29-03-2015T10:35:09Z</time>
      </trkpt>
      <trkpt lat="44.43949" lon="4.62424">
        <ele>98</ele>
        <time>29-03-2015T10:35:14Z</time>
      </trkpt>
      <trkpt lat="44.43949" lon="4.62425">
        <ele>98</ele>
        <time>29-03-2015T10:35:19Z</time>
      </trkpt>
      <trkpt lat="44.43949" lon="4.62425">
        <ele>98</ele>
        <time>29-03-2015T10:35:24Z</time>
      </trkpt>
      <trkpt lat="44.43949" lon="4.62425">
        <ele>98</ele>
        <time>29-03-2015T10:35:29Z</time>
      </trkpt>
      <trkpt lat="44.43949" lon="4.62425">
        <ele>98</ele>
        <time>29-03-2015T10:35:34Z</time>
      </trkpt>
      <trkpt lat="44.43949" lon="4.62425">
        <ele>98</ele>
        <time>29-03-2015T10:35:39Z</time>
      </trkpt>
      <trkpt lat="44.4395" lon="4.62428">
        <ele>98</ele>
        <time>29-03-2015T10:35:44Z</time>
      </trkpt>
      <trkpt lat="44.43953" lon="4.62427">
        <ele>98</ele>
        <time>29-03-2015T10:35:49Z</time>
      </trkpt>
      <trkpt lat="44.43955" lon="4.62425">
        <ele>98</ele>
        <time>29-03-2015T10:35:54Z</time>
      </trkpt>
      <trkpt lat="44.43954" lon="4.62424">
        <ele>98</ele>
        <time>29-03-2015T10:35:59Z</time>
      </trkpt>
      <trkpt lat="44.43953" lon="4.62427">
        <ele>98</ele>
        <time>29-03-2015T10:36:04Z</time>
      </trkpt>
      <trkpt lat="44.43947" lon="4.6243">
        <ele>98</ele>
        <time>29-03-2015T10:36:09Z</time>
      </trkpt>
      <trkpt lat="44.43949" lon="4.62429">
        <ele>98</ele>
        <time>29-03-2015T10:36:14Z</time>
      </trkpt>
      <trkpt lat="44.43945" lon="4.62429">
        <ele>98</ele>
        <time>29-03-2015T10:36:19Z</time>
      </trkpt>
      <trkpt lat="44.43943" lon="4.62433">
        <ele>98</ele>
        <time>29-03-2015T10:36:24Z</time>
      </trkpt>
      <trkpt lat="44.43945" lon="4.6243">
        <ele>98</ele>
        <time>29-03-2015T10:36:29Z</time>
      </trkpt>
      <trkpt lat="44.43949" lon="4.62428">
        <ele>98</ele>
        <time>29-03-2015T10:36:34Z</time>
      </trkpt>
      <trkpt lat="44.43952" lon="4.62424">
        <ele>98</ele>
        <time>29-03-2015T10:36:39Z</time>
      </trkpt>
      <trkpt lat="44.43951" lon="4.62427">
        <ele>98</ele>
        <time>29-03-2015T10:36:44Z</time>
      </trkpt>
      <trkpt lat="44.43956" lon="4.62423">
        <ele>98</ele>
        <time>29-03-2015T10:36:46Z</time>
      </trkpt>
      <trkpt lat="44.4396" lon="4.62419">
        <ele>98</ele>
        <time>29-03-2015T10:36:47Z</time>
      </trkpt>
      <trkpt lat="44.43963" lon="4.62422">
        <ele>98</ele>
        <time>29-03-2015T10:36:52Z</time>
      </trkpt>
      <trkpt lat="44.43963" lon="4.62429">
        <ele>98</ele>
        <time>29-03-2015T10:36:55Z</time>
      </trkpt>
      <trkpt lat="44.43962" lon="4.6243">
        <ele>98</ele>
        <time>29-03-2015T10:37:00Z</time>
      </trkpt>
      <trkpt lat="44.43963" lon="4.62429">
        <ele>98</ele>
        <time>29-03-2015T10:37:05Z</time>
      </trkpt>
      <trkpt lat="44.43962" lon="4.62428">
        <ele>98</ele>
        <time>29-03-2015T10:37:10Z</time>
      </trkpt>
      <trkpt lat="44.43962" lon="4.62428">
        <ele>98</ele>
        <time>29-03-2015T10:37:15Z</time>
      </trkpt>
      <trkpt lat="44.43962" lon="4.62428">
        <ele>98</ele>
        <time>29-03-2015T10:37:20Z</time>
      </trkpt>
      <trkpt lat="44.43962" lon="4.62428">
        <ele>98</ele>
        <time>29-03-2015T10:37:25Z</time>
      </trkpt>
      <trkpt lat="44.43962" lon="4.62428">
        <ele>98</ele>
        <time>29-03-2015T10:37:30Z</time>
      </trkpt>
      <trkpt lat="44.43962" lon="4.62428">
        <ele>98</ele>
        <time>29-03-2015T10:37:35Z</time>
      </trkpt>
      <trkpt lat="44.43962" lon="4.62428">
        <ele>98</ele>
        <time>29-03-2015T10:37:40Z</time>
      </trkpt>
      <trkpt lat="44.43963" lon="4.62424">
        <ele>98</ele>
        <time>29-03-2015T10:37:45Z</time>
      </trkpt>
      <trkpt lat="44.43963" lon="4.62424">
        <ele>98</ele>
        <time>29-03-2015T10:37:50Z</time>
      </trkpt>
      <trkpt lat="44.43964" lon="4.62423">
        <ele>98</ele>
        <time>29-03-2015T10:37:55Z</time>
      </trkpt>
      <trkpt lat="44.43966" lon="4.62423">
        <ele>98</ele>
        <time>29-03-2015T10:38:00Z</time>
      </trkpt>
      <trkpt lat="44.43966" lon="4.62423">
        <ele>98</ele>
        <time>29-03-2015T10:38:05Z</time>
      </trkpt>
      <trkpt lat="44.43966" lon="4.62423">
        <ele>98</ele>
        <time>29-03-2015T10:38:10Z</time>
      </trkpt>
      <trkpt lat="44.43965" lon="4.62419">
        <ele>98</ele>
        <time>29-03-2015T10:38:15Z</time>
      </trkpt>
      <trkpt lat="44.43965" lon="4.62415">
        <ele>98</ele>
        <time>29-03-2015T10:38:20Z</time>
      </trkpt>
      <trkpt lat="44.43965" lon="4.62414">
        <ele>98</ele>
        <time>29-03-2015T10:38:25Z</time>
      </trkpt>
      <trkpt lat="44.43965" lon="4.62414">
        <ele>98</ele>
        <time>29-03-2015T10:38:30Z</time>
      </trkpt>
      <trkpt lat="44.43965" lon="4.62414">
        <ele>98</ele>
        <time>29-03-2015T10:38:35Z</time>
      </trkpt>
      <trkpt lat="44.43965" lon="4.62414">
        <ele>98</ele>
        <time>29-03-2015T10:38:40Z</time>
      </trkpt>
      <trkpt lat="44.43965" lon="4.62414">
        <ele>98</ele>
        <time>29-03-2015T10:38:45Z</time>
      </trkpt>
      <trkpt lat="44.43965" lon="4.62414">
        <ele>98</ele>
        <time>29-03-2015T10:38:50Z</time>
      </trkpt>
      <trkpt lat="44.43965" lon="4.62414">
        <ele>98</ele>
        <time>29-03-2015T10:38:55Z</time>
      </trkpt>
      <trkpt lat="44.43965" lon="4.62414">
        <ele>98</ele>
        <time>29-03-2015T10:39:00Z</time>
      </trkpt>
      <trkpt lat="44.43965" lon="4.62414">
        <ele>98</ele>
        <time>29-03-2015T10:39:05Z</time>
      </trkpt>
      <trkpt lat="44.43965" lon="4.62414">
        <ele>98</ele>
        <time>29-03-2015T10:39:10Z</time>
      </trkpt>
      <trkpt lat="44.43965" lon="4.62414">
        <ele>98</ele>
        <time>29-03-2015T10:39:15Z</time>
      </trkpt>
      <trkpt lat="44.43965" lon="4.62414">
        <ele>98</ele>
        <time>29-03-2015T10:39:20Z</time>
      </trkpt>
      <trkpt lat="44.43965" lon="4.62414">
        <ele>98</ele>
        <time>29-03-2015T10:39:25Z</time>
      </trkpt>
      <trkpt lat="44.43965" lon="4.62414">
        <ele>98</ele>
        <time>29-03-2015T10:39:30Z</time>
      </trkpt>
      <trkpt lat="44.43965" lon="4.62414">
        <ele>98</ele>
        <time>29-03-2015T10:39:35Z</time>
      </trkpt>
      <trkpt lat="44.43965" lon="4.62414">
        <ele>98</ele>
        <time>29-03-2015T10:39:40Z</time>
      </trkpt>
      <trkpt lat="44.43965" lon="4.62414">
        <ele>98</ele>
        <time>29-03-2015T10:39:45Z</time>
      </trkpt>
      <trkpt lat="44.43965" lon="4.62414">
        <ele>98</ele>
        <time>29-03-2015T10:39:50Z</time>
      </trkpt>
      <trkpt lat="44.43965" lon="4.62414">
        <ele>98</ele>
        <time>29-03-2015T10:39:55Z</time>
      </trkpt>
      <trkpt lat="44.43965" lon="4.62414">
        <ele>98</ele>
        <time>29-03-2015T10:40:00Z</time>
      </trkpt>
      <trkpt lat="44.43965" lon="4.62414">
        <ele>98</ele>
        <time>29-03-2015T10:40:05Z</time>
      </trkpt>
      <trkpt lat="44.43965" lon="4.62414">
        <ele>98</ele>
        <time>29-03-2015T10:40:10Z</time>
      </trkpt>
      <trkpt lat="44.43965" lon="4.62414">
        <ele>98</ele>
        <time>29-03-2015T10:40:15Z</time>
      </trkpt>
      <trkpt lat="44.43965" lon="4.62414">
        <ele>98</ele>
        <time>29-03-2015T10:40:20Z</time>
      </trkpt>
      <trkpt lat="44.43965" lon="4.62414">
        <ele>98</ele>
        <time>29-03-2015T10:40:25Z</time>
      </trkpt>
      <trkpt lat="44.43965" lon="4.62414">
        <ele>98</ele>
        <time>29-03-2015T10:40:30Z</time>
      </trkpt>
      <trkpt lat="44.43966" lon="4.62414">
        <ele>98</ele>
        <time>29-03-2015T10:40:35Z</time>
      </trkpt>
      <trkpt lat="44.43966" lon="4.62414">
        <ele>98</ele>
        <time>29-03-2015T10:40:40Z</time>
      </trkpt>
      <trkpt lat="44.43966" lon="4.62414">
        <ele>98</ele>
        <time>29-03-2015T10:40:45Z</time>
      </trkpt>
      <trkpt lat="44.43966" lon="4.62414">
        <ele>98</ele>
        <time>29-03-2015T10:40:50Z</time>
      </trkpt>
      <trkpt lat="44.43966" lon="4.62414">
        <ele>98</ele>
        <time>29-03-2015T10:40:55Z</time>
      </trkpt>
      <trkpt lat="44.43966" lon="4.62414">
        <ele>98</ele>
        <time>29-03-2015T10:41:00Z</time>
      </trkpt>
      <trkpt lat="44.43966" lon="4.62414">
        <ele>98</ele>
        <time>29-03-2015T10:41:05Z</time>
      </trkpt>
      <trkpt lat="44.43966" lon="4.62414">
        <ele>98</ele>
        <time>29-03-2015T10:41:10Z</time>
      </trkpt>
      <trkpt lat="44.43966" lon="4.62414">
        <ele>98</ele>
        <time>29-03-2015T10:41:15Z</time>
      </trkpt>
      <trkpt lat="44.43966" lon="4.62414">
        <ele>98</ele>
        <time>29-03-2015T10:41:20Z</time>
      </trkpt>
      <trkpt lat="44.43966" lon="4.62414">
        <ele>98</ele>
        <time>29-03-2015T10:41:25Z</time>
      </trkpt>
      <trkpt lat="44.43966" lon="4.62414">
        <ele>98</ele>
        <time>29-03-2015T10:41:30Z</time>
      </trkpt>
      <trkpt lat="44.43966" lon="4.62414">
        <ele>98</ele>
        <time>29-03-2015T10:41:35Z</time>
      </trkpt>
      <trkpt lat="44.43966" lon="4.62414">
        <ele>98</ele>
        <time>29-03-2015T10:41:40Z</time>
      </trkpt>
      <trkpt lat="44.43966" lon="4.62414">
        <ele>98</ele>
        <time>29-03-2015T10:41:45Z</time>
      </trkpt>
      <trkpt lat="44.43966" lon="4.62414">
        <ele>98</ele>
        <time>29-03-2015T10:41:50Z</time>
      </trkpt>
      <trkpt lat="44.43966" lon="4.62414">
        <ele>98</ele>
        <time>29-03-2015T10:41:55Z</time>
      </trkpt>
      <trkpt lat="44.43966" lon="4.62414">
        <ele>98</ele>
        <time>29-03-2015T10:42:00Z</time>
      </trkpt>
      <trkpt lat="44.43966" lon="4.62414">
        <ele>98</ele>
        <time>29-03-2015T10:42:05Z</time>
      </trkpt>
      <trkpt lat="44.43966" lon="4.62414">
        <ele>98</ele>
        <time>29-03-2015T10:42:10Z</time>
      </trkpt>
      <trkpt lat="44.43966" lon="4.62414">
        <ele>98</ele>
        <time>29-03-2015T10:42:15Z</time>
      </trkpt>
      <trkpt lat="44.43966" lon="4.62414">
        <ele>98</ele>
        <time>29-03-2015T10:42:20Z</time>
      </trkpt>
      <trkpt lat="44.43966" lon="4.62414">
        <ele>98</ele>
        <time>29-03-2015T10:42:25Z</time>
      </trkpt>
      <trkpt lat="44.43966" lon="4.62414">
        <ele>98</ele>
        <time>29-03-2015T10:42:30Z</time>
      </trkpt>
      <trkpt lat="44.43966" lon="4.62414">
        <ele>98</ele>
        <time>29-03-2015T10:42:35Z</time>
      </trkpt>
      <trkpt lat="44.43966" lon="4.62414">
        <ele>98</ele>
        <time>29-03-2015T10:42:40Z</time>
      </trkpt>
      <trkpt lat="44.43966" lon="4.62414">
        <ele>98</ele>
        <time>29-03-2015T10:42:45Z</time>
      </trkpt>
      <trkpt lat="44.43966" lon="4.62414">
        <ele>98</ele>
        <time>29-03-2015T10:42:50Z</time>
      </trkpt>
      <trkpt lat="44.43966" lon="4.62415">
        <ele>98</ele>
        <time>29-03-2015T10:42:55Z</time>
      </trkpt>
      <trkpt lat="44.43966" lon="4.62415">
        <ele>98</ele>
        <time>29-03-2015T10:43:00Z</time>
      </trkpt>
      <trkpt lat="44.43966" lon="4.62415">
        <ele>98</ele>
        <time>29-03-2015T10:43:05Z</time>
      </trkpt>
      <trkpt lat="44.43966" lon="4.62415">
        <ele>98</ele>
        <time>29-03-2015T10:43:10Z</time>
      </trkpt>
      <trkpt lat="44.43966" lon="4.62415">
        <ele>98</ele>
        <time>29-03-2015T10:43:15Z</time>
      </trkpt>
      <trkpt lat="44.43966" lon="4.62415">
        <ele>98</ele>
        <time>29-03-2015T10:43:20Z</time>
      </trkpt>
      <trkpt lat="44.43966" lon="4.62415">
        <ele>98</ele>
        <time>29-03-2015T10:43:25Z</time>
      </trkpt>
      <trkpt lat="44.43966" lon="4.62415">
        <ele>98</ele>
        <time>29-03-2015T10:43:30Z</time>
      </trkpt>
      <trkpt lat="44.43966" lon="4.62415">
        <ele>98</ele>
        <time>29-03-2015T10:43:35Z</time>
      </trkpt>
      <trkpt lat="44.43966" lon="4.62415">
        <ele>98</ele>
        <time>29-03-2015T10:43:40Z</time>
      </trkpt>
      <trkpt lat="44.43966" lon="4.62415">
        <ele>98</ele>
        <time>29-03-2015T10:43:45Z</time>
      </trkpt>
      <trkpt lat="44.43966" lon="4.62415">
        <ele>98</ele>
        <time>29-03-2015T10:43:50Z</time>
      </trkpt>
      <trkpt lat="44.43966" lon="4.62415">
        <ele>98</ele>
        <time>29-03-2015T10:43:55Z</time>
      </trkpt>
      <trkpt lat="44.43966" lon="4.62415">
        <ele>98</ele>
        <time>29-03-2015T10:44:00Z</time>
      </trkpt>
      <trkpt lat="44.43966" lon="4.62415">
        <ele>98</ele>
        <time>29-03-2015T10:44:05Z</time>
      </trkpt>
      <trkpt lat="44.43966" lon="4.62415">
        <ele>98</ele>
        <time>29-03-2015T10:44:10Z</time>
      </trkpt>
      <trkpt lat="44.43966" lon="4.62415">
        <ele>98</ele>
        <time>29-03-2015T10:44:15Z</time>
      </trkpt>
      <trkpt lat="44.43966" lon="4.62415">
        <ele>98</ele>
        <time>29-03-2015T10:44:20Z</time>
      </trkpt>
      <trkpt lat="44.43966" lon="4.62415">
        <ele>98</ele>
        <time>29-03-2015T10:44:25Z</time>
      </trkpt>
      <trkpt lat="44.43966" lon="4.62415">
        <ele>98</ele>
        <time>29-03-2015T10:44:30Z</time>
      </trkpt>
      <trkpt lat="44.43966" lon="4.62415">
        <ele>98</ele>
        <time>29-03-2015T10:44:35Z</time>
      </trkpt>
      <trkpt lat="44.43966" lon="4.62415">
        <ele>98</ele>
        <time>29-03-2015T10:44:40Z</time>
      </trkpt>
      <trkpt lat="44.43966" lon="4.62415">
        <ele>98</ele>
        <time>29-03-2015T10:44:45Z</time>
      </trkpt>
      <trkpt lat="44.43966" lon="4.62415">
        <ele>98</ele>
        <time>29-03-2015T10:44:50Z</time>
      </trkpt>
      <trkpt lat="44.43966" lon="4.62415">
        <ele>98</ele>
        <time>29-03-2015T10:44:55Z</time>
      </trkpt>
      <trkpt lat="44.43966" lon="4.62415">
        <ele>98</ele>
        <time>29-03-2015T10:45:00Z</time>
      </trkpt>
      <trkpt lat="44.43966" lon="4.62415">
        <ele>98</ele>
        <time>29-03-2015T10:45:05Z</time>
      </trkpt>
      <trkpt lat="44.43966" lon="4.62415">
        <ele>98</ele>
        <time>29-03-2015T10:45:10Z</time>
      </trkpt>
      <trkpt lat="44.43966" lon="4.62415">
        <ele>98</ele>
        <time>29-03-2015T10:45:15Z</time>
      </trkpt>
      <trkpt lat="44.43966" lon="4.62415">
        <ele>98</ele>
        <time>29-03-2015T10:45:20Z</time>
      </trkpt>
      <trkpt lat="44.43967" lon="4.62421">
        <ele>98</ele>
        <time>29-03-2015T10:45:25Z</time>
      </trkpt>
      <trkpt lat="44.43966" lon="4.62421">
        <ele>98</ele>
        <time>29-03-2015T10:45:30Z</time>
      </trkpt>
      <trkpt lat="44.43966" lon="4.62421">
        <ele>98</ele>
        <time>29-03-2015T10:45:35Z</time>
      </trkpt>
      <trkpt lat="44.43962" lon="4.62423">
        <ele>98</ele>
        <time>29-03-2015T10:45:40Z</time>
      </trkpt>
      <trkpt lat="44.43964" lon="4.62422">
        <ele>98</ele>
        <time>29-03-2015T10:45:45Z</time>
      </trkpt>
      <trkpt lat="44.43963" lon="4.62427">
        <ele>98</ele>
        <time>29-03-2015T10:45:50Z</time>
      </trkpt>
      <trkpt lat="44.4396" lon="4.62432">
        <ele>98</ele>
        <time>29-03-2015T10:45:55Z</time>
      </trkpt>
      <trkpt lat="44.43956" lon="4.62431">
        <ele>98</ele>
        <time>29-03-2015T10:46:00Z</time>
      </trkpt>
      <trkpt lat="44.43951" lon="4.62431">
        <ele>98</ele>
        <time>29-03-2015T10:46:02Z</time>
      </trkpt>
      <trkpt lat="44.43952" lon="4.62432">
        <ele>98</ele>
        <time>29-03-2015T10:46:07Z</time>
      </trkpt>
      <trkpt lat="44.43952" lon="4.62432">
        <ele>98</ele>
        <time>29-03-2015T10:46:12Z</time>
      </trkpt>
      <trkpt lat="44.43953" lon="4.62432">
        <ele>98</ele>
        <time>29-03-2015T10:46:17Z</time>
      </trkpt>
      <trkpt lat="44.43954" lon="4.62431">
        <ele>98</ele>
        <time>29-03-2015T10:46:22Z</time>
      </trkpt>
      <trkpt lat="44.43952" lon="4.62425">
        <ele>98</ele>
        <time>29-03-2015T10:46:26Z</time>
      </trkpt>
      <trkpt lat="44.43949" lon="4.62419">
        <ele>98</ele>
        <time>29-03-2015T10:46:30Z</time>
      </trkpt>
      <trkpt lat="44.43949" lon="4.62412">
        <ele>98</ele>
        <time>29-03-2015T10:46:32Z</time>
      </trkpt>
      <trkpt lat="44.43949" lon="4.62405">
        <ele>98</ele>
        <time>29-03-2015T10:46:34Z</time>
      </trkpt>
      <trkpt lat="44.43951" lon="4.62402">
        <ele>98</ele>
        <time>29-03-2015T10:46:39Z</time>
      </trkpt>
      <trkpt lat="44.43955" lon="4.62401">
        <ele>98</ele>
        <time>29-03-2015T10:46:44Z</time>
      </trkpt>
      <trkpt lat="44.4396" lon="4.62399">
        <ele>98</ele>
        <time>29-03-2015T10:46:47Z</time>
      </trkpt>
      <trkpt lat="44.43968" lon="4.62392">
        <ele>98</ele>
        <time>29-03-2015T10:46:50Z</time>
      </trkpt>
      <trkpt lat="44.43974" lon="4.62387">
        <ele>98</ele>
        <time>29-03-2015T10:46:53Z</time>
      </trkpt>
      <trkpt lat="44.43979" lon="4.62385">
        <ele>98</ele>
        <time>29-03-2015T10:46:56Z</time>
      </trkpt>
      <trkpt lat="44.43984" lon="4.62378">
        <ele>98</ele>
        <time>29-03-2015T10:46:57Z</time>
      </trkpt>
      <trkpt lat="44.4399" lon="4.62371">
        <ele>98</ele>
        <time>29-03-2015T10:46:59Z</time>
      </trkpt>
      <trkpt lat="44.43996" lon="4.62367">
        <ele>98</ele>
        <time>29-03-2015T10:47:01Z</time>
      </trkpt>
      <trkpt lat="44.44001" lon="4.62363">
        <ele>98</ele>
        <time>29-03-2015T10:47:04Z</time>
      </trkpt>
      <trkpt lat="44.44006" lon="4.62364">
        <ele>98</ele>
        <time>29-03-2015T10:47:07Z</time>
      </trkpt>
      <trkpt lat="44.44008" lon="4.62374">
        <ele>98</ele>
        <time>29-03-2015T10:47:11Z</time>
      </trkpt>
      <trkpt lat="44.44015" lon="4.62374">
        <ele>98</ele>
        <time>29-03-2015T10:47:14Z</time>
      </trkpt>
      <trkpt lat="44.4402" lon="4.62377">
        <ele>98</ele>
        <time>29-03-2015T10:47:18Z</time>
      </trkpt>
      <trkpt lat="44.44025" lon="4.62373">
        <ele>98</ele>
        <time>29-03-2015T10:47:20Z</time>
      </trkpt>
      <trkpt lat="44.4403" lon="4.62373">
        <ele>98</ele>
        <time>29-03-2015T10:47:23Z</time>
      </trkpt>
      <trkpt lat="44.44035" lon="4.62376">
        <ele>98</ele>
        <time>29-03-2015T10:47:25Z</time>
      </trkpt>
      <trkpt lat="44.44039" lon="4.62382">
        <ele>98</ele>
        <time>29-03-2015T10:47:27Z</time>
      </trkpt>
      <trkpt lat="44.44041" lon="4.62389">
        <ele>98</ele>
        <time>29-03-2015T10:47:29Z</time>
      </trkpt>
      <trkpt lat="44.44041" lon="4.62397">
        <ele>98</ele>
        <time>29-03-2015T10:47:31Z</time>
      </trkpt>
      <trkpt lat="44.44044" lon="4.62404">
        <ele>98</ele>
        <time>29-03-2015T10:47:33Z</time>
      </trkpt>
      <trkpt lat="44.44042" lon="4.62419">
        <ele>98</ele>
        <time>29-03-2015T10:47:37Z</time>
      </trkpt>
      <trkpt lat="44.44037" lon="4.62425">
        <ele>98</ele>
        <time>29-03-2015T10:47:39Z</time>
      </trkpt>
      <trkpt lat="44.44031" lon="4.62429">
        <ele>98</ele>
        <time>29-03-2015T10:47:41Z</time>
      </trkpt>
      <trkpt lat="44.44025" lon="4.62433">
        <ele>98</ele>
        <time>29-03-2015T10:47:43Z</time>
      </trkpt>
      <trkpt lat="44.44018" lon="4.62437">
        <ele>98</ele>
        <time>29-03-2015T10:47:45Z</time>
      </trkpt>
      <trkpt lat="44.44012" lon="4.62439">
        <ele>98</ele>
        <time>29-03-2015T10:47:47Z</time>
      </trkpt>
      <trkpt lat="44.44006" lon="4.6244">
        <ele>98</ele>
        <time>29-03-2015T10:47:49Z</time>
      </trkpt>
      <trkpt lat="44.44" lon="4.62444">
        <ele>98</ele>
        <time>29-03-2015T10:47:51Z</time>
      </trkpt>
      <trkpt lat="44.43994" lon="4.6245">
        <ele>98</ele>
        <time>29-03-2015T10:47:53Z</time>
      </trkpt>
      <trkpt lat="44.43988" lon="4.62455">
        <ele>98</ele>
        <time>29-03-2015T10:47:55Z</time>
      </trkpt>
      <trkpt lat="44.43984" lon="4.62461">
        <ele>98</ele>
        <time>29-03-2015T10:47:57Z</time>
      </trkpt>
      <trkpt lat="44.4398" lon="4.62469">
        <ele>98</ele>
        <time>29-03-2015T10:47:59Z</time>
      </trkpt>
      <trkpt lat="44.43976" lon="4.62474">
        <ele>98</ele>
        <time>29-03-2015T10:48:01Z</time>
      </trkpt>
      <trkpt lat="44.43969" lon="4.62476">
        <ele>98</ele>
        <time>29-03-2015T10:48:03Z</time>
      </trkpt>
      <trkpt lat="44.43964" lon="4.62479">
        <ele>98</ele>
        <time>29-03-2015T10:48:05Z</time>
      </trkpt>
      <trkpt lat="44.43956" lon="4.62483">
        <ele>98</ele>
        <time>29-03-2015T10:48:07Z</time>
      </trkpt>
      <trkpt lat="44.43952" lon="4.62486">
        <ele>98</ele>
        <time>29-03-2015T10:48:08Z</time>
      </trkpt>
      <trkpt lat="44.43947" lon="4.62488">
        <ele>98</ele>
        <time>29-03-2015T10:48:09Z</time>
      </trkpt>
      <trkpt lat="44.43942" lon="4.62491">
        <ele>98</ele>
        <time>29-03-2015T10:48:10Z</time>
      </trkpt>
      <trkpt lat="44.43938" lon="4.62494">
        <ele>98</ele>
        <time>29-03-2015T10:48:11Z</time>
      </trkpt>
      <trkpt lat="44.43933" lon="4.62498">
        <ele>98</ele>
        <time>29-03-2015T10:48:12Z</time>
      </trkpt>
      <trkpt lat="44.43929" lon="4.62502">
        <ele>98</ele>
        <time>29-03-2015T10:48:13Z</time>
      </trkpt>
      <trkpt lat="44.43922" lon="4.62506">
        <ele>98</ele>
        <time>29-03-2015T10:48:15Z</time>
      </trkpt>
      <trkpt lat="44.43917" lon="4.62508">
        <ele>98</ele>
        <time>29-03-2015T10:48:16Z</time>
      </trkpt>
      <trkpt lat="44.43909" lon="4.62512">
        <ele>98</ele>
        <time>29-03-2015T10:48:18Z</time>
      </trkpt>
      <trkpt lat="44.43904" lon="4.62516">
        <ele>98</ele>
        <time>29-03-2015T10:48:20Z</time>
      </trkpt>
      <trkpt lat="44.43897" lon="4.62516">
        <ele>98</ele>
        <time>29-03-2015T10:48:22Z</time>
      </trkpt>
      <trkpt lat="44.43892" lon="4.62516">
        <ele>98</ele>
        <time>29-03-2015T10:48:24Z</time>
      </trkpt>
      <trkpt lat="44.43889" lon="4.62517">
        <ele>98</ele>
        <time>29-03-2015T10:48:29Z</time>
      </trkpt>
      <trkpt lat="44.43889" lon="4.62518">
        <ele>98</ele>
        <time>29-03-2015T10:48:34Z</time>
      </trkpt>
      <trkpt lat="44.4389" lon="4.62518">
        <ele>98</ele>
        <time>29-03-2015T10:48:39Z</time>
      </trkpt>
      <trkpt lat="44.43889" lon="4.62515">
        <ele>98</ele>
        <time>29-03-2015T10:48:44Z</time>
      </trkpt>
      <trkpt lat="44.43891" lon="4.62514">
        <ele>98</ele>
        <time>29-03-2015T10:48:49Z</time>
      </trkpt>
      <trkpt lat="44.4389" lon="4.62512">
        <ele>98</ele>
        <time>29-03-2015T10:48:54Z</time>
      </trkpt>
      <trkpt lat="44.43889" lon="4.62511">
        <ele>98</ele>
        <time>29-03-2015T10:48:59Z</time>
      </trkpt>
      <trkpt lat="44.43888" lon="4.62512">
        <ele>98</ele>
        <time>29-03-2015T10:49:04Z</time>
      </trkpt>
      <trkpt lat="44.43888" lon="4.62511">
        <ele>98</ele>
        <time>29-03-2015T10:49:09Z</time>
      </trkpt>
      <trkpt lat="44.4389" lon="4.62511">
        <ele>98</ele>
        <time>29-03-2015T10:49:14Z</time>
      </trkpt>
      <trkpt lat="44.4389" lon="4.62511">
        <ele>98</ele>
        <time>29-03-2015T10:49:19Z</time>
      </trkpt>
      <trkpt lat="44.4389" lon="4.62511">
        <ele>98</ele>
        <time>29-03-2015T10:49:24Z</time>
      </trkpt>
      <trkpt lat="44.4389" lon="4.62511">
        <ele>98</ele>
        <time>29-03-2015T10:49:29Z</time>
      </trkpt>
      <trkpt lat="44.4389" lon="4.62511">
        <ele>98</ele>
        <time>29-03-2015T10:49:34Z</time>
      </trkpt>
      <trkpt lat="44.4389" lon="4.62511">
        <ele>98</ele>
        <time>29-03-2015T10:49:39Z</time>
      </trkpt>
      <trkpt lat="44.4389" lon="4.62511">
        <ele>98</ele>
        <time>29-03-2015T10:49:44Z</time>
      </trkpt>
      <trkpt lat="44.43888" lon="4.62514">
        <ele>98</ele>
        <time>29-03-2015T10:49:49Z</time>
      </trkpt>
      <trkpt lat="44.43889" lon="4.62512">
        <ele>98</ele>
        <time>29-03-2015T10:49:54Z</time>
      </trkpt>
      <trkpt lat="44.43889" lon="4.62514">
        <ele>98</ele>
        <time>29-03-2015T10:49:59Z</time>
      </trkpt>
      <trkpt lat="44.43889" lon="4.62515">
        <ele>98</ele>
        <time>29-03-2015T10:50:04Z</time>
      </trkpt>
      <trkpt lat="44.43889" lon="4.62516">
        <ele>98</ele>
        <time>29-03-2015T10:50:09Z</time>
      </trkpt>
      <trkpt lat="44.43888" lon="4.62517">
        <ele>98</ele>
        <time>29-03-2015T10:50:14Z</time>
      </trkpt>
      <trkpt lat="44.43888" lon="4.62517">
        <ele>98</ele>
        <time>29-03-2015T10:50:19Z</time>
      </trkpt>
      <trkpt lat="44.43886" lon="4.62516">
        <ele>98</ele>
        <time>29-03-2015T10:50:24Z</time>
      </trkpt>
      <trkpt lat="44.43886" lon="4.62515">
        <ele>98</ele>
        <time>29-03-2015T10:50:29Z</time>
      </trkpt>
      <trkpt lat="44.43886" lon="4.62514">
        <ele>98</ele>
        <time>29-03-2015T10:50:34Z</time>
      </trkpt>
      <trkpt lat="44.43886" lon="4.62514">
        <ele>98</ele>
        <time>29-03-2015T10:50:39Z</time>
      </trkpt>
      <trkpt lat="44.43886" lon="4.62513">
        <ele>98</ele>
        <time>29-03-2015T10:50:44Z</time>
      </trkpt>
      <trkpt lat="44.43886" lon="4.62513">
        <ele>98</ele>
        <time>29-03-2015T10:50:49Z</time>
      </trkpt>
      <trkpt lat="44.43887" lon="4.62513">
        <ele>98</ele>
        <time>29-03-2015T10:50:54Z</time>
      </trkpt>
      <trkpt lat="44.43887" lon="4.62513">
        <ele>98</ele>
        <time>29-03-2015T10:50:59Z</time>
      </trkpt>
      <trkpt lat="44.43887" lon="4.62513">
        <ele>98</ele>
        <time>29-03-2015T10:51:04Z</time>
      </trkpt>
      <trkpt lat="44.43887" lon="4.62513">
        <ele>98</ele>
        <time>29-03-2015T10:51:09Z</time>
      </trkpt>
      <trkpt lat="44.43889" lon="4.62514">
        <ele>98</ele>
        <time>29-03-2015T10:51:14Z</time>
      </trkpt>
      <trkpt lat="44.43889" lon="4.62512">
        <ele>98</ele>
        <time>29-03-2015T10:51:19Z</time>
      </trkpt>
      <trkpt lat="44.4389" lon="4.62509">
        <ele>98</ele>
        <time>29-03-2015T10:51:24Z</time>
      </trkpt>
      <trkpt lat="44.43886" lon="4.62516">
        <ele>98</ele>
        <time>29-03-2015T10:51:28Z</time>
      </trkpt>
      <trkpt lat="44.43889" lon="4.62514">
        <ele>98</ele>
        <time>29-03-2015T10:51:33Z</time>
      </trkpt>
      <trkpt lat="44.43893" lon="4.62512">
        <ele>98</ele>
        <time>29-03-2015T10:51:38Z</time>
      </trkpt>
      <trkpt lat="44.43895" lon="4.62512">
        <ele>98</ele>
        <time>29-03-2015T10:51:43Z</time>
      </trkpt>
      <trkpt lat="44.43894" lon="4.62512">
        <ele>98</ele>
        <time>29-03-2015T10:51:48Z</time>
      </trkpt>
      <trkpt lat="44.43894" lon="4.62512">
        <ele>98</ele>
        <time>29-03-2015T10:51:53Z</time>
      </trkpt>
      <trkpt lat="44.43894" lon="4.62512">
        <ele>98</ele>
        <time>29-03-2015T10:51:58Z</time>
      </trkpt>
      <trkpt lat="44.43894" lon="4.62512">
        <ele>98</ele>
        <time>29-03-2015T10:52:03Z</time>
      </trkpt>
      <trkpt lat="44.43894" lon="4.62512">
        <ele>98</ele>
        <time>29-03-2015T10:52:08Z</time>
      </trkpt>
      <trkpt lat="44.43894" lon="4.62512">
        <ele>98</ele>
        <time>29-03-2015T10:52:13Z</time>
      </trkpt>
      <trkpt lat="44.43894" lon="4.62512">
        <ele>98</ele>
        <time>29-03-2015T10:52:18Z</time>
      </trkpt>
      <trkpt lat="44.43894" lon="4.62512">
        <ele>98</ele>
        <time>29-03-2015T10:52:23Z</time>
      </trkpt>
      <trkpt lat="44.43894" lon="4.62512">
        <ele>98</ele>
        <time>29-03-2015T10:52:28Z</time>
      </trkpt>
      <trkpt lat="44.43894" lon="4.62512">
        <ele>98</ele>
        <time>29-03-2015T10:52:33Z</time>
      </trkpt>
      <trkpt lat="44.43894" lon="4.62512">
        <ele>98</ele>
        <time>29-03-2015T10:52:38Z</time>
      </trkpt>
      <trkpt lat="44.43894" lon="4.62512">
        <ele>98</ele>
        <time>29-03-2015T10:52:43Z</time>
      </trkpt>
      <trkpt lat="44.43894" lon="4.62512">
        <ele>98</ele>
        <time>29-03-2015T10:52:48Z</time>
      </trkpt>
      <trkpt lat="44.43894" lon="4.62512">
        <ele>98</ele>
        <time>29-03-2015T10:52:53Z</time>
      </trkpt>
      <trkpt lat="44.43894" lon="4.62512">
        <ele>98</ele>
        <time>29-03-2015T10:52:58Z</time>
      </trkpt>
      <trkpt lat="44.43894" lon="4.62512">
        <ele>98</ele>
        <time>29-03-2015T10:53:03Z</time>
      </trkpt>
      <trkpt lat="44.43894" lon="4.62512">
        <ele>98</ele>
        <time>29-03-2015T10:53:08Z</time>
      </trkpt>
      <trkpt lat="44.43894" lon="4.62512">
        <ele>98</ele>
        <time>29-03-2015T10:53:13Z</time>
      </trkpt>
      <trkpt lat="44.43894" lon="4.62512">
        <ele>98</ele>
        <time>29-03-2015T10:53:18Z</time>
      </trkpt>
      <trkpt lat="44.43894" lon="4.62512">
        <ele>98</ele>
        <time>29-03-2015T10:53:23Z</time>
      </trkpt>
      <trkpt lat="44.43894" lon="4.62512">
        <ele>98</ele>
        <time>29-03-2015T10:53:28Z</time>
      </trkpt>
      <trkpt lat="44.43894" lon="4.62512">
        <ele>98</ele>
        <time>29-03-2015T10:53:33Z</time>
      </trkpt>
      <trkpt lat="44.43894" lon="4.62512">
        <ele>98</ele>
        <time>29-03-2015T10:53:38Z</time>
      </trkpt>
      <trkpt lat="44.43894" lon="4.62512">
        <ele>98</ele>
        <time>29-03-2015T10:53:43Z</time>
      </trkpt>
      <trkpt lat="44.43894" lon="4.62512">
        <ele>98</ele>
        <time>29-03-2015T10:53:48Z</time>
      </trkpt>
      <trkpt lat="44.43894" lon="4.62512">
        <ele>98</ele>
        <time>29-03-2015T10:53:53Z</time>
      </trkpt>
      <trkpt lat="44.43894" lon="4.62512">
        <ele>98</ele>
        <time>29-03-2015T10:53:58Z</time>
      </trkpt>
      <trkpt lat="44.43894" lon="4.62512">
        <ele>98</ele>
        <time>29-03-2015T10:54:03Z</time>
      </trkpt>
      <trkpt lat="44.43894" lon="4.62512">
        <ele>98</ele>
        <time>29-03-2015T10:54:08Z</time>
      </trkpt>
      <trkpt lat="44.43894" lon="4.62512">
        <ele>98</ele>
        <time>29-03-2015T10:54:13Z</time>
      </trkpt>
      <trkpt lat="44.43894" lon="4.62512">
        <ele>98</ele>
        <time>29-03-2015T10:54:18Z</time>
      </trkpt>
      <trkpt lat="44.43894" lon="4.62512">
        <ele>98</ele>
        <time>29-03-2015T10:54:23Z</time>
      </trkpt>
      <trkpt lat="44.43894" lon="4.62512">
        <ele>98</ele>
        <time>29-03-2015T10:54:28Z</time>
      </trkpt>
      <trkpt lat="44.43894" lon="4.62512">
        <ele>98</ele>
        <time>29-03-2015T10:54:33Z</time>
      </trkpt>
      <trkpt lat="44.43894" lon="4.62512">
        <ele>98</ele>
        <time>29-03-2015T10:54:38Z</time>
      </trkpt>
      <trkpt lat="44.43894" lon="4.62512">
        <ele>98</ele>
        <time>29-03-2015T10:54:43Z</time>
      </trkpt>
      <trkpt lat="44.43894" lon="4.62512">
        <ele>98</ele>
        <time>29-03-2015T10:54:48Z</time>
      </trkpt>
      <trkpt lat="44.43894" lon="4.62512">
        <ele>98</ele>
        <time>29-03-2015T10:54:53Z</time>
      </trkpt>
      <trkpt lat="44.43894" lon="4.62512">
        <ele>98</ele>
        <time>29-03-2015T10:54:58Z</time>
      </trkpt>
      <trkpt lat="44.43894" lon="4.62512">
        <ele>98</ele>
        <time>29-03-2015T10:55:03Z</time>
      </trkpt>
      <trkpt lat="44.43894" lon="4.62512">
        <ele>98</ele>
        <time>29-03-2015T10:55:08Z</time>
      </trkpt>
      <trkpt lat="44.43893" lon="4.62512">
        <ele>98</ele>
        <time>29-03-2015T10:55:13Z</time>
      </trkpt>
      <trkpt lat="44.43893" lon="4.62512">
        <ele>98</ele>
        <time>29-03-2015T10:55:18Z</time>
      </trkpt>
      <trkpt lat="44.43893" lon="4.62512">
        <ele>98</ele>
        <time>29-03-2015T10:55:23Z</time>
      </trkpt>
      <trkpt lat="44.43893" lon="4.62512">
        <ele>98</ele>
        <time>29-03-2015T10:55:28Z</time>
      </trkpt>
      <trkpt lat="44.43893" lon="4.62512">
        <ele>98</ele>
        <time>29-03-2015T10:55:33Z</time>
      </trkpt>
      <trkpt lat="44.43893" lon="4.62512">
        <ele>98</ele>
        <time>29-03-2015T10:55:38Z</time>
      </trkpt>
      <trkpt lat="44.43893" lon="4.62512">
        <ele>98</ele>
        <time>29-03-2015T10:55:43Z</time>
      </trkpt>
      <trkpt lat="44.43893" lon="4.62512">
        <ele>98</ele>
        <time>29-03-2015T10:55:48Z</time>
      </trkpt>
      <trkpt lat="44.43893" lon="4.62512">
        <ele>98</ele>
        <time>29-03-2015T10:55:53Z</time>
      </trkpt>
      <trkpt lat="44.43893" lon="4.62512">
        <ele>98</ele>
        <time>29-03-2015T10:55:58Z</time>
      </trkpt>
      <trkpt lat="44.43893" lon="4.62512">
        <ele>98</ele>
        <time>29-03-2015T10:56:03Z</time>
      </trkpt>
      <trkpt lat="44.43893" lon="4.62512">
        <ele>98</ele>
        <time>29-03-2015T10:56:08Z</time>
      </trkpt>
      <trkpt lat="44.43893" lon="4.62512">
        <ele>98</ele>
        <time>29-03-2015T10:56:13Z</time>
      </trkpt>
      <trkpt lat="44.43893" lon="4.62512">
        <ele>98</ele>
        <time>29-03-2015T10:56:18Z</time>
      </trkpt>
      <trkpt lat="44.43893" lon="4.62512">
        <ele>98</ele>
        <time>29-03-2015T10:56:23Z</time>
      </trkpt>
      <trkpt lat="44.43893" lon="4.62512">
        <ele>98</ele>
        <time>29-03-2015T10:56:28Z</time>
      </trkpt>
      <trkpt lat="44.43893" lon="4.62512">
        <ele>98</ele>
        <time>29-03-2015T10:56:33Z</time>
      </trkpt>
      <trkpt lat="44.43893" lon="4.62512">
        <ele>98</ele>
        <time>29-03-2015T10:56:38Z</time>
      </trkpt>
      <trkpt lat="44.43893" lon="4.62512">
        <ele>98</ele>
        <time>29-03-2015T10:56:43Z</time>
      </trkpt>
      <trkpt lat="44.43893" lon="4.62512">
        <ele>98</ele>
        <time>29-03-2015T10:56:48Z</time>
      </trkpt>
      <trkpt lat="44.43895" lon="4.62513">
        <ele>98</ele>
        <time>29-03-2015T10:56:53Z</time>
      </trkpt>
      <trkpt lat="44.43895" lon="4.62515">
        <ele>98</ele>
        <time>29-03-2015T10:56:58Z</time>
      </trkpt>
      <trkpt lat="44.43896" lon="4.62515">
        <ele>98</ele>
        <time>29-03-2015T10:57:03Z</time>
      </trkpt>
      <trkpt lat="44.43896" lon="4.62515">
        <ele>98</ele>
        <time>29-03-2015T10:57:08Z</time>
      </trkpt>
      <trkpt lat="44.43895" lon="4.62515">
        <ele>98</ele>
        <time>29-03-2015T10:57:13Z</time>
      </trkpt>
      <trkpt lat="44.43893" lon="4.62519">
        <ele>98</ele>
        <time>29-03-2015T10:57:18Z</time>
      </trkpt>
      <trkpt lat="44.43891" lon="4.62519">
        <ele>98</ele>
        <time>29-03-2015T10:57:23Z</time>
      </trkpt>
      <trkpt lat="44.43891" lon="4.62519">
        <ele>98</ele>
        <time>29-03-2015T10:57:28Z</time>
      </trkpt>
      <trkpt lat="44.43891" lon="4.62521">
        <ele>98</ele>
        <time>29-03-2015T10:57:33Z</time>
      </trkpt>
      <trkpt lat="44.4389" lon="4.62521">
        <ele>98</ele>
        <time>29-03-2015T10:57:38Z</time>
      </trkpt>
      <trkpt lat="44.4389" lon="4.62521">
        <ele>98</ele>
        <time>29-03-2015T10:57:43Z</time>
      </trkpt>
      <trkpt lat="44.4389" lon="4.62521">
        <ele>98</ele>
        <time>29-03-2015T10:57:48Z</time>
      </trkpt>
      <trkpt lat="44.4389" lon="4.62521">
        <ele>98</ele>
        <time>29-03-2015T10:57:53Z</time>
      </trkpt>
      <trkpt lat="44.4389" lon="4.62521">
        <ele>98</ele>
        <time>29-03-2015T10:57:58Z</time>
      </trkpt>
      <trkpt lat="44.4389" lon="4.62521">
        <ele>98</ele>
        <time>29-03-2015T10:58:03Z</time>
      </trkpt>
      <trkpt lat="44.4389" lon="4.62521">
        <ele>98</ele>
        <time>29-03-2015T10:58:08Z</time>
      </trkpt>
      <trkpt lat="44.43896" lon="4.6252">
        <ele>98</ele>
        <time>29-03-2015T10:58:11Z</time>
      </trkpt>
      <trkpt lat="44.43904" lon="4.62518">
        <ele>98</ele>
        <time>29-03-2015T10:58:13Z</time>
      </trkpt>
      <trkpt lat="44.43909" lon="4.62514">
        <ele>98</ele>
        <time>29-03-2015T10:58:14Z</time>
      </trkpt>
      <trkpt lat="44.43917" lon="4.6251">
        <ele>98</ele>
        <time>29-03-2015T10:58:16Z</time>
      </trkpt>
      <trkpt lat="44.43924" lon="4.62506">
        <ele>98</ele>
        <time>29-03-2015T10:58:18Z</time>
      </trkpt>
      <trkpt lat="44.43933" lon="4.625">
        <ele>98</ele>
        <time>29-03-2015T10:58:20Z</time>
      </trkpt>
      <trkpt lat="44.4394" lon="4.62496">
        <ele>98</ele>
        <time>29-03-2015T10:58:21Z</time>
      </trkpt>
      <trkpt lat="44.43946" lon="4.62492">
        <ele>98</ele>
        <time>29-03-2015T10:58:22Z</time>
      </trkpt>
      <trkpt lat="44.43953" lon="4.62487">
        <ele>98</ele>
        <time>29-03-2015T10:58:24Z</time>
      </trkpt>
      <trkpt lat="44.43958" lon="4.62486">
        <ele>98</ele>
        <time>29-03-2015T10:58:25Z</time>
      </trkpt>
      <trkpt lat="44.43964" lon="4.62489">
        <ele>98</ele>
        <time>29-03-2015T10:58:27Z</time>
      </trkpt>
      <trkpt lat="44.43969" lon="4.62491">
        <ele>98</ele>
        <time>29-03-2015T10:58:29Z</time>
      </trkpt>
      <trkpt lat="44.43975" lon="4.62492">
        <ele>98</ele>
        <time>29-03-2015T10:58:31Z</time>
      </trkpt>
      <trkpt lat="44.43979" lon="4.62487">
        <ele>98</ele>
        <time>29-03-2015T10:58:35Z</time>
      </trkpt>
      <trkpt lat="44.43978" lon="4.62481">
        <ele>98</ele>
        <time>29-03-2015T10:58:38Z</time>
      </trkpt>
      <trkpt lat="44.43974" lon="4.62482">
        <ele>98</ele>
        <time>29-03-2015T10:58:43Z</time>
      </trkpt>
      <trkpt lat="44.43974" lon="4.62481">
        <ele>98</ele>
        <time>29-03-2015T10:58:48Z</time>
      </trkpt>
      <trkpt lat="44.43969" lon="4.62481">
        <ele>98</ele>
        <time>29-03-2015T10:58:52Z</time>
      </trkpt>
      <trkpt lat="44.43958" lon="4.62486">
        <ele>98</ele>
        <time>29-03-2015T10:58:54Z</time>
      </trkpt>
      <trkpt lat="44.43953" lon="4.62489">
        <ele>98</ele>
        <time>29-03-2015T10:58:55Z</time>
      </trkpt>
      <trkpt lat="44.43948" lon="4.62492">
        <ele>98</ele>
        <time>29-03-2015T10:58:56Z</time>
      </trkpt>
      <trkpt lat="44.43942" lon="4.62496">
        <ele>98</ele>
        <time>29-03-2015T10:58:57Z</time>
      </trkpt>
      <trkpt lat="44.43936" lon="4.62501">
        <ele>98</ele>
        <time>29-03-2015T10:58:58Z</time>
      </trkpt>
      <trkpt lat="44.43931" lon="4.62505">
        <ele>98</ele>
        <time>29-03-2015T10:58:59Z</time>
      </trkpt>
      <trkpt lat="44.43926" lon="4.62508">
        <ele>98</ele>
        <time>29-03-2015T10:59:00Z</time>
      </trkpt>
      <trkpt lat="44.43921" lon="4.62511">
        <ele>98</ele>
        <time>29-03-2015T10:59:01Z</time>
      </trkpt>
      <trkpt lat="44.43915" lon="4.62513">
        <ele>98</ele>
        <time>29-03-2015T10:59:02Z</time>
      </trkpt>
      <trkpt lat="44.4391" lon="4.62514">
        <ele>98</ele>
        <time>29-03-2015T10:59:03Z</time>
      </trkpt>
      <trkpt lat="44.43902" lon="4.62517">
        <ele>98</ele>
        <time>29-03-2015T10:59:04Z</time>
      </trkpt>
      <trkpt lat="44.43896" lon="4.62517">
        <ele>98</ele>
        <time>29-03-2015T10:59:05Z</time>
      </trkpt>
      <trkpt lat="44.43891" lon="4.62518">
        <ele>98</ele>
        <time>29-03-2015T10:59:06Z</time>
      </trkpt>
      <trkpt lat="44.43882" lon="4.62518">
        <ele>98</ele>
        <time>29-03-2015T10:59:07Z</time>
      </trkpt>
      <trkpt lat="44.43875" lon="4.62518">
        <ele>98</ele>
        <time>29-03-2015T10:59:08Z</time>
      </trkpt>
      <trkpt lat="44.43869" lon="4.62517">
        <ele>98</ele>
        <time>29-03-2015T10:59:09Z</time>
      </trkpt>
      <trkpt lat="44.43862" lon="4.62516">
        <ele>98</ele>
        <time>29-03-2015T10:59:10Z</time>
      </trkpt>
      <trkpt lat="44.43854" lon="4.62514">
        <ele>98</ele>
        <time>29-03-2015T10:59:11Z</time>
      </trkpt>
      <trkpt lat="44.43846" lon="4.62513">
        <ele>98</ele>
        <time>29-03-2015T10:59:12Z</time>
      </trkpt>
      <trkpt lat="44.43839" lon="4.62514">
        <ele>98</ele>
        <time>29-03-2015T10:59:13Z</time>
      </trkpt>
      <trkpt lat="44.43829" lon="4.62513">
        <ele>98</ele>
        <time>29-03-2015T10:59:14Z</time>
      </trkpt>
      <trkpt lat="44.43821" lon="4.62513">
        <ele>98</ele>
        <time>29-03-2015T10:59:15Z</time>
      </trkpt>
      <trkpt lat="44.43812" lon="4.62514">
        <ele>98</ele>
        <time>29-03-2015T10:59:16Z</time>
      </trkpt>
      <trkpt lat="44.43805" lon="4.62513">
        <ele>98</ele>
        <time>29-03-2015T10:59:17Z</time>
      </trkpt>
      <trkpt lat="44.43796" lon="4.62513">
        <ele>98</ele>
        <time>29-03-2015T10:59:18Z</time>
      </trkpt>
      <trkpt lat="44.43785" lon="4.62511">
        <ele>98</ele>
        <time>29-03-2015T10:59:19Z</time>
      </trkpt>
      <trkpt lat="44.43774" lon="4.62509">
        <ele>98</ele>
        <time>29-03-2015T10:59:20Z</time>
      </trkpt>
      <trkpt lat="44.43762" lon="4.62509">
        <ele>98</ele>
        <time>29-03-2015T10:59:21Z</time>
      </trkpt>
      <trkpt lat="44.43752" lon="4.62506">
        <ele>98</ele>
        <time>29-03-2015T10:59:22Z</time>
      </trkpt>
      <trkpt lat="44.43741" lon="4.62503">
        <ele>98</ele>
        <time>29-03-2015T10:59:23Z</time>
      </trkpt>
      <trkpt lat="44.43728" lon="4.625">
        <ele>98</ele>
        <time>29-03-2015T10:59:24Z</time>
      </trkpt>
      <trkpt lat="44.43716" lon="4.62494">
        <ele>98</ele>
        <time>29-03-2015T10:59:25Z</time>
      </trkpt>
      <trkpt lat="44.43702" lon="4.62489">
        <ele>98</ele>
        <time>29-03-2015T10:59:26Z</time>
      </trkpt>
      <trkpt lat="44.43689" lon="4.62486">
        <ele>98</ele>
        <time>29-03-2015T10:59:27Z</time>
      </trkpt>
      <trkpt lat="44.43678" lon="4.62483">
        <ele>98</ele>
        <time>29-03-2015T10:59:28Z</time>
      </trkpt>
      <trkpt lat="44.43678" lon="4.62483">
        <ele>98</ele>
        <time>29-03-2015T10:59:28Z</time>
      </trkpt>
    </trkseg>
  </trk>
</gpx>